
Distance (Route):
Temperature : 22.3°C
Humidity : 58.9%
Pressure : 976.4hPa| Receiver | Frames | First received | Last received |
|---|---|---|---|
| BIOWL1-15 | 792 | 2026-09-04 05:00:39 | 2026-09-04 07:29:12 |
| DM0DOS-11 | 683 | 2026-09-04 05:00:26 | 2026-09-04 07:30:01 |
| DL1XH-west | 325 | 2026-09-04 06:00:54 | 2026-09-04 07:01:13 |
| DO3MHA-11 | 281 | 2026-09-04 05:16:17 | 2026-09-04 07:43:45 |
| HSKMA3-T | 266 | 2026-09-04 05:50:11 | 2026-09-04 07:08:48 |
| DL1XH1-15 | 235 | 2026-09-04 05:59:50 | 2026-09-04 07:00:42 |
| DG9SBQ-11 | 206 | 2026-09-04 05:03:36 | 2026-09-04 07:37:31 |
| DK5PH-5 | 166 | 2026-09-04 04:56:04 | 2026-09-04 07:53:49 |
| DB0UT-7 | 142 | 2026-09-04 04:47:22 | 2026-09-04 07:50:16 |
| DB0ND-19 | 142 | 2026-09-04 04:48:37 | 2026-09-04 07:51:43 |
| DB0UT-9 | 135 | 2026-09-04 04:43:25 | 2026-09-04 07:50:12 |
| DL1ZP-14 | 122 | 2026-09-04 04:51:47 | 2026-09-04 07:44:41 |
| DF7PN | 115 | 2026-09-04 04:52:56 | 2026-09-04 07:48:56 |
| DK7TD | 102 | 2026-09-04 06:09:51 | 2026-09-04 07:36:53 |
| DJ2DS-15 | 100 | 2026-09-04 05:36:04 | 2026-09-04 07:04:17 |
| CB1BUN | 98 | 2026-09-04 04:49:18 | 2026-09-04 07:23:23 |
| DB0NH | 98 | 2026-09-04 05:01:10 | 2026-09-04 07:48:14 |
| DL0LBS | 97 | 2026-09-04 05:02:42 | 2026-09-04 07:47:22 |
| AA1-15 | 95 | 2026-09-04 06:21:38 | 2026-09-04 06:50:41 |
| DM3KS-11 | 86 | 2026-09-04 04:53:01 | 2026-09-04 07:11:13 |
| NBG1-10 | 81 | 2026-09-04 05:01:26 | 2026-09-04 07:39:22 |
| HEMX73-11 | 79 | 2026-09-04 04:51:19 | 2026-09-04 07:14:13 |
| DM7RM-13 | 79 | 2026-09-04 05:14:06 | 2026-09-04 07:52:46 |
| DF3TZ-5 | 74 | 2026-09-04 05:09:16 | 2026-09-04 07:50:12 |
| BIOWL9-15 | 62 | 2026-09-04 05:01:33 | 2026-09-04 07:27:27 |
| DD1CC8 | 58 | 2026-09-04 05:28:46 | 2026-09-04 07:16:56 |
| DF1GD-15 | 55 | 2026-09-04 05:43:37 | 2026-09-04 07:39:23 |
| DF2AP-13 | 54 | 2026-09-04 05:24:16 | 2026-09-04 07:26:35 |
| DL9PN | 52 | 2026-09-04 04:49:21 | 2026-09-04 05:34:55 |
| DL3AQ-11 | 50 | 2026-09-04 06:04:55 | 2026-09-04 06:58:56 |
| DL8DAS-14 | 49 | 2026-09-04 05:16:39 | 2026-09-04 07:12:59 |
| SFWM-10 | 49 | 2026-09-04 05:23:03 | 2026-09-04 07:47:24 |
| KANTATE | 48 | 2026-09-04 05:43:16 | 2026-09-04 07:45:37 |
| DL8DAS-15 | 45 | 2026-09-04 05:22:33 | 2026-09-04 07:09:17 |
| DJ2KF-10 | 41 | 2026-09-04 05:49:34 | 2026-09-04 06:59:19 |
| DO1YAY-16 | 38 | 2026-09-04 05:16:42 | 2026-09-04 06:56:06 |
| AU51GT2 | 37 | 2026-09-04 05:26:33 | 2026-09-04 07:02:44 |
| DO3DL | 34 | 2026-09-04 05:46:17 | 2026-09-04 07:05:30 |
| DJTTGO | 33 | 2026-09-04 05:43:22 | 2026-09-04 07:20:58 |
| BIOWL7-15 | 26 | 2026-09-04 05:03:35 | 2026-09-04 07:17:28 |
| DL4BBY-15 | 25 | 2026-09-04 05:43:06 | 2026-09-04 07:01:59 |
| DH7VM-15 | 23 | 2026-09-04 04:58:10 | 2026-09-04 07:45:46 |
| IW2NTF | 22 | 2026-09-04 06:20:35 | 2026-09-04 06:53:42 |
| DL6DJ-15 | 21 | 2026-09-04 06:04:06 | 2026-09-04 06:54:51 |
| DL1NUX | 17 | 2026-09-04 06:08:32 | 2026-09-04 07:06:03 |
| DN1GJH-1 | 15 | 2026-09-04 05:42:50 | 2026-09-04 07:17:06 |
| SONDE2-11 | 15 | 2026-09-04 06:03:41 | 2026-09-04 06:59:03 |
| DO8TBO-1 | 14 | 2026-09-04 06:04:15 | 2026-09-04 07:15:18 |
| DO9LL-15 | 10 | 2026-09-04 05:27:31 | 2026-09-04 06:05:08 |
| PG1ADW-2 | 9 | 2026-09-04 06:37:32 | 2026-09-04 06:43:55 |
| DG1MJG | 8 | 2026-09-04 06:16:13 | 2026-09-04 06:50:16 |
| BEGRI65-1 | 7 | 2026-09-04 05:29:31 | 2026-09-04 06:11:42 |
| DF8AY | 7 | 2026-09-04 06:27:09 | 2026-09-04 06:47:45 |
| OE5DXL-15 | 7 | 2026-09-04 06:27:13 | 2026-09-04 06:42:14 |
| OE5DRO-10 | 5 | 2026-09-04 06:32:43 | 2026-09-04 06:46:57 |
| SO1NDE-10 | 5 | 2026-09-04 07:01:39 | 2026-09-04 07:05:50 |
| SONCRA | 4 | 2026-09-04 06:32:32 | 2026-09-04 06:51:10 |
| DL1XH-15 | 4 | 2026-09-04 06:46:55 | 2026-09-04 06:47:30 |
| HEMX73-6 | 3 | 2026-09-04 05:19:55 | 2026-09-04 06:06:12 |
| EDDB2-12 | 3 | 2026-09-04 06:45:11 | 2026-09-04 06:59:09 |
| AZAK | 3 | 2026-09-04 07:14:33 | 2026-09-04 07:23:36 |
| HTAHTA | 1 | 2026-09-04 06:13:51 | 2026-09-04 06:13:51 |
| EDDB2-11 | 1 | 2026-09-04 06:48:27 | 2026-09-04 06:48:27 |
| Receiver | Date | Latitude | Longitude | Direction | Speed | Altitude | Climb | Temperature | Humidity | Pressure | Voltage | Killtimer | Uptime | BKT | XDATA |
|---|---|---|---|---|---|---|---|---|---|---|---|---|---|---|---|
| DK5PH-5 | 2026-09-04 07:53:49 | 49.26480 | 9.56177 | 66° | 24km/h | 397m | -5.3m/s | 22.3°C | 58.9% | 976.4hPa | 2.7V | 00:00:00 | 03:23:01 | 00:00:00 | |
| DK5PH-5 | 2026-09-04 07:53:44 | 49.26464 | 9.56139 | 55° | 26km/h | 422m | -5.2m/s | 21.9°C | 60.3% | 973.6hPa | 2.7V | 00:00:00 | 03:22:56 | 00:00:00 | |
| DK5PH-5 | 2026-09-04 07:53:39 | 49.26445 | 9.56096 | 57° | 27km/h | 447m | -4.3m/s | 21.6°C | 61.1% | 970.6hPa | 2.7V | 00:00:00 | 03:22:51 | 00:00:00 | |
| DK5PH-5 | 2026-09-04 07:53:34 | 49.26424 | 9.56053 | 52° | 31km/h | 469m | -4.8m/s | 21.3°C | 61.8% | 967.9hPa | 2.7V | 00:00:00 | 03:22:46 | 00:00:00 | |
| DK5PH-5 | 2026-09-04 07:53:29 | 49.26401 | 9.56003 | 57° | 31km/h | 490m | -3.8m/s | 21.2°C | 62.4% | 965.9hPa | 2.7V | 00:00:00 | 03:22:41 | 00:00:00 | |
| DK5PH-5 | 2026-09-04 07:53:24 | 49.26379 | 9.55954 | 56° | 27km/h | 507m | -3.1m/s | 21.0°C | 62.8% | 964.1hPa | 2.7V | 00:00:00 | 03:22:36 | 00:00:00 | |
| DK5PH-5 | 2026-09-04 07:53:19 | 49.26360 | 9.55911 | 56° | 29km/h | 521m | -2.9m/s | 20.9°C | 63.2% | 962.2hPa | 2.7V | 07:24:00 | 03:22:31 | 00:00:00 | |
| DK5PH-5 | 2026-09-04 07:53:14 | 49.26340 | 9.55865 | 59° | 29km/h | 535m | -3.7m/s | 20.7°C | 63.8% | 960.5hPa | 2.7V | 00:00:00 | 03:22:26 | 00:00:00 | |
| DK5PH-5 | 2026-09-04 07:53:09 | 49.26321 | 9.55816 | 58° | 27km/h | 553m | -3.2m/s | 20.5°C | 64.4% | 958.6hPa | 2.7V | 00:00:00 | 03:22:21 | 00:00:00 | |
| DK5PH-5 | 2026-09-04 07:53:04 | 49.26303 | 9.55770 | 61° | 27km/h | 570m | -3.7m/s | 20.3°C | 65.0% | 957.1hPa | 2.7V | 00:00:00 | 03:22:16 | 00:00:00 | |
| DK5PH-5 | 2026-09-04 07:52:59 | 49.26286 | 9.55725 | 61° | 29km/h | 589m | -3.6m/s | 20.1°C | 65.6% | 954.8hPa | 2.7V | 00:00:00 | 03:22:11 | 00:00:00 | |
| DK5PH-5 | 2026-09-04 07:52:54 | 49.26269 | 9.55674 | 62° | 33km/h | 607m | -3.4m/s | 20.0°C | 65.9% | 952.8hPa | 2.7V | 00:00:00 | 03:22:06 | 00:00:00 | |
| DK5PH-5 | 2026-09-04 07:52:49 | 49.26248 | 9.55619 | 61° | 33km/h | 625m | -3.5m/s | 19.8°C | 66.5% | 951.1hPa | 2.7V | 00:00:00 | 03:22:01 | 00:00:00 | |
| DM7RM-13 | 2026-09-04 07:52:46 | 49.26239 | 9.55597 | 62° | 35km/h | 632m | -3.2m/s | 19.8°C | 67.2% | 950.2hPa | 2.7V | 07:25:00 | 00:00:00 | 00:00:00 | |
| DK5PH-5 | 2026-09-04 07:52:44 | 49.26227 | 9.55563 | 61° | 33km/h | 642m | -2.5m/s | 19.7°C | 67.1% | 949.3hPa | 2.7V | 00:00:00 | 03:21:56 | 00:00:00 | |
| DK5PH-5 | 2026-09-04 07:52:39 | 49.26208 | 9.55506 | 67° | 35km/h | 657m | -3.4m/s | 19.5°C | 67.5% | 947.4hPa | 2.7V | 07:24:00 | 03:21:51 | 00:00:00 | |
| DK5PH-5 | 2026-09-04 07:52:34 | 49.26190 | 9.55444 | 67° | 35km/h | 674m | -2.9m/s | 19.4°C | 68.2% | 945.6hPa | 2.7V | 00:00:00 | 03:21:46 | 00:00:00 | |
| DK5PH-5 | 2026-09-04 07:52:29 | 49.26171 | 9.55383 | 62° | 37km/h | 689m | -3.1m/s | 19.3°C | 68.8% | 943.9hPa | 2.7V | 00:00:00 | 03:21:41 | 00:00:00 | |
| DM7RM-13 | 2026-09-04 07:52:26 | 49.26162 | 9.55359 | 64° | 37km/h | 696m | -3.7m/s | 19.2°C | 69.6% | 943.3hPa | 2.7V | 07:25:00 | 00:00:00 | 00:00:00 | |
| DK5PH-5 | 2026-09-04 07:52:24 | 49.26150 | 9.55320 | 68° | 38km/h | 707m | -3.5m/s | 19.0°C | 69.4% | 941.8hPa | 2.7V | 00:00:00 | 03:21:36 | 00:00:00 | |
| DK5PH-5 | 2026-09-04 07:52:19 | 49.26131 | 9.55253 | 64° | 38km/h | 723m | -3.2m/s | 18.9°C | 69.9% | 939.9hPa | 2.7V | 00:00:00 | 03:21:31 | 00:00:00 | |
| DK5PH-5 | 2026-09-04 07:52:14 | 49.26111 | 9.55184 | 66° | 42km/h | 739m | -3.8m/s | 18.8°C | 70.4% | 938.2hPa | 2.7V | 00:00:00 | 03:21:26 | 00:00:00 | |
| DK5PH-5 | 2026-09-04 07:52:09 | 49.26090 | 9.55111 | 67° | 42km/h | 757m | -3.8m/s | 18.6°C | 71.1% | 936.4hPa | 2.7V | 00:00:00 | 03:21:21 | 00:00:00 | |
| DM7RM-13 | 2026-09-04 07:52:05 | 49.26079 | 9.55066 | 71° | 42km/h | 768m | -3.6m/s | 18.6°C | 71.8% | 935.5hPa | 2.7V | 07:25:00 | 00:00:00 | 00:00:00 | |
| DK5PH-5 | 2026-09-04 07:52:04 | 49.26072 | 9.55036 | 72° | 42km/h | 775m | -3.1m/s | 18.7°C | 71.4% | 934.6hPa | 2.7V | 00:00:00 | 03:21:16 | 00:00:00 | |
| DK5PH-5 | 2026-09-04 07:51:59 | 49.26053 | 9.54959 | 69° | 44km/h | 792m | -3.6m/s | 18.6°C | 71.7% | 932.5hPa | 2.7V | 07:25:00 | 03:21:11 | 00:00:00 | |
| DK5PH-5 | 2026-09-04 07:51:54 | 49.26034 | 9.54881 | 70° | 44km/h | 810m | -3.3m/s | 18.4°C | 72.2% | 930.8hPa | 2.7V | 00:00:00 | 03:21:06 | 00:00:00 | |
| DK5PH-5 | 2026-09-04 07:51:49 | 49.26015 | 9.54800 | 72° | 46km/h | 826m | -3.4m/s | 18.3°C | 72.6% | 929.0hPa | 2.7V | 00:00:00 | 03:21:01 | 00:00:00 | |
| DM7RM-13 | 2026-09-04 07:51:45 | 49.26003 | 9.54750 | 72° | 44km/h | 836m | -3.3m/s | 18.5°C | 72.9% | 928.0hPa | 2.7V | 07:25:00 | 00:00:00 | 00:00:00 | |
| DK5PH-5 | 2026-09-04 07:51:44 | 49.25995 | 9.54718 | 70° | 44km/h | 842m | -3.4m/s | 18.4°C | 72.6% | 927.3hPa | 2.7V | 00:00:00 | 03:20:56 | 00:00:00 | |
| DB0ND-19 | 2026-09-04 07:51:43 | 49.25988 | 9.54686 | 70° | 44km/h | 849m | -3.2m/s | 18.5°C | 73.2% | 926.5hPa | 2.7V | 00:00:00 | 00:00:00 | 00:00:00 | |
| DK5PH-5 | 2026-09-04 07:51:29 | 49.25941 | 9.54471 | 72° | 44km/h | 893m | -3.4m/s | 18.2°C | 75.9% | 921.6hPa | 2.7V | 00:00:00 | 03:20:41 | 00:00:00 | |
| DM7RM-13 | 2026-09-04 07:51:24 | 49.25927 | 9.54406 | 71° | 44km/h | 907m | -3.6m/s | 18.1°C | 77.6% | 920.3hPa | 2.7V | 07:25:00 | 00:00:00 | 00:00:00 | |
| DK5PH-5 | 2026-09-04 07:51:24 | 49.25923 | 9.54391 | 71° | 44km/h | 910m | -3.4m/s | 18.1°C | 77.4% | 919.8hPa | 2.7V | 00:00:00 | 03:20:36 | 00:00:00 | |
| DK5PH-5 | 2026-09-04 07:51:19 | 49.25904 | 9.54311 | 71° | 44km/h | 927m | -3.6m/s | 18.0°C | 78.4% | 918.1hPa | 2.7V | 07:26:00 | 03:20:31 | 00:00:00 | |
| DK5PH-5 | 2026-09-04 07:51:14 | 49.25886 | 9.54230 | 72° | 44km/h | 944m | -3.6m/s | 17.9°C | 78.6% | 916.2hPa | 2.7V | 00:00:00 | 03:20:26 | 00:00:00 | |
| DB0ND-19 | 2026-09-04 07:51:12 | 49.25875 | 9.54181 | 72° | 42km/h | 954m | -3.4m/s | 17.9°C | 79.3% | 915.1hPa | 2.7V | 00:00:00 | 00:00:00 | 00:00:00 | |
| DK5PH-5 | 2026-09-04 07:51:09 | 49.25868 | 9.54149 | 73° | 44km/h | 961m | -3.4m/s | 17.8°C | 78.6% | 914.2hPa | 2.7V | 00:00:00 | 03:20:21 | 00:00:00 | |
| DM7RM-13 | 2026-09-04 07:51:04 | 49.25856 | 9.54084 | 74° | 42km/h | 974m | -3.3m/s | 17.8°C | 78.7% | 912.9hPa | 2.7V | 07:26:00 | 00:00:00 | 00:00:00 | |
| DK5PH-5 | 2026-09-04 07:51:04 | 49.25852 | 9.54068 | 75° | 44km/h | 978m | -3.4m/s | 17.8°C | 78.1% | 912.5hPa | 2.7V | 00:00:00 | 03:20:16 | 00:00:00 | |
| DK5PH-5 | 2026-09-04 07:50:59 | 49.25837 | 9.53986 | 74° | 44km/h | 995m | -3.4m/s | 17.7°C | 78.2% | 910.7hPa | 2.7V | 00:00:00 | 03:20:11 | 00:00:00 | |
| DK5PH-5 | 2026-09-04 07:50:54 | 49.25821 | 9.53905 | 74° | 44km/h | 1012m | -3.3m/s | 17.6°C | 77.9% | 908.9hPa | 2.7V | 00:00:00 | 03:20:06 | 00:00:00 | |
| DM7RM-13 | 2026-09-04 07:50:44 | 49.25796 | 9.53759 | 77° | 44km/h | 1043m | -3.5m/s | 17.4°C | 78.3% | 905.6hPa | 2.7V | 07:26:00 | 00:00:00 | 00:00:00 | |
| DK5PH-5 | 2026-09-04 07:50:44 | 49.25793 | 9.53743 | 76° | 44km/h | 1046m | -3.3m/s | 17.3°C | 77.8% | 905.1hPa | 2.7V | 00:00:00 | 03:19:56 | 00:00:00 | |
| DB0ND-19 | 2026-09-04 07:50:41 | 49.25782 | 9.53678 | 75° | 42km/h | 1059m | -3.6m/s | 17.3°C | 78.7% | 903.9hPa | 2.7V | 00:00:00 | 00:00:00 | 00:00:00 | |
| DK5PH-5 | 2026-09-04 07:50:34 | 49.25766 | 9.53582 | 76° | 44km/h | 1081m | -3.5m/s | 17.1°C | 78.8% | 901.5hPa | 2.7V | 00:00:00 | 03:19:46 | 00:00:00 | |
| DM7RM-13 | 2026-09-04 07:50:24 | 49.25743 | 9.53432 | 79° | 44km/h | 1114m | -3.6m/s | 16.9°C | 78.1% | 898.1hPa | 2.7V | 07:27:00 | 00:00:00 | 00:00:00 | |
| DK5PH-5 | 2026-09-04 07:50:24 | 49.25741 | 9.53416 | 79° | 44km/h | 1117m | -3.4m/s | 16.8°C | 78.0% | 897.8hPa | 2.7V | 07:26:00 | 03:19:36 | 00:00:00 | |
| DB0UT-7 | 2026-09-04 07:50:16 | 49.25725 | 9.53283 | 80° | 44km/h | 1146m | -3.7m/s | 16.7°C | 78.1% | 894.8hPa | 2.7V | 00:00:00 | 00:00:00 | 00:00:00 | |
| DK5PH-5 | 2026-09-04 07:50:14 | 49.25720 | 9.53250 | 78° | 44km/h | 1153m | -3.5m/s | 16.6°C | 77.6% | 894.0hPa | 2.7V | 00:00:00 | 03:19:26 | 00:00:00 | |
| DB0UT-9 | 2026-09-04 07:50:12 | 49.25718 | 9.53233 | 80° | 44km/h | 1156m | -3.5m/s | 16.7°C | 76.9% | 893.6hPa | 2.7V | 00:00:00 | 00:00:00 | 00:00:00 | |
| DF3TZ-5 | 2026-09-04 07:50:12 | 49.25716 | 9.53216 | 78° | 44km/h | 1160m | -3.6m/s | 16.7°C | 76.7% | 893.3hPa | 2.7V | 00:00:00 | 00:00:00 | 00:00:00 | |
| DB0ND-19 | 2026-09-04 07:50:10 | 49.25709 | 9.53166 | 79° | 44km/h | 1171m | -3.6m/s | 16.7°C | 72.8% | 892.3hPa | 2.7V | 00:00:00 | 00:00:00 | 00:00:00 | |
| DK5PH-5 | 2026-09-04 07:50:04 | 49.25699 | 9.53082 | 80° | 44km/h | 1189m | -3.5m/s | 16.6°C | 71.8% | 890.3hPa | 2.7V | 00:00:00 | 03:19:16 | 00:00:00 | |
| DM7RM-13 | 2026-09-04 07:50:03 | 49.25699 | 9.53082 | 80° | 44km/h | 1189m | -3.6m/s | 16.6°C | 72.1% | 890.4hPa | 2.7V | 07:27:00 | 00:00:00 | 00:00:00 | |
| DK5PH-5 | 2026-09-04 07:49:54 | 49.25679 | 9.52912 | 80° | 46km/h | 1225m | -3.6m/s | 16.4°C | 70.2% | 886.6hPa | 2.7V | 00:00:00 | 03:19:06 | 00:00:00 | |
| DK5PH-5 | 2026-09-04 07:49:44 | 49.25660 | 9.52740 | 82° | 46km/h | 1262m | -3.5m/s | 16.1°C | 71.0% | 882.7hPa | 2.7V | 00:00:00 | 03:18:56 | 00:00:00 | |
| DM7RM-13 | 2026-09-04 07:49:43 | 49.25660 | 9.52741 | 82° | 46km/h | 1262m | -3.6m/s | 16.2°C | 71.3% | 882.7hPa | 2.7V | 07:27:00 | 00:00:00 | 00:00:00 | |
| DB0ND-19 | 2026-09-04 07:49:39 | 49.25648 | 9.52636 | 80° | 44km/h | 1284m | -3.8m/s | 15.9°C | 72.3% | 880.5hPa | 2.7V | 00:00:00 | 00:00:00 | 00:00:00 | |
| DK5PH-5 | 2026-09-04 07:49:34 | 49.25641 | 9.52568 | 81° | 46km/h | 1299m | -3.7m/s | 15.7°C | 72.4% | 878.9hPa | 2.7V | 00:00:00 | 03:18:46 | 00:00:00 | |
| DK5PH-5 | 2026-09-04 07:49:24 | 49.25621 | 9.52397 | 79° | 44km/h | 1336m | -3.6m/s | 15.4°C | 73.4% | 875.1hPa | 2.7V | 00:00:00 | 03:18:36 | 00:00:00 | |
| DM7RM-13 | 2026-09-04 07:49:22 | 49.25618 | 9.52380 | 81° | 44km/h | 1339m | -3.7m/s | 15.4°C | 74.0% | 874.8hPa | 2.7V | 07:28:00 | 00:00:00 | 00:00:00 | |
| DB0UT-9 | 2026-09-04 07:49:15 | 49.25605 | 9.52262 | 81° | 42km/h | 1365m | -3.8m/s | 15.2°C | 74.9% | 872.0hPa | 2.7V | 07:28:00 | 00:00:00 | 00:00:00 | |
| DK5PH-5 | 2026-09-04 07:49:14 | 49.25601 | 9.52229 | 81° | 44km/h | 1373m | -3.7m/s | 15.1°C | 74.8% | 871.2hPa | 2.7V | 00:00:00 | 03:18:26 | 00:00:00 | |
| DB0UT-7 | 2026-09-04 07:49:12 | 49.25597 | 9.52196 | 80° | 44km/h | 1381m | -3.9m/s | 15.0°C | 75.0% | 870.5hPa | 2.7V | 07:28:00 | 03:18:24 | 00:00:00 | |
| DF3TZ-5 | 2026-09-04 07:49:10 | 49.25593 | 9.52162 | 79° | 44km/h | 1388m | -3.8m/s | 15.0°C | 75.7% | 869.9hPa | 2.7V | 00:00:00 | 00:00:00 | 00:00:00 | |
| DB0ND-19 | 2026-09-04 07:49:08 | 49.25587 | 9.52111 | 78° | 46km/h | 1400m | -3.7m/s | 14.9°C | 76.0% | 868.6hPa | 2.7V | 00:00:00 | 00:00:00 | 00:00:00 | |
| DK5PH-5 | 2026-09-04 07:49:04 | 49.25580 | 9.52060 | 79° | 44km/h | 1411m | -3.6m/s | 14.7°C | 76.2% | 867.4hPa | 2.7V | 07:28:00 | 03:18:16 | 00:00:00 | |
| DM7RM-13 | 2026-09-04 07:49:02 | 49.25577 | 9.52043 | 81° | 44km/h | 1415m | -3.7m/s | 14.8°C | 76.6% | 866.9hPa | 2.7V | 07:28:00 | 00:00:00 | 00:00:00 | |
| DF7PN | 2026-09-04 07:48:56 | 49.25561 | 9.51908 | 78° | 44km/h | 1446m | -3.9m/s | 14.5°C | 77.5% | 863.8hPa | 2.7V | 00:00:00 | 00:00:00 | 00:00:00 | |
| DB0UT-9 | 2026-09-04 07:48:55 | 49.25563 | 9.51925 | 81° | 46km/h | 1442m | -3.7m/s | 14.5°C | 77.4% | 864.3hPa | 2.7V | 07:28:00 | 00:00:00 | 00:00:00 | |
| DK5PH-5 | 2026-09-04 07:48:54 | 49.25558 | 9.51890 | 79° | 44km/h | 1450m | -3.7m/s | 14.4°C | 77.7% | 863.6hPa | 2.7V | 00:00:00 | 03:18:06 | 00:00:00 | |
| DB0UT-7 | 2026-09-04 07:48:52 | 49.25554 | 9.51856 | 78° | 44km/h | 1458m | -3.9m/s | 14.3°C | 77.7% | 862.6hPa | 2.7V | 00:00:00 | 03:18:04 | 00:00:00 | |
| DK5PH-5 | 2026-09-04 07:48:44 | 49.25534 | 9.51723 | 76° | 44km/h | 1488m | -3.7m/s | 14.1°C | 78.2% | 859.6hPa | 2.7V | 00:00:00 | 03:17:56 | 00:00:00 | |
| DM7RM-13 | 2026-09-04 07:48:42 | 49.25531 | 9.51706 | 76° | 44km/h | 1492m | -4.0m/s | 14.1°C | 78.8% | 859.3hPa | 2.7V | 00:00:00 | 00:00:00 | 00:00:00 | |
| DB0UT-7 | 2026-09-04 07:48:42 | 49.25528 | 9.51690 | 77° | 44km/h | 1496m | -3.7m/s | 14.0°C | 78.4% | 858.9hPa | 2.7V | 00:00:00 | 00:00:00 | 00:00:00 | |
| DF3TZ-5 | 2026-09-04 07:48:39 | 49.25520 | 9.51641 | 75° | 42km/h | 1508m | -3.8m/s | 14.0°C | 79.0% | 857.6hPa | 2.7V | 00:00:00 | 00:00:00 | 00:00:00 | |
| DB0ND-19 | 2026-09-04 07:48:37 | 49.25512 | 9.51591 | 75° | 44km/h | 1519m | -3.9m/s | 13.8°C | 79.5% | 856.4hPa | 2.7V | 00:00:00 | 00:00:00 | 00:00:00 | |
| DB0UT-9 | 2026-09-04 07:48:34 | 49.25509 | 9.51575 | 77° | 44km/h | 1523m | -3.9m/s | 13.8°C | 79.3% | 856.0hPa | 2.7V | 07:29:00 | 00:00:00 | 00:00:00 | |
| DK5PH-5 | 2026-09-04 07:48:34 | 49.25506 | 9.51558 | 78° | 44km/h | 1527m | -3.8m/s | 13.7°C | 79.4% | 855.6hPa | 2.7V | 00:00:00 | 03:17:46 | 00:00:00 | |
| DB0UT-7 | 2026-09-04 07:48:32 | 49.25501 | 9.51525 | 76° | 44km/h | 1535m | -3.9m/s | 13.7°C | 79.7% | 854.7hPa | 2.7V | 00:00:00 | 03:17:44 | 00:00:00 | |
| DF7PN | 2026-09-04 07:48:25 | 49.25477 | 9.51392 | 73° | 44km/h | 1566m | -4.0m/s | 13.4°C | 81.1% | 851.9hPa | 2.7V | 00:00:00 | 00:00:00 | 00:00:00 | |
| DK5PH-5 | 2026-09-04 07:48:24 | 49.25477 | 9.51392 | 74° | 44km/h | 1567m | -3.9m/s | 13.4°C | 80.8% | 851.8hPa | 2.7V | 00:00:00 | 03:17:36 | 00:00:00 | |
| DB0UT-7 | 2026-09-04 07:48:22 | 49.25471 | 9.51359 | 75° | 44km/h | 1575m | -3.8m/s | 13.3°C | 81.2% | 851.0hPa | 2.7V | 00:00:00 | 00:00:00 | 00:00:00 | |
| DM7RM-13 | 2026-09-04 07:48:21 | 49.25471 | 9.51359 | 76° | 44km/h | 1575m | -3.9m/s | 13.4°C | 81.4% | 851.0hPa | 2.7V | 00:00:00 | 00:00:00 | 00:00:00 | |
| DB0UT-9 | 2026-09-04 07:48:14 | 49.25449 | 9.51244 | 73° | 44km/h | 1602m | -4.1m/s | 13.1°C | 82.3% | 848.1hPa | 2.7V | 07:29:00 | 00:00:00 | 00:00:00 | |
| DB0NH | 2026-09-04 07:48:14 | 49.25446 | 9.51228 | 73° | 44km/h | 1606m | -3.8m/s | 13.0°C | 82.2% | 847.7hPa | 2.7V | 00:00:00 | 03:17:26 | 00:00:00 | |
| DK5PH-5 | 2026-09-04 07:48:14 | 49.25446 | 9.51228 | 73° | 44km/h | 1606m | -3.8m/s | 13.0°C | 82.2% | 847.7hPa | 2.7V | 00:00:00 | 03:17:26 | 00:00:00 | |
| DB0UT-7 | 2026-09-04 07:48:12 | 49.25439 | 9.51195 | 72° | 44km/h | 1614m | -3.9m/s | 13.0°C | 82.3% | 846.8hPa | 2.7V | 00:00:00 | 03:17:24 | 00:00:00 | |
| DF3TZ-5 | 2026-09-04 07:48:08 | 49.25422 | 9.51113 | 74° | 44km/h | 1634m | -3.9m/s | 12.8°C | 83.5% | 845.0hPa | 2.7V | 00:00:00 | 00:00:00 | 00:00:00 | |
| DB0ND-19 | 2026-09-04 07:48:05 | 49.25416 | 9.51080 | 72° | 44km/h | 1642m | -3.8m/s | 12.7°C | 83.5% | 844.3hPa | 2.7V | 00:00:00 | 00:00:00 | 00:00:00 | |
| DK5PH-5 | 2026-09-04 07:48:04 | 49.25412 | 9.51064 | 73° | 44km/h | 1646m | -3.8m/s | 12.7°C | 83.4% | 843.8hPa | 2.7V | 00:00:00 | 03:17:16 | 00:00:00 | |
| DF7PN | 2026-09-04 07:47:54 | 49.25374 | 9.50883 | 71° | 44km/h | 1688m | -4.1m/s | 12.3°C | 84.7% | 839.4hPa | 2.7V | 00:00:00 | 00:00:00 | 00:00:00 | |
| DB0UT-9 | 2026-09-04 07:47:53 | 49.25377 | 9.50899 | 74° | 46km/h | 1684m | -3.8m/s | 12.4°C | 84.4% | 839.9hPa | 2.7V | 07:30:00 | 00:00:00 | 00:00:00 | |
| DB0NH | 2026-09-04 07:47:52 | 49.25370 | 9.50866 | 73° | 46km/h | 1692m | -3.7m/s | 12.2°C | 84.5% | 839.2hPa | 2.7V | 00:00:00 | 03:17:04 | 00:00:00 | |
| DB0UT-7 | 2026-09-04 07:47:52 | 49.25370 | 9.50866 | 73° | 46km/h | 1692m | -3.7m/s | 12.2°C | 84.5% | 839.2hPa | 2.7V | 07:29:00 | 03:17:04 | 00:00:00 | |
| DK5PH-5 | 2026-09-04 07:47:44 | 49.25343 | 9.50731 | 73° | 46km/h | 1724m | -3.9m/s | 12.0°C | 85.3% | 835.8hPa | 2.7V | 07:29:00 | 03:16:56 | 00:00:00 | |
| DB0NH | 2026-09-04 07:47:42 | 49.25336 | 9.50697 | 73° | 46km/h | 1732m | -4.0m/s | 11.9°C | 85.1% | 835.0hPa | 2.7V | 00:00:00 | 03:16:54 | 00:00:00 | |
| DB0UT-7 | 2026-09-04 07:47:42 | 49.25336 | 9.50697 | 73° | 46km/h | 1732m | -4.0m/s | 11.9°C | 85.1% | 835.0hPa | 2.7V | 00:00:00 | 00:00:00 | 00:00:00 | |
| DM7RM-13 | 2026-09-04 07:47:38 | 49.25326 | 9.50647 | 74° | 46km/h | 1743m | -3.8m/s | 11.9°C | 83.9% | 833.9hPa | 2.7V | 07:30:00 | 00:00:00 | 00:00:00 | |
| DF3TZ-5 | 2026-09-04 07:47:37 | 49.25315 | 9.50597 | 71° | 44km/h | 1755m | -4.0m/s | 11.8°C | 85.0% | 832.8hPa | 2.7V | 00:00:00 | 00:00:00 | 00:00:00 | |
| DB0ND-19 | 2026-09-04 07:47:34 | 49.25307 | 9.50564 | 71° | 46km/h | 1763m | -3.8m/s | 11.7°C | 85.4% | 832.1hPa | 2.7V | 00:00:00 | 00:00:00 | 00:00:00 | |
| DK5PH-5 | 2026-09-04 07:47:34 | 49.25307 | 9.50564 | 72° | 46km/h | 1763m | -3.7m/s | 11.7°C | 85.2% | 832.1hPa | 2.7V | 00:00:00 | 03:16:46 | 00:00:00 | |
| DB0UT-9 | 2026-09-04 07:47:33 | 49.25307 | 9.50564 | 73° | 46km/h | 1763m | -3.8m/s | 11.7°C | 85.4% | 832.1hPa | 2.7V | 07:30:00 | 00:00:00 | 00:00:00 | |
| DB0UT-7 | 2026-09-04 07:47:32 | 49.25300 | 9.50530 | 73° | 46km/h | 1771m | -3.8m/s | 11.7°C | 84.5% | 831.2hPa | 2.7V | 00:00:00 | 03:16:44 | 00:00:00 | |
| DB0NH | 2026-09-04 07:47:32 | 49.25300 | 9.50530 | 73° | 46km/h | 1771m | -3.8m/s | 11.7°C | 84.5% | 831.2hPa | 2.7V | 00:00:00 | 03:16:44 | 00:00:00 | |
| SFWM-10 | 2026-09-04 07:47:24 | 49.25276 | 9.50410 | 74° | 46km/h | 1797m | -3.8m/s | 11.5°C | 85.5% | 828.5hPa | 2.7V | 00:00:00 | 00:00:00 | 00:00:00 | |
| DK5PH-5 | 2026-09-04 07:47:24 | 49.25273 | 9.50393 | 75° | 47km/h | 1801m | -3.8m/s | 11.4°C | 85.3% | 828.2hPa | 2.7V | 00:00:00 | 03:16:36 | 00:00:00 | |
| DL0LBS | 2026-09-04 07:47:22 | 49.25270 | 9.50376 | 76° | 47km/h | 1805m | -3.9m/s | 11.5°C | 85.0% | 827.8hPa | 2.7V | 00:00:00 | 00:00:00 | 00:00:00 | |
| DB0UT-7 | 2026-09-04 07:47:22 | 49.25267 | 9.50358 | 74° | 47km/h | 1809m | -3.8m/s | 11.4°C | 85.1% | 827.2hPa | 2.7V | 00:00:00 | 00:00:00 | 00:00:00 | |
| DB0NH | 2026-09-04 07:47:22 | 49.25267 | 9.50358 | 74° | 47km/h | 1809m | -3.8m/s | 11.4°C | 85.1% | 827.2hPa | 2.7V | 00:00:00 | 03:16:34 | 00:00:00 | |
| DM7RM-13 | 2026-09-04 07:47:18 | 49.25257 | 9.50307 | 75° | 47km/h | 1820m | -3.8m/s | 11.4°C | 85.2% | 826.4hPa | 2.7V | 07:30:00 | 00:00:00 | 00:00:00 | |
| DK5PH-5 | 2026-09-04 07:47:14 | 49.25239 | 9.50219 | 73° | 47km/h | 1839m | -3.8m/s | 11.2°C | 85.6% | 824.2hPa | 2.7V | 00:00:00 | 03:16:26 | 00:00:00 | |
| DB0UT-9 | 2026-09-04 07:47:13 | 49.25239 | 9.50219 | 74° | 47km/h | 1839m | -3.9m/s | 11.3°C | 85.7% | 824.3hPa | 2.7V | 07:30:00 | 00:00:00 | 00:00:00 | |
| DB0NH | 2026-09-04 07:47:12 | 49.25232 | 9.50185 | 75° | 47km/h | 1847m | -3.8m/s | 11.2°C | 85.3% | 823.6hPa | 2.7V | 00:00:00 | 03:16:24 | 00:00:00 | |
| DB0UT-7 | 2026-09-04 07:47:12 | 49.25232 | 9.50185 | 75° | 47km/h | 1847m | -3.8m/s | 11.2°C | 85.3% | 823.6hPa | 2.7V | 00:00:00 | 03:16:24 | 00:00:00 | |
| DF3TZ-5 | 2026-09-04 07:47:06 | 49.25210 | 9.50063 | 74° | 46km/h | 1873m | -3.8m/s | 11.0°C | 87.1% | 820.9hPa | 2.7V | 00:00:00 | 00:00:00 | 00:00:00 | |
| DK5PH-5 | 2026-09-04 07:47:04 | 49.25207 | 9.50045 | 76° | 47km/h | 1877m | -4.0m/s | 11.0°C | 86.7% | 820.5hPa | 2.7V | 00:00:00 | 03:16:16 | 00:00:00 | |
| DB0ND-19 | 2026-09-04 07:47:03 | 49.25204 | 9.50027 | 75° | 47km/h | 1881m | -3.7m/s | 11.0°C | 86.7% | 820.2hPa | 2.7V | 00:00:00 | 00:00:00 | 00:00:00 | |
| DL0LBS | 2026-09-04 07:47:02 | 49.25204 | 9.50027 | 76° | 49km/h | 1881m | -3.7m/s | 11.0°C | 86.7% | 820.2hPa | 2.7V | 00:00:00 | 00:00:00 | 00:00:00 | |
| DF7PN | 2026-09-04 07:46:52 | 49.25164 | 9.49822 | 75° | 44km/h | 1925m | -3.5m/s | 10.8°C | 87.5% | 815.9hPa | 2.7V | 00:00:00 | 00:00:00 | 00:00:00 | |
| DK5PH-5 | 2026-09-04 07:46:44 | 49.25145 | 9.49698 | 80° | 49km/h | 1951m | -3.7m/s | 10.6°C | 88.5% | 813.4hPa | 2.7V | 00:00:00 | 03:15:56 | 00:00:00 | |
| SFWM-10 | 2026-09-04 07:46:42 | 49.25142 | 9.49679 | 81° | 49km/h | 1954m | -3.9m/s | 10.6°C | 88.6% | 813.0hPa | 2.7V | 00:00:00 | 00:00:00 | 00:00:00 | |
| DB0UT-7 | 2026-09-04 07:46:42 | 49.25140 | 9.49660 | 78° | 49km/h | 1958m | -4.1m/s | 10.5°C | 88.4% | 812.6hPa | 2.7V | 00:00:00 | 00:00:00 | 00:00:00 | |
| DB0NH | 2026-09-04 07:46:42 | 49.25140 | 9.49660 | 78° | 49km/h | 1958m | -4.1m/s | 10.5°C | 88.4% | 812.6hPa | 2.7V | 00:00:00 | 03:15:54 | 00:00:00 | |
| DL0LBS | 2026-09-04 07:46:39 | 49.25135 | 9.49623 | 81° | 49km/h | 1966m | -3.6m/s | 10.6°C | 88.5% | 811.8hPa | 2.7V | 00:00:00 | 00:00:00 | 00:00:00 | |
| DM7RM-13 | 2026-09-04 07:46:38 | 49.25133 | 9.49604 | 80° | 49km/h | 1970m | -3.8m/s | 10.6°C | 88.2% | 811.6hPa | 2.7V | 07:31:00 | 00:00:00 | 00:00:00 | |
| DF3TZ-5 | 2026-09-04 07:46:35 | 49.25122 | 9.49510 | 81° | 49km/h | 1989m | -3.7m/s | 10.5°C | 88.4% | 809.6hPa | 2.7V | 00:00:00 | 00:00:00 | 00:00:00 | |
| DK5PH-5 | 2026-09-04 07:46:34 | 49.25121 | 9.49510 | 82° | 51km/h | 1989m | -3.7m/s | 10.4°C | 88.4% | 809.6hPa | 2.7V | 00:00:00 | 03:15:46 | 00:00:00 | |
| DB0UT-9 | 2026-09-04 07:46:32 | 49.25119 | 9.49491 | 81° | 49km/h | 1992m | -3.8m/s | 10.5°C | 88.4% | 809.5hPa | 2.7V | 07:31:00 | 00:00:00 | 00:00:00 | |
| DB0UT-7 | 2026-09-04 07:46:32 | 49.25118 | 9.49472 | 82° | 53km/h | 1996m | -3.8m/s | 10.4°C | 88.4% | 808.8hPa | 2.7V | 07:30:00 | 03:15:44 | 00:00:00 | |
| DB0NH | 2026-09-04 07:46:32 | 49.25118 | 9.49472 | 82° | 53km/h | 1996m | -3.8m/s | 10.4°C | 88.4% | 808.8hPa | 2.7V | 00:00:00 | 03:15:44 | 00:00:00 | |
| DK5PH-5 | 2026-09-04 07:46:24 | 49.25102 | 9.49315 | 84° | 55km/h | 2026m | -3.5m/s | 10.4°C | 87.5% | 806.0hPa | 2.7V | 07:30:00 | 03:15:36 | 00:00:00 | |
| SFWM-10 | 2026-09-04 07:46:22 | 49.25100 | 9.49295 | 85° | 53km/h | 2030m | -3.7m/s | 10.5°C | 87.5% | 805.6hPa | 2.7V | 00:00:00 | 00:00:00 | 00:00:00 | |
| DF7PN | 2026-09-04 07:46:20 | 49.25096 | 9.49232 | 84° | 53km/h | 2041m | -3.3m/s | 10.4°C | 87.6% | 804.7hPa | 2.7V | 00:00:00 | 00:00:00 | 00:00:00 | |
| DM7RM-13 | 2026-09-04 07:46:18 | 49.25095 | 9.49211 | 88° | 55km/h | 2045m | -3.5m/s | 10.4°C | 87.5% | 804.3hPa | 2.7V | 07:31:00 | 00:00:00 | 00:00:00 | |
| DB0UT-7 | 2026-09-04 07:46:16 | 49.25092 | 9.49147 | 87° | 57km/h | 2055m | -2.9m/s | 10.3°C | 87.3% | 803.2hPa | 2.7V | 00:00:00 | 00:00:00 | 00:00:00 | |
| DB0NH | 2026-09-04 07:46:12 | 49.25088 | 9.49060 | 87° | 57km/h | 2070m | -3.4m/s | 10.1°C | 88.1% | 801.9hPa | 2.7V | 00:00:00 | 03:15:24 | 00:00:00 | |
| DB0UT-9 | 2026-09-04 07:46:11 | 49.25088 | 9.49060 | 88° | 57km/h | 2070m | -3.5m/s | 10.2°C | 88.2% | 802.0hPa | 2.7V | 07:31:00 | 00:00:00 | 00:00:00 | |
| DF3TZ-5 | 2026-09-04 07:46:04 | 49.25086 | 9.48865 | 90° | 55km/h | 2103m | -4.0m/s | 10.4°C | 85.9% | 798.6hPa | 2.7V | 00:00:00 | 00:00:00 | 00:00:00 | |
| SFWM-10 | 2026-09-04 07:46:02 | 49.25086 | 9.48865 | 92° | 57km/h | 2104m | -4.0m/s | 10.4°C | 85.9% | 798.6hPa | 2.7V | 00:00:00 | 00:00:00 | 00:00:00 | |
| DB0ND-19 | 2026-09-04 07:46:01 | 49.25087 | 9.48821 | 91° | 58km/h | 2111m | -3.9m/s | 10.2°C | 87.3% | 798.0hPa | 2.7V | 00:00:00 | 00:00:00 | 00:00:00 | |
| DF7PN | 2026-09-04 07:45:49 | 49.25099 | 9.48546 | 96° | 60km/h | 2157m | -3.9m/s | 11.3°C | 72.6% | 793.8hPa | 2.7V | 00:00:00 | 00:00:00 | 00:00:00 | |
| DH7VM-15 | 2026-09-04 07:45:46 | 49.25101 | 9.48499 | 97° | 60km/h | 2165m | -3.9m/s | 11.2°C | 74.2% | 792.8hPa | 2.7V | 00:00:00 | 00:00:00 | 00:00:00 | |
| DK5PH-5 | 2026-09-04 07:45:44 | 49.25107 | 9.48427 | 97° | 64km/h | 2177m | -3.7m/s | 10.7°C | 78.6% | 791.7hPa | 2.7V | 00:00:00 | 03:14:56 | 00:00:00 | |
| SFWM-10 | 2026-09-04 07:45:42 | 49.25109 | 9.48403 | 99° | 62km/h | 2181m | -3.8m/s | 11.1°C | 76.7% | 791.4hPa | 2.7V | 00:00:00 | 00:00:00 | 00:00:00 | |
| KANTATE | 2026-09-04 07:45:37 | 49.25121 | 9.48283 | 100° | 62km/h | 2200m | -3.7m/s | 11.5°C | 67.5% | 789.6hPa | 2.7V | 00:00:00 | 00:00:00 | 00:00:00 | |
| DB0UT-7 | 2026-09-04 07:45:36 | 49.25126 | 9.48235 | 99° | 64km/h | 2207m | -3.9m/s | 11.5°C | 67.0% | 788.7hPa | 2.7V | 00:00:00 | 00:00:00 | 00:00:00 | |
| DB0NH | 2026-09-04 07:45:32 | 49.25137 | 9.48139 | 100° | 62km/h | 2223m | -3.7m/s | 11.7°C | 63.8% | 787.5hPa | 2.7V | 00:00:00 | 03:14:44 | 00:00:00 | |
| DB0UT-9 | 2026-09-04 07:45:31 | 49.25140 | 9.48114 | 101° | 64km/h | 2226m | -3.6m/s | 11.8°C | 63.0% | 787.1hPa | 2.7V | 07:31:00 | 00:00:00 | 00:00:00 | |
| DB0ND-19 | 2026-09-04 07:45:30 | 49.25142 | 9.48090 | 100° | 62km/h | 2230m | -3.7m/s | 11.8°C | 62.1% | 786.8hPa | 2.7V | 00:00:00 | 00:00:00 | 00:00:00 | |
| DL0LBS | 2026-09-04 07:45:29 | 49.25142 | 9.48090 | 102° | 62km/h | 2230m | -3.7m/s | 11.8°C | 62.1% | 786.8hPa | 2.7V | 07:31:00 | 00:00:00 | 00:00:00 | |
| DK5PH-5 | 2026-09-04 07:45:24 | 49.25163 | 9.47946 | 104° | 62km/h | 2252m | -3.8m/s | 11.7°C | 59.3% | 784.7hPa | 2.7V | 00:00:00 | 03:14:36 | 00:00:00 | |
| SFWM-10 | 2026-09-04 07:45:22 | 49.25166 | 9.47922 | 103° | 64km/h | 2256m | -3.7m/s | 11.8°C | 59.4% | 784.4hPa | 2.7V | 07:32:00 | 00:00:00 | 00:00:00 | |
| DF7PN | 2026-09-04 07:45:18 | 49.25184 | 9.47804 | 102° | 62km/h | 2274m | -3.6m/s | 11.6°C | 62.0% | 782.7hPa | 2.7V | 00:00:00 | 00:00:00 | 00:00:00 | |
| DB0UT-7 | 2026-09-04 07:45:16 | 49.25191 | 9.47757 | 105° | 60km/h | 2282m | -3.6m/s | 11.5°C | 63.1% | 781.9hPa | 2.7V | 00:00:00 | 03:14:28 | 00:00:00 | |
| DM7RM-13 | 2026-09-04 07:45:15 | 49.25191 | 9.47757 | 105° | 60km/h | 2282m | -3.6m/s | 11.5°C | 63.2% | 781.9hPa | 2.7V | 07:32:00 | 00:00:00 | 00:00:00 | |
| DB0NH | 2026-09-04 07:45:12 | 49.25206 | 9.47665 | 105° | 60km/h | 2296m | -3.5m/s | 11.4°C | 63.9% | 780.6hPa | 2.7V | 00:00:00 | 03:14:24 | 00:00:00 | |
| DB0UT-9 | 2026-09-04 07:45:09 | 49.25213 | 9.47619 | 105° | 62km/h | 2303m | -3.6m/s | 11.5°C | 63.2% | 779.9hPa | 2.7V | 07:32:00 | 00:00:00 | 00:00:00 | |
| DL0LBS | 2026-09-04 07:45:08 | 49.25217 | 9.47596 | 103° | 60km/h | 2306m | -3.6m/s | 11.5°C | 63.3% | 779.7hPa | 2.7V | 07:32:00 | 00:00:00 | 00:00:00 | |
| KANTATE | 2026-09-04 07:45:05 | 49.25227 | 9.47530 | 105° | 60km/h | 2317m | -3.3m/s | 11.4°C | 62.5% | 778.7hPa | 2.7V | 00:00:00 | 00:00:00 | 00:00:00 | |
| DK5PH-5 | 2026-09-04 07:45:04 | 49.25234 | 9.47485 | 103° | 60km/h | 2325m | -3.6m/s | 11.4°C | 61.6% | 777.9hPa | 2.7V | 00:00:00 | 03:14:16 | 00:00:00 | |
| DF3TZ-5 | 2026-09-04 07:45:01 | 49.25245 | 9.47418 | 103° | 60km/h | 2335m | -3.8m/s | 11.4°C | 60.5% | 776.9hPa | 2.7V | 00:00:00 | 00:00:00 | 00:00:00 | |
| DB0ND-19 | 2026-09-04 07:44:59 | 49.25252 | 9.47373 | 104° | 58km/h | 2342m | -3.6m/s | 11.4°C | 58.4% | 776.2hPa | 2.7V | 00:00:00 | 00:00:00 | 00:00:00 | |
| DF7PN | 2026-09-04 07:44:47 | 49.25299 | 9.47101 | 103° | 58km/h | 2385m | -3.8m/s | 11.5°C | 48.2% | 772.3hPa | 2.7V | 00:00:00 | 00:00:00 | 00:00:00 | |
| DK5PH-5 | 2026-09-04 07:44:44 | 49.25310 | 9.47033 | 104° | 60km/h | 2396m | -3.5m/s | 11.7°C | 41.9% | 771.2hPa | 2.7V | 00:00:00 | 03:13:56 | 00:00:00 | |
| DH7VM-15 | 2026-09-04 07:44:42 | 49.25314 | 9.47010 | 104° | 60km/h | 2400m | -3.4m/s | 11.8°C | 40.7% | 771.0hPa | 2.8V | 00:00:00 | 00:00:00 | 00:00:00 | |
| DL1ZP-14 | 2026-09-04 07:44:41 | 49.25321 | 9.46965 | 105° | 58km/h | 2407m | -3.5m/s | 11.8°C | 40.1% | 770.4hPa | 2.8V | 00:00:00 | 00:00:00 | 00:00:00 | |
| SFWM-10 | 2026-09-04 07:44:40 | 49.25321 | 9.46965 | 106° | 60km/h | 2407m | -3.5m/s | 11.8°C | 40.1% | 770.4hPa | 2.7V | 07:32:00 | 00:00:00 | 00:00:00 | |
| DB0UT-7 | 2026-09-04 07:44:36 | 49.25340 | 9.46853 | 106° | 58km/h | 2424m | -3.6m/s | 11.8°C | 44.7% | 768.6hPa | 2.7V | 00:00:00 | 03:13:48 | 00:00:00 | |
| DB0NH | 2026-09-04 07:44:30 | 49.25363 | 9.46719 | 104° | 58km/h | 2445m | -3.5m/s | 11.7°C | 45.9% | 766.7hPa | 2.7V | 00:00:00 | 03:13:42 | 00:00:00 | |
| DB0ND-19 | 2026-09-04 07:44:28 | 49.25370 | 9.46675 | 104° | 57km/h | 2452m | -3.5m/s | 11.7°C | 45.9% | 766.1hPa | 2.7V | 00:00:00 | 00:00:00 | 00:00:00 | |
| DL0LBS | 2026-09-04 07:44:26 | 49.25374 | 9.46653 | 106° | 58km/h | 2456m | -3.6m/s | 11.7°C | 46.1% | 765.7hPa | 2.7V | 07:33:00 | 00:00:00 | 00:00:00 | |
| DK5PH-5 | 2026-09-04 07:44:24 | 49.25385 | 9.46588 | 105° | 57km/h | 2467m | -3.6m/s | 11.5°C | 47.0% | 764.7hPa | 2.7V | 00:00:00 | 03:13:36 | 00:00:00 | |
| KANTATE | 2026-09-04 07:44:23 | 49.25385 | 9.46588 | 105° | 58km/h | 2467m | -3.7m/s | 11.6°C | 47.0% | 764.8hPa | 2.7V | 00:00:00 | 00:00:00 | 00:00:00 | |
| SFWM-10 | 2026-09-04 07:44:20 | 49.25396 | 9.46522 | 104° | 58km/h | 2478m | -3.7m/s | 11.5°C | 0% | 763.8hPa | 2.7V | 07:33:00 | 00:00:00 | 00:00:00 | |
| DB0UT-7 | 2026-09-04 07:44:16 | 49.25414 | 9.46413 | 103° | 57km/h | 2496m | -3.6m/s | 11.3°C | 51.2% | 762.1hPa | 2.7V | 00:00:00 | 00:00:00 | 00:00:00 | |
| DB0NH | 2026-09-04 07:44:10 | 49.25434 | 9.46286 | 105° | 57km/h | 2517m | -3.5m/s | 11.1°C | 55.9% | 760.2hPa | 2.7V | 00:00:00 | 03:13:22 | 00:00:00 | |
| DM7RM-13 | 2026-09-04 07:44:09 | 49.25434 | 9.46286 | 106° | 55km/h | 2517m | -3.5m/s | 11.1°C | 55.9% | 760.2hPa | 2.7V | 07:33:00 | 00:00:00 | 00:00:00 | |
| DB0UT-9 | 2026-09-04 07:44:07 | 49.25441 | 9.46244 | 105° | 57km/h | 2524m | -3.5m/s | 11.1°C | 56.6% | 759.6hPa | 2.7V | 07:33:00 | 00:00:00 | 00:00:00 | |
| DL0LBS | 2026-09-04 07:44:05 | 49.25448 | 9.46203 | 105° | 55km/h | 2532m | -3.8m/s | 11.0°C | 58.3% | 758.9hPa | 2.7V | 07:33:00 | 00:00:00 | 00:00:00 | |
| DK5PH-5 | 2026-09-04 07:44:04 | 49.25455 | 9.46161 | 104° | 58km/h | 2539m | -3.7m/s | 10.9°C | 59.0% | 758.2hPa | 2.7V | 00:00:00 | 03:13:16 | 00:00:00 | |
| KANTATE | 2026-09-04 07:44:02 | 49.25458 | 9.46140 | 103° | 57km/h | 2543m | -3.7m/s | 10.9°C | 59.5% | 758.0hPa | 2.7V | 00:00:00 | 00:00:00 | 00:00:00 | |
| DF3TZ-5 | 2026-09-04 07:43:59 | 49.25471 | 9.46056 | 102° | 57km/h | 2557m | -3.5m/s | 10.8°C | 60.1% | 756.7hPa | 2.7V | 00:00:00 | 00:00:00 | 00:00:00 | |
| DB0ND-19 | 2026-09-04 07:43:57 | 49.25477 | 9.46013 | 102° | 57km/h | 2564m | -3.5m/s | 10.7°C | 60.1% | 755.9hPa | 2.7V | 00:00:00 | 00:00:00 | 00:00:00 | |
| DB0UT-7 | 2026-09-04 07:43:56 | 49.25480 | 9.45991 | 103° | 60km/h | 2568m | -3.7m/s | 10.7°C | 60.2% | 755.6hPa | 2.7V | 07:33:00 | 03:13:08 | 00:00:00 | |
| DB0NH | 2026-09-04 07:43:50 | 49.25499 | 9.45856 | 102° | 62km/h | 2590m | -3.6m/s | 10.5°C | 61.5% | 753.6hPa | 2.7V | 00:00:00 | 03:13:02 | 00:00:00 | |
| DM7RM-13 | 2026-09-04 07:43:48 | 49.25501 | 9.45834 | 103° | 58km/h | 2594m | -3.6m/s | 10.5°C | 62.0% | 753.3hPa | 2.7V | 07:33:00 | 00:00:00 | 00:00:00 | |
| DB0UT-9 | 2026-09-04 07:43:46 | 49.25508 | 9.45790 | 104° | 60km/h | 2601m | -3.7m/s | 10.5°C | 62.1% | 752.5hPa | 2.7V | 07:33:00 | 00:00:00 | 00:00:00 | |
| DO3MHA-11 | 2026-09-04 07:43:45 | 49.25515 | 9.45744 | 102° | 62km/h | 2608m | -3.6m/s | 10.4°C | 61.6% | 752.0hPa | 2.7V | 00:00:00 | 03:12:57 | 00:00:00 | |
| DL0LBS | 2026-09-04 07:43:44 | 49.25514 | 9.45744 | 103° | 60km/h | 2608m | -3.7m/s | 10.5°C | 61.6% | 752.0hPa | 2.7V | 07:33:00 | 00:00:00 | 00:00:00 | |
| KANTATE | 2026-09-04 07:43:42 | 49.25521 | 9.45699 | 105° | 60km/h | 2616m | -3.8m/s | 10.5°C | 61.0% | 751.3hPa | 2.7V | 07:34:00 | 00:00:00 | 00:00:00 | |
| DL1ZP-14 | 2026-09-04 07:43:39 | 49.25535 | 9.45605 | 102° | 62km/h | 2630m | -3.6m/s | 10.4°C | 60.8% | 750.0hPa | 2.7V | 00:00:00 | 00:00:00 | 00:00:00 | |
| DH7VM-15 | 2026-09-04 07:43:37 | 49.25538 | 9.45581 | 104° | 64km/h | 2634m | -3.6m/s | 10.4°C | 60.6% | 749.6hPa | 2.7V | 00:00:00 | 00:00:00 | 00:00:00 | |
| DB0UT-7 | 2026-09-04 07:43:36 | 49.25546 | 9.45533 | 103° | 64km/h | 2641m | -3.6m/s | 10.3°C | 60.7% | 748.9hPa | 2.7V | 00:00:00 | 00:00:00 | 00:00:00 | |
| DO3MHA-11 | 2026-09-04 07:43:35 | 49.25549 | 9.45508 | 102° | 66km/h | 2645m | -3.5m/s | 10.3°C | 60.4% | 748.5hPa | 2.7V | 00:00:00 | 03:12:47 | 00:00:00 | |
| DO3MHA-11 | 2026-09-04 07:43:30 | 49.25566 | 9.45386 | 102° | 64km/h | 2663m | -3.7m/s | 10.2°C | 58.8% | 746.9hPa | 2.7V | 07:33:00 | 03:12:42 | 00:00:00 | |
| DM7RM-13 | 2026-09-04 07:43:27 | 49.25572 | 9.45336 | 102° | 66km/h | 2671m | -3.7m/s | 10.3°C | 58.3% | 746.3hPa | 2.7V | 07:34:00 | 00:00:00 | 00:00:00 | |
| DB0UT-9 | 2026-09-04 07:43:26 | 49.25575 | 9.45312 | 101° | 64km/h | 2675m | -3.8m/s | 10.3°C | 58.2% | 746.0hPa | 2.7V | 07:34:00 | 00:00:00 | 00:00:00 | |
| DO3MHA-11 | 2026-09-04 07:43:25 | 49.25581 | 9.45264 | 102° | 64km/h | 2682m | -3.6m/s | 10.1°C | 58.3% | 745.1hPa | 2.7V | 00:00:00 | 03:12:37 | 00:00:00 | |
| DK5PH-5 | 2026-09-04 07:43:24 | 49.25584 | 9.45240 | 103° | 66km/h | 2686m | -3.7m/s | 10.1°C | 58.4% | 745.0hPa | 2.7V | 00:00:00 | 03:12:36 | 00:00:00 | |
| DL0LBS | 2026-09-04 07:43:23 | 49.25585 | 9.45240 | 104° | 64km/h | 2686m | -3.7m/s | 10.2°C | 58.5% | 745.1hPa | 2.7V | 07:34:00 | 00:00:00 | 00:00:00 | |
| KANTATE | 2026-09-04 07:43:22 | 49.25588 | 9.45216 | 103° | 64km/h | 2690m | -3.7m/s | 10.2°C | 61.2% | 744.6hPa | 2.7V | 07:34:00 | 00:00:00 | 00:00:00 | |
| DO3MHA-11 | 2026-09-04 07:43:20 | 49.25598 | 9.45143 | 103° | 64km/h | 2701m | -3.7m/s | 10.2°C | 57.7% | 743.5hPa | 2.7V | 00:00:00 | 03:12:32 | 00:00:00 | |
| SFWM-10 | 2026-09-04 07:43:18 | 49.25601 | 9.45119 | 104° | 64km/h | 2704m | -3.8m/s | 10.3°C | 57.0% | 743.3hPa | 2.7V | 07:34:00 | 00:00:00 | 00:00:00 | |
| DB0UT-7 | 2026-09-04 07:43:16 | 49.25611 | 9.45045 | 101° | 66km/h | 2716m | -3.6m/s | 10.2°C | 57.5% | 742.2hPa | 2.7V | 00:00:00 | 03:12:28 | 00:00:00 | |
| DO3MHA-11 | 2026-09-04 07:43:15 | 49.25614 | 9.45021 | 102° | 64km/h | 2719m | -3.6m/s | 10.2°C | 57.4% | 741.9hPa | 2.7V | 00:00:00 | 03:12:27 | 00:00:00 | |
| DF7PN | 2026-09-04 07:43:14 | 49.25618 | 9.44997 | 101° | 64km/h | 2723m | -3.8m/s | 10.2°C | 56.4% | 741.6hPa | 2.7V | 00:00:00 | 00:00:00 | 00:00:00 | |
| DB0NH | 2026-09-04 07:43:10 | 49.25629 | 9.44899 | 102° | 66km/h | 2738m | -3.7m/s | 10.1°C | 55.3% | 740.2hPa | 2.7V | 00:00:00 | 03:12:22 | 00:00:00 | |
| DO3MHA-11 | 2026-09-04 07:43:09 | 49.25632 | 9.44874 | 102° | 66km/h | 2742m | -3.6m/s | 10.0°C | 56.4% | 739.9hPa | 2.7V | 00:00:00 | 03:12:21 | 00:00:00 | |
| DL1ZP-14 | 2026-09-04 07:43:08 | 49.25636 | 9.44848 | 99° | 66km/h | 2746m | -3.8m/s | 10.1°C | 56.7% | 739.6hPa | 2.7V | 00:00:00 | 00:00:00 | 00:00:00 | |
| DM7RM-13 | 2026-09-04 07:43:07 | 49.25636 | 9.44848 | 101° | 68km/h | 2746m | -3.8m/s | 10.1°C | 56.7% | 739.6hPa | 2.7V | 07:34:00 | 00:00:00 | 00:00:00 | |
| DB0UT-9 | 2026-09-04 07:43:05 | 49.25641 | 9.44797 | 101° | 66km/h | 2754m | -3.8m/s | 10.1°C | 56.6% | 739.0hPa | 2.7V | 07:34:00 | 00:00:00 | 00:00:00 | |
| DO3MHA-11 | 2026-09-04 07:43:04 | 49.25647 | 9.44747 | 101° | 66km/h | 2761m | -3.8m/s | 10.0°C | 54.8% | 738.2hPa | 2.7V | 00:00:00 | 03:12:16 | 00:00:00 | |
| DF3TZ-5 | 2026-09-04 07:42:57 | 49.25669 | 9.44570 | 100° | 66km/h | 2787m | -3.7m/s | 9.9°C | 56.2% | 735.9hPa | 2.7V | 00:00:00 | 00:00:00 | 00:00:00 | |
| DB0UT-7 | 2026-09-04 07:42:56 | 49.25672 | 9.44545 | 101° | 68km/h | 2791m | -3.7m/s | 9.8°C | 56.6% | 735.6hPa | 2.7V | 00:00:00 | 00:00:00 | 00:00:00 | |
| DO3MHA-11 | 2026-09-04 07:42:55 | 49.25675 | 9.44521 | 102° | 66km/h | 2794m | -3.7m/s | 9.8°C | 56.8% | 735.1hPa | 2.7V | 00:00:00 | 03:12:07 | 00:00:00 | |
| DO3MHA-11 | 2026-09-04 07:42:50 | 49.25690 | 9.44393 | 101° | 68km/h | 2813m | -3.8m/s | 9.8°C | 51.9% | 733.5hPa | 2.7V | 00:00:00 | 03:12:02 | 00:00:00 | |
| DM7RM-13 | 2026-09-04 07:42:46 | 49.25699 | 9.44315 | 100° | 68km/h | 2825m | -3.8m/s | 9.9°C | 49.9% | 732.5hPa | 2.7V | 07:35:00 | 00:00:00 | 00:00:00 | |
| DO3MHA-11 | 2026-09-04 07:42:45 | 49.25705 | 9.44263 | 100° | 68km/h | 2833m | -3.7m/s | 9.8°C | 49.3% | 731.8hPa | 2.7V | 07:34:00 | 03:11:57 | 00:00:00 | |
| DK5PH-5 | 2026-09-04 07:42:44 | 49.25708 | 9.44237 | 99° | 68km/h | 2836m | -3.8m/s | 9.8°C | 50.4% | 731.6hPa | 2.7V | 00:00:00 | 03:11:56 | 00:00:00 | |
| DF7PN | 2026-09-04 07:42:43 | 49.25710 | 9.44211 | 98° | 66km/h | 2840m | -3.9m/s | 9.8°C | 51.1% | 731.2hPa | 2.7V | 00:00:00 | 00:00:00 | 00:00:00 | |
| DL0LBS | 2026-09-04 07:42:42 | 49.25710 | 9.44211 | 99° | 68km/h | 2840m | -3.9m/s | 9.8°C | 51.1% | 731.2hPa | 2.7V | 07:35:00 | 00:00:00 | 00:00:00 | |
| KANTATE | 2026-09-04 07:42:41 | 49.25713 | 9.44185 | 100° | 68km/h | 2844m | -3.9m/s | 9.7°C | 51.4% | 730.8hPa | 2.7V | 07:35:00 | 00:00:00 | 00:00:00 | |
| DO3MHA-11 | 2026-09-04 07:42:40 | 49.25719 | 9.44134 | 100° | 68km/h | 2851m | -3.8m/s | 9.7°C | 47.8% | 730.2hPa | 2.7V | 00:00:00 | 03:11:52 | 00:00:00 | |
| DB0NH | 2026-09-04 07:42:39 | 49.25721 | 9.44108 | 99° | 68km/h | 2855m | -3.8m/s | 9.7°C | 46.5% | 729.8hPa | 2.7V | 00:00:00 | 03:11:51 | 00:00:00 | |
| DL1ZP-14 | 2026-09-04 07:42:37 | 49.25726 | 9.44057 | 99° | 66km/h | 2863m | -3.8m/s | 9.8°C | 44.5% | 729.2hPa | 2.7V | 00:00:00 | 00:00:00 | 00:00:00 | |
| DB0UT-7 | 2026-09-04 07:42:36 | 49.25729 | 9.44031 | 101° | 68km/h | 2867m | -3.8m/s | 9.7°C | 44.4% | 728.8hPa | 2.7V | 00:00:00 | 03:11:48 | 00:00:00 | |
| DO3MHA-11 | 2026-09-04 07:42:35 | 49.25732 | 9.44006 | 100° | 68km/h | 2870m | -3.8m/s | 9.7°C | 43.8% | 728.6hPa | 2.7V | 00:00:00 | 03:11:47 | 00:00:00 | |
| DH7VM-15 | 2026-09-04 07:42:32 | 49.25737 | 9.43954 | 100° | 66km/h | 2878m | -3.9m/s | 9.7°C | 43.1% | 727.8hPa | 2.7V | 00:00:00 | 00:00:00 | 00:00:00 | |
| DO3MHA-11 | 2026-09-04 07:42:30 | 49.25745 | 9.43876 | 98° | 68km/h | 2890m | -4.1m/s | 9.6°C | 44.4% | 726.8hPa | 2.7V | 00:00:00 | 03:11:42 | 00:00:00 | |
| DF3TZ-5 | 2026-09-04 07:42:26 | 49.25755 | 9.43773 | 98° | 68km/h | 2905m | -4.0m/s | 9.6°C | 46.6% | 725.4hPa | 2.7V | 00:00:00 | 00:00:00 | 00:00:00 | |
| DO3MHA-11 | 2026-09-04 07:42:25 | 49.25757 | 9.43746 | 98° | 68km/h | 2909m | -3.9m/s | 9.5°C | 47.3% | 725.1hPa | 2.7V | 00:00:00 | 03:11:37 | 00:00:00 | |
| DK5PH-5 | 2026-09-04 07:42:24 | 49.25759 | 9.43720 | 97° | 68km/h | 2913m | -3.8m/s | 9.5°C | 47.9% | 724.7hPa | 2.7V | 00:00:00 | 03:11:36 | 00:00:00 | |
| DL0LBS | 2026-09-04 07:42:22 | 49.25761 | 9.43695 | 99° | 66km/h | 2917m | -4.0m/s | 9.5°C | 48.2% | 724.4hPa | 2.7V | 07:35:00 | 00:00:00 | 00:00:00 | |
| KANTATE | 2026-09-04 07:42:21 | 49.25763 | 9.43669 | 99° | 66km/h | 2921m | -4.0m/s | 9.5°C | 48.3% | 724.1hPa | 2.7V | 07:35:00 | 00:00:00 | 00:00:00 | |
| DO3MHA-11 | 2026-09-04 07:42:20 | 49.25768 | 9.43618 | 98° | 68km/h | 2929m | -3.8m/s | 9.4°C | 48.9% | 723.4hPa | 2.7V | 00:00:00 | 03:11:32 | 00:00:00 | |
| DB0NH | 2026-09-04 07:42:19 | 49.25771 | 9.43592 | 98° | 68km/h | 2933m | -4.0m/s | 9.3°C | 49.0% | 723.1hPa | 2.7V | 00:00:00 | 03:11:31 | 00:00:00 | |
| SFWM-10 | 2026-09-04 07:42:17 | 49.25773 | 9.43567 | 100° | 66km/h | 2937m | -4.0m/s | 9.4°C | 48.9% | 722.7hPa | 2.7V | 07:35:00 | 00:00:00 | 00:00:00 | |
| DB0UT-7 | 2026-09-04 07:42:16 | 49.25778 | 9.43516 | 99° | 68km/h | 2945m | -3.9m/s | 9.3°C | 49.6% | 721.9hPa | 2.7V | 00:00:00 | 00:00:00 | 00:00:00 | |
| DO3MHA-11 | 2026-09-04 07:42:15 | 49.25780 | 9.43490 | 98° | 68km/h | 2949m | -4.0m/s | 9.2°C | 50.1% | 721.6hPa | 2.7V | 00:00:00 | 03:11:27 | 00:00:00 | |
| DF7PN | 2026-09-04 07:42:12 | 49.25789 | 9.43414 | 100° | 68km/h | 2961m | -4.0m/s | 9.2°C | 54.1% | 720.8hPa | 2.7V | 00:00:00 | 00:00:00 | 00:00:00 | |
| DO3MHA-11 | 2026-09-04 07:42:10 | 49.25794 | 9.43361 | 98° | 68km/h | 2969m | -3.9m/s | 9.0°C | 53.8% | 719.9hPa | 2.7V | 00:00:00 | 03:11:22 | 00:00:00 | |
| DL1ZP-14 | 2026-09-04 07:42:06 | 49.25804 | 9.43257 | 96° | 68km/h | 2984m | -4.0m/s | 9.0°C | 52.0% | 718.6hPa | 2.7V | 00:00:00 | 00:00:00 | 00:00:00 | |
| DO3MHA-11 | 2026-09-04 07:42:05 | 49.25806 | 9.43231 | 97° | 66km/h | 2988m | -3.9m/s | 8.9°C | 52.1% | 718.3hPa | 2.7V | 07:35:00 | 03:11:17 | 00:00:00 | |
| DK5PH-5 | 2026-09-04 07:42:04 | 49.25808 | 9.43206 | 97° | 68km/h | 2993m | -4.1m/s | 8.9°C | 53.3% | 717.9hPa | 2.7V | 00:00:00 | 03:11:16 | 00:00:00 | |
| DB0UT-9 | 2026-09-04 07:42:03 | 49.25808 | 9.43206 | 98° | 66km/h | 2993m | -4.1m/s | 8.9°C | 53.3% | 718.0hPa | 2.7V | 07:35:00 | 00:00:00 | 00:00:00 | |
| DF3TZ-5 | 2026-09-04 07:41:55 | 49.25829 | 9.42976 | 97° | 66km/h | 3027m | -4.1m/s | 8.8°C | 51.1% | 714.8hPa | 2.7V | 00:00:00 | 00:00:00 | 00:00:00 | |
| DB0ND-19 | 2026-09-04 07:41:53 | 49.25834 | 9.42925 | 97° | 68km/h | 3036m | -4.0m/s | 8.7°C | 49.9% | 714.1hPa | 2.7V | 00:00:00 | 00:00:00 | 00:00:00 | |
| DO3MHA-11 | 2026-09-04 07:41:50 | 49.25839 | 9.42846 | 96° | 66km/h | 3048m | -4.1m/s | 8.7°C | 47.5% | 713.2hPa | 2.7V | 00:00:00 | 03:11:02 | 00:00:00 | |
| DO3MHA-11 | 2026-09-04 07:41:45 | 49.25849 | 9.42719 | 98° | 66km/h | 3068m | -4.2m/s | 8.5°C | 48.7% | 711.3hPa | 2.7V | 00:00:00 | 03:10:57 | 00:00:00 | |
| DK5PH-5 | 2026-09-04 07:41:44 | 49.25851 | 9.42694 | 99° | 68km/h | 3072m | -4.1m/s | 8.5°C | 48.6% | 711.1hPa | 2.7V | 00:00:00 | 03:10:56 | 00:00:00 | |
| DB0UT-9 | 2026-09-04 07:41:42 | 49.25854 | 9.42668 | 100° | 68km/h | 3076m | -4.2m/s | 8.5°C | 48.4% | 710.6hPa | 2.7V | 07:36:00 | 00:00:00 | 00:00:00 | |
| DF7PN | 2026-09-04 07:41:41 | 49.25858 | 9.42616 | 96° | 66km/h | 3084m | -3.9m/s | 8.5°C | 47.2% | 710.0hPa | 2.7V | 00:00:00 | 00:00:00 | 00:00:00 | |
| DO3MHA-11 | 2026-09-04 07:41:40 | 49.25860 | 9.42591 | 97° | 68km/h | 3089m | -3.9m/s | 8.4°C | 46.5% | 709.6hPa | 2.7V | 00:00:00 | 03:10:52 | 00:00:00 | |
| KANTATE | 2026-09-04 07:41:39 | 49.25860 | 9.42591 | 97° | 66km/h | 3089m | -3.9m/s | 8.5°C | 46.4% | 709.7hPa | 2.7V | 00:00:00 | 00:00:00 | 00:00:00 | |
| SFWM-10 | 2026-09-04 07:41:36 | 49.25867 | 9.42514 | 99° | 68km/h | 3100m | -4.0m/s | 8.4°C | 42.0% | 708.5hPa | 2.7V | 07:36:00 | 00:00:00 | 00:00:00 | |
| DO3MHA-11 | 2026-09-04 07:41:35 | 49.25871 | 9.42463 | 97° | 66km/h | 3108m | -4.0m/s | 8.4°C | 44.6% | 707.8hPa | 2.7V | 00:00:00 | 03:10:47 | 00:00:00 | |
| DO3MHA-11 | 2026-09-04 07:41:30 | 49.25882 | 9.42335 | 96° | 68km/h | 3129m | -4.0m/s | 8.3°C | 39.0% | 706.2hPa | 2.7V | 00:00:00 | 03:10:42 | 00:00:00 | |
| DB0NH | 2026-09-04 07:41:29 | 49.25884 | 9.42309 | 97° | 69km/h | 3133m | -3.9m/s | 8.3°C | 39.2% | 705.8hPa | 2.7V | 00:00:00 | 03:10:41 | 00:00:00 | |
| DH7VM-15 | 2026-09-04 07:41:28 | 49.25884 | 9.42309 | 98° | 66km/h | 3133m | -4.0m/s | 8.4°C | 39.2% | 705.9hPa | 2.7V | 00:00:00 | 00:00:00 | 00:00:00 | |
| DB0UT-7 | 2026-09-04 07:41:26 | 49.25890 | 9.42231 | 96° | 69km/h | 3145m | -4.0m/s | 8.3°C | 36.5% | 704.8hPa | 2.7V | 00:00:00 | 00:00:00 | 00:00:00 | |
| DO3MHA-11 | 2026-09-04 07:41:25 | 49.25892 | 9.42205 | 96° | 68km/h | 3149m | -4.0m/s | 8.2°C | 37.4% | 704.5hPa | 2.7V | 07:35:00 | 03:10:37 | 00:00:00 | |
| DF3TZ-5 | 2026-09-04 07:41:24 | 49.25893 | 9.42179 | 96° | 66km/h | 3153m | -4.1m/s | 8.2°C | 38.0% | 704.1hPa | 2.7V | 00:00:00 | 00:00:00 | 00:00:00 | |
| DB0ND-19 | 2026-09-04 07:41:22 | 49.25898 | 9.42127 | 97° | 68km/h | 3161m | -4.0m/s | 8.2°C | 38.3% | 703.5hPa | 2.7V | 00:00:00 | 00:00:00 | 00:00:00 | |
| DO3MHA-11 | 2026-09-04 07:41:20 | 49.25902 | 9.42074 | 97° | 69km/h | 3169m | -4.1m/s | 8.1°C | 37.9% | 702.7hPa | 2.7V | 00:00:00 | 03:10:32 | 00:00:00 | |
| KANTATE | 2026-09-04 07:41:19 | 49.25902 | 9.42074 | 98° | 69km/h | 3169m | -4.1m/s | 8.2°C | 37.8% | 702.7hPa | 2.7V | 00:00:00 | 00:00:00 | 00:00:00 | |
| DO3MHA-11 | 2026-09-04 07:41:15 | 49.25914 | 9.41941 | 96° | 69km/h | 3190m | -3.9m/s | 8.0°C | 40.8% | 701.0hPa | 2.7V | 00:00:00 | 03:10:27 | 00:00:00 | |
| DK5PH-5 | 2026-09-04 07:41:14 | 49.25916 | 9.41914 | 97° | 69km/h | 3194m | -4.0m/s | 8.0°C | 40.8% | 700.6hPa | 2.6V | 00:00:00 | 03:10:26 | 00:00:00 | |
| DO3MHA-11 | 2026-09-04 07:41:10 | 49.25924 | 9.41808 | 96° | 69km/h | 3210m | -4.1m/s | 8.0°C | 40.4% | 699.1hPa | 2.6V | 00:00:00 | 03:10:22 | 00:00:00 | |
| DO3MHA-11 | 2026-09-04 07:41:05 | 49.25934 | 9.41676 | 96° | 71km/h | 3231m | -4.1m/s | 8.0°C | 37.5% | 697.4hPa | 2.6V | 00:00:00 | 03:10:17 | 00:00:00 | |
| DM7RM-13 | 2026-09-04 07:41:03 | 49.25936 | 9.41649 | 97° | 69km/h | 3235m | -4.2m/s | 8.0°C | 37.3% | 697.2hPa | 2.6V | 07:37:00 | 00:00:00 | 00:00:00 | |
| DB0ND-19 | 2026-09-04 07:40:51 | 49.25961 | 9.41300 | 96° | 69km/h | 3289m | -4.3m/s | 8.0°C | 34.3% | 692.6hPa | 2.6V | 00:00:00 | 00:00:00 | 00:00:00 | |
| DO3MHA-11 | 2026-09-04 07:40:50 | 49.25963 | 9.41273 | 96° | 69km/h | 3294m | -4.1m/s | 7.9°C | 34.1% | 692.2hPa | 2.6V | 00:00:00 | 03:10:02 | 00:00:00 | |
| DO3MHA-11 | 2026-09-04 07:40:45 | 49.25971 | 9.41140 | 94° | 69km/h | 3314m | -4.2m/s | 8.0°C | 30.9% | 690.5hPa | 2.6V | 07:36:00 | 03:09:57 | 00:00:00 | |
| DK5PH-5 | 2026-09-04 07:40:44 | 49.25972 | 9.41113 | 95° | 69km/h | 3318m | -4.2m/s | 8.0°C | 29.4% | 690.2hPa | 2.6V | 07:36:00 | 03:09:56 | 00:00:00 | |
| DM7RM-13 | 2026-09-04 07:40:42 | 49.25973 | 9.41086 | 96° | 69km/h | 3323m | -4.1m/s | 8.0°C | 28.6% | 689.8hPa | 2.6V | 07:37:00 | 00:00:00 | 00:00:00 | |
| DO3MHA-11 | 2026-09-04 07:40:40 | 49.25977 | 9.41006 | 94° | 69km/h | 3335m | -4.1m/s | 7.9°C | 29.5% | 688.7hPa | 2.6V | 00:00:00 | 03:09:52 | 00:00:00 | |
| DL0LBS | 2026-09-04 07:40:39 | 49.25978 | 9.41006 | 94° | 69km/h | 3335m | -4.2m/s | 8.0°C | 29.4% | 688.7hPa | 2.6V | 07:37:00 | 00:00:00 | 00:00:00 | |
| KANTATE | 2026-09-04 07:40:38 | 49.25979 | 9.40979 | 96° | 68km/h | 3339m | -4.2m/s | 7.9°C | 28.7% | 688.4hPa | 2.6V | 07:37:00 | 00:00:00 | 00:00:00 | |
| DO3MHA-11 | 2026-09-04 07:40:35 | 49.25986 | 9.40874 | 96° | 68km/h | 3356m | -4.2m/s | 7.8°C | 28.4% | 687.0hPa | 2.6V | 00:00:00 | 03:09:47 | 00:00:00 | |
| SFWM-10 | 2026-09-04 07:40:34 | 49.25986 | 9.40874 | 96° | 69km/h | 3356m | -4.2m/s | 7.9°C | 28.4% | 687.1hPa | 2.6V | 07:37:00 | 00:00:00 | 00:00:00 | |
| DL1ZP-14 | 2026-09-04 07:40:33 | 49.25992 | 9.40796 | 97° | 68km/h | 3368m | -4.0m/s | 7.7°C | 28.2% | 686.0hPa | 2.6V | 00:00:00 | 00:00:00 | 00:00:00 | |
| DO3MHA-11 | 2026-09-04 07:40:30 | 49.25996 | 9.40743 | 97° | 69km/h | 3377m | -4.2m/s | 7.6°C | 28.3% | 685.4hPa | 2.7V | 00:00:00 | 03:09:42 | 00:00:00 | |
| DB0NH | 2026-09-04 07:40:29 | 49.25998 | 9.40716 | 96° | 69km/h | 3381m | -4.0m/s | 7.7°C | 28.3% | 684.9hPa | 2.7V | 00:00:00 | 03:09:41 | 00:00:00 | |
| DB0UT-7 | 2026-09-04 07:40:26 | 49.26005 | 9.40638 | 99° | 69km/h | 3393m | -3.9m/s | 7.6°C | 27.7% | 683.8hPa | 2.7V | 00:00:00 | 00:00:00 | 00:00:00 | |
| DO3MHA-11 | 2026-09-04 07:40:25 | 49.26007 | 9.40611 | 99° | 69km/h | 3397m | -4.2m/s | 7.6°C | 27.5% | 683.6hPa | 2.7V | 00:00:00 | 03:09:37 | 00:00:00 | |
| DH7VM-15 | 2026-09-04 07:40:23 | 49.26009 | 9.40584 | 98° | 71km/h | 3402m | -4.1m/s | 7.6°C | 27.4% | 683.3hPa | 2.7V | 00:00:00 | 00:00:00 | 00:00:00 | |
| DF3TZ-5 | 2026-09-04 07:40:22 | 49.26014 | 9.40530 | 98° | 68km/h | 3409m | -4.2m/s | 7.5°C | 27.9% | 682.6hPa | 2.7V | 00:00:00 | 00:00:00 | 00:00:00 | |
| DM7RM-13 | 2026-09-04 07:40:21 | 49.26014 | 9.40530 | 100° | 68km/h | 3410m | -4.2m/s | 7.6°C | 27.9% | 682.6hPa | 2.7V | 07:37:00 | 00:00:00 | 00:00:00 | |
| DO3MHA-11 | 2026-09-04 07:40:20 | 49.26019 | 9.40478 | 100° | 69km/h | 3418m | -4.0m/s | 7.4°C | 28.3% | 681.8hPa | 2.7V | 00:00:00 | 03:09:32 | 00:00:00 | |
| DB0UT-9 | 2026-09-04 07:40:19 | 49.26020 | 9.40478 | 101° | 69km/h | 3418m | -4.1m/s | 7.5°C | 28.2% | 681.9hPa | 2.7V | 07:37:00 | 00:00:00 | 00:00:00 | |
| KANTATE | 2026-09-04 07:40:18 | 49.26022 | 9.40451 | 100° | 71km/h | 3422m | -4.0m/s | 7.5°C | 28.7% | 681.7hPa | 2.7V | 00:00:00 | 00:00:00 | 00:00:00 | |
| DO3MHA-11 | 2026-09-04 07:40:15 | 49.26033 | 9.40347 | 101° | 69km/h | 3438m | -3.9m/s | 7.3°C | 33.8% | 680.2hPa | 2.7V | 00:00:00 | 03:09:27 | 00:00:00 | |
| DK5PH-5 | 2026-09-04 07:40:14 | 49.26036 | 9.40320 | 100° | 71km/h | 3442m | -4.1m/s | 7.3°C | 35.2% | 679.9hPa | 2.7V | 00:00:00 | 03:09:26 | 00:00:00 | |
| SFWM-10 | 2026-09-04 07:40:13 | 49.26036 | 9.40320 | 101° | 71km/h | 3442m | -4.1m/s | 7.3°C | 35.1% | 680.0hPa | 2.7V | 07:37:00 | 00:00:00 | 00:00:00 | |
| DO3MHA-11 | 2026-09-04 07:40:10 | 49.26048 | 9.40214 | 102° | 71km/h | 3459m | -4.1m/s | 7.1°C | 40.2% | 678.6hPa | 2.7V | 00:00:00 | 03:09:22 | 00:00:00 | |
| DF7PN | 2026-09-04 07:40:08 | 49.26059 | 9.40134 | 100° | 69km/h | 3471m | -4.2m/s | 7.1°C | 40.6% | 677.5hPa | 2.7V | 00:00:00 | 00:00:00 | 00:00:00 | |
| DO3MHA-11 | 2026-09-04 07:40:05 | 49.26066 | 9.40081 | 102° | 71km/h | 3479m | -4.0m/s | 6.9°C | 41.6% | 676.9hPa | 2.7V | 07:37:00 | 03:09:17 | 00:00:00 | |
| DL1ZP-14 | 2026-09-04 07:40:02 | 49.26079 | 9.39973 | 98° | 69km/h | 3496m | -4.1m/s | 6.8°C | 41.9% | 675.5hPa | 2.7V | 00:00:00 | 00:00:00 | 00:00:00 | |
| DF3TZ-5 | 2026-09-04 07:39:51 | 49.26115 | 9.39679 | 99° | 71km/h | 3541m | -4.1m/s | 6.6°C | 40.5% | 671.7hPa | 2.6V | 00:00:00 | 00:00:00 | 00:00:00 | |
| DB0ND-19 | 2026-09-04 07:39:49 | 49.26118 | 9.39652 | 99° | 69km/h | 3545m | -4.0m/s | 6.5°C | 37.3% | 671.4hPa | 2.6V | 00:00:00 | 00:00:00 | 00:00:00 | |
| DO3MHA-11 | 2026-09-04 07:39:45 | 49.26131 | 9.39545 | 100° | 69km/h | 3562m | -4.0m/s | 6.5°C | 35.1% | 670.0hPa | 2.6V | 00:00:00 | 03:08:57 | 00:00:00 | |
| DK5PH-5 | 2026-09-04 07:39:44 | 49.26134 | 9.39519 | 101° | 71km/h | 3566m | -4.0m/s | 6.4°C | 35.5% | 669.6hPa | 2.7V | 00:00:00 | 03:08:56 | 00:00:00 | |
| DO3MHA-11 | 2026-09-04 07:39:40 | 49.26150 | 9.39413 | 103° | 71km/h | 3583m | -4.0m/s | 6.4°C | 36.4% | 668.3hPa | 2.7V | 00:00:00 | 03:08:52 | 00:00:00 | |
| DB0UT-9 | 2026-09-04 07:39:38 | 49.26154 | 9.39386 | 102° | 73km/h | 3587m | -4.5m/s | 6.3°C | 37.0% | 668.0hPa | 2.7V | 07:37:00 | 00:00:00 | 00:00:00 | |
| DL0LBS | 2026-09-04 07:39:37 | 49.26157 | 9.39358 | 102° | 71km/h | 3591m | -4.3m/s | 6.3°C | 37.2% | 667.6hPa | 2.7V | 07:37:00 | 00:00:00 | 00:00:00 | |
| KANTATE | 2026-09-04 07:39:36 | 49.26161 | 9.39332 | 103° | 71km/h | 3596m | -4.1m/s | 6.3°C | 37.8% | 667.4hPa | 2.7V | 00:00:00 | 00:00:00 | 00:00:00 | |
| DO3MHA-11 | 2026-09-04 07:39:35 | 49.26169 | 9.39277 | 103° | 71km/h | 3604m | -4.1m/s | 6.2°C | 39.2% | 666.6hPa | 2.7V | 00:00:00 | 03:08:47 | 00:00:00 | |
| SFWM-10 | 2026-09-04 07:39:33 | 49.26173 | 9.39250 | 102° | 73km/h | 3609m | -4.1m/s | 6.2°C | 40.1% | 666.3hPa | 2.7V | 07:37:00 | 00:00:00 | 00:00:00 | |
| DL1ZP-14 | 2026-09-04 07:39:31 | 49.26186 | 9.39145 | 103° | 68km/h | 3625m | -4.2m/s | 6.1°C | 44.8% | 664.9hPa | 2.7V | 00:00:00 | 00:00:00 | 00:00:00 | |
| DO3MHA-11 | 2026-09-04 07:39:30 | 49.26186 | 9.39145 | 104° | 69km/h | 3625m | -4.1m/s | 6.1°C | 45.0% | 664.9hPa | 2.7V | 00:00:00 | 03:08:42 | 00:00:00 | |
| DB0NH | 2026-09-04 07:39:29 | 49.26190 | 9.39118 | 104° | 71km/h | 3630m | -4.2m/s | 6.0°C | 45.6% | 664.6hPa | 2.7V | 00:00:00 | 03:08:41 | 00:00:00 | |
| DB0UT-7 | 2026-09-04 07:39:26 | 49.26202 | 9.39038 | 103° | 71km/h | 3642m | -4.3m/s | 5.9°C | 46.3% | 663.5hPa | 2.7V | 00:00:00 | 00:00:00 | 00:00:00 | |
| DO3MHA-11 | 2026-09-04 07:39:25 | 49.26206 | 9.39012 | 105° | 71km/h | 3646m | -4.0m/s | 5.9°C | 46.5% | 663.1hPa | 2.7V | 07:37:00 | 03:08:37 | 00:00:00 | |
| DF1GD-15 | 2026-09-04 07:39:23 | 49.26210 | 9.38986 | 106° | 71km/h | 3651m | -4.3m/s | 5.9°C | 46.3% | 662.9hPa | 2.7V | 07:38:00 | 00:00:00 | 00:00:00 | |
| NBG1-10 | 2026-09-04 07:39:22 | 49.26219 | 9.38932 | 103° | 71km/h | 3659m | -4.0m/s | 5.8°C | 46.8% | 662.1hPa | 2.7V | 07:38:00 | 03:08:34 | 00:00:00 | |
| DO3MHA-11 | 2026-09-04 07:39:20 | 49.26227 | 9.38880 | 104° | 69km/h | 3667m | -4.0m/s | 5.7°C | 46.9% | 661.4hPa | 2.7V | 00:00:00 | 03:08:32 | 00:00:00 | |
| DM7RM-13 | 2026-09-04 07:39:19 | 49.26227 | 9.38880 | 104° | 68km/h | 3667m | -4.0m/s | 5.8°C | 46.7% | 661.4hPa | 2.7V | 07:38:00 | 00:00:00 | 00:00:00 | |
| DB0ND-19 | 2026-09-04 07:39:18 | 49.26236 | 9.38828 | 105° | 69km/h | 3675m | -4.1m/s | 5.7°C | 47.0% | 660.9hPa | 2.7V | 00:00:00 | 00:00:00 | 00:00:00 | |
| DL0LBS | 2026-09-04 07:39:16 | 49.26241 | 9.38801 | 106° | 71km/h | 3679m | -4.2m/s | 5.7°C | 47.1% | 660.4hPa | 2.7V | 07:38:00 | 00:00:00 | 00:00:00 | |
| DO3MHA-11 | 2026-09-04 07:39:15 | 49.26249 | 9.38748 | 104° | 69km/h | 3687m | -4.1m/s | 5.5°C | 47.8% | 659.8hPa | 2.7V | 00:00:00 | 03:08:27 | 00:00:00 | |
| DK5PH-5 | 2026-09-04 07:39:14 | 49.26254 | 9.38722 | 105° | 73km/h | 3692m | -4.1m/s | 5.5°C | 48.0% | 659.4hPa | 2.6V | 00:00:00 | 03:08:26 | 00:00:00 | |
| SFWM-10 | 2026-09-04 07:39:12 | 49.26258 | 9.38696 | 106° | 69km/h | 3696m | -4.2m/s | 5.5°C | 47.9% | 659.2hPa | 2.6V | 07:38:00 | 00:00:00 | 00:00:00 | |
| DO3MHA-11 | 2026-09-04 07:39:10 | 49.26272 | 9.38617 | 104° | 71km/h | 3709m | -4.2m/s | 5.3°C | 48.8% | 658.1hPa | 2.6V | 00:00:00 | 03:08:22 | 00:00:00 | |
| KANTATE | 2026-09-04 07:39:07 | 49.26281 | 9.38564 | 107° | 69km/h | 3717m | -4.1m/s | 5.3°C | 48.7% | 657.5hPa | 2.6V | 07:38:00 | 00:00:00 | 00:00:00 | |
| DF7PN | 2026-09-04 07:39:06 | 49.26296 | 9.38484 | 104° | 73km/h | 3729m | -4.0m/s | 5.2°C | 49.5% | 656.7hPa | 2.6V | 00:00:00 | 00:00:00 | 00:00:00 | |
| DO3MHA-11 | 2026-09-04 07:39:05 | 49.26296 | 9.38484 | 105° | 71km/h | 3729m | -4.0m/s | 5.1°C | 49.8% | 656.6hPa | 2.6V | 00:00:00 | 03:08:17 | 00:00:00 | |
| DF1GD-15 | 2026-09-04 07:39:02 | 49.26304 | 9.38429 | 104° | 71km/h | 3737m | -4.1m/s | 5.1°C | 49.8% | 655.8hPa | 2.6V | 07:38:00 | 00:00:00 | 00:00:00 | |
| DL1ZP-14 | 2026-09-04 07:38:59 | 49.26322 | 9.38322 | 104° | 73km/h | 3753m | -4.1m/s | 5.0°C | 51.8% | 654.7hPa | 2.6V | 00:00:00 | 00:00:00 | 00:00:00 | |
| DF3TZ-5 | 2026-09-04 07:38:49 | 49.26363 | 9.38046 | 103° | 71km/h | 3794m | -4.1m/s | 4.6°C | 55.0% | 651.3hPa | 2.7V | 00:00:00 | 00:00:00 | 00:00:00 | |
| DB0ND-19 | 2026-09-04 07:38:47 | 49.26372 | 9.37991 | 103° | 75km/h | 3802m | -4.1m/s | 4.6°C | 57.4% | 650.7hPa | 2.7V | 00:00:00 | 00:00:00 | 00:00:00 | |
| DO3MHA-11 | 2026-09-04 07:38:45 | 49.26379 | 9.37934 | 101° | 73km/h | 3811m | -4.1m/s | 4.5°C | 63.4% | 649.9hPa | 2.7V | 07:38:00 | 03:07:57 | 00:00:00 | |
| DK5PH-5 | 2026-09-04 07:38:44 | 49.26382 | 9.37907 | 101° | 75km/h | 3815m | -4.1m/s | 4.4°C | 65.9% | 649.5hPa | 2.7V | 00:00:00 | 03:07:56 | 00:00:00 | |
| DF1GD-15 | 2026-09-04 07:38:41 | 49.26389 | 9.37852 | 102° | 73km/h | 3823m | -4.2m/s | 4.4°C | 67.4% | 648.8hPa | 2.7V | 07:38:00 | 00:00:00 | 00:00:00 | |
| DO3MHA-11 | 2026-09-04 07:38:40 | 49.26396 | 9.37796 | 101° | 73km/h | 3832m | -4.1m/s | 4.2°C | 69.2% | 648.2hPa | 2.7V | 00:00:00 | 03:07:52 | 00:00:00 | |
| DM7RM-13 | 2026-09-04 07:38:38 | 49.26403 | 9.37740 | 100° | 73km/h | 3840m | -4.1m/s | 4.2°C | 69.6% | 647.6hPa | 2.7V | 07:39:00 | 00:00:00 | 00:00:00 | |
| DB0UT-9 | 2026-09-04 07:38:37 | 49.26403 | 9.37740 | 100° | 73km/h | 3840m | -4.1m/s | 4.2°C | 69.6% | 647.6hPa | 2.7V | 00:00:00 | 00:00:00 | 00:00:00 | |
| DO3MHA-11 | 2026-09-04 07:38:35 | 49.26413 | 9.37656 | 102° | 75km/h | 3852m | -4.0m/s | 4.1°C | 71.0% | 646.5hPa | 2.7V | 00:00:00 | 03:07:47 | 00:00:00 | |
| DL0LBS | 2026-09-04 07:38:34 | 49.26413 | 9.37656 | 102° | 77km/h | 3852m | -4.0m/s | 4.1°C | 70.6% | 646.5hPa | 2.7V | 07:39:00 | 00:00:00 | 00:00:00 | |
| SFWM-10 | 2026-09-04 07:38:31 | 49.26423 | 9.37570 | 100° | 73km/h | 3864m | -4.0m/s | 4.0°C | 71.3% | 645.7hPa | 2.7V | 07:39:00 | 00:00:00 | 00:00:00 | |
| DO3MHA-11 | 2026-09-04 07:38:30 | 49.26430 | 9.37514 | 101° | 75km/h | 3872m | -4.2m/s | 3.9°C | 71.6% | 645.0hPa | 2.7V | 00:00:00 | 03:07:42 | 00:00:00 | |
| DL1ZP-14 | 2026-09-04 07:38:28 | 49.26437 | 9.37456 | 98° | 77km/h | 3881m | -4.1m/s | 3.9°C | 71.6% | 644.3hPa | 2.7V | 00:00:00 | 00:00:00 | 00:00:00 | |
| KANTATE | 2026-09-04 07:38:27 | 49.26436 | 9.37456 | 100° | 77km/h | 3881m | -4.1m/s | 3.9°C | 71.6% | 644.3hPa | 2.7V | 07:39:00 | 00:00:00 | 00:00:00 | |
| DO3MHA-11 | 2026-09-04 07:38:25 | 49.26444 | 9.37370 | 98° | 73km/h | 3893m | -4.0m/s | 3.7°C | 74.2% | 643.3hPa | 2.7V | 00:00:00 | 03:07:37 | 00:00:00 | |
| DF1GD-15 | 2026-09-04 07:38:21 | 49.26453 | 9.37286 | 101° | 75km/h | 3905m | -4.1m/s | 3.7°C | 74.2% | 642.4hPa | 2.7V | 07:39:00 | 00:00:00 | 00:00:00 | |
| DB0UT-7 | 2026-09-04 07:38:20 | 49.26459 | 9.37228 | 99° | 75km/h | 3913m | -4.1m/s | 3.6°C | 74.0% | 641.7hPa | 2.7V | 00:00:00 | 00:00:00 | 00:00:00 | |
| DF3TZ-5 | 2026-09-04 07:38:18 | 49.26468 | 9.37144 | 100° | 73km/h | 3926m | -4.2m/s | 3.6°C | 72.8% | 640.8hPa | 2.6V | 00:00:00 | 00:00:00 | 00:00:00 | |
| DB0ND-19 | 2026-09-04 07:38:16 | 49.26474 | 9.37086 | 99° | 77km/h | 3933m | -4.0m/s | 3.5°C | 72.8% | 640.2hPa | 2.6V | 00:00:00 | 00:00:00 | 00:00:00 | |
| DO3MHA-11 | 2026-09-04 07:38:15 | 49.26474 | 9.37086 | 100° | 75km/h | 3933m | -4.0m/s | 3.5°C | 73.2% | 640.1hPa | 2.6V | 00:00:00 | 03:07:27 | 00:00:00 | |
| NBG1-10 | 2026-09-04 07:38:14 | 49.26477 | 9.37057 | 98° | 75km/h | 3937m | -4.0m/s | 3.4°C | 73.1% | 639.7hPa | 2.7V | 00:00:00 | 03:07:26 | 00:00:00 | |
| DO3MHA-11 | 2026-09-04 07:38:10 | 49.26487 | 9.36943 | 99° | 75km/h | 3954m | -4.1m/s | 3.3°C | 71.2% | 638.5hPa | 2.7V | 00:00:00 | 03:07:22 | 00:00:00 | |
| DB0NH | 2026-09-04 07:38:07 | 49.26494 | 9.36856 | 96° | 75km/h | 3966m | -4.3m/s | 3.2°C | 70.5% | 637.6hPa | 2.7V | 00:00:00 | 03:07:19 | 00:00:00 | |
| KANTATE | 2026-09-04 07:38:06 | 49.26495 | 9.36856 | 97° | 75km/h | 3966m | -4.3m/s | 3.3°C | 70.0% | 637.6hPa | 2.7V | 07:39:00 | 00:00:00 | 00:00:00 | |
| DO3MHA-11 | 2026-09-04 07:38:05 | 49.26499 | 9.36799 | 98° | 75km/h | 3975m | -4.1m/s | 3.2°C | 70.3% | 636.9hPa | 2.7V | 07:39:00 | 03:07:17 | 00:00:00 | |
| DF7PN | 2026-09-04 07:38:04 | 49.26505 | 9.36743 | 100° | 75km/h | 3983m | -4.2m/s | 3.1°C | 70.0% | 636.3hPa | 2.7V | 00:00:00 | 00:00:00 | 00:00:00 | |
| DL1ZP-14 | 2026-09-04 07:37:57 | 49.26520 | 9.36568 | 99° | 73km/h | 4007m | -4.2m/s | 2.9°C | 71.7% | 634.0hPa | 2.7V | 00:00:00 | 00:00:00 | 00:00:00 | |
| DF3TZ-5 | 2026-09-04 07:37:47 | 49.26554 | 9.36252 | 97° | 75km/h | 4052m | -3.9m/s | 2.6°C | 71.4% | 630.9hPa | 2.7V | 00:00:00 | 00:00:00 | 00:00:00 | |
| DO3MHA-11 | 2026-09-04 07:37:45 | 49.26556 | 9.36223 | 99° | 75km/h | 4056m | -4.1m/s | 2.5°C | 72.3% | 630.5hPa | 2.7V | 00:00:00 | 03:06:57 | 00:00:00 | |
| DK5PH-5 | 2026-09-04 07:37:44 | 49.26559 | 9.36195 | 100° | 75km/h | 4060m | -4.2m/s | 2.5°C | 72.3% | 630.2hPa | 2.7V | 00:00:00 | 03:06:56 | 00:00:00 | |
| NBG1-10 | 2026-09-04 07:37:41 | 49.26569 | 9.36110 | 99° | 73km/h | 4072m | -4.1m/s | 2.4°C | 73.2% | 629.2hPa | 2.7V | 00:00:00 | 03:06:53 | 00:00:00 | |
| DO3MHA-11 | 2026-09-04 07:37:40 | 49.26571 | 9.36081 | 99° | 75km/h | 4077m | -4.1m/s | 2.3°C | 73.4% | 628.9hPa | 2.7V | 00:00:00 | 03:06:52 | 00:00:00 | |
| DO3MHA-11 | 2026-09-04 07:37:35 | 49.26584 | 9.35938 | 96° | 75km/h | 4097m | -4.1m/s | 2.2°C | 73.5% | 627.3hPa | 2.7V | 00:00:00 | 03:06:47 | 00:00:00 | |
| DL0LBS | 2026-09-04 07:37:32 | 49.26588 | 9.35882 | 99° | 73km/h | 4106m | -4.0m/s | 2.1°C | 73.5% | 626.8hPa | 2.7V | 07:40:00 | 00:00:00 | 00:00:00 | |
| DG9SBQ-11 | 2026-09-04 07:37:31 | 49.26591 | 9.35854 | 100° | 75km/h | 4110m | -4.0m/s | 2.1°C | 73.5% | 626.5hPa | 2.7V | 00:00:00 | 00:00:00 | 00:00:00 | |
| DO3MHA-11 | 2026-09-04 07:37:30 | 49.26596 | 9.35796 | 98° | 73km/h | 4118m | -4.0m/s | 2.0°C | 74.8% | 625.7hPa | 2.7V | 00:00:00 | 03:06:42 | 00:00:00 | |
| SFWM-10 | 2026-09-04 07:37:28 | 49.26598 | 9.35768 | 97° | 73km/h | 4122m | -4.3m/s | 2.0°C | 74.5% | 625.5hPa | 2.7V | 07:40:00 | 00:00:00 | 00:00:00 | |
| DB0UT-7 | 2026-09-04 07:37:21 | 49.26621 | 9.35513 | 100° | 73km/h | 4158m | -4.1m/s | 1.6°C | 75.3% | 622.6hPa | 2.7V | 00:00:00 | 00:00:00 | 00:00:00 | |
| DO3MHA-11 | 2026-09-04 07:37:20 | 49.26621 | 9.35513 | 100° | 73km/h | 4158m | -4.1m/s | 1.6°C | 75.3% | 622.6hPa | 2.7V | 00:00:00 | 03:06:32 | 00:00:00 | |
| DF1GD-15 | 2026-09-04 07:37:19 | 49.26621 | 9.35513 | 100° | 75km/h | 4158m | -4.1m/s | 1.7°C | 74.7% | 622.7hPa | 2.7V | 07:40:00 | 00:00:00 | 00:00:00 | |
| DF3TZ-5 | 2026-09-04 07:37:16 | 49.26634 | 9.35372 | 98° | 71km/h | 4179m | -4.2m/s | 1.5°C | 75.7% | 621.1hPa | 2.7V | 00:00:00 | 00:00:00 | 00:00:00 | |
| DM7RM-13 | 2026-09-04 07:37:15 | 49.26634 | 9.35372 | 100° | 73km/h | 4179m | -4.2m/s | 1.5°C | 75.7% | 621.1hPa | 2.7V | 07:40:00 | 00:00:00 | 00:00:00 | |
| DK5PH-5 | 2026-09-04 07:37:14 | 49.26636 | 9.35344 | 99° | 73km/h | 4182m | -3.9m/s | 1.4°C | 76.4% | 620.8hPa | 2.7V | 00:00:00 | 03:06:26 | 00:00:00 | |
| DL0LBS | 2026-09-04 07:37:11 | 49.26642 | 9.35286 | 97° | 75km/h | 4191m | -4.0m/s | 1.4°C | 76.4% | 620.2hPa | 2.6V | 07:40:00 | 00:00:00 | 00:00:00 | |
| DH7VM-15 | 2026-09-04 07:37:10 | 49.26644 | 9.35258 | 97° | 73km/h | 4195m | -4.1m/s | 1.4°C | 76.0% | 619.8hPa | 2.6V | 00:00:00 | 00:00:00 | 00:00:00 | |
| DK7TD | 2026-09-04 07:36:53 | 49.26688 | 9.34753 | 98° | 73km/h | 4268m | -4m/s | 0.8°C | 79.2% | 614.3hPa | 2.6V | 07:42:59 | 03:06:05 | 00:00:00 | |
| DL0LBS | 2026-09-04 07:36:51 | 49.26691 | 9.34724 | 100° | 75km/h | 4272m | -4.1m/s | 0.8°C | 74.6% | 613.9hPa | 2.7V | 07:41:00 | 00:00:00 | 00:00:00 | |
| DO3MHA-11 | 2026-09-04 07:36:50 | 49.26696 | 9.34666 | 98° | 75km/h | 4280m | -4.0m/s | 0.7°C | 75.2% | 613.3hPa | 2.7V | 00:00:00 | 03:06:02 | 00:00:00 | |
| SFWM-10 | 2026-09-04 07:36:46 | 49.26704 | 9.34581 | 101° | 73km/h | 4292m | -3.9m/s | 0.6°C | 74.7% | 612.4hPa | 2.7V | 07:41:00 | 00:00:00 | 00:00:00 | |
| DF3TZ-5 | 2026-09-04 07:36:45 | 49.26714 | 9.34495 | 97° | 73km/h | 4304m | -4.3m/s | 0.5°C | 74.9% | 611.5hPa | 2.7V | 00:00:00 | 00:00:00 | 00:00:00 | |
| DK5PH-5 | 2026-09-04 07:36:44 | 49.26714 | 9.34495 | 98° | 75km/h | 4304m | -4.2m/s | 0.5°C | 75.5% | 611.5hPa | 2.7V | 07:40:00 | 03:05:56 | 00:00:00 | |
| DB0ND-19 | 2026-09-04 07:36:43 | 49.26716 | 9.34467 | 98° | 71km/h | 4308m | -4.0m/s | 0.5°C | 75.0% | 611.2hPa | 2.7V | 00:00:00 | 00:00:00 | 00:00:00 | |
| DO3MHA-11 | 2026-09-04 07:36:40 | 49.26726 | 9.34382 | 100° | 75km/h | 4321m | -4.1m/s | 0.4°C | 76.3% | 610.2hPa | 2.7V | 00:00:00 | 03:05:52 | 00:00:00 | |
| DF1GD-15 | 2026-09-04 07:36:37 | 49.26732 | 9.34325 | 100° | 75km/h | 4329m | -4.0m/s | 0.3°C | 76.3% | 609.6hPa | 2.7V | 07:41:00 | 00:00:00 | 00:00:00 | |
| DO3MHA-11 | 2026-09-04 07:36:35 | 49.26741 | 9.34240 | 101° | 77km/h | 4341m | -4.0m/s | 0.2°C | 78.4% | 608.6hPa | 2.7V | 00:00:00 | 03:05:47 | 00:00:00 | |
| DB0NH | 2026-09-04 07:36:34 | 49.26745 | 9.34210 | 100° | 73km/h | 4345m | -4.1m/s | 0.1°C | 78.5% | 608.3hPa | 2.7V | 00:00:00 | 03:05:46 | 00:00:00 | |
| DB0UT-9 | 2026-09-04 07:36:33 | 49.26745 | 9.34210 | 101° | 78km/h | 4345m | -4.1m/s | 0.2°C | 77.8% | 608.4hPa | 2.7V | 07:41:00 | 00:00:00 | 00:00:00 | |
| DO3MHA-11 | 2026-09-04 07:36:30 | 49.26757 | 9.34095 | 102° | 75km/h | 4361m | -3.9m/s | 0.0°C | 77.9% | 607.1hPa | 2.7V | 00:00:00 | 03:05:42 | 00:00:00 | |
| SFWM-10 | 2026-09-04 07:36:26 | 49.26768 | 9.34008 | 101° | 75km/h | 4373m | -4.2m/s | -0.0°C | 76.7% | 606.3hPa | 2.6V | 07:41:00 | 00:00:00 | 00:00:00 | |
| DO3MHA-11 | 2026-09-04 07:36:25 | 49.26775 | 9.33952 | 103° | 75km/h | 4381m | -4.1m/s | -0.0°C | 77.5% | 605.7hPa | 2.6V | 00:00:00 | 03:05:37 | 00:00:00 | |
| DL1ZP-14 | 2026-09-04 07:36:24 | 49.26779 | 9.33924 | 102° | 75km/h | 4385m | -4.1m/s | -0.1°C | 76.8% | 605.4hPa | 2.6V | 00:00:00 | 00:00:00 | 00:00:00 | |
| KANTATE | 2026-09-04 07:36:23 | 49.26780 | 9.33924 | 103° | 75km/h | 4385m | -4.1m/s | -0.1°C | 76.8% | 605.4hPa | 2.7V | 07:41:00 | 00:00:00 | 00:00:00 | |
| DB0UT-7 | 2026-09-04 07:36:20 | 49.26793 | 9.33810 | 102° | 73km/h | 4401m | -4.0m/s | -0.1°C | 76.9% | 604.0hPa | 2.7V | 00:00:00 | 00:00:00 | 00:00:00 | |
| DK7TD | 2026-09-04 07:36:02 | 49.26856 | 9.33309 | 103° | 73km/h | 4475m | -4m/s | -0.5°C | 75.1% | 598.7hPa | 2.7V | 07:42:59 | 03:05:14 | 00:00:00 | |
| DK7TD | 2026-09-04 07:35:48 | 49.26909 | 9.32927 | 103° | 73km/h | 4534m | -4.3m/s | -0.8°C | 73.1% | 594.3hPa | 2.7V | 07:42:59 | 03:05:00 | 00:00:00 | |
| DK7TD | 2026-09-04 07:35:30 | 49.26987 | 9.32430 | 104° | 75km/h | 4609m | -4.2m/s | -1.4°C | 74.2% | 588.6hPa | 2.7V | 07:42:59 | 03:04:42 | 00:00:00 | |
| DO3MHA-11 | 2026-09-04 07:35:30 | 49.26987 | 9.32430 | 104° | 75km/h | 4609m | -4.1m/s | -1.3°C | 70.6% | 588.5hPa | 2.7V | 00:00:00 | 03:04:42 | 00:00:00 | |
| DL0LBS | 2026-09-04 07:35:29 | 49.26992 | 9.32401 | 105° | 77km/h | 4613m | -4.1m/s | -1.3°C | 69.9% | 588.4hPa | 2.7V | 07:42:00 | 00:00:00 | 00:00:00 | |
| DF7PN | 2026-09-04 07:35:28 | 49.26996 | 9.32373 | 103° | 75km/h | 4617m | -4.4m/s | -1.4°C | 70.1% | 588.0hPa | 2.7V | 00:00:00 | 00:00:00 | 00:00:00 | |
| SFWM-10 | 2026-09-04 07:35:23 | 49.27013 | 9.32260 | 105° | 75km/h | 4634m | -4.3m/s | -1.6°C | 70.6% | 586.9hPa | 2.7V | 07:42:00 | 00:00:00 | 00:00:00 | |
| DL1ZP-14 | 2026-09-04 07:35:22 | 49.27022 | 9.32204 | 102° | 71km/h | 4642m | -4.3m/s | -1.6°C | 70.5% | 586.2hPa | 2.7V | 00:00:00 | 00:00:00 | 00:00:00 | |
| DO3MHA-11 | 2026-09-04 07:35:20 | 49.27031 | 9.32150 | 107° | 75km/h | 4651m | -3.9m/s | -1.6°C | 71.0% | 585.5hPa | 2.7V | 00:00:00 | 03:04:32 | 00:00:00 | |
| DB0UT-7 | 2026-09-04 07:35:19 | 49.27036 | 9.32122 | 107° | 75km/h | 4655m | -4.3m/s | -1.6°C | 71.2% | 585.2hPa | 2.7V | 00:00:00 | 00:00:00 | 00:00:00 | |
| DK7TD | 2026-09-04 07:34:59 | 49.27130 | 9.31556 | 106° | 75km/h | 4740m | -4.3m/s | -2.2°C | 71.7% | 579hPa | 2.6V | 07:42:59 | 03:04:11 | 00:00:00 | |
| DK7TD | 2026-09-04 07:34:49 | 49.27176 | 9.31275 | 106° | 71km/h | 4783m | -4.3m/s | -2.5°C | 72% | 575.9hPa | 2.7V | 07:42:59 | 03:04:01 | 00:00:00 | |
| DK7TD | 2026-09-04 07:34:32 | 49.27265 | 9.30799 | 107° | 73km/h | 4855m | -4.4m/s | -3.1°C | 73.7% | 570.6hPa | 2.7V | 07:42:59 | 03:03:44 | 00:00:00 | |
| DK7TD | 2026-09-04 07:34:21 | 49.27326 | 9.30488 | 107° | 77km/h | 4903m | -4.6m/s | -3.5°C | 74.6% | 567.3hPa | 2.7V | 07:43:50 | 03:03:33 | 00:00:00 | |
| DK7TD | 2026-09-04 07:34:10 | 49.27387 | 9.30180 | 109° | 77km/h | 4952m | -4.4m/s | -3.9°C | 74.8% | 563.7hPa | 2.6V | 07:43:50 | 03:03:22 | 00:00:00 | |
| DK7TD | 2026-09-04 07:33:59 | 49.27454 | 9.29868 | 108° | 77km/h | 5001m | -4.4m/s | -4.3°C | 75.5% | 560.3hPa | 2.7V | 07:43:50 | 03:03:11 | 00:00:00 | |
| DK7TD | 2026-09-04 07:33:50 | 49.27518 | 9.29585 | 108° | 77km/h | 5045m | -4.5m/s | -4.6°C | 74.8% | 557.1hPa | 2.6V | 07:43:50 | 03:03:01 | 00:00:00 | |
| DL1ZP-14 | 2026-09-04 07:33:49 | 49.27518 | 9.29585 | 108° | 75km/h | 5045m | -4.5m/s | -4.6°C | 70.2% | 557.1hPa | 2.6V | 00:00:00 | 00:00:00 | 00:00:00 | |
| DK7TD | 2026-09-04 07:33:32 | 49.27623 | 9.29099 | 109° | 78km/h | 5122m | -4.6m/s | -5.2°C | 73.7% | 551.7hPa | 2.7V | 07:45:32 | 03:02:44 | 00:00:00 | |
| DK7TD | 2026-09-04 07:33:21 | 49.27693 | 9.28779 | 108° | 78km/h | 5172m | -4.5m/s | -5.5°C | 64.9% | 548.2hPa | 2.6V | 07:45:32 | 03:02:33 | 00:00:00 | |
| DK7TD | 2026-09-04 07:33:10 | 49.27768 | 9.28456 | 110° | 82km/h | 5222m | -4.6m/s | -5.9°C | 66% | 544.6hPa | 2.7V | 07:45:32 | 03:02:22 | 00:00:00 | |
| DK7TD | 2026-09-04 07:32:59 | 49.27848 | 9.28125 | 110° | 82km/h | 5273m | -4.7m/s | -6.2°C | 66.6% | 541.2hPa | 2.7V | 07:45:32 | 03:02:11 | 00:00:00 | |
| DF7PN | 2026-09-04 07:32:53 | 49.27894 | 9.27946 | 112° | 84km/h | 5300m | -4.6m/s | -6.5°C | 60.9% | 539.4hPa | 2.7V | 00:00:00 | 00:00:00 | 00:00:00 | |
| DL1ZP-14 | 2026-09-04 07:32:47 | 49.27948 | 9.27733 | 110° | 84km/h | 5332m | -4.7m/s | -6.7°C | 69.4% | 537.1hPa | 2.7V | 00:00:00 | 00:00:00 | 00:00:00 | |
| DM7RM-13 | 2026-09-04 07:32:46 | 49.27941 | 9.27763 | 112° | 84km/h | 5328m | -4.6m/s | -6.7°C | 68.4% | 537.4hPa | 2.7V | 07:44:00 | 00:00:00 | 00:00:00 | |
| DO3MHA-11 | 2026-09-04 07:32:45 | 49.27955 | 9.27702 | 110° | 82km/h | 5337m | -4.7m/s | -6.8°C | 70.9% | 536.7hPa | 2.7V | 07:44:00 | 03:01:57 | 00:00:00 | |
| DK5PH-5 | 2026-09-04 07:32:44 | 49.27962 | 9.27673 | 111° | 84km/h | 5342m | -4.4m/s | -6.8°C | 70.7% | 536.4hPa | 2.7V | 07:44:00 | 03:01:56 | 00:00:00 | |
| DF3TZ-5 | 2026-09-04 07:32:36 | 49.28019 | 9.27431 | 109° | 82km/h | 5379m | -4.8m/s | -7.1°C | 66.9% | 533.9hPa | 2.6V | 00:00:00 | 00:00:00 | 00:00:00 | |
| DB0UT-9 | 2026-09-04 07:32:34 | 49.28026 | 9.27401 | 111° | 82km/h | 5384m | -4.7m/s | -7.1°C | 64.6% | 533.6hPa | 2.6V | 07:45:00 | 00:00:00 | 00:00:00 | |
| DO3MHA-11 | 2026-09-04 07:32:32 | 49.28049 | 9.27311 | 111° | 82km/h | 5398m | -4.8m/s | -7.1°C | 57.6% | 532.6hPa | 2.6V | 00:00:00 | 03:01:44 | 00:00:00 | |
| DF1GD-15 | 2026-09-04 07:32:29 | 49.28063 | 9.27249 | 111° | 82km/h | 5407m | -4.8m/s | -7.3°C | 61.3% | 532.0hPa | 2.6V | 07:45:00 | 00:00:00 | 00:00:00 | |
| NBG1-10 | 2026-09-04 07:32:28 | 49.28078 | 9.27190 | 111° | 84km/h | 5417m | -4.7m/s | -7.3°C | 67.3% | 531.3hPa | 2.6V | 00:00:00 | 03:01:40 | 00:00:00 | |
| DM7RM-13 | 2026-09-04 07:32:25 | 49.28092 | 9.27129 | 110° | 82km/h | 5426m | -4.6m/s | -7.4°C | 64.1% | 530.7hPa | 2.6V | 07:45:00 | 00:00:00 | 00:00:00 | |
| DL0LBS | 2026-09-04 07:32:23 | 49.28106 | 9.27069 | 111° | 82km/h | 5435m | -4.7m/s | -7.4°C | 60.6% | 530.1hPa | 2.6V | 07:45:00 | 00:00:00 | 00:00:00 | |
| DK7TD | 2026-09-04 07:32:06 | 49.28230 | 9.26518 | 110° | 82km/h | 5520m | -4.4m/s | -8.1°C | 68.1% | 524.3hPa | 2.6V | 07:45:32 | 03:01:18 | 00:00:00 | |
| DK7TD | 2026-09-04 07:31:56 | 49.28302 | 9.26212 | 109° | 82km/h | 5566m | -4.9m/s | -8.4°C | 67% | 521.2hPa | 2.7V | 07:45:32 | 03:01:08 | 00:00:00 | |
| DK7TD | 2026-09-04 07:31:45 | 49.28379 | 9.25872 | 109° | 86km/h | 5617m | -5m/s | -8.7°C | 64% | 517.8hPa | 2.7V | 07:46:23 | 03:00:57 | 00:00:00 | |
| DK7TD | 2026-09-04 07:31:35 | 49.28446 | 9.25564 | 109° | 84km/h | 5664m | -4.8m/s | -9°C | 63.2% | 514.7hPa | 2.6V | 07:46:23 | 03:00:47 | 00:00:00 | |
| DK7TD | 2026-09-04 07:31:24 | 49.28520 | 9.25220 | 108° | 86km/h | 5715m | -4.7m/s | -9.4°C | 63.2% | 511.3hPa | 2.7V | 07:46:23 | 03:00:36 | 00:00:00 | |
| DK7TD | 2026-09-04 07:31:14 | 49.28585 | 9.24914 | 108° | 86km/h | 5762m | -4.4m/s | -9.7°C | 63.9% | 508.4hPa | 2.7V | 07:46:23 | 03:00:26 | 00:00:00 | |
| DK7TD | 2026-09-04 07:31:04 | 49.28643 | 9.24609 | 107° | 80km/h | 5808m | -4.5m/s | -10.2°C | 65.1% | 505.3hPa | 2.6V | 07:46:23 | 03:00:16 | 00:00:00 | |
| DK7TD | 2026-09-04 07:30:53 | 49.28707 | 9.24276 | 107° | 80km/h | 5857m | -4.4m/s | -10.6°C | 65.8% | 502hPa | 2.6V | 07:48:05 | 03:00:05 | 00:00:00 | |
| DF7PN | 2026-09-04 07:30:49 | 49.28740 | 9.24125 | 108° | 80km/h | 5880m | -4.6m/s | -10.8°C | 62.7% | 500.5hPa | 2.7V | 00:00:00 | 00:00:00 | 00:00:00 | |
| DK7TD | 2026-09-04 07:30:42 | 49.28777 | 9.23940 | 107° | 82km/h | 5907m | -4.6m/s | -11°C | 67.1% | 498.7hPa | 2.7V | 07:48:05 | 02:59:54 | 00:00:00 | |
| DK7TD | 2026-09-04 07:30:32 | 49.28837 | 9.23639 | 107° | 82km/h | 5952m | -4.6m/s | -11.2°C | 66.8% | 495.9hPa | 2.7V | 07:48:05 | 02:59:44 | 00:00:00 | |
| DK7TD | 2026-09-04 07:30:21 | 49.28907 | 9.23304 | 110° | 82km/h | 6001m | -4.5m/s | -11.4°C | 58.8% | 492.8hPa | 2.7V | 07:48:05 | 02:59:33 | 00:00:00 | |
| DK7TD | 2026-09-04 07:30:10 | 49.28982 | 9.22959 | 109° | 86km/h | 6049m | -4.4m/s | -11.7°C | 58.2% | 489.6hPa | 2.7V | 07:48:05 | 02:59:22 | 00:00:00 | |
| NBG1-10 | 2026-09-04 07:30:06 | 49.29010 | 9.22835 | 111° | 86km/h | 6067m | -4.4m/s | -11.8°C | 54.1% | 488.5hPa | 2.6V | 07:47:00 | 02:59:18 | 00:00:00 | |
| DO3MHA-11 | 2026-09-04 07:30:05 | 49.29018 | 9.22804 | 109° | 86km/h | 6071m | -4.2m/s | -11.8°C | 53.7% | 488.2hPa | 2.7V | 00:00:00 | 02:59:17 | 00:00:00 | |
| DM0DOS-11 | 2026-09-04 07:30:01 | 49.29080 | 9.22521 | 108° | 84km/h | 6110m | -4.4m/s | -12.1°C | 51.8% | 485.6hPa | 2.7V | 07:47:27 | 02:59:08 | 00:00:00 | |
| DK7TD | 2026-09-04 07:29:59 | 49.29060 | 9.22615 | 108° | 88km/h | 6097m | -4.1m/s | -11.9°C | 53.7% | 486.6hPa | 2.7V | 07:48:05 | 02:59:11 | 00:00:00 | |
| DK7TD | 2026-09-04 07:29:48 | 49.29137 | 9.22273 | 109° | 84km/h | 6145m | -4.3m/s | -12.4°C | 56% | 483.4hPa | 2.7V | 07:48:05 | 02:59:00 | 00:00:00 | |
| DF7PN | 2026-09-04 07:29:47 | 49.29151 | 9.22212 | 110° | 84km/h | 6153m | -4.5m/s | -12.4°C | 51.2% | 482.9hPa | 2.6V | 00:00:00 | 00:00:00 | 00:00:00 | |
| DG9SBQ-11 | 2026-09-04 07:29:46 | 49.29143 | 9.22242 | 110° | 84km/h | 6149m | -4.5m/s | -12.4°C | 51.7% | 483.2hPa | 2.6V | 00:00:00 | 00:00:00 | 00:00:00 | |
| DM0DOS-11 | 2026-09-04 07:29:44 | 49.29173 | 9.22117 | 108° | 88km/h | 6166m | -4.3m/s | -12.6°C | 52.5% | 482.2hPa | 2.6V | 07:47:40 | 02:58:55 | 00:00:00 | |
| DK7TD | 2026-09-04 07:29:37 | 49.29213 | 9.21928 | 107° | 88km/h | 6192m | -4.3m/s | -12.8°C | 55.4% | 480.6hPa | 2.6V | 07:48:05 | 02:58:49 | 00:00:00 | |
| DG9SBQ-11 | 2026-09-04 07:29:36 | 49.29212 | 9.21928 | 108° | 88km/h | 6192m | -4.3m/s | -12.8°C | 51.4% | 480.6hPa | 2.6V | 00:00:00 | 00:00:00 | 00:00:00 | |
| DM0DOS-11 | 2026-09-04 07:29:34 | 49.29237 | 9.21804 | 108° | 84km/h | 6209m | -4.2m/s | -12.9°C | 53.3% | 479.5hPa | 2.6V | 07:47:50 | 02:58:45 | 00:00:00 | |
| DK7TD | 2026-09-04 07:29:25 | 49.29289 | 9.21553 | 106° | 84km/h | 6243m | -4.3m/s | -13.2°C | 56.5% | 477.4hPa | 2.7V | 07:48:05 | 02:58:37 | 00:00:00 | |
| DM0DOS-11 | 2026-09-04 07:29:24 | 49.29301 | 9.21491 | 106° | 82km/h | 6251m | -4.3m/s | -13.3°C | 55% | 476.9hPa | 2.6V | 07:48:00 | 02:58:35 | 00:00:00 | |
| DK7TD | 2026-09-04 07:29:14 | 49.29356 | 9.21207 | 105° | 86km/h | 6289m | -4.3m/s | -13.5°C | 56.3% | 474.4hPa | 2.6V | 07:48:56 | 02:58:26 | 00:00:00 | |
| BIOWL1-15 | 2026-09-04 07:29:12 | 49.29381 | 9.21081 | 108° | 86km/h | 6306m | -4.4m/s | -13.7°C | 55.6% | 473.4hPa | 2.6V | 07:48:56 | 02:58:22 | 00:00:00 | |
| BIOWL1-15 | 2026-09-04 07:28:58 | 49.29452 | 9.20697 | 104° | 84km/h | 6357m | -4.3m/s | -13.9°C | 53.1% | 470.3hPa | 2.7V | 07:48:56 | 02:58:10 | 00:00:00 | |
| DK7TD | 2026-09-04 07:28:56 | 49.29463 | 9.20635 | 106° | 82km/h | 6365m | -4.2m/s | -14°C | 52.4% | 469.7hPa | 2.6V | 07:48:56 | 02:58:08 | 00:00:00 | |
| DM0DOS-11 | 2026-09-04 07:28:54 | 49.29481 | 9.20540 | 105° | 86km/h | 6378m | -4.3m/s | -14.1°C | 50.4% | 468.9hPa | 2.6V | 07:48:30 | 02:58:05 | 00:00:00 | |
| BIOWL1-15 | 2026-09-04 07:28:48 | 49.29509 | 9.20380 | 104° | 86km/h | 6399m | -4.2m/s | -14°C | 47.4% | 467.7hPa | 2.6V | 07:48:56 | 02:58:00 | 00:00:00 | |
| DK7TD | 2026-09-04 07:28:46 | 49.29519 | 9.20317 | 104° | 82km/h | 6407m | -4.2m/s | -14.1°C | 46.6% | 467.2hPa | 2.7V | 07:48:56 | 02:57:58 | 00:00:00 | |
| DM0DOS-11 | 2026-09-04 07:28:44 | 49.29536 | 9.20224 | 104° | 84km/h | 6419m | -4.3m/s | -14°C | 37.6% | 466.3hPa | 2.6V | 07:48:40 | 02:57:55 | 00:00:00 | |
| BIOWL1-15 | 2026-09-04 07:28:39 | 49.29568 | 9.20036 | 103° | 84km/h | 6444m | -4.2m/s | -13.8°C | 31.4% | 464.8hPa | 2.6V | 07:48:56 | 02:57:49 | 00:00:00 | |
| DK7TD | 2026-09-04 07:28:35 | 49.29579 | 9.19973 | 106° | 84km/h | 6453m | -4.1m/s | -13.7°C | 30.4% | 464.3hPa | 2.6V | 07:48:56 | 02:57:47 | 00:00:00 | |
| DM0DOS-11 | 2026-09-04 07:28:34 | 49.29590 | 9.19910 | 104° | 86km/h | 6461m | -4.4m/s | -13.7°C | 28% | 463.8hPa | 2.6V | 07:48:50 | 02:57:45 | 00:00:00 | |
| BIOWL1-15 | 2026-09-04 07:28:26 | 49.29631 | 9.19692 | 105° | 82km/h | 6490m | -4.1m/s | -13.9°C | 30.9% | 462hPa | 2.6V | 07:49:47 | 02:57:38 | 00:00:00 | |
| DB0ND-19 | 2026-09-04 07:28:26 | 49.29631 | 9.19692 | 105° | 80km/h | 6490m | -4.1m/s | -13.9°C | 26.9% | 462.0hPa | 2.6V | 00:00:00 | 00:00:00 | 00:00:00 | |
| DM0DOS-11 | 2026-09-04 07:28:24 | 49.29648 | 9.19599 | 105° | 84km/h | 6503m | -4.3m/s | -14°C | 28.4% | 461.3hPa | 2.6V | 07:49:00 | 02:57:35 | 00:00:00 | |
| DK7TD | 2026-09-04 07:28:24 | 49.29642 | 9.19630 | 107° | 84km/h | 6499m | -4m/s | -14°C | 31% | 461.5hPa | 2.6V | 07:49:47 | 02:57:36 | 00:00:00 | |
| BIOWL1-15 | 2026-09-04 07:28:16 | 49.29689 | 9.19374 | 103° | 88km/h | 6532m | -4.2m/s | -14.2°C | 31.6% | 459.5hPa | 2.6V | 07:49:47 | 02:57:28 | 00:00:00 | |
| DM0DOS-11 | 2026-09-04 07:28:14 | 49.29705 | 9.19278 | 105° | 86km/h | 6544m | -4.3m/s | -14.3°C | 29.1% | 458.8hPa | 2.6V | 07:49:10 | 02:57:25 | 00:00:00 | |
| DK7TD | 2026-09-04 07:28:13 | 49.29704 | 9.19278 | 105° | 86km/h | 6544m | -4.3m/s | -14.3°C | 31.7% | 458.8hPa | 2.6V | 07:49:47 | 02:57:25 | 00:00:00 | |
| BIOWL1-15 | 2026-09-04 07:28:05 | 49.29749 | 9.19018 | 104° | 86km/h | 6577m | -4.3m/s | -14.3°C | 28.6% | 456.7hPa | 2.6V | 07:49:47 | 02:57:17 | 00:00:00 | |
| DK7TD | 2026-09-04 07:28:03 | 49.29760 | 9.18954 | 106° | 86km/h | 6586m | -4.3m/s | -14.4°C | 28.2% | 456.2hPa | 2.6V | 07:49:47 | 02:57:15 | 00:00:00 | |
| BIOWL1-15 | 2026-09-04 07:27:56 | 49.29810 | 9.18662 | 104° | 86km/h | 6623m | -4.5m/s | -14.6°C | 28.9% | 453.9hPa | 2.6V | 07:49:47 | 02:57:06 | 00:00:00 | |
| DK7TD | 2026-09-04 07:27:52 | 49.29822 | 9.18598 | 106° | 86km/h | 6632m | -4.2m/s | -14.6°C | 28.7% | 453.5hPa | 2.6V | 07:49:47 | 02:57:04 | 00:00:00 | |
| NBG1-10 | 2026-09-04 07:27:51 | 49.29827 | 9.18566 | 106° | 89km/h | 6636m | -4.3m/s | -14.6°C | 25.8% | 453.2hPa | 2.6V | 00:00:00 | 02:57:03 | 00:00:00 | |
| SFWM-10 | 2026-09-04 07:27:48 | 49.29839 | 9.18500 | 106° | 86km/h | 6644m | -4.0m/s | -14.7°C | 24.1% | 452.7hPa | 2.6V | 07:49:00 | 00:00:00 | 00:00:00 | |
| DM0DOS-11 | 2026-09-04 07:27:44 | 49.29888 | 9.18240 | 105° | 88km/h | 6677m | -4.4m/s | -14.8°C | 26.1% | 450.7hPa | 2.6V | 07:49:42 | 02:56:53 | 00:00:00 | |
| BIOWL1-15 | 2026-09-04 07:27:43 | 49.29876 | 9.18306 | 105° | 88km/h | 6669m | -4.1m/s | -14.8°C | 28.4% | 451.2hPa | 2.6V | 07:49:47 | 02:56:55 | 00:00:00 | |
| DK7TD | 2026-09-04 07:27:41 | 49.29888 | 9.18240 | 106° | 88km/h | 6677m | -4.4m/s | -14.8°C | 28.7% | 450.7hPa | 2.6V | 07:49:47 | 02:56:53 | 00:00:00 | |
| DO3MHA-11 | 2026-09-04 07:27:41 | 49.29888 | 9.18240 | 106° | 88km/h | 6677m | -4.3m/s | -14.8°C | 26.1% | 450.7hPa | 2.6V | 07:49:00 | 02:56:53 | 00:00:00 | |
| DH7VM-15 | 2026-09-04 07:27:39 | 49.29894 | 9.18207 | 107° | 91km/h | 6682m | -4.2m/s | -14.9°C | 25.3% | 450.5hPa | 2.6V | 00:00:00 | 00:00:00 | 00:00:00 | |
| DF1GD-15 | 2026-09-04 07:27:37 | 49.29905 | 9.18139 | 104° | 89km/h | 6690m | -4.3m/s | -14.8°C | 25.4% | 450.0hPa | 2.6V | 07:49:00 | 00:00:00 | 00:00:00 | |
| DL1ZP-14 | 2026-09-04 07:27:36 | 49.29916 | 9.18073 | 105° | 86km/h | 6698m | -4.4m/s | -14.9°C | 24.1% | 449.5hPa | 2.6V | 00:00:00 | 00:00:00 | 00:00:00 | |
| DL0LBS | 2026-09-04 07:27:35 | 49.29916 | 9.18073 | 106° | 88km/h | 6699m | -4.4m/s | -14.9°C | 24.1% | 449.5hPa | 2.6V | 07:49:00 | 00:00:00 | 00:00:00 | |
| DM0DOS-11 | 2026-09-04 07:27:34 | 49.29945 | 9.17910 | 106° | 88km/h | 6721m | -4.3m/s | -14.9°C | 24.7% | 448.2hPa | 2.6V | 07:49:52 | 02:56:43 | 00:00:00 | |
| BIOWL1-15 | 2026-09-04 07:27:34 | 49.29939 | 9.17943 | 106° | 86km/h | 6716m | -4.6m/s | -14.9°C | 27.2% | 448.5hPa | 2.6V | 07:50:38 | 02:56:44 | 00:00:00 | |
| DK7TD | 2026-09-04 07:27:31 | 49.29945 | 9.17910 | 107° | 88km/h | 6721m | -4.3m/s | -14.9°C | 27.2% | 448.2hPa | 2.6V | 07:50:38 | 02:56:43 | 00:00:00 | |
| DO3MHA-11 | 2026-09-04 07:27:31 | 49.29945 | 9.17910 | 107° | 89km/h | 6721m | -4.3m/s | -14.9°C | 24.7% | 448.1hPa | 2.6V | 00:00:00 | 02:56:43 | 00:00:00 | |
| BIOWL9-15 | 2026-09-04 07:27:27 | 49.29968 | 9.17775 | 103° | 88km/h | 6737m | -4.4m/s | 0°C | -1.0% | -1.0hPa | 2.6V | 00:00:00 | 00:00:00 | 00:00:00 | |
| DF3TZ-5 | 2026-09-04 07:27:26 | 49.29985 | 9.17675 | 103° | 89km/h | 6750m | -4.5m/s | -14.9°C | 21.6% | 446.4hPa | 2.6V | 00:00:00 | 00:00:00 | 00:00:00 | |
| DM0DOS-11 | 2026-09-04 07:27:24 | 49.30001 | 9.17574 | 105° | 89km/h | 6763m | -4.1m/s | -14.9°C | 22.2% | 445.7hPa | 2.6V | 07:50:02 | 02:56:33 | 00:00:00 | |
| BIOWL1-15 | 2026-09-04 07:27:24 | 49.29995 | 9.17607 | 104° | 89km/h | 6759m | -4.6m/s | -14.9°C | 24.9% | 445.9hPa | 2.6V | 07:50:38 | 02:56:34 | 00:00:00 | |
| DK7TD | 2026-09-04 07:27:21 | 49.30001 | 9.17574 | 106° | 89km/h | 6763m | -4.1m/s | -14.9°C | 24.8% | 445.7hPa | 2.6V | 07:50:38 | 02:56:33 | 00:00:00 | |
| DO3MHA-11 | 2026-09-04 07:27:21 | 49.30001 | 9.17574 | 106° | 91km/h | 6764m | -4.0m/s | -14.9°C | 22.2% | 445.6hPa | 2.6V | 00:00:00 | 02:56:33 | 00:00:00 | |
| NBG1-10 | 2026-09-04 07:27:18 | 49.30019 | 9.17472 | 105° | 91km/h | 6776m | -4.4m/s | -14.9°C | 22.2% | 444.9hPa | 2.6V | 00:00:00 | 02:56:30 | 00:00:00 | |
| DM7RM-13 | 2026-09-04 07:27:15 | 49.30031 | 9.17404 | 107° | 91km/h | 6785m | -4.8m/s | -15.1°C | 21.3% | 444.4hPa | 2.6V | 07:50:00 | 00:00:00 | 00:00:00 | |
| DM0DOS-11 | 2026-09-04 07:27:14 | 49.30060 | 9.17230 | 102° | 89km/h | 6806m | -4.4m/s | -15.2°C | 22% | 443.1hPa | 2.6V | 07:50:12 | 02:56:23 | 00:00:00 | |
| BIOWL1-15 | 2026-09-04 07:27:11 | 49.30060 | 9.17230 | 103° | 89km/h | 6806m | -4.4m/s | -15.2°C | 24.6% | 443.1hPa | 2.6V | 07:50:38 | 02:56:23 | 00:00:00 | |
| DK7TD | 2026-09-04 07:27:10 | 49.30065 | 9.17196 | 104° | 89km/h | 6811m | -4.4m/s | -15.2°C | 24.5% | 442.8hPa | 2.6V | 07:50:38 | 02:56:22 | 00:00:00 | |
| DB0NH | 2026-09-04 07:27:07 | 49.30083 | 9.17095 | 105° | 93km/h | 6824m | -4.4m/s | -15.2°C | 21.6% | 442.0hPa | 2.6V | 00:00:00 | 02:56:19 | 00:00:00 | |
| DL1ZP-14 | 2026-09-04 07:27:05 | 49.30094 | 9.17026 | 103° | 89km/h | 6832m | -4.2m/s | -15.4°C | 20.6% | 441.6hPa | 2.6V | 00:00:00 | 00:00:00 | 00:00:00 | |
| DM0DOS-11 | 2026-09-04 07:27:04 | 49.30117 | 9.16885 | 102° | 95km/h | 6850m | -4.5m/s | -15.5°C | 21.5% | 440.6hPa | 2.5V | 07:50:22 | 02:56:13 | 00:00:00 | |
| BIOWL1-15 | 2026-09-04 07:27:00 | 49.30123 | 9.16850 | 103° | 93km/h | 6854m | -4.3m/s | -15.5°C | 24.1% | 440.3hPa | 2.6V | 07:50:38 | 02:56:12 | 00:00:00 | |
| DK7TD | 2026-09-04 07:26:59 | 49.30128 | 9.16815 | 104° | 91km/h | 6858m | -4.4m/s | -15.6°C | 24.2% | 440hPa | 2.6V | 07:50:38 | 02:56:11 | 00:00:00 | |
| DF3TZ-5 | 2026-09-04 07:26:55 | 49.30155 | 9.16643 | 102° | 88km/h | 6880m | -4.6m/s | -15.8°C | 20.8% | 438.8hPa | 2.6V | 00:00:00 | 00:00:00 | 00:00:00 | |
| DM0DOS-11 | 2026-09-04 07:26:54 | 49.30182 | 9.16470 | 101° | 91km/h | 6903m | -4.5m/s | -15.9°C | 22.1% | 437.5hPa | 2.6V | 07:50:34 | 02:56:01 | 00:00:00 | |
| BIOWL1-15 | 2026-09-04 07:26:51 | 49.30181 | 9.16470 | 101° | 91km/h | 6903m | -4.5m/s | -15.9°C | 24.6% | 437.5hPa | 2.6V | 07:50:38 | 02:56:01 | 00:00:00 | |
| DK7TD | 2026-09-04 07:26:48 | 49.30186 | 9.16435 | 102° | 91km/h | 6907m | -4.5m/s | -16°C | 24.6% | 437.2hPa | 2.6V | 07:50:38 | 02:56:00 | 00:00:00 | |
| NBG1-10 | 2026-09-04 07:26:45 | 49.30202 | 9.16330 | 103° | 91km/h | 6920m | -4.3m/s | -16.0°C | 22.4% | 436.5hPa | 2.6V | 00:00:00 | 02:55:57 | 00:00:00 | |
| DM0DOS-11 | 2026-09-04 07:26:44 | 49.30235 | 9.16123 | 103° | 91km/h | 6948m | -4.4m/s | -16.3°C | 23.5% | 434.9hPa | 2.6V | 07:50:44 | 02:55:51 | 00:00:00 | |
| DK7TD | 2026-09-04 07:26:38 | 49.30241 | 9.16089 | 105° | 91km/h | 6952m | -4.3m/s | -16.4°C | 26.3% | 434.6hPa | 2.6V | 07:51:29 | 02:55:50 | 00:00:00 | |
| DB0NH | 2026-09-04 07:26:37 | 49.30247 | 9.16054 | 106° | 89km/h | 6956m | -4.4m/s | -16.3°C | 24.0% | 434.4hPa | 2.6V | 00:00:00 | 02:55:49 | 00:00:00 | |
| DF2AP-13 | 2026-09-04 07:26:35 | 49.30259 | 9.15984 | 104° | 91km/h | 6965m | -4.2m/s | -16.4°C | 24.1% | 433.8hPa | 2.6V | 00:00:00 | 02:55:47 | 00:00:00 | |
| DM0DOS-11 | 2026-09-04 07:26:34 | 49.30293 | 9.15779 | 106° | 91km/h | 6992m | -4.5m/s | -16.7°C | 25% | 432.4hPa | 2.6V | 07:50:54 | 02:55:41 | 00:00:00 | |
| BIOWL1-15 | 2026-09-04 07:26:28 | 49.30300 | 9.15745 | 106° | 91km/h | 6996m | -4.6m/s | -16.7°C | 27.5% | 432.1hPa | 2.6V | 07:51:29 | 02:55:40 | 00:00:00 | |
| DG9SBQ-11 | 2026-09-04 07:26:26 | 49.30306 | 9.15710 | 107° | 89km/h | 7001m | -4.4m/s | -16.7°C | 24.0% | 431.8hPa | 2.6V | 07:51:00 | 00:00:00 | 00:00:00 | |
| SFWM-10 | 2026-09-04 07:26:25 | 49.30312 | 9.15677 | 107° | 91km/h | 7005m | -4.5m/s | -16.8°C | 24.0% | 431.6hPa | 2.6V | 07:51:00 | 00:00:00 | 00:00:00 | |
| DM0DOS-11 | 2026-09-04 07:26:24 | 49.30355 | 9.15436 | 104° | 91km/h | 7037m | -4.7m/s | -17°C | 25.4% | 429.8hPa | 2.6V | 07:51:04 | 02:55:31 | 00:00:00 | |
| BIOWL1-15 | 2026-09-04 07:26:17 | 49.30365 | 9.15367 | 103° | 89km/h | 7046m | -4.4m/s | -17.1°C | 27.3% | 429.3hPa | 2.5V | 07:51:29 | 02:55:29 | 00:00:00 | |
| DG9SBQ-11 | 2026-09-04 07:26:15 | 49.30370 | 9.15334 | 105° | 88km/h | 7051m | -4.4m/s | -17.1°C | 23.9% | 429.0hPa | 2.5V | 07:51:00 | 00:00:00 | 00:00:00 | |
| DM0DOS-11 | 2026-09-04 07:26:14 | 49.30412 | 9.15102 | 105° | 89km/h | 7082m | -4.4m/s | -17.2°C | 21.7% | 427.2hPa | 2.5V | 07:51:14 | 02:55:21 | 00:00:00 | |
| BIOWL1-15 | 2026-09-04 07:26:07 | 49.30423 | 9.15034 | 103° | 89km/h | 7091m | -4.6m/s | -17.2°C | 22.2% | 426.7hPa | 2.6V | 07:51:29 | 02:55:19 | 00:00:00 | |
| DK7TD | 2026-09-04 07:26:06 | 49.30428 | 9.15001 | 103° | 88km/h | 7096m | -4.5m/s | -17.1°C | 21.5% | 426.4hPa | 2.6V | 07:51:29 | 02:55:18 | 00:00:00 | |
| DF2AP-13 | 2026-09-04 07:26:05 | 49.30432 | 9.14968 | 104° | 86km/h | 7101m | -4.5m/s | -17.1°C | 19.1% | 426.2hPa | 2.5V | 00:00:00 | 02:55:17 | 00:00:00 | |
| DM0DOS-11 | 2026-09-04 07:26:04 | 49.30463 | 9.14770 | 104° | 86km/h | 7128m | -4.6m/s | -17.2°C | 17% | 424.7hPa | 2.5V | 07:51:24 | 02:55:11 | 00:00:00 | |
| BIOWL1-15 | 2026-09-04 07:25:56 | 49.30479 | 9.14671 | 103° | 88km/h | 7141m | -4.6m/s | -17.3°C | 18.4% | 423.9hPa | 2.6V | 07:51:29 | 02:55:08 | 00:00:00 | |
| BIOWL1-15 | 2026-09-04 07:25:48 | 49.30536 | 9.14350 | 106° | 88km/h | 7187m | -4.6m/s | -17.3°C | 14.4% | 421.3hPa | 2.5V | 07:52:20 | 02:54:58 | 00:00:00 | |
| DK7TD | 2026-09-04 07:25:45 | 49.30542 | 9.14318 | 104° | 88km/h | 7192m | -4.7m/s | -17.3°C | 14.2% | 421hPa | 2.5V | 07:52:20 | 02:54:57 | 00:00:00 | |
| DM0DOS-11 | 2026-09-04 07:25:44 | 49.30574 | 9.14127 | 105° | 86km/h | 7219m | -4.6m/s | -17.3°C | 12.2% | 419.5hPa | 2.5V | 07:51:44 | 02:54:51 | 00:00:00 | |
| BIOWL1-15 | 2026-09-04 07:25:35 | 49.30594 | 9.14001 | 103° | 82km/h | 7237m | -4.6m/s | -17.3°C | 12% | 418.4hPa | 2.6V | 07:52:20 | 02:54:47 | 00:00:00 | |
| DF2AP-13 | 2026-09-04 07:25:35 | 49.30593 | 9.14001 | 104° | 80km/h | 7237m | -4.6m/s | -17.3°C | 11.0% | 418.4hPa | 2.6V | 00:00:00 | 02:54:47 | 00:00:00 | |
| DM0DOS-11 | 2026-09-04 07:25:34 | 49.30622 | 9.13817 | 106° | 80km/h | 7266m | -4.6m/s | -17.5°C | 10.8% | 416.8hPa | 2.6V | 07:51:54 | 02:54:41 | 00:00:00 | |
| DK7TD | 2026-09-04 07:25:34 | 49.30598 | 9.13970 | 103° | 84km/h | 7242m | -4.8m/s | -17.3°C | 11.8% | 418.1hPa | 2.6V | 07:52:20 | 02:54:46 | 00:00:00 | |
| BIOWL1-15 | 2026-09-04 07:25:25 | 49.30643 | 9.13692 | 102° | 82km/h | 7284m | -4.7m/s | -17.6°C | 11.4% | 415.9hPa | 2.5V | 07:52:20 | 02:54:37 | 00:00:00 | |
| DM0DOS-11 | 2026-09-04 07:25:24 | 49.30672 | 9.13510 | 102° | 78km/h | 7312m | -4.8m/s | -17.7°C | 9.2% | 414.2hPa | 2.5V | 07:52:04 | 02:54:31 | 00:00:00 | |
| DK7TD | 2026-09-04 07:25:23 | 49.30652 | 9.13631 | 105° | 80km/h | 7293m | -4.7m/s | -17.7°C | 10.7% | 415.3hPa | 2.6V | 07:52:20 | 02:54:35 | 00:00:00 | |
| BIOWL1-15 | 2026-09-04 07:25:19 | 49.30692 | 9.13394 | 105° | 80km/h | 7331m | -4.8m/s | -17.9°C | 9.8% | 413.3hPa | 2.6V | 07:52:20 | 02:54:27 | 00:00:00 | |
| DK7TD | 2026-09-04 07:25:13 | 49.30702 | 9.13334 | 102° | 78km/h | 7340m | -4.9m/s | -17.9°C | 9.9% | 412.7hPa | 2.6V | 07:52:20 | 02:54:25 | 00:00:00 | |
| BIOWL1-15 | 2026-09-04 07:25:07 | 49.30738 | 9.13102 | 105° | 75km/h | 7378m | -4.8m/s | -18.3°C | 10.4% | 410.6hPa | 2.5V | 07:52:20 | 02:54:17 | 00:00:00 | |
| DB0NH | 2026-09-04 07:25:07 | 49.30729 | 9.13159 | 103° | 77km/h | 7369m | -4.8m/s | -18.2°C | 9.6% | 411.1hPa | 2.6V | 07:52:00 | 02:54:19 | 00:00:00 | |
| NBG1-10 | 2026-09-04 07:25:06 | 49.30733 | 9.13130 | 103° | 77km/h | 7373m | -4.6m/s | -18.2°C | 9.6% | 410.9hPa | 2.6V | 00:00:00 | 02:54:18 | 00:00:00 | |
| DF2AP-13 | 2026-09-04 07:25:05 | 49.30738 | 9.13102 | 105° | 77km/h | 7378m | -4.8m/s | -18.2°C | 9.7% | 410.6hPa | 2.5V | 07:52:00 | 02:54:17 | 00:00:00 | |
| DM0DOS-11 | 2026-09-04 07:25:04 | 49.30768 | 9.12931 | 105° | 75km/h | 7406m | -4.6m/s | -18.5°C | 9.9% | 409.1hPa | 2.5V | 07:52:24 | 02:54:11 | 00:00:00 | |
| DK7TD | 2026-09-04 07:25:02 | 49.30753 | 9.13017 | 105° | 78km/h | 7392m | -4.8m/s | -18.4°C | 10.5% | 409.9hPa | 2.6V | 07:53:11 | 02:54:14 | 00:00:00 | |
| BIOWL1-15 | 2026-09-04 07:24:54 | 49.30793 | 9.12788 | 104° | 75km/h | 7430m | -4.6m/s | -18.7°C | 11.1% | 407.8hPa | 2.5V | 07:53:11 | 02:54:06 | 00:00:00 | |
| DM0DOS-11 | 2026-09-04 07:24:53 | 49.30826 | 9.12615 | 104° | 78km/h | 7458m | -4.5m/s | -18.9°C | 11% | 406.2hPa | 2.6V | 07:52:35 | 02:54:00 | 00:00:00 | |
| BIOWL9-15 | 2026-09-04 07:24:52 | 49.30803 | 9.12732 | 107° | 75km/h | 7439m | -5.1m/s | -18.8°C | 9.7% | 407.3hPa | 2.6V | 00:00:00 | 00:00:00 | 00:00:00 | |
| DK7TD | 2026-09-04 07:24:52 | 49.30803 | 9.12732 | 108° | 75km/h | 7439m | -5.1m/s | -18.8°C | 11.3% | 407.3hPa | 2.6V | 07:53:11 | 02:54:04 | 00:00:00 | |
| DF3TZ-5 | 2026-09-04 07:24:51 | 49.30815 | 9.12675 | 106° | 78km/h | 7449m | -4.7m/s | -18.8°C | 10.1% | 406.8hPa | 2.6V | 00:00:00 | 00:00:00 | 00:00:00 | |
| DB0ND-19 | 2026-09-04 07:24:49 | 49.30821 | 9.12645 | 105° | 78km/h | 7453m | -4.7m/s | -18.8°C | 10.1% | 406.5hPa | 2.6V | 00:00:00 | 00:00:00 | 00:00:00 | |
| BIOWL1-15 | 2026-09-04 07:24:43 | 49.30852 | 9.12469 | 104° | 78km/h | 7482m | -4.7m/s | -19.1°C | 12.6% | 404.9hPa | 2.6V | 07:53:11 | 02:53:55 | 00:00:00 | |
| DK7TD | 2026-09-04 07:24:34 | 49.30896 | 9.12213 | 104° | 73km/h | 7525m | -4.8m/s | -19.4°C | 14.4% | 402.6hPa | 2.6V | 07:53:11 | 02:53:46 | 00:00:00 | |
| DM0DOS-11 | 2026-09-04 07:24:33 | 49.30923 | 9.12043 | 101° | 73km/h | 7554m | -4.7m/s | -19.7°C | 13.3% | 401hPa | 2.6V | 07:52:55 | 02:53:40 | 00:00:00 | |
| BIOWL1-15 | 2026-09-04 07:24:31 | 49.30911 | 9.12129 | 104° | 78km/h | 7539m | -4.6m/s | -19.6°C | 14.6% | 401.8hPa | 2.5V | 07:53:11 | 02:53:43 | 00:00:00 | |
| DO3MHA-11 | 2026-09-04 07:24:31 | 49.30911 | 9.12129 | 105° | 75km/h | 7540m | -4.5m/s | -19.5°C | 13.2% | 401.8hPa | 2.6V | 00:00:00 | 02:53:43 | 00:00:00 | |
| DL1ZP-14 | 2026-09-04 07:24:30 | 49.30915 | 9.12100 | 101° | 77km/h | 7544m | -5.0m/s | -19.6°C | 12.2% | 401.6hPa | 2.6V | 00:00:00 | 00:00:00 | 00:00:00 | |
| DH7VM-15 | 2026-09-04 07:24:26 | 49.30927 | 9.12016 | 105° | 73km/h | 7558m | -4.8m/s | -19.7°C | 12.4% | 400.8hPa | 2.6V | 00:00:00 | 00:00:00 | 00:00:00 | |
| DG9SBQ-11 | 2026-09-04 07:24:24 | 49.30936 | 9.11960 | 105° | 77km/h | 7568m | -4.9m/s | -19.8°C | 12.7% | 400.2hPa | 2.6V | 07:53:00 | 00:00:00 | 00:00:00 | |
| DM0DOS-11 | 2026-09-04 07:24:23 | 49.30967 | 9.11759 | 102° | 80km/h | 7602m | -5.1m/s | -20°C | 13.9% | 398.4hPa | 2.6V | 07:53:05 | 02:53:30 | 00:00:00 | |
| DK7TD | 2026-09-04 07:24:23 | 49.30945 | 9.11902 | 102° | 77km/h | 7578m | -4.9m/s | -19.9°C | 15.3% | 399.8hPa | 2.6V | 07:53:11 | 02:53:35 | 00:00:00 | |
| BIOWL1-15 | 2026-09-04 07:24:20 | 49.30957 | 9.11818 | 105° | 77km/h | 7592m | -4.9m/s | -20°C | 15.3% | 398.9hPa | 2.5V | 07:53:11 | 02:53:32 | 00:00:00 | |
| DK7TD | 2026-09-04 07:24:12 | 49.30991 | 9.11588 | 106° | 77km/h | 7631m | -5m/s | -20.3°C | 15.6% | 396.9hPa | 2.6V | 07:53:11 | 02:53:24 | 00:00:00 | |
| BIOWL1-15 | 2026-09-04 07:24:09 | 49.31005 | 9.11498 | 101° | 78km/h | 7645m | -5m/s | -20.4°C | 15.5% | 396.1hPa | 2.5V | 07:54:53 | 02:53:21 | 00:00:00 | |
| DK7TD | 2026-09-04 07:24:02 | 49.31036 | 9.11292 | 101° | 80km/h | 7680m | -5.2m/s | -20.7°C | 14.8% | 394.2hPa | 2.5V | 07:54:02 | 02:53:14 | 00:00:00 | |
| DM0DOS-11 | 2026-09-04 07:24:01 | 49.31060 | 9.11120 | 104° | 80km/h | 7709m | -5m/s | -20.9°C | 12.3% | 392.7hPa | 2.6V | 07:53:27 | 02:53:08 | 00:00:00 | |
| BIOWL1-15 | 2026-09-04 07:24:00 | 49.31050 | 9.11177 | 104° | 73km/h | 7699m | -5m/s | -20.8°C | 14.2% | 393.2hPa | 2.5V | 07:54:53 | 02:53:10 | 00:00:00 | |
| DL1ZP-14 | 2026-09-04 07:23:59 | 49.31050 | 9.11177 | 103° | 73km/h | 7699m | -5.0m/s | -20.8°C | 11.9% | 393.2hPa | 2.5V | 00:00:00 | 00:00:00 | 00:00:00 | |
| DG9SBQ-11 | 2026-09-04 07:23:57 | 49.31050 | 9.11177 | 105° | 73km/h | 7699m | -5.0m/s | -20.8°C | 11.8% | 393.2hPa | 2.5V | 07:54:00 | 00:00:00 | 00:00:00 | |
| DM0DOS-11 | 2026-09-04 07:23:51 | 49.31103 | 9.10825 | 100° | 78km/h | 7758m | -4.9m/s | -21.3°C | 13.6% | 390.2hPa | 2.5V | 07:53:37 | 02:52:58 | 00:00:00 | |
| DK7TD | 2026-09-04 07:23:51 | 49.31079 | 9.10971 | 103° | 73km/h | 7734m | -4.8m/s | -21.1°C | 14.1% | 391.4hPa | 2.5V | 07:54:02 | 02:53:03 | 00:00:00 | |
| BIOWL1-15 | 2026-09-04 07:23:48 | 49.31106 | 9.10796 | 100° | 75km/h | 7763m | -4.9m/s | -21.4°C | 15.4% | 389.9hPa | 2.6V | 07:54:53 | 02:52:57 | 00:00:00 | |
| DB0ND-19 | 2026-09-04 07:23:47 | 49.31099 | 9.10855 | 102° | 78km/h | 7754m | -5.0m/s | -21.3°C | 12.5% | 390.4hPa | 2.6V | 00:00:00 | 00:00:00 | 00:00:00 | |
| DG9SBQ-11 | 2026-09-04 07:23:45 | 49.31103 | 9.10825 | 101° | 78km/h | 7758m | -4.9m/s | -21.3°C | 12.6% | 390.2hPa | 2.6V | 07:54:00 | 00:00:00 | 00:00:00 | |
| DK5PH-5 | 2026-09-04 07:23:44 | 49.31109 | 9.10768 | 102° | 77km/h | 7768m | -4.7m/s | -21.4°C | 14.0% | 389.6hPa | 2.6V | 00:00:00 | 02:52:56 | 00:00:00 | |
| DM0DOS-11 | 2026-09-04 07:23:41 | 49.31145 | 9.10539 | 100° | 75km/h | 7807m | -5.3m/s | -21.8°C | 15% | 387.5hPa | 2.5V | 07:53:47 | 02:52:48 | 00:00:00 | |
| DK7TD | 2026-09-04 07:23:40 | 49.31129 | 9.10657 | 106° | 78km/h | 7788m | -5m/s | -21.6°C | 16.1% | 388.6hPa | 2.5V | 07:54:02 | 02:52:52 | 00:00:00 | |
| BIOWL1-15 | 2026-09-04 07:23:37 | 49.31142 | 9.10568 | 100° | 77km/h | 7803m | -4.8m/s | -21.7°C | 16.7% | 387.8hPa | 2.6V | 07:54:53 | 02:52:49 | 00:00:00 | |
| AZAK | 2026-09-04 07:23:36 | 49.31142 | 9.10568 | 101° | 77km/h | 7803m | -4.8m/s | -21.7°C | 13.9% | 387.8hPa | 2.6V | 00:00:00 | 00:00:00 | 00:00:00 | |
| DB0NH | 2026-09-04 07:23:35 | 49.31149 | 9.10511 | 103° | 78km/h | 7813m | -4.7m/s | -21.8°C | 15.2% | 387.2hPa | 2.6V | 00:00:00 | 02:52:47 | 00:00:00 | |
| DF7PN | 2026-09-04 07:23:34 | 49.31154 | 9.10483 | 104° | 75km/h | 7817m | -5.1m/s | -21.9°C | 14.1% | 387.1hPa | 2.6V | 00:00:00 | 00:00:00 | 00:00:00 | |
| DM0DOS-11 | 2026-09-04 07:23:31 | 49.31189 | 9.10255 | 106° | 78km/h | 7857m | -5m/s | -22.2°C | 15.6% | 385hPa | 2.6V | 07:53:57 | 02:52:38 | 00:00:00 | |
| DK7TD | 2026-09-04 07:23:30 | 49.31171 | 9.10366 | 101° | 75km/h | 7837m | -5.1m/s | -22°C | 17.2% | 386.1hPa | 2.5V | 07:54:02 | 02:52:42 | 00:00:00 | |
| BIOWL1-15 | 2026-09-04 07:23:27 | 49.31184 | 9.10284 | 106° | 75km/h | 7852m | -4.9m/s | -22.1°C | 17.3% | 385.2hPa | 2.6V | 07:54:53 | 02:52:39 | 00:00:00 | |
| NBG1-10 | 2026-09-04 07:23:26 | 49.31189 | 9.10255 | 107° | 78km/h | 7857m | -4.9m/s | -22.1°C | 15.6% | 384.9hPa | 2.6V | 00:00:00 | 02:52:38 | 00:00:00 | |
| CB1BUN | 2026-09-04 07:23:23 | 49.31199 | 9.10195 | 103° | 82km/h | 7867m | -5.0m/s | -22.3°C | 14.6% | 384.4hPa | 2.5V | 07:54:00 | 00:00:00 | 00:00:00 | |
| DH7VM-15 | 2026-09-04 07:23:22 | 49.31204 | 9.10164 | 102° | 80km/h | 7872m | -5.1m/s | -22.3°C | 14.7% | 384.1hPa | 2.5V | 00:00:00 | 00:00:00 | 00:00:00 | |
| DM0DOS-11 | 2026-09-04 07:23:21 | 49.31237 | 9.09959 | 104° | 82km/h | 7906m | -5.1m/s | -22.6°C | 15.7% | 382.3hPa | 2.5V | 07:54:07 | 02:52:28 | 00:00:00 | |
| DK7TD | 2026-09-04 07:23:20 | 49.31220 | 9.10047 | 106° | 77km/h | 7892m | -4.8m/s | -22.5°C | 17.9% | 383.1hPa | 2.6V | 07:54:53 | 02:52:31 | 00:00:00 | |
| BIOWL1-15 | 2026-09-04 07:23:19 | 49.31232 | 9.09989 | 107° | 80km/h | 7901m | -5.2m/s | -22.6°C | 17.7% | 382.6hPa | 2.6V | 07:54:53 | 02:52:29 | 00:00:00 | |
| BIOWL9-15 | 2026-09-04 07:23:19 | 49.31232 | 9.09989 | 107° | 80km/h | 7901m | -5.2m/s | -22.6°C | 14.6% | 382.6hPa | 2.5V | 00:00:00 | 00:00:00 | 00:00:00 | |
| DF3TZ-5 | 2026-09-04 07:23:18 | 49.31232 | 9.09989 | 107° | 80km/h | 7901m | -5.2m/s | -22.6°C | 14.6% | 382.6hPa | 2.5V | 00:00:00 | 00:00:00 | 00:00:00 | |
| DB0ND-19 | 2026-09-04 07:23:16 | 49.31238 | 9.09959 | 104° | 82km/h | 7906m | -5.1m/s | -22.6°C | 14.5% | 382.3hPa | 2.5V | 00:00:00 | 00:00:00 | 00:00:00 | |
| DG9SBQ-11 | 2026-09-04 07:23:15 | 49.31237 | 9.09959 | 105° | 82km/h | 7907m | -5.1m/s | -22.6°C | 14.5% | 382.3hPa | 2.5V | 07:54:00 | 00:00:00 | 00:00:00 | |
| DK5PH-5 | 2026-09-04 07:23:14 | 49.31246 | 9.09897 | 101° | 78km/h | 7917m | -4.8m/s | -22.6°C | 15.5% | 381.8hPa | 2.5V | 00:00:00 | 02:52:26 | 00:00:00 | |
| DB0UT-7 | 2026-09-04 07:23:13 | 49.31250 | 9.09867 | 101° | 78km/h | 7921m | -5.1m/s | -22.7°C | 15.3% | 381.5hPa | 2.5V | 00:00:00 | 02:52:25 | 00:00:00 | |
| DM0DOS-11 | 2026-09-04 07:23:11 | 49.31282 | 9.09660 | 101° | 80km/h | 7956m | -5.1m/s | -23°C | 13% | 379.7hPa | 2.5V | 07:54:17 | 02:52:18 | 00:00:00 | |
| DK7TD | 2026-09-04 07:23:08 | 49.31273 | 9.09721 | 105° | 82km/h | 7946m | -5.1m/s | -22.9°C | 14.7% | 380.3hPa | 2.6V | 07:54:53 | 02:52:20 | 00:00:00 | |
| BIOWL1-15 | 2026-09-04 07:23:08 | 49.31282 | 9.09660 | 102° | 80km/h | 7956m | -5.1m/s | -23°C | 14.5% | 379.8hPa | 2.5V | 07:54:53 | 02:52:18 | 00:00:00 | |
| DB0NH | 2026-09-04 07:23:05 | 49.31286 | 9.09630 | 103° | 78km/h | 7961m | -4.9m/s | -23.0°C | 13.1% | 379.4hPa | 2.5V | 00:00:00 | 02:52:17 | 00:00:00 | |
| DF7PN | 2026-09-04 07:23:03 | 49.31296 | 9.09573 | 106° | 77km/h | 7971m | -5.0m/s | -23.1°C | 11.9% | 378.9hPa | 2.6V | 00:00:00 | 00:00:00 | 00:00:00 | |
| CB1BUN | 2026-09-04 07:23:02 | 49.31296 | 9.09573 | 108° | 77km/h | 7971m | -5.0m/s | -23.1°C | 11.9% | 378.9hPa | 2.6V | 07:54:00 | 00:00:00 | 00:00:00 | |
| DM0DOS-11 | 2026-09-04 07:23:01 | 49.31330 | 9.09362 | 101° | 75km/h | 8007m | -5.3m/s | -23.4°C | 13.5% | 377.1hPa | 2.6V | 07:54:27 | 02:52:08 | 00:00:00 | |
| DK7TD | 2026-09-04 07:22:57 | 49.31327 | 9.09391 | 101° | 77km/h | 8002m | -5.1m/s | -23.4°C | 14.8% | 377.3hPa | 2.6V | 07:54:53 | 02:52:09 | 00:00:00 | |
| BIOWL1-15 | 2026-09-04 07:22:56 | 49.31330 | 9.09362 | 102° | 75km/h | 8007m | -5.3m/s | -23.4°C | 15.2% | 377.1hPa | 2.6V | 07:54:53 | 02:52:08 | 00:00:00 | |
| NBG1-10 | 2026-09-04 07:22:52 | 49.31351 | 9.09249 | 106° | 80km/h | 8028m | -5.0m/s | -23.6°C | 15.1% | 376.0hPa | 2.5V | 00:00:00 | 02:52:04 | 00:00:00 | |
| DM0DOS-11 | 2026-09-04 07:22:51 | 49.31378 | 9.09072 | 105° | 75km/h | 8058m | -5.3m/s | -23.9°C | 16.1% | 374.5hPa | 2.5V | 07:54:37 | 02:51:58 | 00:00:00 | |
| BIOWL1-15 | 2026-09-04 07:22:46 | 49.31378 | 9.09072 | 105° | 75km/h | 8058m | -5.3m/s | -23.9°C | 18.2% | 374.5hPa | 2.5V | 07:54:53 | 02:51:58 | 00:00:00 | |
| DB0ND-19 | 2026-09-04 07:22:45 | 49.31383 | 9.09043 | 106° | 77km/h | 8063m | -5.0m/s | -23.9°C | 15.0% | 374.2hPa | 2.6V | 00:00:00 | 00:00:00 | 00:00:00 | |
| DK5PH-5 | 2026-09-04 07:22:44 | 49.31389 | 9.09014 | 107° | 80km/h | 8068m | -5.0m/s | -23.9°C | 16.0% | 373.9hPa | 2.6V | 00:00:00 | 02:51:56 | 00:00:00 | |
| DB0UT-7 | 2026-09-04 07:22:43 | 49.31395 | 9.08983 | 104° | 80km/h | 8073m | -5.2m/s | -24.0°C | 16.1% | 373.7hPa | 2.6V | 00:00:00 | 00:00:00 | 00:00:00 | |
| DM0DOS-11 | 2026-09-04 07:22:41 | 49.31426 | 9.08770 | 105° | 84km/h | 8109m | -5.2m/s | -24.3°C | 14.6% | 371.9hPa | 2.6V | 07:54:47 | 02:51:48 | 00:00:00 | |
| DK7TD | 2026-09-04 07:22:36 | 49.31426 | 9.08770 | 106° | 84km/h | 8109m | -5.2m/s | -24.3°C | 16.5% | 371.9hPa | 2.6V | 07:54:53 | 02:51:48 | 00:00:00 | |
| BIOWL1-15 | 2026-09-04 07:22:35 | 49.31444 | 9.08647 | 101° | 75km/h | 8129m | -5.2m/s | -24.5°C | 19.1% | 370.8hPa | 2.6V | 07:54:53 | 02:51:44 | 00:00:00 | |
| DB0NH | 2026-09-04 07:22:35 | 49.31432 | 9.08738 | 104° | 78km/h | 8114m | -5.3m/s | -24.3°C | 15.0% | 371.5hPa | 2.6V | 00:00:00 | 02:51:47 | 00:00:00 | |
| DF7PN | 2026-09-04 07:22:32 | 49.31444 | 9.08647 | 100° | 73km/h | 8129m | -5.2m/s | -24.5°C | 15.7% | 370.8hPa | 2.6V | 00:00:00 | 00:00:00 | 00:00:00 | |
| DM0DOS-11 | 2026-09-04 07:22:31 | 49.31471 | 9.08471 | 101° | 86km/h | 8161m | -5.1m/s | -24.7°C | 15.6% | 369.3hPa | 2.6V | 07:54:57 | 02:51:38 | 00:00:00 | |
| DK7TD | 2026-09-04 07:22:25 | 49.31475 | 9.08438 | 99° | 84km/h | 8166m | -5.6m/s | -24.7°C | 17.2% | 369hPa | 2.5V | 07:55:44 | 02:51:37 | 00:00:00 | |
| BIOWL1-15 | 2026-09-04 07:22:23 | 49.31481 | 9.08377 | 100° | 77km/h | 8177m | -5.2m/s | -24.8°C | 17.8% | 368.4hPa | 2.5V | 07:55:44 | 02:51:35 | 00:00:00 | |
| DM0DOS-11 | 2026-09-04 07:22:21 | 49.31518 | 9.08171 | 101° | 80km/h | 8213m | -4.9m/s | -25°C | 16.1% | 366.6hPa | 2.6V | 07:55:07 | 02:51:28 | 00:00:00 | |
| DK7TD | 2026-09-04 07:22:15 | 49.31521 | 9.08141 | 100° | 77km/h | 8218m | -5.2m/s | -25°C | 18.2% | 366.3hPa | 2.6V | 07:55:44 | 02:51:27 | 00:00:00 | |
| BIOWL1-15 | 2026-09-04 07:22:13 | 49.31529 | 9.08084 | 102° | 75km/h | 8228m | -5.4m/s | -25.1°C | 18.2% | 365.9hPa | 2.5V | 07:55:44 | 02:51:25 | 00:00:00 | |
| DK7TD | 2026-09-04 07:22:04 | 49.31566 | 9.07815 | 104° | 77km/h | 8274m | -5.2m/s | -25.5°C | 18.7% | 363.6hPa | 2.6V | 07:55:44 | 02:51:16 | 00:00:00 | |
| BIOWL1-15 | 2026-09-04 07:22:02 | 49.31576 | 9.07756 | 104° | 80km/h | 8284m | -5.3m/s | -25.6°C | 19.2% | 362.9hPa | 2.5V | 07:55:44 | 02:51:14 | 00:00:00 | |
| DM0DOS-11 | 2026-09-04 07:22:01 | 49.31600 | 9.07581 | 105° | 75km/h | 8316m | -5.4m/s | -25.9°C | 18.1% | 361.4hPa | 2.6V | 07:55:27 | 02:51:08 | 00:00:00 | |
| DK7TD | 2026-09-04 07:21:54 | 49.31610 | 9.07522 | 103° | 82km/h | 8326m | -5m/s | -26°C | 20.7% | 360.9hPa | 2.5V | 07:55:44 | 02:51:06 | 00:00:00 | |
| DG9SBQ-11 | 2026-09-04 07:21:53 | 49.31610 | 9.07522 | 104° | 82km/h | 8326m | -5.0m/s | -26.0°C | 16.9% | 360.9hPa | 2.6V | 07:55:00 | 00:00:00 | 00:00:00 | |
| DM0DOS-11 | 2026-09-04 07:21:51 | 49.31639 | 9.07284 | 104° | 80km/h | 8366m | -5.1m/s | -26.3°C | 20% | 358.8hPa | 2.6V | 07:55:37 | 02:50:58 | 00:00:00 | |
| BIOWL1-15 | 2026-09-04 07:21:51 | 49.31621 | 9.07429 | 97° | 80km/h | 8341m | -5.4m/s | -26.1°C | 21.8% | 360.1hPa | 2.6V | 07:55:44 | 02:51:03 | 00:00:00 | |
| BIOWL9-15 | 2026-09-04 07:21:46 | 49.31644 | 9.07254 | 102° | 80km/h | 8372m | -5.3m/s | -26.3°C | 18.4% | 358.6hPa | 2.5V | 00:00:00 | 00:00:00 | 00:00:00 | |
| DK7TD | 2026-09-04 07:21:44 | 49.31648 | 9.07223 | 100° | 80km/h | 8377m | -5.3m/s | 0°C | 0% | 358.3hPa | 2.5V | 07:55:44 | 02:50:56 | 00:00:00 | |
| DK5PH-5 | 2026-09-04 07:21:44 | 49.31648 | 9.07223 | 101° | 78km/h | 8377m | -5.3m/s | -26.3°C | 20.0% | 358.3hPa | 2.5V | 00:00:00 | 02:50:56 | 00:00:00 | |
| DB0UT-7 | 2026-09-04 07:21:43 | 49.31651 | 9.07192 | 99° | 78km/h | 8382m | -5.4m/s | -26.4°C | 20.1% | 358.0hPa | 2.5V | 00:00:00 | 00:00:00 | 00:00:00 | |
| DG9SBQ-11 | 2026-09-04 07:21:42 | 49.31651 | 9.07192 | 100° | 78km/h | 8382m | -5.5m/s | -26.4°C | 18.5% | 358.1hPa | 2.5V | 07:55:00 | 00:00:00 | 00:00:00 | |
| DM0DOS-11 | 2026-09-04 07:21:41 | 49.31680 | 9.06987 | 100° | 82km/h | 8419m | -5.5m/s | -26.6°C | 19% | 356.2hPa | 2.5V | 07:55:47 | 02:50:48 | 00:00:00 | |
| BIOWL1-15 | 2026-09-04 07:21:40 | 49.31661 | 9.07106 | 103° | 73km/h | 8398m | -5.3m/s | -26.5°C | 22% | 357.2hPa | 2.6V | 07:55:44 | 02:50:52 | 00:00:00 | |
| DK7TD | 2026-09-04 07:21:33 | 49.31690 | 9.06897 | 102° | 75km/h | 8434m | -4.9m/s | 0°C | 0% | 355.4hPa | 2.6V | 07:59:59 | 02:50:45 | 00:00:00 | |
| BIOWL1-15 | 2026-09-04 07:21:30 | 49.31705 | 9.06814 | 108° | 77km/h | 8449m | -5.3m/s | -26.9°C | 21.4% | 354.7hPa | 2.5V | 07:56:35 | 02:50:42 | 00:00:00 | |
| DK7TD | 2026-09-04 07:21:22 | 49.31737 | 9.06575 | 104° | 71km/h | 8490m | -5.3m/s | 0°C | 0% | 352.6hPa | 2.6V | 07:59:59 | 02:50:34 | 00:00:00 | |
| BIOWL1-15 | 2026-09-04 07:21:19 | 49.31770 | 9.06395 | 102° | 86km/h | 8520m | -6m/s | -27.5°C | 22.3% | 351.1hPa | 2.6V | 07:56:35 | 02:50:28 | 00:00:00 | |
| DK7TD | 2026-09-04 07:21:11 | 49.31790 | 9.06248 | 107° | 71km/h | 8547m | -5.5m/s | 0°C | 0% | 349.9hPa | 2.6V | 07:59:59 | 02:50:23 | 00:00:00 | |
| DM0DOS-11 | 2026-09-04 07:21:11 | 49.31822 | 9.06101 | 105° | 86km/h | 8575m | -5.4m/s | -27.9°C | 20.7% | 348.6hPa | 2.5V | 07:56:17 | 02:50:18 | 00:00:00 | |
| BIOWL1-15 | 2026-09-04 07:21:05 | 49.31828 | 9.06069 | 103° | 84km/h | 8580m | -5.1m/s | -27.9°C | 23.4% | 348.3hPa | 2.6V | 07:56:35 | 02:50:17 | 00:00:00 | |
| DK7TD | 2026-09-04 07:21:01 | 49.31844 | 9.05953 | 106° | 71km/h | 8600m | -5.4m/s | 0°C | 0% | 347.3hPa | 2.5V | 07:59:59 | 02:50:13 | 00:00:00 | |
| DF7PN | 2026-09-04 07:20:59 | 49.31863 | 9.05871 | 111° | 80km/h | 8616m | -5.1m/s | -28.2°C | 19.2% | 346.5hPa | 2.5V | 00:00:00 | 00:00:00 | 00:00:00 | |
| DJTTGO | 2026-09-04 07:20:58 | 49.31856 | 9.05899 | 112° | 75km/h | 8611m | -5.6m/s | -28.2°C | 19.5% | 346.8hPa | 2.5V | 07:56:00 | 00:00:00 | 00:00:00 | |
| DM0DOS-11 | 2026-09-04 07:20:55 | 49.31890 | 9.05747 | 103° | 86km/h | 8637m | -5.5m/s | -28.4°C | 20.9% | 345.5hPa | 2.5V | 07:56:29 | 02:50:06 | 00:00:00 | |
| BIOWL1-15 | 2026-09-04 07:20:54 | 49.31890 | 9.05747 | 104° | 86km/h | 8637m | -5.5m/s | -28.4°C | 23.4% | 345.5hPa | 2.5V | 07:56:35 | 02:50:06 | 00:00:00 | |
| DL1ZP-14 | 2026-09-04 07:20:52 | 49.31899 | 9.05685 | 102° | 78km/h | 8648m | -5.5m/s | -28.5°C | 19.1% | 345.0hPa | 2.6V | 00:00:00 | 00:00:00 | 00:00:00 | |
| DO3MHA-11 | 2026-09-04 07:20:51 | 49.31904 | 9.05656 | 105° | 80km/h | 8653m | -5.3m/s | -28.4°C | 20.7% | 344.6hPa | 2.6V | 00:00:00 | 02:50:03 | 00:00:00 | |
| DG9SBQ-11 | 2026-09-04 07:20:50 | 49.31904 | 9.05656 | 105° | 77km/h | 8653m | -5.4m/s | -28.5°C | 19.0% | 344.7hPa | 2.5V | 07:56:00 | 00:00:00 | 00:00:00 | |
| DK7TD | 2026-09-04 07:20:50 | 49.31909 | 9.05627 | 107° | 77km/h | 8658m | -5.2m/s | 0°C | 0% | 344.5hPa | 2.5V | 07:59:59 | 02:50:02 | 00:00:00 | |
| DM0DOS-11 | 2026-09-04 07:20:49 | 49.31946 | 9.05445 | 103° | 82km/h | 8689m | -5.3m/s | -28.7°C | 20.2% | 343hPa | 2.5V | 07:56:39 | 02:49:56 | 00:00:00 | |
| BIOWL1-15 | 2026-09-04 07:20:43 | 49.31951 | 9.05415 | 105° | 80km/h | 8694m | -5.3m/s | -28.8°C | 22.5% | 342.7hPa | 2.5V | 07:57:26 | 02:49:55 | 00:00:00 | |
| DB0UT-7 | 2026-09-04 07:20:43 | 49.31951 | 9.05415 | 106° | 82km/h | 8694m | -5.3m/s | -28.7°C | 20.1% | 342.6hPa | 2.6V | 00:00:00 | 00:00:00 | 00:00:00 | |
| DF3TZ-5 | 2026-09-04 07:20:42 | 49.31956 | 9.05385 | 106° | 78km/h | 8699m | -5.5m/s | -28.8°C | 18.2% | 342.4hPa | 2.6V | 00:00:00 | 00:00:00 | 00:00:00 | |
| DO3MHA-11 | 2026-09-04 07:20:41 | 49.31962 | 9.05356 | 109° | 80km/h | 8704m | -5.3m/s | -28.8°C | 19.8% | 342.1hPa | 2.6V | 00:00:00 | 02:49:53 | 00:00:00 | |
| DG9SBQ-11 | 2026-09-04 07:20:39 | 49.31969 | 9.05325 | 109° | 84km/h | 8709m | -5.4m/s | -28.8°C | 18.0% | 341.9hPa | 2.6V | 07:57:00 | 00:00:00 | 00:00:00 | |
| DJTTGO | 2026-09-04 07:20:38 | 49.31975 | 9.05294 | 108° | 88km/h | 8715m | -5.7m/s | -28.9°C | 18.0% | 341.7hPa | 2.6V | 07:57:00 | 00:00:00 | 00:00:00 | |
| DF2AP-13 | 2026-09-04 07:20:35 | 49.31995 | 9.05166 | 101° | 82km/h | 8737m | -5.1m/s | -29.0°C | 19.9% | 340.6hPa | 2.6V | 00:00:00 | 02:49:47 | 00:00:00 | |
| DM0DOS-11 | 2026-09-04 07:20:34 | 49.32008 | 9.05082 | 108° | 73km/h | 8753m | -5.7m/s | -29.2°C | 20% | 339.9hPa | 2.6V | 07:56:51 | 02:49:44 | 00:00:00 | |
| DK7TD | 2026-09-04 07:20:34 | 49.31999 | 9.05137 | 101° | 73km/h | 8742m | -5.7m/s | 0°C | 0% | 0hPa | 2.5V | 07:59:59 | 02:49:46 | 00:00:00 | |
| DK7TD | 2026-09-04 07:20:21 | 49.32076 | 9.04741 | 103° | 75km/h | 8813m | -5.3m/s | 0°C | 0% | 0hPa | 2.5V | 07:59:59 | 02:49:33 | 00:00:00 | |
| BIOWL1-15 | 2026-09-04 07:20:17 | 49.32129 | 9.04495 | 103° | 89km/h | 8857m | -5.6m/s | -30.1°C | 24.1% | 335.1hPa | 2.6V | 07:57:26 | 02:49:25 | 00:00:00 | |
| BIOWL1-15 | 2026-09-04 07:20:11 | 49.32157 | 9.04315 | 110° | 77km/h | 8889m | -5.5m/s | -30.4°C | 24.3% | 333.5hPa | 2.6V | 07:57:26 | 02:49:19 | 00:00:00 | |
| DO3MHA-11 | 2026-09-04 07:20:11 | 49.32137 | 9.04429 | 101° | 82km/h | 8868m | -5.2m/s | -30.2°C | 21.7% | 334.5hPa | 2.5V | 00:00:00 | 02:49:23 | 00:00:00 | |
| DB0ND-19 | 2026-09-04 07:20:10 | 49.32146 | 9.04370 | 104° | 73km/h | 8879m | -5.3m/s | -30.3°C | 19.7% | 334.1hPa | 2.5V | 00:00:00 | 00:00:00 | 00:00:00 | |
| DH7VM-15 | 2026-09-04 07:20:08 | 49.32146 | 9.04370 | 106° | 75km/h | 8879m | -5.3m/s | -30.3°C | 19.7% | 334.1hPa | 2.5V | 00:00:00 | 00:00:00 | 00:00:00 | |
| DM7RM-13 | 2026-09-04 07:20:07 | 49.32151 | 9.04342 | 108° | 73km/h | 8884m | -5.6m/s | -30.4°C | 19.7% | 333.8hPa | 2.5V | 07:57:00 | 00:00:00 | 00:00:00 | |
| DF2AP-13 | 2026-09-04 07:20:05 | 49.32172 | 9.04256 | 111° | 84km/h | 8900m | -5.8m/s | -30.4°C | 21.4% | 333.0hPa | 2.5V | 00:00:00 | 02:49:17 | 00:00:00 | |
| DM0DOS-11 | 2026-09-04 07:20:04 | 49.32193 | 9.04158 | 104° | 89km/h | 8916m | -5.1m/s | -30.5°C | 21.1% | 332.4hPa | 2.6V | 07:57:21 | 02:49:14 | 00:00:00 | |
| DK7TD | 2026-09-04 07:20:01 | 49.32198 | 9.04125 | 102° | 88km/h | 8921m | -5.6m/s | 0°C | 0% | 0hPa | 2.6V | 07:59:59 | 02:49:13 | 00:00:00 | |
| BIOWL1-15 | 2026-09-04 07:19:57 | 49.32217 | 9.04002 | 108° | 78km/h | 8943m | -5.1m/s | -30.7°C | 23.1% | 331hPa | 2.6V | 07:57:26 | 02:49:09 | 00:00:00 | |
| DF7PN | 2026-09-04 07:19:57 | 49.32224 | 9.03973 | 109° | 78km/h | 8948m | -5.5m/s | -30.7°C | 18.5% | 330.8hPa | 2.6V | 00:00:00 | 00:00:00 | 00:00:00 | |
| DJTTGO | 2026-09-04 07:19:56 | 49.32217 | 9.04002 | 109° | 78km/h | 8943m | -5.1m/s | -30.7°C | 18.8% | 331.0hPa | 2.6V | 07:57:00 | 00:00:00 | 00:00:00 | |
| DM0DOS-11 | 2026-09-04 07:19:54 | 49.32250 | 9.03848 | 104° | 84km/h | 8969m | -5.6m/s | -30.8°C | 19.8% | 329.8hPa | 2.6V | 07:57:31 | 02:49:04 | 00:00:00 | |
| DK7TD | 2026-09-04 07:19:51 | 49.32255 | 9.03816 | 103° | 82km/h | 8975m | -5.7m/s | 0°C | 0% | 0hPa | 2.6V | 07:59:59 | 02:49:03 | 00:00:00 | |
| BIOWL1-15 | 2026-09-04 07:19:48 | 49.32284 | 9.03665 | 107° | 86km/h | 9002m | -5.3m/s | -31°C | 22.6% | 328.3hPa | 2.6V | 07:58:17 | 02:48:58 | 00:00:00 | |
| DG9SBQ-11 | 2026-09-04 07:19:47 | 49.32271 | 9.03726 | 109° | 82km/h | 8991m | -5.4m/s | -30.9°C | 18.1% | 328.8hPa | 2.5V | 07:58:00 | 00:00:00 | 00:00:00 | |
| DM7RM-13 | 2026-09-04 07:19:46 | 49.32277 | 9.03696 | 109° | 82km/h | 8997m | -5.8m/s | -31.0°C | 18.1% | 328.6hPa | 2.5V | 07:58:00 | 00:00:00 | 00:00:00 | |
| DM0DOS-11 | 2026-09-04 07:19:44 | 49.32305 | 9.03538 | 103° | 78km/h | 9024m | -5.6m/s | -31.2°C | 20.3% | 327.3hPa | 2.5V | 07:57:41 | 02:48:54 | 00:00:00 | |
| BIOWL1-15 | 2026-09-04 07:19:36 | 49.32348 | 9.03360 | 110° | 91km/h | 9058m | -5.9m/s | -31.6°C | 23.4% | 325.8hPa | 2.6V | 07:58:17 | 02:48:48 | 00:00:00 | |
| DF2AP-13 | 2026-09-04 07:19:35 | 49.32356 | 9.03327 | 108° | 86km/h | 9064m | -5.7m/s | -31.6°C | 20.9% | 325.4hPa | 2.6V | 00:00:00 | 02:48:47 | 00:00:00 | |
| DM0DOS-11 | 2026-09-04 07:19:34 | 49.32372 | 9.03225 | 101° | 86km/h | 9079m | -5.5m/s | -31.8°C | 21.2% | 324.8hPa | 2.6V | 07:57:51 | 02:48:44 | 00:00:00 | |
| DK7TD | 2026-09-04 07:19:34 | 49.32362 | 9.03292 | 105° | 91km/h | 9069m | -5.3m/s | 0°C | 0% | 0hPa | 2.5V | 07:59:59 | 02:48:46 | 00:00:00 | |
| BIOWL1-15 | 2026-09-04 07:19:25 | 49.32416 | 9.03021 | 112° | 86km/h | 9119m | -5.9m/s | -32.2°C | 24.3% | 323hPa | 2.6V | 07:58:17 | 02:48:37 | 00:00:00 | |
| DM0DOS-11 | 2026-09-04 07:19:24 | 49.32439 | 9.02922 | 105° | 91km/h | 9135m | -5.8m/s | -32.3°C | 21.7% | 322.2hPa | 2.5V | 07:58:01 | 02:48:34 | 00:00:00 | |
| DK7TD | 2026-09-04 07:19:21 | 49.32444 | 9.02888 | 104° | 89km/h | 9141m | -5.4m/s | 0°C | 0% | 0hPa | 2.5V | 07:59:59 | 02:48:33 | 00:00:00 | |
| BIOWL1-15 | 2026-09-04 07:19:17 | 49.32480 | 9.02695 | 109° | 89km/h | 9174m | -5.7m/s | -32.7°C | 25% | 320.5hPa | 2.6V | 07:58:17 | 02:48:27 | 00:00:00 | |
| AZAK | 2026-09-04 07:19:17 | 49.32466 | 9.02759 | 108° | 84km/h | 9163m | -5.5m/s | -32.6°C | 20.1% | 321.0hPa | 2.6V | 00:00:00 | 00:00:00 | 00:00:00 | |
| KANTATE | 2026-09-04 07:19:16 | 49.32466 | 9.02759 | 108° | 84km/h | 9163m | -5.5m/s | -32.6°C | 20.1% | 321.0hPa | 2.6V | 00:00:00 | 00:00:00 | 00:00:00 | |
| DB0NH | 2026-09-04 07:19:15 | 49.32480 | 9.02695 | 109° | 91km/h | 9174m | -5.7m/s | -32.6°C | 22.4% | 320.4hPa | 2.6V | 00:00:00 | 02:48:27 | 00:00:00 | |
| DM0DOS-11 | 2026-09-04 07:19:14 | 49.32499 | 9.02594 | 103° | 89km/h | 9190m | -5.2m/s | -32.8°C | 22.5% | 319.7hPa | 2.5V | 07:58:11 | 02:48:24 | 00:00:00 | |
| DK5PH-5 | 2026-09-04 07:19:14 | 49.32487 | 9.02662 | 108° | 89km/h | 9179m | -5.9m/s | -32.7°C | 22.4% | 320.2hPa | 2.5V | 00:00:00 | 02:48:26 | 00:00:00 | |
| DB0UT-7 | 2026-09-04 07:19:13 | 49.32493 | 9.02627 | 106° | 93km/h | 9185m | -5.7m/s | -32.7°C | 22.5% | 319.9hPa | 2.5V | 00:00:00 | 02:48:25 | 00:00:00 | |
| DB0UT-9 | 2026-09-04 07:19:12 | 49.32493 | 9.02627 | 106° | 91km/h | 9185m | -5.7m/s | -32.8°C | 20.4% | 320.0hPa | 2.5V | 00:00:00 | 00:00:00 | 00:00:00 | |
| DO3MHA-11 | 2026-09-04 07:19:11 | 49.32504 | 9.02561 | 104° | 88km/h | 9196m | -5.3m/s | -32.8°C | 22.7% | 319.5hPa | 2.5V | 00:00:00 | 02:48:23 | 00:00:00 | |
| SFWM-10 | 2026-09-04 07:19:10 | 49.32505 | 9.02561 | 105° | 86km/h | 9196m | -5.3m/s | -32.9°C | 20.5% | 319.5hPa | 2.5V | 07:58:00 | 00:00:00 | 00:00:00 | |
| DF3TZ-5 | 2026-09-04 07:19:09 | 49.32515 | 9.02499 | 107° | 82km/h | 9206m | -5.5m/s | -33.0°C | 20.6% | 319.0hPa | 2.5V | 00:00:00 | 00:00:00 | 00:00:00 | |
| DB0ND-19 | 2026-09-04 07:19:08 | 49.32529 | 9.02436 | 108° | 88km/h | 9217m | -5.5m/s | -33.1°C | 20.7% | 318.5hPa | 2.5V | 00:00:00 | 00:00:00 | 00:00:00 | |
| DF2AP-13 | 2026-09-04 07:19:05 | 49.32542 | 9.02369 | 106° | 91km/h | 9228m | -5.6m/s | -33.1°C | 23.1% | 317.9hPa | 2.5V | 00:00:00 | 02:48:17 | 00:00:00 | |
| DM0DOS-11 | 2026-09-04 07:19:04 | 49.32559 | 9.02267 | 103° | 88km/h | 9244m | -5.2m/s | -33.3°C | 23.3% | 317.3hPa | 2.5V | 07:58:21 | 02:48:14 | 00:00:00 | |
| BIOWL1-15 | 2026-09-04 07:19:04 | 49.32548 | 9.02334 | 104° | 91km/h | 9233m | -5.6m/s | -33.2°C | 25.7% | 317.7hPa | 2.6V | 07:59:08 | 02:48:16 | 00:00:00 | |
| DK7TD | 2026-09-04 07:19:01 | 49.32564 | 9.02234 | 105° | 86km/h | 9249m | -5.6m/s | 0°C | 0% | 0hPa | 2.5V | 07:59:59 | 02:48:13 | 00:00:00 | |
| DO3MHA-11 | 2026-09-04 07:19:01 | 49.32564 | 9.02234 | 106° | 91km/h | 9250m | -5.5m/s | -33.3°C | 23.4% | 316.9hPa | 2.6V | 00:00:00 | 02:48:13 | 00:00:00 | |
| DG9SBQ-11 | 2026-09-04 07:18:57 | 49.32584 | 9.02135 | 108° | 95km/h | 9266m | -5.1m/s | -33.5°C | 21.1% | 316.3hPa | 2.6V | 07:59:00 | 00:00:00 | 00:00:00 | |
| KANTATE | 2026-09-04 07:18:56 | 49.32590 | 9.02099 | 105° | 97km/h | 9271m | -5.7m/s | -33.5°C | 21.1% | 316.1hPa | 2.6V | 07:59:00 | 00:00:00 | 00:00:00 | |
| CB1BUN | 2026-09-04 07:18:55 | 49.32596 | 9.02063 | 104° | 95km/h | 9277m | -5.9m/s | -33.6°C | 21.2% | 315.8hPa | 2.6V | 07:59:00 | 00:00:00 | 00:00:00 | |
| DM0DOS-11 | 2026-09-04 07:18:54 | 49.32627 | 9.01861 | 106° | 91km/h | 9309m | -5m/s | -33.9°C | 23.4% | 314.3hPa | 2.6V | 07:58:33 | 02:48:02 | 00:00:00 | |
| BIOWL1-15 | 2026-09-04 07:18:54 | 49.32605 | 9.01993 | 100° | 89km/h | 9288m | -5.7m/s | -33.7°C | 26% | 315.3hPa | 2.6V | 07:59:08 | 02:48:06 | 00:00:00 | |
| DL1ZP-14 | 2026-09-04 07:18:48 | 49.32640 | 9.01791 | 104° | 95km/h | 9320m | -5.9m/s | -34.0°C | 21.2% | 313.9hPa | 2.5V | 00:00:00 | 00:00:00 | 00:00:00 | |
| DG9SBQ-11 | 2026-09-04 07:18:46 | 49.32645 | 9.01754 | 104° | 97km/h | 9326m | -5.7m/s | -34.0°C | 21.3% | 313.7hPa | 2.5V | 07:59:00 | 00:00:00 | 00:00:00 | |
| DM7RM-13 | 2026-09-04 07:18:45 | 49.32655 | 9.01682 | 103° | 91km/h | 9336m | -5.5m/s | -34.1°C | 21.4% | 313.1hPa | 2.5V | 07:59:00 | 00:00:00 | 00:00:00 | |
| DM0DOS-11 | 2026-09-04 07:18:44 | 49.32685 | 9.01511 | 105° | 97km/h | 9362m | -5.6m/s | -34.3°C | 23.5% | 312hPa | 2.5V | 07:58:43 | 02:47:52 | 00:00:00 | |
| BIOWL1-15 | 2026-09-04 07:18:44 | 49.32660 | 9.01648 | 104° | 89km/h | 9342m | -5.3m/s | -34.1°C | 25.7% | 312.9hPa | 2.6V | 07:59:08 | 02:47:56 | 00:00:00 | |
| BIOWL1-15 | 2026-09-04 07:18:35 | 49.32715 | 9.01275 | 105° | 82km/h | 9400m | -5.6m/s | -34.5°C | 23.9% | 310.2hPa | 2.6V | 07:59:08 | 02:47:45 | 00:00:00 | |
| CB1BUN | 2026-09-04 07:18:35 | 49.32706 | 9.01336 | 100° | 82km/h | 9390m | -5.7m/s | -34.5°C | 20.1% | 310.7hPa | 2.5V | 07:59:00 | 00:00:00 | 00:00:00 | |
| DM0DOS-11 | 2026-09-04 07:18:34 | 49.32732 | 9.01180 | 105° | 88km/h | 9416m | -5.4m/s | -34.6°C | 21.2% | 309.5hPa | 2.5V | 07:58:53 | 02:47:42 | 00:00:00 | |
| DK7TD | 2026-09-04 07:18:26 | 49.32750 | 9.01048 | 100° | 84km/h | 9438m | -5.5m/s | 0°C | 0% | 0hPa | 2.5V | 07:59:59 | 02:47:38 | 00:00:00 | |
| BIOWL1-15 | 2026-09-04 07:18:25 | 49.32763 | 9.00956 | 105° | 82km/h | 9454m | -5.5m/s | -34.6°C | 20.5% | 307.9hPa | 2.6V | 07:59:08 | 02:47:35 | 00:00:00 | |
| DM0DOS-11 | 2026-09-04 07:18:24 | 49.32779 | 9.00862 | 102° | 82km/h | 9471m | -5.4m/s | -34.6°C | 18.4% | 307.1hPa | 2.5V | 07:59:03 | 02:47:32 | 00:00:00 | |
| DF7PN | 2026-09-04 07:18:23 | 49.32763 | 9.00956 | 104° | 80km/h | 9454m | -5.5m/s | -34.6°C | 16.6% | 307.9hPa | 2.6V | 00:00:00 | 00:00:00 | 00:00:00 | |
| DO3MHA-11 | 2026-09-04 07:18:21 | 49.32774 | 9.00894 | 105° | 80km/h | 9466m | -5.7m/s | -34.6°C | 18.6% | 307.3hPa | 2.6V | 07:59:00 | 02:47:33 | 00:00:00 | |
| DF1GD-15 | 2026-09-04 07:18:20 | 49.32774 | 9.00894 | 105° | 84km/h | 9466m | -5.8m/s | -34.6°C | 16.5% | 307.3hPa | 2.5V | 07:59:00 | 00:00:00 | 00:00:00 | |
| DJTTGO | 2026-09-04 07:18:19 | 49.32779 | 9.00862 | 103° | 82km/h | 9471m | -5.4m/s | -34.6°C | 16.3% | 307.1hPa | 2.5V | 00:00:00 | 00:00:00 | 00:00:00 | |
| NBG1-10 | 2026-09-04 07:18:18 | 49.32788 | 9.00802 | 103° | 78km/h | 9482m | -5.7m/s | -34.6°C | 17.8% | 306.6hPa | 2.5V | 00:00:00 | 02:47:30 | 00:00:00 | |
| DL1ZP-14 | 2026-09-04 07:18:17 | 49.32792 | 9.00773 | 104° | 75km/h | 9488m | -5.2m/s | -34.6°C | 15.5% | 306.4hPa | 2.6V | 00:00:00 | 00:00:00 | 00:00:00 | |
| DM0DOS-11 | 2026-09-04 07:18:14 | 49.32827 | 9.00564 | 98° | 77km/h | 9526m | -5.6m/s | -34.6°C | 14.1% | 304.7hPa | 2.6V | 07:59:13 | 02:47:22 | 00:00:00 | |
| BIOWL1-15 | 2026-09-04 07:18:12 | 49.32820 | 9.00625 | 100° | 82km/h | 9516m | -5.4m/s | -34.7°C | 17.2% | 305.1hPa | 2.6V | 07:59:59 | 02:47:24 | 00:00:00 | |
| DB0NH | 2026-09-04 07:18:12 | 49.32820 | 9.00625 | 101° | 78km/h | 9516m | -5.3m/s | -34.6°C | 15.6% | 305.1hPa | 2.5V | 00:00:00 | 02:47:24 | 00:00:00 | |
| DO3MHA-11 | 2026-09-04 07:18:11 | 49.32823 | 9.00594 | 99° | 78km/h | 9521m | -5.4m/s | -34.6°C | 14.9% | 304.9hPa | 2.5V | 00:00:00 | 02:47:23 | 00:00:00 | |
| DG9SBQ-11 | 2026-09-04 07:18:08 | 49.32830 | 9.00536 | 101° | 73km/h | 9532m | -5.5m/s | -34.6°C | 11.6% | 304.4hPa | 2.5V | 07:59:00 | 00:00:00 | 00:00:00 | |
| DB0UT-7 | 2026-09-04 07:18:07 | 49.32838 | 9.00481 | 108° | 78km/h | 9544m | -5.4m/s | -34.6°C | 12.1% | 303.9hPa | 2.5V | 00:00:00 | 02:47:19 | 00:00:00 | |
| DB0ND-19 | 2026-09-04 07:18:06 | 49.32850 | 9.00424 | 108° | 80km/h | 9555m | -5.7m/s | -34.6°C | 9.6% | 303.5hPa | 2.6V | 00:00:00 | 00:00:00 | 00:00:00 | |
| DF2AP-13 | 2026-09-04 07:18:05 | 49.32850 | 9.00424 | 109° | 78km/h | 9555m | -5.7m/s | -34.5°C | 11.2% | 303.5hPa | 2.6V | 00:00:00 | 02:47:17 | 00:00:00 | |
| DM0DOS-11 | 2026-09-04 07:18:04 | 49.32876 | 9.00270 | 100° | 77km/h | 9581m | -5.2m/s | -34.7°C | 11.3% | 302.3hPa | 2.6V | 07:59:23 | 02:47:12 | 00:00:00 | |
| BIOWL1-15 | 2026-09-04 07:18:03 | 49.32872 | 9.00299 | 100° | 80km/h | 9577m | -5.2m/s | -34.7°C | 12.2% | 302.5hPa | 2.6V | 07:59:59 | 02:47:13 | 00:00:00 | |
| DO3MHA-11 | 2026-09-04 07:18:01 | 49.32872 | 9.00299 | 100° | 77km/h | 9577m | -5.2m/s | -34.6°C | 11.2% | 302.4hPa | 2.5V | 00:00:00 | 02:47:13 | 00:00:00 | |
| DF1GD-15 | 2026-09-04 07:18:00 | 49.32872 | 9.00299 | 101° | 80km/h | 9577m | -5.2m/s | -34.7°C | 9.5% | 302.5hPa | 2.5V | 07:59:00 | 00:00:00 | 00:00:00 | |
| DL0LBS | 2026-09-04 07:17:59 | 49.32876 | 9.00269 | 101° | 77km/h | 9582m | -5.2m/s | -34.7°C | 9.6% | 302.3hPa | 2.5V | 07:59:00 | 00:00:00 | 00:00:00 | |
| DG9SBQ-11 | 2026-09-04 07:17:58 | 49.32879 | 9.00241 | 103° | 71km/h | 9587m | -5.9m/s | -34.8°C | 9.6% | 302.0hPa | 2.5V | 07:59:00 | 00:00:00 | 00:00:00 | |
| DM0DOS-11 | 2026-09-04 07:17:54 | 49.32925 | 8.99980 | 100° | 78km/h | 9639m | -5.9m/s | -35.1°C | 10.9% | 299.9hPa | 2.5V | 07:59:33 | 02:47:02 | 00:00:00 | |
| BIOWL1-15 | 2026-09-04 07:17:51 | 49.32921 | 9.00011 | 100° | 84km/h | 9633m | -5.6m/s | -35°C | 11.9% | 300.1hPa | 2.5V | 07:59:59 | 02:47:03 | 00:00:00 | |
| DK7TD | 2026-09-04 07:17:46 | 49.32943 | 8.99870 | 110° | 73km/h | 9662m | -5.9m/s | 0°C | 0% | 0hPa | 2.5V | 07:59:59 | 02:46:58 | 00:00:00 | |
| NBG1-10 | 2026-09-04 07:17:45 | 49.32950 | 8.99843 | 111° | 82km/h | 9668m | -5.8m/s | -35.2°C | 10.6% | 298.6hPa | 2.5V | 00:00:00 | 02:46:57 | 00:00:00 | |
| DM0DOS-11 | 2026-09-04 07:17:44 | 49.32980 | 8.99689 | 101° | 82km/h | 9696m | -5.4m/s | -35.5°C | 11.5% | 297.4hPa | 2.5V | 07:59:43 | 02:46:52 | 00:00:00 | |
| BIOWL1-15 | 2026-09-04 07:17:43 | 49.32975 | 8.99720 | 102° | 86km/h | 9690m | -5.3m/s | -35.5°C | 12.5% | 297.7hPa | 2.6V | 07:59:59 | 02:46:53 | 00:00:00 | |
| DB0NH | 2026-09-04 07:17:42 | 49.32970 | 8.99752 | 106° | 82km/h | 9685m | -5.1m/s | -35.4°C | 11.2% | 297.9hPa | 2.6V | 00:00:00 | 02:46:54 | 00:00:00 | |
| DO3MHA-11 | 2026-09-04 07:17:41 | 49.32975 | 8.99720 | 103° | 84km/h | 9691m | -5.2m/s | -35.4°C | 11.4% | 297.7hPa | 2.5V | 00:00:00 | 02:46:53 | 00:00:00 | |
| DL0LBS | 2026-09-04 07:17:39 | 49.32980 | 8.99688 | 102° | 82km/h | 9696m | -5.4m/s | -35.5°C | 9.7% | 297.4hPa | 2.5V | 07:59:00 | 00:00:00 | 00:00:00 | |
| DB0UT-7 | 2026-09-04 07:17:37 | 49.32992 | 8.99597 | 105° | 82km/h | 9713m | -5.5m/s | -35.6°C | 11.7% | 296.7hPa | 2.5V | 00:00:00 | 00:00:00 | 00:00:00 | |
| DF3TZ-5 | 2026-09-04 07:17:36 | 49.33004 | 8.99535 | 107° | 86km/h | 9723m | -5.5m/s | -35.7°C | 10.1% | 296.3hPa | 2.5V | 00:00:00 | 00:00:00 | 00:00:00 | |
| DB0ND-19 | 2026-09-04 07:17:35 | 49.33010 | 8.99503 | 105° | 86km/h | 9729m | -5.7m/s | -35.8°C | 10.1% | 296.0hPa | 2.5V | 00:00:00 | 00:00:00 | 00:00:00 | |
| DM0DOS-11 | 2026-09-04 07:17:34 | 49.33030 | 8.99377 | 101° | 77km/h | 9751m | -5.8m/s | -36°C | 11.8% | 295.1hPa | 2.5V | 07:59:53 | 02:46:42 | 00:00:00 | |
| BIOWL1-15 | 2026-09-04 07:17:30 | 49.33030 | 8.99377 | 102° | 77km/h | 9751m | -5.8m/s | -36°C | 13% | 295.1hPa | 2.5V | 07:59:59 | 02:46:42 | 00:00:00 | |
| BIOWL7-15 | 2026-09-04 07:17:28 | 49.33039 | 8.99320 | 108° | 77km/h | 9762m | -5.7m/s | -36.0°C | 10.0% | 294.6hPa | 2.5V | 00:00:00 | 00:00:00 | 00:00:00 | |
| SFWM-10 | 2026-09-04 07:17:27 | 49.33039 | 8.99320 | 108° | 77km/h | 9762m | -5.7m/s | -36.0°C | 10.0% | 294.6hPa | 2.5V | 07:59:00 | 00:00:00 | 00:00:00 | |
| DB0UT-9 | 2026-09-04 07:17:26 | 49.33045 | 8.99292 | 109° | 78km/h | 9768m | -5.9m/s | -36.1°C | 10.1% | 294.3hPa | 2.5V | 07:59:00 | 00:00:00 | 00:00:00 | |
| DM0DOS-11 | 2026-09-04 07:17:24 | 49.33078 | 8.99070 | 101° | 77km/h | 9808m | -5.8m/s | -36.4°C | 12.1% | 292.7hPa | 2.5V | 08:00:03 | 02:46:32 | 00:00:00 | |
| DK7TD | 2026-09-04 07:17:22 | 49.33071 | 8.99131 | 100° | 84km/h | 9796m | -5.7m/s | 0°C | 0% | 0hPa | 2.6V | 18:12:15 | 02:46:34 | 00:00:00 | |
| BIOWL1-15 | 2026-09-04 07:17:22 | 49.33078 | 8.99070 | 101° | 77km/h | 9808m | -5.8m/s | -36.4°C | 13.5% | 292.7hPa | 2.5V | 08:00:50 | 02:46:32 | 00:00:00 | |
| DO3MHA-11 | 2026-09-04 07:17:21 | 49.33075 | 8.99100 | 100° | 82km/h | 9802m | -6.0m/s | -36.3°C | 12.1% | 292.9hPa | 2.5V | 00:00:00 | 02:46:33 | 00:00:00 | |
| DF1GD-15 | 2026-09-04 07:17:19 | 49.33078 | 8.99070 | 102° | 77km/h | 9808m | -5.8m/s | -36.4°C | 10.3% | 292.7hPa | 2.5V | 08:00:00 | 00:00:00 | 00:00:00 | |
| DL0LBS | 2026-09-04 07:17:18 | 49.33082 | 8.99040 | 104° | 77km/h | 9813m | -5.6m/s | -36.5°C | 10.3% | 292.5hPa | 2.5V | 08:00:00 | 00:00:00 | 00:00:00 | |
| DL1ZP-14 | 2026-09-04 07:17:15 | 49.33105 | 8.98918 | 103° | 86km/h | 9837m | -5.6m/s | -36.7°C | 10.5% | 291.5hPa | 2.5V | 00:00:00 | 00:00:00 | 00:00:00 | |
| DM0DOS-11 | 2026-09-04 07:17:14 | 49.33126 | 8.98759 | 102° | 82km/h | 9865m | -5.7m/s | -36.9°C | 12.6% | 290.4hPa | 2.6V | 08:00:13 | 02:46:22 | 00:00:00 | |
| DK7TD | 2026-09-04 07:17:11 | 49.33121 | 8.98790 | 102° | 80km/h | 9859m | -5.8m/s | 0°C | 0% | 0hPa | 2.6V | 18:12:15 | 02:46:23 | 00:00:00 | |
| BIOWL1-15 | 2026-09-04 07:17:11 | 49.33130 | 8.98728 | 104° | 84km/h | 9870m | -5.6m/s | -37°C | 14.1% | 290.2hPa | 2.6V | 08:00:50 | 02:46:21 | 00:00:00 | |
| DO3MHA-11 | 2026-09-04 07:17:11 | 49.33121 | 8.98790 | 103° | 82km/h | 9859m | -5.7m/s | -36.8°C | 12.5% | 290.6hPa | 2.5V | 00:00:00 | 02:46:23 | 00:00:00 | |
| DB0UT-7 | 2026-09-04 07:17:07 | 49.33139 | 8.98663 | 100° | 82km/h | 9882m | -5.3m/s | -37.0°C | 12.7% | 289.6hPa | 2.5V | 00:00:00 | 02:46:19 | 00:00:00 | |
| DN1GJH-1 | 2026-09-04 07:17:06 | 49.33139 | 8.98663 | 101° | 84km/h | 9882m | -5.4m/s | -37.1°C | 10.8% | 289.6hPa | 2.5V | 08:00:00 | 00:00:00 | 00:00:00 | |
| DF2AP-13 | 2026-09-04 07:17:05 | 49.33146 | 8.98601 | 100° | 82km/h | 9893m | -5.5m/s | -37.2°C | 12.8% | 289.2hPa | 2.5V | 00:00:00 | 02:46:17 | 00:00:00 | |
| DM0DOS-11 | 2026-09-04 07:17:04 | 49.33171 | 8.98448 | 104° | 88km/h | 9921m | -5.7m/s | -37.5°C | 13% | 288hPa | 2.5V | 08:00:23 | 02:46:12 | 00:00:00 | |
| BIOWL1-15 | 2026-09-04 07:16:58 | 49.33181 | 8.98383 | 100° | 84km/h | 9933m | -5.7m/s | -37.6°C | 14.4% | 287.5hPa | 2.5V | 08:00:50 | 02:46:10 | 00:00:00 | |
| DD1CC8 | 2026-09-04 07:16:56 | 49.33212 | 8.98163 | 100° | 86km/h | 9972m | -5.8m/s | -37.9°C | 11.8% | 285.9hPa | 2.6V | 00:00:00 | 00:00:00 | 00:00:00 | |
| DM0DOS-11 | 2026-09-04 07:16:54 | 49.33216 | 8.98131 | 99° | 86km/h | 9978m | -5.6m/s | -38°C | 14.1% | 285.7hPa | 2.6V | 08:00:33 | 02:46:02 | 00:00:00 | |
| BIOWL1-15 | 2026-09-04 07:16:47 | 49.33230 | 8.98035 | 104° | 86km/h | 9995m | -5.5m/s | -38.1°C | 15.9% | 285hPa | 2.5V | 08:00:50 | 02:45:59 | 00:00:00 | |
| BIOWL1-15 | 2026-09-04 07:16:38 | 49.33279 | 8.97698 | 110° | 86km/h | 10059m | -5.9m/s | -38.8°C | 16.6% | 282.3hPa | 2.6V | 08:00:50 | 02:45:48 | 00:00:00 | |
| DB0UT-7 | 2026-09-04 07:16:37 | 49.33271 | 8.97729 | 111° | 84km/h | 10053m | -5.7m/s | -38.6°C | 15.1% | 282.5hPa | 2.5V | 08:00:00 | 00:00:00 | 00:00:00 | |
| DL0LBS | 2026-09-04 07:16:36 | 49.33271 | 8.97729 | 111° | 82km/h | 10053m | -5.8m/s | -38.7°C | 12.8% | 282.5hPa | 2.6V | 08:00:00 | 00:00:00 | 00:00:00 | |
| DF2AP-13 | 2026-09-04 07:16:35 | 49.33286 | 8.97666 | 109° | 86km/h | 10065m | -6.0m/s | -38.8°C | 15.4% | 282.0hPa | 2.6V | 00:00:00 | 02:45:47 | 00:00:00 | |
| DM0DOS-11 | 2026-09-04 07:16:34 | 49.33311 | 8.97457 | 94° | 82km/h | 10100m | -5.9m/s | -39.1°C | 15.6% | 280.6hPa | 2.6V | 08:00:54 | 02:45:41 | 00:00:00 | |
| BIOWL1-15 | 2026-09-04 07:16:29 | 49.33322 | 8.97341 | 105° | 73km/h | 10124m | -6.1m/s | -39.4°C | 17.6% | 279.6hPa | 2.5V | 08:01:41 | 02:45:37 | 00:00:00 | |
| DK7TD | 2026-09-04 07:16:24 | 49.33327 | 8.97313 | 108° | 77km/h | 10130m | -5.9m/s | 0°C | 0% | 0hPa | 2.5V | 18:12:15 | 02:45:36 | 00:00:00 | |
| BIOWL1-15 | 2026-09-04 07:16:18 | 49.33375 | 8.97006 | 94° | 86km/h | 10183m | -5.9m/s | -39.9°C | 19% | 277.2hPa | 2.6V | 08:01:41 | 02:45:27 | 00:00:00 | |
| DF1GD-15 | 2026-09-04 07:16:17 | 49.33366 | 8.97113 | 101° | 97km/h | 10166m | -6.0m/s | -39.7°C | 14.7% | 277.9hPa | 2.6V | 08:01:00 | 00:00:00 | 00:00:00 | |
| DL0LBS | 2026-09-04 07:16:15 | 49.33373 | 8.97040 | 96° | 91km/h | 10178m | -5.9m/s | -39.8°C | 14.7% | 277.4hPa | 2.6V | 08:01:00 | 00:00:00 | 00:00:00 | |
| DM0DOS-11 | 2026-09-04 07:16:14 | 49.33394 | 8.96830 | 108° | 78km/h | 10220m | -6.1m/s | -40.3°C | 17.2% | 275.7hPa | 2.6V | 08:01:14 | 02:45:21 | 00:00:00 | |
| DK7TD | 2026-09-04 07:16:12 | 49.33380 | 8.96915 | 99° | 75km/h | 10202m | -6.3m/s | 0°C | 0% | 0hPa | 2.5V | 18:12:15 | 02:45:24 | 00:00:00 | |
| DO3MHA-11 | 2026-09-04 07:16:11 | 49.33384 | 8.96886 | 103° | 88km/h | 10208m | -6.1m/s | -40.1°C | 17.0% | 276.2hPa | 2.5V | 00:00:00 | 02:45:23 | 00:00:00 | |
| DJTTGO | 2026-09-04 07:16:09 | 49.33388 | 8.96859 | 107° | 75km/h | 10214m | -5.9m/s | -40.2°C | 14.6% | 275.9hPa | 2.5V | 00:00:00 | 00:00:00 | 00:00:00 | |
| DB0UT-7 | 2026-09-04 07:16:07 | 49.33407 | 8.96769 | 109° | 86km/h | 10232m | -6.0m/s | -40.3°C | 17.6% | 275.2hPa | 2.5V | 00:00:00 | 02:45:19 | 00:00:00 | |
| DB0UT-9 | 2026-09-04 07:16:05 | 49.33414 | 8.96736 | 108° | 93km/h | 10238m | -6.0m/s | -40.4°C | 15.3% | 275.0hPa | 2.5V | 08:01:00 | 00:00:00 | 00:00:00 | |
| DM0DOS-11 | 2026-09-04 07:16:04 | 49.33441 | 8.96495 | 97° | 77km/h | 10280m | -5.7m/s | -40.8°C | 19.1% | 273.3hPa | 2.5V | 08:01:24 | 02:45:11 | 00:00:00 | |
| BIOWL1-15 | 2026-09-04 07:16:04 | 49.33427 | 8.96664 | 102° | 97km/h | 10250m | -6m/s | -40.5°C | 20% | 274.5hPa | 2.6V | 08:01:41 | 02:45:16 | 00:00:00 | |
| DK7TD | 2026-09-04 07:15:59 | 49.33441 | 8.96495 | 97° | 77km/h | 10280m | -5.7m/s | 0°C | 0% | 0hPa | 2.5V | 18:12:15 | 02:45:11 | 00:00:00 | |
| DG9SBQ-11 | 2026-09-04 07:15:57 | 49.33444 | 8.96466 | 102° | 73km/h | 10286m | -6.0m/s | -40.9°C | 16.5% | 273.1hPa | 2.5V | 08:01:00 | 00:00:00 | 00:00:00 | |
| DF1GD-15 | 2026-09-04 07:15:56 | 49.33448 | 8.96438 | 106° | 73km/h | 10292m | -6.1m/s | -40.9°C | 16.9% | 272.8hPa | 2.5V | 08:01:00 | 00:00:00 | 00:00:00 | |
| KANTATE | 2026-09-04 07:15:55 | 49.33454 | 8.96411 | 109° | 77km/h | 10298m | -6.3m/s | -41.0°C | 17.0% | 272.6hPa | 2.5V | 00:00:00 | 00:00:00 | 00:00:00 | |
| DM0DOS-11 | 2026-09-04 07:15:54 | 49.33497 | 8.96176 | 97° | 95km/h | 10341m | -6.1m/s | -41.3°C | 21.1% | 270.8hPa | 2.5V | 08:01:34 | 02:45:01 | 00:00:00 | |
| BIOWL1-15 | 2026-09-04 07:15:53 | 49.33475 | 8.96319 | 109° | 91km/h | 10316m | -5.8m/s | -41.1°C | 22.4% | 271.8hPa | 2.5V | 08:01:41 | 02:45:05 | 00:00:00 | |
| DF7PN | 2026-09-04 07:15:48 | 49.33499 | 8.96140 | 94° | 91km/h | 10347m | -6.4m/s | -41.4°C | 18.3% | 270.7hPa | 2.6V | 00:00:00 | 00:00:00 | 00:00:00 | |
| DJTTGO | 2026-09-04 07:15:46 | 49.33503 | 8.96073 | 95° | 82km/h | 10359m | -6.2m/s | -41.5°C | 18.6% | 270.2hPa | 2.6V | 00:00:00 | 00:00:00 | 00:00:00 | |
| DB0UT-9 | 2026-09-04 07:15:45 | 49.33503 | 8.96073 | 95° | 82km/h | 10359m | -6.2m/s | -41.5°C | 18.6% | 270.2hPa | 2.6V | 08:01:00 | 00:00:00 | 00:00:00 | |
| DM0DOS-11 | 2026-09-04 07:15:44 | 49.33532 | 8.95874 | 109° | 84km/h | 10402m | -6.1m/s | -42°C | 23.2% | 268.4hPa | 2.6V | 08:01:44 | 02:44:51 | 00:00:00 | |
| BIOWL1-15 | 2026-09-04 07:15:40 | 49.33532 | 8.95874 | 110° | 84km/h | 10402m | -6.1m/s | -42°C | 25.1% | 268.5hPa | 2.6V | 08:03:23 | 02:44:51 | 00:00:00 | |
| DK7TD | 2026-09-04 07:15:35 | 49.33557 | 8.95738 | 101° | 95km/h | 10427m | -6.3m/s | 0°C | 0% | 0hPa | 2.6V | 18:12:15 | 02:44:47 | 00:00:00 | |
| DM0DOS-11 | 2026-09-04 07:15:34 | 49.33571 | 8.95540 | 98° | 73km/h | 10463m | -6.1m/s | -42.4°C | 23.2% | 266.1hPa | 2.6V | 08:01:54 | 02:44:41 | 00:00:00 | |
| BIOWL1-15 | 2026-09-04 07:15:28 | 49.33574 | 8.95513 | 102° | 71km/h | 10469m | -6.3m/s | -42.5°C | 25.9% | 265.8hPa | 2.5V | 08:03:23 | 02:44:40 | 00:00:00 | |
| CB1BUN | 2026-09-04 07:15:27 | 49.33574 | 8.95513 | 103° | 71km/h | 10469m | -6.3m/s | -42.5°C | 20.1% | 265.8hPa | 2.6V | 08:02:00 | 00:00:00 | 00:00:00 | |
| DM0DOS-11 | 2026-09-04 07:15:24 | 49.33632 | 8.95227 | 100° | 95km/h | 10525m | -6m/s | -42.9°C | 24.4% | 263.6hPa | 2.6V | 08:02:04 | 02:44:31 | 00:00:00 | |
| DK7TD | 2026-09-04 07:15:19 | 49.33632 | 8.95227 | 100° | 95km/h | 10525m | -6m/s | 0°C | 0% | 0hPa | 2.6V | 18:12:15 | 02:44:31 | 00:00:00 | |
| DO8TBO-1 | 2026-09-04 07:15:18 | 49.33636 | 8.95192 | 98° | 91km/h | 10531m | -5.7m/s | -42.9°C | 24.5% | 263.3hPa | 2.6V | 00:00:00 | 02:44:30 | 00:00:00 | |
| DF7PN | 2026-09-04 07:15:17 | 49.33638 | 8.95158 | 96° | 84km/h | 10537m | -6.0m/s | -43.0°C | 21.0% | 263.1hPa | 2.6V | 00:00:00 | 00:00:00 | 00:00:00 | |
| DF1GD-15 | 2026-09-04 07:15:16 | 49.33638 | 8.95158 | 98° | 86km/h | 10537m | -6.0m/s | -43.0°C | 21.0% | 263.1hPa | 2.6V | 08:02:00 | 00:00:00 | 00:00:00 | |
| DM0DOS-11 | 2026-09-04 07:15:15 | 49.33685 | 8.94918 | 111° | 93km/h | 10586m | -6.3m/s | -43.4°C | 27.1% | 261.2hPa | 2.6V | 08:02:14 | 02:44:21 | 00:00:00 | |
| BIOWL1-15 | 2026-09-04 07:15:14 | 49.33660 | 8.95011 | 112° | 78km/h | 10567m | -6.2m/s | -43.3°C | 28.9% | 262hPa | 2.5V | 08:03:23 | 02:44:24 | 00:00:00 | |
| DK5PH-5 | 2026-09-04 07:15:14 | 49.33648 | 8.95067 | 105° | 86km/h | 10555m | -6.1m/s | -43.1°C | 25.1% | 262.4hPa | 2.5V | 00:00:00 | 02:44:26 | 00:00:00 | |
| DL0LBS | 2026-09-04 07:15:13 | 49.33648 | 8.95067 | 105° | 75km/h | 10555m | -6.2m/s | -43.1°C | 21.7% | 262.4hPa | 2.5V | 08:02:00 | 00:00:00 | 00:00:00 | |
| DO3MHA-11 | 2026-09-04 07:15:11 | 49.33668 | 8.94982 | 114° | 91km/h | 10574m | -6.1m/s | -43.3°C | 26.7% | 261.7hPa | 2.5V | 00:00:00 | 02:44:23 | 00:00:00 | |
| DB0UT-7 | 2026-09-04 07:15:07 | 49.33701 | 8.94847 | 107° | 88km/h | 10599m | -6.0m/s | -43.4°C | 27.6% | 260.7hPa | 2.5V | 00:00:00 | 02:44:19 | 00:00:00 | |
| CB1BUN | 2026-09-04 07:15:06 | 49.33701 | 8.94847 | 107° | 99km/h | 10599m | -6.1m/s | -43.4°C | 24.0% | 260.7hPa | 2.5V | 08:02:00 | 00:00:00 | 00:00:00 | |
| DF2AP-13 | 2026-09-04 07:15:04 | 49.33716 | 8.94739 | 99° | 88km/h | 10617m | -6.1m/s | -43.6°C | 27.4% | 260.0hPa | 2.5V | 00:00:00 | 02:44:16 | 00:00:00 | |
| DB0UT-9 | 2026-09-04 07:15:03 | 49.33716 | 8.94739 | 99° | 91km/h | 10617m | -6.2m/s | -43.6°C | 23.8% | 260.0hPa | 2.5V | 08:02:00 | 00:00:00 | 00:00:00 | |
| DF3TZ-5 | 2026-09-04 07:15:01 | 49.33730 | 8.94616 | 104° | 73km/h | 10641m | -6.3m/s | -43.9°C | 23.8% | 259.1hPa | 2.5V | 00:00:00 | 00:00:00 | 00:00:00 | |
| DJTTGO | 2026-09-04 07:15:00 | 49.33726 | 8.94644 | 102° | 77km/h | 10635m | -6.3m/s | -43.9°C | 23.8% | 259.3hPa | 2.5V | 00:00:00 | 00:00:00 | 00:00:00 | |
| KANTATE | 2026-09-04 07:14:59 | 49.33730 | 8.94616 | 106° | 75km/h | 10641m | -6.3m/s | -43.9°C | 23.8% | 259.1hPa | 2.5V | 00:00:00 | 00:00:00 | 00:00:00 | |
| DM7RM-13 | 2026-09-04 07:14:58 | 49.33736 | 8.94588 | 110° | 75km/h | 10648m | -6.5m/s | -44.0°C | 23.9% | 258.9hPa | 2.5V | 08:02:00 | 00:00:00 | 00:00:00 | |
| DG9SBQ-11 | 2026-09-04 07:14:56 | 49.33750 | 8.94531 | 114° | 84km/h | 10660m | -6.0m/s | -44.1°C | 24.3% | 258.4hPa | 2.5V | 08:02:00 | 00:00:00 | 00:00:00 | |
| DF1GD-15 | 2026-09-04 07:14:55 | 49.33759 | 8.94501 | 115° | 88km/h | 10666m | -6.3m/s | -44.2°C | 24.4% | 258.1hPa | 2.5V | 08:02:00 | 00:00:00 | 00:00:00 | |
| DM0DOS-11 | 2026-09-04 07:14:54 | 49.33796 | 8.94324 | 101° | 97km/h | 10697m | -6.2m/s | -44.4°C | 28.4% | 256.9hPa | 2.5V | 08:02:32 | 02:44:03 | 00:00:00 | |
| DD1CC8 | 2026-09-04 07:14:52 | 49.33796 | 8.94324 | 101° | 95km/h | 10697m | -6.2m/s | -44.4°C | 24.6% | 256.9hPa | 2.5V | 00:00:00 | 00:00:00 | 00:00:00 | |
| DF7PN | 2026-09-04 07:14:46 | 49.33814 | 8.94162 | 103° | 75km/h | 10728m | -6.3m/s | -44.7°C | 23.5% | 255.7hPa | 2.5V | 00:00:00 | 00:00:00 | 00:00:00 | |
| DG9SBQ-11 | 2026-09-04 07:14:45 | 49.33814 | 8.94162 | 105° | 75km/h | 10728m | -6.3m/s | -44.7°C | 23.5% | 255.7hPa | 2.5V | 08:03:00 | 00:00:00 | 00:00:00 | |
| DM0DOS-11 | 2026-09-04 07:14:44 | 49.33851 | 8.94014 | 112° | 93km/h | 10759m | -6.2m/s | -45°C | 28.5% | 254.5hPa | 2.5V | 08:02:42 | 02:43:53 | 00:00:00 | |
| BIOWL1-15 | 2026-09-04 07:14:39 | 49.33869 | 8.93944 | 108° | 100km/h | 10772m | -6.5m/s | -45.1°C | 31% | 254.1hPa | 2.6V | 08:03:23 | 02:43:51 | 00:00:00 | |
| DM7RM-13 | 2026-09-04 07:14:38 | 49.33869 | 8.93944 | 109° | 100km/h | 10772m | -6.5m/s | -45.1°C | 25.3% | 254.0hPa | 2.5V | 08:03:00 | 00:00:00 | 00:00:00 | |
| DB0UT-7 | 2026-09-04 07:14:37 | 49.33882 | 8.93870 | 103° | 88km/h | 10785m | -6.3m/s | -45.1°C | 29.3% | 253.5hPa | 2.5V | 00:00:00 | 00:00:00 | 00:00:00 | |
| DG9SBQ-11 | 2026-09-04 07:14:35 | 49.33887 | 8.93833 | 101° | 95km/h | 10791m | -6.4m/s | -45.2°C | 25.1% | 253.3hPa | 2.5V | 08:03:00 | 00:00:00 | 00:00:00 | |
| DM0DOS-11 | 2026-09-04 07:14:34 | 49.33906 | 8.93676 | 106° | 75km/h | 10823m | -6.4m/s | -45.6°C | 29.3% | 252.2hPa | 2.5V | 08:02:52 | 02:43:43 | 00:00:00 | |
| DF2AP-13 | 2026-09-04 07:14:34 | 49.33894 | 8.93764 | 99° | 88km/h | 10804m | -6.3m/s | -45.4°C | 29.0% | 252.8hPa | 2.5V | 00:00:00 | 02:43:46 | 00:00:00 | |
| AZAK | 2026-09-04 07:14:33 | 49.33894 | 8.93764 | 99° | 84km/h | 10804m | -6.3m/s | 0°C | 0% | 0hPa | 2.5V | 00:00:00 | 00:00:00 | 00:00:00 | |
| DL0LBS | 2026-09-04 07:14:32 | 49.33897 | 8.93733 | 101° | 80km/h | 10810m | -6.5m/s | -45.5°C | 25.1% | 252.6hPa | 2.5V | 08:03:00 | 00:00:00 | 00:00:00 | |
| DO3MHA-11 | 2026-09-04 07:14:31 | 49.33906 | 8.93675 | 107° | 89km/h | 10823m | -6.3m/s | -45.6°C | 29.3% | 252.1hPa | 2.5V | 00:00:00 | 02:43:43 | 00:00:00 | |
| DG9SBQ-11 | 2026-09-04 07:14:29 | 49.33912 | 8.93648 | 111° | 77km/h | 10829m | -6.2m/s | -45.7°C | 25.7% | 251.9hPa | 2.5V | 08:03:00 | 00:00:00 | 00:00:00 | |
| DB0ND-19 | 2026-09-04 07:14:28 | 49.33928 | 8.93591 | 114° | 82km/h | 10842m | -6.7m/s | -45.8°C | 26.2% | 251.4hPa | 2.5V | 00:00:00 | 00:00:00 | 00:00:00 | |
| CB1BUN | 2026-09-04 07:14:25 | 49.33946 | 8.93529 | 114° | 93km/h | 10855m | -6.3m/s | -45.9°C | 27.3% | 250.9hPa | 2.5V | 08:03:00 | 00:00:00 | 00:00:00 | |
| DM0DOS-11 | 2026-09-04 07:14:24 | 49.33983 | 8.93349 | 100° | 93km/h | 10886m | -6.3m/s | -46.1°C | 32.9% | 249.7hPa | 2.5V | 08:03:02 | 02:43:33 | 00:00:00 | |
| DK7TD | 2026-09-04 07:14:23 | 49.33971 | 8.93422 | 106° | 100km/h | 10874m | -6.3m/s | 0°C | 0% | 0hPa | 2.5V | 18:12:15 | 02:43:35 | 00:00:00 | |
| DB0UT-9 | 2026-09-04 07:14:22 | 49.33971 | 8.93422 | 107° | 100km/h | 10874m | -6.3m/s | -46.0°C | 28.6% | 250.2hPa | 2.5V | 08:03:00 | 00:00:00 | 00:00:00 | |
| DD1CC8 | 2026-09-04 07:14:21 | 49.33987 | 8.93314 | 99° | 88km/h | 10893m | -6.2m/s | -46.2°C | 28.5% | 249.5hPa | 2.5V | 00:00:00 | 00:00:00 | 00:00:00 | |
| DJTTGO | 2026-09-04 07:14:19 | 49.33986 | 8.93314 | 101° | 89km/h | 10893m | -6.2m/s | -46.2°C | 28.5% | 249.5hPa | 2.5V | 08:03:00 | 00:00:00 | 00:00:00 | |
| DG9SBQ-11 | 2026-09-04 07:14:18 | 49.33990 | 8.93281 | 101° | 84km/h | 10899m | -6.4m/s | -46.3°C | 28.6% | 249.3hPa | 2.5V | 08:03:00 | 00:00:00 | 00:00:00 | |
| DM7RM-13 | 2026-09-04 07:14:17 | 49.33995 | 8.93250 | 103° | 78km/h | 10905m | -6.3m/s | -46.3°C | 29.1% | 249.0hPa | 2.5V | 08:03:00 | 00:00:00 | 00:00:00 | |
| NBG1-10 | 2026-09-04 07:14:15 | 49.34012 | 8.93165 | 113° | 91km/h | 10925m | -6.4m/s | -46.5°C | 36.4% | 248.2hPa | 2.5V | 00:00:00 | 02:43:27 | 00:00:00 | |
| DM0DOS-11 | 2026-09-04 07:14:14 | 49.34050 | 8.93045 | 115° | 95km/h | 10951m | -6.5m/s | -46.7°C | 42.2% | 247.3hPa | 2.5V | 08:03:12 | 02:43:23 | 00:00:00 | |
| BIOWL1-15 | 2026-09-04 07:14:13 | 49.34030 | 8.93108 | 117° | 86km/h | 10937m | -6.4m/s | -46.6°C | 41.4% | 247.8hPa | 2.5V | 08:03:23 | 02:43:25 | 00:00:00 | |
| HEMX73-11 | 2026-09-04 07:14:13 | 49.34029 | 8.93108 | 118° | 86km/h | 10938m | -6.4m/s | -46.6°C | 34.3% | 247.8hPa | 2.6V | 08:03:00 | 00:00:00 | 00:00:00 | |
| DL0LBS | 2026-09-04 07:14:12 | 49.34029 | 8.93108 | 118° | 86km/h | 10938m | -6.4m/s | -46.6°C | 34.3% | 247.8hPa | 2.6V | 08:03:00 | 00:00:00 | 00:00:00 | |
| DO3MHA-11 | 2026-09-04 07:14:11 | 49.34050 | 8.93045 | 116° | 91km/h | 10951m | -6.5m/s | -46.6°C | 42.2% | 247.2hPa | 2.6V | 00:00:00 | 02:43:23 | 00:00:00 | |
| DL1ZP-14 | 2026-09-04 07:14:09 | 49.34078 | 8.92939 | 108° | 100km/h | 10970m | -6.2m/s | -46.8°C | 38.7% | 246.6hPa | 2.6V | 00:00:00 | 00:00:00 | 00:00:00 | |
| DB0UT-7 | 2026-09-04 07:14:07 | 49.34086 | 8.92901 | 106° | 91km/h | 10976m | -6.2m/s | -46.8°C | 43.6% | 246.3hPa | 2.6V | 00:00:00 | 02:43:19 | 00:00:00 | |
| DG9SBQ-11 | 2026-09-04 07:14:06 | 49.34085 | 8.92901 | 106° | 99km/h | 10976m | -6.3m/s | -46.9°C | 38.4% | 246.3hPa | 2.6V | 08:03:00 | 00:00:00 | 00:00:00 | |
| DO8TBO-1 | 2026-09-04 07:14:05 | 49.34096 | 8.92830 | 102° | 86km/h | 10989m | -6.5m/s | -46.9°C | 42.4% | 245.9hPa | 2.6V | 00:00:00 | 02:43:17 | 00:00:00 | |
| DM0DOS-11 | 2026-09-04 07:14:04 | 49.34119 | 8.92709 | 113° | 80km/h | 11015m | -6.4m/s | -47.2°C | 42.7% | 245hPa | 2.6V | 08:03:22 | 02:43:13 | 00:00:00 | |
| BIOWL1-15 | 2026-09-04 07:13:57 | 49.34160 | 8.92586 | 116° | 100km/h | 11040m | -6.4m/s | -47.4°C | 47.5% | 244hPa | 2.6V | 08:05:05 | 02:43:09 | 00:00:00 | |
| BIOWL1-15 | 2026-09-04 07:13:51 | 49.34234 | 8.92242 | 113° | 80km/h | 11104m | -6.7m/s | -48.1°C | 53.2% | 241.6hPa | 2.6V | 08:05:05 | 02:42:59 | 00:00:00 | |
| DD1CC8 | 2026-09-04 07:13:50 | 49.34220 | 8.92300 | 106° | 80km/h | 11091m | -6.6m/s | -47.9°C | 43.6% | 242.1hPa | 2.6V | 00:00:00 | 00:00:00 | 00:00:00 | |
| DG9SBQ-11 | 2026-09-04 07:13:45 | 49.34242 | 8.92214 | 117° | 82km/h | 11111m | -6.8m/s | -48.1°C | 45.4% | 241.4hPa | 2.6V | 00:00:00 | 00:00:00 | 00:00:00 | |
| DM0DOS-11 | 2026-09-04 07:13:44 | 49.34295 | 8.92051 | 111° | 102km/h | 11144m | -6.5m/s | -48.4°C | 55.1% | 240.1hPa | 2.6V | 08:03:42 | 02:42:53 | 00:00:00 | |
| BIOWL1-15 | 2026-09-04 07:13:38 | 49.34328 | 8.91867 | 103° | 89km/h | 11176m | -6.7m/s | -48.7°C | 59.6% | 238.9hPa | 2.6V | 08:05:05 | 02:42:48 | 00:00:00 | |
| DB0UT-7 | 2026-09-04 07:13:37 | 49.34323 | 8.91901 | 103° | 91km/h | 11170m | -6.6m/s | -48.6°C | 56.5% | 239.1hPa | 2.6V | 00:00:00 | 00:00:00 | 00:00:00 | |
| DM7RM-13 | 2026-09-04 07:13:36 | 49.34323 | 8.91901 | 103° | 93km/h | 11170m | -6.6m/s | -48.6°C | 50.1% | 239.2hPa | 2.5V | 08:04:00 | 00:00:00 | 00:00:00 | |
| DO8TBO-1 | 2026-09-04 07:13:35 | 49.34333 | 8.91834 | 105° | 89km/h | 11183m | -6.8m/s | -48.7°C | 57.3% | 238.7hPa | 2.5V | 00:00:00 | 02:42:47 | 00:00:00 | |
| DM0DOS-11 | 2026-09-04 07:13:34 | 49.34362 | 8.91717 | 116° | 82km/h | 11209m | -6.6m/s | -49°C | 63.1% | 237.7hPa | 2.6V | 08:03:52 | 02:42:43 | 00:00:00 | |
| BIOWL1-15 | 2026-09-04 07:13:25 | 49.34434 | 8.91481 | 108° | 102km/h | 11255m | -6.8m/s | -49.4°C | 70.9% | 236.1hPa | 2.5V | 08:05:05 | 02:42:36 | 00:00:00 | |
| DM0DOS-11 | 2026-09-04 07:13:24 | 49.34453 | 8.91373 | 103° | 89km/h | 11275m | -6.8m/s | -49.6°C | 69.9% | 235.3hPa | 2.6V | 08:04:02 | 02:42:33 | 00:00:00 | |
| CB1BUN | 2026-09-04 07:13:23 | 49.34434 | 8.91480 | 109° | 102km/h | 11256m | -6.8m/s | -49.4°C | 63.2% | 236.1hPa | 2.6V | 08:04:00 | 00:00:00 | 00:00:00 | |
| DO3MHA-11 | 2026-09-04 07:13:21 | 49.34453 | 8.91373 | 104° | 84km/h | 11275m | -6.7m/s | -49.5°C | 69.9% | 235.3hPa | 2.6V | 08:04:00 | 02:42:33 | 00:00:00 | |
| DB0UT-9 | 2026-09-04 07:13:20 | 49.34453 | 8.91373 | 104° | 89km/h | 11275m | -6.8m/s | -49.6°C | 62.6% | 235.3hPa | 2.6V | 08:04:00 | 00:00:00 | 00:00:00 | |
| DG9SBQ-11 | 2026-09-04 07:13:17 | 49.34469 | 8.91280 | 109° | 78km/h | 11296m | -6.8m/s | -49.8°C | 62.8% | 234.7hPa | 2.6V | 00:00:00 | 00:00:00 | 00:00:00 | |
| DM7RM-13 | 2026-09-04 07:13:15 | 49.34483 | 8.91224 | 116° | 78km/h | 11310m | -6.8m/s | -50.0°C | 64.2% | 234.1hPa | 2.6V | 08:04:00 | 00:00:00 | 00:00:00 | |
| DM0DOS-11 | 2026-09-04 07:13:14 | 49.34536 | 8.91074 | 117° | 99km/h | 11343m | -6.8m/s | -50.3°C | 73.9% | 232.9hPa | 2.6V | 08:04:12 | 02:42:23 | 00:00:00 | |
| BIOWL1-15 | 2026-09-04 07:13:13 | 49.34513 | 8.91139 | 120° | 91km/h | 11330m | -6.7m/s | -50.1°C | 73% | 233.3hPa | 2.5V | 08:05:05 | 02:42:25 | 00:00:00 | |
| DG9SBQ-11 | 2026-09-04 07:13:12 | 49.34513 | 8.91138 | 121° | 91km/h | 11330m | -6.7m/s | -50.1°C | 65.0% | 233.3hPa | 2.5V | 00:00:00 | 00:00:00 | 00:00:00 | |
| DO3MHA-11 | 2026-09-04 07:13:11 | 49.34536 | 8.91074 | 118° | 91km/h | 11343m | -6.7m/s | -50.2°C | 73.9% | 232.9hPa | 2.5V | 00:00:00 | 02:42:23 | 00:00:00 | |
| DL0LBS | 2026-09-04 07:13:10 | 49.34536 | 8.91074 | 118° | 99km/h | 11343m | -6.8m/s | -50.3°C | 66.1% | 232.9hPa | 2.5V | 08:04:00 | 00:00:00 | 00:00:00 | |
| NBG1-10 | 2026-09-04 07:13:08 | 49.34566 | 8.90966 | 109° | 86km/h | 11363m | -6.7m/s | -50.4°C | 72.7% | 232.2hPa | 2.5V | 00:00:00 | 02:42:20 | 00:00:00 | |
| DL1ZP-14 | 2026-09-04 07:13:07 | 49.34579 | 8.90895 | 104° | 89km/h | 11376m | -6.6m/s | -50.6°C | 62.8% | 231.7hPa | 2.6V | 00:00:00 | 00:00:00 | 00:00:00 | |
| DK5PH-5 | 2026-09-04 07:13:06 | 49.34579 | 8.90895 | 105° | 88km/h | 11377m | -6.6m/s | -50.5°C | 70.4% | 231.7hPa | 2.6V | 00:00:00 | 02:42:18 | 00:00:00 | |
| DM0DOS-11 | 2026-09-04 07:13:04 | 49.34611 | 8.90748 | 116° | 77km/h | 11411m | -6.8m/s | -50.9°C | 66.2% | 230.6hPa | 2.5V | 08:04:22 | 02:42:13 | 00:00:00 | |
| DF2AP-13 | 2026-09-04 07:13:04 | 49.34590 | 8.90831 | 107° | 86km/h | 11390m | -7.1m/s | -50.7°C | 68.5% | 231.2hPa | 2.5V | 00:00:00 | 02:42:16 | 00:00:00 | |
| CB1BUN | 2026-09-04 07:13:02 | 49.34596 | 8.90802 | 110° | 77km/h | 11397m | -6.9m/s | -50.8°C | 60.4% | 231.0hPa | 2.5V | 08:05:00 | 00:00:00 | 00:00:00 | |
| DL8DAS-14 | 2026-09-04 07:12:59 | 49.34631 | 8.90694 | 120° | 84km/h | 11424m | -6.6m/s | -51.1°C | 56.5% | 230.1hPa | 2.5V | 00:00:00 | 00:00:00 | 00:00:00 | |
| BIOWL9-15 | 2026-09-04 07:12:58 | 49.34642 | 8.90665 | 120° | 89km/h | 11431m | -6.8m/s | -51.1°C | 55.2% | 229.8hPa | 2.5V | 00:00:00 | 00:00:00 | 00:00:00 | |
| DF3TZ-5 | 2026-09-04 07:12:56 | 49.34665 | 8.90600 | 116° | 97km/h | 11444m | -6.8m/s | -51.2°C | 52.9% | 229.3hPa | 2.5V | 00:00:00 | 00:00:00 | 00:00:00 | |
| DB0ND-19 | 2026-09-04 07:12:55 | 49.34675 | 8.90566 | 112° | 99km/h | 11451m | -6.5m/s | -51.2°C | 50.9% | 229.1hPa | 2.5V | 00:00:00 | 00:00:00 | 00:00:00 | |
| DM0DOS-11 | 2026-09-04 07:12:54 | 49.34703 | 8.90427 | 104° | 84km/h | 11478m | -6.8m/s | -51.4°C | 49.5% | 228.2hPa | 2.5V | 08:04:32 | 02:42:03 | 00:00:00 | |
| BIOWL1-15 | 2026-09-04 07:12:49 | 49.34714 | 8.90368 | 107° | 75km/h | 11491m | -6.7m/s | -51.6°C | 49.8% | 227.7hPa | 2.5V | 08:05:05 | 02:42:01 | 00:00:00 | |
| DD1CC8 | 2026-09-04 07:12:47 | 49.34728 | 8.90315 | 115° | 73km/h | 11505m | -6.7m/s | -51.7°C | 40.6% | 227.2hPa | 2.6V | 00:00:00 | 00:00:00 | 00:00:00 | |
| DN1GJH-1 | 2026-09-04 07:12:45 | 49.34736 | 8.90289 | 120° | 77km/h | 11511m | -6.4m/s | -51.8°C | 40.1% | 227.0hPa | 2.6V | 08:05:00 | 00:00:00 | 00:00:00 | |
| DM0DOS-11 | 2026-09-04 07:12:44 | 49.34789 | 8.90138 | 112° | 97km/h | 11544m | -6.6m/s | -52°C | 48.7% | 225.8hPa | 2.6V | 08:04:42 | 02:41:53 | 00:00:00 | |
| BIOWL1-15 | 2026-09-04 07:12:38 | 49.34811 | 8.90035 | 104° | 88km/h | 11564m | -6.7m/s | -52.2°C | 52.7% | 225.2hPa | 2.5V | 08:05:05 | 02:41:50 | 00:00:00 | |
| DB0UT-7 | 2026-09-04 07:12:37 | 49.34816 | 8.90002 | 103° | 82km/h | 11571m | -6.6m/s | -52.1°C | 51.1% | 224.8hPa | 2.5V | 00:00:00 | 00:00:00 | 00:00:00 | |
| DK5PH-5 | 2026-09-04 07:12:35 | 49.34825 | 8.89944 | 107° | 82km/h | 11585m | -6.8m/s | -52.4°C | 53.1% | 224.4hPa | 2.5V | 00:00:00 | 02:41:47 | 00:00:00 | |
| DM0DOS-11 | 2026-09-04 07:12:34 | 49.34856 | 8.89840 | 120° | 80km/h | 11611m | -6.8m/s | -52.6°C | 59.1% | 223.5hPa | 2.5V | 08:04:52 | 02:41:43 | 00:00:00 | |
| BIOWL1-15 | 2026-09-04 07:12:28 | 49.34888 | 8.89749 | 115° | 95km/h | 11632m | -6.8m/s | -52.8°C | 63.6% | 222.8hPa | 2.5V | 08:05:05 | 02:41:40 | 00:00:00 | |
| BIOWL1-15 | 2026-09-04 07:12:17 | 49.34962 | 8.89420 | 120° | 78km/h | 11707m | -7m/s | -53.5°C | 64.9% | 220.2hPa | 2.5V | 08:05:56 | 02:41:29 | 00:00:00 | |
| DM0DOS-11 | 2026-09-04 07:12:15 | 49.35019 | 8.89231 | 106° | 95km/h | 11749m | -6.6m/s | -53.8°C | 62.2% | 218.8hPa | 2.5V | 08:05:12 | 02:41:23 | 00:00:00 | |
| BIOWL1-15 | 2026-09-04 07:12:06 | 49.35042 | 8.89072 | 105° | 73km/h | 11783m | -7m/s | -54.1°C | 61.9% | 217.6hPa | 2.5V | 08:05:56 | 02:41:18 | 00:00:00 | |
| DM0DOS-11 | 2026-09-04 07:12:04 | 49.35081 | 8.88939 | 118° | 86km/h | 11816m | -6.5m/s | -54.4°C | 62.2% | 216.5hPa | 2.6V | 08:05:22 | 02:41:13 | 00:00:00 | |
| BIOWL1-15 | 2026-09-04 07:11:55 | 49.35129 | 8.88740 | 102° | 86km/h | 11857m | -7m/s | -54.6°C | 60.7% | 215.1hPa | 2.6V | 08:05:56 | 02:41:07 | 00:00:00 | |
| DM0DOS-11 | 2026-09-04 07:11:54 | 49.35149 | 8.88626 | 112° | 71km/h | 11884m | -6.8m/s | -54.9°C | 58.7% | 214.2hPa | 2.5V | 08:05:32 | 02:41:03 | 00:00:00 | |
| DB0ND-19 | 2026-09-04 07:11:53 | 49.35138 | 8.88679 | 103° | 75km/h | 11871m | -6.6m/s | -54.7°C | 50.4% | 214.7hPa | 2.5V | 00:00:00 | 00:00:00 | 00:00:00 | |
| BIOWL1-15 | 2026-09-04 07:11:46 | 49.35214 | 8.88415 | 109° | 95km/h | 11932m | -7m/s | -55.2°C | 59.4% | 212.7hPa | 2.5V | 08:05:56 | 02:40:56 | 00:00:00 | |
| DD1CC8 | 2026-09-04 07:11:46 | 49.35206 | 8.88450 | 111° | 95km/h | 11925m | -7.0m/s | -55.2°C | 51.9% | 212.9hPa | 2.5V | 00:00:00 | 00:00:00 | 00:00:00 | |
| DG9SBQ-11 | 2026-09-04 07:11:45 | 49.35205 | 8.88450 | 113° | 95km/h | 11925m | -7.0m/s | -55.2°C | 51.9% | 212.9hPa | 2.5V | 08:05:00 | 00:00:00 | 00:00:00 | |
| DM0DOS-11 | 2026-09-04 07:11:44 | 49.35231 | 8.88314 | 101° | 84km/h | 11953m | -6.9m/s | -55.4°C | 56.8% | 211.9hPa | 2.5V | 08:05:42 | 02:40:53 | 00:00:00 | |
| BIOWL1-15 | 2026-09-04 07:11:34 | 49.35297 | 8.88064 | 116° | 93km/h | 12015m | -6.9m/s | -55.9°C | 56.6% | 209.9hPa | 2.5V | 08:05:56 | 02:40:44 | 00:00:00 | |
| DG9SBQ-11 | 2026-09-04 07:11:34 | 49.35275 | 8.88125 | 120° | 84km/h | 12001m | -6.9m/s | -55.8°C | 48.1% | 210.3hPa | 2.5V | 08:05:00 | 00:00:00 | 00:00:00 | |
| DL1ZP-14 | 2026-09-04 07:11:33 | 49.35286 | 8.88096 | 118° | 88km/h | 12008m | -6.8m/s | -55.9°C | 48.3% | 210.1hPa | 2.5V | 00:00:00 | 00:00:00 | 00:00:00 | |
| DO3MHA-11 | 2026-09-04 07:11:31 | 49.35306 | 8.88031 | 114° | 84km/h | 12022m | -6.8m/s | -55.9°C | 57.1% | 209.6hPa | 2.6V | 00:00:00 | 02:40:43 | 00:00:00 | |
| NBG1-10 | 2026-09-04 07:11:29 | 49.35323 | 8.87960 | 107° | 86km/h | 12035m | -6.7m/s | -56.0°C | 56.8% | 209.2hPa | 2.6V | 08:05:00 | 02:40:41 | 00:00:00 | |
| HEMX73-11 | 2026-09-04 07:11:28 | 49.35323 | 8.87960 | 107° | 97km/h | 12035m | -6.8m/s | -56.1°C | 48.6% | 209.2hPa | 2.5V | 00:00:00 | 00:00:00 | 00:00:00 | |
| DG9SBQ-11 | 2026-09-04 07:11:27 | 49.35329 | 8.87925 | 104° | 93km/h | 12042m | -7.1m/s | -56.1°C | 48.2% | 209.0hPa | 2.5V | 08:05:00 | 00:00:00 | 00:00:00 | |
| DL0LBS | 2026-09-04 07:11:26 | 49.35334 | 8.87891 | 103° | 88km/h | 12049m | -7.0m/s | -56.2°C | 47.8% | 208.8hPa | 2.5V | 08:05:00 | 00:00:00 | 00:00:00 | |
| BIOWL9-15 | 2026-09-04 07:11:25 | 49.35346 | 8.87800 | 104° | 71km/h | 12070m | -6.9m/s | -56.5°C | 47.5% | 208.1hPa | 2.5V | 00:00:00 | 00:00:00 | 00:00:00 | |
| DM0DOS-11 | 2026-09-04 07:11:24 | 49.35364 | 8.87724 | 115° | 71km/h | 12091m | -7m/s | -56.7°C | 56.6% | 207.4hPa | 2.5V | 08:06:02 | 02:40:33 | 00:00:00 | |
| DK7TD | 2026-09-04 07:11:24 | 49.35346 | 8.87800 | 104° | 73km/h | 12070m | -6.9m/s | 0°C | 0% | 0hPa | 2.6V | 18:12:15 | 02:40:36 | 00:00:00 | |
| BIOWL1-15 | 2026-09-04 07:11:21 | 49.35414 | 8.87585 | 117° | 93km/h | 12126m | -6.8m/s | -56.9°C | 58% | 206.3hPa | 2.5V | 08:06:47 | 02:40:28 | 00:00:00 | |
| DO3MHA-11 | 2026-09-04 07:11:21 | 49.35364 | 8.87724 | 116° | 88km/h | 12091m | -6.9m/s | -56.6°C | 56.6% | 207.4hPa | 2.5V | 00:00:00 | 02:40:33 | 00:00:00 | |
| SFWM-10 | 2026-09-04 07:11:18 | 49.35393 | 8.87645 | 121° | 84km/h | 12112m | -6.8m/s | -56.9°C | 49.2% | 206.7hPa | 2.5V | 08:06:00 | 00:00:00 | 00:00:00 | |
| DG9SBQ-11 | 2026-09-04 07:11:17 | 49.35393 | 8.87645 | 121° | 84km/h | 12112m | -6.8m/s | -56.9°C | 49.2% | 206.7hPa | 2.5V | 08:06:00 | 00:00:00 | 00:00:00 | |
| DD1CC8 | 2026-09-04 07:11:14 | 49.35434 | 8.87517 | 110° | 97km/h | 12139m | -6.9m/s | -57.1°C | 51.3% | 205.9hPa | 2.5V | 00:00:00 | 00:00:00 | 00:00:00 | |
| DM3KS-11 | 2026-09-04 07:11:13 | 49.35448 | 8.87447 | 104° | 91km/h | 12153m | -7.0m/s | -57.2°C | 50.4% | 205.4hPa | 2.5V | 00:00:00 | 00:00:00 | 00:00:00 | |
| DM0DOS-11 | 2026-09-04 07:11:11 | 49.35482 | 8.87269 | 116° | 73km/h | 12194m | -6.6m/s | -57.6°C | 55.7% | 204hPa | 2.5V | 08:06:17 | 02:40:18 | 00:00:00 | |
| BIOWL1-15 | 2026-09-04 07:11:07 | 49.35474 | 8.87295 | 111° | 71km/h | 12187m | -6.3m/s | -57.5°C | 57.5% | 204.3hPa | 2.5V | 08:06:47 | 02:40:19 | 00:00:00 | |
| BIOWL1-15 | 2026-09-04 07:10:56 | 49.35582 | 8.86886 | 105° | 78km/h | 12276m | -6.7m/s | -58.1°C | 56.7% | 201.4hPa | 2.5V | 08:06:47 | 02:40:06 | 00:00:00 | |
| DL8DAS-14 | 2026-09-04 07:10:55 | 49.35582 | 8.86886 | 105° | 77km/h | 12276m | -6.7m/s | -58.1°C | 46.4% | 201.4hPa | 2.5V | 00:00:00 | 00:00:00 | 00:00:00 | |
| DM0DOS-11 | 2026-09-04 07:10:54 | 49.35603 | 8.86804 | 116° | 77km/h | 12297m | -7.1m/s | -58.3°C | 54.5% | 200.8hPa | 2.5V | 08:06:32 | 02:40:03 | 00:00:00 | |
| BIOWL9-15 | 2026-09-04 07:10:54 | 49.35588 | 8.86858 | 108° | 75km/h | 12283m | -6.8m/s | -58.2°C | 46.0% | 201.2hPa | 2.5V | 00:00:00 | 00:00:00 | 00:00:00 | |
| DF3TZ-5 | 2026-09-04 07:10:52 | 49.35595 | 8.86831 | 113° | 73km/h | 12290m | -7.0m/s | -58.3°C | 46.2% | 201.0hPa | 2.5V | 00:00:00 | 00:00:00 | 00:00:00 | |
| DB0ND-19 | 2026-09-04 07:10:51 | 49.35603 | 8.86804 | 116° | 75km/h | 12297m | -7.1m/s | -58.3°C | 46.1% | 200.8hPa | 2.5V | 00:00:00 | 00:00:00 | 00:00:00 | |
| BIOWL1-15 | 2026-09-04 07:10:45 | 49.35679 | 8.86579 | 111° | 106km/h | 12346m | -7m/s | -58.6°C | 57.1% | 199.2hPa | 2.5V | 08:06:47 | 02:39:56 | 00:00:00 | |
| DL0LBS | 2026-09-04 07:10:45 | 49.35669 | 8.86617 | 115° | 104km/h | 12339m | -6.8m/s | -58.6°C | 50.1% | 199.5hPa | 2.6V | 08:06:00 | 00:00:00 | 00:00:00 | |
| DM0DOS-11 | 2026-09-04 07:10:43 | 49.35720 | 8.86364 | 107° | 82km/h | 12388m | -6.6m/s | -59.1°C | 55% | 197.9hPa | 2.6V | 08:06:45 | 02:39:50 | 00:00:00 | |
| DK7TD | 2026-09-04 07:10:43 | 49.35688 | 8.86541 | 109° | 104km/h | 12353m | -6.9m/s | 0°C | 0% | 0hPa | 2.6V | 18:12:15 | 02:39:55 | 00:00:00 | |
| BIOWL1-15 | 2026-09-04 07:10:37 | 49.35744 | 8.86279 | 119° | 82km/h | 12408m | -6.9m/s | -59.3°C | 56.1% | 197.3hPa | 2.5V | 08:07:38 | 02:39:47 | 00:00:00 | |
| DB0UT-7 | 2026-09-04 07:10:37 | 49.35727 | 8.86335 | 112° | 97km/h | 12395m | -6.8m/s | -59.1°C | 54.4% | 197.7hPa | 2.6V | 00:00:00 | 00:00:00 | 00:00:00 | |
| DB0UT-9 | 2026-09-04 07:10:36 | 49.35735 | 8.86306 | 117° | 80km/h | 12402m | -6.8m/s | -59.2°C | 46.1% | 197.5hPa | 2.5V | 08:06:00 | 00:00:00 | 00:00:00 | |
| DK5PH-5 | 2026-09-04 07:10:34 | 49.35755 | 8.86250 | 121° | 97km/h | 12416m | -7.1m/s | -59.3°C | 55.4% | 197.0hPa | 2.5V | 00:00:00 | 02:39:46 | 00:00:00 | |
| DM0DOS-11 | 2026-09-04 07:10:33 | 49.35827 | 8.86040 | 111° | 108km/h | 12457m | -6.9m/s | -59.5°C | 59.1% | 195.7hPa | 2.5V | 08:06:55 | 02:39:40 | 00:00:00 | |
| DK7TD | 2026-09-04 07:10:31 | 49.35792 | 8.86153 | 119° | 104km/h | 12436m | -7m/s | 0°C | 0% | 0hPa | 2.6V | 18:12:15 | 02:39:43 | 00:00:00 | |
| BIOWL1-15 | 2026-09-04 07:10:24 | 49.35857 | 8.85890 | 105° | 91km/h | 12484m | -6.5m/s | -59.9°C | 55.8% | 194.9hPa | 2.5V | 08:07:38 | 02:39:36 | 00:00:00 | |
| DB0NH | 2026-09-04 07:10:24 | 49.35857 | 8.85890 | 106° | 99km/h | 12485m | -6.5m/s | -59.8°C | 56.1% | 194.8hPa | 2.5V | 00:00:00 | 02:39:36 | 00:00:00 | |
| DM0DOS-11 | 2026-09-04 07:10:23 | 49.35911 | 8.85712 | 123° | 91km/h | 12526m | -7.1m/s | -60.3°C | 55.2% | 193.7hPa | 2.5V | 08:07:05 | 02:39:30 | 00:00:00 | |
| BIOWL1-15 | 2026-09-04 07:10:13 | 49.35992 | 8.85503 | 115° | 111km/h | 12568m | -6.6m/s | -60.6°C | 53.7% | 192.3hPa | 2.5V | 08:07:38 | 02:39:24 | 00:00:00 | |
| DM0DOS-11 | 2026-09-04 07:10:13 | 49.36029 | 8.85351 | 108° | 95km/h | 12595m | -6.7m/s | -60.7°C | 53.3% | 191.5hPa | 2.5V | 08:07:15 | 02:39:20 | 00:00:00 | |
| DO3MHA-11 | 2026-09-04 07:10:11 | 49.36003 | 8.85464 | 112° | 93km/h | 12575m | -6.4m/s | -60.6°C | 54.5% | 192.1hPa | 2.6V | 00:00:00 | 02:39:23 | 00:00:00 | |
| DF1GD-15 | 2026-09-04 07:10:09 | 49.36021 | 8.85387 | 110° | 100km/h | 12589m | -6.7m/s | -60.7°C | 44.6% | 191.7hPa | 2.6V | 08:07:00 | 00:00:00 | 00:00:00 | |
| DF7PN | 2026-09-04 07:10:07 | 49.36044 | 8.85285 | 112° | 84km/h | 12609m | -6.7m/s | -60.9°C | 43.8% | 191.1hPa | 2.6V | 00:00:00 | 00:00:00 | 00:00:00 | |
| DF2AP-13 | 2026-09-04 07:10:04 | 49.36062 | 8.85227 | 120° | 99km/h | 12623m | -6.7m/s | -60.9°C | 53.0% | 190.6hPa | 2.6V | 00:00:00 | 02:39:16 | 00:00:00 | |
| DM0DOS-11 | 2026-09-04 07:10:03 | 49.36145 | 8.85032 | 119° | 113km/h | 12663m | -6.5m/s | -61.3°C | 53.8% | 189.4hPa | 2.6V | 08:07:25 | 02:39:10 | 00:00:00 | |
| BIOWL1-15 | 2026-09-04 07:10:02 | 49.36101 | 8.85138 | 125° | 100km/h | 12643m | -6.1m/s | -61.1°C | 52.8% | 190hPa | 2.5V | 08:07:38 | 02:39:13 | 00:00:00 | |
| DL1ZP-14 | 2026-09-04 07:10:00 | 49.36116 | 8.85105 | 123° | 106km/h | 12650m | -6.6m/s | -61.2°C | 44.4% | 189.8hPa | 2.6V | 00:00:00 | 00:00:00 | 00:00:00 | |
| DG9SBQ-11 | 2026-09-04 07:09:59 | 49.36116 | 8.85105 | 124° | 106km/h | 12650m | -6.6m/s | -61.2°C | 44.4% | 189.8hPa | 2.6V | 08:07:00 | 00:00:00 | 00:00:00 | |
| DN1GJH-1 | 2026-09-04 07:09:57 | 49.36145 | 8.85032 | 120° | 113km/h | 12663m | -6.5m/s | -61.3°C | 44.5% | 189.4hPa | 2.6V | 08:07:00 | 00:00:00 | 00:00:00 | |
| CB1BUN | 2026-09-04 07:09:56 | 49.36158 | 8.84993 | 116° | 113km/h | 12669m | -6.3m/s | -61.3°C | 44.5% | 189.2hPa | 2.6V | 08:07:00 | 00:00:00 | 00:00:00 | |
| DM0DOS-11 | 2026-09-04 07:09:54 | 49.36253 | 8.84695 | 126° | 97km/h | 12729m | -6.5m/s | -61.7°C | 54% | 187.4hPa | 2.6V | 08:07:35 | 02:39:00 | 00:00:00 | |
| BIOWL1-15 | 2026-09-04 07:09:50 | 49.36227 | 8.84753 | 122° | 88km/h | 12716m | -6.8m/s | -61.6°C | 53.1% | 187.8hPa | 2.5V | 08:07:38 | 02:39:02 | 00:00:00 | |
| DB0ND-19 | 2026-09-04 07:09:49 | 49.36239 | 8.84725 | 125° | 89km/h | 12723m | -6.6m/s | -61.6°C | 44.4% | 187.6hPa | 2.5V | 00:00:00 | 00:00:00 | 00:00:00 | |
| DG9SBQ-11 | 2026-09-04 07:09:48 | 49.36239 | 8.84725 | 126° | 91km/h | 12723m | -6.6m/s | -61.6°C | 44.4% | 187.6hPa | 2.5V | 08:07:00 | 00:00:00 | 00:00:00 | |
| DF1GD-15 | 2026-09-04 07:09:47 | 49.36253 | 8.84695 | 128° | 97km/h | 12730m | -6.5m/s | -61.7°C | 44.6% | 187.4hPa | 2.5V | 08:07:00 | 00:00:00 | 00:00:00 | |
| DM0DOS-11 | 2026-09-04 07:09:43 | 49.36374 | 8.84344 | 115° | 86km/h | 12798m | -7.1m/s | -62.3°C | 55.4% | 185.3hPa | 2.5V | 08:07:45 | 02:38:50 | 00:00:00 | |
| BIOWL1-15 | 2026-09-04 07:09:39 | 49.36365 | 8.84375 | 113° | 91km/h | 12791m | -6.7m/s | -62.3°C | 54.3% | 185.5hPa | 2.5V | 08:08:29 | 02:38:51 | 00:00:00 | |
| DB0UT-7 | 2026-09-04 07:09:37 | 49.36384 | 8.84314 | 120° | 102km/h | 12805m | -6.8m/s | -62.3°C | 55.3% | 185.0hPa | 2.5V | 00:00:00 | 00:00:00 | 00:00:00 | |
| HEMX73-11 | 2026-09-04 07:09:36 | 49.36395 | 8.84286 | 125° | 86km/h | 12812m | -6.9m/s | -62.5°C | 45.6% | 184.8hPa | 2.5V | 08:08:00 | 00:00:00 | 00:00:00 | |
| KANTATE | 2026-09-04 07:09:35 | 49.36395 | 8.84286 | 125° | 86km/h | 12812m | -6.9m/s | -62.5°C | 45.6% | 184.8hPa | 2.5V | 00:00:00 | 00:00:00 | 00:00:00 | |
| DM0DOS-11 | 2026-09-04 07:09:34 | 49.36513 | 8.84025 | 116° | 110km/h | 12868m | -6.5m/s | -62.9°C | 57.1% | 183.2hPa | 2.5V | 08:07:55 | 02:38:40 | 00:00:00 | |
| BIOWL1-15 | 2026-09-04 07:09:29 | 49.36500 | 8.84063 | 120° | 111km/h | 12861m | -6.4m/s | -62.9°C | 54.8% | 183.4hPa | 2.6V | 08:08:29 | 02:38:41 | 00:00:00 | |
| BIOWL1-15 | 2026-09-04 07:09:25 | 49.36620 | 8.83741 | 130° | 100km/h | 12931m | -7.1m/s | -63.5°C | 54.4% | 181.3hPa | 2.6V | 08:08:29 | 02:38:31 | 00:00:00 | |
| DB0NH | 2026-09-04 07:09:24 | 49.36555 | 8.83885 | 117° | 104km/h | 12896m | -6.7m/s | -63.1°C | 57.0% | 182.4hPa | 2.6V | 00:00:00 | 02:38:36 | 00:00:00 | |
| DM0DOS-11 | 2026-09-04 07:09:23 | 49.36637 | 8.83709 | 129° | 108km/h | 12938m | -7m/s | -63.5°C | 56.4% | 181.1hPa | 2.6V | 08:08:05 | 02:38:30 | 00:00:00 | |
| DL8DAS-14 | 2026-09-04 07:09:22 | 49.36577 | 8.83827 | 125° | 86km/h | 12909m | -6.6m/s | -63.3°C | 46.6% | 182.0hPa | 2.5V | 00:00:00 | 00:00:00 | 00:00:00 | |
| DO3MHA-11 | 2026-09-04 07:09:21 | 49.36590 | 8.83799 | 128° | 110km/h | 12917m | -6.8m/s | -63.3°C | 56.5% | 181.7hPa | 2.5V | 00:00:00 | 02:38:33 | 00:00:00 | |
| DL0LBS | 2026-09-04 07:09:20 | 49.36590 | 8.83799 | 129° | 91km/h | 12917m | -6.9m/s | -63.3°C | 46.4% | 181.7hPa | 2.5V | 08:08:00 | 00:00:00 | 00:00:00 | |
| DF3TZ-5 | 2026-09-04 07:09:19 | 49.36620 | 8.83741 | 129° | 100km/h | 12931m | -7.1m/s | -63.5°C | 46.3% | 181.3hPa | 2.5V | 00:00:00 | 00:00:00 | 00:00:00 | |
| DB0ND-19 | 2026-09-04 07:09:18 | 49.36637 | 8.83709 | 129° | 106km/h | 12938m | -7.1m/s | -63.5°C | 46.2% | 181.1hPa | 2.5V | 00:00:00 | 00:00:00 | 00:00:00 | |
| DL8DAS-15 | 2026-09-04 07:09:17 | 49.36637 | 8.83709 | 131° | 108km/h | 12938m | -7.1m/s | -63.5°C | 46.2% | 181.1hPa | 2.5V | 00:00:00 | 00:00:00 | 00:00:00 | |
| DG9SBQ-11 | 2026-09-04 07:09:15 | 49.36671 | 8.83640 | 127° | 115km/h | 12952m | -6.8m/s | -63.6°C | 46.3% | 180.8hPa | 2.5V | 08:08:00 | 00:00:00 | 00:00:00 | |
| KANTATE | 2026-09-04 07:09:14 | 49.36688 | 8.83603 | 123° | 117km/h | 12959m | -7.0m/s | -63.6°C | 46.3% | 180.5hPa | 2.5V | 00:00:00 | 00:00:00 | 00:00:00 | |
| DM0DOS-11 | 2026-09-04 07:09:13 | 49.36771 | 8.83338 | 116° | 93km/h | 13010m | -7m/s | -63.9°C | 55.7% | 179hPa | 2.5V | 08:08:15 | 02:38:20 | 00:00:00 | |
| BIOWL1-15 | 2026-09-04 07:09:09 | 49.36761 | 8.83371 | 114° | 97km/h | 13003m | -6.7m/s | -63.8°C | 53.5% | 179.2hPa | 2.5V | 08:08:29 | 02:38:21 | 00:00:00 | |
| DB0UT-7 | 2026-09-04 07:09:07 | 49.36782 | 8.83307 | 121° | 106km/h | 13017m | -7.3m/s | -63.9°C | 55.5% | 178.8hPa | 2.6V | 00:00:00 | 02:38:19 | 00:00:00 | |
| DL8DAS-15 | 2026-09-04 07:09:06 | 49.36782 | 8.83307 | 122° | 91km/h | 13017m | -7.3m/s | -63.9°C | 45.2% | 178.8hPa | 2.5V | 00:00:00 | 00:00:00 | 00:00:00 | |
| DF1GD-15 | 2026-09-04 07:09:05 | 49.36794 | 8.83277 | 125° | 91km/h | 13025m | -7.3m/s | -64.0°C | 45.1% | 178.6hPa | 2.5V | 08:08:00 | 00:00:00 | 00:00:00 | |
| DK5PH-5 | 2026-09-04 07:09:04 | 49.36823 | 8.83218 | 129° | 106km/h | 13039m | -7.4m/s | -64.1°C | 55.4% | 178.2hPa | 2.5V | 00:00:00 | 02:38:16 | 00:00:00 | |
| DF2AP-13 | 2026-09-04 07:09:02 | 49.36857 | 8.83152 | 128° | 106km/h | 13053m | -6.7m/s | -64.1°C | 55.1% | 177.7hPa | 2.5V | 00:00:00 | 02:38:14 | 00:00:00 | |
| DO3MHA-11 | 2026-09-04 07:09:01 | 49.36874 | 8.83116 | 125° | 106km/h | 13060m | -7.1m/s | -64.1°C | 55.0% | 177.5hPa | 2.5V | 00:00:00 | 02:38:13 | 00:00:00 | |
| DL0LBS | 2026-09-04 07:09:00 | 49.36874 | 8.83116 | 125° | 117km/h | 13060m | -7.2m/s | -64.2°C | 44.6% | 177.6hPa | 2.5V | 08:08:00 | 00:00:00 | 00:00:00 | |
| DM0DOS-11 | 2026-09-04 07:08:59 | 49.36918 | 8.82998 | 116° | 117km/h | 13081m | -7m/s | -64.3°C | 54.7% | 177hPa | 2.5V | 08:08:25 | 02:38:10 | 00:00:00 | |
| BIOWL1-15 | 2026-09-04 07:08:58 | 49.36930 | 8.82958 | 114° | 111km/h | 13088m | -7.3m/s | -64.4°C | 51.8% | 176.8hPa | 2.6V | 08:08:29 | 02:38:09 | 00:00:00 | |
| DK7TD | 2026-09-04 07:08:55 | 49.36951 | 8.82882 | 113° | 100km/h | 13103m | -7.6m/s | 0°C | 0% | 0hPa | 2.5V | 18:12:15 | 02:38:07 | 00:00:00 | |
| DL8DAS-14 | 2026-09-04 07:08:51 | 49.36996 | 8.82755 | 125° | 95km/h | 13133m | -7.3m/s | -64.6°C | 43.3% | 175.6hPa | 2.5V | 00:00:00 | 00:00:00 | 00:00:00 | |
| BIOWL9-15 | 2026-09-04 07:08:50 | 49.37026 | 8.82693 | 126° | 106km/h | 13148m | -6.4m/s | -64.7°C | 43.2% | 175.1hPa | 2.5V | 00:00:00 | 00:00:00 | 00:00:00 | |
| DM0DOS-11 | 2026-09-04 07:08:49 | 49.37043 | 8.82658 | 126° | 113km/h | 13155m | -6.5m/s | -64.6°C | 52.9% | 174.9hPa | 2.5V | 08:08:35 | 02:38:00 | 00:00:00 | |
| HSKMA3-T | 2026-09-04 07:08:48 | 49.37043 | 8.82658 | 126° | 113km/h | 13155m | -6.5m/s | -64.6°C | 50.3% | 174.9hPa | 2.5V | 08:13:35 | 02:38:00 | 00:00:00 | |
| DB0ND-19 | 2026-09-04 07:08:47 | 49.37059 | 8.82622 | 123° | 117km/h | 13161m | -6.7m/s | -64.6°C | 42.4% | 174.7hPa | 2.6V | 00:00:00 | 00:00:00 | 00:00:00 | |
| DK7TD | 2026-09-04 07:08:41 | 49.37134 | 8.82380 | 111° | 104km/h | 13206m | -7.6m/s | 0°C | 0% | 0hPa | 2.6V | 18:12:15 | 02:37:53 | 00:00:00 | |
| DO3MHA-11 | 2026-09-04 07:08:41 | 49.37134 | 8.82380 | 111° | 99km/h | 13206m | -7.5m/s | -64.8°C | 52.5% | 173.3hPa | 2.5V | 00:00:00 | 02:37:53 | 00:00:00 | |
| DG9SBQ-11 | 2026-09-04 07:08:40 | 49.37134 | 8.82380 | 112° | 104km/h | 13206m | -7.6m/s | -64.9°C | 42.1% | 173.4hPa | 2.5V | 08:09:00 | 00:00:00 | 00:00:00 | |
| DM0DOS-11 | 2026-09-04 07:08:39 | 49.37161 | 8.82276 | 114° | 89km/h | 13229m | -7.7m/s | -65°C | 52.4% | 172.7hPa | 2.5V | 08:08:45 | 02:37:50 | 00:00:00 | |
| BIOWL1-15 | 2026-09-04 07:08:37 | 49.37171 | 8.82245 | 118° | 89km/h | 13237m | -7.5m/s | -65.1°C | 49.8% | 172.5hPa | 2.6V | 08:09:20 | 02:37:49 | 00:00:00 | |
| DB0UT-7 | 2026-09-04 07:08:37 | 49.37171 | 8.82245 | 118° | 104km/h | 13237m | -7.5m/s | -65.0°C | 52.5% | 172.4hPa | 2.5V | 00:00:00 | 00:00:00 | 00:00:00 | |
| DL8DAS-15 | 2026-09-04 07:08:36 | 49.37171 | 8.82245 | 119° | 89km/h | 13237m | -7.5m/s | -65.1°C | 42.1% | 172.5hPa | 2.5V | 00:00:00 | 00:00:00 | 00:00:00 | |
| DG9SBQ-11 | 2026-09-04 07:08:35 | 49.37182 | 8.82215 | 122° | 91km/h | 13245m | -7.5m/s | -65.1°C | 41.9% | 172.4hPa | 2.5V | 08:09:00 | 00:00:00 | 00:00:00 | |
| DK5PH-5 | 2026-09-04 07:08:34 | 49.37210 | 8.82153 | 126° | 106km/h | 13259m | -6.8m/s | -65.2°C | 52.5% | 171.9hPa | 2.5V | 00:00:00 | 02:37:46 | 00:00:00 | |
| DF7PN | 2026-09-04 07:08:33 | 49.37225 | 8.82120 | 125° | 108km/h | 13266m | -6.5m/s | -65.3°C | 42.0% | 171.8hPa | 2.6V | 00:00:00 | 00:00:00 | 00:00:00 | |
| DM0DOS-11 | 2026-09-04 07:08:32 | 49.37306 | 8.81886 | 109° | 110km/h | 13309m | -7.4m/s | -65.5°C | 52.1% | 170.5hPa | 2.6V | 08:08:56 | 02:37:39 | 00:00:00 | |
| BIOWL1-15 | 2026-09-04 07:08:26 | 49.37315 | 8.81848 | 109° | 102km/h | 13316m | -7.1m/s | -65.6°C | 48.4% | 170.2hPa | 2.6V | 08:09:20 | 02:37:38 | 00:00:00 | |
| DB0NH | 2026-09-04 07:08:24 | 49.37332 | 8.81777 | 114° | 106km/h | 13330m | -7.0m/s | -65.6°C | 51.7% | 169.8hPa | 2.5V | 00:00:00 | 02:37:36 | 00:00:00 | |
| DG9SBQ-11 | 2026-09-04 07:08:23 | 49.37332 | 8.81777 | 114° | 91km/h | 13330m | -7.1m/s | -65.6°C | 41.2% | 169.8hPa | 2.6V | 08:09:00 | 00:00:00 | 00:00:00 | |
| DF1GD-15 | 2026-09-04 07:08:21 | 49.37365 | 8.81685 | 125° | 95km/h | 13353m | -7.7m/s | -65.8°C | 40.6% | 169.2hPa | 2.6V | 08:09:00 | 00:00:00 | 00:00:00 | |
| DL8DAS-14 | 2026-09-04 07:08:20 | 49.37379 | 8.81654 | 125° | 99km/h | 13361m | -7.9m/s | -65.9°C | 40.5% | 169.0hPa | 2.6V | 00:00:00 | 00:00:00 | 00:00:00 | |
| DM0DOS-11 | 2026-09-04 07:08:19 | 49.37426 | 8.81549 | 121° | 117km/h | 13383m | -7.2m/s | -66°C | 51.4% | 168.3hPa | 2.6V | 08:09:06 | 02:37:29 | 00:00:00 | |
| BIOWL1-15 | 2026-09-04 07:08:16 | 49.37440 | 8.81510 | 118° | 117km/h | 13391m | -7.9m/s | -66.1°C | 46.4% | 168.1hPa | 2.6V | 08:09:20 | 02:37:28 | 00:00:00 | |
| CB1BUN | 2026-09-04 07:08:14 | 49.37454 | 8.81469 | 117° | 119km/h | 13399m | -7.5m/s | -66.1°C | 40.6% | 167.9hPa | 2.6V | 08:09:00 | 00:00:00 | 00:00:00 | |
| HEMX73-11 | 2026-09-04 07:08:13 | 49.37466 | 8.81427 | 114° | 117km/h | 13406m | -7.2m/s | -66.1°C | 40.2% | 167.7hPa | 2.6V | 08:09:00 | 00:00:00 | 00:00:00 | |
| DG9SBQ-11 | 2026-09-04 07:08:12 | 49.37477 | 8.81386 | 112° | 111km/h | 13414m | -7.2m/s | -66.1°C | 39.8% | 167.6hPa | 2.6V | 08:09:00 | 00:00:00 | 00:00:00 | |
| DO3MHA-11 | 2026-09-04 07:08:11 | 49.37496 | 8.81309 | 111° | 106km/h | 13428m | -7.7m/s | -66.1°C | 49.6% | 167.0hPa | 2.6V | 00:00:00 | 02:37:23 | 00:00:00 | |
| DB0UT-9 | 2026-09-04 07:08:10 | 49.37496 | 8.81309 | 112° | 100km/h | 13428m | -7.7m/s | -66.2°C | 39.1% | 167.1hPa | 2.6V | 08:09:00 | 00:00:00 | 00:00:00 | |
| DM0DOS-11 | 2026-09-04 07:08:09 | 49.37540 | 8.81177 | 123° | 99km/h | 13458m | -7.6m/s | -66.1°C | 46.8% | 166.3hPa | 2.6V | 08:09:16 | 02:37:19 | 00:00:00 | |
| BIOWL1-15 | 2026-09-04 07:08:09 | 49.37570 | 8.81111 | 126° | 111km/h | 13474m | -7.6m/s | -66.3°C | 42.8% | 165.9hPa | 2.5V | 08:09:20 | 02:37:17 | 00:00:00 | |
| DD1CC8 | 2026-09-04 07:08:08 | 49.37540 | 8.81177 | 123° | 97km/h | 13458m | -7.6m/s | -66.2°C | 36.6% | 166.3hPa | 2.6V | 00:00:00 | 00:00:00 | 00:00:00 | |
| DB0UT-7 | 2026-09-04 07:08:07 | 49.37540 | 8.81177 | 124° | 110km/h | 13458m | -7.6m/s | -66.1°C | 46.8% | 166.2hPa | 2.6V | 00:00:00 | 02:37:19 | 00:00:00 | |
| DM3KS-11 | 2026-09-04 07:08:06 | 49.37554 | 8.81145 | 125° | 104km/h | 13466m | -7.8m/s | -66.2°C | 36.2% | 166.1hPa | 2.6V | 00:00:00 | 00:00:00 | 00:00:00 | |
| KANTATE | 2026-09-04 07:08:05 | 49.37554 | 8.81145 | 126° | 104km/h | 13466m | -7.8m/s | -66.2°C | 36.2% | 166.1hPa | 2.6V | 08:09:00 | 00:00:00 | 00:00:00 | |
| DK5PH-5 | 2026-09-04 07:08:04 | 49.37586 | 8.81075 | 125° | 111km/h | 13482m | -7.9m/s | -66.3°C | 46.0% | 165.5hPa | 2.6V | 00:00:00 | 02:37:16 | 00:00:00 | |
| DF2AP-13 | 2026-09-04 07:08:02 | 49.37618 | 8.80996 | 119° | 111km/h | 13497m | -7.5m/s | -66.2°C | 44.8% | 165.2hPa | 2.6V | 00:00:00 | 02:37:14 | 00:00:00 | |
| DO3MHA-11 | 2026-09-04 07:08:01 | 49.37632 | 8.80954 | 117° | 108km/h | 13504m | -7.4m/s | -66.1°C | 44.1% | 165.0hPa | 2.5V | 00:00:00 | 02:37:13 | 00:00:00 | |
| DF1GD-15 | 2026-09-04 07:08:00 | 49.37632 | 8.80954 | 117° | 122km/h | 13504m | -7.5m/s | -66.2°C | 34.3% | 165.0hPa | 2.5V | 08:10:00 | 00:00:00 | 00:00:00 | |
| DM0DOS-11 | 2026-09-04 07:07:59 | 49.37694 | 8.80716 | 114° | 97km/h | 13551m | -7.5m/s | -66.1°C | 41.4% | 163.7hPa | 2.5V | 08:09:28 | 02:37:07 | 00:00:00 | |
| BIOWL1-15 | 2026-09-04 07:07:57 | 49.37694 | 8.80716 | 115° | 97km/h | 13551m | -7.6m/s | -66.1°C | 40% | 163.7hPa | 2.5V | 08:10:11 | 02:37:07 | 00:00:00 | |
| NBG1-10 | 2026-09-04 07:07:56 | 49.37684 | 8.80750 | 112° | 108km/h | 13544m | -7.8m/s | -66.0°C | 41.5% | 163.8hPa | 2.6V | 00:00:00 | 02:37:08 | 00:00:00 | |
| CB1BUN | 2026-09-04 07:07:54 | 49.37705 | 8.80682 | 120° | 97km/h | 13559m | -7.4m/s | -66.2°C | 31.8% | 163.5hPa | 2.6V | 08:10:00 | 00:00:00 | 00:00:00 | |
| HEMX73-11 | 2026-09-04 07:07:53 | 49.37705 | 8.80682 | 120° | 97km/h | 13559m | -7.4m/s | -66.2°C | 31.8% | 163.5hPa | 2.6V | 08:10:00 | 00:00:00 | 00:00:00 | |
| SFWM-10 | 2026-09-04 07:07:52 | 49.37718 | 8.80649 | 123° | 100km/h | 13567m | -7.8m/s | -66.3°C | 31.6% | 163.3hPa | 2.6V | 08:10:00 | 00:00:00 | 00:00:00 | |
| DO3MHA-11 | 2026-09-04 07:07:51 | 49.37748 | 8.80582 | 125° | 117km/h | 13582m | -7.7m/s | -66.3°C | 41.3% | 162.9hPa | 2.6V | 00:00:00 | 02:37:03 | 00:00:00 | |
| DB0UT-9 | 2026-09-04 07:07:50 | 49.37748 | 8.80582 | 126° | 111km/h | 13582m | -7.8m/s | -66.4°C | 31.8% | 162.9hPa | 2.5V | 08:10:00 | 00:00:00 | 00:00:00 | |
| DM0DOS-11 | 2026-09-04 07:07:49 | 49.37838 | 8.80336 | 112° | 120km/h | 13631m | -7.8m/s | -66.8°C | 40.8% | 161.5hPa | 2.5V | 08:09:38 | 02:36:57 | 00:00:00 | |
| BIOWL1-15 | 2026-09-04 07:07:45 | 49.37838 | 8.80336 | 112° | 120km/h | 13631m | -7.8m/s | -66.8°C | 38.3% | 161.5hPa | 2.5V | 08:10:11 | 02:36:57 | 00:00:00 | |
| DB0ND-19 | 2026-09-04 07:07:45 | 49.37838 | 8.80336 | 112° | 119km/h | 13631m | -7.8m/s | -66.8°C | 31.1% | 161.5hPa | 2.5V | 00:00:00 | 00:00:00 | 00:00:00 | |
| DO3MHA-11 | 2026-09-04 07:07:41 | 49.37877 | 8.80181 | 116° | 111km/h | 13663m | -8.3m/s | -67.0°C | 39.3% | 160.7hPa | 2.5V | 00:00:00 | 02:36:53 | 00:00:00 | |
| DF1GD-15 | 2026-09-04 07:07:40 | 49.37877 | 8.80181 | 116° | 97km/h | 13663m | -8.4m/s | -67.0°C | 29.8% | 160.8hPa | 2.5V | 08:10:00 | 00:00:00 | 00:00:00 | |
| DM0DOS-11 | 2026-09-04 07:07:39 | 49.37967 | 8.79978 | 125° | 120km/h | 13711m | -8m/s | -67.1°C | 38.1% | 159.4hPa | 2.5V | 08:09:48 | 02:36:47 | 00:00:00 | |
| HSKMA3-T | 2026-09-04 07:07:38 | 49.37916 | 8.80082 | 125° | 104km/h | 13687m | -7.7m/s | -67.1°C | 36.3% | 160.1hPa | 2.5V | 08:13:35 | 02:36:50 | 00:00:00 | |
| BIOWL1-15 | 2026-09-04 07:07:36 | 49.37984 | 8.79939 | 124° | 124km/h | 13719m | -7.8m/s | -67.2°C | 34.9% | 159.2hPa | 2.5V | 08:10:11 | 02:36:46 | 00:00:00 | |
| DM3KS-11 | 2026-09-04 07:07:35 | 49.37966 | 8.79978 | 125° | 119km/h | 13711m | -8.0m/s | -67.1°C | 28.6% | 159.4hPa | 2.6V | 00:00:00 | 00:00:00 | 00:00:00 | |
| DK5PH-5 | 2026-09-04 07:07:34 | 49.37984 | 8.79939 | 124° | 108km/h | 13719m | -7.8m/s | -67.2°C | 38.0% | 159.2hPa | 2.6V | 00:00:00 | 02:36:46 | 00:00:00 | |
| HEMX73-11 | 2026-09-04 07:07:33 | 49.37984 | 8.79939 | 125° | 124km/h | 13719m | -7.8m/s | -67.2°C | 28.5% | 159.2hPa | 2.6V | 08:10:00 | 00:00:00 | 00:00:00 | |
| DF2AP-13 | 2026-09-04 07:07:32 | 49.38016 | 8.79856 | 118° | 106km/h | 13734m | -7.8m/s | -67.3°C | 37.3% | 158.8hPa | 2.6V | 00:00:00 | 02:36:44 | 00:00:00 | |
| DO3MHA-11 | 2026-09-04 07:07:31 | 49.38030 | 8.79813 | 115° | 104km/h | 13742m | -7.8m/s | -67.3°C | 36.6% | 158.6hPa | 2.6V | 00:00:00 | 02:36:43 | 00:00:00 | |
| DM0DOS-11 | 2026-09-04 07:07:29 | 49.38096 | 8.79594 | 122° | 93km/h | 13789m | -8m/s | -67.7°C | 35.2% | 157.4hPa | 2.6V | 08:09:58 | 02:36:37 | 00:00:00 | |
| BIOWL1-15 | 2026-09-04 07:07:25 | 49.38125 | 8.79533 | 129° | 102km/h | 13805m | -7.9m/s | -67.8°C | 31% | 157hPa | 2.5V | 08:10:11 | 02:36:35 | 00:00:00 | |
| DL1ZP-14 | 2026-09-04 07:07:25 | 49.38096 | 8.79594 | 122° | 93km/h | 13789m | -8.0m/s | -67.7°C | 25.8% | 157.4hPa | 2.6V | 00:00:00 | 00:00:00 | 00:00:00 | |
| DB0NH | 2026-09-04 07:07:24 | 49.38110 | 8.79564 | 127° | 104km/h | 13797m | -7.8m/s | -67.7°C | 35.2% | 157.1hPa | 2.5V | 00:00:00 | 02:36:36 | 00:00:00 | |
| DG9SBQ-11 | 2026-09-04 07:07:22 | 49.38125 | 8.79533 | 129° | 102km/h | 13805m | -7.9m/s | -67.8°C | 25.5% | 157.0hPa | 2.5V | 08:10:00 | 00:00:00 | 00:00:00 | |
| NBG1-10 | 2026-09-04 07:07:21 | 49.38159 | 8.79468 | 129° | 102km/h | 13821m | -7.8m/s | -67.8°C | 34.4% | 156.5hPa | 2.5V | 00:00:00 | 02:36:33 | 00:00:00 | |
| DM0DOS-11 | 2026-09-04 07:07:19 | 49.38248 | 8.79235 | 112° | 106km/h | 13867m | -7.8m/s | -67.9°C | 32.3% | 155.3hPa | 2.6V | 08:10:08 | 02:36:27 | 00:00:00 | |
| DK7TD | 2026-09-04 07:07:13 | 49.38268 | 8.79164 | 114° | 93km/h | 13882m | -8m/s | 0°C | 0% | 0hPa | 2.5V | 18:12:15 | 02:36:25 | 00:00:00 | |
| BIOWL1-15 | 2026-09-04 07:07:12 | 49.38278 | 8.79132 | 118° | 88km/h | 13890m | -7.9m/s | -68.1°C | 26.4% | 154.7hPa | 2.5V | 08:10:11 | 02:36:24 | 00:00:00 | |
| DO3MHA-11 | 2026-09-04 07:07:11 | 49.38289 | 8.79103 | 122° | 106km/h | 13898m | -7.5m/s | -68.1°C | 31.6% | 154.5hPa | 2.5V | 00:00:00 | 02:36:23 | 00:00:00 | |
| SFWM-10 | 2026-09-04 07:07:10 | 49.38289 | 8.79103 | 123° | 88km/h | 13898m | -7.6m/s | -68.2°C | 22.3% | 154.5hPa | 2.5V | 08:11:00 | 00:00:00 | 00:00:00 | |
| DM0DOS-11 | 2026-09-04 07:07:09 | 49.38382 | 8.78916 | 122° | 117km/h | 13944m | -7.6m/s | -68.6°C | 31.7% | 153.3hPa | 2.5V | 08:10:18 | 02:36:17 | 00:00:00 | |
| HSKMA3-T | 2026-09-04 07:07:06 | 49.38365 | 8.78952 | 126° | 113km/h | 13936m | -7.8m/s | -68.6°C | 23.9% | 153.5hPa | 2.5V | 08:13:35 | 02:36:18 | 00:00:00 | |
| BIOWL1-15 | 2026-09-04 07:07:01 | 49.38432 | 8.78759 | 110° | 104km/h | 13974m | -7.7m/s | -68.6°C | 21.1% | 152.6hPa | 2.5V | 08:11:02 | 02:36:13 | 00:00:00 | |
| DF7PN | 2026-09-04 07:07:00 | 49.38441 | 8.78722 | 110° | 97km/h | 13982m | -8.7m/s | -68.6°C | 18.9% | 152.4hPa | 2.6V | 00:00:00 | 00:00:00 | 00:00:00 | |
| DM0DOS-11 | 2026-09-04 07:06:59 | 49.38491 | 8.78564 | 124° | 89km/h | 14022m | -7.4m/s | -67.8°C | 25.2% | 151.3hPa | 2.6V | 08:10:28 | 02:36:07 | 00:00:00 | |
| DK7TD | 2026-09-04 07:06:56 | 49.38479 | 8.78593 | 121° | 88km/h | 14015m | -7.3m/s | 0°C | 0% | 0hPa | 2.6V | 18:12:15 | 02:36:08 | 00:00:00 | |
| BIOWL1-15 | 2026-09-04 07:06:50 | 49.38580 | 8.78363 | 116° | 115km/h | 14068m | -8.1m/s | -65°C | 14.1% | 150.2hPa | 2.5V | 08:11:02 | 02:36:01 | 00:00:00 | |
| DM0DOS-11 | 2026-09-04 07:06:49 | 49.38618 | 8.78205 | 107° | 99km/h | 14099m | -8m/s | -64.7°C | 16.3% | 149.4hPa | 2.6V | 08:10:38 | 02:35:57 | 00:00:00 | |
| DL8DAS-14 | 2026-09-04 07:06:47 | 49.38602 | 8.78282 | 109° | 110km/h | 14083m | -7.9m/s | -64.8°C | 10.6% | 149.8hPa | 2.5V | 00:00:00 | 00:00:00 | 00:00:00 | |
| BIOWL9-15 | 2026-09-04 07:06:45 | 49.38618 | 8.78205 | 107° | 97km/h | 14099m | -8.0m/s | -64.7°C | 10.3% | 149.4hPa | 2.5V | 00:00:00 | 00:00:00 | 00:00:00 | |
| BIOWL1-15 | 2026-09-04 07:06:41 | 49.38681 | 8.78013 | 123° | 102km/h | 14145m | -8.4m/s | -64.8°C | 12.2% | 148.2hPa | 2.5V | 08:11:02 | 02:35:51 | 00:00:00 | |
| DO3MHA-11 | 2026-09-04 07:06:41 | 49.38655 | 8.78076 | 121° | 106km/h | 14129m | -7.7m/s | -64.7°C | 15.6% | 148.7hPa | 2.6V | 00:00:00 | 02:35:53 | 00:00:00 | |
| DM0DOS-11 | 2026-09-04 07:06:39 | 49.38736 | 8.77863 | 114° | 115km/h | 14177m | -7.5m/s | -64.9°C | 15.2% | 147.5hPa | 2.6V | 08:10:48 | 02:35:47 | 00:00:00 | |
| BIOWL1-15 | 2026-09-04 07:06:31 | 49.38793 | 8.77646 | 118° | 86km/h | 14222m | -7.8m/s | -64.6°C | 10.6% | 146.4hPa | 2.5V | 08:11:02 | 02:35:41 | 00:00:00 | |
| DO3MHA-11 | 2026-09-04 07:06:31 | 49.38775 | 8.77710 | 110° | 100km/h | 14207m | -7.1m/s | -64.7°C | 14.4% | 146.7hPa | 2.5V | 00:00:00 | 02:35:43 | 00:00:00 | |
| HEMX73-11 | 2026-09-04 07:06:30 | 49.38774 | 8.77710 | 111° | 93km/h | 14207m | -7.2m/s | -64.7°C | 8.7% | 146.8hPa | 2.5V | 08:11:00 | 00:00:00 | 00:00:00 | |
| DM0DOS-11 | 2026-09-04 07:06:29 | 49.38848 | 8.77527 | 127° | 106km/h | 14254m | -8.9m/s | -64.3°C | 13.4% | 145.7hPa | 2.5V | 08:10:58 | 02:35:37 | 00:00:00 | |
| BIOWL1-15 | 2026-09-04 07:06:20 | 49.38937 | 8.77270 | 111° | 93km/h | 14309m | -8.1m/s | -64.5°C | 9.3% | 144.3hPa | 2.5V | 08:11:53 | 02:35:30 | 00:00:00 | |
| HSKMA3-T | 2026-09-04 07:06:11 | 49.39015 | 8.77080 | 131° | 91km/h | 14366m | -8.2m/s | -64.1°C | 8.3% | 143hPa | 2.5V | 08:13:35 | 02:35:23 | 00:00:00 | |
| DO3MHA-11 | 2026-09-04 07:06:11 | 49.39014 | 8.77080 | 132° | 95km/h | 14366m | -8.1m/s | -64.1°C | 12.0% | 142.9hPa | 2.6V | 00:00:00 | 02:35:23 | 00:00:00 | |
| DM0DOS-11 | 2026-09-04 07:06:10 | 49.39096 | 8.76884 | 113° | 95km/h | 14415m | -8.8m/s | -64°C | 11.8% | 141.9hPa | 2.6V | 08:11:18 | 02:35:17 | 00:00:00 | |
| BIOWL1-15 | 2026-09-04 07:06:07 | 49.39096 | 8.76884 | 114° | 95km/h | 14415m | -8.8m/s | -64°C | 7.9% | 141.9hPa | 2.6V | 08:11:53 | 02:35:17 | 00:00:00 | |
| DB0UT-7 | 2026-09-04 07:06:07 | 49.39074 | 8.76953 | 120° | 84km/h | 14399m | -7.4m/s | -64.0°C | 11.9% | 142.2hPa | 2.6V | 00:00:00 | 02:35:19 | 00:00:00 | |
| DB0UT-9 | 2026-09-04 07:06:06 | 49.39074 | 8.76953 | 120° | 104km/h | 14399m | -7.5m/s | -64.0°C | 6.6% | 142.3hPa | 2.6V | 08:11:00 | 00:00:00 | 00:00:00 | |
| DG9SBQ-11 | 2026-09-04 07:06:05 | 49.39086 | 8.76918 | 115° | 99km/h | 14406m | -8.2m/s | -64.0°C | 6.6% | 142.1hPa | 2.6V | 08:11:00 | 00:00:00 | 00:00:00 | |
| DK5PH-5 | 2026-09-04 07:06:04 | 49.39105 | 8.76851 | 111° | 82km/h | 14423m | -8.3m/s | -63.9°C | 11.9% | 141.6hPa | 2.6V | 00:00:00 | 02:35:16 | 00:00:00 | |
| DL1NUX | 2026-09-04 07:06:03 | 49.39157 | 8.76697 | 128° | 77km/h | 14472m | -8.9m/s | 0°C | 0% | 0hPa | 2.6V | 08:11:25 | 02:35:10 | 00:00:00 | |
| HSKMA3-T | 2026-09-04 07:06:00 | 49.39137 | 8.76742 | 121° | 69km/h | 14455m | -8m/s | -64°C | 7.6% | 140.9hPa | 2.6V | 08:13:35 | 02:35:12 | 00:00:00 | |
| DM0DOS-11 | 2026-09-04 07:05:59 | 49.39198 | 8.76619 | 125° | 95km/h | 14497m | -8.1m/s | -63.3°C | 10.8% | 140hPa | 2.5V | 08:11:28 | 02:35:07 | 00:00:00 | |
| BIOWL1-15 | 2026-09-04 07:05:57 | 49.39170 | 8.76673 | 129° | 82km/h | 14481m | -8.5m/s | -63.6°C | 7.4% | 140.4hPa | 2.5V | 08:11:53 | 02:35:09 | 00:00:00 | |
| DL0LBS | 2026-09-04 07:05:55 | 49.39183 | 8.76647 | 129° | 89km/h | 14489m | -8.1m/s | -63.4°C | 6.0% | 140.2hPa | 2.5V | 08:11:00 | 00:00:00 | 00:00:00 | |
| DB0NH | 2026-09-04 07:05:54 | 49.39211 | 8.76587 | 121° | 82km/h | 14505m | -7.9m/s | -63.2°C | 10.8% | 139.7hPa | 2.5V | 00:00:00 | 02:35:06 | 00:00:00 | |
| DL1NUX | 2026-09-04 07:05:53 | 49.39258 | 8.76390 | 104° | 75km/h | 14556m | -8.6m/s | 0°C | 0% | 0hPa | 2.5V | 08:11:35 | 02:35:00 | 00:00:00 | |
| DL1ZP-14 | 2026-09-04 07:05:52 | 49.39241 | 8.76484 | 108° | 91km/h | 14530m | -8.7m/s | -63.1°C | 5.8% | 139.2hPa | 2.6V | 00:00:00 | 00:00:00 | 00:00:00 | |
| DO3MHA-11 | 2026-09-04 07:05:51 | 49.39241 | 8.76484 | 109° | 75km/h | 14530m | -8.7m/s | -63.0°C | 10.7% | 139.2hPa | 2.6V | 08:11:00 | 02:35:03 | 00:00:00 | |
| SO1NDE-10 | 2026-09-04 07:05:50 | 49.39248 | 8.76451 | 106° | 78km/h | 14539m | -9.3m/s | 0°C | 0% | 0hPa | 2.6V | 08:11:00 | 02:35:02 | 00:00:00 | |
| DM0DOS-11 | 2026-09-04 07:05:49 | 49.39273 | 8.76315 | 113° | 64km/h | 14581m | -8.4m/s | -62.9°C | 10.4% | 138.1hPa | 2.6V | 08:11:38 | 02:34:57 | 00:00:00 | |
| BIOWL1-15 | 2026-09-04 07:05:46 | 49.39267 | 8.76338 | 108° | 64km/h | 14573m | -8.1m/s | -62.9°C | 6.7% | 138.3hPa | 2.6V | 08:11:53 | 02:34:58 | 00:00:00 | |
| DL8DAS-14 | 2026-09-04 07:05:45 | 49.39273 | 8.76315 | 113° | 62km/h | 14581m | -8.4m/s | -62.9°C | 5.5% | 138.1hPa | 2.6V | 00:00:00 | 00:00:00 | 00:00:00 | |
| DL1NUX | 2026-09-04 07:05:43 | 49.39337 | 8.76121 | 107° | 91km/h | 14638m | -8.4m/s | 0°C | 0% | 0hPa | 2.6V | 08:11:45 | 02:34:50 | 00:00:00 | |
| DF3TZ-5 | 2026-09-04 07:05:42 | 49.39310 | 8.76216 | 118° | 86km/h | 14612m | -8.7m/s | -62.6°C | 5.2% | 137.4hPa | 2.5V | 00:00:00 | 00:00:00 | 00:00:00 | |
| DO3MHA-11 | 2026-09-04 07:05:41 | 49.39310 | 8.76216 | 119° | 80km/h | 14613m | -8.7m/s | -62.5°C | 9.9% | 137.3hPa | 2.5V | 00:00:00 | 02:34:53 | 00:00:00 | |
| KANTATE | 2026-09-04 07:05:40 | 49.39310 | 8.76216 | 119° | 86km/h | 14613m | -8.7m/s | -62.6°C | 5.2% | 137.4hPa | 2.5V | 08:11:00 | 00:00:00 | 00:00:00 | |
| DM0DOS-11 | 2026-09-04 07:05:39 | 49.39351 | 8.76026 | 100° | 73km/h | 14662m | -8.1m/s | -62.4°C | 9.4% | 136.3hPa | 2.5V | 08:11:48 | 02:34:47 | 00:00:00 | |
| BIOWL1-15 | 2026-09-04 07:05:36 | 49.39347 | 8.76055 | 100° | 80km/h | 14654m | -7.8m/s | -62.4°C | 5.9% | 136.4hPa | 2.5V | 08:11:53 | 02:34:48 | 00:00:00 | |
| DL0LBS | 2026-09-04 07:05:35 | 49.39347 | 8.76055 | 101° | 80km/h | 14654m | -7.8m/s | -62.4°C | 4.9% | 136.4hPa | 2.5V | 08:11:00 | 00:00:00 | 00:00:00 | |
| DK5PH-5 | 2026-09-04 07:05:34 | 49.39354 | 8.75999 | 103° | 84km/h | 14670m | -8.0m/s | -62.3°C | 9.3% | 136.1hPa | 2.5V | 00:00:00 | 02:34:46 | 00:00:00 | |
| DD1CC8 | 2026-09-04 07:05:33 | 49.39359 | 8.75975 | 110° | 66km/h | 14678m | -8.2m/s | -62.3°C | 4.6% | 136.0hPa | 2.6V | 00:00:00 | 00:00:00 | 00:00:00 | |
| DF2AP-13 | 2026-09-04 07:05:32 | 49.39366 | 8.75950 | 116° | 84km/h | 14687m | -8.3m/s | -62.2°C | 8.9% | 135.7hPa | 2.6V | 00:00:00 | 02:34:44 | 00:00:00 | |
| DO3MHA-11 | 2026-09-04 07:05:31 | 49.39374 | 8.75925 | 119° | 93km/h | 14695m | -8.4m/s | -62.1°C | 8.8% | 135.5hPa | 2.6V | 00:00:00 | 02:34:43 | 00:00:00 | |
| DO3DL | 2026-09-04 07:05:30 | 49.39374 | 8.75925 | 119° | 75km/h | 14695m | -8.4m/s | -62.1°C | 4.4% | 135.6hPa | 2.6V | 00:00:00 | 00:00:00 | 00:00:00 | |
| DM0DOS-11 | 2026-09-04 07:05:29 | 49.39433 | 8.75727 | 104° | 102km/h | 14747m | -8.8m/s | -61.8°C | 8.2% | 134.4hPa | 2.6V | 08:11:58 | 02:34:37 | 00:00:00 | |
| BIOWL1-15 | 2026-09-04 07:05:25 | 49.39439 | 8.75690 | 101° | 97km/h | 14756m | -8.8m/s | -61.8°C | 4.9% | 134.2hPa | 2.6V | 08:12:44 | 02:34:36 | 00:00:00 | |
| DB0NH | 2026-09-04 07:05:24 | 49.39439 | 8.75690 | 101° | 84km/h | 14756m | -8.7m/s | -61.8°C | 8.3% | 134.2hPa | 2.6V | 00:00:00 | 02:34:36 | 00:00:00 | |
| DM7RM-13 | 2026-09-04 07:05:22 | 49.39443 | 8.75653 | 101° | 93km/h | 14765m | -8.8m/s | -61.9°C | 4.0% | 134.0hPa | 2.5V | 08:12:00 | 00:00:00 | 00:00:00 | |
| DL1ZP-14 | 2026-09-04 07:05:21 | 49.39453 | 8.75560 | 102° | 71km/h | 14790m | -8.6m/s | -62.1°C | 4.0% | 133.5hPa | 2.5V | 00:00:00 | 00:00:00 | 00:00:00 | |
| SO1NDE-10 | 2026-09-04 07:05:20 | 49.39453 | 8.75560 | 103° | 69km/h | 14790m | -8.6m/s | 0°C | 0% | 0hPa | 2.5V | 00:00:00 | 02:34:32 | 00:00:00 | |
| DM0DOS-11 | 2026-09-04 07:05:19 | 49.39492 | 8.75430 | 121° | 88km/h | 14834m | -8.7m/s | -62.4°C | 8.7% | 132.6hPa | 2.5V | 08:12:08 | 02:34:27 | 00:00:00 | |
| HSKMA3-T | 2026-09-04 07:05:17 | 49.39472 | 8.75483 | 118° | 73km/h | 14817m | -8.9m/s | -62.3°C | 4.7% | 133hPa | 2.6V | 08:13:35 | 02:34:29 | 00:00:00 | |
| BIOWL1-15 | 2026-09-04 07:05:14 | 49.39504 | 8.75399 | 119° | 95km/h | 14843m | -9m/s | -62.4°C | 4.6% | 132.3hPa | 2.5V | 08:12:44 | 02:34:26 | 00:00:00 | |
| BIOWL9-15 | 2026-09-04 07:05:12 | 49.39526 | 8.75330 | 113° | 102km/h | 14861m | -8.7m/s | -62.4°C | 4.1% | 132.0hPa | 2.5V | 00:00:00 | 00:00:00 | 00:00:00 | |
| DO3MHA-11 | 2026-09-04 07:05:11 | 49.39535 | 8.75293 | 110° | 82km/h | 14870m | -8.5m/s | -62.4°C | 8.7% | 131.8hPa | 2.5V | 00:00:00 | 02:34:23 | 00:00:00 | |
| DG9SBQ-11 | 2026-09-04 07:05:10 | 49.39543 | 8.75255 | 108° | 102km/h | 14879m | -8.9m/s | -62.4°C | 4.0% | 131.7hPa | 2.5V | 08:12:00 | 00:00:00 | 00:00:00 | |
| DM0DOS-11 | 2026-09-04 07:05:09 | 49.39567 | 8.75095 | 107° | 68km/h | 14923m | -8.7m/s | -61.8°C | 8% | 130.7hPa | 2.5V | 08:12:18 | 02:34:17 | 00:00:00 | |
| BIOWL1-15 | 2026-09-04 07:05:04 | 49.39573 | 8.75070 | 115° | 68km/h | 14932m | -8.6m/s | -61.7°C | 4% | 130.5hPa | 2.6V | 08:12:44 | 02:34:16 | 00:00:00 | |
| DK5PH-5 | 2026-09-04 07:05:04 | 49.39573 | 8.75070 | 115° | 78km/h | 14932m | -8.6m/s | -61.7°C | 8.0% | 130.5hPa | 2.5V | 00:00:00 | 02:34:16 | 00:00:00 | |
| DN1GJH-1 | 2026-09-04 07:05:03 | 49.39573 | 8.75070 | 116° | 68km/h | 14932m | -8.6m/s | -61.7°C | 3.7% | 130.5hPa | 2.5V | 08:12:00 | 00:00:00 | 00:00:00 | |
| DD1CC8 | 2026-09-04 07:05:02 | 49.39591 | 8.75024 | 124° | 71km/h | 14949m | -8.8m/s | -61.5°C | 3.6% | 130.2hPa | 2.5V | 00:00:00 | 00:00:00 | 00:00:00 | |
| DM3KS-11 | 2026-09-04 07:05:00 | 49.39614 | 8.74976 | 128° | 82km/h | 14967m | -9.3m/s | -61.4°C | 3.6% | 129.8hPa | 2.5V | 00:00:00 | 00:00:00 | 00:00:00 | |
| DG9SBQ-11 | 2026-09-04 07:04:59 | 49.39614 | 8.74976 | 129° | 82km/h | 14967m | -9.3m/s | -61.4°C | 3.6% | 129.7hPa | 2.5V | 08:12:00 | 00:00:00 | 00:00:00 | |
| DL1NUX | 2026-09-04 07:04:58 | 49.39685 | 8.74765 | 106° | 73km/h | 15027m | -8.8m/s | 0°C | 0% | 0hPa | 2.5V | 08:12:30 | 02:34:05 | 00:00:00 | |
| DF7PN | 2026-09-04 07:04:56 | 49.39664 | 8.74858 | 115° | 93km/h | 15002m | -8.1m/s | -61.1°C | 3.5% | 129.1hPa | 2.6V | 00:00:00 | 00:00:00 | 00:00:00 | |
| DM0DOS-11 | 2026-09-04 07:04:55 | 49.39703 | 8.74695 | 118° | 60km/h | 15054m | -9m/s | -60.4°C | 6.9% | 128hPa | 2.6V | 08:12:33 | 02:34:02 | 00:00:00 | |
| BIOWL1-15 | 2026-09-04 07:04:53 | 49.39691 | 8.74739 | 109° | 68km/h | 15036m | -9.4m/s | -60.4°C | 3.4% | 128.4hPa | 2.5V | 08:12:44 | 02:34:04 | 00:00:00 | |
| DL1ZP-14 | 2026-09-04 07:04:50 | 49.39711 | 8.74675 | 125° | 60km/h | 15064m | -8.7m/s | -60.5°C | 3.1% | 127.8hPa | 2.6V | 00:00:00 | 00:00:00 | 00:00:00 | |
| DL1NUX | 2026-09-04 07:04:48 | 49.39782 | 8.74522 | 114° | 93km/h | 15114m | -9.1m/s | 0°C | 0% | 0hPa | 2.6V | 08:12:40 | 02:33:55 | 00:00:00 | |
| BIOWL1-15 | 2026-09-04 07:04:43 | 49.39781 | 8.74522 | 115° | 93km/h | 15115m | -9.1m/s | -60.2°C | 3.3% | 126.8hPa | 2.6V | 08:12:44 | 02:33:55 | 00:00:00 | |
| DL8DAS-14 | 2026-09-04 07:04:43 | 49.39781 | 8.74522 | 114° | 93km/h | 15115m | -9.1m/s | -60.2°C | 3.1% | 126.8hPa | 2.6V | 00:00:00 | 00:00:00 | 00:00:00 | |
| DG9SBQ-11 | 2026-09-04 07:04:42 | 49.39790 | 8.74489 | 111° | 93km/h | 15124m | -9.4m/s | -59.9°C | 3.1% | 126.6hPa | 2.6V | 08:12:00 | 00:00:00 | 00:00:00 | |
| DM7RM-13 | 2026-09-04 07:04:41 | 49.39797 | 8.74455 | 107° | 91km/h | 15133m | -9.5m/s | -59.7°C | 3.1% | 126.4hPa | 2.6V | 08:12:00 | 00:00:00 | 00:00:00 | |
| DB0ND-19 | 2026-09-04 07:04:40 | 49.39811 | 8.74359 | 98° | 77km/h | 15162m | -9.1m/s | -59.8°C | 2.9% | 125.8hPa | 2.6V | 00:00:00 | 00:00:00 | 00:00:00 | |
| DL1NUX | 2026-09-04 07:04:39 | 49.39832 | 8.74239 | 118° | 64km/h | 15205m | -9.1m/s | 0°C | 0% | 0hPa | 2.6V | 08:12:50 | 02:33:45 | 00:00:00 | |
| BIOWL1-15 | 2026-09-04 07:04:32 | 49.39861 | 8.74166 | 121° | 84km/h | 15233m | -9.4m/s | -59.8°C | 3.2% | 124.4hPa | 2.5V | 08:13:35 | 02:33:42 | 00:00:00 | |
| DF2AP-13 | 2026-09-04 07:04:32 | 49.39840 | 8.74217 | 123° | 80km/h | 15214m | -8.9m/s | -60.0°C | 6.8% | 124.7hPa | 2.5V | 00:00:00 | 02:33:44 | 00:00:00 | |
| DO3MHA-11 | 2026-09-04 07:04:31 | 49.39850 | 8.74193 | 123° | 89km/h | 15224m | -9.0m/s | -59.8°C | 6.7% | 124.5hPa | 2.5V | 00:00:00 | 02:33:43 | 00:00:00 | |
| DG9SBQ-11 | 2026-09-04 07:04:30 | 49.39850 | 8.74193 | 123° | 78km/h | 15224m | -9.1m/s | -59.9°C | 2.9% | 124.6hPa | 2.5V | 08:13:00 | 00:00:00 | 00:00:00 | |
| DM3KS-11 | 2026-09-04 07:04:29 | 49.39872 | 8.74137 | 119° | 89km/h | 15242m | -9.7m/s | -59.7°C | 3.0% | 124.2hPa | 2.5V | 00:00:00 | 00:00:00 | 00:00:00 | |
| SFWM-10 | 2026-09-04 07:04:27 | 49.39883 | 8.74105 | 117° | 95km/h | 15252m | -9.3m/s | -59.6°C | 3.0% | 124.0hPa | 2.5V | 00:00:00 | 00:00:00 | 00:00:00 | |
| DF7PN | 2026-09-04 07:04:25 | 49.39908 | 8.74000 | 104° | 95km/h | 15278m | -8.4m/s | -59.7°C | 3.0% | 123.5hPa | 2.5V | 00:00:00 | 00:00:00 | 00:00:00 | |
| DM0DOS-11 | 2026-09-04 07:04:24 | 49.39924 | 8.73873 | 103° | 69km/h | 15314m | -9.1m/s | -59.8°C | 6.8% | 122.8hPa | 2.5V | 08:13:02 | 02:33:33 | 00:00:00 | |
| BIOWL1-15 | 2026-09-04 07:04:19 | 49.39936 | 8.73825 | 118° | 66km/h | 15332m | -8.9m/s | -59.7°C | 3% | 122.4hPa | 2.6V | 08:13:35 | 02:33:31 | 00:00:00 | |
| DL1ZP-14 | 2026-09-04 07:04:19 | 49.39945 | 8.73802 | 123° | 71km/h | 15341m | -8.6m/s | -59.7°C | 2.9% | 122.2hPa | 2.6V | 00:00:00 | 00:00:00 | 00:00:00 | |
| SO1NDE-10 | 2026-09-04 07:04:18 | 49.39945 | 8.73802 | 124° | 73km/h | 15341m | -8.5m/s | 0°C | 0% | 0hPa | 2.5V | 00:00:00 | 02:33:30 | 00:00:00 | |
| DJ2DS-15 | 2026-09-04 07:04:17 | 49.39956 | 8.73778 | 126° | 82km/h | 15350m | -8.7m/s | -59.5°C | 6.8% | 122.0hPa | 2.5V | 00:00:00 | 02:33:29 | 00:00:00 | |
| DM0DOS-11 | 2026-09-04 07:04:14 | 49.40022 | 8.73588 | 106° | 97km/h | 15405m | -9.1m/s | -58.7°C | 6.2% | 121hPa | 2.6V | 08:13:12 | 02:33:23 | 00:00:00 | |
| BIOWL1-15 | 2026-09-04 07:04:08 | 49.40037 | 8.73489 | 100° | 77km/h | 15432m | -9.1m/s | -58.5°C | 2.5% | 120.5hPa | 2.5V | 08:13:35 | 02:33:20 | 00:00:00 | |
| DB0ND-19 | 2026-09-04 07:04:08 | 49.40040 | 8.73461 | 101° | 68km/h | 15441m | -9.1m/s | -58.4°C | 2.5% | 120.3hPa | 2.6V | 00:00:00 | 00:00:00 | 00:00:00 | |
| DB0UT-7 | 2026-09-04 07:04:07 | 49.40040 | 8.73461 | 102° | 71km/h | 15441m | -9.0m/s | -58.3°C | 6.0% | 120.3hPa | 2.6V | 00:00:00 | 02:33:19 | 00:00:00 | |
| HEMX73-11 | 2026-09-04 07:04:06 | 49.40040 | 8.73461 | 103° | 68km/h | 15441m | -9.1m/s | -58.4°C | 2.5% | 120.3hPa | 2.6V | 08:13:00 | 00:00:00 | 00:00:00 | |
| DM0DOS-11 | 2026-09-04 07:04:04 | 49.40083 | 8.73331 | 126° | 75km/h | 15497m | -9.1m/s | -57.8°C | 5.8% | 119.2hPa | 2.6V | 08:13:22 | 02:33:13 | 00:00:00 | |
| HSKMA3-T | 2026-09-04 07:04:02 | 49.40072 | 8.73354 | 126° | 68km/h | 15488m | -9.3m/s | -58°C | 2.4% | 119.4hPa | 2.6V | 08:13:35 | 02:33:14 | 00:00:00 | |
| BIOWL1-15 | 2026-09-04 07:03:58 | 49.40118 | 8.73248 | 117° | 91km/h | 15524m | -9.1m/s | -57.9°C | 2.4% | 118.7hPa | 2.6V | 08:13:35 | 02:33:10 | 00:00:00 | |
| DJ2DS-15 | 2026-09-04 07:03:57 | 49.40128 | 8.73216 | 113° | 71km/h | 15534m | -9.5m/s | -57.9°C | 5.8% | 118.6hPa | 2.5V | 00:00:00 | 02:33:09 | 00:00:00 | |
| DO8TBO-1 | 2026-09-04 07:03:56 | 49.40136 | 8.73184 | 108° | 60km/h | 15543m | -9.2m/s | -57.8°C | 5.7% | 118.3hPa | 2.5V | 00:00:00 | 02:33:08 | 00:00:00 | |
| DB0NH | 2026-09-04 07:03:54 | 49.40145 | 8.73123 | 101° | 68km/h | 15561m | -9.2m/s | -57.6°C | 5.6% | 118.0hPa | 2.5V | 00:00:00 | 02:33:06 | 00:00:00 | |
| DF1GD-15 | 2026-09-04 07:03:53 | 49.40145 | 8.73123 | 102° | 75km/h | 15561m | -9.3m/s | -57.7°C | 2.3% | 118.1hPa | 2.5V | 08:13:00 | 00:00:00 | 00:00:00 | |
| DJTTGO | 2026-09-04 07:03:52 | 49.40149 | 8.73096 | 101° | 68km/h | 15571m | -9.1m/s | -57.7°C | 2.3% | 117.9hPa | 2.5V | 00:00:00 | 00:00:00 | 00:00:00 | |
| DO3MHA-11 | 2026-09-04 07:03:51 | 49.40156 | 8.73051 | 110° | 73km/h | 15589m | -9.3m/s | -57.6°C | 5.5% | 117.4hPa | 2.5V | 00:00:00 | 02:33:03 | 00:00:00 | |
| DL0LBS | 2026-09-04 07:03:50 | 49.40156 | 8.73051 | 111° | 55km/h | 15589m | -9.3m/s | -57.7°C | 2.3% | 117.5hPa | 2.5V | 08:13:00 | 00:00:00 | 00:00:00 | |
| DL1NUX | 2026-09-04 07:03:49 | 49.40225 | 8.72898 | 120° | 88km/h | 15653m | -9.3m/s | 0°C | 0% | 0hPa | 2.5V | 08:13:39 | 02:32:56 | 00:00:00 | |
| BIOWL1-15 | 2026-09-04 07:03:47 | 49.40189 | 8.72974 | 130° | 71km/h | 15626m | -9m/s | -57.7°C | 2.3% | 116.8hPa | 2.6V | 08:14:26 | 02:32:59 | 00:00:00 | |
| HSKMA3-T | 2026-09-04 07:03:44 | 49.40225 | 8.72898 | 121° | 88km/h | 15653m | -9.3m/s | -57.8°C | 2.4% | 116.3hPa | 2.5V | 08:14:26 | 02:32:56 | 00:00:00 | |
| DB0UT-9 | 2026-09-04 07:03:43 | 49.40225 | 8.72897 | 122° | 88km/h | 15654m | -9.3m/s | -57.8°C | 2.4% | 116.3hPa | 2.5V | 08:14:00 | 00:00:00 | 00:00:00 | |
| DO3MHA-11 | 2026-09-04 07:03:41 | 49.40251 | 8.72807 | 107° | 60km/h | 15680m | -8.7m/s | -57.8°C | 5.7% | 115.8hPa | 2.5V | 00:00:00 | 02:32:53 | 00:00:00 | |
| BIOWL9-15 | 2026-09-04 07:03:39 | 49.40260 | 8.72756 | 105° | 58km/h | 15698m | -9.2m/s | -57.9°C | 2.3% | 115.5hPa | 2.5V | 00:00:00 | 00:00:00 | 00:00:00 | |
| DB0ND-19 | 2026-09-04 07:03:37 | 49.40276 | 8.72702 | 128° | 47km/h | 15727m | -9.6m/s | -57.6°C | 2.3% | 115.0hPa | 2.5V | 00:00:00 | 00:00:00 | 00:00:00 | |
| DM0DOS-11 | 2026-09-04 07:03:36 | 49.40334 | 8.72620 | 133° | 77km/h | 15773m | -9m/s | -57.6°C | 5.5% | 114.2hPa | 2.5V | 08:13:52 | 02:32:43 | 00:00:00 | |
| BIOWL1-15 | 2026-09-04 07:03:36 | 49.40276 | 8.72702 | 129° | 49km/h | 15726m | -9.6m/s | -57.6°C | 2.3% | 115hPa | 2.5V | 08:14:26 | 02:32:48 | 00:00:00 | |
| HSKMA3-T | 2026-09-04 07:03:33 | 49.40307 | 8.72658 | 140° | 66km/h | 15755m | -9.2m/s | -57.5°C | 2.2% | 114.5hPa | 2.5V | 08:14:26 | 02:32:45 | 00:00:00 | |
| BIOWL1-15 | 2026-09-04 07:03:28 | 49.40378 | 8.72497 | 107° | 60km/h | 15818m | -9.4m/s | -57.6°C | 2.2% | 113.3hPa | 2.6V | 08:14:26 | 02:32:38 | 00:00:00 | |
| NBG1-10 | 2026-09-04 07:03:27 | 49.40373 | 8.72521 | 110° | 46km/h | 15809m | -9.1m/s | -57.6°C | 5.4% | 113.4hPa | 2.6V | 00:00:00 | 02:32:39 | 00:00:00 | |
| DM0DOS-11 | 2026-09-04 07:03:26 | 49.40403 | 8.72422 | 139° | 42km/h | 15865m | -9m/s | -58°C | 5.5% | 112.5hPa | 2.6V | 08:14:02 | 02:32:33 | 00:00:00 | |
| HSKMA3-T | 2026-09-04 07:03:18 | 49.40434 | 8.72382 | 136° | 64km/h | 15892m | -8.8m/s | -58.3°C | 2.3% | 112hPa | 2.5V | 08:14:26 | 02:32:30 | 00:00:00 | |
| BIOWL1-15 | 2026-09-04 07:03:17 | 49.40464 | 8.72316 | 115° | 71km/h | 15919m | -9.2m/s | -58.2°C | 2.4% | 111.5hPa | 2.6V | 08:14:26 | 02:32:27 | 00:00:00 | |
| DJ2DS-15 | 2026-09-04 07:03:17 | 49.40445 | 8.72363 | 130° | 58km/h | 15901m | -8.9m/s | -58.2°C | 5.8% | 111.8hPa | 2.5V | 08:14:00 | 02:32:29 | 00:00:00 | |
| DM0DOS-11 | 2026-09-04 07:03:16 | 49.40479 | 8.72226 | 96° | 47km/h | 15957m | -9.2m/s | -58.2°C | 5.6% | 110.8hPa | 2.5V | 08:14:12 | 02:32:23 | 00:00:00 | |
| DG9SBQ-11 | 2026-09-04 07:03:13 | 49.40471 | 8.72291 | 109° | 68km/h | 15929m | -9.4m/s | -58.1°C | 2.3% | 111.4hPa | 2.5V | 08:14:00 | 00:00:00 | 00:00:00 | |
| DO3MHA-11 | 2026-09-04 07:03:11 | 49.40479 | 8.72226 | 97° | 47km/h | 15957m | -9.2m/s | -58.1°C | 5.6% | 110.8hPa | 2.5V | 00:00:00 | 02:32:23 | 00:00:00 | |
| DL1NUX | 2026-09-04 07:03:10 | 49.40506 | 8.72148 | 133° | 51km/h | 16012m | -9.3m/s | 0°C | 0% | 0hPa | 2.5V | 08:14:18 | 02:32:17 | 00:00:00 | |
| HSKMA3-T | 2026-09-04 07:03:07 | 49.40491 | 8.72173 | 130° | 37km/h | 15994m | -9.3m/s | -58.5°C | 2.2% | 110.2hPa | 2.6V | 08:14:26 | 02:32:19 | 00:00:00 | |
| BIOWL1-15 | 2026-09-04 07:03:06 | 49.40516 | 8.72132 | 129° | 60km/h | 16022m | -9m/s | -58.5°C | 2.2% | 109.7hPa | 2.5V | 08:14:26 | 02:32:16 | 00:00:00 | |
| DM0DOS-11 | 2026-09-04 07:03:06 | 49.40540 | 8.72063 | 108° | 73km/h | 16049m | -9.3m/s | -58.5°C | 5.8% | 109.2hPa | 2.5V | 08:14:22 | 02:32:13 | 00:00:00 | |
| DB0ND-19 | 2026-09-04 07:03:06 | 49.40506 | 8.72148 | 133° | 51km/h | 16012m | -9.3m/s | -58.5°C | 2.2% | 109.9hPa | 2.6V | 00:00:00 | 00:00:00 | 00:00:00 | |
| DK5PH-5 | 2026-09-04 07:03:04 | 49.40516 | 8.72132 | 129° | 57km/h | 16022m | -9.0m/s | -58.5°C | 5.6% | 109.7hPa | 2.6V | 00:00:00 | 02:32:16 | 00:00:00 | |
| DG9SBQ-11 | 2026-09-04 07:03:03 | 49.40516 | 8.72132 | 129° | 60km/h | 16022m | -9.0m/s | -58.5°C | 2.2% | 109.7hPa | 2.6V | 08:14:00 | 00:00:00 | 00:00:00 | |
| DD1CC8 | 2026-09-04 07:02:58 | 49.40548 | 8.71936 | 84° | 53km/h | 16098m | -9.7m/s | -58.5°C | 2.2% | 108.3hPa | 2.6V | 00:00:00 | 00:00:00 | 00:00:00 | |
| DM3KS-11 | 2026-09-04 07:02:56 | 49.40546 | 8.71917 | 83° | 46km/h | 16108m | -9.4m/s | -58.7°C | 2.2% | 108.2hPa | 2.6V | 00:00:00 | 00:00:00 | 00:00:00 | |
| DL1NUX | 2026-09-04 07:02:55 | 49.40559 | 8.71844 | 122° | 51km/h | 16154m | -10.1m/s | 0°C | 0% | 0hPa | 2.6V | 08:14:33 | 02:32:02 | 00:00:00 | |
| BIOWL1-15 | 2026-09-04 07:02:53 | 49.40546 | 8.71886 | 99° | 35km/h | 16126m | -8.7m/s | -58.9°C | 2.2% | 107.9hPa | 2.5V | 08:15:17 | 02:32:05 | 00:00:00 | |
| DF7PN | 2026-09-04 07:02:52 | 49.40553 | 8.71860 | 120° | 42km/h | 16144m | -9.9m/s | -59.1°C | 2.2% | 107.6hPa | 2.6V | 00:00:00 | 00:00:00 | 00:00:00 | |
| DM0DOS-11 | 2026-09-04 07:02:50 | 49.40566 | 8.71826 | 120° | 57km/h | 16164m | -9.7m/s | -59.2°C | 5.8% | 107.2hPa | 2.6V | 08:14:34 | 02:32:01 | 00:00:00 | |
| HSKMA3-T | 2026-09-04 07:02:48 | 49.40573 | 8.71806 | 116° | 64km/h | 16174m | -9.9m/s | -59.1°C | 2.3% | 107.1hPa | 2.5V | 08:19:32 | 02:32:00 | 00:00:00 | |
| BIOWL1-15 | 2026-09-04 07:02:45 | 49.40592 | 8.71672 | 89° | 68km/h | 16223m | -9.4m/s | -58.9°C | 2.1% | 106.2hPa | 2.5V | 08:15:17 | 02:31:55 | 00:00:00 | |
| AU51GT2 | 2026-09-04 07:02:44 | 49.40592 | 8.71699 | 94° | 71km/h | 16214m | -9.7m/s | 0°C | -1.0% | -1.0hPa | 2.6V | 00:00:00 | 00:00:00 | 00:00:00 | |
| DM0DOS-11 | 2026-09-04 07:02:44 | 49.40589 | 8.71594 | 99° | 37km/h | 16261m | -10m/s | -59.2°C | 5.7% | 105.6hPa | 2.6V | 08:14:44 | 02:31:51 | 00:00:00 | |
| CB1BUN | 2026-09-04 07:02:43 | 49.40591 | 8.71699 | 95° | 73km/h | 16214m | -9.7m/s | -58.7°C | 2.2% | 106.4hPa | 2.6V | 08:15:00 | 00:00:00 | 00:00:00 | |
| DO3MHA-11 | 2026-09-04 07:02:41 | 49.40590 | 8.71627 | 84° | 51km/h | 16242m | -9.4m/s | -59.0°C | 5.6% | 105.9hPa | 2.6V | 00:00:00 | 02:31:53 | 00:00:00 | |
| SO1NDE-10 | 2026-09-04 07:02:39 | 49.40589 | 8.71594 | 100° | 44km/h | 16261m | -9.9m/s | 0°C | 0% | 0hPa | 2.6V | 00:00:00 | 02:31:51 | 00:00:00 | |
| DL1NUX | 2026-09-04 07:02:38 | 49.40630 | 8.71499 | 121° | 69km/h | 16320m | -9.4m/s | 0°C | 0% | 0hPa | 2.6V | 08:14:50 | 02:31:45 | 00:00:00 | |
| DJ2DS-15 | 2026-09-04 07:02:37 | 49.40596 | 8.71568 | 124° | 51km/h | 16281m | -10.1m/s | -59.1°C | 5.8% | 105.2hPa | 2.5V | 00:00:00 | 02:31:49 | 00:00:00 | |
| DG9SBQ-11 | 2026-09-04 07:02:36 | 49.40596 | 8.71568 | 125° | 40km/h | 16281m | -10.2m/s | -59.2°C | 2.2% | 105.3hPa | 2.5V | 08:15:00 | 00:00:00 | 00:00:00 | |
| DB0ND-19 | 2026-09-04 07:02:35 | 49.40620 | 8.71520 | 126° | 62km/h | 16310m | -9.6m/s | -59.3°C | 2.2% | 104.8hPa | 2.5V | 00:00:00 | 00:00:00 | 00:00:00 | |
| DM0DOS-11 | 2026-09-04 07:02:34 | 49.40652 | 8.71398 | 95° | 62km/h | 16359m | -9.8m/s | -59.4°C | 5.8% | 104hPa | 2.5V | 08:14:54 | 02:31:41 | 00:00:00 | |
| BIOWL1-15 | 2026-09-04 07:02:32 | 49.40638 | 8.71475 | 115° | 73km/h | 16330m | -9.5m/s | -59.4°C | 2.2% | 104.5hPa | 2.6V | 08:15:17 | 02:31:44 | 00:00:00 | |
| DF2AP-13 | 2026-09-04 07:02:32 | 49.40638 | 8.71475 | 116° | 69km/h | 16330m | -9.5m/s | -59.4°C | 5.9% | 104.4hPa | 2.5V | 00:00:00 | 02:31:44 | 00:00:00 | |
| DO3MHA-11 | 2026-09-04 07:02:31 | 49.40645 | 8.71449 | 109° | 47km/h | 16339m | -9.6m/s | -59.4°C | 5.9% | 104.2hPa | 2.5V | 00:00:00 | 02:31:43 | 00:00:00 | |
| DF1GD-15 | 2026-09-04 07:02:30 | 49.40645 | 8.71449 | 109° | 71km/h | 16339m | -9.6m/s | -59.4°C | 2.3% | 104.3hPa | 2.5V | 08:15:00 | 00:00:00 | 00:00:00 | |
| DL8DAS-15 | 2026-09-04 07:02:29 | 49.40649 | 8.71423 | 103° | 69km/h | 16349m | -9.4m/s | -59.4°C | 2.2% | 104.2hPa | 2.5V | 08:15:00 | 00:00:00 | 00:00:00 | |
| DL1NUX | 2026-09-04 07:02:28 | 49.40659 | 8.71304 | 125° | 29km/h | 16418m | -9.9m/s | 0°C | 0% | 0hPa | 2.5V | 08:15:00 | 02:31:35 | 00:00:00 | |
| HSKMA3-T | 2026-09-04 07:02:28 | 49.40653 | 8.71375 | 92° | 55km/h | 16368m | -9.9m/s | -59.3°C | 2% | 103.8hPa | 2.5V | 08:19:32 | 02:31:40 | 00:00:00 | |
| DD1CC8 | 2026-09-04 07:02:27 | 49.40656 | 8.71314 | 111° | 27km/h | 16408m | -10.0m/s | -59.3°C | 2.1% | 103.2hPa | 2.5V | 00:00:00 | 00:00:00 | 00:00:00 | |
| DM3KS-11 | 2026-09-04 07:02:25 | 49.40656 | 8.71314 | 111° | 27km/h | 16408m | -10.0m/s | -59.3°C | 2.1% | 103.2hPa | 2.5V | 00:00:00 | 00:00:00 | 00:00:00 | |
| DM0DOS-11 | 2026-09-04 07:02:24 | 49.40690 | 8.71254 | 128° | 58km/h | 16458m | -9.7m/s | -59.2°C | 5.6% | 102.3hPa | 2.5V | 08:15:04 | 02:31:31 | 00:00:00 | |
| BIOWL1-15 | 2026-09-04 07:02:23 | 49.40672 | 8.71284 | 137° | 44km/h | 16438m | -10.3m/s | -59.2°C | 1.9% | 102.7hPa | 2.6V | 08:15:17 | 02:31:33 | 00:00:00 | |
| HSKMA3-T | 2026-09-04 07:02:17 | 49.40706 | 8.71212 | 114° | 66km/h | 16477m | -9.4m/s | -59.2°C | 1.9% | 102hPa | 2.5V | 08:19:32 | 02:31:29 | 00:00:00 | |
| DJ2DS-15 | 2026-09-04 07:02:17 | 49.40706 | 8.71212 | 114° | 51km/h | 16477m | -9.4m/s | -59.2°C | 5.7% | 102.0hPa | 2.5V | 00:00:00 | 02:31:29 | 00:00:00 | |
| DM0DOS-11 | 2026-09-04 07:02:14 | 49.40718 | 8.71068 | 116° | 24km/h | 16557m | -9.5m/s | -59.8°C | 5.6% | 100.7hPa | 2.6V | 08:15:14 | 02:31:21 | 00:00:00 | |
| DL1NUX | 2026-09-04 07:02:13 | 49.40722 | 8.71060 | 132° | 29km/h | 16567m | -9.8m/s | 0°C | 0% | 0hPa | 2.5V | 08:15:15 | 02:31:20 | 00:00:00 | |
| BIOWL1-15 | 2026-09-04 07:02:11 | 49.40716 | 8.71088 | 87° | 33km/h | 16538m | -9.8m/s | -59.6°C | 1.8% | 101hPa | 2.6V | 08:15:17 | 02:31:23 | 00:00:00 | |
| HSKMA3-T | 2026-09-04 07:02:07 | 49.40728 | 8.71051 | 138° | 37km/h | 16577m | -10.4m/s | -59.9°C | 1.8% | 100.4hPa | 2.5V | 08:19:32 | 02:31:19 | 00:00:00 | |
| DB0UT-7 | 2026-09-04 07:02:07 | 49.40727 | 8.71051 | 138° | 49km/h | 16577m | -10.3m/s | -59.8°C | 5.7% | 100.4hPa | 2.5V | 00:00:00 | 02:31:19 | 00:00:00 | |
| DO8TBO-1 | 2026-09-04 07:02:06 | 49.40735 | 8.71040 | 137° | 51km/h | 16588m | -10.6m/s | -59.8°C | 5.8% | 100.2hPa | 2.5V | 00:00:00 | 02:31:18 | 00:00:00 | |
| DM0DOS-11 | 2026-09-04 07:02:04 | 49.40779 | 8.70894 | 93° | 60km/h | 16659m | -10.7m/s | -59.8°C | 6.1% | 99.1hPa | 2.5V | 08:15:24 | 02:31:11 | 00:00:00 | |
| DB0ND-19 | 2026-09-04 07:02:04 | 49.40761 | 8.70991 | 120° | 62km/h | 16619m | -9.7m/s | -59.7°C | 2.1% | 99.8hPa | 2.6V | 00:00:00 | 00:00:00 | 00:00:00 | |
| DL1NUX | 2026-09-04 07:02:02 | 49.40780 | 8.70853 | 88° | 46km/h | 16681m | -10.4m/s | 0°C | 0% | 0hPa | 2.6V | 08:30:00 | 02:31:09 | 00:00:00 | |
| BIOWL1-15 | 2026-09-04 07:02:00 | 49.40778 | 8.70919 | 99° | 66km/h | 16649m | -10.5m/s | -59.8°C | 2% | 99.3hPa | 2.5V | 08:16:08 | 02:31:12 | 00:00:00 | |
| DL4BBY-15 | 2026-09-04 07:01:59 | 49.40780 | 8.70894 | 94° | 51km/h | 16660m | -10.6m/s | -61.9°C | 0% | 0hPa | 2.5V | 00:00:00 | 00:00:00 | 00:00:00 | |
| DJ2DS-15 | 2026-09-04 07:01:57 | 49.40780 | 8.70853 | 89° | 49km/h | 16681m | -10.4m/s | -59.4°C | 5.8% | 98.7hPa | 2.5V | 00:00:00 | 02:31:09 | 00:00:00 | |
| KANTATE | 2026-09-04 07:01:56 | 49.40780 | 8.70853 | 89° | 46km/h | 16681m | -10.5m/s | -59.5°C | 2.0% | 98.8hPa | 2.5V | 08:16:00 | 00:00:00 | 00:00:00 | |
| DH7VM-15 | 2026-09-04 07:01:55 | 49.40779 | 8.70836 | 90° | 38km/h | 16691m | -10.1m/s | -59.4°C | 2.0% | 98.6hPa | 2.5V | 00:00:00 | 00:00:00 | 00:00:00 | |
| DM0DOS-11 | 2026-09-04 07:01:54 | 49.40817 | 8.70757 | 133° | 58km/h | 16765m | -10.8m/s | -58.9°C | 5.6% | 97.4hPa | 2.5V | 08:15:34 | 02:31:01 | 00:00:00 | |
| DM3KS-11 | 2026-09-04 07:01:54 | 49.40785 | 8.70804 | 129° | 27km/h | 16721m | -10.2m/s | -59.7°C | 2.0% | 98.1hPa | 2.6V | 00:00:00 | 00:00:00 | 00:00:00 | |
| DL1NUX | 2026-09-04 07:01:52 | 49.40837 | 8.70719 | 122° | 69km/h | 16785m | -9.9m/s | 0°C | 0% | 0hPa | 2.6V | 08:30:00 | 02:30:59 | 00:00:00 | |
| BIOWL1-15 | 2026-09-04 07:01:49 | 49.40817 | 8.70757 | 133° | 58km/h | 16765m | -10.8m/s | -58.9°C | 1.7% | 97.4hPa | 2.5V | 08:16:08 | 02:31:01 | 00:00:00 | |
| DF1GD-15 | 2026-09-04 07:01:48 | 49.40817 | 8.70757 | 134° | 58km/h | 16765m | -10.8m/s | -58.9°C | 2.0% | 97.4hPa | 2.6V | 08:16:00 | 00:00:00 | 00:00:00 | |
| NBG1-10 | 2026-09-04 07:01:47 | 49.40837 | 8.70719 | 123° | 51km/h | 16786m | -9.9m/s | -58.6°C | 5.6% | 97.0hPa | 2.6V | 00:00:00 | 02:30:59 | 00:00:00 | |
| DG9SBQ-11 | 2026-09-04 07:01:46 | 49.40837 | 8.70719 | 124° | 69km/h | 16786m | -9.9m/s | -58.6°C | 1.9% | 97.1hPa | 2.5V | 08:16:00 | 00:00:00 | 00:00:00 | |
| BIOWL7-15 | 2026-09-04 07:01:45 | 49.40845 | 8.70695 | 117° | 69km/h | 16796m | -9.8m/s | -58.5°C | 1.9% | 96.9hPa | 2.5V | 00:00:00 | 00:00:00 | 00:00:00 | |
| DM0DOS-11 | 2026-09-04 07:01:44 | 49.40868 | 8.70563 | 122° | 31km/h | 16868m | -10.2m/s | -57.8°C | 5% | 95.8hPa | 2.5V | 08:15:44 | 02:30:51 | 00:00:00 | |
| DL1ZP-14 | 2026-09-04 07:01:43 | 49.40859 | 8.70624 | 98° | 55km/h | 16826m | -10.4m/s | -58.2°C | 1.8% | 96.5hPa | 2.5V | 00:00:00 | 00:00:00 | 00:00:00 | |
| HEMX73-11 | 2026-09-04 07:01:42 | 49.40859 | 8.70624 | 99° | 55km/h | 16826m | -10.4m/s | -58.1°C | 1.8% | 96.5hPa | 2.6V | 08:16:00 | 00:00:00 | 00:00:00 | |
| DO3MHA-11 | 2026-09-04 07:01:41 | 49.40862 | 8.70588 | 99° | 49km/h | 16847m | -10.5m/s | -57.9°C | 5.1% | 96.1hPa | 2.6V | 00:00:00 | 02:30:53 | 00:00:00 | |
| DL1NUX | 2026-09-04 07:01:40 | 49.40899 | 8.70513 | 130° | 60km/h | 16908m | -10.8m/s | 0°C | 0% | 0hPa | 2.6V | 08:30:00 | 02:30:47 | 00:00:00 | |
| BIOWL1-15 | 2026-09-04 07:01:39 | 49.40868 | 8.70563 | 122° | 31km/h | 16868m | -10.2m/s | -57.8°C | 1.4% | 95.9hPa | 2.5V | 08:16:08 | 02:30:51 | 00:00:00 | |
| SO1NDE-10 | 2026-09-04 07:01:39 | 49.40868 | 8.70563 | 123° | 37km/h | 16868m | -10.1m/s | 0°C | 0% | 0hPa | 2.6V | 00:00:00 | 02:30:51 | 00:00:00 | |
| DJ2DS-15 | 2026-09-04 07:01:37 | 49.40890 | 8.70529 | 136° | 53km/h | 16898m | -10.1m/s | -58.1°C | 1.7% | 95.5hPa | 2.6V | 00:00:00 | 00:00:00 | 00:00:00 | |
| DO8TBO-1 | 2026-09-04 07:01:35 | 49.40899 | 8.70513 | 131° | 53km/h | 16908m | -10.8m/s | -58.1°C | 5.0% | 95.2hPa | 2.6V | 00:00:00 | 02:30:47 | 00:00:00 | |
| DK5PH-5 | 2026-09-04 07:01:34 | 49.40909 | 8.70494 | 125° | 46km/h | 16919m | -10.7m/s | -58.2°C | 5.0% | 95.1hPa | 2.6V | 00:00:00 | 02:30:46 | 00:00:00 | |
| DF3TZ-5 | 2026-09-04 07:01:33 | 49.40917 | 8.70473 | 117° | 66km/h | 16930m | -10.7m/s | -58.3°C | 1.7% | 94.9hPa | 2.6V | 00:00:00 | 00:00:00 | 00:00:00 | |
| DM7RM-13 | 2026-09-04 07:01:32 | 49.40917 | 8.70473 | 119° | 68km/h | 16930m | -10.7m/s | -58.3°C | 1.7% | 94.9hPa | 2.6V | 08:16:00 | 00:00:00 | 00:00:00 | |
| DM0DOS-11 | 2026-09-04 07:01:29 | 49.40933 | 8.70376 | 90° | 57km/h | 16972m | -10.2m/s | -58.3°C | 5.3% | 94.3hPa | 2.6V | 08:15:54 | 02:30:41 | 00:00:00 | |
| HSKMA3-T | 2026-09-04 07:01:28 | 49.40932 | 8.70355 | 86° | 49km/h | 16982m | -10.6m/s | -58.3°C | 1.4% | 94.1hPa | 2.5V | 08:19:32 | 02:30:40 | 00:00:00 | |
| DF1GD-15 | 2026-09-04 07:01:27 | 49.40932 | 8.70355 | 87° | 49km/h | 16982m | -10.6m/s | -58.3°C | 1.8% | 94.1hPa | 2.6V | 08:16:00 | 00:00:00 | 00:00:00 | |
| DN1GJH-1 | 2026-09-04 07:01:26 | 49.40931 | 8.70337 | 86° | 42km/h | 16993m | -10.7m/s | -58.2°C | 1.8% | 93.9hPa | 2.6V | 08:16:00 | 00:00:00 | 00:00:00 | |
| DL0LBS | 2026-09-04 07:01:25 | 49.40930 | 8.70323 | 88° | 33km/h | 17004m | -10.5m/s | -58.0°C | 1.7% | 93.8hPa | 2.6V | 08:16:00 | 00:00:00 | 00:00:00 | |
| DM0DOS-11 | 2026-09-04 07:01:24 | 49.40964 | 8.70243 | 123° | 57km/h | 17076m | -10.4m/s | -58.1°C | 5% | 92.7hPa | 2.6V | 08:16:04 | 02:30:31 | 00:00:00 | |
| BIOWL1-15 | 2026-09-04 07:01:17 | 49.40977 | 8.70201 | 108° | 62km/h | 17097m | -10.1m/s | -58.3°C | 1.3% | 92.4hPa | 2.5V | 08:16:08 | 02:30:29 | 00:00:00 | |
| DJ2DS-15 | 2026-09-04 07:01:17 | 49.40977 | 8.70201 | 108° | 53km/h | 17097m | -10.0m/s | -58.2°C | 5.1% | 92.4hPa | 2.5V | 00:00:00 | 02:30:29 | 00:00:00 | |
| KANTATE | 2026-09-04 07:01:15 | 49.40981 | 8.70178 | 101° | 60km/h | 17108m | -10.7m/s | -58.3°C | 1.7% | 92.3hPa | 2.6V | 08:16:00 | 00:00:00 | 00:00:00 | |
| DM0DOS-11 | 2026-09-04 07:01:14 | 49.40977 | 8.70064 | 112° | 26km/h | 17181m | -10m/s | -57.9°C | 5.1% | 91.2hPa | 2.6V | 08:16:14 | 02:30:21 | 00:00:00 | |
| DL1XH-west | 2026-09-04 07:01:13 | 49.40980 | 8.70115 | 80° | 47km/h | 17140m | -10.7m/s | -58°C | 1.4% | 91.8hPa | 2.6V | 08:16:59 | 02:30:25 | 00:00:00 | |
| BIOWL1-15 | 2026-09-04 07:01:09 | 49.40986 | 8.70043 | 129° | 40km/h | 17201m | -10.4m/s | -57.6°C | 1.2% | 91hPa | 2.6V | 08:16:59 | 02:30:19 | 00:00:00 | |
| HSKMA3-T | 2026-09-04 07:01:05 | 49.41001 | 8.70013 | 123° | 57km/h | 17223m | -10.9m/s | -57.6°C | 1.2% | 90.6hPa | 2.5V | 08:19:32 | 02:30:17 | 00:00:00 | |
| DM0DOS-11 | 2026-09-04 07:01:04 | 49.41026 | 8.69866 | 87° | 64km/h | 17287m | -10.3m/s | -57.7°C | 5.2% | 89.7hPa | 2.5V | 08:16:24 | 02:30:11 | 00:00:00 | |
| BIOWL1-15 | 2026-09-04 07:00:58 | 49.41023 | 8.69806 | 91° | 42km/h | 17320m | -10.8m/s | -57.5°C | 1.4% | 89.2hPa | 2.6V | 08:16:59 | 02:30:08 | 00:00:00 | |
| DJ2DS-15 | 2026-09-04 07:00:57 | 49.41024 | 8.69823 | 84° | 49km/h | 17309m | -10.7m/s | -57.6°C | 5.2% | 89.4hPa | 2.5V | 00:00:00 | 02:30:09 | 00:00:00 | |
| DO8TBO-1 | 2026-09-04 07:00:56 | 49.41023 | 8.69806 | 91° | 38km/h | 17320m | -10.8m/s | -57.4°C | 5.3% | 89.2hPa | 2.5V | 00:00:00 | 02:30:08 | 00:00:00 | |
| DM0DOS-11 | 2026-09-04 07:00:54 | 49.41068 | 8.69692 | 120° | 71km/h | 17396m | -10.6m/s | -56.6°C | 4.7% | 88.2hPa | 2.5V | 08:16:34 | 02:30:01 | 00:00:00 | |
| BIOWL1-15 | 2026-09-04 07:00:46 | 49.41087 | 8.69613 | 101° | 69km/h | 17428m | -10.9m/s | -56.5°C | 1.1% | 87.8hPa | 2.6V | 08:16:59 | 02:29:58 | 00:00:00 | |
| DM0DOS-11 | 2026-09-04 07:00:44 | 49.41099 | 8.69498 | 134° | 31km/h | 17504m | -11.1m/s | -55.6°C | 4.4% | 86.6hPa | 2.5V | 08:16:44 | 02:29:51 | 00:00:00 | |
| DL1XH1-15 | 2026-09-04 07:00:42 | 49.41095 | 8.69507 | 119° | 27km/h | 17493m | -11.2m/s | -55.7°C | 4.5% | 86.8hPa | 2.6V | 08:16:43 | 02:29:52 | 00:00:00 | |
| DL1XH-west | 2026-09-04 07:00:39 | 49.41099 | 8.69498 | 135° | 31km/h | 17504m | -11.1m/s | -55.7°C | 0.9% | 86.6hPa | 2.5V | 08:16:59 | 02:29:51 | 00:00:00 | |
| BIOWL1-15 | 2026-09-04 07:00:37 | 49.41131 | 8.69449 | 126° | 57km/h | 17546m | -10.1m/s | -55.5°C | 0.8% | 86hPa | 2.6V | 08:16:59 | 02:29:47 | 00:00:00 | |
| DJ2DS-15 | 2026-09-04 07:00:37 | 49.41113 | 8.69478 | 139° | 42km/h | 17526m | -10.5m/s | -55.6°C | 4.4% | 86.3hPa | 2.6V | 00:00:00 | 02:29:49 | 00:00:00 | |
| DB0UT-9 | 2026-09-04 07:00:36 | 49.41113 | 8.69478 | 139° | 46km/h | 17526m | -10.6m/s | -55.7°C | 1.4% | 86.4hPa | 2.6V | 08:16:00 | 00:00:00 | 00:00:00 | |
| DL8DAS-14 | 2026-09-04 07:00:35 | 49.41139 | 8.69430 | 117° | 58km/h | 17557m | -10.3m/s | -55.6°C | 1.3% | 86.0hPa | 2.6V | 00:00:00 | 00:00:00 | 00:00:00 | |
| DK5PH-5 | 2026-09-04 07:00:34 | 49.41138 | 8.69430 | 118° | 37km/h | 17557m | -10.2m/s | -55.5°C | 4.3% | 85.9hPa | 2.6V | 00:00:00 | 02:29:46 | 00:00:00 | |
| BIOWL9-15 | 2026-09-04 07:00:33 | 49.41145 | 8.69408 | 108° | 60km/h | 17567m | -10.3m/s | -55.6°C | 1.4% | 85.8hPa | 2.6V | 00:00:00 | 00:00:00 | 00:00:00 | |
| DM7RM-13 | 2026-09-04 07:00:31 | 49.41148 | 8.69386 | 100° | 58km/h | 17578m | -10.9m/s | -55.7°C | 1.4% | 85.7hPa | 2.6V | 08:16:00 | 00:00:00 | 00:00:00 | |
| DM0DOS-11 | 2026-09-04 07:00:29 | 49.41147 | 8.69329 | 77° | 38km/h | 17611m | -11.2m/s | -55.7°C | 4.5% | 85.2hPa | 2.6V | 08:16:54 | 02:29:41 | 00:00:00 | |
| DL1XH-west | 2026-09-04 07:00:29 | 49.41147 | 8.69329 | 78° | 38km/h | 17611m | -11.2m/s | -55.7°C | 1% | 85.2hPa | 2.6V | 08:16:59 | 02:29:41 | 00:00:00 | |
| HSKMA3-T | 2026-09-04 07:00:26 | 49.41143 | 8.69299 | 90° | 15km/h | 17644m | -10.8m/s | -55.8°C | 0.9% | 84.8hPa | 2.5V | 08:19:32 | 02:29:38 | 00:00:00 | |
| BIOWL1-15 | 2026-09-04 07:00:24 | 49.41180 | 8.69240 | 121° | 51km/h | 17720m | -10.7m/s | -55.7°C | 0.7% | 83.7hPa | 2.6V | 08:17:50 | 02:29:31 | 00:00:00 | |
| DB0NH | 2026-09-04 07:00:24 | 49.41147 | 8.69290 | 146° | 33km/h | 17666m | -10.8m/s | -55.7°C | 4.4% | 84.4hPa | 2.6V | 00:00:00 | 02:29:36 | 00:00:00 | |
| CB1BUN | 2026-09-04 07:00:22 | 49.41158 | 8.69278 | 145° | 37km/h | 17688m | -10.9m/s | -55.5°C | 1.3% | 84.2hPa | 2.6V | 08:17:00 | 00:00:00 | 00:00:00 | |
| DO3DL | 2026-09-04 07:00:21 | 49.41158 | 8.69278 | 145° | 37km/h | 17688m | -10.9m/s | -55.5°C | 1.3% | 84.2hPa | 2.6V | 00:00:00 | 00:00:00 | 00:00:00 | |
| DM0DOS-11 | 2026-09-04 07:00:19 | 49.41180 | 8.69240 | 120° | 49km/h | 17720m | -10.7m/s | -55.6°C | 4.2% | 83.7hPa | 2.6V | 08:17:04 | 02:29:31 | 00:00:00 | |
| DL1XH-west | 2026-09-04 07:00:18 | 49.41186 | 8.69223 | 111° | 51km/h | 17731m | -10.8m/s | -55.8°C | 0.8% | 83.6hPa | 2.6V | 08:19:32 | 02:29:30 | 00:00:00 | |
| BIOWL1-15 | 2026-09-04 07:00:12 | 49.41187 | 8.69140 | 88° | 15km/h | 17796m | -11m/s | -55.9°C | 0.9% | 82.8hPa | 2.5V | 08:17:50 | 02:29:24 | 00:00:00 | |
| DL1XH-west | 2026-09-04 07:00:08 | 49.41203 | 8.69125 | 158° | 35km/h | 17840m | -10.8m/s | -56.2°C | 0.9% | 82.2hPa | 2.6V | 08:19:32 | 02:29:20 | 00:00:00 | |
| NBG1-10 | 2026-09-04 07:00:08 | 49.41203 | 8.69125 | 159° | 37km/h | 17840m | -10.8m/s | -56.1°C | 4.4% | 82.1hPa | 2.6V | 08:17:00 | 02:29:20 | 00:00:00 | |
| DB0UT-7 | 2026-09-04 07:00:07 | 49.41211 | 8.69119 | 153° | 35km/h | 17851m | -11.0m/s | -56.2°C | 4.4% | 82.0hPa | 2.5V | 00:00:00 | 02:29:19 | 00:00:00 | |
| DF1GD-15 | 2026-09-04 07:00:05 | 49.41221 | 8.69110 | 148° | 49km/h | 17862m | -11.3m/s | -56.4°C | 1.4% | 81.9hPa | 2.6V | 08:17:00 | 00:00:00 | 00:00:00 | |
| DM0DOS-11 | 2026-09-04 07:00:04 | 49.41268 | 8.68993 | 95° | 38km/h | 17939m | -11m/s | -57°C | 4.9% | 80.9hPa | 2.6V | 08:17:24 | 02:29:11 | 00:00:00 | |
| BIOWL1-15 | 2026-09-04 07:00:03 | 49.41258 | 8.69047 | 117° | 57km/h | 17907m | -11m/s | -56.9°C | 0.9% | 81.3hPa | 2.5V | 08:17:50 | 02:29:14 | 00:00:00 | |
| DL1XH1-15 | 2026-09-04 07:00:02 | 49.41258 | 8.69046 | 116° | 57km/h | 17907m | -10.9m/s | -56.9°C | 4.6% | 81.3hPa | 2.5V | 08:17:21 | 02:29:14 | 00:00:00 | |
| DL1XH-west | 2026-09-04 06:59:57 | 49.41269 | 8.68970 | 98° | 22km/h | 17962m | -11.5m/s | -57°C | 1.1% | 80.6hPa | 2.6V | 08:19:32 | 02:29:09 | 00:00:00 | |
| HSKMA3-T | 2026-09-04 06:59:54 | 49.41276 | 8.68957 | 165° | 20km/h | 17996m | -11m/s | -56.7°C | 1.1% | 80.2hPa | 2.5V | 08:19:32 | 02:29:06 | 00:00:00 | |
| DL1XH1-15 | 2026-09-04 06:59:53 | 49.41290 | 8.68952 | 161° | 35km/h | 18017m | -10.9m/s | -56.6°C | 4.8% | 80hPa | 2.6V | 08:17:31 | 02:29:04 | 00:00:00 | |
| BIOWL1-15 | 2026-09-04 06:59:52 | 49.41290 | 8.68952 | 162° | 35km/h | 18017m | -10.9m/s | -56.7°C | 1.1% | 80hPa | 2.6V | 08:17:50 | 02:29:04 | 00:00:00 | |
| DD1CC8 | 2026-09-04 06:59:51 | 49.41298 | 8.68946 | 152° | 40km/h | 18028m | -11.1m/s | -56.5°C | 1.4% | 79.8hPa | 2.6V | 00:00:00 | 00:00:00 | 00:00:00 | |
| DM0DOS-11 | 2026-09-04 06:59:49 | 49.41315 | 8.68924 | 128° | 46km/h | 18051m | -11.2m/s | -56.6°C | 4.7% | 79.5hPa | 2.6V | 08:17:34 | 02:29:01 | 00:00:00 | |
| DL1XH-west | 2026-09-04 06:59:46 | 49.41328 | 8.68877 | 92° | 40km/h | 18084m | -11.3m/s | -56.8°C | 1.1% | 79.1hPa | 2.5V | 08:19:32 | 02:28:58 | 00:00:00 | |
| DF7PN | 2026-09-04 06:59:45 | 49.41327 | 8.68862 | 80° | 35km/h | 18096m | -11.4m/s | -56.8°C | 1.5% | 79.0hPa | 2.6V | 00:00:00 | 00:00:00 | 00:00:00 | |
| BIOWL1-15 | 2026-09-04 06:59:44 | 49.41316 | 8.68833 | 32° | 24km/h | 18129m | -11.5m/s | -56.5°C | 1.1% | 78.5hPa | 2.6V | 08:17:50 | 02:28:54 | 00:00:00 | |
| DL1XH-west | 2026-09-04 06:59:35 | 49.41306 | 8.68841 | 168° | 15km/h | 18209m | -10.8m/s | -54.6°C | 0.6% | 77.5hPa | 2.5V | 08:19:32 | 02:28:47 | 00:00:00 | |
| NBG1-10 | 2026-09-04 06:59:35 | 49.41306 | 8.68840 | 168° | 31km/h | 18209m | -10.8m/s | -54.6°C | 3.9% | 77.5hPa | 2.7V | 00:00:00 | 02:28:47 | 00:00:00 | |
| DM0DOS-11 | 2026-09-04 06:59:34 | 49.41303 | 8.68791 | 43° | 35km/h | 18276m | -11.3m/s | -55°C | 4.1% | 76.7hPa | 2.7V | 08:17:54 | 02:28:41 | 00:00:00 | |
| BIOWL1-15 | 2026-09-04 06:59:33 | 49.41312 | 8.68812 | 74° | 29km/h | 18254m | -11.4m/s | -54.9°C | 0.6% | 77hPa | 2.5V | 08:18:41 | 02:28:43 | 00:00:00 | |
| DL1XH-west | 2026-09-04 06:59:24 | 49.41263 | 8.68779 | 334° | 27km/h | 18332m | -10.9m/s | -55.3°C | 0.8% | 76.1hPa | 2.5V | 08:19:32 | 02:28:36 | 00:00:00 | |
| DM0DOS-11 | 2026-09-04 06:59:24 | 49.41256 | 8.68791 | 110° | 13km/h | 18388m | -11.3m/s | -55.6°C | 4% | 75.4hPa | 2.5V | 08:18:04 | 02:28:31 | 00:00:00 | |
| BIOWL1-15 | 2026-09-04 06:59:20 | 49.41255 | 8.68793 | 151° | 5km/h | 18376m | -11.3m/s | -55.5°C | 0.6% | 75.6hPa | 2.5V | 08:18:41 | 02:28:32 | 00:00:00 | |
| DL4BBY-15 | 2026-09-04 06:59:20 | 49.41255 | 8.68793 | 151° | 26km/h | 18377m | -11.2m/s | -57.7°C | 0% | 0hPa | 2.6V | 00:00:00 | 00:00:00 | 00:00:00 | |
| DJ2KF-10 | 2026-09-04 06:59:19 | 49.41256 | 8.68790 | 111° | 27km/h | 18388m | -11.3m/s | -55.6°C | 4.0% | 75.4hPa | 2.6V | 00:00:00 | 02:28:31 | 00:00:00 | |
| HEMX73-11 | 2026-09-04 06:59:18 | 49.41257 | 8.68784 | 94° | 20km/h | 18399m | -11.3m/s | -55.7°C | 1.2% | 75.3hPa | 2.6V | 00:00:00 | 00:00:00 | 00:00:00 | |
| DJ2DS-15 | 2026-09-04 06:59:17 | 49.41256 | 8.68775 | 80° | 31km/h | 18411m | -11.0m/s | -55.8°C | 4.1% | 75.1hPa | 2.6V | 00:00:00 | 02:28:29 | 00:00:00 | |
| DG9SBQ-11 | 2026-09-04 06:59:16 | 49.41254 | 8.68764 | 68° | 35km/h | 18422m | -11.1m/s | -56.0°C | 1.3% | 75.0hPa | 2.6V | 08:18:00 | 00:00:00 | 00:00:00 | |
| DM0DOS-11 | 2026-09-04 06:59:14 | 49.41190 | 8.68730 | 117° | 7km/h | 18546m | -11.5m/s | -56.9°C | 4.3% | 73.5hPa | 2.6V | 08:18:18 | 02:28:17 | 00:00:00 | |
| BIOWL1-15 | 2026-09-04 06:59:10 | 49.41206 | 8.68721 | 354° | 33km/h | 18489m | -11.3m/s | -56.4°C | 0.9% | 74.2hPa | 2.6V | 08:18:41 | 02:28:22 | 00:00:00 | |
| EDDB2-12 | 2026-09-04 06:59:09 | 49.41194 | 8.68726 | 330° | 18km/h | 18512m | -11.5m/s | -56.6°C | 1.3% | 74.0hPa | 2.5V | 00:00:00 | 00:00:00 | 00:00:00 | |
| DL1ZP-14 | 2026-09-04 06:59:08 | 49.41194 | 8.68726 | 330° | 18km/h | 18512m | -11.5m/s | -56.6°C | 1.3% | 74.0hPa | 2.5V | 00:00:00 | 00:00:00 | 00:00:00 | |
| DB0UT-7 | 2026-09-04 06:59:07 | 49.41191 | 8.68729 | 319° | 33km/h | 18524m | -11.5m/s | -56.7°C | 4.4% | 73.8hPa | 2.6V | 00:00:00 | 02:28:19 | 00:00:00 | |
| DJTTGO | 2026-09-04 06:59:06 | 49.41191 | 8.68729 | 320° | 11km/h | 18524m | -11.5m/s | -56.8°C | 1.4% | 73.8hPa | 2.6V | 08:18:00 | 00:00:00 | 00:00:00 | |
| DG9SBQ-11 | 2026-09-04 06:59:05 | 49.41190 | 8.68731 | 294° | 2km/h | 18535m | -11.6m/s | -56.8°C | 1.3% | 73.7hPa | 2.6V | 08:18:00 | 00:00:00 | 00:00:00 | |
| DK5PH-5 | 2026-09-04 06:59:04 | 49.41191 | 8.68726 | 108° | 33km/h | 18558m | -11.4m/s | -56.9°C | 4.4% | 73.4hPa | 2.6V | 00:00:00 | 02:28:16 | 00:00:00 | |
| SONDE2-11 | 2026-09-04 06:59:03 | 49.41192 | 8.68707 | 86° | 31km/h | 18581m | -11.3m/s | -57.2°C | 1.3% | 73.2hPa | 2.6V | 00:00:00 | 00:00:00 | 00:00:00 | |
| DL8DAS-14 | 2026-09-04 06:59:02 | 49.41191 | 8.68694 | 74° | 37km/h | 18592m | -11.5m/s | -57.4°C | 1.4% | 73.0hPa | 2.6V | 00:00:00 | 00:00:00 | 00:00:00 | |
| BIOWL9-15 | 2026-09-04 06:59:00 | 49.41181 | 8.68665 | 53° | 44km/h | 18615m | -11.6m/s | -57.6°C | 1.4% | 72.8hPa | 2.6V | 00:00:00 | 00:00:00 | 00:00:00 | |
| DM0DOS-11 | 2026-09-04 06:58:59 | 49.41165 | 8.68641 | 33° | 44km/h | 18639m | -11.8m/s | -57.7°C | 4.9% | 72.5hPa | 2.6V | 08:18:26 | 02:28:09 | 00:00:00 | |
| BIOWL1-15 | 2026-09-04 06:58:59 | 49.41181 | 8.68665 | 54° | 46km/h | 18615m | -11.6m/s | -57.6°C | 1% | 72.8hPa | 2.5V | 08:18:41 | 02:28:11 | 00:00:00 | |
| DF3TZ-5 | 2026-09-04 06:58:58 | 49.41174 | 8.68652 | 43° | 46km/h | 18627m | -11.7m/s | -57.7°C | 1.5% | 72.6hPa | 2.6V | 00:00:00 | 00:00:00 | 00:00:00 | |
| DB0ND-19 | 2026-09-04 06:58:57 | 49.41165 | 8.68641 | 33° | 44km/h | 18639m | -11.8m/s | -57.7°C | 1.5% | 72.5hPa | 2.6V | 00:00:00 | 00:00:00 | 00:00:00 | |
| DL3AQ-11 | 2026-09-04 06:58:56 | 49.41147 | 8.68629 | 16° | 31km/h | 18662m | -11.7m/s | -57.8°C | 1.5% | 72.2hPa | 2.6V | 00:00:00 | 00:00:00 | 00:00:00 | |
| DL8DAS-15 | 2026-09-04 06:58:55 | 49.41156 | 8.68634 | 26° | 40km/h | 18651m | -11.8m/s | -57.7°C | 1.6% | 72.4hPa | 2.6V | 00:00:00 | 00:00:00 | 00:00:00 | |
| DB0NH | 2026-09-04 06:58:54 | 49.41140 | 8.68626 | 11° | 37km/h | 18674m | -11.5m/s | -57.8°C | 5.1% | 72.0hPa | 2.6V | 00:00:00 | 02:28:06 | 00:00:00 | |
| DB0UT-9 | 2026-09-04 06:58:53 | 49.41140 | 8.68626 | 12° | 24km/h | 18674m | -11.5m/s | -57.9°C | 1.6% | 72.1hPa | 2.6V | 08:18:00 | 00:00:00 | 00:00:00 | |
| DO3DL | 2026-09-04 06:58:52 | 49.41136 | 8.68625 | 11° | 13km/h | 18686m | -11.5m/s | -57.9°C | 1.5% | 72.0hPa | 2.6V | 00:00:00 | 00:00:00 | 00:00:00 | |
| DO3MHA-11 | 2026-09-04 06:58:51 | 49.41135 | 8.68620 | 122° | 44km/h | 18709m | -11.7m/s | -57.9°C | 4.9% | 71.7hPa | 2.6V | 00:00:00 | 02:28:03 | 00:00:00 | |
| DL4BBY-15 | 2026-09-04 06:58:50 | 49.41137 | 8.68615 | 124° | 38km/h | 18721m | -11.9m/s | -60.1°C | 0% | 0hPa | 2.6V | 00:00:00 | 00:00:00 | 00:00:00 | |
| DM0DOS-11 | 2026-09-04 06:58:49 | 49.41148 | 8.68578 | 105° | 46km/h | 18757m | -12.1m/s | -58.2°C | 4.9% | 71.1hPa | 2.6V | 08:18:36 | 02:27:59 | 00:00:00 | |
| BIOWL1-15 | 2026-09-04 06:58:48 | 49.41144 | 8.68593 | 111° | 38km/h | 18745m | -12.5m/s | -58.1°C | 1.1% | 71.3hPa | 2.5V | 08:18:41 | 02:28:00 | 00:00:00 | |
| DM3KS-11 | 2026-09-04 06:58:47 | 49.41148 | 8.68578 | 105° | 46km/h | 18757m | -12.1m/s | -58.2°C | 1.5% | 71.1hPa | 2.5V | 00:00:00 | 00:00:00 | 00:00:00 | |
| DO3DL | 2026-09-04 06:58:46 | 49.41147 | 8.68577 | 106° | 46km/h | 18757m | -12.1m/s | -58.2°C | 1.5% | 71.1hPa | 2.5V | 00:00:00 | 00:00:00 | 00:00:00 | |
| DJTTGO | 2026-09-04 06:58:45 | 49.41150 | 8.68559 | 98° | 53km/h | 18770m | -12.1m/s | -58.2°C | 1.5% | 71.0hPa | 2.5V | 08:18:00 | 00:00:00 | 00:00:00 | |
| DM0DOS-11 | 2026-09-04 06:58:43 | 49.41118 | 8.68422 | 77° | 11km/h | 18874m | -12m/s | -57.7°C | 5.1% | 69.8hPa | 2.5V | 08:18:46 | 02:27:49 | 00:00:00 | |
| BIOWL1-15 | 2026-09-04 06:58:37 | 49.41118 | 8.68422 | 77° | 11km/h | 18874m | -12m/s | -57.7°C | 1.2% | 69.8hPa | 2.5V | 08:19:32 | 02:27:49 | 00:00:00 | |
| DJ2DS-15 | 2026-09-04 06:58:37 | 49.41118 | 8.68422 | 78° | 37km/h | 18875m | -11.9m/s | -57.7°C | 5.1% | 69.8hPa | 2.5V | 00:00:00 | 02:27:49 | 00:00:00 | |
| AU51GT2 | 2026-09-04 06:58:36 | 49.41119 | 8.68418 | 123° | 13km/h | 18887m | -12.2m/s | -57.7°C | 1.5% | 69.7hPa | 2.5V | 00:00:00 | 00:00:00 | 00:00:00 | |
| DL8DAS-15 | 2026-09-04 06:58:35 | 49.41119 | 8.68418 | 124° | 13km/h | 18887m | -12.2m/s | -57.7°C | 1.5% | 69.7hPa | 2.5V | 00:00:00 | 00:00:00 | 00:00:00 | |
| DK5PH-5 | 2026-09-04 06:58:34 | 49.41127 | 8.68407 | 141° | 35km/h | 18911m | -12.1m/s | -57.7°C | 5.0% | 69.4hPa | 2.5V | 00:00:00 | 02:27:46 | 00:00:00 | |
| DB0UT-9 | 2026-09-04 06:58:32 | 49.41133 | 8.68398 | 137° | 38km/h | 18923m | -12.1m/s | -57.7°C | 1.5% | 69.2hPa | 2.5V | 08:19:00 | 00:00:00 | 00:00:00 | |
| DO3MHA-11 | 2026-09-04 06:58:31 | 49.41147 | 8.68371 | 123° | 42km/h | 18947m | -11.8m/s | -57.7°C | 5.0% | 68.9hPa | 2.5V | 00:00:00 | 02:27:43 | 00:00:00 | |
| DM0DOS-11 | 2026-09-04 06:58:29 | 49.41164 | 8.68291 | 91° | 51km/h | 18995m | -11.8m/s | -57.1°C | 4.9% | 68.5hPa | 2.5V | 08:18:56 | 02:27:39 | 00:00:00 | |
| BIOWL1-15 | 2026-09-04 06:58:27 | 49.41164 | 8.68291 | 91° | 51km/h | 18995m | -11.8m/s | -57.1°C | 1.1% | 68.5hPa | 2.5V | 08:19:32 | 02:27:39 | 00:00:00 | |
| DL1XH-west | 2026-09-04 06:58:26 | 49.41163 | 8.68272 | 84° | 46km/h | 19006m | -11.6m/s | -57°C | 1.1% | 68.4hPa | 2.6V | 08:19:32 | 02:27:38 | 00:00:00 | |
| DL8DAS-15 | 2026-09-04 06:58:25 | 49.41163 | 8.68272 | 85° | 46km/h | 19007m | -11.6m/s | -57.0°C | 1.4% | 68.4hPa | 2.6V | 00:00:00 | 00:00:00 | 00:00:00 | |
| DB0NH | 2026-09-04 06:58:24 | 49.41160 | 8.68245 | 76° | 31km/h | 19030m | -11.2m/s | -56.8°C | 5.0% | 68.1hPa | 2.6V | 00:00:00 | 02:27:36 | 00:00:00 | |
| KANTATE | 2026-09-04 06:58:23 | 49.41160 | 8.68245 | 77° | 26km/h | 19030m | -11.3m/s | -56.8°C | 1.5% | 68.1hPa | 2.6V | 00:00:00 | 00:00:00 | 00:00:00 | |
| DF1GD-15 | 2026-09-04 06:58:22 | 49.41159 | 8.68236 | 90° | 18km/h | 19041m | -11.7m/s | -56.8°C | 1.5% | 68.0hPa | 2.6V | 08:19:00 | 00:00:00 | 00:00:00 | |
| DO3MHA-11 | 2026-09-04 06:58:21 | 49.41163 | 8.68227 | 150° | 42km/h | 19065m | -11.8m/s | -56.8°C | 4.9% | 67.7hPa | 2.6V | 08:19:00 | 02:27:33 | 00:00:00 | |
| DL4BBY-15 | 2026-09-04 06:58:20 | 49.41169 | 8.68222 | 157° | 27km/h | 19077m | -12.3m/s | -59.0°C | 0% | 0hPa | 2.5V | 00:00:00 | 00:00:00 | 00:00:00 | |
| DM0DOS-11 | 2026-09-04 06:58:19 | 49.41195 | 8.68200 | 144° | 49km/h | 19113m | -11.9m/s | -56.5°C | 4.7% | 67.2hPa | 2.5V | 08:19:06 | 02:27:29 | 00:00:00 | |
| HSKMA3-T | 2026-09-04 06:58:18 | 49.41186 | 8.68210 | 151° | 44km/h | 19101m | -12.2m/s | -56.7°C | 1% | 67.3hPa | 2.5V | 08:19:32 | 02:27:30 | 00:00:00 | |
| BIOWL1-15 | 2026-09-04 06:58:16 | 49.41205 | 8.68188 | 136° | 53km/h | 19125m | -11.5m/s | -56.3°C | 1% | 67.1hPa | 2.5V | 08:19:32 | 02:27:28 | 00:00:00 | |
| DJ2DS-15 | 2026-09-04 06:58:16 | 49.41205 | 8.68188 | 136° | 33km/h | 19125m | -11.5m/s | -56.3°C | 4.6% | 67.0hPa | 2.5V | 00:00:00 | 02:27:28 | 00:00:00 | |
| HEMX73-11 | 2026-09-04 06:58:15 | 49.41205 | 8.68188 | 136° | 53km/h | 19125m | -11.5m/s | -56.3°C | 1.3% | 67.1hPa | 2.5V | 08:19:00 | 00:00:00 | 00:00:00 | |
| DM0DOS-11 | 2026-09-04 06:58:12 | 49.41220 | 8.68090 | 216° | 4km/h | 19232m | -11.4m/s | -55.5°C | 4.6% | 66hPa | 2.5V | 08:19:16 | 02:27:19 | 00:00:00 | |
| HSKMA3-T | 2026-09-04 06:58:09 | 49.41221 | 8.68090 | 217° | 4km/h | 19232m | -11.5m/s | -55.5°C | 1% | 66hPa | 2.5V | 08:19:32 | 02:27:19 | 00:00:00 | |
| BIOWL1-15 | 2026-09-04 06:58:07 | 49.41223 | 8.68091 | 198° | 13km/h | 19243m | -11.5m/s | -55.5°C | 0.9% | 65.8hPa | 2.5V | 08:19:32 | 02:27:18 | 00:00:00 | |
| DL1XH-west | 2026-09-04 06:58:05 | 49.41227 | 8.68092 | 182° | 22km/h | 19255m | -11.4m/s | -55.5°C | 0.9% | 65.8hPa | 2.6V | 08:19:32 | 02:27:17 | 00:00:00 | |
| AU51GT2 | 2026-09-04 06:58:05 | 49.41227 | 8.68092 | 182° | 22km/h | 19255m | -11.4m/s | -55.5°C | 1.3% | 65.8hPa | 2.6V | 00:00:00 | 00:00:00 | 00:00:00 | |
| DK5PH-5 | 2026-09-04 06:58:04 | 49.41233 | 8.68091 | 167° | 29km/h | 19267m | -11.8m/s | -55.5°C | 4.5% | 65.6hPa | 2.6V | 08:19:00 | 02:27:16 | 00:00:00 | |
| DL1XH1-15 | 2026-09-04 06:58:02 | 49.41256 | 8.68065 | 126° | 46km/h | 19302m | -11.9m/s | -55.4°C | 4.4% | 65.2hPa | 2.7V | 08:19:22 | 02:27:13 | 00:00:00 | |
| BIOWL1-15 | 2026-09-04 06:57:58 | 49.41266 | 8.67989 | 72° | 27km/h | 19362m | -11.6m/s | -54.7°C | 0.9% | 64.7hPa | 2.7V | 08:19:32 | 02:27:08 | 00:00:00 | |
| BIOWL9-15 | 2026-09-04 06:57:58 | 49.41268 | 8.68001 | 82° | 35km/h | 19351m | -11.9m/s | -54.7°C | 1.3% | 64.8hPa | 2.6V | 00:00:00 | 00:00:00 | 00:00:00 | |
| DO3DL | 2026-09-04 06:57:57 | 49.41268 | 8.68001 | 84° | 37km/h | 19351m | -11.9m/s | -54.7°C | 1.3% | 64.8hPa | 2.6V | 08:19:00 | 00:00:00 | 00:00:00 | |
| DJ2DS-15 | 2026-09-04 06:57:56 | 49.41266 | 8.67989 | 73° | 26km/h | 19362m | -11.6m/s | -54.6°C | 4.4% | 64.6hPa | 2.6V | 00:00:00 | 02:27:08 | 00:00:00 | |
| DM0DOS-11 | 2026-09-04 06:57:55 | 49.41282 | 8.67984 | 179° | 35km/h | 19447m | -11.6m/s | -54°C | 4% | 63.8hPa | 2.6V | 08:19:34 | 02:27:01 | 00:00:00 | |
| DL1XH-west | 2026-09-04 06:57:54 | 49.41262 | 8.67977 | 53° | 7km/h | 19386m | -11.9m/s | -54.6°C | 0.9% | 64.4hPa | 2.6V | 08:19:32 | 02:27:06 | 00:00:00 | |
| DB0NH | 2026-09-04 06:57:54 | 49.41262 | 8.67977 | 53° | 24km/h | 19386m | -11.8m/s | -54.5°C | 4.4% | 64.4hPa | 2.6V | 08:19:00 | 02:27:06 | 00:00:00 | |
| DL1XH1-15 | 2026-09-04 06:57:53 | 49.41267 | 8.67980 | 199° | 20km/h | 19423m | -12.4m/s | -54.4°C | 4.3% | 64hPa | 2.5V | 08:19:32 | 02:27:03 | 00:00:00 | |
| HSKMA3-T | 2026-09-04 06:57:48 | 49.41291 | 8.67982 | 167° | 38km/h | 19458m | -11.6m/s | -53.8°C | 0.6% | 63.7hPa | 2.6V | 08:22:05 | 02:27:00 | 00:00:00 | |
| BIOWL1-15 | 2026-09-04 06:57:45 | 49.41314 | 8.67958 | 123° | 35km/h | 19494m | -12.4m/s | -53.5°C | 0.4% | 63.4hPa | 2.5V | 08:20:23 | 02:26:57 | 00:00:00 | |
| DM3KS-11 | 2026-09-04 06:57:45 | 49.41314 | 8.67958 | 122° | 35km/h | 19494m | -12.4m/s | -53.5°C | 1.1% | 63.4hPa | 2.7V | 00:00:00 | 00:00:00 | 00:00:00 | |
| DL1XH-west | 2026-09-04 06:57:43 | 49.41317 | 8.67936 | 83° | 26km/h | 19520m | -13.1m/s | -53.5°C | 0.5% | 63.1hPa | 2.7V | 08:20:23 | 02:26:55 | 00:00:00 | |
| KANTATE | 2026-09-04 06:57:42 | 49.41317 | 8.67936 | 84° | 26km/h | 19520m | -13.1m/s | -53.5°C | 1.1% | 63.1hPa | 2.6V | 08:20:00 | 00:00:00 | 00:00:00 | |
| DL1XH1-15 | 2026-09-04 06:57:42 | 49.41312 | 8.67922 | 29° | 20km/h | 19546m | -12.7m/s | -53.5°C | 3.8% | 62.8hPa | 2.5V | 08:19:42 | 02:26:53 | 00:00:00 | |
| DO3MHA-11 | 2026-09-04 06:57:41 | 49.41312 | 8.67921 | 30° | 24km/h | 19546m | -12.6m/s | -53.4°C | 3.8% | 62.8hPa | 2.6V | 00:00:00 | 02:26:53 | 00:00:00 | |
| DM0DOS-11 | 2026-09-04 06:57:39 | 49.41297 | 8.67947 | 260° | 27km/h | 19608m | -12.1m/s | -54°C | 3.9% | 62.2hPa | 2.6V | 08:19:47 | 02:26:48 | 00:00:00 | |
| HSKMA3-T | 2026-09-04 06:57:35 | 49.41299 | 8.67957 | 243° | 29km/h | 19621m | -12.6m/s | -54.1°C | 0.6% | 62hPa | 2.6V | 08:22:05 | 02:26:47 | 00:00:00 | |
| DL1XH-west | 2026-09-04 06:57:33 | 49.41309 | 8.67972 | 205° | 26km/h | 19646m | -13m/s | -54.3°C | 0.5% | 61.8hPa | 2.5V | 08:20:23 | 02:26:45 | 00:00:00 | |
| DL1XH1-15 | 2026-09-04 06:57:32 | 49.41320 | 8.67973 | 156° | 18km/h | 19672m | -13m/s | -54.4°C | 3.8% | 61.6hPa | 2.7V | 08:19:52 | 02:26:43 | 00:00:00 | |
| DO3MHA-11 | 2026-09-04 06:57:31 | 49.41319 | 8.67973 | 157° | 24km/h | 19673m | -12.9m/s | -54.4°C | 3.8% | 61.5hPa | 2.5V | 00:00:00 | 02:26:43 | 00:00:00 | |
| DG9SBQ-11 | 2026-09-04 06:57:30 | 49.41319 | 8.67973 | 157° | 18km/h | 19673m | -13.0m/s | -54.4°C | 1.1% | 61.6hPa | 2.5V | 08:20:00 | 00:00:00 | 00:00:00 | |
| DM0DOS-11 | 2026-09-04 06:57:29 | 49.41314 | 8.67945 | 15° | 26km/h | 19735m | -13m/s | -55°C | 4.2% | 61hPa | 2.5V | 08:19:57 | 02:26:38 | 00:00:00 | |
| HSKMA3-T | 2026-09-04 06:57:24 | 49.41300 | 8.67947 | 338° | 29km/h | 19761m | -13.1m/s | -55.2°C | 0.8% | 60.7hPa | 2.7V | 08:22:05 | 02:26:36 | 00:00:00 | |
| DB0NH | 2026-09-04 06:57:24 | 49.41300 | 8.67947 | 339° | 26km/h | 19761m | -13.0m/s | -55.1°C | 4.3% | 60.7hPa | 2.7V | 00:00:00 | 02:26:36 | 00:00:00 | |
| DL3AQ-11 | 2026-09-04 06:57:23 | 49.41294 | 8.67952 | 320° | 27km/h | 19775m | -13.1m/s | -55.3°C | 1.2% | 60.6hPa | 2.7V | 00:00:00 | 00:00:00 | 00:00:00 | |
| DL1XH1-15 | 2026-09-04 06:57:22 | 49.41290 | 8.67987 | 230° | 22km/h | 19825m | -12.5m/s | -55.7°C | 4.4% | 60.2hPa | 2.7V | 08:20:04 | 02:26:31 | 00:00:00 | |
| DL1XH-west | 2026-09-04 06:57:22 | 49.41290 | 8.67961 | 302° | 27km/h | 19787m | -12.8m/s | -55.4°C | 0.9% | 60.5hPa | 2.5V | 08:20:23 | 02:26:34 | 00:00:00 | |
| HSKMA3-T | 2026-09-04 06:57:15 | 49.41309 | 8.67971 | 100° | 31km/h | 19891m | -13.1m/s | -56°C | 0.9% | 59.5hPa | 2.5V | 08:22:05 | 02:26:26 | 00:00:00 | |
| DL1XH-west | 2026-09-04 06:57:12 | 49.41307 | 8.67945 | 71° | 37km/h | 19917m | -13.2m/s | -56°C | 0.9% | 59.2hPa | 2.7V | 08:20:23 | 02:26:24 | 00:00:00 | |
| DL3AQ-11 | 2026-09-04 06:57:12 | 49.41303 | 8.67932 | 57° | 37km/h | 19930m | -13.0m/s | -55.9°C | 1.3% | 59.1hPa | 2.5V | 00:00:00 | 00:00:00 | 00:00:00 | |
| DO3MHA-11 | 2026-09-04 06:57:11 | 49.41303 | 8.67932 | 58° | 22km/h | 19930m | -12.9m/s | -55.9°C | 4.5% | 59.1hPa | 2.5V | 00:00:00 | 02:26:23 | 00:00:00 | |
| DF7PN | 2026-09-04 06:57:10 | 49.41297 | 8.67921 | 43° | 35km/h | 19943m | -13.1m/s | -55.8°C | 1.3% | 59.0hPa | 2.5V | 00:00:00 | 00:00:00 | 00:00:00 | |
| DM0DOS-11 | 2026-09-04 06:57:09 | 49.41273 | 8.67909 | 334° | 13km/h | 19996m | -13.4m/s | -55.9°C | 4.5% | 58.5hPa | 2.5V | 08:20:17 | 02:26:18 | 00:00:00 | |
| DG9SBQ-11 | 2026-09-04 06:57:08 | 49.41290 | 8.67913 | 30° | 33km/h | 19956m | -13.1m/s | -55.7°C | 1.3% | 58.9hPa | 2.6V | 08:20:00 | 00:00:00 | 00:00:00 | |
| DL1XH1-15 | 2026-09-04 06:57:07 | 49.41273 | 8.67913 | 204° | 11km/h | 20022m | -13.3m/s | -55.8°C | 4.4% | 58.3hPa | 2.6V | 08:20:19 | 02:26:16 | 00:00:00 | |
| BIOWL1-15 | 2026-09-04 06:57:03 | 49.41276 | 8.67914 | 176° | 18km/h | 20035m | -12.9m/s | -55.7°C | 0.8% | 58.2hPa | 2.5V | 08:20:23 | 02:26:15 | 00:00:00 | |
| DL1XH-west | 2026-09-04 06:57:01 | 49.41288 | 8.67906 | 143° | 33km/h | 20061m | -12.8m/s | -55.6°C | 0.7% | 57.9hPa | 2.7V | 08:20:23 | 02:26:13 | 00:00:00 | |
| DL8DAS-14 | 2026-09-04 06:56:58 | 49.41305 | 8.67851 | 91° | 42km/h | 20114m | -13.4m/s | -56.2°C | 1.3% | 57.5hPa | 2.5V | 00:00:00 | 00:00:00 | 00:00:00 | |
| DL1XH1-15 | 2026-09-04 06:56:57 | 49.41298 | 8.67813 | 51° | 26km/h | 20153m | -12.9m/s | -56.4°C | 4.9% | 57.1hPa | 2.5V | 08:20:29 | 02:26:06 | 00:00:00 | |
| DJ2DS-15 | 2026-09-04 06:56:56 | 49.41305 | 8.67836 | 80° | 26km/h | 20127m | -13.2m/s | -56.2°C | 4.7% | 57.3hPa | 2.6V | 00:00:00 | 02:26:08 | 00:00:00 | |
| CB1BUN | 2026-09-04 06:56:55 | 49.41305 | 8.67836 | 80° | 38km/h | 20127m | -13.2m/s | -56.3°C | 1.3% | 57.3hPa | 2.6V | 08:21:00 | 00:00:00 | 00:00:00 | |
| DM0DOS-11 | 2026-09-04 06:56:54 | 49.41295 | 8.67808 | 202° | 16km/h | 20206m | -14.1m/s | -56.8°C | 5.1% | 56.6hPa | 2.6V | 08:20:33 | 02:26:02 | 00:00:00 | |
| BIOWL1-15 | 2026-09-04 06:56:53 | 49.41295 | 8.67807 | 35° | 16km/h | 20166m | -12.9m/s | -56.5°C | 1.2% | 57hPa | 2.5V | 08:21:14 | 02:26:05 | 00:00:00 | |
| DL1XH-west | 2026-09-04 06:56:50 | 49.41295 | 8.67808 | 202° | 16km/h | 20206m | -14.1m/s | -56.8°C | 1.2% | 56.7hPa | 2.6V | 08:21:14 | 02:26:02 | 00:00:00 | |
| DB0NH | 2026-09-04 06:56:50 | 49.41295 | 8.67808 | 203° | 29km/h | 20207m | -14.0m/s | -56.7°C | 5.1% | 56.6hPa | 2.6V | 00:00:00 | 02:26:02 | 00:00:00 | |
| DL1XH1-15 | 2026-09-04 06:56:49 | 49.41344 | 8.67787 | 130° | 42km/h | 20288m | -13.6m/s | -55.4°C | 4.4% | 55.9hPa | 2.6V | 08:20:39 | 02:25:56 | 00:00:00 | |
| DJ2DS-15 | 2026-09-04 06:56:48 | 49.41307 | 8.67811 | 180° | 33km/h | 20234m | -13.8m/s | -56.6°C | 1.4% | 56.4hPa | 2.7V | 00:00:00 | 00:00:00 | 00:00:00 | |
| DG9SBQ-11 | 2026-09-04 06:56:47 | 49.41307 | 8.67811 | 181° | 33km/h | 20235m | -13.8m/s | -56.6°C | 1.4% | 56.4hPa | 2.7V | 08:21:00 | 00:00:00 | 00:00:00 | |
| DO3DL | 2026-09-04 06:56:46 | 49.41316 | 8.67810 | 171° | 38km/h | 20248m | -13.4m/s | -56.3°C | 1.4% | 56.2hPa | 2.7V | 00:00:00 | 00:00:00 | 00:00:00 | |
| DM0DOS-11 | 2026-09-04 06:56:45 | 49.41351 | 8.67736 | 65° | 27km/h | 20343m | -13.9m/s | -54.8°C | 4.4% | 55.4hPa | 2.7V | 08:20:43 | 02:25:52 | 00:00:00 | |
| BIOWL1-15 | 2026-09-04 06:56:44 | 49.41352 | 8.67760 | 101° | 37km/h | 20315m | -13.5m/s | -55.2°C | 0.9% | 55.7hPa | 2.5V | 08:21:14 | 02:25:54 | 00:00:00 | |
| DL1XH-west | 2026-09-04 06:56:40 | 49.41351 | 8.67736 | 65° | 27km/h | 20343m | -14m/s | -54.8°C | 0.9% | 55.4hPa | 2.7V | 08:21:14 | 02:25:52 | 00:00:00 | |
| BIOWL1-15 | 2026-09-04 06:56:33 | 49.41370 | 8.67683 | 101° | 44km/h | 20508m | -13.9m/s | -54.5°C | 0.7% | 54hPa | 2.7V | 08:21:14 | 02:25:40 | 00:00:00 | |
| DL1XH-west | 2026-09-04 06:56:30 | 49.41361 | 8.67712 | 128° | 38km/h | 20480m | -14m/s | -54.4°C | 0.7% | 54.2hPa | 2.5V | 08:21:14 | 02:25:42 | 00:00:00 | |
| DL1XH1-15 | 2026-09-04 06:56:29 | 49.41359 | 8.67628 | 38° | 31km/h | 20564m | -14.1m/s | -54.6°C | 4.3% | 53.5hPa | 2.5V | 08:20:59 | 02:25:36 | 00:00:00 | |
| BIOWL1-15 | 2026-09-04 06:56:21 | 49.41342 | 8.67624 | 328° | 18km/h | 20606m | -14.2m/s | -54.7°C | 0.9% | 53.2hPa | 2.7V | 08:21:14 | 02:25:33 | 00:00:00 | |
| DL1XH-west | 2026-09-04 06:56:19 | 49.41338 | 8.67633 | 259° | 13km/h | 20635m | -14.4m/s | -54.5°C | 0.8% | 52.9hPa | 2.5V | 08:21:14 | 02:25:31 | 00:00:00 | |
| DG9SBQ-11 | 2026-09-04 06:56:19 | 49.41338 | 8.67633 | 260° | 13km/h | 20635m | -14.4m/s | -54.5°C | 1.2% | 52.9hPa | 2.6V | 08:21:00 | 00:00:00 | 00:00:00 | |
| DL8DAS-15 | 2026-09-04 06:56:18 | 49.41338 | 8.67633 | 260° | 13km/h | 20635m | -14.4m/s | -54.5°C | 1.2% | 52.9hPa | 2.6V | 08:21:00 | 00:00:00 | 00:00:00 | |
| DL1XH1-15 | 2026-09-04 06:56:17 | 49.41357 | 8.67622 | 109° | 31km/h | 20704m | -14.2m/s | -54.3°C | 4% | 52.4hPa | 2.6V | 08:21:09 | 02:25:26 | 00:00:00 | |
| BIOWL1-15 | 2026-09-04 06:56:10 | 49.41348 | 8.67568 | 47° | 40km/h | 20762m | -14.7m/s | -54.5°C | 0.7% | 51.9hPa | 2.7V | 08:21:14 | 02:25:22 | 00:00:00 | |
| DL1XH-west | 2026-09-04 06:56:08 | 49.41331 | 8.67552 | 17° | 38km/h | 20791m | -14.5m/s | -54.8°C | 0.7% | 51.7hPa | 2.6V | 08:22:05 | 02:25:20 | 00:00:00 | |
| DF7PN | 2026-09-04 06:56:08 | 49.41331 | 8.67552 | 17° | 37km/h | 20791m | -14.5m/s | -54.8°C | 1.2% | 51.7hPa | 2.5V | 00:00:00 | 00:00:00 | 00:00:00 | |
| DB0UT-7 | 2026-09-04 06:56:07 | 49.41322 | 8.67549 | 3° | 31km/h | 20806m | -14.4m/s | -54.7°C | 4.2% | 51.5hPa | 2.5V | 00:00:00 | 02:25:19 | 00:00:00 | |
| DO1YAY-16 | 2026-09-04 06:56:06 | 49.41316 | 8.67551 | 344° | 24km/h | 20820m | -14.4m/s | -54.8°C | 1.2% | 51.5hPa | 2.5V | 00:00:00 | 00:00:00 | 00:00:00 | |
| DM0DOS-11 | 2026-09-04 06:56:04 | 49.41323 | 8.67554 | 145° | 31km/h | 20894m | -15.1m/s | -54.8°C | 4.3% | 50.9hPa | 2.5V | 08:21:22 | 02:25:13 | 00:00:00 | |
| HSKMA3-T | 2026-09-04 06:56:02 | 49.41317 | 8.67559 | 162° | 22km/h | 20879m | -14.9m/s | -54.9°C | 0.9% | 51hPa | 2.7V | 08:22:05 | 02:25:14 | 00:00:00 | |
| BIOWL1-15 | 2026-09-04 06:56:01 | 49.41340 | 8.67479 | 78° | 46km/h | 20968m | -14.6m/s | -54.9°C | 1% | 50.3hPa | 2.7V | 08:22:05 | 02:25:08 | 00:00:00 | |
| DL1XH-west | 2026-09-04 06:55:58 | 49.41339 | 8.67515 | 105° | 47km/h | 20939m | -14.8m/s | -55°C | 1% | 50.5hPa | 2.7V | 08:22:05 | 02:25:10 | 00:00:00 | |
| BIOWL1-15 | 2026-09-04 06:55:51 | 49.41314 | 8.67451 | 222° | 13km/h | 21072m | -14.9m/s | -54.1°C | 0.7% | 49.4hPa | 2.5V | 08:22:05 | 02:25:01 | 00:00:00 | |
| HSKMA3-T | 2026-09-04 06:55:51 | 49.41314 | 8.67445 | 329° | 15km/h | 21042m | -15.1m/s | -53.9°C | 0.6% | 49.6hPa | 2.7V | 08:22:05 | 02:25:03 | 00:00:00 | |
| DO3MHA-11 | 2026-09-04 06:55:51 | 49.41314 | 8.67445 | 330° | 29km/h | 21042m | -15.0m/s | -53.9°C | 4.0% | 49.6hPa | 2.7V | 00:00:00 | 02:25:03 | 00:00:00 | |
| DB0NH | 2026-09-04 06:55:50 | 49.41312 | 8.67448 | 279° | 31km/h | 21057m | -15.1m/s | -54.0°C | 4.0% | 49.5hPa | 2.7V | 00:00:00 | 02:25:02 | 00:00:00 | |
| DL1XH1-15 | 2026-09-04 06:55:49 | 49.41338 | 8.67421 | 106° | 44km/h | 21145m | -14.9m/s | -54.1°C | 4.1% | 48.9hPa | 2.7V | 08:21:39 | 02:24:56 | 00:00:00 | |
| DL1XH-west | 2026-09-04 06:55:47 | 49.41322 | 8.67452 | 160° | 26km/h | 21101m | -14.5m/s | -54.3°C | 0.7% | 49.2hPa | 2.6V | 08:22:05 | 02:24:59 | 00:00:00 | |
| BIOWL7-15 | 2026-09-04 06:55:46 | 49.41322 | 8.67452 | 161° | 26km/h | 21101m | -14.5m/s | -54.3°C | 1.2% | 49.2hPa | 2.5V | 00:00:00 | 00:00:00 | 00:00:00 | |
| DG9SBQ-11 | 2026-09-04 06:55:44 | 49.41334 | 8.67436 | 123° | 38km/h | 21131m | -14.7m/s | -54.3°C | 1.1% | 49.0hPa | 2.5V | 08:22:00 | 00:00:00 | 00:00:00 | |
| DD1CC8 | 2026-09-04 06:55:43 | 49.41340 | 8.67404 | 93° | 47km/h | 21160m | -14.9m/s | -54.0°C | 1.1% | 48.8hPa | 2.5V | 00:00:00 | 00:00:00 | 00:00:00 | |
| DM7RM-13 | 2026-09-04 06:55:42 | 49.41340 | 8.67404 | 95° | 47km/h | 21160m | -14.9m/s | -54.0°C | 1.2% | 48.8hPa | 2.5V | 08:22:00 | 00:00:00 | 00:00:00 | |
| DO3MHA-11 | 2026-09-04 06:55:41 | 49.41337 | 8.67367 | 70° | 27km/h | 21191m | -15.6m/s | -53.9°C | 4.0% | 48.5hPa | 2.5V | 00:00:00 | 02:24:53 | 00:00:00 | |
| DF1GD-15 | 2026-09-04 06:55:40 | 49.41337 | 8.67367 | 71° | 47km/h | 21191m | -15.6m/s | -53.9°C | 1.1% | 48.6hPa | 2.5V | 08:22:00 | 00:00:00 | 00:00:00 | |
| DM0DOS-11 | 2026-09-04 06:55:39 | 49.41310 | 8.67325 | 344° | 9km/h | 21267m | -14.6m/s | -54.4°C | 4.2% | 47.9hPa | 2.5V | 08:21:47 | 02:24:48 | 00:00:00 | |
| HSKMA3-T | 2026-09-04 06:55:39 | 49.41325 | 8.67338 | 46° | 38km/h | 21222m | -15.6m/s | -54.1°C | 0.7% | 48.3hPa | 2.7V | 08:22:05 | 02:24:51 | 00:00:00 | |
| BIOWL1-15 | 2026-09-04 06:55:38 | 49.41319 | 8.67330 | 33° | 29km/h | 21237m | -15.4m/s | -54.2°C | 0.7% | 48.2hPa | 2.7V | 08:22:05 | 02:24:50 | 00:00:00 | |
| DL1XH1-15 | 2026-09-04 06:55:37 | 49.41311 | 8.67330 | 197° | 18km/h | 21297m | -15.1m/s | -54.4°C | 4.3% | 47.7hPa | 2.7V | 08:21:49 | 02:24:46 | 00:00:00 | |
| DL1XH-west | 2026-09-04 06:55:36 | 49.41310 | 8.67325 | 344° | 9km/h | 21267m | -14.6m/s | -54.4°C | 0.7% | 47.9hPa | 2.5V | 08:22:05 | 02:24:48 | 00:00:00 | |
| DJ2DS-15 | 2026-09-04 06:55:36 | 49.41310 | 8.67325 | 345° | 27km/h | 21267m | -14.6m/s | -54.4°C | 4.2% | 47.9hPa | 2.5V | 00:00:00 | 02:24:48 | 00:00:00 | |
| DO1YAY-16 | 2026-09-04 06:55:35 | 49.41311 | 8.67329 | 197° | 16km/h | 21297m | -15.1m/s | -54.4°C | 1.2% | 47.7hPa | 2.5V | 00:00:00 | 00:00:00 | 00:00:00 | |
| DK5PH-5 | 2026-09-04 06:55:34 | 49.41311 | 8.67329 | 198° | 31km/h | 21297m | -15.1m/s | -54.4°C | 4.3% | 47.7hPa | 2.5V | 00:00:00 | 02:24:46 | 00:00:00 | |
| DO3DL | 2026-09-04 06:55:33 | 49.41311 | 8.67330 | 198° | 18km/h | 21297m | -15.1m/s | -54.4°C | 1.2% | 47.7hPa | 2.5V | 08:22:00 | 00:00:00 | 00:00:00 | |
| DG9SBQ-11 | 2026-09-04 06:55:32 | 49.41317 | 8.67330 | 181° | 27km/h | 21312m | -15.1m/s | -54.4°C | 1.2% | 47.6hPa | 2.5V | 08:22:00 | 00:00:00 | 00:00:00 | |
| DO3MHA-11 | 2026-09-04 06:55:31 | 49.41333 | 8.67323 | 155° | 35km/h | 21343m | -14.8m/s | -54.3°C | 4.2% | 47.3hPa | 2.5V | 00:00:00 | 02:24:43 | 00:00:00 | |
| HEMX73-11 | 2026-09-04 06:55:30 | 49.41333 | 8.67323 | 155° | 40km/h | 21343m | -14.8m/s | -54.3°C | 1.2% | 47.4hPa | 2.5V | 08:22:00 | 00:00:00 | 00:00:00 | |
| DL1XH1-15 | 2026-09-04 06:55:29 | 49.41348 | 8.67238 | 28° | 27km/h | 21445m | -15m/s | -54.2°C | 4.1% | 46.6hPa | 2.5V | 08:21:59 | 02:24:36 | 00:00:00 | |
| BIOWL1-15 | 2026-09-04 06:55:28 | 49.41356 | 8.67287 | 110° | 44km/h | 21386m | -14.9m/s | -54.5°C | 0.8% | 47.1hPa | 2.7V | 08:22:05 | 02:24:40 | 00:00:00 | |
| DL1XH-west | 2026-09-04 06:55:26 | 49.41357 | 8.67256 | 74° | 37km/h | 21416m | -14.8m/s | -54.3°C | 0.8% | 46.9hPa | 2.7V | 08:22:05 | 02:24:38 | 00:00:00 | |
| BIOWL7-15 | 2026-09-04 06:55:25 | 49.41356 | 8.67256 | 75° | 37km/h | 21416m | -14.8m/s | -54.3°C | 1.2% | 46.9hPa | 2.5V | 00:00:00 | 00:00:00 | 00:00:00 | |
| DL3AQ-11 | 2026-09-04 06:55:23 | 49.41336 | 8.67236 | 336° | 20km/h | 21476m | -15.4m/s | -54.1°C | 1.1% | 46.4hPa | 2.5V | 00:00:00 | 00:00:00 | 00:00:00 | |
| DM0DOS-11 | 2026-09-04 06:55:22 | 49.41341 | 8.67260 | 175° | 26km/h | 21550m | -14.5m/s | -54.5°C | 4.3% | 45.9hPa | 2.5V | 08:22:06 | 02:24:29 | 00:00:00 | |
| HSKMA3-T | 2026-09-04 06:55:18 | 49.41335 | 8.67259 | 204° | 22km/h | 21535m | -14.4m/s | -54.4°C | 0.8% | 46hPa | 2.5V | 08:22:05 | 02:24:30 | 00:00:00 | |
| DL1XH1-15 | 2026-09-04 06:55:17 | 49.41360 | 8.67235 | 114° | 42km/h | 21594m | -15.1m/s | -54.6°C | 4.6% | 45.6hPa | 2.7V | 08:22:09 | 02:24:26 | 00:00:00 | |
| BIOWL1-15 | 2026-09-04 06:55:17 | 49.41341 | 8.67260 | 175° | 27km/h | 21550m | -14.5m/s | -54.5°C | 0.9% | 45.9hPa | 2.5V | 08:22:56 | 02:24:29 | 00:00:00 | |
| DL1XH-west | 2026-09-04 06:55:15 | 49.41355 | 8.67248 | 131° | 37km/h | 21580m | -15.1m/s | -54.6°C | 0.9% | 45.7hPa | 2.7V | 08:22:56 | 02:24:27 | 00:00:00 | |
| DJ2KF-10 | 2026-09-04 06:55:14 | 49.41360 | 8.67235 | 115° | 38km/h | 21595m | -15.1m/s | -54.6°C | 4.6% | 45.5hPa | 2.5V | 00:00:00 | 02:24:26 | 00:00:00 | |
| DL3AQ-11 | 2026-09-04 06:55:12 | 49.41360 | 8.67186 | 69° | 44km/h | 21639m | -14.4m/s | -54.6°C | 1.2% | 45.2hPa | 2.5V | 00:00:00 | 00:00:00 | 00:00:00 | |
| DO3MHA-11 | 2026-09-04 06:55:11 | 49.41360 | 8.67186 | 70° | 26km/h | 21639m | -14.3m/s | -54.5°C | 4.5% | 45.2hPa | 2.5V | 00:00:00 | 02:24:23 | 00:00:00 | |
| HEMX73-11 | 2026-09-04 06:55:10 | 49.41360 | 8.67186 | 71° | 44km/h | 21639m | -14.4m/s | -54.6°C | 1.2% | 45.2hPa | 2.5V | 08:22:00 | 00:00:00 | 00:00:00 | |
| DM0DOS-11 | 2026-09-04 06:55:09 | 49.41332 | 8.67156 | 323° | 15km/h | 21713m | -15.1m/s | -53.6°C | 4.1% | 44.7hPa | 2.5V | 08:22:17 | 02:24:18 | 00:00:00 | |
| DL8DAS-15 | 2026-09-04 06:55:08 | 49.41349 | 8.67161 | 38° | 35km/h | 21669m | -14.8m/s | -54.5°C | 1.2% | 45.0hPa | 2.7V | 00:00:00 | 00:00:00 | 00:00:00 | |
| DL1XH1-15 | 2026-09-04 06:55:07 | 49.41332 | 8.67164 | 213° | 15km/h | 21743m | -14.9m/s | -53.2°C | 4% | 44.5hPa | 2.7V | 08:22:19 | 02:24:16 | 00:00:00 | |
| BIOWL1-15 | 2026-09-04 06:55:07 | 49.41336 | 8.67154 | 356° | 20km/h | 21698m | -15.1m/s | -53.9°C | 0.7% | 44.8hPa | 2.5V | 08:22:56 | 02:24:19 | 00:00:00 | |
| DL1XH-west | 2026-09-04 06:55:05 | 49.41330 | 8.67160 | 271° | 11km/h | 21728m | -15m/s | -53.4°C | 0.7% | 44.6hPa | 2.6V | 08:22:56 | 02:24:17 | 00:00:00 | |
| DK5PH-5 | 2026-09-04 06:55:04 | 49.41332 | 8.67164 | 214° | 35km/h | 21744m | -14.9m/s | -53.2°C | 4.0% | 44.5hPa | 2.7V | 00:00:00 | 02:24:16 | 00:00:00 | |
| DJ2DS-15 | 2026-09-04 06:55:00 | 49.41356 | 8.67142 | 122° | 46km/h | 21803m | -14.8m/s | -53.0°C | 1.1% | 44.1hPa | 2.5V | 00:00:00 | 00:00:00 | 00:00:00 | |
| DF1GD-15 | 2026-09-04 06:54:59 | 49.41356 | 8.67142 | 124° | 46km/h | 21803m | -14.8m/s | -53.0°C | 1.1% | 44.1hPa | 2.5V | 08:22:00 | 00:00:00 | 00:00:00 | |
| DL8DAS-15 | 2026-09-04 06:54:58 | 49.41362 | 8.67125 | 110° | 51km/h | 21818m | -15.0m/s | -52.9°C | 1.1% | 44.0hPa | 2.5V | 00:00:00 | 00:00:00 | 00:00:00 | |
| DL1XH1-15 | 2026-09-04 06:54:57 | 49.41352 | 8.67031 | 52° | 40km/h | 21893m | -15.4m/s | -53.3°C | 4% | 43.5hPa | 2.5V | 08:22:29 | 02:24:06 | 00:00:00 | |
| BIOWL1-15 | 2026-09-04 06:54:57 | 49.41365 | 8.67084 | 85° | 57km/h | 21847m | -15.1m/s | -53°C | 0.7% | 43.8hPa | 2.7V | 08:22:56 | 02:24:09 | 00:00:00 | |
| HSKMA3-T | 2026-09-04 06:54:56 | 49.41363 | 8.67064 | 74° | 53km/h | 21862m | -15.2m/s | -53.2°C | 0.6% | 43.7hPa | 2.7V | 08:22:56 | 02:24:08 | 00:00:00 | |
| DL1XH-west | 2026-09-04 06:54:54 | 49.41352 | 8.67031 | 52° | 40km/h | 21893m | -15.4m/s | -53.3°C | 0.7% | 43.5hPa | 2.5V | 08:22:56 | 02:24:06 | 00:00:00 | |
| DL8DAS-14 | 2026-09-04 06:54:54 | 49.41346 | 8.67021 | 41° | 27km/h | 21908m | -15.2m/s | -53.4°C | 1.1% | 43.4hPa | 2.7V | 00:00:00 | 00:00:00 | 00:00:00 | |
| DL6DJ-15 | 2026-09-04 06:54:51 | 49.41340 | 8.67014 | 6° | 2km/h | 21939m | -14.7m/s | -53.4°C | 1.1% | 43.2hPa | 2.7V | 00:00:00 | 00:00:00 | 00:00:00 | |
| DF3TZ-5 | 2026-09-04 06:54:50 | 49.41346 | 8.67016 | 181° | 26km/h | 21968m | -14.8m/s | -53.2°C | 1.1% | 43.0hPa | 2.7V | 00:00:00 | 00:00:00 | 00:00:00 | |
| DL1XH1-15 | 2026-09-04 06:54:49 | 49.41394 | 8.66972 | 125° | 57km/h | 22043m | -15.2m/s | -53°C | 4.2% | 42.4hPa | 2.7V | 08:22:39 | 02:23:56 | 00:00:00 | |
| BIOWL1-15 | 2026-09-04 06:54:48 | 49.41375 | 8.67001 | 148° | 53km/h | 22013m | -15.3m/s | -53°C | 0.7% | 42.6hPa | 2.7V | 08:22:56 | 02:23:58 | 00:00:00 | |
| HSKMA3-T | 2026-09-04 06:54:45 | 49.41385 | 8.66989 | 137° | 55km/h | 22028m | -15.1m/s | -53°C | 0.7% | 42.5hPa | 2.7V | 08:22:56 | 02:23:57 | 00:00:00 | |
| DL1XH-west | 2026-09-04 06:54:43 | 49.41401 | 8.66954 | 113° | 53km/h | 22059m | -15.2m/s | -53.1°C | 0.8% | 42.3hPa | 2.5V | 08:22:56 | 02:23:55 | 00:00:00 | |
| BIOWL1-15 | 2026-09-04 06:54:38 | 49.41394 | 8.66912 | 273° | 26km/h | 22167m | -15.2m/s | -52.5°C | 0.5% | 41.6hPa | 2.7V | 08:22:56 | 02:23:48 | 00:00:00 | |
| DL1XH1-15 | 2026-09-04 06:54:37 | 49.41398 | 8.66937 | 240° | 40km/h | 22197m | -15.4m/s | -52.1°C | 3.7% | 41.4hPa | 2.6V | 08:22:49 | 02:23:46 | 00:00:00 | |
| DB0UT-7 | 2026-09-04 06:54:37 | 49.41395 | 8.66904 | 299° | 31km/h | 22152m | -15.4m/s | -52.6°C | 3.8% | 41.7hPa | 2.7V | 00:00:00 | 00:00:00 | 00:00:00 | |
| DJ2DS-15 | 2026-09-04 06:54:36 | 49.41393 | 8.66912 | 273° | 31km/h | 22167m | -15.2m/s | -52.4°C | 3.8% | 41.6hPa | 2.7V | 00:00:00 | 02:23:48 | 00:00:00 | |
| DM0DOS-11 | 2026-09-04 06:54:35 | 49.41413 | 8.66961 | 212° | 46km/h | 22228m | -15.9m/s | -51.9°C | 3.5% | 41.2hPa | 2.7V | 08:22:51 | 02:23:44 | 00:00:00 | |
| HSKMA3-T | 2026-09-04 06:54:34 | 49.41398 | 8.66937 | 240° | 40km/h | 22197m | -15.4m/s | -52.1°C | 0.5% | 41.4hPa | 2.6V | 08:22:56 | 02:23:46 | 00:00:00 | |
| DL1XH-west | 2026-09-04 06:54:33 | 49.41405 | 8.66950 | 227° | 44km/h | 22213m | -15.8m/s | -52°C | 0.4% | 41.4hPa | 2.7V | 08:22:56 | 02:23:45 | 00:00:00 | |
| DO1YAY-16 | 2026-09-04 06:54:33 | 49.41413 | 8.66961 | 212° | 46km/h | 22228m | -15.9m/s | -51.9°C | 1.0% | 41.2hPa | 2.6V | 00:00:00 | 00:00:00 | 00:00:00 | |
| DO3MHA-11 | 2026-09-04 06:54:31 | 49.41424 | 8.66968 | 199° | 27km/h | 22245m | -15.9m/s | -51.9°C | 3.5% | 41.1hPa | 2.6V | 00:00:00 | 02:23:43 | 00:00:00 | |
| CB1BUN | 2026-09-04 06:54:30 | 49.41424 | 8.66968 | 200° | 44km/h | 22245m | -16.0m/s | -51.9°C | 0.9% | 41.2hPa | 2.6V | 08:22:00 | 00:00:00 | 00:00:00 | |
| DL1XH1-15 | 2026-09-04 06:54:29 | 49.41451 | 8.66946 | 1° | 20km/h | 22353m | -15.8m/s | -52°C | 3.6% | 40.5hPa | 2.6V | 08:22:59 | 02:23:36 | 00:00:00 | |
| DL1ZP-14 | 2026-09-04 06:54:28 | 49.41451 | 8.66966 | 146° | 27km/h | 22291m | -15.5m/s | -52.3°C | 1.0% | 40.9hPa | 2.7V | 00:00:00 | 00:00:00 | 00:00:00 | |
| DL8DAS-15 | 2026-09-04 06:54:27 | 49.41451 | 8.66966 | 147° | 29km/h | 22291m | -15.5m/s | -52.3°C | 1.1% | 40.9hPa | 2.5V | 00:00:00 | 00:00:00 | 00:00:00 | |
| DB0UT-9 | 2026-09-04 06:54:26 | 49.41456 | 8.66959 | 120° | 22km/h | 22306m | -15.6m/s | -52.2°C | 1.0% | 40.8hPa | 2.5V | 08:22:00 | 00:00:00 | 00:00:00 | |
| DM0DOS-11 | 2026-09-04 06:54:25 | 49.41433 | 8.66978 | 275° | 37km/h | 22415m | -16.1m/s | -52.6°C | 3.7% | 40.1hPa | 2.5V | 08:23:03 | 02:23:32 | 00:00:00 | |
| BIOWL1-15 | 2026-09-04 06:54:25 | 49.41455 | 8.66948 | 35° | 16km/h | 22337m | -16.1m/s | -52°C | 0.4% | 40.6hPa | 2.5V | 08:23:47 | 02:23:37 | 00:00:00 | |
| HSKMA3-T | 2026-09-04 06:54:24 | 49.41450 | 8.66946 | 1° | 20km/h | 22353m | -15.8m/s | -52°C | 0.4% | 40.5hPa | 2.6V | 08:23:47 | 02:23:36 | 00:00:00 | |
| DL1XH-west | 2026-09-04 06:54:23 | 49.41445 | 8.66948 | 334° | 26km/h | 22369m | -15.9m/s | -52.2°C | 0.4% | 40.4hPa | 2.7V | 08:23:47 | 02:23:35 | 00:00:00 | |
| DG9SBQ-11 | 2026-09-04 06:54:22 | 49.41445 | 8.66947 | 335° | 26km/h | 22369m | -15.9m/s | -52.1°C | 1.0% | 40.4hPa | 2.7V | 08:23:00 | 00:00:00 | 00:00:00 | |
| DO3MHA-11 | 2026-09-04 06:54:21 | 49.41435 | 8.66964 | 294° | 31km/h | 22400m | -15.6m/s | -52.4°C | 3.7% | 40.1hPa | 2.7V | 00:00:00 | 02:23:33 | 00:00:00 | |
| DB0NH | 2026-09-04 06:54:20 | 49.41433 | 8.66977 | 276° | 29km/h | 22416m | -16.1m/s | -52.6°C | 3.7% | 40.0hPa | 2.5V | 00:00:00 | 02:23:32 | 00:00:00 | |
| DF3TZ-5 | 2026-09-04 06:54:19 | 49.41436 | 8.67003 | 238° | 31km/h | 22448m | -16.4m/s | -52.8°C | 1.0% | 39.9hPa | 2.5V | 00:00:00 | 00:00:00 | 00:00:00 | |
| DB0ND-19 | 2026-09-04 06:54:18 | 49.41436 | 8.67003 | 238° | 31km/h | 22448m | -16.4m/s | -52.8°C | 1.0% | 39.9hPa | 2.5V | 00:00:00 | 00:00:00 | 00:00:00 | |
| DG9SBQ-11 | 2026-09-04 06:54:17 | 49.41436 | 8.67003 | 239° | 33km/h | 22448m | -16.4m/s | -52.8°C | 1.0% | 39.9hPa | 2.5V | 08:23:00 | 00:00:00 | 00:00:00 | |
| DL1XH1-15 | 2026-09-04 06:54:16 | 49.41459 | 8.67009 | 128° | 26km/h | 22511m | -15.9m/s | -53.1°C | 4% | 39.5hPa | 2.5V | 08:23:09 | 02:23:26 | 00:00:00 | |
| BIOWL1-15 | 2026-09-04 06:54:15 | 49.41454 | 8.67015 | 160° | 26km/h | 22495m | -15.6m/s | -53°C | 0.6% | 39.6hPa | 2.7V | 08:23:47 | 02:23:27 | 00:00:00 | |
| HSKMA3-T | 2026-09-04 06:54:14 | 49.41459 | 8.67009 | 129° | 26km/h | 22511m | -15.9m/s | -53.1°C | 0.7% | 39.5hPa | 2.5V | 08:23:47 | 02:23:26 | 00:00:00 | |
| DL1XH-west | 2026-09-04 06:54:13 | 49.41462 | 8.67000 | 103° | 29km/h | 22527m | -15.9m/s | -53.2°C | 0.7% | 39.4hPa | 2.5V | 08:23:47 | 02:23:25 | 00:00:00 | |
| BIOWL1-15 | 2026-09-04 06:54:04 | 49.41427 | 8.66998 | 242° | 29km/h | 22672m | -16.4m/s | -53.1°C | 0.6% | 38.5hPa | 2.7V | 08:23:47 | 02:23:16 | 00:00:00 | |
| DL1XH-west | 2026-09-04 06:54:02 | 49.41439 | 8.67010 | 190° | 33km/h | 22705m | -17m/s | -53°C | 0.6% | 38.3hPa | 2.5V | 08:23:47 | 02:23:14 | 00:00:00 | |
| DO1YAY-16 | 2026-09-04 06:54:02 | 49.41448 | 8.67010 | 169° | 35km/h | 22722m | -16.9m/s | -53.0°C | 1.0% | 38.2hPa | 2.5V | 00:00:00 | 00:00:00 | 00:00:00 | |
| EDDB2-12 | 2026-09-04 06:53:58 | 49.41456 | 8.66943 | 356° | 22km/h | 22851m | -17.1m/s | -53.0°C | 1.0% | 37.4hPa | 2.5V | 00:00:00 | 00:00:00 | 00:00:00 | |
| DL8DAS-15 | 2026-09-04 06:53:57 | 49.41469 | 8.66985 | 116° | 38km/h | 22771m | -15.1m/s | -53.2°C | 1.1% | 37.9hPa | 2.5V | 08:23:00 | 00:00:00 | 00:00:00 | |
| DL1XH1-15 | 2026-09-04 06:53:55 | 49.41461 | 8.66945 | 22° | 24km/h | 22834m | -16.8m/s | -53°C | 3.9% | 37.5hPa | 2.5V | 08:23:29 | 02:23:06 | 00:00:00 | |
| BIOWL1-15 | 2026-09-04 06:53:55 | 49.41456 | 8.66943 | 357° | 22km/h | 22851m | -17.1m/s | -53°C | 0.6% | 37.4hPa | 2.6V | 08:23:47 | 02:23:05 | 00:00:00 | |
| DL1XH-west | 2026-09-04 06:53:51 | 49.41448 | 8.66951 | 290° | 16km/h | 22885m | -16.8m/s | -53°C | 0.6% | 37.2hPa | 2.7V | 08:23:47 | 02:23:03 | 00:00:00 | |
| KANTATE | 2026-09-04 06:53:50 | 49.41448 | 8.66951 | 291° | 16km/h | 22885m | -16.8m/s | -53.0°C | 1.0% | 37.2hPa | 2.7V | 00:00:00 | 00:00:00 | 00:00:00 | |
| DL1XH1-15 | 2026-09-04 06:53:49 | 49.41490 | 8.66936 | 122° | 49km/h | 23000m | -17.2m/s | -53.6°C | 4.1% | 36.6hPa | 2.7V | 08:23:39 | 02:22:56 | 00:00:00 | |
| HSKMA3-T | 2026-09-04 06:53:49 | 49.41451 | 8.66962 | 214° | 22km/h | 22917m | -16.2m/s | -53.2°C | 0.6% | 37hPa | 2.5V | 08:23:47 | 02:23:01 | 00:00:00 | |
| DJ2DS-15 | 2026-09-04 06:53:48 | 49.41456 | 8.66966 | 190° | 27km/h | 22933m | -16.4m/s | -53.3°C | 1.1% | 36.9hPa | 2.5V | 00:00:00 | 00:00:00 | 00:00:00 | |
| DB0ND-19 | 2026-09-04 06:53:47 | 49.41464 | 8.66965 | 168° | 35km/h | 22950m | -16.7m/s | -53.4°C | 1.1% | 36.9hPa | 2.5V | 00:00:00 | 00:00:00 | 00:00:00 | |
| BIOWL1-15 | 2026-09-04 06:53:44 | 49.41498 | 8.66902 | 95° | 44km/h | 23034m | -17.3m/s | -53.7°C | 0.8% | 36.4hPa | 2.5V | 08:23:47 | 02:22:54 | 00:00:00 | |
| DJ2KF-10 | 2026-09-04 06:53:44 | 49.41490 | 8.66936 | 123° | 47km/h | 23000m | -17.2m/s | -53.6°C | 4.1% | 36.5hPa | 2.5V | 00:00:00 | 02:22:56 | 00:00:00 | |
| IW2NTF | 2026-09-04 06:53:42 | 49.41482 | 8.66866 | 314° | 22km/h | 23120m | -16.5m/s | -53.3°C | 0% | 35.9hPa | 2.5V | 08:30:00 | 02:22:49 | 00:00:00 | |
| DL1XH-west | 2026-09-04 06:53:41 | 49.41497 | 8.66886 | 79° | 40km/h | 23052m | -17.5m/s | -53.6°C | 0.8% | 36.3hPa | 2.5V | 08:23:47 | 02:22:53 | 00:00:00 | |
| DG9SBQ-11 | 2026-09-04 06:53:39 | 49.41495 | 8.66873 | 63° | 31km/h | 23069m | -17.1m/s | -53.5°C | 1.1% | 36.2hPa | 2.5V | 08:23:00 | 00:00:00 | 00:00:00 | |
| DM0DOS-11 | 2026-09-04 06:53:38 | 49.41485 | 8.66911 | 230° | 40km/h | 23186m | -17.6m/s | -53.5°C | 4.1% | 35.5hPa | 2.5V | 08:23:50 | 02:22:45 | 00:00:00 | |
| DB0UT-7 | 2026-09-04 06:53:37 | 49.41482 | 8.66866 | 315° | 31km/h | 23120m | -16.4m/s | -53.2°C | 4.0% | 35.8hPa | 2.7V | 00:00:00 | 00:00:00 | 00:00:00 | |
| DL1XH1-15 | 2026-09-04 06:53:35 | 49.41481 | 8.66898 | 251° | 37km/h | 23170m | -16.8m/s | -53.5°C | 4.1% | 35.5hPa | 2.7V | 08:23:49 | 02:22:46 | 00:00:00 | |
| HSKMA3-T | 2026-09-04 06:53:35 | 49.41479 | 8.66885 | 269° | 31km/h | 23153m | -17m/s | -53.4°C | 0.7% | 35.7hPa | 2.7V | 08:24:38 | 02:22:47 | 00:00:00 | |
| DL1XH-west | 2026-09-04 06:53:31 | 49.41501 | 8.66930 | 201° | 38km/h | 23221m | -17.7m/s | -53.5°C | 0.7% | 35.3hPa | 2.7V | 08:24:38 | 02:22:43 | 00:00:00 | |
| HSKMA3-T | 2026-09-04 06:53:24 | 49.41519 | 8.66898 | 9° | 24km/h | 23341m | -17.1m/s | -53°C | 0.7% | 34.6hPa | 2.5V | 08:24:38 | 02:22:36 | 00:00:00 | |
| DL1XH-west | 2026-09-04 06:53:20 | 49.41504 | 8.66921 | 264° | 27km/h | 23411m | -16.4m/s | -52.9°C | 0.7% | 34.3hPa | 2.7V | 08:24:38 | 02:22:32 | 00:00:00 | |
| HSKMA3-T | 2026-09-04 06:53:13 | 49.41566 | 8.66918 | 130° | 51km/h | 23531m | -18.3m/s | -52.6°C | 0.7% | 33.6hPa | 2.7V | 08:24:38 | 02:22:25 | 00:00:00 | |
| DM0DOS-11 | 2026-09-04 06:53:12 | 49.41575 | 8.66874 | 281° | 18km/h | 23637m | -17.7m/s | -52°C | 3.7% | 33.1hPa | 2.6V | 08:24:16 | 02:22:19 | 00:00:00 | |
| DL3AQ-11 | 2026-09-04 06:53:12 | 49.41577 | 8.66890 | 111° | 37km/h | 23567m | -17.7m/s | -52.4°C | 1.0% | 33.4hPa | 2.7V | 00:00:00 | 00:00:00 | 00:00:00 | |
| SFWM-10 | 2026-09-04 06:53:10 | 49.41577 | 8.66889 | 112° | 37km/h | 23567m | -17.7m/s | -52.4°C | 1.0% | 33.4hPa | 2.7V | 08:24:00 | 00:00:00 | 00:00:00 | |
| DL1XH1-15 | 2026-09-04 06:53:09 | 49.41579 | 8.66914 | 247° | 49km/h | 23689m | -17.9m/s | -51.9°C | 3.6% | 32.8hPa | 2.7V | 08:24:19 | 02:22:16 | 00:00:00 | |
| DL1XH-west | 2026-09-04 06:53:09 | 49.41578 | 8.66872 | 68° | 13km/h | 23602m | -18m/s | -52.3°C | 0.5% | 33.3hPa | 2.7V | 08:24:38 | 02:22:21 | 00:00:00 | |
| HSKMA3-T | 2026-09-04 06:53:01 | 49.41603 | 8.66959 | 216° | 49km/h | 23741m | -18.5m/s | -52°C | 0.5% | 32.5hPa | 2.6V | 08:24:38 | 02:22:13 | 00:00:00 | |
| BIOWL1-15 | 2026-09-04 06:52:59 | 49.41623 | 8.66973 | 192° | 31km/h | 23777m | -17.8m/s | -52.2°C | 0.5% | 32.4hPa | 2.7V | 08:24:38 | 02:22:11 | 00:00:00 | |
| DL1XH1-15 | 2026-09-04 06:52:58 | 49.41625 | 8.66970 | 340° | 29km/h | 23866m | -17.7m/s | -52.2°C | 3.9% | 32hPa | 2.7V | 08:24:29 | 02:22:06 | 00:00:00 | |
| DL1XH-west | 2026-09-04 06:52:58 | 49.41630 | 8.66973 | 172° | 24km/h | 23796m | -18.6m/s | -52.2°C | 0.5% | 32.3hPa | 2.7V | 08:24:38 | 02:22:10 | 00:00:00 | |
| HSKMA3-T | 2026-09-04 06:52:51 | 49.41604 | 8.66999 | 301° | 44km/h | 23920m | -18.8m/s | -52.3°C | 0.7% | 31.6hPa | 2.5V | 08:24:38 | 02:22:03 | 00:00:00 | |
| DL8DAS-14 | 2026-09-04 06:52:50 | 49.41598 | 8.67033 | 267° | 44km/h | 23956m | -18.3m/s | -52.5°C | 1.0% | 31.5hPa | 2.6V | 00:00:00 | 00:00:00 | 00:00:00 | |
| DB0NH | 2026-09-04 06:52:49 | 49.41598 | 8.67033 | 268° | 35km/h | 23956m | -18.2m/s | -52.4°C | 4.0% | 31.4hPa | 2.6V | 00:00:00 | 02:22:01 | 00:00:00 | |
| DM0DOS-11 | 2026-09-04 06:52:48 | 49.41613 | 8.67074 | 210° | 42km/h | 24008m | -17.9m/s | -52.6°C | 4.1% | 31.2hPa | 2.6V | 08:24:37 | 02:21:58 | 00:00:00 | |
| DL1XH1-15 | 2026-09-04 06:52:48 | 49.41631 | 8.67080 | 170° | 37km/h | 24046m | -19m/s | -52.3°C | 4% | 31hPa | 2.7V | 08:24:39 | 02:21:56 | 00:00:00 | |
| BIOWL1-15 | 2026-09-04 06:52:48 | 49.41600 | 8.67050 | 250° | 46km/h | 23973m | -17.5m/s | -52.6°C | 0.7% | 31.4hPa | 2.7V | 08:24:38 | 02:22:00 | 00:00:00 | |
| DL1XH-west | 2026-09-04 06:52:47 | 49.41605 | 8.67064 | 232° | 40km/h | 23991m | -18.3m/s | -52.6°C | 0.7% | 31.3hPa | 2.5V | 08:24:38 | 02:21:59 | 00:00:00 | |
| DF3TZ-5 | 2026-09-04 06:52:46 | 49.41622 | 8.67080 | 192° | 37km/h | 24027m | -19.2m/s | -52.5°C | 1.1% | 31.2hPa | 2.6V | 00:00:00 | 00:00:00 | 00:00:00 | |
| DB0ND-19 | 2026-09-04 06:52:45 | 49.41622 | 8.67080 | 192° | 37km/h | 24027m | -19.2m/s | -52.5°C | 1.1% | 31.2hPa | 2.6V | 00:00:00 | 00:00:00 | 00:00:00 | |
| HSKMA3-T | 2026-09-04 06:52:41 | 49.41648 | 8.67061 | 103° | 24km/h | 24102m | -18.4m/s | -51.5°C | 0.5% | 30.8hPa | 2.6V | 08:26:20 | 02:21:53 | 00:00:00 | |
| DG9SBQ-11 | 2026-09-04 06:52:40 | 49.41648 | 8.67060 | 104° | 24km/h | 24102m | -18.4m/s | -51.5°C | 1.0% | 30.8hPa | 2.6V | 08:25:00 | 00:00:00 | 00:00:00 | |
| DL1XH1-15 | 2026-09-04 06:52:38 | 49.41614 | 8.67091 | 285° | 51km/h | 24231m | -18.7m/s | -50.6°C | 3.4% | 30.2hPa | 2.6V | 08:24:49 | 02:21:46 | 00:00:00 | |
| BIOWL1-15 | 2026-09-04 06:52:38 | 49.41639 | 8.67047 | 354° | 27km/h | 24157m | -18.6m/s | -50.9°C | 0.3% | 30.5hPa | 2.7V | 08:25:29 | 02:21:50 | 00:00:00 | |
| DL1XH-west | 2026-09-04 06:52:37 | 49.41632 | 8.67051 | 329° | 35km/h | 24175m | -18m/s | -50.7°C | 0.3% | 30.5hPa | 2.7V | 08:25:29 | 02:21:49 | 00:00:00 | |
| HSKMA3-T | 2026-09-04 06:52:30 | 49.41622 | 8.67152 | 220° | 29km/h | 24304m | -19.1m/s | -50.7°C | 0.4% | 29.8hPa | 2.6V | 08:26:20 | 02:21:42 | 00:00:00 | |
| BIOWL1-15 | 2026-09-04 06:52:30 | 49.41633 | 8.67156 | 154° | 18km/h | 24340m | -19m/s | -50.8°C | 0.3% | 29.6hPa | 2.7V | 08:25:29 | 02:21:40 | 00:00:00 | |
| DG9SBQ-11 | 2026-09-04 06:52:29 | 49.41628 | 8.67157 | 191° | 24km/h | 24322m | -17.9m/s | -50.8°C | 0.9% | 29.8hPa | 2.7V | 08:25:00 | 00:00:00 | 00:00:00 | |
| DL1XH1-15 | 2026-09-04 06:52:28 | 49.41628 | 8.67127 | 32° | 33km/h | 24414m | -19.2m/s | -51.2°C | 3.6% | 29.3hPa | 2.7V | 08:24:59 | 02:21:36 | 00:00:00 | |
| DL1XH-west | 2026-09-04 06:52:27 | 49.41636 | 8.67151 | 109° | 20km/h | 24358m | -17.5m/s | -50.9°C | 0.4% | 29.6hPa | 2.7V | 08:25:29 | 02:21:39 | 00:00:00 | |
| NBG1-10 | 2026-09-04 06:52:26 | 49.41636 | 8.67143 | 82° | 35km/h | 24377m | -18.9m/s | -51.0°C | 3.5% | 29.5hPa | 2.7V | 00:00:00 | 02:21:38 | 00:00:00 | |
| DO3MHA-11 | 2026-09-04 06:52:25 | 49.41633 | 8.67135 | 47° | 35km/h | 24395m | -18.7m/s | -51.1°C | 3.6% | 29.4hPa | 2.7V | 00:00:00 | 02:21:37 | 00:00:00 | |
| DL1ZP-14 | 2026-09-04 06:52:24 | 49.41628 | 8.67127 | 32° | 31km/h | 24414m | -19.2m/s | -51.3°C | 0.9% | 29.3hPa | 2.7V | 00:00:00 | 00:00:00 | 00:00:00 | |
| HEMX73-11 | 2026-09-04 06:52:23 | 49.41627 | 8.67127 | 34° | 33km/h | 24414m | -19.2m/s | -51.3°C | 0.9% | 29.3hPa | 2.6V | 08:25:00 | 00:00:00 | 00:00:00 | |
| DL1XH1-15 | 2026-09-04 06:52:19 | 49.41599 | 8.67173 | 154° | 29km/h | 24601m | -18.4m/s | -51.5°C | 3.7% | 28.5hPa | 2.6V | 08:25:09 | 02:21:26 | 00:00:00 | |
| DB0NH | 2026-09-04 06:52:19 | 49.41585 | 8.67140 | 303° | 33km/h | 24508m | -18.0m/s | -51.3°C | 3.7% | 28.9hPa | 2.7V | 00:00:00 | 02:21:31 | 00:00:00 | |
| DM0DOS-11 | 2026-09-04 06:52:18 | 49.41586 | 8.67171 | 216° | 26km/h | 24564m | -19.8m/s | -51.5°C | 3.7% | 28.7hPa | 2.7V | 08:25:07 | 02:21:28 | 00:00:00 | |
| HSKMA3-T | 2026-09-04 06:52:18 | 49.41582 | 8.67152 | 278° | 29km/h | 24526m | -19.5m/s | -51.4°C | 0.5% | 28.9hPa | 2.7V | 08:26:20 | 02:21:30 | 00:00:00 | |
| BIOWL1-15 | 2026-09-04 06:52:17 | 49.41582 | 8.67163 | 250° | 29km/h | 24545m | -18.8m/s | -51.4°C | 0.5% | 28.8hPa | 2.7V | 08:25:29 | 02:21:29 | 00:00:00 | |
| DL1XH-west | 2026-09-04 06:52:16 | 49.41586 | 8.67171 | 217° | 26km/h | 24564m | -19.8m/s | -51.5°C | 0.5% | 28.7hPa | 2.7V | 08:25:29 | 02:21:28 | 00:00:00 | |
| DL6DJ-15 | 2026-09-04 06:52:16 | 49.41586 | 8.67171 | 216° | 24km/h | 24564m | -19.8m/s | -51.5°C | 1.0% | 28.7hPa | 2.6V | 00:00:00 | 00:00:00 | 00:00:00 | |
| DO3MHA-11 | 2026-09-04 06:52:15 | 49.41592 | 8.67174 | 188° | 35km/h | 24583m | -19.1m/s | -51.4°C | 3.7% | 28.5hPa | 2.6V | 08:25:00 | 02:21:27 | 00:00:00 | |
| DB0ND-19 | 2026-09-04 06:52:14 | 49.41599 | 8.67173 | 154° | 29km/h | 24601m | -18.4m/s | -51.5°C | 1.0% | 28.5hPa | 2.6V | 00:00:00 | 00:00:00 | 00:00:00 | |
| DG9SBQ-11 | 2026-09-04 06:52:12 | 49.41605 | 8.67165 | 134° | 37km/h | 24620m | -19.5m/s | -51.5°C | 1.0% | 28.4hPa | 2.6V | 08:25:00 | 00:00:00 | 00:00:00 | |
| DL0LBS | 2026-09-04 06:52:10 | 49.41611 | 8.67138 | 96° | 42km/h | 24657m | -19.2m/s | -51.5°C | 1.0% | 28.2hPa | 2.6V | 08:25:00 | 00:00:00 | 00:00:00 | |
| DL1XH1-15 | 2026-09-04 06:52:09 | 49.41581 | 8.67099 | 270° | 22km/h | 24793m | -19.2m/s | -51.1°C | 3.7% | 27.7hPa | 2.6V | 08:25:19 | 02:21:16 | 00:00:00 | |
| DL1XH-west | 2026-09-04 06:52:06 | 49.41587 | 8.67090 | 351° | 24km/h | 24754m | -19.3m/s | -51.2°C | 0.6% | 27.8hPa | 2.6V | 08:25:29 | 02:21:18 | 00:00:00 | |
| HSKMA3-T | 2026-09-04 06:52:00 | 49.41608 | 8.67124 | 182° | 47km/h | 24870m | -19.4m/s | -50.7°C | 0.4% | 27.4hPa | 2.6V | 08:26:20 | 02:21:12 | 00:00:00 | |
| DJ2DS-15 | 2026-09-04 06:52:00 | 49.41608 | 8.67124 | 181° | 46km/h | 24870m | -19.4m/s | -50.8°C | 0.9% | 27.4hPa | 2.7V | 00:00:00 | 00:00:00 | 00:00:00 | |
| DL1XH1-15 | 2026-09-04 06:51:59 | 49.41655 | 8.67073 | 80° | 26km/h | 24991m | -19.3m/s | -50.8°C | 3.7% | 26.8hPa | 2.7V | 08:25:29 | 02:21:06 | 00:00:00 | |
| BIOWL1-15 | 2026-09-04 06:51:55 | 49.41655 | 8.67073 | 80° | 26km/h | 24991m | -19.3m/s | -50.8°C | 0.5% | 26.9hPa | 2.7V | 08:25:29 | 02:21:06 | 00:00:00 | |
| DL1XH-west | 2026-09-04 06:51:55 | 49.41654 | 8.67084 | 112° | 33km/h | 24970m | -20.7m/s | -50.8°C | 0.5% | 26.9hPa | 2.6V | 08:25:29 | 02:21:07 | 00:00:00 | |
| DL1ZP-14 | 2026-09-04 06:51:53 | 49.41653 | 8.67065 | 47° | 20km/h | 25010m | -19.4m/s | -50.8°C | 0.9% | 26.8hPa | 2.7V | 00:00:00 | 00:00:00 | 00:00:00 | |
| DL3AQ-11 | 2026-09-04 06:51:52 | 49.41643 | 8.67065 | 325° | 26km/h | 25048m | -20.1m/s | -50.6°C | 0.9% | 26.6hPa | 2.6V | 00:00:00 | 00:00:00 | 00:00:00 | |
| DG9SBQ-11 | 2026-09-04 06:51:51 | 49.41649 | 8.67062 | 3° | 24km/h | 25030m | -18.6m/s | -50.7°C | 0.9% | 26.7hPa | 2.6V | 08:26:00 | 00:00:00 | 00:00:00 | |
| DM0DOS-11 | 2026-09-04 06:51:49 | 49.41645 | 8.67156 | 207° | 27km/h | 25186m | -19.9m/s | -50.4°C | 3.6% | 26hPa | 2.6V | 08:25:39 | 02:20:56 | 00:00:00 | |
| DL1XH-west | 2026-09-04 06:51:45 | 49.41639 | 8.67148 | 230° | 37km/h | 25166m | -20.3m/s | -50.3°C | 0.3% | 26.1hPa | 2.6V | 08:26:20 | 02:20:57 | 00:00:00 | |
| BIOWL1-15 | 2026-09-04 06:51:44 | 49.41645 | 8.67156 | 207° | 27km/h | 25186m | -19.9m/s | -50.4°C | 0.4% | 26hPa | 2.6V | 08:26:20 | 02:20:56 | 00:00:00 | |
| DB0ND-19 | 2026-09-04 06:51:43 | 49.41651 | 8.67158 | 172° | 24km/h | 25206m | -20.2m/s | -50.5°C | 0.9% | 26.0hPa | 2.6V | 00:00:00 | 00:00:00 | 00:00:00 | |
| DB0UT-9 | 2026-09-04 06:51:42 | 49.41651 | 8.67158 | 173° | 24km/h | 25206m | -20.2m/s | -50.5°C | 0.9% | 26.0hPa | 2.6V | 08:26:00 | 00:00:00 | 00:00:00 | |
| HEMX73-11 | 2026-09-04 06:51:41 | 49.41656 | 8.67154 | 132° | 20km/h | 25227m | -20.7m/s | -50.6°C | 0.9% | 25.9hPa | 2.6V | 08:26:00 | 00:00:00 | 00:00:00 | |
| DG9SBQ-11 | 2026-09-04 06:51:40 | 49.41658 | 8.67146 | 96° | 27km/h | 25247m | -19.7m/s | -50.6°C | 1.0% | 25.8hPa | 2.6V | 08:26:00 | 00:00:00 | 00:00:00 | |
| DL1XH1-15 | 2026-09-04 06:51:39 | 49.41602 | 8.67114 | 325° | 42km/h | 25388m | -20.5m/s | -50.5°C | 3.7% | 25.2hPa | 2.6V | 08:25:49 | 02:20:46 | 00:00:00 | |
| DL1XH-west | 2026-09-04 06:51:34 | 49.41601 | 8.67114 | 326° | 42km/h | 25389m | -20.5m/s | -50.5°C | 0.5% | 25.2hPa | 2.6V | 08:26:20 | 02:20:46 | 00:00:00 | |
| BIOWL1-15 | 2026-09-04 06:51:33 | 49.41594 | 8.67124 | 309° | 38km/h | 25409m | -20.9m/s | -50.4°C | 0.5% | 25.1hPa | 2.7V | 08:26:20 | 02:20:45 | 00:00:00 | |
| DM3KS-11 | 2026-09-04 06:51:32 | 49.41590 | 8.67136 | 282° | 29km/h | 25429m | -20.6m/s | -50.2°C | 0.9% | 25.1hPa | 2.7V | 00:00:00 | 00:00:00 | 00:00:00 | |
| DG9SBQ-11 | 2026-09-04 06:51:30 | 49.41590 | 8.67147 | 256° | 29km/h | 25450m | -20.0m/s | -50.0°C | 0.9% | 25.0hPa | 2.7V | 08:26:00 | 00:00:00 | 00:00:00 | |
| DL1XH1-15 | 2026-09-04 06:51:29 | 49.41629 | 8.67116 | 95° | 42km/h | 25594m | -20.5m/s | -49.6°C | 3.5% | 24.4hPa | 2.7V | 08:25:59 | 02:20:36 | 00:00:00 | |
| DL1XH-west | 2026-09-04 06:51:23 | 49.41628 | 8.67100 | 70° | 44km/h | 25615m | -21m/s | -49.4°C | 0.4% | 24.4hPa | 2.7V | 08:26:20 | 02:20:35 | 00:00:00 | |
| BIOWL1-15 | 2026-09-04 06:51:23 | 49.41610 | 8.67069 | 17° | 33km/h | 25679m | -21.7m/s | -49.2°C | 0.3% | 24.1hPa | 2.6V | 08:26:20 | 02:20:32 | 00:00:00 | |
| DL3AQ-11 | 2026-09-04 06:51:23 | 49.41623 | 8.67086 | 55° | 42km/h | 25636m | -21.2m/s | -49.3°C | 0.9% | 24.3hPa | 2.7V | 00:00:00 | 00:00:00 | 00:00:00 | |
| DL1ZP-14 | 2026-09-04 06:51:22 | 49.41623 | 8.67086 | 55° | 42km/h | 25636m | -21.2m/s | -49.3°C | 0.9% | 24.3hPa | 2.7V | 00:00:00 | 00:00:00 | 00:00:00 | |
| DB0UT-9 | 2026-09-04 06:51:21 | 49.41623 | 8.67086 | 57° | 42km/h | 25636m | -21.2m/s | -49.3°C | 0.9% | 24.3hPa | 2.6V | 08:26:00 | 00:00:00 | 00:00:00 | |
| HEMX73-11 | 2026-09-04 06:51:20 | 49.41617 | 8.67075 | 40° | 37km/h | 25658m | -21.9m/s | -49.3°C | 0.9% | 24.2hPa | 2.6V | 08:26:00 | 00:00:00 | 00:00:00 | |
| DG9SBQ-11 | 2026-09-04 06:51:19 | 49.41610 | 8.67068 | 18° | 33km/h | 25679m | -21.7m/s | -49.2°C | 0.9% | 24.2hPa | 2.6V | 08:26:00 | 00:00:00 | 00:00:00 | |
| DB0NH | 2026-09-04 06:51:18 | 49.41596 | 8.67069 | 323° | 37km/h | 25721m | -20.7m/s | -48.9°C | 3.4% | 23.9hPa | 2.6V | 00:00:00 | 02:20:30 | 00:00:00 | |
| DL8DAS-15 | 2026-09-04 06:51:17 | 49.41596 | 8.67069 | 323° | 22km/h | 25721m | -20.7m/s | -49.0°C | 0.9% | 24.0hPa | 2.6V | 00:00:00 | 00:00:00 | 00:00:00 | |
| SFWM-10 | 2026-09-04 06:51:16 | 49.41593 | 8.67076 | 283° | 22km/h | 25742m | -21.4m/s | -49.0°C | 0.9% | 23.9hPa | 2.6V | 00:00:00 | 00:00:00 | 00:00:00 | |
| DL1XH1-15 | 2026-09-04 06:51:15 | 49.41608 | 8.67097 | 193° | 38km/h | 25804m | -21.4m/s | -48.8°C | 3.3% | 23.7hPa | 2.6V | 08:26:09 | 02:20:26 | 00:00:00 | |
| DL1XH-west | 2026-09-04 06:51:12 | 49.41631 | 8.67095 | 163° | 49km/h | 25846m | -22.5m/s | -48.7°C | 0.2% | 23.5hPa | 2.7V | 08:26:20 | 02:20:24 | 00:00:00 | |
| HSKMA3-T | 2026-09-04 06:51:11 | 49.41642 | 8.67087 | 149° | 53km/h | 25868m | -21.3m/s | -48.5°C | 0.2% | 23.4hPa | 2.6V | 08:26:20 | 02:20:23 | 00:00:00 | |
| BIOWL1-15 | 2026-09-04 06:51:11 | 49.41665 | 8.67043 | 104° | 44km/h | 25933m | -21.3m/s | -48.4°C | 0.2% | 23.2hPa | 2.7V | 08:26:20 | 02:20:20 | 00:00:00 | |
| SONCRA | 2026-09-04 06:51:10 | 49.41653 | 8.67075 | 136° | 51km/h | 25890m | -22.3m/s | -48.4°C | 0.8% | 23.4hPa | 2.6V | 00:00:00 | 00:00:00 | 00:00:00 | |
| DL0LBS | 2026-09-04 06:51:09 | 49.41661 | 8.67060 | 120° | 47km/h | 25912m | -21.6m/s | -48.4°C | 0.8% | 23.3hPa | 2.6V | 08:26:00 | 00:00:00 | 00:00:00 | |
| DG9SBQ-11 | 2026-09-04 06:51:08 | 49.41661 | 8.67060 | 120° | 47km/h | 25912m | -21.6m/s | -48.4°C | 0.8% | 23.3hPa | 2.6V | 08:26:00 | 00:00:00 | 00:00:00 | |
| DL8DAS-15 | 2026-09-04 06:51:07 | 49.41665 | 8.67043 | 105° | 44km/h | 25933m | -21.3m/s | -48.4°C | 0.8% | 23.2hPa | 2.6V | 00:00:00 | 00:00:00 | 00:00:00 | |
| DJ2KF-10 | 2026-09-04 06:51:06 | 49.41663 | 8.67017 | 60° | 38km/h | 25976m | -21.4m/s | -48.3°C | 3.2% | 23.0hPa | 2.6V | 00:00:00 | 02:20:18 | 00:00:00 | |
| DB0UT-7 | 2026-09-04 06:51:05 | 49.41659 | 8.67010 | 29° | 37km/h | 25997m | -21.8m/s | -48.4°C | 3.2% | 23.0hPa | 2.6V | 00:00:00 | 02:20:17 | 00:00:00 | |
| DK5PH-5 | 2026-09-04 06:51:04 | 49.41654 | 8.67008 | 347° | 38km/h | 26019m | -20.9m/s | -48.5°C | 3.2% | 22.9hPa | 2.7V | 00:00:00 | 02:20:16 | 00:00:00 | |
| DM0DOS-11 | 2026-09-04 06:51:03 | 49.41679 | 8.67075 | 187° | 47km/h | 26170m | -21.8m/s | -48.6°C | 3.3% | 22.4hPa | 2.7V | 08:26:26 | 02:20:09 | 00:00:00 | |
| DL1XH-west | 2026-09-04 06:51:02 | 49.41647 | 8.67022 | 277° | 29km/h | 26061m | -21.2m/s | -48.6°C | 0.2% | 22.8hPa | 2.7V | 08:27:11 | 02:20:14 | 00:00:00 | |
| BIOWL1-15 | 2026-09-04 06:51:00 | 49.41668 | 8.67070 | 205° | 46km/h | 26148m | -22.8m/s | -48.7°C | 0.3% | 22.4hPa | 2.7V | 08:27:11 | 02:20:10 | 00:00:00 | |
| HSKMA3-T | 2026-09-04 06:51:00 | 49.41651 | 8.67048 | 236° | 42km/h | 26104m | -22.6m/s | -48.7°C | 0.2% | 22.6hPa | 2.6V | 08:27:11 | 02:20:12 | 00:00:00 | |
| DL1XH-west | 2026-09-04 06:50:51 | 49.41705 | 8.67021 | 44° | 37km/h | 26300m | -21.6m/s | -48.2°C | 0.2% | 21.9hPa | 2.7V | 08:27:11 | 02:20:03 | 00:00:00 | |
| HSKMA3-T | 2026-09-04 06:50:49 | 49.41688 | 8.67010 | 0° | 38km/h | 26344m | -22.4m/s | -48.1°C | 0.2% | 21.8hPa | 2.6V | 08:27:11 | 02:20:01 | 00:00:00 | |
| DJ2DS-15 | 2026-09-04 06:50:48 | 49.41670 | 8.67019 | 324° | 37km/h | 26389m | -23.6m/s | -48.1°C | 0.8% | 21.6hPa | 2.6V | 00:00:00 | 00:00:00 | 00:00:00 | |
| SONDE2-11 | 2026-09-04 06:50:47 | 49.41664 | 8.67029 | 298° | 35km/h | 26413m | -23.7m/s | -48.1°C | 0.8% | 21.6hPa | 2.6V | 00:00:00 | 00:00:00 | 00:00:00 | |
| DL8DAS-14 | 2026-09-04 06:50:45 | 49.41661 | 8.67040 | 281° | 27km/h | 26436m | -23.5m/s | -48.0°C | 0.8% | 21.5hPa | 2.6V | 00:00:00 | 00:00:00 | 00:00:00 | |
| BIOWL1-15 | 2026-09-04 06:50:41 | 49.41693 | 8.67037 | 119° | 46km/h | 26568m | -22.8m/s | -47.8°C | 0.2% | 21.1hPa | 2.6V | 08:27:11 | 02:19:51 | 00:00:00 | |
| AA1-15 | 2026-09-04 06:50:41 | 49.41679 | 8.67058 | 156° | 37km/h | 26524m | -21.4m/s | -47.8°C | 0.2% | 21.2hPa | 2.7V | 08:27:11 | 02:19:53 | 00:00:00 | |
| DL1XH-west | 2026-09-04 06:50:40 | 49.41687 | 8.67050 | 137° | 42km/h | 26545m | -22.5m/s | -47.8°C | 0.1% | 21.1hPa | 2.6V | 08:27:11 | 02:19:52 | 00:00:00 | |
| DL1XH1-15 | 2026-09-04 06:50:39 | 49.41687 | 8.66968 | 24° | 33km/h | 26682m | -22.8m/s | -47.5°C | 3.1% | 20.7hPa | 2.6V | 08:26:49 | 02:19:46 | 00:00:00 | |
| HSKMA3-T | 2026-09-04 06:50:38 | 49.41698 | 8.67020 | 106° | 46km/h | 26590m | -23.6m/s | -47.8°C | 0.2% | 21hPa | 2.6V | 08:27:11 | 02:19:50 | 00:00:00 | |
| AA1-15 | 2026-09-04 06:50:30 | 49.41670 | 8.66988 | 259° | 29km/h | 26771m | -22.6m/s | -47.3°C | 0% | 20.4hPa | 2.7V | 08:27:11 | 02:19:42 | 00:00:00 | |
| DL1XH-west | 2026-09-04 06:50:29 | 49.41674 | 8.67000 | 237° | 37km/h | 26794m | -22.6m/s | -47.3°C | 0% | 20.3hPa | 2.6V | 08:27:11 | 02:19:41 | 00:00:00 | |
| HSKMA3-T | 2026-09-04 06:50:28 | 49.41680 | 8.67010 | 215° | 37km/h | 26816m | -23.4m/s | -47.3°C | 0% | 20.3hPa | 2.6V | 08:27:11 | 02:19:40 | 00:00:00 | |
| AA1-15 | 2026-09-04 06:50:20 | 49.41734 | 8.66949 | 72° | 27km/h | 26999m | -24.3m/s | -47.9°C | 0.1% | 19.7hPa | 2.7V | 08:27:11 | 02:19:32 | 00:00:00 | |
| BIOWL1-15 | 2026-09-04 06:50:18 | 49.41725 | 8.66942 | 313° | 16km/h | 27070m | -23.6m/s | -48.2°C | 0.1% | 19.5hPa | 2.7V | 08:27:11 | 02:19:29 | 00:00:00 | |
| DL1XH-west | 2026-09-04 06:50:18 | 49.41728 | 8.66939 | 359° | 16km/h | 27047m | -23m/s | -48.1°C | 0.1% | 19.6hPa | 2.6V | 08:27:11 | 02:19:30 | 00:00:00 | |
| DB0NH | 2026-09-04 06:50:18 | 49.41728 | 8.66939 | 359° | 38km/h | 27047m | -22.9m/s | -48.1°C | 3.1% | 19.5hPa | 2.6V | 00:00:00 | 02:19:30 | 00:00:00 | |
| KANTATE | 2026-09-04 06:50:17 | 49.41728 | 8.66939 | 360° | 16km/h | 27047m | -23.0m/s | -48.1°C | 0.8% | 19.6hPa | 2.7V | 08:27:00 | 00:00:00 | 00:00:00 | |
| DG1MJG | 2026-09-04 06:50:16 | 49.41723 | 8.66949 | 270° | 24km/h | 27093m | -23.7m/s | -48.3°C | 0.8% | 19.5hPa | 2.7V | 00:00:00 | 00:00:00 | 00:00:00 | |
| DM0DOS-11 | 2026-09-04 06:50:15 | 49.41782 | 8.67008 | 178° | 55km/h | 27231m | -24.6m/s | -48.6°C | 3.3% | 19hPa | 2.7V | 08:27:13 | 02:19:22 | 00:00:00 | |
| AA1-15 | 2026-09-04 06:50:09 | 49.41794 | 8.67005 | 165° | 47km/h | 27255m | -24.9m/s | -48.6°C | 0.3% | 18.9hPa | 2.7V | 08:28:02 | 02:19:21 | 00:00:00 | |
| DL1XH1-15 | 2026-09-04 06:50:08 | 49.41805 | 8.66975 | 1° | 29km/h | 27371m | -22.9m/s | -48.7°C | 3.4% | 18.6hPa | 2.7V | 08:27:19 | 02:19:16 | 00:00:00 | |
| DL1XH-west | 2026-09-04 06:50:07 | 49.41810 | 8.66992 | 124° | 29km/h | 27303m | -23m/s | -48.5°C | 0.3% | 18.8hPa | 2.6V | 08:28:02 | 02:19:19 | 00:00:00 | |
| BIOWL1-15 | 2026-09-04 06:50:06 | 49.41797 | 8.66977 | 339° | 38km/h | 27394m | -23.3m/s | -48.8°C | 0.3% | 18.5hPa | 2.7V | 08:28:02 | 02:19:15 | 00:00:00 | |
| AA1-15 | 2026-09-04 06:49:59 | 49.41773 | 8.67032 | 273° | 44km/h | 27490m | -24.6m/s | -48.3°C | 0.2% | 18.3hPa | 2.6V | 08:28:02 | 02:19:11 | 00:00:00 | |
| DL4BBY-15 | 2026-09-04 06:49:58 | 49.41774 | 8.67049 | 253° | 37km/h | 27514m | -23.9m/s | -50.4°C | 0% | 0hPa | 2.6V | 00:00:00 | 00:00:00 | 00:00:00 | |
| DM0DOS-11 | 2026-09-04 06:49:57 | 49.41802 | 8.67054 | 105° | 35km/h | 27630m | -23.9m/s | -48.2°C | 3.3% | 17.9hPa | 2.6V | 08:27:30 | 02:19:05 | 00:00:00 | |
| DL1XH1-15 | 2026-09-04 06:49:57 | 49.41798 | 8.67064 | 133° | 29km/h | 27607m | -23.6m/s | -48.2°C | 3.3% | 18hPa | 2.5V | 08:27:29 | 02:19:06 | 00:00:00 | |
| DL1XH-west | 2026-09-04 06:49:56 | 49.41785 | 8.67068 | 200° | 29km/h | 27560m | -23.4m/s | -48.3°C | 0.3% | 18.1hPa | 2.7V | 08:28:02 | 02:19:08 | 00:00:00 | |
| AA1-15 | 2026-09-04 06:49:48 | 49.41777 | 8.67002 | 4° | 42km/h | 27749m | -25.1m/s | -48.3°C | 0.4% | 17.6hPa | 2.6V | 08:28:02 | 02:19:00 | 00:00:00 | |
| DL1XH1-15 | 2026-09-04 06:49:47 | 49.41755 | 8.67032 | 260° | 29km/h | 27849m | -25m/s | -47.8°C | 3.2% | 17.3hPa | 2.6V | 08:27:39 | 02:18:56 | 00:00:00 | |
| DB0NH | 2026-09-04 06:49:47 | 49.41767 | 8.67004 | 343° | 37km/h | 27774m | -25.3m/s | -48.2°C | 3.3% | 17.4hPa | 2.6V | 00:00:00 | 02:18:59 | 00:00:00 | |
| DL0LBS | 2026-09-04 06:49:46 | 49.41767 | 8.67004 | 343° | 37km/h | 27774m | -25.4m/s | -48.2°C | 0.9% | 17.5hPa | 2.6V | 08:28:00 | 00:00:00 | 00:00:00 | |
| DM0DOS-11 | 2026-09-04 06:49:45 | 49.41758 | 8.67043 | 231° | 31km/h | 27873m | -24.7m/s | -47.6°C | 3.2% | 17.2hPa | 2.6V | 08:27:40 | 02:18:55 | 00:00:00 | |
| DL1XH-west | 2026-09-04 06:49:45 | 49.41755 | 8.67021 | 290° | 31km/h | 27824m | -25.4m/s | -47.9°C | 0.2% | 17.4hPa | 2.7V | 08:28:02 | 02:18:57 | 00:00:00 | |
| BIOWL1-15 | 2026-09-04 06:49:42 | 49.41773 | 8.67053 | 181° | 38km/h | 27921m | -23.8m/s | -47.4°C | 0.2% | 17.1hPa | 2.7V | 08:28:02 | 02:18:53 | 00:00:00 | |
| DL6DJ-15 | 2026-09-04 06:49:41 | 49.41782 | 8.67050 | 159° | 38km/h | 27945m | -23.8m/s | -47.4°C | 0.8% | 17.1hPa | 2.6V | 00:00:00 | 00:00:00 | 00:00:00 | |
| DB0ND-19 | 2026-09-04 06:49:39 | 49.41791 | 8.67042 | 136° | 40km/h | 27969m | -24.5m/s | -47.3°C | 0.8% | 17.0hPa | 2.6V | 00:00:00 | 00:00:00 | 00:00:00 | |
| DM0DOS-11 | 2026-09-04 06:49:38 | 49.41781 | 8.66979 | 353° | 37km/h | 28114m | -24.5m/s | -47.2°C | 3.1% | 16.6hPa | 2.6V | 08:27:50 | 02:18:45 | 00:00:00 | |
| HSKMA3-T | 2026-09-04 06:49:35 | 49.41796 | 8.66988 | 51° | 35km/h | 28065m | -24.3m/s | -47°C | 0.1% | 16.7hPa | 2.7V | 08:28:02 | 02:18:47 | 00:00:00 | |
| DL1XH-west | 2026-09-04 06:49:34 | 49.41789 | 8.66980 | 20° | 35km/h | 28090m | -24.8m/s | -47.1°C | 0.1% | 16.6hPa | 2.7V | 08:28:02 | 02:18:46 | 00:00:00 | |
| BIOWL1-15 | 2026-09-04 06:49:30 | 49.41762 | 8.67007 | 278° | 42km/h | 28189m | -26m/s | -47.1°C | 0.1% | 16.4hPa | 2.7V | 08:28:02 | 02:18:42 | 00:00:00 | |
| DM0DOS-11 | 2026-09-04 06:49:28 | 49.41806 | 8.67034 | 122° | 44km/h | 28363m | -25.9m/s | -46.9°C | 3.1% | 16hPa | 2.7V | 08:28:00 | 02:18:35 | 00:00:00 | |
| DL1XH1-15 | 2026-09-04 06:49:28 | 49.41799 | 8.67046 | 141° | 42km/h | 28338m | -25.4m/s | -46.9°C | 3.1% | 16hPa | 2.7V | 08:27:59 | 02:18:36 | 00:00:00 | |
| HSKMA3-T | 2026-09-04 06:49:24 | 49.41799 | 8.67046 | 142° | 42km/h | 28338m | -25.5m/s | -46.9°C | 0.1% | 16.1hPa | 2.7V | 08:28:02 | 02:18:36 | 00:00:00 | |
| BIOWL1-15 | 2026-09-04 06:49:19 | 49.41806 | 8.66977 | 48° | 31km/h | 28467m | -25.4m/s | -47.1°C | 0.2% | 15.7hPa | 2.7V | 08:28:53 | 02:18:31 | 00:00:00 | |
| DL1ZP-14 | 2026-09-04 06:49:18 | 49.41801 | 8.66971 | 20° | 26km/h | 28492m | -24.3m/s | -47.1°C | 0.8% | 15.7hPa | 2.7V | 00:00:00 | 00:00:00 | 00:00:00 | |
| DB0NH | 2026-09-04 06:49:17 | 49.41795 | 8.66970 | 345° | 35km/h | 28516m | -24.1m/s | -47.0°C | 3.2% | 15.6hPa | 2.5V | 00:00:00 | 02:18:29 | 00:00:00 | |
| DM0DOS-11 | 2026-09-04 06:49:16 | 49.41810 | 8.67024 | 193° | 38km/h | 28667m | -26.6m/s | -46.5°C | 3.2% | 15.2hPa | 2.5V | 08:28:12 | 02:18:23 | 00:00:00 | |
| DL1XH1-15 | 2026-09-04 06:49:15 | 49.41790 | 8.66997 | 248° | 37km/h | 28590m | -26.3m/s | -46.9°C | 3.3% | 15.4hPa | 2.7V | 08:28:09 | 02:18:26 | 00:00:00 | |
| AA1-15 | 2026-09-04 06:49:14 | 49.41790 | 8.66997 | 248° | 37km/h | 28590m | -26.3m/s | -46.9°C | 0.2% | 15.4hPa | 2.7V | 08:28:53 | 02:18:26 | 00:00:00 | |
| DL1XH-west | 2026-09-04 06:49:13 | 49.41794 | 8.67009 | 231° | 38km/h | 28616m | -26m/s | -46.8°C | 0.1% | 15.3hPa | 2.7V | 08:28:53 | 02:18:25 | 00:00:00 | |
| DG9SBQ-11 | 2026-09-04 06:49:12 | 49.41794 | 8.67009 | 232° | 38km/h | 28616m | -26.0m/s | -46.8°C | 0.7% | 15.4hPa | 2.6V | 08:28:00 | 00:00:00 | 00:00:00 | |
| DL3AQ-11 | 2026-09-04 06:49:11 | 49.41810 | 8.67024 | 193° | 37km/h | 28668m | -26.6m/s | -46.6°C | 0.8% | 15.2hPa | 2.6V | 00:00:00 | 00:00:00 | 00:00:00 | |
| BIOWL9-15 | 2026-09-04 06:49:10 | 49.41819 | 8.67025 | 170° | 35km/h | 28693m | -26.6m/s | -46.5°C | 0.8% | 15.2hPa | 2.6V | 00:00:00 | 00:00:00 | 00:00:00 | |
| DL1XH1-15 | 2026-09-04 06:49:09 | 49.41821 | 8.66958 | 30° | 40km/h | 28849m | -26.6m/s | -45.6°C | 3% | 14.9hPa | 2.6V | 08:28:19 | 02:18:16 | 00:00:00 | |
| BIOWL1-15 | 2026-09-04 06:49:08 | 49.41829 | 8.66968 | 51° | 40km/h | 28822m | -26.7m/s | -45.8°C | 0.1% | 14.9hPa | 2.6V | 08:28:53 | 02:18:17 | 00:00:00 | |
| AA1-15 | 2026-09-04 06:49:03 | 49.41812 | 8.66952 | 13° | 38km/h | 28875m | -26.1m/s | -45.5°C | 0% | 14.8hPa | 2.7V | 08:28:53 | 02:18:15 | 00:00:00 | |
| DL1XH-west | 2026-09-04 06:49:02 | 49.41803 | 8.66951 | 352° | 35km/h | 28901m | -25.8m/s | -45.3°C | 0% | 14.7hPa | 2.7V | 08:28:53 | 02:18:14 | 00:00:00 | |
| DJ2DS-15 | 2026-09-04 06:49:00 | 49.41788 | 8.66974 | 265° | 29km/h | 28977m | -26.1m/s | -45.0°C | 0.7% | 14.6hPa | 2.6V | 00:00:00 | 00:00:00 | 00:00:00 | |
| DD1CC8 | 2026-09-04 06:48:59 | 49.41788 | 8.66974 | 265° | 29km/h | 28977m | -26.1m/s | -45.0°C | 0.7% | 14.6hPa | 2.6V | 00:00:00 | 00:00:00 | 00:00:00 | |
| DL1XH1-15 | 2026-09-04 06:48:58 | 49.41818 | 8.66986 | 134° | 37km/h | 29105m | -27.6m/s | -44.8°C | 2.8% | 14.3hPa | 2.6V | 08:28:29 | 02:18:06 | 00:00:00 | |
| BIOWL1-15 | 2026-09-04 06:48:54 | 49.41818 | 8.66986 | 134° | 37km/h | 29105m | -27.6m/s | -44.8°C | 0% | 14.3hPa | 2.6V | 08:28:53 | 02:18:06 | 00:00:00 | |
| DM0DOS-11 | 2026-09-04 06:48:53 | 49.41820 | 8.66933 | 52° | 40km/h | 29211m | -27.1m/s | -44.7°C | 2.8% | 14hPa | 2.7V | 08:28:33 | 02:18:02 | 00:00:00 | |
| HSKMA3-T | 2026-09-04 06:48:53 | 49.41824 | 8.66974 | 113° | 38km/h | 29131m | -26.8m/s | -44.8°C | 0% | 14.2hPa | 2.6V | 08:28:53 | 02:18:05 | 00:00:00 | |
| AA1-15 | 2026-09-04 06:48:52 | 49.41826 | 8.66960 | 92° | 40km/h | 29157m | -27m/s | -44.8°C | 0% | 14.1hPa | 2.7V | 08:28:53 | 02:18:04 | 00:00:00 | |
| DL1XH-west | 2026-09-04 06:48:51 | 49.41824 | 8.66946 | 72° | 40km/h | 29184m | -27m/s | -44.8°C | 0% | 14.1hPa | 2.7V | 08:28:53 | 02:18:03 | 00:00:00 | |
| DF1GD-15 | 2026-09-04 06:48:50 | 49.41824 | 8.66946 | 73° | 40km/h | 29185m | -27.0m/s | -44.8°C | 0.7% | 14.1hPa | 2.6V | 08:28:00 | 00:00:00 | 00:00:00 | |
| DN1GJH-1 | 2026-09-04 06:48:49 | 49.41820 | 8.66933 | 53° | 40km/h | 29211m | -27.1m/s | -44.7°C | 0.7% | 14.0hPa | 2.6V | 08:28:00 | 00:00:00 | 00:00:00 | |
| DL1XH1-15 | 2026-09-04 06:48:48 | 49.41782 | 8.66945 | 269° | 31km/h | 29374m | -27.6m/s | -45°C | 2.8% | 13.7hPa | 2.6V | 08:28:39 | 02:17:56 | 00:00:00 | |
| DL1ZP-14 | 2026-09-04 06:48:47 | 49.41796 | 8.66919 | 347° | 35km/h | 29293m | -28.4m/s | -44.9°C | 0.7% | 13.9hPa | 2.7V | 00:00:00 | 00:00:00 | 00:00:00 | |
| BIOWL1-15 | 2026-09-04 06:48:44 | 49.41782 | 8.66945 | 270° | 31km/h | 29374m | -27.6m/s | -45°C | 0% | 13.7hPa | 2.6V | 08:28:53 | 02:17:56 | 00:00:00 | |
| HSKMA3-T | 2026-09-04 06:48:43 | 49.41784 | 8.66956 | 242° | 31km/h | 29401m | -27.4m/s | -45°C | 0% | 13.7hPa | 2.6V | 08:28:53 | 02:17:55 | 00:00:00 | |
| AA1-15 | 2026-09-04 06:48:42 | 49.41789 | 8.66965 | 214° | 35km/h | 29428m | -27.8m/s | -44.9°C | 0% | 13.6hPa | 2.6V | 08:28:53 | 02:17:54 | 00:00:00 | |
| DM0DOS-11 | 2026-09-04 06:48:41 | 49.41807 | 8.66969 | 169° | 40km/h | 29483m | -27.7m/s | -44.7°C | 2.9% | 13.5hPa | 2.7V | 08:28:43 | 02:17:52 | 00:00:00 | |
| DL1XH-west | 2026-09-04 06:48:41 | 49.41797 | 8.66970 | 190° | 37km/h | 29456m | -27.6m/s | -44.8°C | 0% | 13.5hPa | 2.7V | 08:28:53 | 02:17:53 | 00:00:00 | |
| BIOWL1-15 | 2026-09-04 06:48:34 | 49.41830 | 8.66893 | 58° | 38km/h | 29649m | -28.4m/s | -44.2°C | 0% | 13.2hPa | 2.7V | 08:28:53 | 02:17:46 | 00:00:00 | |
| HSKMA3-T | 2026-09-04 06:48:32 | 49.41817 | 8.66878 | 11° | 31km/h | 29705m | -28.5m/s | -44.3°C | 0% | 13hPa | 2.5V | 08:28:53 | 02:17:44 | 00:00:00 | |
| DL1XH-west | 2026-09-04 06:48:30 | 49.41804 | 8.66883 | 305° | 24km/h | 29761m | -27.8m/s | -44.3°C | 0% | 12.9hPa | 2.7V | 08:28:53 | 02:17:42 | 00:00:00 | |
| DM0DOS-11 | 2026-09-04 06:48:29 | 49.41804 | 8.66901 | 237° | 31km/h | 29816m | -28m/s | -44.2°C | 2.7% | 12.8hPa | 2.7V | 08:30:00 | 02:17:40 | 00:00:00 | |
| DD1CC8 | 2026-09-04 06:48:28 | 49.41804 | 8.66901 | 237° | 31km/h | 29817m | -28.0m/s | -44.2°C | 0.7% | 12.8hPa | 2.7V | 00:00:00 | 00:00:00 | 00:00:00 | |
| EDDB2-11 | 2026-09-04 06:48:27 | 49.41819 | 8.66916 | 194° | 42km/h | 29873m | -28.3m/s | -44.1°C | 0.6% | 12.7hPa | 2.7V | 00:00:00 | 00:00:00 | 00:00:00 | |
| DL4BBY-15 | 2026-09-04 06:48:26 | 49.41818 | 8.66916 | 195° | 37km/h | 29873m | -28.2m/s | -46.2°C | 0% | 0hPa | 2.7V | 00:00:00 | 00:00:00 | 00:00:00 | |
| DO3MHA-11 | 2026-09-04 06:48:25 | 49.41830 | 8.66917 | 178° | 42km/h | 29901m | -28.2m/s | -44.0°C | 2.8% | 12.6hPa | 2.7V | 00:00:00 | 02:17:37 | 00:00:00 | |
| BIOWL1-15 | 2026-09-04 06:48:25 | 49.41854 | 8.66904 | 143° | 53km/h | 29958m | -28.4m/s | -44.1°C | 0% | 12.5hPa | 2.7V | 08:29:44 | 02:17:35 | 00:00:00 | |
| DL0LBS | 2026-09-04 06:48:24 | 49.41830 | 8.66917 | 178° | 49km/h | 29901m | -28.2m/s | -44.1°C | 0.7% | 12.7hPa | 2.7V | 08:29:00 | 00:00:00 | 00:00:00 | |
| DM0DOS-11 | 2026-09-04 06:48:23 | 49.41858 | 8.66822 | 22° | 27km/h | 30127m | -29m/s | -43.5°C | 2.7% | 12.2hPa | 2.7V | 08:30:00 | 02:17:29 | 00:00:00 | |
| HSKMA3-T | 2026-09-04 06:48:22 | 49.41863 | 8.66890 | 125° | 51km/h | 29986m | -28.2m/s | -43.9°C | 0% | 12.5hPa | 2.5V | 08:29:44 | 02:17:34 | 00:00:00 | |
| CB1BUN | 2026-09-04 06:48:21 | 49.41868 | 8.66873 | 108° | 47km/h | 30015m | -27.9m/s | -43.7°C | 0.7% | 12.4hPa | 2.7V | 08:29:00 | 00:00:00 | 00:00:00 | |
| NBG1-10 | 2026-09-04 06:48:20 | 49.41870 | 8.66856 | 90° | 37km/h | 30042m | -27.8m/s | -43.6°C | 2.7% | 12.3hPa | 2.7V | 00:00:00 | 02:17:32 | 00:00:00 | |
| DL1XH1-15 | 2026-09-04 06:48:19 | 49.41845 | 8.66831 | 276° | 22km/h | 30213m | -29.3m/s | -43.4°C | 2.7% | 12.1hPa | 2.7V | 08:29:09 | 02:17:26 | 00:00:00 | |
| DL1XH-west | 2026-09-04 06:48:19 | 49.41869 | 8.66841 | 70° | 38km/h | 30070m | -28.1m/s | -43.6°C | 0% | 12.3hPa | 2.7V | 08:29:44 | 02:17:31 | 00:00:00 | |
| BIOWL1-15 | 2026-09-04 06:48:12 | 49.41850 | 8.66848 | 219° | 31km/h | 30271m | -29.3m/s | -43.3°C | 0% | 12hPa | 2.7V | 08:29:44 | 02:17:24 | 00:00:00 | |
| HSKMA3-T | 2026-09-04 06:48:11 | 49.41857 | 8.66853 | 198° | 37km/h | 30300m | -29.4m/s | -43.3°C | 0% | 11.9hPa | 2.5V | 08:29:44 | 02:17:23 | 00:00:00 | |
| DL8DAS-14 | 2026-09-04 06:48:10 | 49.41867 | 8.66856 | 177° | 38km/h | 30329m | -29.4m/s | -43.4°C | 0.6% | 11.8hPa | 2.6V | 00:00:00 | 00:00:00 | 00:00:00 | |
| DL1XH1-15 | 2026-09-04 06:48:09 | 49.41902 | 8.66778 | 76° | 44km/h | 30507m | -30m/s | -42.9°C | 2.7% | 11.5hPa | 2.6V | 08:29:19 | 02:17:16 | 00:00:00 | |
| AA1-15 | 2026-09-04 06:48:09 | 49.41877 | 8.66853 | 158° | 44km/h | 30358m | -29.8m/s | -43.4°C | 0% | 11.8hPa | 2.6V | 08:29:44 | 02:17:21 | 00:00:00 | |
| DL1XH-west | 2026-09-04 06:48:08 | 49.41887 | 8.66844 | 140° | 49km/h | 30387m | -30.1m/s | -43.4°C | 0% | 11.8hPa | 2.7V | 08:29:44 | 02:17:20 | 00:00:00 | |
| BIOWL1-15 | 2026-09-04 06:48:02 | 49.41894 | 8.66753 | 41° | 33km/h | 30568m | -29.6m/s | -42.6°C | 0% | 11.4hPa | 2.7V | 08:29:44 | 02:17:14 | 00:00:00 | |
| HSKMA3-T | 2026-09-04 06:48:00 | 49.41882 | 8.66747 | 341° | 18km/h | 30626m | -29.3m/s | -42.3°C | 0% | 11.3hPa | 2.5V | 08:29:44 | 02:17:12 | 00:00:00 | |
| DL1XH1-15 | 2026-09-04 06:47:59 | 49.41912 | 8.66784 | 173° | 51km/h | 30802m | -29.9m/s | -41.7°C | 2.5% | 11hPa | 2.6V | 08:29:29 | 02:17:06 | 00:00:00 | |
| AA1-15 | 2026-09-04 06:47:58 | 49.41879 | 8.66760 | 250° | 27km/h | 30684m | -29.5m/s | -41.9°C | 0% | 11.2hPa | 2.6V | 08:29:44 | 02:17:10 | 00:00:00 | |
| DL1XH-west | 2026-09-04 06:47:57 | 49.41882 | 8.66769 | 228° | 33km/h | 30713m | -29.1m/s | -41.7°C | 0% | 11.2hPa | 2.7V | 08:29:44 | 02:17:09 | 00:00:00 | |
| BIOWL1-15 | 2026-09-04 06:47:51 | 49.41942 | 8.66755 | 121° | 47km/h | 30894m | -31m/s | -41.7°C | 0% | 10.9hPa | 2.7V | 08:29:44 | 02:17:03 | 00:00:00 | |
| HSKMA3-T | 2026-09-04 06:47:50 | 49.41947 | 8.66738 | 105° | 46km/h | 30925m | -30.4m/s | -41.7°C | 0% | 10.9hPa | 2.7V | 08:29:44 | 02:17:02 | 00:00:00 | |
| AA1-15 | 2026-09-04 06:47:47 | 49.41942 | 8.66695 | 42° | 35km/h | 31015m | -29.6m/s | -41.7°C | 0% | 10.7hPa | 2.5V | 08:29:44 | 02:16:59 | 00:00:00 | |
| NBG1-10 | 2026-09-04 06:47:47 | 49.41942 | 8.66695 | 43° | 24km/h | 31015m | -29.5m/s | -41.6°C | 2.5% | 10.6hPa | 2.5V | 00:00:00 | 02:16:59 | 00:00:00 | |
| DL1XH1-15 | 2026-09-04 06:47:46 | 49.41921 | 8.66691 | 324° | 26km/h | 31104m | -30.9m/s | -41.6°C | 2.5% | 10.6hPa | 2.7V | 08:29:39 | 02:16:56 | 00:00:00 | |
| DL1XH-west | 2026-09-04 06:47:46 | 49.41935 | 8.66689 | 18° | 33km/h | 31044m | -29.7m/s | -41.6°C | 0% | 10.7hPa | 2.7V | 08:29:44 | 02:16:58 | 00:00:00 | |
| DF8AY | 2026-09-04 06:47:45 | 49.41927 | 8.66687 | 353° | 29km/h | 31074m | -30.4m/s | 0°C | 0% | 0hPa | 2.7V | 18:12:15 | 02:16:57 | 00:00:00 | |
| BIOWL1-15 | 2026-09-04 06:47:42 | 49.41927 | 8.66720 | 195° | 37km/h | 31224m | -30.6m/s | -41°C | 0% | 10.4hPa | 2.7V | 08:29:44 | 02:16:52 | 00:00:00 | |
| DL1XH-west | 2026-09-04 06:47:36 | 49.41972 | 8.66704 | 150° | 55km/h | 31349m | -31.5m/s | -40.6°C | 0% | 10.2hPa | 2.7V | 18:12:15 | 02:16:48 | 00:00:00 | |
| DL1XH1-15 | 2026-09-04 06:47:35 | 49.41993 | 8.66678 | 133° | 49km/h | 31412m | -32.3m/s | -40.5°C | 2.4% | 10.1hPa | 2.5V | 08:30:00 | 02:16:46 | 00:00:00 | |
| DJ2KF-10 | 2026-09-04 06:47:35 | 49.41983 | 8.66692 | 141° | 22km/h | 31381m | -31.8m/s | -40.5°C | 2.4% | 10.1hPa | 2.7V | 00:00:00 | 02:16:47 | 08:30:00 | |
| DL8DAS-15 | 2026-09-04 06:47:34 | 49.41983 | 8.66692 | 142° | 55km/h | 31381m | -31.8m/s | -40.6°C | 0.6% | 10.1hPa | 2.7V | 00:00:00 | 00:00:00 | 00:00:00 | |
| SONCRA | 2026-09-04 06:47:33 | 49.42001 | 8.66664 | 125° | 42km/h | 31444m | -31.9m/s | -40.5°C | 0.6% | 10.0hPa | 2.7V | 00:00:00 | 00:00:00 | 00:00:00 | |
| DG9SBQ-11 | 2026-09-04 06:47:32 | 49.42001 | 8.66664 | 126° | 42km/h | 31444m | -31.9m/s | -40.5°C | 0.6% | 10.0hPa | 2.7V | 00:00:00 | 00:00:00 | 00:00:00 | |
| DL1XH-15 | 2026-09-04 06:47:30 | 49.41989 | 8.66586 | 36° | 29km/h | 31689m | -31.8m/s | 0°C | 0% | 0hPa | 2.7V | 00:00:00 | 02:16:37 | 00:00:00 | |
| BIOWL1-15 | 2026-09-04 06:47:30 | 49.42009 | 8.66627 | 81° | 29km/h | 31535m | -29.9m/s | -40°C | 0% | 9.9hPa | 2.7V | 18:12:15 | 02:16:42 | 00:00:00 | |
| DL1XH-west | 2026-09-04 06:47:26 | 49.41995 | 8.66592 | 42° | 27km/h | 31657m | -31.5m/s | -39.7°C | 0% | 9.7hPa | 2.7V | 18:12:15 | 02:16:38 | 00:00:00 | |
| BIOWL1-15 | 2026-09-04 06:47:20 | 49.41975 | 8.66560 | 123° | 7km/h | 31848m | -31.9m/s | -39.5°C | 0% | 9.4hPa | 2.7V | 18:12:15 | 02:16:32 | 00:00:00 | |
| DO1YAY-16 | 2026-09-04 06:47:18 | 49.41984 | 8.66555 | 180° | 13km/h | 31946m | -34.6m/s | -39.5°C | 0.5% | 9.3hPa | 2.6V | 00:00:00 | 00:00:00 | 00:00:00 | |
| DL1XH-15 | 2026-09-04 06:47:17 | 49.41988 | 8.66558 | 10° | 15km/h | 32118m | -32.3m/s | 0°C | 0% | 0hPa | 2.6V | 00:00:00 | 02:16:24 | 00:00:00 | |
| DL1XH-west | 2026-09-04 06:47:15 | 49.41990 | 8.66556 | 209° | 7km/h | 32016m | -35.1m/s | -39.6°C | 0% | 9.2hPa | 2.7V | 18:12:15 | 02:16:27 | 00:00:00 | |
| BIOWL1-15 | 2026-09-04 06:47:13 | 49.41971 | 8.66550 | 28° | 27km/h | 32216m | -36m/s | -39.8°C | 0% | 8.9hPa | 2.7V | 18:12:15 | 02:16:21 | 00:00:00 | |
| KANTATE | 2026-09-04 06:47:12 | 49.41990 | 8.66558 | 347° | 9km/h | 32085m | -33.8m/s | -39.8°C | 0.5% | 9.1hPa | 2.7V | 00:00:00 | 00:00:00 | 00:00:00 | |
| DM0DOS-11 | 2026-09-04 06:47:11 | 49.41965 | 8.66545 | 32° | 22km/h | 32253m | -37.4m/s | -39.9°C | 2.3% | 8.9hPa | 2.7V | 08:30:00 | 02:16:20 | 00:00:00 | |
| DG1MJG | 2026-09-04 06:47:10 | 49.41983 | 8.66557 | 10° | 20km/h | 32150m | -31.8m/s | -39.8°C | 0.5% | 9.0hPa | 2.7V | 00:00:00 | 00:00:00 | 00:00:00 | |
| SONDE2-11 | 2026-09-04 06:47:09 | 49.41971 | 8.66550 | 27° | 27km/h | 32216m | -36.0m/s | -39.8°C | 0.5% | 8.9hPa | 2.7V | 00:00:00 | 00:00:00 | 00:00:00 | |
| DB0NH | 2026-09-04 06:47:08 | 49.41966 | 8.66545 | 33° | 24km/h | 32253m | -37.4m/s | -39.8°C | 2.3% | 8.8hPa | 2.7V | 00:00:00 | 02:16:20 | 00:00:00 | |
| DL1XH-15 | 2026-09-04 06:47:07 | 49.41978 | 8.66564 | 244° | 33km/h | 32475m | -43.6m/s | 0°C | 0% | 0hPa | 2.6V | 00:00:00 | 02:16:14 | 00:00:00 | |
| HSKMA3-T | 2026-09-04 06:47:05 | 49.41963 | 8.66541 | 210° | 16km/h | 32363m | -37.1m/s | -40°C | 0% | 8.7hPa | 2.6V | 18:12:15 | 02:16:17 | 00:00:00 | |
| DL1XH-west | 2026-09-04 06:47:04 | 49.41968 | 8.66545 | 217° | 26km/h | 32399m | -34.8m/s | -39.9°C | 0% | 8.7hPa | 2.7V | 18:12:15 | 02:16:16 | 00:00:00 | |
| BIOWL1-15 | 2026-09-04 06:47:01 | 49.41971 | 8.66589 | 320° | 27km/h | 32618m | -44.3m/s | -39.9°C | 0% | 8.5hPa | 2.7V | 18:12:15 | 02:16:11 | 00:00:00 | |
| SFWM-10 | 2026-09-04 06:47:00 | 49.41978 | 8.66574 | 289° | 24km/h | 32522m | -50.1m/s | -39.6°C | 0.5% | 8.6hPa | 2.6V | 00:00:00 | 00:00:00 | 00:00:00 | |
| DG9SBQ-11 | 2026-09-04 06:46:59 | 49.41975 | 8.66582 | 312° | 26km/h | 32572m | -49.4m/s | -39.8°C | 0.5% | 8.5hPa | 2.6V | 00:00:00 | 00:00:00 | 00:00:00 | |
| CB1BUN | 2026-09-04 06:46:58 | 49.41971 | 8.66589 | 321° | 27km/h | 32618m | -44.3m/s | -39.9°C | 0.5% | 8.5hPa | 2.6V | 00:00:00 | 00:00:00 | 00:00:00 | |
| OE5DRO-10 | 2026-09-04 06:46:57 | 49.41957 | 8.66601 | 335° | 29km/h | 32694m | -31.4m/s | -39.7°C | 2.2% | 8.3hPa | 2.6V | 00:00:00 | 00:00:00 | 00:00:00 | |
| DK5PH-5 | 2026-09-04 06:46:56 | 49.41949 | 8.66606 | 339° | 24km/h | 32721m | -23.7m/s | -39.7°C | 2.2% | 8.2hPa | 2.6V | 00:00:00 | 02:16:08 | 00:00:00 | |
| DL1XH-15 | 2026-09-04 06:46:55 | 49.41908 | 8.66633 | 253° | 5km/h | 32739m | 6.9m/s | 0°C | 0% | 0hPa | 2.6V | 00:00:00 | 02:16:02 | 00:00:00 | |
| HSKMA3-T | 2026-09-04 06:46:55 | 49.41940 | 8.66612 | 340° | 38km/h | 32740m | -14.8m/s | -39.7°C | 0% | 8.2hPa | 2.6V | 18:12:15 | 02:16:07 | 00:00:00 | |
| DL1XH-west | 2026-09-04 06:46:54 | 49.41931 | 8.66617 | 341° | 38km/h | 32750m | -7.4m/s | -39.8°C | 0% | 8.2hPa | 2.7V | 18:12:15 | 02:16:06 | 00:00:00 | |
| BIOWL1-15 | 2026-09-04 06:46:49 | 49.41910 | 8.66634 | 179° | 15km/h | 32732m | 7.6m/s | -39.8°C | 0% | 8.2hPa | 2.7V | 18:12:15 | 02:16:01 | 00:00:00 | |
| DF7PN | 2026-09-04 06:46:49 | 49.41910 | 8.66634 | 178° | 15km/h | 32732m | 7.6m/s | -39.8°C | 0.5% | 8.2hPa | 2.6V | 00:00:00 | 00:00:00 | 00:00:00 | |
| DM7RM-13 | 2026-09-04 06:46:48 | 49.41910 | 8.66634 | 180° | 15km/h | 32732m | 7.6m/s | -39.8°C | 0.5% | 8.2hPa | 2.6V | 00:00:00 | 00:00:00 | 00:00:00 | |
| DL1XH1-15 | 2026-09-04 06:46:47 | 49.41935 | 8.66614 | 93° | 11km/h | 32706m | 5.2m/s | -40.1°C | 2.2% | 8.2hPa | 2.6V | 08:30:00 | 02:15:56 | 00:00:00 | |
| DO1YAY-16 | 2026-09-04 06:46:47 | 49.41928 | 8.66624 | 149° | 26km/h | 32716m | 3.9m/s | -40.0°C | 0.5% | 8.2hPa | 2.6V | 00:00:00 | 00:00:00 | 00:00:00 | |
| HSKMA3-T | 2026-09-04 06:46:44 | 49.41935 | 8.66614 | 94° | 11km/h | 32706m | 5.2m/s | -40.1°C | 0% | 8.2hPa | 2.6V | 18:12:15 | 02:15:56 | 00:00:00 | |
| BIOWL1-15 | 2026-09-04 06:46:43 | 49.41910 | 8.66621 | 326° | 27km/h | 32677m | 4.5m/s | -40.2°C | 0% | 8.3hPa | 2.6V | 18:12:15 | 02:15:51 | 00:00:00 | |
| DL1XH-west | 2026-09-04 06:46:43 | 49.41933 | 8.66611 | 27° | 13km/h | 32701m | 5.9m/s | -40°C | 0% | 8.3hPa | 2.7V | 18:12:15 | 02:15:55 | 00:00:00 | |
| DL1ZP-14 | 2026-09-04 06:46:43 | 49.41929 | 8.66610 | 356° | 20km/h | 32695m | 6.1m/s | -40.0°C | 0.5% | 8.3hPa | 2.7V | 00:00:00 | 00:00:00 | 00:00:00 | |
| AU51GT2 | 2026-09-04 06:46:42 | 49.41929 | 8.66610 | 356° | 20km/h | 32695m | 6.1m/s | -40.0°C | 0.5% | 8.3hPa | 2.7V | 00:00:00 | 00:00:00 | 00:00:00 | |
| DL0LBS | 2026-09-04 06:46:41 | 49.41929 | 8.66610 | 358° | 20km/h | 32695m | 6.1m/s | -40.0°C | 0.5% | 8.3hPa | 2.7V | 00:00:00 | 00:00:00 | 00:00:00 | |
| SFWM-10 | 2026-09-04 06:46:40 | 49.41923 | 8.66612 | 345° | 27km/h | 32689m | 6.4m/s | -40.0°C | 0.5% | 8.3hPa | 2.7V | 00:00:00 | 00:00:00 | 00:00:00 | |
| DG1MJG | 2026-09-04 06:46:39 | 49.41917 | 8.66616 | 335° | 29km/h | 32683m | 6.1m/s | -40.1°C | 0.5% | 8.3hPa | 2.7V | 00:00:00 | 00:00:00 | 00:00:00 | |
| DL1XH1-15 | 2026-09-04 06:46:38 | 49.41904 | 8.66628 | 128° | 20km/h | 32652m | 6.7m/s | -40.3°C | 2.3% | 8.3hPa | 2.7V | 08:30:00 | 02:15:46 | 00:00:00 | |
| DL1XH-west | 2026-09-04 06:46:33 | 49.41907 | 8.66621 | 127° | 27km/h | 32646m | 5.8m/s | -40.3°C | 0% | 8.3hPa | 2.7V | 18:12:15 | 02:15:45 | 00:00:00 | |
| DB0ND-19 | 2026-09-04 06:46:33 | 49.41912 | 8.66612 | 129° | 31km/h | 32641m | 4.4m/s | -40.2°C | 0.5% | 8.3hPa | 2.6V | 00:00:00 | 00:00:00 | 00:00:00 | |
| DL3AQ-11 | 2026-09-04 06:46:32 | 49.41917 | 8.66603 | 134° | 29km/h | 32637m | 3.7m/s | -40.1°C | 0.6% | 8.3hPa | 2.6V | 00:00:00 | 00:00:00 | 00:00:00 | |
| HEMX73-11 | 2026-09-04 06:46:30 | 49.41917 | 8.66603 | 135° | 31km/h | 32637m | 3.7m/s | -40.1°C | 0.6% | 8.3hPa | 2.6V | 00:00:00 | 00:00:00 | 00:00:00 | |
| DL1XH1-15 | 2026-09-04 06:46:29 | 49.41931 | 8.66607 | 331° | 20km/h | 32600m | 5.1m/s | -40.2°C | 2.3% | 8.4hPa | 2.6V | 08:30:00 | 02:15:36 | 00:00:00 | |
| BIOWL1-15 | 2026-09-04 06:46:28 | 49.41932 | 8.66590 | 185° | 15km/h | 32622m | 6m/s | -40.2°C | 0% | 8.3hPa | 2.7V | 18:12:15 | 02:15:40 | 00:00:00 | |
| AA1-15 | 2026-09-04 06:46:23 | 49.41926 | 8.66609 | 357° | 22km/h | 32595m | 5.3m/s | -40.2°C | 0% | 8.4hPa | 2.7V | 18:12:15 | 02:15:35 | 00:00:00 | |
| DL1XH-west | 2026-09-04 06:46:22 | 49.41920 | 8.66607 | 22° | 24km/h | 32590m | 5.1m/s | -40.3°C | 0% | 8.4hPa | 2.7V | 18:12:15 | 02:15:34 | 00:00:00 | |
| BIOWL1-15 | 2026-09-04 06:46:20 | 49.41914 | 8.66577 | 125° | 22km/h | 32571m | 4.7m/s | -40.2°C | 0% | 8.4hPa | 2.6V | 18:12:15 | 02:15:30 | 00:00:00 | |
| DL1XH1-15 | 2026-09-04 06:46:19 | 49.41930 | 8.66581 | 254° | 22km/h | 32551m | 4.6m/s | -40°C | 2.2% | 8.4hPa | 2.6V | 08:30:00 | 02:15:26 | 00:00:00 | |
| AA1-15 | 2026-09-04 06:46:13 | 49.41930 | 8.66590 | 285° | 26km/h | 32546m | 4.6m/s | -40°C | 0% | 8.5hPa | 2.6V | 18:12:15 | 02:15:25 | 00:00:00 | |
| DL1XH-west | 2026-09-04 06:46:11 | 49.41921 | 8.66604 | 339° | 29km/h | 32536m | 5.5m/s | -40.1°C | 0% | 8.4hPa | 2.7V | 18:12:15 | 02:15:23 | 00:00:00 | |
| DL1XH1-15 | 2026-09-04 06:46:09 | 49.41890 | 8.66563 | 144° | 11km/h | 32501m | 5.5m/s | -40.1°C | 2.3% | 8.5hPa | 2.6V | 08:30:00 | 02:15:16 | 00:00:00 | |
| BIOWL1-15 | 2026-09-04 06:46:07 | 49.41892 | 8.66586 | 59° | 31km/h | 32515m | 4.3m/s | -40.1°C | 0% | 8.5hPa | 2.7V | 18:12:15 | 02:15:19 | 00:00:00 | |
| AA1-15 | 2026-09-04 06:46:02 | 49.41895 | 8.66567 | 245° | 18km/h | 32489m | 5.9m/s | -40°C | 0% | 8.5hPa | 2.7V | 18:12:15 | 02:15:14 | 00:00:00 | |
| DL1XH-west | 2026-09-04 06:46:01 | 49.41897 | 8.66575 | 267° | 26km/h | 32483m | 5.5m/s | -40°C | 0% | 8.5hPa | 2.7V | 18:12:15 | 02:15:13 | 00:00:00 | |
| BIOWL1-15 | 2026-09-04 06:45:56 | 49.41876 | 8.66608 | 10° | 26km/h | 32456m | 6.4m/s | -40.1°C | 0% | 8.6hPa | 2.7V | 18:12:15 | 02:15:08 | 00:00:00 | |
| HSKMA3-T | 2026-09-04 06:45:51 | 49.41855 | 8.66582 | 33° | 9km/h | 32429m | 5.6m/s | -40.1°C | 0% | 8.6hPa | 2.7V | 18:12:15 | 02:15:03 | 00:00:00 | |
| DL1XH-west | 2026-09-04 06:45:50 | 49.41853 | 8.66582 | 327° | 7km/h | 32424m | 5.9m/s | -40.2°C | 0% | 8.6hPa | 2.7V | 18:12:15 | 02:15:02 | 00:00:00 | |
| BIOWL1-15 | 2026-09-04 06:45:45 | 49.41850 | 8.66610 | 278° | 13km/h | 32396m | 5.4m/s | -40.1°C | 0% | 8.7hPa | 2.7V | 18:12:15 | 02:14:57 | 00:00:00 | |
| AA1-15 | 2026-09-04 06:45:41 | 49.41842 | 8.66618 | 357° | 16km/h | 32374m | 6.4m/s | -40.2°C | 0% | 8.7hPa | 2.7V | 18:12:15 | 02:14:53 | 00:00:00 | |
| HSKMA3-T | 2026-09-04 06:45:40 | 49.41837 | 8.66619 | 359° | 22km/h | 32368m | 6.3m/s | -40.2°C | 0% | 8.7hPa | 2.7V | 18:12:15 | 02:14:52 | 00:00:00 | |
| DL1XH-west | 2026-09-04 06:45:39 | 49.41831 | 8.66619 | 1° | 24km/h | 32362m | 5.4m/s | -40.1°C | 0% | 8.7hPa | 2.6V | 18:12:15 | 02:14:51 | 00:00:00 | |
| BIOWL1-15 | 2026-09-04 06:45:37 | 49.41809 | 8.66612 | 28° | 16km/h | 32341m | 5.8m/s | -40.1°C | 0% | 8.7hPa | 2.7V | 18:12:15 | 02:14:47 | 00:00:00 | |
| AA1-15 | 2026-09-04 06:45:30 | 49.41803 | 8.66618 | 268° | 20km/h | 32312m | 7m/s | -40.1°C | 0% | 8.8hPa | 2.7V | 18:12:15 | 02:14:42 | 00:00:00 | |
| DL1XH-west | 2026-09-04 06:45:29 | 49.41803 | 8.66627 | 271° | 26km/h | 32306m | 5.7m/s | -40°C | 0% | 8.8hPa | 2.6V | 18:12:15 | 02:14:41 | 00:00:00 | |
| BIOWL1-15 | 2026-09-04 06:45:24 | 49.41800 | 8.66652 | 66° | 11km/h | 32279m | 6.8m/s | -39.9°C | 0% | 8.8hPa | 2.6V | 18:12:15 | 02:14:36 | 00:00:00 | |
| AA1-15 | 2026-09-04 06:45:19 | 49.41788 | 8.66624 | 16° | 11km/h | 32251m | 5.4m/s | -39.8°C | 0% | 8.8hPa | 2.7V | 18:12:15 | 02:14:31 | 00:00:00 | |
| DL1XH-west | 2026-09-04 06:45:18 | 49.41786 | 8.66624 | 325° | 9km/h | 32245m | 5.5m/s | -39.8°C | 0% | 8.8hPa | 2.6V | 18:12:15 | 02:14:30 | 00:00:00 | |
| BIOWL1-15 | 2026-09-04 06:45:16 | 49.41788 | 8.66641 | 225° | 13km/h | 32221m | 5.8m/s | -39.8°C | 0% | 8.9hPa | 2.6V | 18:12:15 | 02:14:26 | 00:00:00 | |
| DF7PN | 2026-09-04 06:45:16 | 49.41786 | 8.66637 | 241° | 13km/h | 32228m | 6.7m/s | -39.8°C | 0.5% | 8.9hPa | 2.7V | 00:00:00 | 00:00:00 | 00:00:00 | |
| DO3MHA-11 | 2026-09-04 06:45:15 | 49.41786 | 8.66636 | 242° | 13km/h | 32228m | 6.6m/s | -39.7°C | 2.2% | 8.8hPa | 2.7V | 00:00:00 | 02:14:27 | 00:00:00 | |
| DG9SBQ-11 | 2026-09-04 06:45:13 | 49.41788 | 8.66641 | 226° | 13km/h | 32222m | 5.8m/s | -39.8°C | 0.5% | 8.9hPa | 2.7V | 00:00:00 | 00:00:00 | 00:00:00 | |
| EDDB2-12 | 2026-09-04 06:45:11 | 49.41791 | 8.66642 | 32° | 7km/h | 32201m | 6.2m/s | -39.7°C | 0.5% | 8.9hPa | 2.7V | 00:00:00 | 00:00:00 | 00:00:00 | |
| DL1XH1-15 | 2026-09-04 06:45:09 | 49.41774 | 8.66624 | 100° | 11km/h | 32167m | 7m/s | -39.8°C | 2.3% | 8.9hPa | 2.7V | 08:30:00 | 02:14:16 | 00:00:00 | |
| AA1-15 | 2026-09-04 06:45:09 | 49.41789 | 8.66640 | 22° | 15km/h | 32194m | 6.2m/s | -39.8°C | 0% | 8.9hPa | 2.6V | 18:12:15 | 02:14:21 | 00:00:00 | |
| HSKMA3-T | 2026-09-04 06:45:08 | 49.41785 | 8.66638 | 19° | 18km/h | 32188m | 5.7m/s | -39.8°C | 0% | 8.9hPa | 2.6V | 18:12:15 | 02:14:20 | 00:00:00 | |
| DL1XH-west | 2026-09-04 06:45:07 | 49.41780 | 8.66635 | 24° | 18km/h | 32183m | 4.6m/s | -39.7°C | 0% | 8.9hPa | 2.6V | 18:12:15 | 02:14:19 | 00:00:00 | |
| BIOWL1-15 | 2026-09-04 06:45:03 | 49.41775 | 8.66620 | 134° | 15km/h | 32160m | 6.4m/s | -39.7°C | 0% | 9hPa | 2.6V | 18:12:15 | 02:14:15 | 00:00:00 | |
| DB0UT-9 | 2026-09-04 06:45:02 | 49.41775 | 8.66619 | 135° | 15km/h | 32161m | 6.4m/s | -39.7°C | 0.6% | 9.0hPa | 2.6V | 00:00:00 | 00:00:00 | 00:00:00 | |
| DL6DJ-15 | 2026-09-04 06:45:01 | 49.41786 | 8.66611 | 165° | 13km/h | 32144m | 6.2m/s | -39.8°C | 0.5% | 9.0hPa | 2.6V | 00:00:00 | 00:00:00 | 00:00:00 | |
| DF3TZ-5 | 2026-09-04 06:45:00 | 49.41788 | 8.66610 | 172° | 5km/h | 32138m | 6.3m/s | -39.7°C | 0.5% | 9.0hPa | 2.6V | 00:00:00 | 00:00:00 | 00:00:00 | |
| DL1XH1-15 | 2026-09-04 06:44:59 | 49.41780 | 8.66604 | 46° | 15km/h | 32109m | 6.3m/s | -39.6°C | 2.3% | 9hPa | 2.6V | 08:30:00 | 02:14:06 | 00:00:00 | |
| AA1-15 | 2026-09-04 06:44:59 | 49.41788 | 8.66610 | 173° | 5km/h | 32138m | 6.3m/s | -39.7°C | 0% | 9hPa | 2.6V | 18:12:15 | 02:14:11 | 00:00:00 | |
| HSKMA3-T | 2026-09-04 06:44:57 | 49.41788 | 8.66610 | 8° | 7km/h | 32126m | 5.5m/s | -39.8°C | 0% | 9hPa | 2.7V | 18:12:15 | 02:14:09 | 00:00:00 | |
| DL1XH-west | 2026-09-04 06:44:56 | 49.41785 | 8.66609 | 18° | 11km/h | 32120m | 5.3m/s | -39.7°C | 0% | 9hPa | 2.7V | 18:12:15 | 02:14:08 | 00:00:00 | |
| BIOWL1-15 | 2026-09-04 06:44:53 | 49.41777 | 8.66599 | 65° | 16km/h | 32102m | 6.4m/s | -39.7°C | 0% | 9hPa | 2.6V | 18:12:15 | 02:14:05 | 00:00:00 | |
| DD1CC8 | 2026-09-04 06:44:51 | 49.41775 | 8.66580 | 85° | 15km/h | 32085m | 5.2m/s | -39.5°C | 0.5% | 9.1hPa | 2.6V | 00:00:00 | 00:00:00 | 00:00:00 | |
| DG9SBQ-11 | 2026-09-04 06:44:50 | 49.41775 | 8.66586 | 87° | 16km/h | 32091m | 5.6m/s | -39.5°C | 0.5% | 9.1hPa | 2.6V | 00:00:00 | 00:00:00 | 00:00:00 | |
| DL1XH1-15 | 2026-09-04 06:44:49 | 49.41772 | 8.66566 | 116° | 5km/h | 32049m | 6.3m/s | -39.4°C | 2.2% | 9.1hPa | 2.6V | 08:30:00 | 02:13:56 | 00:00:00 | |
| DM3KS-11 | 2026-09-04 06:44:49 | 49.41773 | 8.66569 | 43° | 5km/h | 32066m | 5.9m/s | -39.3°C | 0.5% | 9.1hPa | 2.6V | 00:00:00 | 00:00:00 | 00:00:00 | |
| DM0DOS-11 | 2026-09-04 06:44:48 | 49.41772 | 8.66563 | 118° | 9km/h | 32042m | 6.5m/s | -39.4°C | 2.2% | 9.1hPa | 2.6V | 08:30:00 | 02:13:55 | 00:00:00 | |
| AA1-15 | 2026-09-04 06:44:48 | 49.41774 | 8.66571 | 62° | 9km/h | 32072m | 6.7m/s | -39.5°C | 0% | 9.1hPa | 2.6V | 18:12:15 | 02:14:00 | 00:00:00 | |
| HSKMA3-T | 2026-09-04 06:44:47 | 49.41773 | 8.66569 | 44° | 5km/h | 32066m | 5.9m/s | -39.3°C | 0% | 9.1hPa | 2.6V | 18:12:15 | 02:13:59 | 00:00:00 | |
| DL1XH-west | 2026-09-04 06:44:45 | 49.41771 | 8.66567 | 76° | 4km/h | 32055m | 5.3m/s | -39.3°C | 0% | 9.1hPa | 2.7V | 18:12:15 | 02:13:57 | 00:00:00 | |
| BIOWL1-15 | 2026-09-04 06:44:44 | 49.41774 | 8.66559 | 112° | 13km/h | 32037m | 5.7m/s | -39.4°C | 0% | 9.1hPa | 2.7V | 18:12:15 | 02:13:54 | 00:00:00 | |
| DL3AQ-11 | 2026-09-04 06:44:43 | 49.41774 | 8.66559 | 111° | 11km/h | 32037m | 5.7m/s | -39.4°C | 0.5% | 9.1hPa | 2.6V | 00:00:00 | 00:00:00 | 00:00:00 | |
| IW2NTF | 2026-09-04 06:44:42 | 49.41766 | 8.66534 | 35° | 20km/h | 32006m | 5.5m/s | -39.4°C | 0% | 9.2hPa | 2.6V | 08:30:00 | 02:13:49 | 00:00:00 | |
| DB0UT-9 | 2026-09-04 06:44:41 | 49.41773 | 8.66559 | 113° | 13km/h | 32037m | 5.7m/s | -39.4°C | 0.6% | 9.1hPa | 2.7V | 00:00:00 | 00:00:00 | 00:00:00 | |
| DL8DAS-15 | 2026-09-04 06:44:40 | 49.41774 | 8.66554 | 99° | 15km/h | 32031m | 5.4m/s | -39.3°C | 0.6% | 9.1hPa | 2.7V | 00:00:00 | 00:00:00 | 00:00:00 | |
| DL1XH1-15 | 2026-09-04 06:44:39 | 49.41757 | 8.66520 | 68° | 13km/h | 31989m | 6.4m/s | -39.2°C | 2.2% | 9.2hPa | 2.7V | 08:30:00 | 02:13:46 | 00:00:00 | |
| AA1-15 | 2026-09-04 06:44:37 | 49.41766 | 8.66534 | 35° | 20km/h | 32006m | 5.5m/s | -39.4°C | 0% | 9.2hPa | 2.6V | 18:12:15 | 02:13:49 | 00:00:00 | |
| HSKMA3-T | 2026-09-04 06:44:36 | 49.41762 | 8.66529 | 37° | 18km/h | 32001m | 4.9m/s | -39.2°C | 0% | 9.2hPa | 2.7V | 18:12:15 | 02:13:48 | 00:00:00 | |
| DL1XH-west | 2026-09-04 06:44:34 | 49.41757 | 8.66520 | 69° | 13km/h | 31989m | 6.4m/s | -39.2°C | 0% | 9.2hPa | 2.7V | 18:12:15 | 02:13:46 | 00:00:00 | |
| BIOWL1-15 | 2026-09-04 06:44:33 | 49.41760 | 8.66509 | 143° | 9km/h | 31972m | 5.1m/s | -39.2°C | 0% | 9.2hPa | 2.7V | 18:12:15 | 02:13:43 | 00:00:00 | |
| DL3AQ-11 | 2026-09-04 06:44:32 | 49.41760 | 8.66509 | 142° | 9km/h | 31972m | 5.1m/s | -39.2°C | 0.5% | 9.2hPa | 2.6V | 00:00:00 | 00:00:00 | 00:00:00 | |
| DL6DJ-15 | 2026-09-04 06:44:30 | 49.41763 | 8.66507 | 170° | 2km/h | 31960m | 6.8m/s | -39.4°C | 0.5% | 9.2hPa | 2.6V | 00:00:00 | 00:00:00 | 00:00:00 | |
| DL1XH1-15 | 2026-09-04 06:44:29 | 49.41755 | 8.66498 | 58° | 18km/h | 31930m | 6.8m/s | -39.2°C | 2.2% | 9.3hPa | 2.6V | 08:30:00 | 02:13:36 | 00:00:00 | |
| AA1-15 | 2026-09-04 06:44:27 | 49.41762 | 8.66507 | 10° | 7km/h | 31948m | 5.6m/s | -39.3°C | 0% | 9.2hPa | 2.7V | 18:12:15 | 02:13:39 | 00:00:00 | |
| HSKMA3-T | 2026-09-04 06:44:25 | 49.41757 | 8.66503 | 45° | 15km/h | 31936m | 6.6m/s | -39.2°C | 0% | 9.3hPa | 2.7V | 18:12:15 | 02:13:37 | 00:00:00 | |
| DL1XH-west | 2026-09-04 06:44:24 | 49.41755 | 8.66498 | 59° | 18km/h | 31930m | 6.8m/s | -39.2°C | 0% | 9.3hPa | 2.6V | 18:12:15 | 02:13:36 | 00:00:00 | |
| BIOWL1-15 | 2026-09-04 06:44:21 | 49.41749 | 8.66477 | 66° | 18km/h | 31913m | 4.9m/s | -39.3°C | 0% | 9.3hPa | 2.7V | 18:12:15 | 02:13:33 | 00:00:00 | |
| AA1-15 | 2026-09-04 06:44:16 | 49.41741 | 8.66474 | 270° | 11km/h | 31883m | 5.3m/s | -39.1°C | 0% | 9.3hPa | 2.7V | 18:12:15 | 02:13:28 | 00:00:00 | |
| HSKMA3-T | 2026-09-04 06:44:14 | 49.41743 | 8.66480 | 214° | 11km/h | 31871m | 6.7m/s | -39.2°C | 0% | 9.4hPa | 2.6V | 18:12:15 | 02:13:26 | 00:00:00 | |
| DL1XH-west | 2026-09-04 06:44:13 | 49.41746 | 8.66482 | 188° | 11km/h | 31864m | 6m/s | -39.2°C | 0% | 9.4hPa | 2.6V | 18:12:15 | 02:13:25 | 00:00:00 | |
| BIOWL1-15 | 2026-09-04 06:44:10 | 49.41751 | 8.66478 | 83° | 5km/h | 31848m | 6.6m/s | -39.1°C | 0% | 9.4hPa | 2.7V | 18:12:15 | 02:13:22 | 00:00:00 | |
| DL1XH1-15 | 2026-09-04 06:44:09 | 49.41735 | 8.66472 | 344° | 4km/h | 31811m | 5.9m/s | -39.1°C | 2.1% | 9.4hPa | 2.7V | 08:30:00 | 02:13:16 | 00:00:00 | |
| AA1-15 | 2026-09-04 06:44:05 | 49.41737 | 8.66472 | 6° | 11km/h | 31817m | 6.2m/s | -39.1°C | 0% | 9.5hPa | 2.7V | 18:12:15 | 02:13:17 | 00:00:00 | |
| HSKMA3-T | 2026-09-04 06:44:04 | 49.41735 | 8.66472 | 345° | 4km/h | 31811m | 5.9m/s | -39.1°C | 0% | 9.4hPa | 2.7V | 18:12:15 | 02:13:16 | 00:00:00 | |
| DL1XH-west | 2026-09-04 06:44:03 | 49.41735 | 8.66473 | 251° | 5km/h | 31805m | 5.4m/s | -39.1°C | 0% | 9.5hPa | 2.6V | 18:12:15 | 02:13:15 | 00:00:00 | |
| DL3AQ-11 | 2026-09-04 06:44:03 | 49.41736 | 8.66476 | 244° | 11km/h | 31800m | 5.3m/s | -39.1°C | 0.5% | 9.5hPa | 2.7V | 00:00:00 | 00:00:00 | 00:00:00 | |
| DL8DAS-14 | 2026-09-04 06:44:02 | 49.41736 | 8.66476 | 244° | 11km/h | 31800m | 5.3m/s | -39.1°C | 0.5% | 9.5hPa | 2.7V | 00:00:00 | 00:00:00 | 00:00:00 | |
| OE5DRO-10 | 2026-09-04 06:44:01 | 49.41737 | 8.66481 | 249° | 24km/h | 31794m | 6.3m/s | -39.2°C | 2.1% | 9.4hPa | 2.7V | 00:00:00 | 00:00:00 | 00:00:00 | |
| DL1XH1-15 | 2026-09-04 06:43:59 | 49.41739 | 8.66514 | 64° | 5km/h | 31751m | 6.1m/s | -39.3°C | 2.2% | 9.5hPa | 2.6V | 08:30:00 | 02:13:06 | 00:00:00 | |
| DF8AY | 2026-09-04 06:43:59 | 49.41740 | 8.66504 | 267° | 18km/h | 31775m | 5.1m/s | 0°C | 0% | 0hPa | 2.6V | 18:12:15 | 02:13:10 | 00:00:00 | |
| BIOWL1-15 | 2026-09-04 06:43:59 | 49.41740 | 8.66496 | 261° | 22km/h | 31781m | 5.9m/s | -39.1°C | 0% | 9.5hPa | 2.6V | 18:12:15 | 02:13:11 | 00:00:00 | |
| DF3TZ-5 | 2026-09-04 06:43:58 | 49.41740 | 8.66510 | 270° | 13km/h | 31771m | 4.9m/s | -39.1°C | 0.5% | 9.5hPa | 2.7V | 00:00:00 | 00:00:00 | 00:00:00 | |
| DL0LBS | 2026-09-04 06:43:57 | 49.41740 | 8.66503 | 268° | 18km/h | 31776m | 5.1m/s | -39.1°C | 0.5% | 9.5hPa | 2.7V | 00:00:00 | 00:00:00 | 00:00:00 | |
| DL4BBY-15 | 2026-09-04 06:43:56 | 49.41740 | 8.66514 | 278° | 22km/h | 31765m | 6.1m/s | -41.3°C | 0% | 0hPa | 2.7V | 00:00:00 | 00:00:00 | 00:00:00 | |
| PG1ADW-2 | 2026-09-04 06:43:55 | 49.41740 | 8.66515 | 358° | 20km/h | 31759m | 7.1m/s | -39.2°C | 2.2% | 9.5hPa | 2.7V | 00:00:00 | 02:13:07 | 00:00:00 | |
| IW2NTF | 2026-09-04 06:43:54 | 49.41730 | 8.66516 | 293° | 24km/h | 31725m | 6.9m/s | -39.6°C | 0% | 9.6hPa | 2.7V | 08:30:00 | 02:13:01 | 00:00:00 | |
| AA1-15 | 2026-09-04 06:43:54 | 49.41739 | 8.66514 | 64° | 7km/h | 31751m | 6.1m/s | -39.3°C | 0% | 9.5hPa | 2.6V | 18:12:15 | 02:13:06 | 00:00:00 | |
| DL1XH-west | 2026-09-04 06:43:53 | 49.41738 | 8.66511 | 59° | 9km/h | 31746m | 4.4m/s | -39.3°C | 0% | 9.6hPa | 2.6V | 18:12:15 | 02:13:05 | 00:00:00 | |
| BIOWL1-15 | 2026-09-04 06:43:50 | 49.41728 | 8.66527 | 281° | 31km/h | 31719m | 6.5m/s | -39.5°C | 0% | 9.6hPa | 2.6V | 18:12:15 | 02:13:00 | 00:00:00 | |
| DL1XH1-15 | 2026-09-04 06:43:49 | 49.41736 | 8.66579 | 228° | 33km/h | 31697m | 6.6m/s | -39.4°C | 2.3% | 9.6hPa | 2.7V | 08:30:00 | 02:12:56 | 00:00:00 | |
| DF8AY | 2026-09-04 06:43:47 | 49.41727 | 8.66540 | 270° | 37km/h | 31713m | 5.6m/s | 0°C | 0% | 0hPa | 2.6V | 18:12:15 | 02:12:59 | 00:00:00 | |
| DM3KS-11 | 2026-09-04 06:43:47 | 49.41728 | 8.66554 | 257° | 37km/h | 31708m | 4.7m/s | -39.4°C | 0.5% | 9.6hPa | 2.7V | 00:00:00 | 00:00:00 | 00:00:00 | |
| AA1-15 | 2026-09-04 06:43:44 | 49.41736 | 8.66579 | 228° | 33km/h | 31697m | 6.6m/s | -39.4°C | 0% | 9.6hPa | 2.7V | 18:12:15 | 02:12:56 | 00:00:00 | |
| DL1XH-west | 2026-09-04 06:43:43 | 49.41742 | 8.66586 | 207° | 27km/h | 31690m | 6.5m/s | -39.5°C | 0% | 9.6hPa | 2.7V | 18:12:15 | 02:12:55 | 00:00:00 | |
| OE5DRO-10 | 2026-09-04 06:43:42 | 49.41748 | 8.66588 | 184° | 20km/h | 31685m | 5.6m/s | -39.5°C | 2.3% | 9.6hPa | 2.7V | 00:00:00 | 00:00:00 | 00:00:00 | |
| DF1GD-15 | 2026-09-04 06:43:41 | 49.41747 | 8.66588 | 184° | 24km/h | 31685m | 5.6m/s | -39.5°C | 0.6% | 9.7hPa | 2.7V | 00:00:00 | 00:00:00 | 00:00:00 | |
| DO1YAY-16 | 2026-09-04 06:43:40 | 49.41756 | 8.66584 | 132° | 11km/h | 31674m | 5.1m/s | -39.6°C | 0.5% | 9.7hPa | 2.7V | 00:00:00 | 00:00:00 | 00:00:00 | |
| DL1XH1-15 | 2026-09-04 06:43:39 | 49.41742 | 8.66602 | 280° | 26km/h | 31640m | 5m/s | -39.2°C | 2.1% | 9.7hPa | 2.7V | 08:30:00 | 02:12:46 | 00:00:00 | |
| BIOWL1-15 | 2026-09-04 06:43:38 | 49.41755 | 8.66580 | 8° | 11km/h | 31662m | 6.8m/s | -39.7°C | 0% | 9.7hPa | 2.7V | 18:12:15 | 02:12:50 | 00:00:00 | |
| DF8AY | 2026-09-04 06:43:36 | 49.41748 | 8.66585 | 316° | 24km/h | 31650m | 4.9m/s | 0°C | 0% | 0hPa | 2.6V | 18:12:15 | 02:12:48 | 00:00:00 | |
| AA1-15 | 2026-09-04 06:43:33 | 49.41742 | 8.66611 | 257° | 26km/h | 31635m | 6.2m/s | -39.3°C | 0% | 9.7hPa | 2.7V | 18:12:15 | 02:12:45 | 00:00:00 | |
| DL1XH-west | 2026-09-04 06:43:32 | 49.41745 | 8.66620 | 231° | 26km/h | 31628m | 6.6m/s | -39.3°C | 0% | 9.7hPa | 2.7V | 18:12:15 | 02:12:44 | 00:00:00 | |
| DL8DAS-14 | 2026-09-04 06:43:31 | 49.41750 | 8.66627 | 210° | 29km/h | 31622m | 6.2m/s | -39.2°C | 0.5% | 9.7hPa | 2.6V | 00:00:00 | 00:00:00 | 00:00:00 | |
| KANTATE | 2026-09-04 06:43:30 | 49.41750 | 8.66627 | 211° | 29km/h | 31622m | 6.2m/s | -39.2°C | 0.5% | 9.7hPa | 2.6V | 00:00:00 | 00:00:00 | 00:00:00 | |
| DL1XH1-15 | 2026-09-04 06:43:29 | 49.41781 | 8.66639 | 293° | 5km/h | 31582m | 5.5m/s | -39.3°C | 2.2% | 9.8hPa | 2.6V | 08:30:00 | 02:12:36 | 00:00:00 | |
| BIOWL1-15 | 2026-09-04 06:43:27 | 49.41777 | 8.66636 | 182° | 16km/h | 31599m | 5.7m/s | -39.1°C | 0% | 9.8hPa | 2.7V | 18:12:15 | 02:12:39 | 00:00:00 | |
| DF3TZ-5 | 2026-09-04 06:43:27 | 49.41780 | 8.66637 | 189° | 7km/h | 31594m | 5.7m/s | -39.2°C | 0.5% | 9.8hPa | 2.7V | 00:00:00 | 00:00:00 | 00:00:00 | |
| DL4BBY-15 | 2026-09-04 06:43:26 | 49.41779 | 8.66636 | 190° | 15km/h | 31594m | 5.6m/s | -41.3°C | 0% | 0hPa | 2.7V | 00:00:00 | 00:00:00 | 00:00:00 | |
| DO3MHA-11 | 2026-09-04 06:43:25 | 49.41781 | 8.66637 | 242° | 9km/h | 31588m | 5.5m/s | -39.2°C | 2.1% | 9.7hPa | 2.7V | 00:00:00 | 02:12:37 | 00:00:00 | |
| DM0DOS-11 | 2026-09-04 06:43:24 | 49.41785 | 8.66651 | 193° | 13km/h | 31554m | 5.3m/s | -39.4°C | 2.2% | 9.8hPa | 2.7V | 08:30:00 | 02:12:31 | 00:00:00 | |
| AA1-15 | 2026-09-04 06:43:23 | 49.41780 | 8.66641 | 289° | 7km/h | 31577m | 5.9m/s | -39.2°C | 0% | 9.8hPa | 2.7V | 18:12:15 | 02:12:35 | 00:00:00 | |
| DL1XH-west | 2026-09-04 06:43:21 | 49.41780 | 8.66647 | 238° | 7km/h | 31565m | 5.8m/s | -39.2°C | 0% | 9.8hPa | 2.6V | 18:12:15 | 02:12:33 | 00:00:00 | |
| DB0UT-9 | 2026-09-04 06:43:20 | 49.41780 | 8.66647 | 239° | 7km/h | 31565m | 5.8m/s | -39.2°C | 0.6% | 9.8hPa | 2.6V | 00:00:00 | 00:00:00 | 00:00:00 | |
| DL1XH1-15 | 2026-09-04 06:43:19 | 49.41800 | 8.66649 | 173° | 9km/h | 31525m | 5.4m/s | -39.7°C | 2.2% | 9.8hPa | 2.6V | 08:30:00 | 02:12:26 | 00:00:00 | |
| BIOWL1-15 | 2026-09-04 06:43:17 | 49.41791 | 8.66651 | 174° | 13km/h | 31543m | 5.8m/s | -39.5°C | 0% | 9.8hPa | 2.7V | 18:12:15 | 02:12:29 | 00:00:00 | |
| AA1-15 | 2026-09-04 06:43:13 | 49.41802 | 8.66649 | 189° | 11km/h | 31520m | 5.3m/s | -39.6°C | 0% | 9.9hPa | 2.7V | 18:12:15 | 02:12:25 | 00:00:00 | |
| DF8AY | 2026-09-04 06:43:12 | 49.41805 | 8.66650 | 199° | 15km/h | 31514m | 6.3m/s | 0°C | 0% | 0hPa | 2.7V | 18:12:15 | 02:12:24 | 00:00:00 | |
| HSKMA3-T | 2026-09-04 06:43:11 | 49.41809 | 8.66652 | 205° | 18km/h | 31508m | 6.4m/s | -39.7°C | 0% | 9.9hPa | 2.7V | 18:12:15 | 02:12:23 | 00:00:00 | |
| DL1XH-west | 2026-09-04 06:43:10 | 49.41814 | 8.66656 | 206° | 20km/h | 31502m | 5m/s | -39.7°C | 0% | 9.9hPa | 2.6V | 18:12:15 | 02:12:22 | 00:00:00 | |
| BIOWL1-15 | 2026-09-04 06:43:10 | 49.41824 | 8.66659 | 151° | 9km/h | 31488m | 6.7m/s | -40.1°C | 0% | 9.9hPa | 2.7V | 18:12:15 | 02:12:19 | 00:00:00 | |
| AA1-15 | 2026-09-04 06:43:02 | 49.41833 | 8.66631 | 134° | 20km/h | 31458m | 6.5m/s | -40.2°C | 0% | 10hPa | 2.7V | 18:12:15 | 02:12:14 | 00:00:00 | |
| HSKMA3-T | 2026-09-04 06:43:01 | 49.41837 | 8.66626 | 149° | 22km/h | 31452m | 5.7m/s | -40.1°C | 0% | 10hPa | 2.7V | 18:12:15 | 02:12:13 | 00:00:00 | |
| DL1XH-west | 2026-09-04 06:43:00 | 49.41842 | 8.66622 | 160° | 22km/h | 31447m | 5.3m/s | -40.2°C | 0% | 10hPa | 2.7V | 18:12:15 | 02:12:12 | 00:00:00 | |
| BIOWL1-15 | 2026-09-04 06:42:56 | 49.41860 | 8.66612 | 150° | 15km/h | 31424m | 5.3m/s | -40.2°C | 0% | 10hPa | 2.7V | 18:12:15 | 02:12:08 | 00:00:00 | |
| AA1-15 | 2026-09-04 06:42:51 | 49.41877 | 8.66596 | 149° | 20km/h | 31396m | 5.4m/s | -40.2°C | 0% | 10.1hPa | 2.6V | 18:12:15 | 02:12:03 | 00:00:00 | |
| HSKMA3-T | 2026-09-04 06:42:50 | 49.41881 | 8.66591 | 141° | 20km/h | 31391m | 5m/s | -40.3°C | 0% | 10.1hPa | 2.7V | 18:12:15 | 02:12:02 | 00:00:00 | |
| DL1XH-west | 2026-09-04 06:42:49 | 49.41885 | 8.66586 | 130° | 22km/h | 31385m | 5.7m/s | -40.3°C | 0% | 10.1hPa | 2.7V | 18:12:15 | 02:12:01 | 00:00:00 | |
| BIOWL1-15 | 2026-09-04 06:42:47 | 49.41893 | 8.66554 | 116° | 22km/h | 31363m | 4.4m/s | -40.3°C | 0% | 10.1hPa | 2.7V | 18:12:15 | 02:11:57 | 00:00:00 | |
| DD1CC8 | 2026-09-04 06:42:46 | 49.41891 | 8.66562 | 106° | 22km/h | 31368m | 4.6m/s | -40.2°C | 0.6% | 10.1hPa | 2.7V | 00:00:00 | 00:00:00 | 00:00:00 | |
| AA1-15 | 2026-09-04 06:42:40 | 49.41916 | 8.66533 | 161° | 22km/h | 31335m | 5.3m/s | -40.5°C | 0% | 10.2hPa | 2.7V | 18:12:15 | 02:11:52 | 00:00:00 | |
| DL1XH-west | 2026-09-04 06:42:39 | 49.41921 | 8.66530 | 153° | 20km/h | 31329m | 6.2m/s | -40.4°C | 0% | 10.1hPa | 2.7V | 18:12:15 | 02:11:51 | 00:00:00 | |
| BIOWL1-15 | 2026-09-04 06:42:34 | 49.41935 | 8.66507 | 133° | 16km/h | 31302m | 6.2m/s | -40.7°C | 0% | 10.2hPa | 2.7V | 18:12:15 | 02:11:46 | 00:00:00 | |
| DJ2KF-10 | 2026-09-04 06:42:34 | 49.41934 | 8.66507 | 134° | 16km/h | 31302m | 6.2m/s | -40.7°C | 2.4% | 10.2hPa | 2.7V | 00:00:00 | 02:11:46 | 00:00:00 | |
| CB1BUN | 2026-09-04 06:42:31 | 49.41941 | 8.66498 | 147° | 20km/h | 31291m | 4.8m/s | -40.6°C | 0.5% | 10.2hPa | 2.7V | 00:00:00 | 00:00:00 | 00:00:00 | |
| DL1XH1-15 | 2026-09-04 06:42:29 | 49.41970 | 8.66446 | 147° | 24km/h | 31246m | 6.3m/s | -40.7°C | 2.3% | 10.3hPa | 2.7V | 08:30:00 | 02:11:36 | 00:00:00 | |
| DL1XH-west | 2026-09-04 06:42:29 | 49.41953 | 8.66482 | 125° | 22km/h | 31274m | 6.5m/s | -40.8°C | 0% | 10.2hPa | 2.7V | 18:12:15 | 02:11:41 | 00:00:00 | |
| DK5PH-5 | 2026-09-04 06:42:29 | 49.41953 | 8.66482 | 125° | 15km/h | 31274m | 6.4m/s | -40.8°C | 2.3% | 10.2hPa | 2.7V | 00:00:00 | 02:11:41 | 00:00:00 | |
| DN1GJH-1 | 2026-09-04 06:42:27 | 49.41956 | 8.66474 | 119° | 24km/h | 31268m | 5.9m/s | -40.9°C | 0.6% | 10.3hPa | 2.6V | 00:00:00 | 00:00:00 | 00:00:00 | |
| IW2NTF | 2026-09-04 06:42:26 | 49.41985 | 8.66435 | 142° | 16km/h | 31230m | 5m/s | -40.8°C | 0% | 10.3hPa | 2.6V | 08:30:00 | 02:11:33 | 00:00:00 | |
| DF8AY | 2026-09-04 06:42:24 | 49.41970 | 8.66446 | 148° | 24km/h | 31246m | 6.3m/s | 0°C | 0% | 0hPa | 2.7V | 18:12:15 | 02:11:36 | 00:00:00 | |
| BIOWL1-15 | 2026-09-04 06:42:23 | 49.41975 | 8.66442 | 155° | 24km/h | 31240m | 5.2m/s | -40.7°C | 0% | 10.3hPa | 2.7V | 18:12:15 | 02:11:35 | 00:00:00 | |
| DJ2DS-15 | 2026-09-04 06:42:23 | 49.41975 | 8.66442 | 155° | 22km/h | 31240m | 5.2m/s | -40.7°C | 0.5% | 10.3hPa | 2.7V | 00:00:00 | 00:00:00 | 00:00:00 | |
| DM7RM-13 | 2026-09-04 06:42:21 | 49.41980 | 8.66438 | 154° | 20km/h | 31236m | 4.6m/s | -40.7°C | 0.6% | 10.3hPa | 2.7V | 00:00:00 | 00:00:00 | 00:00:00 | |
| NBG1-10 | 2026-09-04 06:42:20 | 49.41987 | 8.66430 | 121° | 11km/h | 31225m | 6.2m/s | -40.8°C | 2.3% | 10.3hPa | 2.7V | 00:00:00 | 02:11:32 | 00:00:00 | |
| DL1XH1-15 | 2026-09-04 06:42:19 | 49.41988 | 8.66394 | 129° | 11km/h | 31191m | 6m/s | -41.3°C | 2.4% | 10.4hPa | 2.7V | 08:30:00 | 02:11:26 | 00:00:00 | |
| DL1XH-west | 2026-09-04 06:42:19 | 49.41988 | 8.66424 | 96° | 16km/h | 31219m | 6.4m/s | -40.9°C | 0% | 10.3hPa | 2.7V | 18:12:15 | 02:11:31 | 00:00:00 | |
| DB0UT-9 | 2026-09-04 06:42:18 | 49.41988 | 8.66424 | 97° | 16km/h | 31219m | 6.4m/s | -40.9°C | 0.6% | 10.3hPa | 2.6V | 00:00:00 | 00:00:00 | 00:00:00 | |
| IW2NTF | 2026-09-04 06:42:16 | 49.41997 | 8.66387 | 154° | 15km/h | 31175m | 5.4m/s | -41.3°C | 0% | 10.4hPa | 2.6V | 08:30:00 | 02:11:23 | 00:00:00 | |
| BIOWL1-15 | 2026-09-04 06:42:14 | 49.41994 | 8.66389 | 159° | 15km/h | 31180m | 5.1m/s | -41.3°C | 0% | 10.4hPa | 2.7V | 18:12:15 | 02:11:24 | 00:00:00 | |
| OE5DXL-15 | 2026-09-04 06:42:14 | 49.41988 | 8.66394 | 130° | 11km/h | 31191m | 5.9m/s | -41.3°C | 2.4% | 10.3hPa | 2.6V | 00:00:00 | 00:00:00 | 00:00:00 | |
| PG1ADW-2 | 2026-09-04 06:42:13 | 49.41990 | 8.66391 | 153° | 11km/h | 31186m | 5.4m/s | -41.3°C | 2.4% | 10.3hPa | 2.6V | 00:00:00 | 00:00:00 | 00:00:00 | |
| CB1BUN | 2026-09-04 06:42:10 | 49.41997 | 8.66387 | 155° | 15km/h | 31175m | 5.4m/s | -41.3°C | 0.6% | 10.4hPa | 2.6V | 00:00:00 | 00:00:00 | 00:00:00 | |
| DL1XH1-15 | 2026-09-04 06:42:09 | 49.42007 | 8.66364 | 184° | 4km/h | 31135m | 5.7m/s | -41.6°C | 2.4% | 10.5hPa | 2.6V | 08:30:00 | 02:11:16 | 00:00:00 | |
| DL1XH-west | 2026-09-04 06:42:08 | 49.42004 | 8.66375 | 108° | 13km/h | 31158m | 5.1m/s | -41.5°C | 0% | 10.4hPa | 2.7V | 18:12:15 | 02:11:20 | 00:00:00 | |
| DN1GJH-1 | 2026-09-04 06:42:08 | 49.42003 | 8.66375 | 108° | 13km/h | 31158m | 5.1m/s | -41.4°C | 0.6% | 10.4hPa | 2.7V | 00:00:00 | 00:00:00 | 00:00:00 | |
| DB0NH | 2026-09-04 06:42:07 | 49.42005 | 8.66371 | 104° | 9km/h | 31153m | 4.9m/s | -41.4°C | 2.4% | 10.4hPa | 2.7V | 00:00:00 | 02:11:19 | 00:00:00 | |
| DO3MHA-11 | 2026-09-04 06:42:05 | 49.42006 | 8.66365 | 133° | 7km/h | 31142m | 6.4m/s | -41.5°C | 2.4% | 10.4hPa | 2.7V | 00:00:00 | 02:11:17 | 00:00:00 | |
| IW2NTF | 2026-09-04 06:42:04 | 49.42006 | 8.66373 | 282° | 5km/h | 31107m | 4.7m/s | -41.6°C | 0% | 10.5hPa | 2.7V | 08:30:00 | 02:11:11 | 00:00:00 | |
| BIOWL1-15 | 2026-09-04 06:42:01 | 49.42008 | 8.66369 | 294° | 7km/h | 31119m | 6.6m/s | -41.5°C | 0% | 10.5hPa | 2.6V | 18:12:15 | 02:11:13 | 00:00:00 | |
| DM7RM-13 | 2026-09-04 06:42:00 | 49.42008 | 8.66369 | 295° | 7km/h | 31119m | 6.6m/s | -41.5°C | 0.6% | 10.5hPa | 2.7V | 00:00:00 | 00:00:00 | 00:00:00 | |
| DL1XH1-15 | 2026-09-04 06:41:59 | 49.42020 | 8.66383 | 182° | 18km/h | 31080m | 4.3m/s | -41.5°C | 2.4% | 10.5hPa | 2.7V | 08:30:00 | 02:11:06 | 00:00:00 | |
| AA1-15 | 2026-09-04 06:41:58 | 49.42007 | 8.66376 | 240° | 7km/h | 31102m | 4.8m/s | -41.7°C | 0% | 10.5hPa | 2.7V | 18:12:15 | 02:11:10 | 00:00:00 | |
| DL1XH-west | 2026-09-04 06:41:57 | 49.42008 | 8.66378 | 214° | 11km/h | 31097m | 6.5m/s | -41.7°C | 0% | 10.5hPa | 2.6V | 18:12:15 | 02:11:09 | 00:00:00 | |
| DO3MHA-11 | 2026-09-04 06:41:55 | 49.42016 | 8.66382 | 191° | 11km/h | 31085m | 5.0m/s | -41.5°C | 2.4% | 10.5hPa | 2.6V | 00:00:00 | 02:11:07 | 00:00:00 | |
| DL4BBY-15 | 2026-09-04 06:41:54 | 49.42020 | 8.66383 | 183° | 11km/h | 31080m | 4.3m/s | -43.7°C | 0% | 0hPa | 2.6V | 00:00:00 | 00:00:00 | 00:00:00 | |
| PG1ADW-2 | 2026-09-04 06:41:53 | 49.42024 | 8.66382 | 171° | 11km/h | 31075m | 5.5m/s | -41.5°C | 2.4% | 10.5hPa | 2.6V | 00:00:00 | 00:00:00 | 00:00:00 | |
| BIOWL1-15 | 2026-09-04 06:41:53 | 49.42028 | 8.66378 | 96° | 9km/h | 31062m | 6m/s | -41.6°C | 0% | 10.6hPa | 2.6V | 18:12:15 | 02:11:03 | 00:00:00 | |
| DG9SBQ-11 | 2026-09-04 06:41:52 | 49.42024 | 8.66382 | 171° | 15km/h | 31075m | 5.5m/s | -41.6°C | 0.6% | 10.6hPa | 2.6V | 00:00:00 | 00:00:00 | 00:00:00 | |
| CB1BUN | 2026-09-04 06:41:51 | 49.42027 | 8.66378 | 97° | 9km/h | 31063m | 6.0m/s | -41.6°C | 0.6% | 10.6hPa | 2.6V | 00:00:00 | 00:00:00 | 00:00:00 | |
| DL8DAS-15 | 2026-09-04 06:41:50 | 49.42027 | 8.66378 | 97° | 9km/h | 31063m | 6.0m/s | -41.6°C | 0.6% | 10.6hPa | 2.6V | 00:00:00 | 00:00:00 | 00:00:00 | |
| DL1XH1-15 | 2026-09-04 06:41:49 | 49.42032 | 8.66362 | 183° | 13km/h | 31025m | 4.8m/s | -41.7°C | 2.5% | 10.6hPa | 2.6V | 08:30:00 | 02:10:56 | 00:00:00 | |
| AA1-15 | 2026-09-04 06:41:47 | 49.42025 | 8.66364 | 109° | 5km/h | 31041m | 6.4m/s | -41.8°C | 0% | 10.6hPa | 2.7V | 18:12:15 | 02:10:59 | 00:00:00 | |
| DJ2DS-15 | 2026-09-04 06:41:47 | 49.42025 | 8.66364 | 109° | 5km/h | 31041m | 6.4m/s | -41.8°C | 0.6% | 10.6hPa | 2.7V | 00:00:00 | 00:00:00 | 00:00:00 | |
| BIOWL1-15 | 2026-09-04 06:41:41 | 49.42039 | 8.66362 | 141° | 5km/h | 31008m | 5.9m/s | -41.8°C | 0% | 10.7hPa | 2.7V | 18:12:15 | 02:10:53 | 00:00:00 | |
| HEMX73-11 | 2026-09-04 06:41:40 | 49.42039 | 8.66362 | 142° | 5km/h | 31008m | 5.9m/s | -41.7°C | 0.6% | 10.7hPa | 2.7V | 00:00:00 | 00:00:00 | 00:00:00 | |
| DL1XH1-15 | 2026-09-04 06:41:39 | 49.42055 | 8.66334 | 148° | 22km/h | 30970m | 4.7m/s | -41.8°C | 2.4% | 10.7hPa | 2.7V | 08:30:00 | 02:10:46 | 00:00:00 | |
| DF7PN | 2026-09-04 06:41:38 | 49.42041 | 8.66353 | 113° | 11km/h | 30993m | 4.6m/s | -41.8°C | 0.6% | 10.7hPa | 2.7V | 00:00:00 | 00:00:00 | 00:00:00 | |
| IW2NTF | 2026-09-04 06:41:37 | 49.42063 | 8.66325 | 135° | 15km/h | 30959m | 6.3m/s | -41.8°C | 0% | 10.7hPa | 2.7V | 08:30:00 | 02:10:44 | 00:00:00 | |
| DL1XH-west | 2026-09-04 06:41:37 | 49.42043 | 8.66348 | 128° | 16km/h | 30987m | 6.2m/s | -41.8°C | 0% | 10.7hPa | 2.7V | 18:12:15 | 02:10:49 | 00:00:00 | |
| BIOWL1-15 | 2026-09-04 06:41:31 | 49.42065 | 8.66321 | 116° | 11km/h | 30953m | 6.3m/s | -41.9°C | 0% | 10.8hPa | 2.6V | 18:12:15 | 02:10:43 | 00:00:00 | |
| DK5PH-5 | 2026-09-04 06:41:29 | 49.42065 | 8.66316 | 71° | 18km/h | 30942m | 4.8m/s | -41.9°C | 2.5% | 10.7hPa | 2.7V | 00:00:00 | 02:10:41 | 00:00:00 | |
| SONDE2-11 | 2026-09-04 06:41:28 | 49.42066 | 8.66315 | 182° | 4km/h | 30931m | 6.4m/s | -41.8°C | 0.6% | 10.8hPa | 2.7V | 00:00:00 | 00:00:00 | 00:00:00 | |
| IW2NTF | 2026-09-04 06:41:27 | 49.42083 | 8.66314 | 162° | 15km/h | 30903m | 6.2m/s | -41.9°C | 0% | 10.8hPa | 2.7V | 08:30:00 | 02:10:34 | 00:00:00 | |
| DL1XH-west | 2026-09-04 06:41:26 | 49.42068 | 8.66315 | 187° | 11km/h | 30925m | 5.8m/s | -41.8°C | 0% | 10.8hPa | 2.7V | 18:12:15 | 02:10:38 | 00:00:00 | |
| BIOWL1-15 | 2026-09-04 06:41:24 | 49.42089 | 8.66309 | 149° | 15km/h | 30892m | 5m/s | -41.9°C | 0% | 10.8hPa | 2.7V | 18:12:15 | 02:10:32 | 00:00:00 | |
| DL4BBY-15 | 2026-09-04 06:41:24 | 49.42075 | 8.66315 | 181° | 16km/h | 30915m | 4.8m/s | -44.1°C | 0% | 0hPa | 2.6V | 00:00:00 | 00:00:00 | 00:00:00 | |
| DL3AQ-11 | 2026-09-04 06:41:23 | 49.42083 | 8.66314 | 162° | 15km/h | 30904m | 6.2m/s | -41.9°C | 0.6% | 10.8hPa | 2.6V | 00:00:00 | 00:00:00 | 00:00:00 | |
| DB0ND-19 | 2026-09-04 06:41:22 | 49.42083 | 8.66314 | 162° | 15km/h | 30904m | 6.2m/s | -41.9°C | 0.6% | 10.8hPa | 2.6V | 00:00:00 | 00:00:00 | 00:00:00 | |
| DL8DAS-15 | 2026-09-04 06:41:20 | 49.42089 | 8.66309 | 150° | 15km/h | 30893m | 5.0m/s | -41.9°C | 0.6% | 10.8hPa | 2.6V | 00:00:00 | 00:00:00 | 00:00:00 | |
| DL1XH1-15 | 2026-09-04 06:41:19 | 49.42118 | 8.66295 | 172° | 18km/h | 30858m | 5.5m/s | -41.9°C | 2.4% | 10.9hPa | 2.6V | 08:30:00 | 02:10:26 | 00:00:00 | |
| BIOWL7-15 | 2026-09-04 06:41:18 | 49.42093 | 8.66306 | 153° | 16km/h | 30888m | 5.0m/s | -41.9°C | 0.6% | 10.9hPa | 2.7V | 00:00:00 | 00:00:00 | 00:00:00 | |
| IW2NTF | 2026-09-04 06:41:17 | 49.42126 | 8.66294 | 169° | 11km/h | 30846m | 6m/s | -42°C | 0% | 10.9hPa | 2.7V | 08:30:00 | 02:10:24 | 00:00:00 | |
| DL1XH-west | 2026-09-04 06:41:16 | 49.42108 | 8.66298 | 168° | 24km/h | 30869m | 5.8m/s | -42°C | 0% | 10.9hPa | 2.7V | 18:12:15 | 02:10:28 | 00:00:00 | |
| HSKMA3-T | 2026-09-04 06:41:15 | 49.42114 | 8.66297 | 172° | 22km/h | 30863m | 5.1m/s | -41.9°C | 0% | 10.9hPa | 2.6V | 18:12:15 | 02:10:27 | 00:00:00 | |
| DJ2DS-15 | 2026-09-04 06:41:15 | 49.42114 | 8.66297 | 172° | 20km/h | 30864m | 5.1m/s | -41.8°C | 2.4% | 10.9hPa | 2.6V | 00:00:00 | 02:10:27 | 00:00:00 | |
| OE5DXL-15 | 2026-09-04 06:41:14 | 49.42119 | 8.66295 | 173° | 20km/h | 30859m | 5.4m/s | -41.8°C | 2.4% | 10.9hPa | 2.6V | 00:00:00 | 00:00:00 | 00:00:00 | |
| PG1ADW-2 | 2026-09-04 06:41:13 | 49.42123 | 8.66295 | 172° | 18km/h | 30852m | 6.6m/s | -41.8°C | 2.4% | 10.9hPa | 2.6V | 00:00:00 | 02:10:25 | 00:00:00 | |
| DL3AQ-11 | 2026-09-04 06:41:12 | 49.42128 | 8.66293 | 167° | 7km/h | 30841m | 4.9m/s | -41.9°C | 0.6% | 10.9hPa | 2.6V | 00:00:00 | 00:00:00 | 00:00:00 | |
| DJ2DS-15 | 2026-09-04 06:41:11 | 49.42128 | 8.66293 | 167° | 7km/h | 30841m | 4.9m/s | -41.9°C | 0.6% | 10.9hPa | 2.6V | 00:00:00 | 00:00:00 | 00:00:00 | |
| NBG1-10 | 2026-09-04 06:41:10 | 49.42131 | 8.66292 | 168° | 18km/h | 30836m | 4.6m/s | -41.7°C | 2.4% | 10.9hPa | 2.6V | 00:00:00 | 02:10:22 | 00:00:00 | |
| DL1XH1-15 | 2026-09-04 06:41:09 | 49.42170 | 8.66274 | 153° | 31km/h | 30801m | 6.2m/s | -41.8°C | 2.4% | 11hPa | 2.6V | 08:30:00 | 02:10:16 | 00:00:00 | |
| BIOWL1-15 | 2026-09-04 06:41:09 | 49.42135 | 8.66291 | 167° | 18km/h | 30831m | 5.4m/s | -41.8°C | 0% | 10.9hPa | 2.7V | 18:12:15 | 02:10:21 | 00:00:00 | |
| DL1XH-west | 2026-09-04 06:41:06 | 49.42154 | 8.66283 | 162° | 33km/h | 30812m | 5.2m/s | -41.9°C | 0% | 11hPa | 2.6V | 18:12:15 | 02:10:18 | 00:00:00 | |
| AA1-15 | 2026-09-04 06:41:05 | 49.42162 | 8.66279 | 159° | 33km/h | 30807m | 5.2m/s | -42°C | 0% | 11hPa | 2.6V | 18:12:15 | 02:10:17 | 00:00:00 | |
| HSKMA3-T | 2026-09-04 06:41:04 | 49.42169 | 8.66274 | 154° | 31km/h | 30801m | 6.2m/s | -41.9°C | 0% | 11hPa | 2.6V | 18:12:15 | 02:10:16 | 00:00:00 | |
| DJ2KF-10 | 2026-09-04 06:41:04 | 49.42169 | 8.66273 | 154° | 18km/h | 30802m | 6.1m/s | -41.8°C | 2.4% | 10.9hPa | 2.7V | 00:00:00 | 02:10:16 | 00:00:00 | |
| DG9SBQ-11 | 2026-09-04 06:41:03 | 49.42176 | 8.66268 | 147° | 26km/h | 30795m | 6.1m/s | -41.9°C | 0.6% | 11.0hPa | 2.7V | 00:00:00 | 00:00:00 | 00:00:00 | |
| DG1MJG | 2026-09-04 06:41:02 | 49.42176 | 8.66268 | 147° | 26km/h | 30795m | 6.1m/s | -41.9°C | 0.6% | 11.0hPa | 2.7V | 00:00:00 | 00:00:00 | 00:00:00 | |
| IW2NTF | 2026-09-04 06:41:01 | 49.42199 | 8.66242 | 146° | 11km/h | 30755m | 5.2m/s | -42.2°C | 0% | 11.1hPa | 2.7V | 08:30:00 | 02:10:08 | 00:00:00 | |
| BIOWL1-15 | 2026-09-04 06:41:00 | 49.42193 | 8.66246 | 152° | 15km/h | 30765m | 5.3m/s | -42.1°C | 0% | 11.1hPa | 2.6V | 18:12:15 | 02:10:10 | 00:00:00 | |
| DL1XH1-15 | 2026-09-04 06:40:59 | 49.42202 | 8.66236 | 113° | 9km/h | 30742m | 6.3m/s | -42.2°C | 2.4% | 11.1hPa | 2.6V | 08:30:00 | 02:10:06 | 00:00:00 | |
| AA1-15 | 2026-09-04 06:40:55 | 49.42201 | 8.66240 | 130° | 9km/h | 30749m | 6.7m/s | -42.2°C | 0% | 11.1hPa | 2.7V | 18:12:15 | 02:10:07 | 00:00:00 | |
| HSKMA3-T | 2026-09-04 06:40:53 | 49.42203 | 8.66233 | 116° | 13km/h | 30737m | 5.2m/s | -42.3°C | 0% | 11.1hPa | 2.6V | 18:12:15 | 02:10:05 | 00:00:00 | |
| PG1ADW-2 | 2026-09-04 06:40:53 | 49.42203 | 8.66232 | 117° | 18km/h | 30737m | 5.2m/s | -42.2°C | 2.4% | 11.0hPa | 2.6V | 00:00:00 | 00:00:00 | 00:00:00 | |
| DL0LBS | 2026-09-04 06:40:52 | 49.42203 | 8.66232 | 117° | 13km/h | 30737m | 5.2m/s | -42.3°C | 0.6% | 11.1hPa | 2.6V | 00:00:00 | 00:00:00 | 00:00:00 | |
| DM0DOS-11 | 2026-09-04 06:40:51 | 49.42234 | 8.66192 | 130° | 20km/h | 30698m | 6.6m/s | -42.5°C | 2.5% | 11.2hPa | 2.6V | 08:30:00 | 02:09:58 | 00:00:00 | |
| DL1XH1-15 | 2026-09-04 06:40:49 | 49.42237 | 8.66182 | 92° | 11km/h | 30685m | 5.8m/s | -42.7°C | 2.5% | 11.2hPa | 2.7V | 08:30:00 | 02:09:56 | 00:00:00 | |
| BIOWL1-15 | 2026-09-04 06:40:48 | 49.42225 | 8.66204 | 145° | 29km/h | 30709m | 4.8m/s | -42.6°C | 0% | 11.2hPa | 2.7V | 18:12:15 | 02:10:00 | 00:00:00 | |
| DL1XH-west | 2026-09-04 06:40:44 | 49.42238 | 8.66182 | 93° | 11km/h | 30685m | 5.8m/s | -42.7°C | 0% | 11.2hPa | 2.7V | 18:12:15 | 02:09:56 | 00:00:00 | |
| HSKMA3-T | 2026-09-04 06:40:43 | 49.42237 | 8.66178 | 80° | 9km/h | 30679m | 5.5m/s | -42.7°C | 0% | 11.2hPa | 2.7V | 18:12:15 | 02:09:55 | 00:00:00 | |
| DL3AQ-11 | 2026-09-04 06:40:43 | 49.42237 | 8.66175 | 90° | 7km/h | 30674m | 6.4m/s | -42.7°C | 0.6% | 11.2hPa | 2.6V | 00:00:00 | 00:00:00 | 00:00:00 | |
| DD1CC8 | 2026-09-04 06:40:42 | 49.42237 | 8.66175 | 90° | 7km/h | 30674m | 6.4m/s | -42.7°C | 0.6% | 11.2hPa | 2.6V | 00:00:00 | 00:00:00 | 00:00:00 | |
| DM3KS-11 | 2026-09-04 06:40:40 | 49.42239 | 8.66169 | 139° | 11km/h | 30661m | 5.6m/s | -42.9°C | 0.6% | 11.2hPa | 2.6V | 00:00:00 | 00:00:00 | 00:00:00 | |
| DL1XH1-15 | 2026-09-04 06:40:39 | 49.42256 | 8.66141 | 126° | 20km/h | 30626m | 5.1m/s | -43°C | 2.5% | 11.3hPa | 2.6V | 08:30:00 | 02:09:46 | 00:00:00 | |
| BIOWL1-15 | 2026-09-04 06:40:38 | 49.42245 | 8.66162 | 141° | 16km/h | 30650m | 5.5m/s | -42.9°C | 0% | 11.3hPa | 2.7V | 18:12:15 | 02:09:50 | 00:00:00 | |
| AA1-15 | 2026-09-04 06:40:34 | 49.42256 | 8.66141 | 127° | 20km/h | 30626m | 5.1m/s | -43°C | 0% | 11.3hPa | 2.6V | 18:12:15 | 02:09:46 | 00:00:00 | |
| DL1XH-west | 2026-09-04 06:40:33 | 49.42260 | 8.66135 | 132° | 22km/h | 30621m | 5.7m/s | -43°C | 0% | 11.3hPa | 2.6V | 18:12:15 | 02:09:45 | 00:00:00 | |
| HSKMA3-T | 2026-09-04 06:40:32 | 49.42264 | 8.66128 | 138° | 24km/h | 30614m | 6.8m/s | -43.1°C | 0% | 11.3hPa | 2.7V | 18:12:15 | 02:09:44 | 00:00:00 | |
| DL0LBS | 2026-09-04 06:40:31 | 49.42264 | 8.66128 | 139° | 24km/h | 30615m | 6.8m/s | -43.1°C | 0.7% | 11.3hPa | 2.7V | 00:00:00 | 00:00:00 | 00:00:00 | |
| DL1ZP-14 | 2026-09-04 06:40:30 | 49.42273 | 8.66118 | 147° | 20km/h | 30603m | 4.9m/s | -43.1°C | 0.6% | 11.3hPa | 2.7V | 00:00:00 | 00:00:00 | 00:00:00 | |
| DL1XH1-15 | 2026-09-04 06:40:29 | 49.42280 | 8.66100 | 102° | 11km/h | 30568m | 5.3m/s | -43.2°C | 2.6% | 11.4hPa | 2.7V | 08:30:00 | 02:09:36 | 00:00:00 | |
| BIOWL1-15 | 2026-09-04 06:40:28 | 49.42280 | 8.66111 | 140° | 11km/h | 30592m | 6.7m/s | -43.2°C | 0% | 11.4hPa | 2.6V | 18:12:15 | 02:09:40 | 00:00:00 | |
| OE5DRO-10 | 2026-09-04 06:40:28 | 49.42280 | 8.66111 | 141° | 18km/h | 30592m | 6.6m/s | -43.2°C | 2.6% | 11.3hPa | 2.7V | 00:00:00 | 00:00:00 | 00:00:00 | |
| DM0DOS-11 | 2026-09-04 06:40:26 | 49.42289 | 8.66084 | 137° | 26km/h | 30550m | 5.5m/s | -43.4°C | 2.6% | 11.4hPa | 2.7V | 08:30:00 | 02:09:33 | 00:00:00 | |
| AA1-15 | 2026-09-04 06:40:23 | 49.42281 | 8.66095 | 123° | 15km/h | 30563m | 6.7m/s | -43.3°C | 0% | 11.4hPa | 2.6V | 18:12:15 | 02:09:35 | 00:00:00 | |
| DL1XH-west | 2026-09-04 06:40:22 | 49.42284 | 8.66090 | 134° | 22km/h | 30556m | 6.2m/s | -43.4°C | 0% | 11.4hPa | 2.6V | 18:12:15 | 02:09:34 | 00:00:00 | |
| BIOWL1-15 | 2026-09-04 06:40:20 | 49.42302 | 8.66066 | 136° | 18km/h | 30533m | 6.1m/s | -43.5°C | 0% | 11.4hPa | 2.6V | 18:12:15 | 02:09:30 | 00:00:00 | |
| DL1XH1-15 | 2026-09-04 06:40:19 | 49.42311 | 8.66054 | 151° | 9km/h | 30510m | 6.4m/s | -43.5°C | 2.6% | 11.5hPa | 2.6V | 08:30:00 | 02:09:26 | 00:00:00 | |
| DL8DAS-15 | 2026-09-04 06:40:18 | 49.42298 | 8.66071 | 140° | 24km/h | 30540m | 6.2m/s | -43.4°C | 0.7% | 11.4hPa | 2.6V | 00:00:00 | 00:00:00 | 00:00:00 | |
| DM7RM-13 | 2026-09-04 06:40:17 | 49.42302 | 8.66066 | 137° | 18km/h | 30534m | 6.1m/s | -43.5°C | 0.7% | 11.4hPa | 2.6V | 00:00:00 | 00:00:00 | 00:00:00 | |
| DL3AQ-11 | 2026-09-04 06:40:16 | 49.42309 | 8.66056 | 141° | 7km/h | 30516m | 6.3m/s | -43.5°C | 0.7% | 11.5hPa | 2.6V | 00:00:00 | 00:00:00 | 00:00:00 | |
| DO3MHA-11 | 2026-09-04 06:40:15 | 49.42309 | 8.66056 | 142° | 11km/h | 30517m | 6.2m/s | -43.4°C | 2.6% | 11.4hPa | 2.6V | 00:00:00 | 02:09:27 | 08:30:00 | |
| DM0DOS-11 | 2026-09-04 06:40:14 | 49.42318 | 8.66040 | 83° | 13km/h | 30482m | 7m/s | -43.6°C | 2.6% | 11.5hPa | 2.6V | 08:30:00 | 02:09:21 | 00:00:00 | |
| AA1-15 | 2026-09-04 06:40:13 | 49.42313 | 8.66052 | 152° | 9km/h | 30503m | 6m/s | -43.6°C | 0% | 11.5hPa | 2.7V | 18:12:15 | 02:09:25 | 00:00:00 | |
| HSKMA3-T | 2026-09-04 06:40:12 | 49.42315 | 8.66050 | 145° | 11km/h | 30498m | 5.1m/s | -43.6°C | 0% | 11.5hPa | 2.7V | 18:12:15 | 02:09:24 | 00:00:00 | |
| DL1XH-west | 2026-09-04 06:40:11 | 49.42317 | 8.66048 | 127° | 9km/h | 30493m | 4.7m/s | -43.5°C | 0% | 11.5hPa | 2.7V | 18:12:15 | 02:09:23 | 00:00:00 | |
| BIOWL1-15 | 2026-09-04 06:40:08 | 49.42317 | 8.66035 | 73° | 15km/h | 30475m | 6.4m/s | -43.7°C | 0% | 11.6hPa | 2.6V | 18:12:15 | 02:09:20 | 00:00:00 | |
| AA1-15 | 2026-09-04 06:40:03 | 49.42321 | 8.66010 | 156° | 15km/h | 30446m | 5.5m/s | -43.7°C | 0% | 11.6hPa | 2.6V | 18:12:15 | 02:09:15 | 00:00:00 | |
| HSKMA3-T | 2026-09-04 06:40:01 | 49.42328 | 8.66009 | 186° | 11km/h | 30436m | 5.6m/s | -43.7°C | 0% | 11.6hPa | 2.7V | 18:12:15 | 02:09:13 | 00:00:00 | |
| DL1XH-west | 2026-09-04 06:40:00 | 49.42330 | 8.66009 | 205° | 7km/h | 30430m | 6.5m/s | -43.6°C | 0% | 11.7hPa | 2.7V | 18:12:15 | 02:09:12 | 00:00:00 | |
| BIOWL1-15 | 2026-09-04 06:39:59 | 49.42329 | 8.66012 | 13° | 7km/h | 30413m | 4.7m/s | -43.7°C | 0% | 11.7hPa | 2.6V | 18:12:15 | 02:09:09 | 00:00:00 | |
| AA1-15 | 2026-09-04 06:39:52 | 49.42331 | 8.65995 | 121° | 16km/h | 30384m | 5.8m/s | -43.6°C | 0% | 11.7hPa | 2.6V | 18:12:15 | 02:09:04 | 00:00:00 | |
| PG1ADW-2 | 2026-09-04 06:39:52 | 49.42331 | 8.65995 | 121° | 15km/h | 30384m | 5.8m/s | -43.6°C | 2.7% | 11.7hPa | 2.7V | 00:00:00 | 02:09:04 | 00:00:00 | |
| DM0DOS-11 | 2026-09-04 06:39:51 | 49.42337 | 8.65969 | 126° | 9km/h | 30350m | 5.6m/s | -43.6°C | 2.6% | 11.8hPa | 2.7V | 08:30:00 | 02:08:58 | 00:00:00 | |
| HSKMA3-T | 2026-09-04 06:39:51 | 49.42333 | 8.65989 | 118° | 16km/h | 30378m | 5.9m/s | -43.6°C | 0% | 11.7hPa | 2.6V | 18:12:15 | 02:09:03 | 00:00:00 | |
| DL6DJ-15 | 2026-09-04 06:39:50 | 49.42334 | 8.65984 | 108° | 13km/h | 30372m | 6.6m/s | -43.5°C | 0.7% | 11.8hPa | 2.6V | 00:00:00 | 00:00:00 | 00:00:00 | |
| DL1XH1-15 | 2026-09-04 06:39:49 | 49.42342 | 8.65963 | 148° | 16km/h | 30337m | 6.1m/s | -43.5°C | 2.6% | 11.8hPa | 2.6V | 08:30:00 | 02:08:56 | 00:00:00 | |
| DL1XH-west | 2026-09-04 06:39:49 | 49.42335 | 8.65979 | 99° | 11km/h | 30365m | 5.7m/s | -43.4°C | 0% | 11.7hPa | 2.7V | 18:12:15 | 02:09:01 | 00:00:00 | |
| BIOWL1-15 | 2026-09-04 06:39:46 | 49.42337 | 8.65969 | 127° | 9km/h | 30350m | 5.6m/s | -43.6°C | 0% | 11.8hPa | 2.7V | 18:12:15 | 02:08:58 | 00:00:00 | |
| AA1-15 | 2026-09-04 06:39:42 | 49.42349 | 8.65955 | 135° | 18km/h | 30327m | 4.9m/s | -43.5°C | 0% | 11.8hPa | 2.7V | 18:12:15 | 02:08:54 | 00:00:00 | |
| HSKMA3-T | 2026-09-04 06:39:41 | 49.42352 | 8.65950 | 118° | 16km/h | 30321m | 6.2m/s | -43.6°C | 0% | 11.8hPa | 2.7V | 18:12:15 | 02:08:53 | 00:00:00 | |
| DL1XH-west | 2026-09-04 06:39:39 | 49.42353 | 8.65938 | 80° | 16km/h | 30308m | 5.9m/s | -43.5°C | 0% | 11.9hPa | 2.6V | 18:12:15 | 02:08:51 | 00:00:00 | |
| BIOWL1-15 | 2026-09-04 06:39:35 | 49.42353 | 8.65914 | 125° | 15km/h | 30285m | 5.9m/s | -43.6°C | 0% | 11.9hPa | 2.6V | 18:12:15 | 02:08:47 | 00:00:00 | |
| DO3MHA-11 | 2026-09-04 06:39:35 | 49.42353 | 8.65914 | 125° | 15km/h | 30286m | 5.9m/s | -43.5°C | 2.6% | 11.9hPa | 2.6V | 00:00:00 | 02:08:47 | 00:00:00 | |
| DJ2KF-10 | 2026-09-04 06:39:34 | 49.42355 | 8.65910 | 144° | 16km/h | 30280m | 5.4m/s | -43.6°C | 2.7% | 11.8hPa | 2.6V | 00:00:00 | 02:08:46 | 00:00:00 | |
| DB0UT-9 | 2026-09-04 06:39:33 | 49.42355 | 8.65910 | 145° | 15km/h | 30280m | 5.4m/s | -43.7°C | 0.7% | 11.9hPa | 2.6V | 00:00:00 | 00:00:00 | 00:00:00 | |
| DM0DOS-11 | 2026-09-04 06:39:32 | 49.42373 | 8.65894 | 140° | 18km/h | 30239m | 6.8m/s | -43.6°C | 2.6% | 12hPa | 2.6V | 08:30:00 | 02:08:39 | 00:00:00 | |
| AA1-15 | 2026-09-04 06:39:30 | 49.42366 | 8.65903 | 151° | 9km/h | 30256m | 5.5m/s | -43.5°C | 0% | 11.9hPa | 2.7V | 18:12:15 | 02:08:42 | 00:00:00 | |
| DL1XH-west | 2026-09-04 06:39:28 | 49.42370 | 8.65898 | 142° | 15km/h | 30245m | 5.5m/s | -43.6°C | 0% | 12hPa | 2.6V | 18:12:15 | 02:08:40 | 00:00:00 | |
| BIOWL1-15 | 2026-09-04 06:39:26 | 49.42385 | 8.65876 | 130° | 22km/h | 30222m | 4.9m/s | -43.6°C | 0% | 12hPa | 2.7V | 18:12:15 | 02:08:36 | 00:00:00 | |
| DO3MHA-11 | 2026-09-04 06:39:25 | 49.42381 | 8.65883 | 135° | 15km/h | 30227m | 5.0m/s | -43.5°C | 2.6% | 11.9hPa | 2.7V | 00:00:00 | 02:08:37 | 00:00:00 | |
| SONDE2-11 | 2026-09-04 06:39:24 | 49.42388 | 8.65870 | 122° | 16km/h | 30217m | 6.3m/s | -43.7°C | 0.7% | 12.0hPa | 2.7V | 00:00:00 | 00:00:00 | 00:00:00 | |
| DL3AQ-11 | 2026-09-04 06:39:23 | 49.42390 | 8.65865 | 114° | 13km/h | 30210m | 6.5m/s | -43.6°C | 0.7% | 12.1hPa | 2.7V | 00:00:00 | 00:00:00 | 00:00:00 | |
| DG9SBQ-11 | 2026-09-04 06:39:21 | 49.42390 | 8.65865 | 116° | 13km/h | 30211m | 6.5m/s | -43.5°C | 0.7% | 12.1hPa | 2.7V | 00:00:00 | 00:00:00 | 00:00:00 | |
| DM0DOS-11 | 2026-09-04 06:39:20 | 49.42411 | 8.65862 | 182° | 18km/h | 30169m | 5.2m/s | -43.8°C | 2.7% | 12.1hPa | 2.7V | 08:30:00 | 02:08:27 | 00:00:00 | |
| HSKMA3-T | 2026-09-04 06:39:20 | 49.42392 | 8.65859 | 147° | 5km/h | 30199m | 5.1m/s | -43.6°C | 0% | 12.1hPa | 2.7V | 18:12:15 | 02:08:32 | 00:00:00 | |
| AA1-15 | 2026-09-04 06:39:19 | 49.42394 | 8.65858 | 181° | 9km/h | 30193m | 6m/s | -43.7°C | 0% | 12.1hPa | 2.7V | 18:12:15 | 02:08:31 | 00:00:00 | |
| DL1XH-west | 2026-09-04 06:39:18 | 49.42397 | 8.65859 | 190° | 15km/h | 30187m | 6.9m/s | -43.8°C | 0% | 12.1hPa | 2.7V | 18:12:15 | 02:08:30 | 00:00:00 | |
| BIOWL1-15 | 2026-09-04 06:39:16 | 49.42415 | 8.65862 | 174° | 15km/h | 30163m | 6.4m/s | -43.9°C | 0% | 12.1hPa | 2.7V | 18:12:15 | 02:08:26 | 00:00:00 | |
| SONCRA | 2026-09-04 06:39:16 | 49.42411 | 8.65862 | 182° | 18km/h | 30169m | 5.2m/s | -43.8°C | 0.7% | 12.1hPa | 2.7V | 00:00:00 | 00:00:00 | 00:00:00 | |
| DO3MHA-11 | 2026-09-04 06:39:15 | 49.42411 | 8.65862 | 183° | 18km/h | 30170m | 5.2m/s | -43.7°C | 2.7% | 12.1hPa | 2.7V | 00:00:00 | 02:08:27 | 00:00:00 | |
| OE5DXL-15 | 2026-09-04 06:39:14 | 49.42415 | 8.65862 | 174° | 15km/h | 30164m | 6.3m/s | -43.8°C | 2.7% | 12.1hPa | 2.6V | 00:00:00 | 00:00:00 | 00:00:00 | |
| PG1ADW-2 | 2026-09-04 06:39:12 | 49.42420 | 8.65857 | 120° | 16km/h | 30151m | 5.7m/s | -43.8°C | 2.7% | 12.1hPa | 2.6V | 00:00:00 | 00:00:00 | 00:00:00 | |
| DL0LBS | 2026-09-04 06:39:11 | 49.42421 | 8.65857 | 121° | 13km/h | 30151m | 5.7m/s | -43.8°C | 0.7% | 12.1hPa | 2.6V | 00:00:00 | 00:00:00 | 00:00:00 | |
| DG9SBQ-11 | 2026-09-04 06:39:10 | 49.42422 | 8.65852 | 111° | 16km/h | 30146m | 5.1m/s | -43.9°C | 0.7% | 12.2hPa | 2.6V | 00:00:00 | 00:00:00 | 00:00:00 | |
| DL1XH1-15 | 2026-09-04 06:39:09 | 49.42447 | 8.65814 | 155° | 16km/h | 30105m | 6.5m/s | -43.8°C | 2.6% | 12.2hPa | 2.6V | 08:30:00 | 02:08:16 | 00:00:00 | |
| HSKMA3-T | 2026-09-04 06:39:09 | 49.42426 | 8.65839 | 123° | 20km/h | 30133m | 6.7m/s | -43.9°C | 0% | 12.2hPa | 2.6V | 18:12:15 | 02:08:21 | 00:00:00 | |
| AA1-15 | 2026-09-04 06:39:08 | 49.42429 | 8.65833 | 133° | 22km/h | 30127m | 5.7m/s | -43.8°C | 0% | 12.2hPa | 2.6V | 18:12:15 | 02:08:20 | 00:00:00 | |
| DL1XH-west | 2026-09-04 06:39:07 | 49.42433 | 8.65827 | 142° | 24km/h | 30122m | 5.1m/s | -43.8°C | 0% | 12.2hPa | 2.7V | 18:12:15 | 02:08:19 | 00:00:00 | |
| BIOWL1-15 | 2026-09-04 06:39:03 | 49.42450 | 8.65812 | 159° | 13km/h | 30099m | 5.6m/s | -43.8°C | 0% | 12.2hPa | 2.7V | 18:12:15 | 02:08:15 | 00:00:00 | |
| DO1YAY-16 | 2026-09-04 06:39:01 | 49.42460 | 8.65809 | 174° | 16km/h | 30083m | 6.2m/s | -43.9°C | 0.7% | 12.3hPa | 2.6V | 00:00:00 | 00:00:00 | 00:00:00 | |
| DG1MJG | 2026-09-04 06:39:00 | 49.42456 | 8.65810 | 172° | 15km/h | 30089m | 5.1m/s | -43.9°C | 0.7% | 12.3hPa | 2.6V | 00:00:00 | 00:00:00 | 00:00:00 | |
| DL1XH1-15 | 2026-09-04 06:38:59 | 49.42481 | 8.65806 | 28° | 4km/h | 30048m | 7.1m/s | -44°C | 2.7% | 12.3hPa | 2.6V | 08:30:00 | 02:08:06 | 00:00:00 | |
| HSKMA3-T | 2026-09-04 06:38:59 | 49.42465 | 8.65809 | 176° | 20km/h | 30077m | 6.3m/s | -43.9°C | 0% | 12.3hPa | 2.6V | 18:12:15 | 02:08:11 | 00:00:00 | |
| DL1XH-west | 2026-09-04 06:38:57 | 49.42475 | 8.65808 | 176° | 16km/h | 30066m | 4.5m/s | -43.9°C | 0% | 12.3hPa | 2.7V | 18:12:15 | 02:08:09 | 00:00:00 | |
| DL1ZP-14 | 2026-09-04 06:38:57 | 49.42475 | 8.65808 | 176° | 16km/h | 30066m | 4.5m/s | -43.9°C | 0.7% | 12.3hPa | 2.7V | 00:00:00 | 00:00:00 | 00:00:00 | |
| DL3AQ-11 | 2026-09-04 06:38:56 | 49.42480 | 8.65807 | 168° | 4km/h | 30055m | 6.6m/s | -44.0°C | 0.7% | 12.3hPa | 2.7V | 00:00:00 | 00:00:00 | 00:00:00 | |
| DO3MHA-11 | 2026-09-04 06:38:55 | 49.42480 | 8.65807 | 169° | 11km/h | 30056m | 6.5m/s | -43.9°C | 2.7% | 12.3hPa | 2.7V | 00:00:00 | 02:08:07 | 00:00:00 | |
| DM0DOS-11 | 2026-09-04 06:38:54 | 49.42478 | 8.65798 | 149° | 15km/h | 30020m | 5.7m/s | -44.1°C | 2.7% | 12.4hPa | 2.7V | 08:30:00 | 02:08:01 | 00:00:00 | |
| BIOWL1-15 | 2026-09-04 06:38:53 | 49.42479 | 8.65806 | 17° | 7km/h | 30042m | 5.6m/s | -43.9°C | 0% | 12.3hPa | 2.6V | 18:12:15 | 02:08:05 | 00:00:00 | |
| SONDE2-11 | 2026-09-04 06:38:53 | 49.42478 | 8.65804 | 27° | 7km/h | 30037m | 4.6m/s | -44.0°C | 0.7% | 12.3hPa | 2.7V | 00:00:00 | 00:00:00 | 00:00:00 | |
| PG1ADW-2 | 2026-09-04 06:38:52 | 49.42477 | 8.65804 | 28° | 15km/h | 30037m | 4.5m/s | -44.0°C | 2.7% | 12.3hPa | 2.7V | 00:00:00 | 00:00:00 | 00:00:00 | |
| DL1XH1-15 | 2026-09-04 06:38:49 | 49.42502 | 8.65796 | 202° | 16km/h | 29992m | 6.1m/s | -44.4°C | 2.8% | 12.4hPa | 2.7V | 08:30:00 | 02:07:56 | 00:00:00 | |
| HSKMA3-T | 2026-09-04 06:38:48 | 49.42482 | 8.65795 | 162° | 20km/h | 30015m | 4.9m/s | -44.2°C | 0% | 12.4hPa | 2.6V | 18:12:15 | 02:08:00 | 00:00:00 | |
| AA1-15 | 2026-09-04 06:38:47 | 49.42487 | 8.65793 | 172° | 22km/h | 30010m | 5m/s | -44.3°C | 0% | 12.4hPa | 2.6V | 18:12:15 | 02:07:59 | 00:00:00 | |
| DL1XH-west | 2026-09-04 06:38:46 | 49.42493 | 8.65793 | 181° | 22km/h | 30005m | 5.7m/s | -44.3°C | 0% | 12.4hPa | 2.6V | 18:12:15 | 02:07:58 | 00:00:00 | |
| BIOWL1-15 | 2026-09-04 06:38:42 | 49.42507 | 8.65801 | 220° | 9km/h | 29981m | 4.9m/s | -44.3°C | 0% | 12.5hPa | 2.6V | 18:12:15 | 02:07:54 | 00:00:00 | |
| DL1XH1-15 | 2026-09-04 06:38:39 | 49.42535 | 8.65789 | 135° | 18km/h | 29938m | 6.3m/s | -44.2°C | 2.7% | 12.6hPa | 2.7V | 08:30:00 | 02:07:46 | 00:00:00 | |
| HSKMA3-T | 2026-09-04 06:38:38 | 49.42517 | 8.65803 | 167° | 16km/h | 29959m | 6.2m/s | -44.3°C | 0% | 12.5hPa | 2.7V | 18:12:15 | 02:07:50 | 00:00:00 | |
| DD1CC8 | 2026-09-04 06:38:38 | 49.42517 | 8.65803 | 166° | 16km/h | 29960m | 6.2m/s | -44.3°C | 0.7% | 12.5hPa | 2.6V | 00:00:00 | 00:00:00 | 00:00:00 | |
| DM0DOS-11 | 2026-09-04 06:38:37 | 49.42539 | 8.65780 | 98° | 11km/h | 29925m | 5.9m/s | -44.1°C | 2.7% | 12.6hPa | 2.6V | 08:30:00 | 02:07:44 | 00:00:00 | |
| AA1-15 | 2026-09-04 06:38:37 | 49.42522 | 8.65801 | 162° | 22km/h | 29953m | 5.6m/s | -44.2°C | 0% | 12.5hPa | 2.7V | 18:12:15 | 02:07:49 | 00:00:00 | |
| DL1XH-west | 2026-09-04 06:38:35 | 49.42531 | 8.65794 | 148° | 20km/h | 29943m | 4.7m/s | -44.2°C | 0% | 12.5hPa | 2.6V | 18:12:15 | 02:07:47 | 00:00:00 | |
| BIOWL1-15 | 2026-09-04 06:38:31 | 49.42539 | 8.65776 | 93° | 9km/h | 29919m | 5.2m/s | -44.1°C | 0% | 12.6hPa | 2.6V | 18:12:15 | 02:07:43 | 00:00:00 | |
| DO1YAY-16 | 2026-09-04 06:38:30 | 49.42540 | 8.65770 | 131° | 7km/h | 29907m | 6.0m/s | -44.2°C | 0.7% | 12.6hPa | 2.6V | 00:00:00 | 00:00:00 | 00:00:00 | |
| DL1XH1-15 | 2026-09-04 06:38:29 | 49.42548 | 8.65759 | 126° | 11km/h | 29879m | 5.1m/s | -44.2°C | 2.7% | 12.7hPa | 2.6V | 08:30:00 | 02:07:36 | 00:00:00 | |
| AA1-15 | 2026-09-04 06:38:27 | 49.42544 | 8.65766 | 148° | 9km/h | 29897m | 4.6m/s | -44.1°C | 0% | 12.6hPa | 2.6V | 18:12:15 | 02:07:39 | 00:00:00 | |
| DL1XH-west | 2026-09-04 06:38:24 | 49.42548 | 8.65759 | 126° | 11km/h | 29879m | 5.1m/s | -44.2°C | 0% | 12.7hPa | 2.6V | 18:12:15 | 02:07:36 | 00:00:00 | |
| BIOWL1-15 | 2026-09-04 06:38:21 | 49.42557 | 8.65746 | 142° | 22km/h | 29862m | 6.6m/s | -44.4°C | 0% | 12.7hPa | 2.7V | 18:12:15 | 02:07:33 | 00:00:00 | |
| DL8DAS-14 | 2026-09-04 06:38:21 | 49.42557 | 8.65746 | 142° | 20km/h | 29862m | 6.6m/s | -44.4°C | 0.7% | 12.7hPa | 2.6V | 00:00:00 | 00:00:00 | 00:00:00 | |
| DG9SBQ-11 | 2026-09-04 06:38:20 | 49.42557 | 8.65746 | 143° | 22km/h | 29862m | 6.6m/s | -44.4°C | 0.7% | 12.7hPa | 2.6V | 00:00:00 | 00:00:00 | 00:00:00 | |
| DL1XH1-15 | 2026-09-04 06:38:19 | 49.42566 | 8.65717 | 23° | 11km/h | 29823m | 4.8m/s | -44.5°C | 2.9% | 12.8hPa | 2.6V | 08:30:00 | 02:07:26 | 00:00:00 | |
| AA1-15 | 2026-09-04 06:38:16 | 49.42570 | 8.65722 | 63° | 9km/h | 29833m | 6m/s | -44.3°C | 0% | 12.8hPa | 2.7V | 18:12:15 | 02:07:28 | 00:00:00 | |
| DL1XH-west | 2026-09-04 06:38:14 | 49.42566 | 8.65717 | 24° | 11km/h | 29823m | 4.8m/s | -44.5°C | 0% | 12.8hPa | 2.6V | 18:12:15 | 02:07:26 | 00:00:00 | |
| BIOWL1-15 | 2026-09-04 06:38:10 | 49.42565 | 8.65711 | 140° | 11km/h | 29801m | 5m/s | -44.5°C | 0% | 12.8hPa | 2.7V | 18:12:15 | 02:07:22 | 00:00:00 | |
| DL1XH1-15 | 2026-09-04 06:38:09 | 49.42578 | 8.65675 | 118° | 18km/h | 29767m | 5.6m/s | -44.3°C | 2.7% | 12.9hPa | 2.7V | 08:30:00 | 02:07:16 | 00:00:00 | |
| AA1-15 | 2026-09-04 06:38:06 | 49.42574 | 8.65689 | 109° | 20km/h | 29778m | 5.2m/s | -44.4°C | 0% | 12.9hPa | 2.7V | 18:12:15 | 02:07:18 | 00:00:00 | |
| HSKMA3-T | 2026-09-04 06:38:05 | 49.42576 | 8.65682 | 111° | 20km/h | 29773m | 5.1m/s | -44.3°C | 0% | 12.8hPa | 2.7V | 18:12:15 | 02:07:17 | 00:00:00 | |
| DL1XH-west | 2026-09-04 06:38:03 | 49.42580 | 8.65670 | 132° | 16km/h | 29761m | 6.5m/s | -44.3°C | 0% | 12.9hPa | 2.6V | 18:12:15 | 02:07:15 | 00:00:00 | |
| BIOWL1-15 | 2026-09-04 06:38:02 | 49.42588 | 8.65663 | 168° | 7km/h | 29745m | 5m/s | -44.2°C | 0% | 12.9hPa | 2.7V | 18:12:15 | 02:07:12 | 00:00:00 | |
| DF7PN | 2026-09-04 06:38:01 | 49.42586 | 8.65664 | 160° | 11km/h | 29750m | 4.8m/s | -44.3°C | 0.7% | 12.9hPa | 2.7V | 00:00:00 | 00:00:00 | 00:00:00 | |
| DO1YAY-16 | 2026-09-04 06:37:59 | 49.42589 | 8.65662 | 24° | 4km/h | 29733m | 6.3m/s | -44.3°C | 0.7% | 12.9hPa | 2.7V | 00:00:00 | 00:00:00 | 00:00:00 | |
| DG9SBQ-11 | 2026-09-04 06:37:58 | 49.42589 | 8.65662 | 145° | 2km/h | 29739m | 6.5m/s | -44.2°C | 0.7% | 12.9hPa | 2.7V | 00:00:00 | 00:00:00 | 00:00:00 | |
| DM0DOS-11 | 2026-09-04 06:37:57 | 49.42591 | 8.65650 | 138° | 18km/h | 29699m | 5.2m/s | -44.3°C | 2.7% | 13hPa | 2.7V | 08:30:00 | 02:07:04 | 00:00:00 | |
| AA1-15 | 2026-09-04 06:37:56 | 49.42587 | 8.65660 | 38° | 5km/h | 29722m | 4.7m/s | -44.2°C | 0% | 13hPa | 2.6V | 18:12:15 | 02:07:08 | 00:00:00 | |
| HSKMA3-T | 2026-09-04 06:37:55 | 49.42586 | 8.65658 | 86° | 4km/h | 29717m | 5.7m/s | -44.2°C | 0% | 13hPa | 2.6V | 18:12:15 | 02:07:07 | 00:00:00 | |
| DL1XH-west | 2026-09-04 06:37:53 | 49.42589 | 8.65654 | 143° | 13km/h | 29705m | 5.7m/s | -44.3°C | 0% | 13hPa | 2.7V | 18:12:15 | 02:07:05 | 00:00:00 | |
| BIOWL1-15 | 2026-09-04 06:37:50 | 49.42598 | 8.65638 | 122° | 22km/h | 29688m | 6.5m/s | -44.3°C | 0% | 13hPa | 2.6V | 18:12:15 | 02:07:02 | 00:00:00 | |
| DL1XH1-15 | 2026-09-04 06:37:49 | 49.42608 | 8.65617 | 247° | 5km/h | 29654m | 4.8m/s | -44.4°C | 2.8% | 13.1hPa | 2.6V | 08:30:00 | 02:06:56 | 00:00:00 | |
| AA1-15 | 2026-09-04 06:37:45 | 49.42607 | 8.65616 | 201° | 5km/h | 29659m | 5.7m/s | -44.3°C | 0% | 13.1hPa | 2.6V | 18:12:15 | 02:06:57 | 00:00:00 | |
| DF3TZ-5 | 2026-09-04 06:37:45 | 49.42607 | 8.65616 | 201° | 4km/h | 29659m | 5.7m/s | -44.3°C | 0.7% | 13.1hPa | 2.6V | 00:00:00 | 00:00:00 | 00:00:00 | |
| DL1XH-west | 2026-09-04 06:37:43 | 49.42608 | 8.65620 | 274° | 5km/h | 29649m | 5m/s | -44.4°C | 0% | 13.1hPa | 2.6V | 18:12:15 | 02:06:55 | 00:00:00 | |
| BIOWL1-15 | 2026-09-04 06:37:41 | 49.42608 | 8.65616 | 119° | 15km/h | 29628m | 4.6m/s | -44.4°C | 0% | 13.2hPa | 2.6V | 18:12:15 | 02:06:51 | 00:00:00 | |
| DL1XH1-15 | 2026-09-04 06:37:39 | 49.42633 | 8.65588 | 147° | 27km/h | 29599m | 5.3m/s | -44.4°C | 2.7% | 13.2hPa | 2.7V | 08:30:00 | 02:06:46 | 00:00:00 | |
| HSKMA3-T | 2026-09-04 06:37:35 | 49.42627 | 8.65594 | 151° | 31km/h | 29604m | 5m/s | -44.4°C | 0% | 13.2hPa | 2.7V | 18:12:15 | 02:06:47 | 00:00:00 | |
| BIOWL1-15 | 2026-09-04 06:37:34 | 49.42646 | 8.65581 | 262° | 13km/h | 29566m | 6.2m/s | -44.5°C | 0% | 13.3hPa | 2.6V | 18:12:15 | 02:06:40 | 00:00:00 | |
| AA1-15 | 2026-09-04 06:37:34 | 49.42633 | 8.65588 | 147° | 27km/h | 29599m | 5.3m/s | -44.4°C | 0% | 13.2hPa | 2.7V | 18:12:15 | 02:06:46 | 00:00:00 | |
| DL1XH-west | 2026-09-04 06:37:33 | 49.42639 | 8.65583 | 143° | 22km/h | 29594m | 5.8m/s | -44.4°C | 0% | 13.2hPa | 2.6V | 18:12:15 | 02:06:45 | 00:00:00 | |
| DJ2KF-10 | 2026-09-04 06:37:33 | 49.42638 | 8.65582 | 143° | 11km/h | 29594m | 5.7m/s | -44.4°C | 2.8% | 13.2hPa | 2.6V | 00:00:00 | 02:06:45 | 00:00:00 | |
| PG1ADW-2 | 2026-09-04 06:37:32 | 49.42642 | 8.65578 | 137° | 11km/h | 29588m | 4.8m/s | -44.2°C | 2.7% | 13.2hPa | 2.6V | 00:00:00 | 00:00:00 | 00:00:00 | |
| HEMX73-11 | 2026-09-04 06:37:31 | 49.42642 | 8.65578 | 138° | 15km/h | 29588m | 4.9m/s | -44.3°C | 0.7% | 13.2hPa | 2.6V | 00:00:00 | 00:00:00 | 00:00:00 | |
| DF7PN | 2026-09-04 06:37:30 | 49.42645 | 8.65575 | 235° | 2km/h | 29579m | 5.3m/s | -44.3°C | 0.7% | 13.2hPa | 2.6V | 00:00:00 | 00:00:00 | 00:00:00 | |
| DL1XH1-15 | 2026-09-04 06:37:29 | 49.42649 | 8.65595 | 146° | 5km/h | 29544m | 6.2m/s | -44.6°C | 2.7% | 13.3hPa | 2.6V | 08:30:00 | 02:06:36 | 00:00:00 | |
| AA1-15 | 2026-09-04 06:37:24 | 49.42649 | 8.65595 | 146° | 5km/h | 29544m | 6.2m/s | -44.6°C | 0% | 13.3hPa | 2.6V | 18:12:15 | 02:06:36 | 00:00:00 | |
| DL1XH-west | 2026-09-04 06:37:22 | 49.42652 | 8.65587 | 119° | 18km/h | 29533m | 4.8m/s | -44.7°C | 0% | 13.3hPa | 2.7V | 18:12:15 | 02:06:34 | 00:00:00 | |
| DL1XH1-15 | 2026-09-04 06:37:19 | 49.42674 | 8.65562 | 318° | 4km/h | 29489m | 5.4m/s | -44.7°C | 2.8% | 13.4hPa | 2.7V | 08:30:00 | 02:06:26 | 00:00:00 | |
| BIOWL1-15 | 2026-09-04 06:37:17 | 49.42671 | 8.65563 | 163° | 13km/h | 29507m | 4.6m/s | -44.8°C | 0% | 13.4hPa | 2.6V | 18:12:15 | 02:06:29 | 00:00:00 | |
| AA1-15 | 2026-09-04 06:37:13 | 49.42673 | 8.65564 | 311° | 7km/h | 29484m | 5.3m/s | -44.7°C | 0% | 13.4hPa | 2.6V | 18:12:15 | 02:06:25 | 00:00:00 | |
| DL1XH-west | 2026-09-04 06:37:11 | 49.42672 | 8.65569 | 265° | 9km/h | 29473m | 6.2m/s | -44.7°C | 0% | 13.5hPa | 2.7V | 18:12:15 | 02:06:23 | 00:00:00 | |
| HEMX73-11 | 2026-09-04 06:37:10 | 49.42671 | 8.65569 | 266° | 9km/h | 29473m | 6.2m/s | -44.7°C | 0.7% | 13.5hPa | 2.7V | 00:00:00 | 00:00:00 | 00:00:00 | |
| DL1XH1-15 | 2026-09-04 06:37:09 | 49.42680 | 8.65557 | 102° | 16km/h | 29435m | 4.7m/s | -45.1°C | 2.8% | 13.5hPa | 2.7V | 08:30:00 | 02:06:16 | 00:00:00 | |
| BIOWL1-15 | 2026-09-04 06:37:07 | 49.42677 | 8.65573 | 130° | 9km/h | 29452m | 6.5m/s | -44.9°C | 0% | 13.5hPa | 2.6V | 18:12:15 | 02:06:19 | 00:00:00 | |
| HSKMA3-T | 2026-09-04 06:37:03 | 49.42681 | 8.65551 | 110° | 15km/h | 29430m | 4.7m/s | -45°C | 0% | 13.5hPa | 2.7V | 18:12:15 | 02:06:15 | 00:00:00 | |
| AA1-15 | 2026-09-04 06:37:02 | 49.42682 | 8.65547 | 127° | 11km/h | 29425m | 6m/s | -45°C | 0% | 13.6hPa | 2.6V | 18:12:15 | 02:06:14 | 00:00:00 | |
| DL1XH-west | 2026-09-04 06:37:00 | 49.42686 | 8.65544 | 201° | 7km/h | 29414m | 4.8m/s | -45°C | 0% | 13.6hPa | 2.6V | 18:12:15 | 02:06:12 | 00:00:00 | |
| DL1XH1-15 | 2026-09-04 06:36:59 | 49.42681 | 8.65555 | 339° | 4km/h | 29381m | 5.1m/s | -45.3°C | 2.9% | 13.7hPa | 2.6V | 08:30:00 | 02:06:06 | 00:00:00 | |
| BIOWL1-15 | 2026-09-04 06:36:59 | 49.42686 | 8.65551 | 315° | 9km/h | 29397m | 6.1m/s | -45.3°C | 0% | 13.6hPa | 2.7V | 18:12:15 | 02:06:09 | 00:00:00 | |
| AA1-15 | 2026-09-04 06:36:52 | 49.42681 | 8.65555 | 176° | 5km/h | 29369m | 5.9m/s | -45.3°C | 0.1% | 13.7hPa | 2.7V | 18:12:15 | 02:06:04 | 00:00:00 | |
| DL1XH-west | 2026-09-04 06:36:50 | 49.42685 | 8.65553 | 152° | 9km/h | 29359m | 4.7m/s | -45.3°C | 0.1% | 13.7hPa | 2.6V | 18:12:15 | 02:06:02 | 00:00:00 | |
| DL1XH1-15 | 2026-09-04 06:36:49 | 49.42680 | 8.65551 | 301° | 11km/h | 29325m | 6.4m/s | -45.1°C | 2.8% | 13.8hPa | 2.6V | 08:30:00 | 02:05:56 | 00:00:00 | |
| BIOWL1-15 | 2026-09-04 06:36:46 | 49.42684 | 8.65548 | 355° | 9km/h | 29337m | 5m/s | -45.3°C | 0% | 13.7hPa | 2.7V | 18:12:15 | 02:05:58 | 00:00:00 | |
| BIOWL9-15 | 2026-09-04 06:36:45 | 49.42682 | 8.65549 | 328° | 9km/h | 29332m | 5.5m/s | -45.2°C | 0.7% | 13.8hPa | 2.6V | 00:00:00 | 00:00:00 | 00:00:00 | |
| AA1-15 | 2026-09-04 06:36:42 | 49.42679 | 8.65559 | 263° | 9km/h | 29315m | 4.3m/s | -45°C | 0% | 13.8hPa | 2.6V | 18:12:15 | 02:05:54 | 00:00:00 | |
| DL1XH-west | 2026-09-04 06:36:40 | 49.42680 | 8.65564 | 237° | 2km/h | 29305m | 5.8m/s | -45.1°C | 0% | 13.8hPa | 2.7V | 18:12:15 | 02:05:52 | 00:00:00 | |
| DL1XH1-15 | 2026-09-04 06:36:39 | 49.42685 | 8.65547 | 149° | 9km/h | 29272m | 5.3m/s | -45.1°C | 2.8% | 13.9hPa | 2.7V | 08:30:00 | 02:05:46 | 00:00:00 | |
| BIOWL1-15 | 2026-09-04 06:36:36 | 49.42682 | 8.65553 | 113° | 11km/h | 29283m | 5.3m/s | -45°C | 0% | 13.9hPa | 2.6V | 18:12:15 | 02:05:48 | 00:00:00 | |
| AA1-15 | 2026-09-04 06:36:31 | 49.42689 | 8.65544 | 123° | 2km/h | 29256m | 6.4m/s | -45.3°C | 0% | 13.9hPa | 2.6V | 18:12:15 | 02:05:43 | 00:00:00 | |
| DL1XH-west | 2026-09-04 06:36:30 | 49.42689 | 8.65543 | 49° | 4km/h | 29250m | 5.7m/s | -45.3°C | 0% | 13.9hPa | 2.6V | 18:12:15 | 02:05:42 | 00:00:00 | |
| BIOWL1-15 | 2026-09-04 06:36:25 | 49.42691 | 8.65543 | 187° | 11km/h | 29223m | 5.3m/s | -45.4°C | 0% | 14hPa | 2.6V | 18:12:15 | 02:05:37 | 00:00:00 | |
| HSKMA3-T | 2026-09-04 06:36:21 | 49.42700 | 8.65537 | 117° | 11km/h | 29200m | 5.7m/s | -45.2°C | 0% | 14.1hPa | 2.7V | 18:12:15 | 02:05:33 | 00:00:00 | |
| DL1XH-west | 2026-09-04 06:36:20 | 49.42701 | 8.65533 | 113° | 11km/h | 29195m | 4.7m/s | -45.2°C | 0% | 14.1hPa | 2.6V | 18:12:15 | 02:05:32 | 00:00:00 | |
| BIOWL1-15 | 2026-09-04 06:36:15 | 49.42707 | 8.65523 | 166° | 2km/h | 29167m | 6.3m/s | -45.6°C | 0.1% | 14.1hPa | 2.7V | 18:12:15 | 02:05:27 | 00:00:00 | |
| DJ2DS-15 | 2026-09-04 06:36:15 | 49.42707 | 8.65523 | 166° | 7km/h | 29167m | 6.2m/s | -45.6°C | 2.9% | 14.1hPa | 2.7V | 00:00:00 | 02:05:27 | 08:30:00 | |
| OE5DXL-15 | 2026-09-04 06:36:14 | 49.42707 | 8.65523 | 1° | 9km/h | 29161m | 6.2m/s | -45.6°C | 2.9% | 14.0hPa | 2.6V | 00:00:00 | 00:00:00 | 00:00:00 | |
| DL6DJ-15 | 2026-09-04 06:36:13 | 49.42706 | 8.65523 | 69° | 0km/h | 29151m | 3.9m/s | -45.7°C | 0.8% | 14.1hPa | 2.6V | 00:00:00 | 00:00:00 | 00:00:00 | |
| DM0DOS-11 | 2026-09-04 06:36:12 | 49.42715 | 8.65514 | 124° | 11km/h | 29123m | 5.6m/s | -45.5°C | 2.9% | 14.2hPa | 2.6V | 08:30:00 | 02:05:19 | 00:00:00 | |
| BIOWL1-15 | 2026-09-04 06:36:12 | 49.42716 | 8.65501 | 74° | 13km/h | 29106m | 4.9m/s | -45.4°C | 0% | 14.2hPa | 2.7V | 18:12:15 | 02:05:16 | 00:00:00 | |
| HSKMA3-T | 2026-09-04 06:36:11 | 49.42707 | 8.65522 | 149° | 4km/h | 29146m | 5.9m/s | -45.6°C | 0.1% | 14.2hPa | 2.7V | 18:12:15 | 02:05:23 | 00:00:00 | |
| AA1-15 | 2026-09-04 06:36:10 | 49.42708 | 8.65521 | 158° | 7km/h | 29140m | 6.6m/s | -45.6°C | 0% | 14.2hPa | 2.7V | 18:12:15 | 02:05:22 | 00:00:00 | |
| DL1XH-west | 2026-09-04 06:36:09 | 49.42710 | 8.65520 | 154° | 11km/h | 29134m | 5.6m/s | -45.5°C | 0% | 14.2hPa | 2.7V | 18:12:15 | 02:05:21 | 00:00:00 | |
| DB0UT-9 | 2026-09-04 06:36:08 | 49.42710 | 8.65519 | 155° | 11km/h | 29134m | 5.6m/s | -45.5°C | 0.8% | 14.2hPa | 2.6V | 00:00:00 | 00:00:00 | 00:00:00 | |
| DB0NH | 2026-09-04 06:36:07 | 49.42715 | 8.65514 | 125° | 9km/h | 29124m | 5.6m/s | -45.4°C | 2.9% | 14.1hPa | 2.6V | 00:00:00 | 02:05:19 | 00:00:00 | |
| DO3MHA-11 | 2026-09-04 06:36:05 | 49.42716 | 8.65505 | 82° | 9km/h | 29112m | 5.4m/s | -45.3°C | 2.8% | 14.2hPa | 2.6V | 00:00:00 | 02:05:17 | 00:00:00 | |
| DM3KS-11 | 2026-09-04 06:36:01 | 49.42715 | 8.65489 | 107° | 7km/h | 29090m | 4.9m/s | -45.5°C | 0.7% | 14.3hPa | 2.6V | 00:00:00 | 00:00:00 | 00:00:00 | |
| DM0DOS-11 | 2026-09-04 06:36:00 | 49.42715 | 8.65471 | 92° | 5km/h | 29057m | 4.5m/s | -45.7°C | 2.9% | 14.3hPa | 2.6V | 08:30:00 | 02:05:07 | 00:00:00 | |
| HSKMA3-T | 2026-09-04 06:36:00 | 49.42716 | 8.65486 | 111° | 9km/h | 29085m | 4.7m/s | -45.5°C | 0% | 14.3hPa | 2.6V | 18:12:15 | 02:05:12 | 00:00:00 | |
| AA1-15 | 2026-09-04 06:35:59 | 49.42716 | 8.65483 | 103° | 9km/h | 29079m | 5.2m/s | -45.5°C | 0% | 14.3hPa | 2.7V | 18:12:15 | 02:05:11 | 00:00:00 | |
| DL1XH-west | 2026-09-04 06:35:58 | 49.42717 | 8.65480 | 88° | 9km/h | 29074m | 6.5m/s | -45.5°C | 0% | 14.3hPa | 2.7V | 18:12:15 | 02:05:10 | 00:00:00 | |
| BIOWL1-15 | 2026-09-04 06:35:53 | 49.42718 | 8.65468 | 158° | 9km/h | 29046m | 6.2m/s | -45.7°C | 0% | 14.3hPa | 2.7V | 18:12:15 | 02:05:05 | 00:00:00 | |
| AU51GT2 | 2026-09-04 06:35:51 | 49.42724 | 8.65463 | 126° | 7km/h | 29032m | 4.9m/s | -45.7°C | 0.7% | 14.4hPa | 2.6V | 00:00:00 | 00:00:00 | 00:00:00 | |
| DN1GJH-1 | 2026-09-04 06:35:50 | 49.42723 | 8.65465 | 154° | 11km/h | 29036m | 4.0m/s | -45.7°C | 0.8% | 14.4hPa | 2.6V | 00:00:00 | 00:00:00 | 00:00:00 | |
| DL1XH1-15 | 2026-09-04 06:35:49 | 49.42710 | 8.65451 | 350° | 9km/h | 28996m | 5.9m/s | -46°C | 2.9% | 14.5hPa | 2.6V | 08:30:00 | 02:04:56 | 00:00:00 | |
| HSKMA3-T | 2026-09-04 06:35:49 | 49.42725 | 8.65460 | 73° | 7km/h | 29025m | 6.4m/s | -45.7°C | 0% | 14.4hPa | 2.6V | 18:12:15 | 02:05:01 | 00:00:00 | |
| AA1-15 | 2026-09-04 06:35:48 | 49.42723 | 8.65457 | 41° | 13km/h | 29019m | 6.5m/s | -45.7°C | 0% | 14.4hPa | 2.6V | 18:12:15 | 02:05:00 | 00:00:00 | |
| DL8DAS-14 | 2026-09-04 06:35:46 | 49.42713 | 8.65451 | 5° | 13km/h | 29002m | 5.8m/s | -45.9°C | 0.7% | 14.5hPa | 2.6V | 00:00:00 | 00:00:00 | 00:00:00 | |
| BIOWL1-15 | 2026-09-04 06:35:43 | 49.42708 | 8.65452 | 329° | 5km/h | 28991m | 5m/s | -46°C | 0% | 14.5hPa | 2.6V | 18:12:15 | 02:04:55 | 00:00:00 | |
| BIOWL9-15 | 2026-09-04 06:35:43 | 49.42707 | 8.65453 | 293° | 0km/h | 28986m | 4.4m/s | -45.9°C | 0.7% | 14.5hPa | 2.7V | 00:00:00 | 00:00:00 | 00:00:00 | |
| DL6DJ-15 | 2026-09-04 06:35:42 | 49.42707 | 8.65452 | 107° | 2km/h | 28981m | 5.9m/s | -46.0°C | 0.8% | 14.5hPa | 2.7V | 00:00:00 | 00:00:00 | 00:00:00 | |
| DF3TZ-5 | 2026-09-04 06:35:41 | 49.42708 | 8.65451 | 104° | 7km/h | 28975m | 6.2m/s | -46.0°C | 0.7% | 14.5hPa | 2.7V | 00:00:00 | 00:00:00 | 00:00:00 | |
| DL1XH1-15 | 2026-09-04 06:35:39 | 49.42714 | 8.65421 | 135° | 4km/h | 28941m | 5m/s | -46.1°C | 3% | 14.6hPa | 2.7V | 08:30:00 | 02:04:46 | 00:00:00 | |
| HSKMA3-T | 2026-09-04 06:35:39 | 49.42708 | 8.65447 | 101° | 13km/h | 28969m | 5.8m/s | -46°C | 0.1% | 14.5hPa | 2.7V | 18:12:15 | 02:04:51 | 00:00:00 | |
| DL1XH-west | 2026-09-04 06:35:38 | 49.42709 | 8.65441 | 101° | 16km/h | 28963m | 5.2m/s | -46.1°C | 0.1% | 14.5hPa | 2.6V | 18:12:15 | 02:04:50 | 00:00:00 | |
| AA1-15 | 2026-09-04 06:35:37 | 49.42710 | 8.65434 | 104° | 18km/h | 28958m | 5.2m/s | -46.1°C | 0.1% | 14.6hPa | 2.6V | 18:12:15 | 02:04:49 | 00:00:00 | |
| BIOWL1-15 | 2026-09-04 06:35:32 | 49.42713 | 8.65422 | 323° | 11km/h | 28931m | 5.9m/s | -46.2°C | 0.1% | 14.6hPa | 2.6V | 18:12:15 | 02:04:44 | 00:00:00 | |
| DB0UT-7 | 2026-09-04 06:35:32 | 49.42712 | 8.65422 | 323° | 9km/h | 28931m | 5.8m/s | -46.2°C | 3.0% | 14.6hPa | 2.6V | 00:00:00 | 00:00:00 | 00:00:00 | |
| SFWM-10 | 2026-09-04 06:35:31 | 49.42712 | 8.65422 | 323° | 11km/h | 28931m | 5.9m/s | -46.2°C | 0.8% | 14.6hPa | 2.6V | 00:00:00 | 00:00:00 | 00:00:00 | |
| DM3KS-11 | 2026-09-04 06:35:30 | 49.42700 | 8.65432 | 339° | 22km/h | 28912m | 4.5m/s | -46.5°C | 0.8% | 14.7hPa | 2.6V | 00:00:00 | 00:00:00 | 00:00:00 | |
| DL1XH1-15 | 2026-09-04 06:35:29 | 49.42693 | 8.65442 | 185° | 13km/h | 28885m | 5.3m/s | -46.5°C | 2.9% | 14.7hPa | 2.6V | 08:30:00 | 02:04:36 | 00:00:00 | |
| HSKMA3-T | 2026-09-04 06:35:28 | 49.42695 | 8.65435 | 339° | 18km/h | 28908m | 4.1m/s | -46.4°C | 0.1% | 14.7hPa | 2.7V | 18:12:15 | 02:04:40 | 00:00:00 | |
| DL1XH-west | 2026-09-04 06:35:27 | 49.42691 | 8.65437 | 332° | 13km/h | 28903m | 5.7m/s | -46.4°C | 0.1% | 14.7hPa | 2.7V | 18:12:15 | 02:04:39 | 00:00:00 | |
| AA1-15 | 2026-09-04 06:35:26 | 49.42690 | 8.65439 | 290° | 5km/h | 28897m | 6.6m/s | -46.4°C | 0% | 14.7hPa | 2.6V | 18:12:15 | 02:04:38 | 00:00:00 | |
| DF7PN | 2026-09-04 06:35:26 | 49.42690 | 8.65441 | 204° | 7km/h | 28891m | 6.0m/s | -46.5°C | 0.8% | 14.7hPa | 2.6V | 00:00:00 | 00:00:00 | 00:00:00 | |
| DO3MHA-11 | 2026-09-04 06:35:25 | 49.42690 | 8.65440 | 205° | 7km/h | 28891m | 6.0m/s | -46.4°C | 2.9% | 14.7hPa | 2.6V | 00:00:00 | 02:04:37 | 00:00:00 | |
| DM0DOS-11 | 2026-09-04 06:35:24 | 49.42702 | 8.65436 | 54° | 4km/h | 28857m | 4.8m/s | -46.5°C | 3% | 14.8hPa | 2.6V | 08:30:00 | 02:04:31 | 00:00:00 | |
| BIOWL1-15 | 2026-09-04 06:35:23 | 49.42702 | 8.65439 | 147° | 7km/h | 28868m | 5.9m/s | -46.4°C | 0.1% | 14.8hPa | 2.7V | 18:12:15 | 02:04:33 | 00:00:00 | |
| DL3AQ-11 | 2026-09-04 06:35:23 | 49.42696 | 8.65442 | 175° | 13km/h | 28880m | 5.4m/s | -46.4°C | 0.8% | 14.7hPa | 2.6V | 00:00:00 | 00:00:00 | 00:00:00 | |
| DG9SBQ-11 | 2026-09-04 06:35:21 | 49.42699 | 8.65441 | 168° | 13km/h | 28874m | 6.1m/s | -46.4°C | 0.8% | 14.7hPa | 2.6V | 00:00:00 | 00:00:00 | 00:00:00 | |
| AU51GT2 | 2026-09-04 06:35:20 | 49.42703 | 8.65436 | 54° | 4km/h | 28857m | 4.9m/s | -46.5°C | 0.8% | 14.8hPa | 2.6V | 00:00:00 | 00:00:00 | 00:00:00 | |
| DL1XH1-15 | 2026-09-04 06:35:19 | 49.42701 | 8.65438 | 246° | 5km/h | 28829m | 4.9m/s | -46.4°C | 3% | 14.8hPa | 2.6V | 08:30:00 | 02:04:26 | 00:00:00 | |
| HSKMA3-T | 2026-09-04 06:35:18 | 49.42702 | 8.65435 | 27° | 5km/h | 28852m | 5m/s | -46.5°C | 0.1% | 14.8hPa | 2.6V | 18:12:15 | 02:04:30 | 00:00:00 | |
| DL1XH-west | 2026-09-04 06:35:16 | 49.42700 | 8.65435 | 300° | 2km/h | 28840m | 6.3m/s | -46.6°C | 0.1% | 14.8hPa | 2.7V | 18:12:15 | 02:04:28 | 00:00:00 | |
| AA1-15 | 2026-09-04 06:35:15 | 49.42700 | 8.65436 | 250° | 4km/h | 28834m | 5.6m/s | -46.5°C | 0.1% | 14.8hPa | 2.7V | 18:12:15 | 02:04:27 | 00:00:00 | |
| BIOWL1-15 | 2026-09-04 06:35:13 | 49.42701 | 8.65442 | 314° | 2km/h | 28813m | 5.8m/s | -46.6°C | 0% | 14.8hPa | 2.7V | 18:12:15 | 02:04:23 | 00:00:00 | |
| HSKMA3-T | 2026-09-04 06:35:07 | 49.42705 | 8.65444 | 186° | 13km/h | 28790m | 6.9m/s | -46.6°C | 0.1% | 14.9hPa | 2.6V | 18:12:15 | 02:04:19 | 00:00:00 | |
| DL1XH-west | 2026-09-04 06:35:05 | 49.42713 | 8.65444 | 170° | 18km/h | 28779m | 4.9m/s | -46.7°C | 0.1% | 15hPa | 2.7V | 18:12:15 | 02:04:17 | 00:00:00 | |
| BIOWL1-15 | 2026-09-04 06:35:00 | 49.42726 | 8.65431 | 142° | 5km/h | 28751m | 5.8m/s | -46.7°C | 0.1% | 15.1hPa | 2.6V | 18:12:15 | 02:04:12 | 00:00:00 | |
| HSKMA3-T | 2026-09-04 06:34:57 | 49.42731 | 8.65432 | 199° | 9km/h | 28733m | 4.8m/s | -46.8°C | 0.2% | 15.1hPa | 2.7V | 18:12:15 | 02:04:09 | 00:00:00 | |
| DL1XH-west | 2026-09-04 06:34:55 | 49.42735 | 8.65433 | 173° | 7km/h | 28723m | 6.1m/s | -46.9°C | 0.2% | 15.1hPa | 2.6V | 18:12:15 | 02:04:07 | 00:00:00 | |
| AA1-15 | 2026-09-04 06:34:54 | 49.42737 | 8.65432 | 143° | 9km/h | 28717m | 6.2m/s | -46.9°C | 0.2% | 15.1hPa | 2.6V | 18:12:15 | 02:04:06 | 00:00:00 | |
| DO1YAY-16 | 2026-09-04 06:34:52 | 49.42741 | 8.65425 | 134° | 15km/h | 28706m | 4.8m/s | -47.0°C | 0.8% | 15.1hPa | 2.6V | 00:00:00 | 00:00:00 | 00:00:00 | |
| DM7RM-13 | 2026-09-04 06:34:51 | 49.42741 | 8.65425 | 135° | 16km/h | 28706m | 4.8m/s | -47.0°C | 0.8% | 15.1hPa | 2.6V | 00:00:00 | 00:00:00 | 00:00:00 | |
| DL0LBS | 2026-09-04 06:34:50 | 49.42744 | 8.65421 | 147° | 18km/h | 28701m | 4.6m/s | -47.1°C | 0.8% | 15.1hPa | 2.6V | 00:00:00 | 00:00:00 | 00:00:00 | |
| DL1XH1-15 | 2026-09-04 06:34:49 | 49.42775 | 8.65427 | 206° | 4km/h | 28661m | 6.1m/s | -47.2°C | 3.1% | 15.2hPa | 2.6V | 08:30:00 | 02:03:56 | 00:00:00 | |
| BIOWL1-15 | 2026-09-04 06:34:49 | 49.42754 | 8.65416 | 176° | 24km/h | 28690m | 6.6m/s | -47.3°C | 0.2% | 15.2hPa | 2.6V | 18:12:15 | 02:04:01 | 00:00:00 | |
| HSKMA3-T | 2026-09-04 06:34:47 | 49.42766 | 8.65419 | 203° | 22km/h | 28678m | 5.1m/s | -47.4°C | 0.2% | 15.2hPa | 2.7V | 18:12:15 | 02:03:59 | 00:00:00 | |
| DL1XH-west | 2026-09-04 06:34:44 | 49.42775 | 8.65427 | 206° | 4km/h | 28661m | 6.1m/s | -47.2°C | 0.2% | 15.2hPa | 2.6V | 18:12:15 | 02:03:56 | 00:00:00 | |
| BIOWL1-15 | 2026-09-04 06:34:43 | 49.42781 | 8.65411 | 141° | 20km/h | 28633m | 5.7m/s | -47.3°C | 0.2% | 15.3hPa | 2.7V | 18:12:15 | 02:03:51 | 00:00:00 | |
| DL3AQ-11 | 2026-09-04 06:34:43 | 49.42776 | 8.65424 | 93° | 7km/h | 28651m | 5.0m/s | -47.1°C | 0.8% | 15.3hPa | 2.7V | 00:00:00 | 00:00:00 | 00:00:00 | |
| BIOWL9-15 | 2026-09-04 06:34:41 | 49.42778 | 8.65416 | 125° | 15km/h | 28639m | 6.3m/s | -47.3°C | 0.8% | 15.3hPa | 2.7V | 00:00:00 | 00:00:00 | 00:00:00 | |
| DL6DJ-15 | 2026-09-04 06:34:40 | 49.42781 | 8.65411 | 140° | 18km/h | 28633m | 5.7m/s | -47.3°C | 0.8% | 15.3hPa | 2.7V | 00:00:00 | 00:00:00 | 00:00:00 | |
| DL1XH1-15 | 2026-09-04 06:34:39 | 49.42808 | 8.65383 | 136° | 24km/h | 28605m | 5.8m/s | -47.3°C | 3.1% | 15.4hPa | 2.7V | 08:30:00 | 02:03:46 | 00:00:00 | |
| HSKMA3-T | 2026-09-04 06:34:36 | 49.42797 | 8.65395 | 148° | 29km/h | 28617m | 5.6m/s | -47.4°C | 0.2% | 15.3hPa | 2.6V | 18:12:15 | 02:03:48 | 00:00:00 | |
| DL1XH-west | 2026-09-04 06:34:33 | 49.42812 | 8.65377 | 135° | 20km/h | 28600m | 4.9m/s | -47.3°C | 0.1% | 15.4hPa | 2.7V | 18:12:15 | 02:03:45 | 00:00:00 | |
| DJ2KF-10 | 2026-09-04 06:34:33 | 49.42812 | 8.65377 | 135° | 13km/h | 28600m | 4.9m/s | -47.2°C | 3.0% | 15.3hPa | 2.6V | 00:00:00 | 02:03:45 | 00:00:00 | |
| DB0UT-7 | 2026-09-04 06:34:32 | 49.42815 | 8.65372 | 139° | 9km/h | 28595m | 4.7m/s | -47.3°C | 3.1% | 15.3hPa | 2.6V | 00:00:00 | 00:00:00 | 00:00:00 | |
| DM7RM-13 | 2026-09-04 06:34:31 | 49.42815 | 8.65372 | 139° | 16km/h | 28595m | 4.7m/s | -47.4°C | 0.8% | 15.4hPa | 2.6V | 00:00:00 | 00:00:00 | 00:00:00 | |
| DD1CC8 | 2026-09-04 06:34:30 | 49.42824 | 8.65367 | 189° | 9km/h | 28577m | 5.7m/s | -47.3°C | 0.8% | 15.4hPa | 2.6V | 00:00:00 | 00:00:00 | 00:00:00 | |
| DL1XH1-15 | 2026-09-04 06:34:29 | 49.42827 | 8.65357 | 86° | 16km/h | 28548m | 5.1m/s | -47.3°C | 3.2% | 15.5hPa | 2.6V | 08:30:00 | 02:03:36 | 00:00:00 | |
| BIOWL1-15 | 2026-09-04 06:34:28 | 49.42826 | 8.65368 | 191° | 7km/h | 28572m | 4.9m/s | -47.3°C | 0.3% | 15.4hPa | 2.7V | 18:12:15 | 02:03:40 | 00:00:00 | |
| HSKMA3-T | 2026-09-04 06:34:25 | 49.42827 | 8.65363 | 82° | 13km/h | 28554m | 6.2m/s | -47.3°C | 0.2% | 15.5hPa | 2.6V | 18:12:15 | 02:03:37 | 00:00:00 | |
| AA1-15 | 2026-09-04 06:34:23 | 49.42827 | 8.65350 | 97° | 18km/h | 28543m | 5.4m/s | -47.3°C | 0.3% | 15.5hPa | 2.7V | 18:12:15 | 02:03:35 | 00:00:00 | |
| DL1XH-west | 2026-09-04 06:34:22 | 49.42828 | 8.65343 | 111° | 18km/h | 28537m | 6.7m/s | -47.4°C | 0.3% | 15.5hPa | 2.7V | 18:12:15 | 02:03:34 | 00:00:00 | |
| NBG1-10 | 2026-09-04 06:34:21 | 49.42830 | 8.65337 | 130° | 7km/h | 28531m | 6.0m/s | -47.4°C | 3.2% | 15.5hPa | 2.6V | 00:00:00 | 02:03:33 | 00:00:00 | |
| DL1XH1-15 | 2026-09-04 06:34:19 | 49.42844 | 8.65319 | 88° | 4km/h | 28492m | 6m/s | -47.2°C | 3.1% | 15.6hPa | 2.6V | 08:30:00 | 02:03:26 | 00:00:00 | |
| BIOWL1-15 | 2026-09-04 06:34:18 | 49.42841 | 8.65326 | 151° | 13km/h | 28515m | 5.6m/s | -47.3°C | 0.2% | 15.6hPa | 2.6V | 18:12:15 | 02:03:30 | 00:00:00 | |
| HSKMA3-T | 2026-09-04 06:34:15 | 49.42844 | 8.65320 | 88° | 4km/h | 28497m | 5.2m/s | -47.2°C | 0.2% | 15.6hPa | 2.7V | 18:12:15 | 02:03:27 | 00:00:00 | |
| AA1-15 | 2026-09-04 06:34:13 | 49.42844 | 8.65318 | 129° | 4km/h | 28485m | 6.5m/s | -47.3°C | 0.2% | 15.7hPa | 2.6V | 18:12:15 | 02:03:25 | 00:00:00 | |
| DL1XH-west | 2026-09-04 06:34:12 | 49.42845 | 8.65317 | 134° | 4km/h | 28480m | 5.4m/s | -47.2°C | 0.2% | 15.7hPa | 2.6V | 18:12:15 | 02:03:24 | 00:00:00 | |
| DM0DOS-11 | 2026-09-04 06:34:11 | 49.42845 | 8.65302 | 122° | 4km/h | 28446m | 6m/s | -47.1°C | 3.2% | 15.8hPa | 2.6V | 08:30:00 | 02:03:18 | 00:00:00 | |
| DL0LBS | 2026-09-04 06:34:10 | 49.42845 | 8.65314 | 97° | 7km/h | 28469m | 6.4m/s | -47.2°C | 0.9% | 15.7hPa | 2.7V | 00:00:00 | 00:00:00 | 00:00:00 | |
| DL1XH1-15 | 2026-09-04 06:34:09 | 49.42848 | 8.65302 | 198° | 11km/h | 28433m | 6.3m/s | -47°C | 3.1% | 15.8hPa | 2.7V | 08:30:00 | 02:03:16 | 00:00:00 | |
| BIOWL1-15 | 2026-09-04 06:34:07 | 49.42845 | 8.65304 | 84° | 7km/h | 28452m | 4.7m/s | -47.1°C | 0.3% | 15.7hPa | 2.6V | 18:12:15 | 02:03:19 | 00:00:00 | |
| HSKMA3-T | 2026-09-04 06:34:04 | 49.42848 | 8.65302 | 199° | 11km/h | 28433m | 6.3m/s | -47°C | 0.2% | 15.8hPa | 2.7V | 18:12:15 | 02:03:16 | 00:00:00 | |
| AA1-15 | 2026-09-04 06:34:02 | 49.42854 | 8.65304 | 188° | 13km/h | 28421m | 5.9m/s | -47.1°C | 0.2% | 15.8hPa | 2.6V | 18:12:15 | 02:03:14 | 00:00:00 | |
| DL1XH-west | 2026-09-04 06:34:01 | 49.42857 | 8.65304 | 170° | 11km/h | 28415m | 6.6m/s | -47.1°C | 0.2% | 15.8hPa | 2.6V | 18:12:15 | 02:03:13 | 00:00:00 | |
| DM0DOS-11 | 2026-09-04 06:33:59 | 49.42870 | 8.65291 | 134° | 4km/h | 28375m | 5.4m/s | -47°C | 3.1% | 15.9hPa | 2.6V | 08:30:00 | 02:03:06 | 00:00:00 | |
| BIOWL1-15 | 2026-09-04 06:33:59 | 49.42865 | 8.65295 | 146° | 9km/h | 28392m | 6.5m/s | -46.9°C | 0.2% | 15.9hPa | 2.7V | 18:12:15 | 02:03:09 | 00:00:00 | |
| HSKMA3-T | 2026-09-04 06:33:54 | 49.42870 | 8.65291 | 135° | 4km/h | 28375m | 5.4m/s | -47°C | 0.2% | 15.9hPa | 2.6V | 18:12:15 | 02:03:06 | 00:00:00 | |
| AA1-15 | 2026-09-04 06:33:52 | 49.42869 | 8.65289 | 55° | 4km/h | 28363m | 6.1m/s | -46.9°C | 0.2% | 16hPa | 2.7V | 18:12:15 | 02:03:04 | 00:00:00 | |
| DL1XH-west | 2026-09-04 06:33:50 | 49.42868 | 8.65288 | 277° | 2km/h | 28352m | 5.5m/s | -46.9°C | 0.2% | 16hPa | 2.6V | 18:12:15 | 02:03:02 | 00:00:00 | |
| DL1XH1-15 | 2026-09-04 06:33:49 | 49.42877 | 8.65308 | 235° | 5km/h | 28316m | 6.5m/s | -46.9°C | 3.1% | 16.1hPa | 2.6V | 08:30:00 | 02:02:56 | 00:00:00 | |
| BIOWL1-15 | 2026-09-04 06:33:48 | 49.42874 | 8.65302 | 235° | 15km/h | 28328m | 4.7m/s | -46.9°C | 0.2% | 16.1hPa | 2.7V | 18:12:15 | 02:02:58 | 00:00:00 | |
| AU51GT2 | 2026-09-04 06:33:47 | 49.42874 | 8.65302 | 234° | 13km/h | 28328m | 4.7m/s | -46.9°C | 0.8% | 16.1hPa | 2.7V | 00:00:00 | 00:00:00 | 00:00:00 | |
| DL1ZP-14 | 2026-09-04 06:33:46 | 49.42874 | 8.65302 | 234° | 13km/h | 28328m | 4.7m/s | -46.9°C | 0.8% | 16.1hPa | 2.7V | 00:00:00 | 00:00:00 | 00:00:00 | |
| HSKMA3-T | 2026-09-04 06:33:43 | 49.42878 | 8.65310 | 208° | 4km/h | 28310m | 5.3m/s | -47°C | 0.2% | 16.1hPa | 2.6V | 18:12:15 | 02:02:55 | 00:00:00 | |
| AA1-15 | 2026-09-04 06:33:41 | 49.42879 | 8.65310 | 174° | 4km/h | 28298m | 6.9m/s | -47°C | 0.2% | 16.1hPa | 2.7V | 18:12:15 | 02:02:53 | 00:00:00 | |
| DL1XH-west | 2026-09-04 06:33:40 | 49.42880 | 8.65310 | 179° | 5km/h | 28292m | 5.8m/s | -46.9°C | 0.2% | 16.1hPa | 2.7V | 18:12:15 | 02:02:52 | 00:00:00 | |
| BIOWL9-15 | 2026-09-04 06:33:39 | 49.42882 | 8.65310 | 270° | 0km/h | 28282m | 5.5m/s | -47.0°C | 0.8% | 16.2hPa | 2.6V | 00:00:00 | 00:00:00 | 00:00:00 | |
| DM0DOS-11 | 2026-09-04 06:33:37 | 49.42881 | 8.65325 | 234° | 15km/h | 28246m | 5.5m/s | -47°C | 3.1% | 16.2hPa | 2.6V | 08:30:00 | 02:02:44 | 00:00:00 | |
| BIOWL1-15 | 2026-09-04 06:33:35 | 49.42879 | 8.65313 | 303° | 7km/h | 28264m | 5.1m/s | -46.9°C | 0.2% | 16.2hPa | 2.7V | 18:12:15 | 02:02:47 | 00:00:00 | |
| HSKMA3-T | 2026-09-04 06:33:32 | 49.42881 | 8.65325 | 235° | 15km/h | 28246m | 5.5m/s | -47°C | 0.2% | 16.2hPa | 2.6V | 18:12:15 | 02:02:44 | 00:00:00 | |
| DL1XH-west | 2026-09-04 06:33:30 | 49.42885 | 8.65334 | 234° | 13km/h | 28235m | 5.8m/s | -47°C | 0.2% | 16.3hPa | 2.6V | 18:12:15 | 02:02:42 | 00:00:00 | |
| DL1XH1-15 | 2026-09-04 06:33:29 | 49.42886 | 8.65347 | 229° | 5km/h | 28199m | 6m/s | -47.1°C | 3.2% | 16.4hPa | 2.6V | 08:30:00 | 02:02:36 | 00:00:00 | |
| BIOWL1-15 | 2026-09-04 06:33:24 | 49.42886 | 8.65347 | 229° | 5km/h | 28199m | 6m/s | -47.1°C | 0.3% | 16.4hPa | 2.6V | 18:12:15 | 02:02:36 | 00:00:00 | |
| HSKMA3-T | 2026-09-04 06:33:21 | 49.42889 | 8.65352 | 232° | 4km/h | 28182m | 6.3m/s | -47.2°C | 0.3% | 16.4hPa | 2.7V | 18:12:15 | 02:02:33 | 00:00:00 | |
| AA1-15 | 2026-09-04 06:33:20 | 49.42890 | 8.65353 | 260° | 4km/h | 28176m | 6.3m/s | -47.1°C | 0.2% | 16.4hPa | 2.6V | 18:12:15 | 02:02:32 | 00:00:00 | |
| DG9SBQ-11 | 2026-09-04 06:33:20 | 49.42890 | 8.65353 | 261° | 4km/h | 28177m | 6.3m/s | -47.1°C | 0.8% | 16.4hPa | 2.6V | 00:00:00 | 00:00:00 | 00:00:00 | |
| DL1XH1-15 | 2026-09-04 06:33:19 | 49.42897 | 8.65364 | 215° | 11km/h | 28142m | 4.3m/s | -47°C | 3.1% | 16.5hPa | 2.6V | 08:30:00 | 02:02:26 | 00:00:00 | |
| DL1XH-west | 2026-09-04 06:33:19 | 49.42890 | 8.65354 | 273° | 4km/h | 28170m | 5.4m/s | -47°C | 0.2% | 16.4hPa | 2.6V | 18:12:15 | 02:02:31 | 00:00:00 | |
| BIOWL1-15 | 2026-09-04 06:33:16 | 49.42897 | 8.65364 | 215° | 11km/h | 28142m | 4.4m/s | -47°C | 0.2% | 16.5hPa | 2.6V | 18:12:15 | 02:02:26 | 00:00:00 | |
| HSKMA3-T | 2026-09-04 06:33:11 | 49.42899 | 8.65369 | 328° | 4km/h | 28125m | 5.8m/s | -47°C | 0.2% | 16.6hPa | 2.7V | 18:12:15 | 02:02:23 | 00:00:00 | |
| AA1-15 | 2026-09-04 06:33:10 | 49.42898 | 8.65370 | 331° | 5km/h | 28119m | 5.1m/s | -47°C | 0.3% | 16.6hPa | 2.7V | 18:12:15 | 02:02:22 | 00:00:00 | |
| DL1XH-west | 2026-09-04 06:33:08 | 49.42896 | 8.65373 | 282° | 5km/h | 28108m | 6m/s | -47°C | 0.2% | 16.6hPa | 2.6V | 18:12:15 | 02:02:20 | 00:00:00 | |
| BIOWL1-15 | 2026-09-04 06:33:04 | 49.42898 | 8.65375 | 127° | 5km/h | 28086m | 6.3m/s | -46.9°C | 0.2% | 16.6hPa | 2.7V | 18:12:15 | 02:02:16 | 00:00:00 | |
| HSKMA3-T | 2026-09-04 06:33:01 | 49.42903 | 8.65369 | 155° | 11km/h | 28069m | 6.4m/s | -46.9°C | 0.2% | 16.7hPa | 2.6V | 18:12:15 | 02:02:13 | 00:00:00 | |
| AA1-15 | 2026-09-04 06:33:00 | 49.42906 | 8.65367 | 169° | 15km/h | 28063m | 6m/s | -46.9°C | 0.1% | 16.7hPa | 2.6V | 18:12:15 | 02:02:12 | 00:00:00 | |
| DL1XH-west | 2026-09-04 06:32:57 | 49.42916 | 8.65366 | 167° | 7km/h | 28048m | 5.4m/s | -46.9°C | 0.2% | 16.8hPa | 2.7V | 18:12:15 | 02:02:09 | 00:00:00 | |
| BIOWL1-15 | 2026-09-04 06:32:54 | 49.42916 | 8.65360 | 63° | 9km/h | 28031m | 5m/s | -46.9°C | 0.1% | 16.8hPa | 2.6V | 18:12:15 | 02:02:06 | 00:00:00 | |
| HSKMA3-T | 2026-09-04 06:32:50 | 49.42918 | 8.65352 | 165° | 9km/h | 28009m | 5.1m/s | -47°C | 0.2% | 16.8hPa | 2.6V | 18:12:15 | 02:02:02 | 00:00:00 | |
| DL1XH1-15 | 2026-09-04 06:32:49 | 49.42924 | 8.65351 | 230° | 4km/h | 27975m | 6.4m/s | -47.1°C | 3.1% | 16.9hPa | 2.6V | 08:30:00 | 02:01:56 | 00:00:00 | |
| AA1-15 | 2026-09-04 06:32:49 | 49.42920 | 8.65351 | 174° | 9km/h | 28004m | 5m/s | -47°C | 0.2% | 16.9hPa | 2.6V | 18:12:15 | 02:02:01 | 00:00:00 | |
| DL1XH-west | 2026-09-04 06:32:47 | 49.42923 | 8.65350 | 170° | 4km/h | 27992m | 6.1m/s | -47.1°C | 0.2% | 16.9hPa | 2.7V | 18:12:15 | 02:01:59 | 00:00:00 | |
| DJ2DS-15 | 2026-09-04 06:32:46 | 49.42924 | 8.65350 | 197° | 0km/h | 27986m | 5.2m/s | -47.1°C | 0.8% | 16.9hPa | 2.6V | 00:00:00 | 00:00:00 | 00:00:00 | |
| BIOWL1-15 | 2026-09-04 06:32:43 | 49.42925 | 8.65353 | 219° | 4km/h | 27969m | 5.4m/s | -47.2°C | 0.2% | 17hPa | 2.6V | 18:12:15 | 02:01:55 | 00:00:00 | |
| OE5DRO-10 | 2026-09-04 06:32:43 | 49.42925 | 8.65353 | 220° | 9km/h | 27970m | 5.4m/s | 0°C | 0% | 0hPa | 2.7V | 00:00:00 | 00:00:00 | 00:00:00 | |
| DL3AQ-11 | 2026-09-04 06:32:42 | 49.42926 | 8.65353 | 215° | 2km/h | 27965m | 4.2m/s | -47.2°C | 0.8% | 17.0hPa | 2.7V | 00:00:00 | 00:00:00 | 00:00:00 | |
| DB0UT-9 | 2026-09-04 06:32:41 | 49.42925 | 8.65353 | 217° | 4km/h | 27965m | 4.2m/s | -47.2°C | 0.8% | 17.0hPa | 2.7V | 00:00:00 | 00:00:00 | 00:00:00 | |
| DL8DAS-14 | 2026-09-04 06:32:40 | 49.42924 | 8.65352 | 25° | 7km/h | 27948m | 5.8m/s | -47.2°C | 0.8% | 17.0hPa | 2.7V | 00:00:00 | 00:00:00 | 00:00:00 | |
| DM0DOS-11 | 2026-09-04 06:32:39 | 49.42923 | 8.65349 | 191° | 13km/h | 27922m | 4.8m/s | -47.1°C | 3% | 17.1hPa | 2.7V | 08:30:00 | 02:01:46 | 00:00:00 | |
| AA1-15 | 2026-09-04 06:32:39 | 49.42924 | 8.65352 | 26° | 9km/h | 27948m | 5.8m/s | -47.2°C | 0.2% | 17hPa | 2.7V | 18:12:15 | 02:01:51 | 00:00:00 | |
| DL1XH-west | 2026-09-04 06:32:36 | 49.42920 | 8.65348 | 91° | 2km/h | 27933m | 6m/s | -47.2°C | 0.1% | 17.1hPa | 2.6V | 18:12:15 | 02:01:48 | 00:00:00 | |
| BIOWL1-15 | 2026-09-04 06:32:33 | 49.42926 | 8.65350 | 186° | 13km/h | 27917m | 4.3m/s | -47.1°C | 0.1% | 17.1hPa | 2.7V | 18:12:15 | 02:01:45 | 00:00:00 | |
| SONCRA | 2026-09-04 06:32:32 | 49.42931 | 8.65349 | 161° | 7km/h | 27907m | 6.0m/s | -47.2°C | 0.8% | 17.1hPa | 2.7V | 00:00:00 | 00:00:00 | 00:00:00 | |
| DL3AQ-11 | 2026-09-04 06:32:31 | 49.42931 | 8.65349 | 161° | 7km/h | 27907m | 6.0m/s | -47.2°C | 0.8% | 17.1hPa | 2.7V | 00:00:00 | 00:00:00 | 00:00:00 | |
| DL1XH1-15 | 2026-09-04 06:32:29 | 49.42933 | 8.65340 | 135° | 2km/h | 27871m | 4.7m/s | -47.3°C | 3.1% | 17.2hPa | 2.7V | 08:30:00 | 02:01:36 | 00:00:00 | |
| AA1-15 | 2026-09-04 06:32:28 | 49.42932 | 8.65343 | 80° | 5km/h | 27891m | 4.8m/s | -47.2°C | 0.1% | 17.2hPa | 2.7V | 18:12:15 | 02:01:40 | 00:00:00 | |
| DL1XH-west | 2026-09-04 06:32:25 | 49.42933 | 8.65340 | 164° | 2km/h | 27875m | 4.8m/s | -47.3°C | 0.2% | 17.2hPa | 2.7V | 18:12:15 | 02:01:37 | 00:00:00 | |
| BIOWL1-15 | 2026-09-04 06:32:24 | 49.42932 | 8.65338 | 40° | 5km/h | 27859m | 6m/s | -47.4°C | 0.2% | 17.2hPa | 2.6V | 18:12:15 | 02:01:34 | 00:00:00 | |
| DM3KS-11 | 2026-09-04 06:32:23 | 49.42933 | 8.65339 | 59° | 2km/h | 27865m | 6.0m/s | -47.4°C | 0.8% | 17.2hPa | 2.6V | 00:00:00 | 00:00:00 | 00:00:00 | |
| DG9SBQ-11 | 2026-09-04 06:32:22 | 49.42933 | 8.65339 | 60° | 2km/h | 27865m | 6.0m/s | -47.4°C | 0.8% | 17.2hPa | 2.6V | 00:00:00 | 00:00:00 | 00:00:00 | |
| DN1GJH-1 | 2026-09-04 06:32:20 | 49.42931 | 8.65337 | 29° | 7km/h | 27854m | 4.7m/s | -47.4°C | 0.8% | 17.3hPa | 2.6V | 00:00:00 | 00:00:00 | 00:00:00 | |
| DL1XH1-15 | 2026-09-04 06:32:19 | 49.42924 | 8.65348 | 1° | 7km/h | 27817m | 6m/s | -47.7°C | 3.2% | 17.3hPa | 2.6V | 08:30:00 | 02:01:26 | 00:00:00 | |
| HSKMA3-T | 2026-09-04 06:32:18 | 49.42928 | 8.65339 | 287° | 7km/h | 27837m | 6m/s | -47.7°C | 0.2% | 17.3hPa | 2.6V | 18:12:15 | 02:01:30 | 00:00:00 | |
| DL1XH-west | 2026-09-04 06:32:14 | 49.42924 | 8.65348 | 2° | 7km/h | 27817m | 6m/s | -47.8°C | 0.2% | 17.3hPa | 2.6V | 18:12:15 | 02:01:26 | 00:00:00 | |
| BIOWL1-15 | 2026-09-04 06:32:13 | 49.42919 | 8.65342 | 62° | 9km/h | 27802m | 5.3m/s | -47.8°C | 0.3% | 17.4hPa | 2.6V | 18:12:15 | 02:01:23 | 00:00:00 | |
| HSKMA3-T | 2026-09-04 06:32:07 | 49.42920 | 8.65335 | 128° | 4km/h | 27781m | 5.3m/s | -48°C | 0.3% | 17.5hPa | 2.6V | 18:12:15 | 02:01:19 | 00:00:00 | |
| DL1XH-west | 2026-09-04 06:32:03 | 49.42919 | 8.65331 | 341° | 4km/h | 27761m | 5m/s | -48.2°C | 0.4% | 17.5hPa | 2.7V | 18:12:15 | 02:01:15 | 00:00:00 | |
| BIOWL1-15 | 2026-09-04 06:32:00 | 49.42918 | 8.65336 | 270° | 5km/h | 27745m | 4.3m/s | -48.1°C | 0.4% | 17.5hPa | 2.6V | 18:12:15 | 02:01:12 | 00:00:00 | |
| HSKMA3-T | 2026-09-04 06:31:57 | 49.42916 | 8.65335 | 62° | 9km/h | 27729m | 5.8m/s | -48.1°C | 0.3% | 17.6hPa | 2.7V | 18:12:15 | 02:01:09 | 00:00:00 | |
| DL1XH-west | 2026-09-04 06:31:52 | 49.42914 | 8.65323 | 151° | 2km/h | 27702m | 4.6m/s | -48.2°C | 0.3% | 17.7hPa | 2.7V | 18:12:15 | 02:01:04 | 00:00:00 | |
| BIOWL1-15 | 2026-09-04 06:31:49 | 49.42914 | 8.65321 | 45° | 2km/h | 27687m | 5.1m/s | -48°C | 0.3% | 17.7hPa | 2.6V | 18:12:15 | 02:01:01 | 00:00:00 | |
| HSKMA3-T | 2026-09-04 06:31:47 | 49.42913 | 8.65321 | 279° | 2km/h | 27676m | 5.8m/s | -48.1°C | 0.3% | 17.7hPa | 2.6V | 18:12:15 | 02:00:59 | 00:00:00 | |
| DO1YAY-16 | 2026-09-04 06:31:46 | 49.42914 | 8.65324 | 244° | 4km/h | 27665m | 4.3m/s | -48.1°C | 0.8% | 17.8hPa | 2.6V | 00:00:00 | 00:00:00 | 00:00:00 | |
| DL1XH-west | 2026-09-04 06:31:42 | 49.42913 | 8.65324 | 47° | 5km/h | 27650m | 6m/s | -48.1°C | 0.3% | 17.8hPa | 2.6V | 18:12:15 | 02:00:54 | 00:00:00 | |
| DJTTGO | 2026-09-04 06:31:40 | 49.42912 | 8.65322 | 48° | 7km/h | 27645m | 4.8m/s | -48.1°C | 0.8% | 17.8hPa | 2.7V | 00:00:00 | 00:00:00 | 00:00:00 | |
| DL1XH1-15 | 2026-09-04 06:31:39 | 49.42911 | 8.65336 | 283° | 11km/h | 27608m | 5.5m/s | -48.3°C | 3.2% | 17.9hPa | 2.7V | 08:30:00 | 02:00:46 | 00:00:00 | |
| BIOWL1-15 | 2026-09-04 06:31:39 | 49.42910 | 8.65320 | 15° | 2km/h | 27636m | 5.5m/s | -48.1°C | 0.2% | 17.9hPa | 2.7V | 18:12:15 | 02:00:51 | 00:00:00 | |
| HSKMA3-T | 2026-09-04 06:31:36 | 49.42911 | 8.65327 | 260° | 11km/h | 27619m | 4.7m/s | -48.2°C | 0.3% | 17.9hPa | 2.6V | 18:12:15 | 02:00:48 | 00:00:00 | |
| DL1XH-west | 2026-09-04 06:31:32 | 49.42910 | 8.65345 | 282° | 11km/h | 27598m | 4.8m/s | -48.4°C | 0.4% | 17.9hPa | 2.7V | 18:12:15 | 02:00:44 | 00:00:00 | |
| BIOWL1-15 | 2026-09-04 06:31:31 | 49.42909 | 8.65358 | 280° | 9km/h | 27582m | 4.3m/s | -48.4°C | 0.4% | 18hPa | 2.6V | 18:12:15 | 02:00:41 | 00:00:00 | |
| DL4BBY-15 | 2026-09-04 06:31:30 | 49.42909 | 8.65354 | 272° | 16km/h | 27587m | 5.1m/s | -50.5°C | 0% | 0hPa | 2.6V | 00:00:00 | 00:00:00 | 00:00:00 | |
| DL1XH1-15 | 2026-09-04 06:31:29 | 49.42900 | 8.65368 | 307° | 11km/h | 27557m | 5.7m/s | -48.6°C | 3.3% | 18.1hPa | 2.6V | 08:30:00 | 02:00:36 | 00:00:00 | |
| HSKMA3-T | 2026-09-04 06:31:26 | 49.42904 | 8.65364 | 345° | 9km/h | 27566m | 4.6m/s | -48.6°C | 0.3% | 18hPa | 2.7V | 18:12:15 | 02:00:38 | 00:00:00 | |
| DJ2KF-10 | 2026-09-04 06:31:26 | 49.42904 | 8.65364 | 346° | 18km/h | 27566m | 4.6m/s | -48.6°C | 3.3% | 18.0hPa | 2.7V | 00:00:00 | 02:00:38 | 00:00:00 | |
| IW2NTF | 2026-09-04 06:31:25 | 49.42899 | 8.65394 | 268° | 22km/h | 27534m | 5.9m/s | -48.5°C | 0% | 18.1hPa | 2.7V | 08:30:00 | 02:00:32 | 00:00:00 | |
| BIOWL1-15 | 2026-09-04 06:31:22 | 49.42899 | 8.65410 | 272° | 20km/h | 27523m | 5m/s | -48.7°C | 0.3% | 18.1hPa | 2.6V | 18:12:15 | 02:00:30 | 00:00:00 | |
| AA1-15 | 2026-09-04 06:31:21 | 49.42899 | 8.65386 | 267° | 22km/h | 27540m | 4.8m/s | -48.4°C | 0.3% | 18.1hPa | 2.7V | 18:12:15 | 02:00:33 | 00:00:00 | |
| DG1MJG | 2026-09-04 06:31:20 | 49.42899 | 8.65386 | 268° | 22km/h | 27540m | 4.8m/s | -48.4°C | 0.8% | 18.1hPa | 2.7V | 00:00:00 | 00:00:00 | 00:00:00 | |
| DL8DAS-15 | 2026-09-04 06:31:19 | 49.42899 | 8.65394 | 269° | 22km/h | 27534m | 5.9m/s | -48.5°C | 0.9% | 18.1hPa | 2.7V | 00:00:00 | 00:00:00 | 00:00:00 | |
| DB0UT-9 | 2026-09-04 06:31:18 | 49.42899 | 8.65402 | 273° | 20km/h | 27528m | 6.0m/s | -48.6°C | 0.9% | 18.1hPa | 2.7V | 00:00:00 | 00:00:00 | 00:00:00 | |
| DF7PN | 2026-09-04 06:31:17 | 49.42899 | 8.65418 | 268° | 20km/h | 27518m | 4.8m/s | -48.8°C | 0.9% | 18.2hPa | 2.7V | 00:00:00 | 00:00:00 | 00:00:00 | |
| IW2NTF | 2026-09-04 06:31:15 | 49.42904 | 8.65457 | 239° | 4km/h | 27480m | 4.3m/s | -48.8°C | 0% | 18.3hPa | 2.7V | 08:30:00 | 02:00:22 | 00:00:00 | |
| HSKMA3-T | 2026-09-04 06:31:15 | 49.42900 | 8.65435 | 259° | 22km/h | 27506m | 5.3m/s | -48.7°C | 0.4% | 18.2hPa | 2.7V | 18:12:15 | 02:00:27 | 00:00:00 | |
| AA1-15 | 2026-09-04 06:31:11 | 49.42903 | 8.65455 | 259° | 4km/h | 27485m | 5.7m/s | -48.8°C | 0.4% | 18.3hPa | 2.6V | 18:12:15 | 02:00:23 | 00:00:00 | |
| DL1XH-west | 2026-09-04 06:31:10 | 49.42904 | 8.65457 | 240° | 4km/h | 27480m | 4.3m/s | -48.8°C | 0.4% | 18.3hPa | 2.7V | 18:12:15 | 02:00:22 | 00:00:00 | |
| DM0DOS-11 | 2026-09-04 06:31:09 | 49.42915 | 8.65498 | 257° | 29km/h | 27447m | 6.1m/s | -49.2°C | 3.5% | 18.4hPa | 2.7V | 08:30:00 | 02:00:16 | 00:00:00 | |
| BIOWL1-15 | 2026-09-04 06:31:09 | 49.42908 | 8.65469 | 242° | 22km/h | 27464m | 5.9m/s | -49.1°C | 0.5% | 18.3hPa | 2.6V | 18:12:15 | 02:00:19 | 00:00:00 | |
| HSKMA3-T | 2026-09-04 06:31:04 | 49.42915 | 8.65498 | 258° | 29km/h | 27447m | 6.1m/s | -49.2°C | 0.4% | 18.4hPa | 2.7V | 18:12:15 | 02:00:16 | 00:00:00 | |
| AA1-15 | 2026-09-04 06:31:01 | 49.42919 | 8.65530 | 257° | 27km/h | 27432m | 5.5m/s | -48.9°C | 0.4% | 18.4hPa | 2.6V | 18:12:15 | 02:00:13 | 00:00:00 | |
| NBG1-10 | 2026-09-04 06:31:01 | 49.42919 | 8.65530 | 257° | 24km/h | 27432m | 5.4m/s | -48.9°C | 3.4% | 18.4hPa | 2.6V | 00:00:00 | 02:00:13 | 00:00:00 | |
| DL4BBY-15 | 2026-09-04 06:31:00 | 49.42921 | 8.65540 | 249° | 22km/h | 27426m | 6.0m/s | -51.1°C | 0% | 0hPa | 2.6V | 00:00:00 | 00:00:00 | 00:00:00 | |
| DM0DOS-11 | 2026-09-04 06:30:59 | 49.42938 | 8.65568 | 208° | 13km/h | 27393m | 4.3m/s | -48.7°C | 3.4% | 18.5hPa | 2.6V | 08:30:00 | 02:00:06 | 00:00:00 | |
| DL1XH-west | 2026-09-04 06:30:59 | 49.42924 | 8.65549 | 238° | 24km/h | 27420m | 5.4m/s | -48.9°C | 0.5% | 18.4hPa | 2.7V | 18:12:15 | 02:00:11 | 00:00:00 | |
| BIOWL1-15 | 2026-09-04 06:30:56 | 49.42933 | 8.65563 | 213° | 13km/h | 27404m | 6.5m/s | -48.7°C | 0.4% | 18.5hPa | 2.7V | 18:12:15 | 02:00:08 | 00:00:00 | |
| HSKMA3-T | 2026-09-04 06:30:54 | 49.42938 | 8.65568 | 208° | 13km/h | 27393m | 4.3m/s | -48.7°C | 0.4% | 18.5hPa | 2.6V | 18:12:15 | 02:00:06 | 00:00:00 | |
| AA1-15 | 2026-09-04 06:30:51 | 49.42951 | 8.65581 | 218° | 31km/h | 27376m | 5.9m/s | -48.8°C | 0.4% | 18.6hPa | 2.7V | 18:12:15 | 02:00:03 | 00:00:00 | |
| DL1XH-west | 2026-09-04 06:30:48 | 49.42969 | 8.65607 | 232° | 29km/h | 27360m | 6.2m/s | -48.7°C | 0.4% | 18.6hPa | 2.6V | 18:12:15 | 02:00:00 | 00:00:00 | |
| DF7PN | 2026-09-04 06:30:46 | 49.42976 | 8.65624 | 237° | 22km/h | 27349m | 4.5m/s | -48.8°C | 0.9% | 18.6hPa | 2.7V | 00:00:00 | 00:00:00 | 00:00:00 | |
| IW2NTF | 2026-09-04 06:30:45 | 49.43003 | 8.65646 | 185° | 20km/h | 27316m | 5.7m/s | -48.7°C | 0% | 18.7hPa | 2.7V | 08:30:00 | 01:59:52 | 00:00:00 | |
| BIOWL1-15 | 2026-09-04 06:30:45 | 49.42979 | 8.65631 | 231° | 20km/h | 27344m | 5m/s | -48.7°C | 0.4% | 18.6hPa | 2.7V | 18:12:15 | 01:59:57 | 00:00:00 | |
| HSKMA3-T | 2026-09-04 06:30:44 | 49.42983 | 8.65636 | 220° | 20km/h | 27338m | 6.3m/s | -48.8°C | 0.4% | 18.7hPa | 2.6V | 18:12:15 | 01:59:56 | 00:00:00 | |
| AA1-15 | 2026-09-04 06:30:40 | 49.43003 | 8.65646 | 186° | 20km/h | 27316m | 5.7m/s | -48.7°C | 0.5% | 18.7hPa | 2.7V | 18:12:15 | 01:59:52 | 00:00:00 | |
| DL1XH-west | 2026-09-04 06:30:37 | 49.43017 | 8.65652 | 207° | 22km/h | 27300m | 4.7m/s | -48.6°C | 0.4% | 18.8hPa | 2.6V | 18:12:15 | 01:59:49 | 00:00:00 | |
| DL8DAS-14 | 2026-09-04 06:30:36 | 49.43029 | 8.65662 | 207° | 31km/h | 27288m | 6.2m/s | -48.7°C | 0.9% | 18.8hPa | 2.6V | 00:00:00 | 00:00:00 | 00:00:00 | |
| IW2NTF | 2026-09-04 06:30:35 | 49.43066 | 8.65682 | 186° | 20km/h | 27262m | 6.5m/s | -48.5°C | 0% | 18.9hPa | 2.6V | 08:30:00 | 01:59:42 | 00:00:00 | |
| BIOWL1-15 | 2026-09-04 06:30:35 | 49.43029 | 8.65662 | 208° | 33km/h | 27288m | 6.2m/s | -48.7°C | 0.4% | 18.8hPa | 2.7V | 18:12:15 | 01:59:47 | 00:00:00 | |
| HSKMA3-T | 2026-09-04 06:30:34 | 49.43037 | 8.65667 | 205° | 37km/h | 27282m | 5.1m/s | -48.6°C | 0.4% | 18.8hPa | 2.7V | 18:12:15 | 01:59:46 | 00:00:00 | |
| AA1-15 | 2026-09-04 06:30:29 | 49.43071 | 8.65682 | 178° | 15km/h | 27255m | 6m/s | -48.5°C | 0.4% | 18.9hPa | 2.7V | 18:12:15 | 01:59:41 | 00:00:00 | |
| DL1XH-west | 2026-09-04 06:30:27 | 49.43078 | 8.65682 | 180° | 16km/h | 27244m | 5.8m/s | -48.5°C | 0.4% | 18.9hPa | 2.7V | 18:12:15 | 01:59:39 | 00:00:00 | |
| DJ2KF-10 | 2026-09-04 06:30:26 | 49.43083 | 8.65682 | 187° | 26km/h | 27238m | 6.1m/s | -48.4°C | 3.4% | 18.9hPa | 2.6V | 00:00:00 | 01:59:38 | 00:00:00 | |
| IW2NTF | 2026-09-04 06:30:25 | 49.43124 | 8.65701 | 197° | 29km/h | 27204m | 5m/s | -48.4°C | 0% | 19.1hPa | 2.6V | 08:30:00 | 01:59:32 | 00:00:00 | |
| BIOWL1-15 | 2026-09-04 06:30:24 | 49.43096 | 8.65687 | 196° | 29km/h | 27226m | 5m/s | -48.5°C | 0.4% | 18.9hPa | 2.6V | 18:12:15 | 01:59:36 | 00:00:00 | |
| HSKMA3-T | 2026-09-04 06:30:23 | 49.43103 | 8.65690 | 198° | 31km/h | 27221m | 5.3m/s | -48.5°C | 0.4% | 19hPa | 2.7V | 18:12:15 | 01:59:35 | 00:00:00 | |
| DJ2DS-15 | 2026-09-04 06:30:22 | 49.43110 | 8.65694 | 199° | 29km/h | 27215m | 6.2m/s | -48.5°C | 0.9% | 19.0hPa | 2.6V | 00:00:00 | 00:00:00 | 00:00:00 | |
| DD1CC8 | 2026-09-04 06:30:21 | 49.43117 | 8.65698 | 198° | 27km/h | 27209m | 5.8m/s | -48.5°C | 0.9% | 19.1hPa | 2.6V | 00:00:00 | 00:00:00 | 00:00:00 | |
| DF1GD-15 | 2026-09-04 06:30:20 | 49.43118 | 8.65698 | 200° | 29km/h | 27209m | 5.8m/s | -48.5°C | 0.9% | 19.1hPa | 2.6V | 00:00:00 | 00:00:00 | 00:00:00 | |
| DL1XH1-15 | 2026-09-04 06:30:19 | 49.43165 | 8.65706 | 154° | 22km/h | 27169m | 7.3m/s | -48.3°C | 3.3% | 19.2hPa | 2.6V | 08:30:00 | 01:59:26 | 00:00:00 | |
| AA1-15 | 2026-09-04 06:30:19 | 49.43131 | 8.65705 | 196° | 29km/h | 27199m | 5.2m/s | -48.4°C | 0.4% | 19.1hPa | 2.6V | 18:12:15 | 01:59:31 | 00:00:00 | |
| DL1XH-west | 2026-09-04 06:30:16 | 49.43153 | 8.65710 | 178° | 27km/h | 27181m | 5m/s | -48.3°C | 0.3% | 19.1hPa | 2.7V | 18:12:15 | 01:59:28 | 00:00:00 | |
| IW2NTF | 2026-09-04 06:30:16 | 49.43185 | 8.65691 | 170° | 26km/h | 27147m | 6.7m/s | -48.2°C | 0% | 19.2hPa | 2.6V | 08:30:00 | 01:59:22 | 00:00:00 | |
| BIOWL1-15 | 2026-09-04 06:30:15 | 49.43170 | 8.65702 | 145° | 22km/h | 27163m | 5.6m/s | -48.2°C | 0.3% | 19.2hPa | 2.7V | 18:12:15 | 01:59:25 | 00:00:00 | |
| HSKMA3-T | 2026-09-04 06:30:12 | 49.43174 | 8.65697 | 146° | 22km/h | 27158m | 4.3m/s | -48.2°C | 0.3% | 19.2hPa | 2.7V | 18:12:15 | 01:59:24 | 00:00:00 | |
| CB1BUN | 2026-09-04 06:30:11 | 49.43174 | 8.65697 | 147° | 20km/h | 27158m | 4.3m/s | -48.2°C | 0.9% | 19.2hPa | 2.7V | 00:00:00 | 00:00:00 | 00:00:00 | |
| DG9SBQ-11 | 2026-09-04 06:30:10 | 49.43179 | 8.65693 | 158° | 22km/h | 27153m | 5.5m/s | -48.2°C | 0.9% | 19.2hPa | 2.7V | 00:00:00 | 00:00:00 | 00:00:00 | |
| DL1XH1-15 | 2026-09-04 06:30:09 | 49.43226 | 8.65703 | 194° | 18km/h | 27112m | 5.9m/s | -48.1°C | 3.4% | 19.3hPa | 2.7V | 08:30:00 | 01:59:16 | 00:00:00 | |
| AA1-15 | 2026-09-04 06:30:09 | 49.43192 | 8.65690 | 183° | 29km/h | 27141m | 5.5m/s | -48.2°C | 0.4% | 19.3hPa | 2.7V | 18:12:15 | 01:59:21 | 00:00:00 | |
| DL1XH-west | 2026-09-04 06:30:06 | 49.43215 | 8.65698 | 197° | 29km/h | 27124m | 6.4m/s | -48.1°C | 0.4% | 19.3hPa | 2.6V | 18:12:15 | 01:59:18 | 00:00:00 | |
| BIOWL1-15 | 2026-09-04 06:30:02 | 49.43235 | 8.65704 | 177° | 16km/h | 27101m | 5.4m/s | -48.1°C | 0.4% | 19.4hPa | 2.6V | 18:12:15 | 01:59:14 | 00:00:00 | |
| HSKMA3-T | 2026-09-04 06:30:01 | 49.43239 | 8.65704 | 172° | 18km/h | 27095m | 6.5m/s | -48°C | 0.3% | 19.4hPa | 2.6V | 18:12:15 | 01:59:13 | 00:00:00 | |
| DB0ND-19 | 2026-09-04 06:30:00 | 49.43251 | 8.65700 | 166° | 26km/h | 27082m | 5.3m/s | -48.0°C | 0.9% | 19.4hPa | 2.7V | 00:00:00 | 00:00:00 | 00:00:00 | |
| DL1XH1-15 | 2026-09-04 06:29:59 | 49.43276 | 8.65688 | 169° | 15km/h | 27054m | 4.9m/s | -47.9°C | 3.3% | 19.5hPa | 2.7V | 08:30:00 | 01:59:06 | 00:00:00 | |
| AA1-15 | 2026-09-04 06:29:58 | 49.43257 | 8.65698 | 164° | 26km/h | 27077m | 4.9m/s | -48°C | 0.3% | 19.4hPa | 2.7V | 18:12:15 | 01:59:10 | 00:00:00 | |
| DB0NH | 2026-09-04 06:29:58 | 49.43257 | 8.65698 | 164° | 16km/h | 27078m | 4.8m/s | -48.0°C | 3.3% | 19.4hPa | 2.6V | 00:00:00 | 01:59:10 | 00:00:00 | |
| DM0DOS-11 | 2026-09-04 06:29:56 | 49.43288 | 8.65690 | 198° | 18km/h | 27036m | 5.4m/s | -47.9°C | 3.3% | 19.6hPa | 2.6V | 08:30:00 | 01:59:03 | 00:00:00 | |
| DL1XH-west | 2026-09-04 06:29:56 | 49.43268 | 8.65692 | 158° | 20km/h | 27065m | 6.6m/s | -48°C | 0.4% | 19.5hPa | 2.6V | 18:12:15 | 01:59:08 | 00:00:00 | |
| BIOWL1-15 | 2026-09-04 06:29:52 | 49.43284 | 8.65688 | 192° | 18km/h | 27042m | 6.8m/s | -47.9°C | 0.4% | 19.5hPa | 2.7V | 18:12:15 | 01:59:04 | 00:00:00 | |
| HSKMA3-T | 2026-09-04 06:29:51 | 49.43289 | 8.65690 | 199° | 18km/h | 27036m | 5.4m/s | -47.9°C | 0.3% | 19.6hPa | 2.6V | 18:12:15 | 01:59:03 | 00:00:00 | |
| DD1CC8 | 2026-09-04 06:29:50 | 49.43293 | 8.65693 | 199° | 16km/h | 27031m | 5.3m/s | -47.9°C | 0.9% | 19.6hPa | 2.7V | 00:00:00 | 00:00:00 | 00:00:00 | |
| DM3KS-11 | 2026-09-04 06:29:48 | 49.43299 | 8.65695 | 182° | 9km/h | 27017m | 6.6m/s | -47.8°C | 0.9% | 19.6hPa | 2.7V | 00:00:00 | 00:00:00 | 00:00:00 | |
| DM0DOS-11 | 2026-09-04 06:29:46 | 49.43325 | 8.65674 | 143° | 16km/h | 26977m | 6.5m/s | -47.6°C | 3.3% | 19.7hPa | 2.7V | 08:30:00 | 01:58:53 | 00:00:00 | |
| DL1XH-west | 2026-09-04 06:29:45 | 49.43308 | 8.65690 | 151° | 16km/h | 27000m | 6.8m/s | -47.8°C | 0.3% | 19.7hPa | 2.6V | 18:12:15 | 01:58:57 | 00:00:00 | |
| AA1-15 | 2026-09-04 06:29:44 | 49.43312 | 8.65686 | 151° | 20km/h | 26994m | 5.8m/s | -47.7°C | 0.3% | 19.7hPa | 2.6V | 18:12:15 | 01:58:56 | 00:00:00 | |
| BIOWL1-15 | 2026-09-04 06:29:43 | 49.43325 | 8.65674 | 144° | 16km/h | 26977m | 6.5m/s | -47.6°C | 0.3% | 19.7hPa | 2.7V | 18:12:15 | 01:58:53 | 00:00:00 | |
| HSKMA3-T | 2026-09-04 06:29:40 | 49.43328 | 8.65670 | 147° | 13km/h | 26971m | 5.6m/s | -47.6°C | 0.3% | 19.8hPa | 2.6V | 18:12:15 | 01:58:52 | 00:00:00 | |
| DL1XH1-15 | 2026-09-04 06:29:39 | 49.43347 | 8.65678 | 203° | 13km/h | 26936m | 5.7m/s | -47.5°C | 3.2% | 19.9hPa | 2.7V | 08:30:00 | 01:58:46 | 00:00:00 | |
| DL1ZP-14 | 2026-09-04 06:29:38 | 49.43336 | 8.65670 | 202° | 15km/h | 26953m | 6.6m/s | -47.5°C | 0.9% | 19.8hPa | 2.7V | 00:00:00 | 00:00:00 | 00:00:00 | |
| DG9SBQ-11 | 2026-09-04 06:29:37 | 49.43336 | 8.65670 | 204° | 15km/h | 26953m | 6.6m/s | -47.5°C | 0.9% | 19.8hPa | 2.6V | 00:00:00 | 00:00:00 | 00:00:00 | |
| DM0DOS-11 | 2026-09-04 06:29:36 | 49.43353 | 8.65678 | 143° | 7km/h | 26919m | 4.8m/s | -47.4°C | 3.2% | 19.9hPa | 2.6V | 08:30:00 | 01:58:43 | 00:00:00 | |
| DL1XH-west | 2026-09-04 06:29:34 | 49.43347 | 8.65678 | 203° | 13km/h | 26936m | 5.7m/s | -47.5°C | 0.3% | 19.9hPa | 2.7V | 18:12:15 | 01:58:46 | 00:00:00 | |
| BIOWL1-15 | 2026-09-04 06:29:30 | 49.43355 | 8.65676 | 148° | 11km/h | 26914m | 5.9m/s | -47.4°C | 0.3% | 19.9hPa | 2.7V | 18:12:15 | 01:58:42 | 00:00:00 | |
| HSKMA3-T | 2026-09-04 06:29:29 | 49.43358 | 8.65674 | 154° | 15km/h | 26908m | 6.6m/s | -47.3°C | 0.3% | 19.9hPa | 2.7V | 18:12:15 | 01:58:41 | 00:00:00 | |
| DB0ND-19 | 2026-09-04 06:29:29 | 49.43361 | 8.65671 | 156° | 16km/h | 26902m | 5.4m/s | -47.3°C | 0.9% | 19.9hPa | 2.6V | 00:00:00 | 00:00:00 | 00:00:00 | |
| DF3TZ-5 | 2026-09-04 06:29:28 | 49.43361 | 8.65671 | 156° | 16km/h | 26902m | 5.4m/s | -47.3°C | 0.9% | 19.9hPa | 2.6V | 00:00:00 | 00:00:00 | 00:00:00 | |
| DM0DOS-11 | 2026-09-04 06:29:26 | 49.43386 | 8.65652 | 188° | 13km/h | 26861m | 6.9m/s | -47.2°C | 3.2% | 20.1hPa | 2.6V | 08:30:00 | 01:58:33 | 00:00:00 | |
| DJ2KF-10 | 2026-09-04 06:29:26 | 49.43370 | 8.65665 | 150° | 11km/h | 26891m | 6.4m/s | -47.2°C | 3.2% | 20.0hPa | 2.6V | 00:00:00 | 01:58:38 | 08:30:00 | |
| DO3MHA-11 | 2026-09-04 06:29:25 | 49.43374 | 8.65661 | 144° | 13km/h | 26885m | 6.5m/s | -47.2°C | 3.2% | 20.0hPa | 2.7V | 00:00:00 | 01:58:37 | 00:00:00 | |
| IW2NTF | 2026-09-04 06:29:24 | 49.43393 | 8.65657 | 217° | 15km/h | 26849m | 4.9m/s | -47.2°C | 0% | 0hPa | 2.7V | 08:30:00 | 01:58:31 | 00:00:00 | |
| DL1XH-west | 2026-09-04 06:29:24 | 49.43377 | 8.65657 | 142° | 16km/h | 26878m | 5.5m/s | -47.2°C | 0.3% | 20hPa | 2.7V | 18:12:15 | 01:58:36 | 00:00:00 | |
| AA1-15 | 2026-09-04 06:29:23 | 49.43380 | 8.65654 | 149° | 13km/h | 26873m | 5.3m/s | -47.2°C | 0.3% | 0hPa | 2.7V | 18:12:15 | 01:58:35 | 00:00:00 | |
| BIOWL1-15 | 2026-09-04 06:29:22 | 49.43390 | 8.65654 | 205° | 15km/h | 26855m | 6.1m/s | -47.2°C | 0.3% | 20.1hPa | 2.6V | 18:12:15 | 01:58:32 | 00:00:00 | |
| HSKMA3-T | 2026-09-04 06:29:18 | 49.43396 | 8.65660 | 226° | 13km/h | 26844m | 5.1m/s | -47.1°C | 0.2% | 20.1hPa | 2.7V | 18:12:15 | 01:58:30 | 00:00:00 | |
| DM3KS-11 | 2026-09-04 06:29:17 | 49.43397 | 8.65663 | 235° | 5km/h | 26839m | 6.6m/s | -47.2°C | 0.8% | 20.1hPa | 2.7V | 00:00:00 | 00:00:00 | 00:00:00 | |
| DM0DOS-11 | 2026-09-04 06:29:16 | 49.43401 | 8.65648 | 154° | 15km/h | 26805m | 5.5m/s | -47.1°C | 3.1% | 20.2hPa | 2.7V | 08:30:00 | 01:58:23 | 00:00:00 | |
| DO3MHA-11 | 2026-09-04 06:29:15 | 49.43397 | 8.65663 | 75° | 13km/h | 26826m | 5.2m/s | -47.1°C | 3.1% | 20.2hPa | 2.6V | 00:00:00 | 01:58:27 | 00:00:00 | |
| IW2NTF | 2026-09-04 06:29:14 | 49.43409 | 8.65647 | 189° | 15km/h | 26795m | 5.8m/s | -47.2°C | 0% | 0hPa | 2.6V | 08:30:00 | 01:58:21 | 00:00:00 | |
| DL1XH-west | 2026-09-04 06:29:14 | 49.43397 | 8.65660 | 86° | 11km/h | 26821m | 4.6m/s | -47.1°C | 0.2% | 20.2hPa | 2.6V | 18:12:15 | 01:58:26 | 00:00:00 | |
| AA1-15 | 2026-09-04 06:29:12 | 49.43399 | 8.65651 | 128° | 13km/h | 26811m | 5.7m/s | -47.1°C | 0.2% | 0hPa | 2.7V | 18:12:15 | 01:58:24 | 00:00:00 | |
| BIOWL1-15 | 2026-09-04 06:29:09 | 49.43409 | 8.65647 | 189° | 15km/h | 26795m | 5.8m/s | -47.2°C | 0.2% | 20.3hPa | 2.6V | 18:12:15 | 01:58:21 | 00:00:00 | |
| HSKMA3-T | 2026-09-04 06:29:08 | 49.43412 | 8.65648 | 201° | 13km/h | 26789m | 6.1m/s | -47.2°C | 0.3% | 20.3hPa | 2.6V | 18:12:15 | 01:58:20 | 00:00:00 | |
| DL1ZP-14 | 2026-09-04 06:29:07 | 49.43417 | 8.65652 | 212° | 7km/h | 26778m | 4.8m/s | -47.3°C | 0.9% | 20.4hPa | 2.7V | 00:00:00 | 00:00:00 | 00:00:00 | |
| DM0DOS-11 | 2026-09-04 06:29:06 | 49.43425 | 8.65646 | 119° | 9km/h | 26750m | 5m/s | -47.5°C | 3.1% | 20.4hPa | 2.6V | 08:30:00 | 01:58:13 | 00:00:00 | |
| DO3MHA-11 | 2026-09-04 06:29:05 | 49.43419 | 8.65653 | 192° | 7km/h | 26773m | 5.3m/s | -47.3°C | 3.2% | 20.3hPa | 2.7V | 00:00:00 | 01:58:17 | 00:00:00 | |
| IW2NTF | 2026-09-04 06:29:04 | 49.43426 | 8.65641 | 88° | 4km/h | 26738m | 6.3m/s | 0°C | 0% | 0hPa | 2.7V | 08:30:00 | 01:58:11 | 00:00:00 | |
| DL1XH-west | 2026-09-04 06:29:03 | 49.43422 | 8.65651 | 143° | 9km/h | 26761m | 6.1m/s | -47.5°C | 0.3% | 20.4hPa | 2.7V | 18:12:15 | 01:58:15 | 00:00:00 | |
| AA1-15 | 2026-09-04 06:29:02 | 49.43424 | 8.65649 | 129° | 11km/h | 26755m | 5m/s | 0°C | 0% | 0hPa | 2.7V | 18:12:15 | 01:58:14 | 00:00:00 | |
| DJTTGO | 2026-09-04 06:29:01 | 49.43424 | 8.65649 | 130° | 9km/h | 26756m | 5.0m/s | -47.4°C | 0.8% | 20.4hPa | 2.7V | 00:00:00 | 00:00:00 | 00:00:00 | |
| DL1XH1-15 | 2026-09-04 06:28:59 | 49.43434 | 8.65632 | 148° | 13km/h | 26710m | 4.7m/s | -47.5°C | 3.1% | 20.6hPa | 2.7V | 08:30:00 | 01:58:06 | 00:00:00 | |
| BIOWL1-15 | 2026-09-04 06:28:59 | 49.43426 | 8.65641 | 88° | 4km/h | 26738m | 6.3m/s | -47.5°C | 0.2% | 20.5hPa | 2.7V | 18:12:15 | 01:58:11 | 00:00:00 | |
| HSKMA3-T | 2026-09-04 06:28:57 | 49.43427 | 8.65638 | 136° | 5km/h | 26726m | 6.1m/s | -47.5°C | 0.2% | 20.5hPa | 2.6V | 18:12:15 | 01:58:09 | 00:00:00 | |
| DM0DOS-11 | 2026-09-04 06:28:56 | 49.43439 | 8.65623 | 120° | 11km/h | 26692m | 4.8m/s | -47.5°C | 3.1% | 20.6hPa | 2.6V | 08:30:00 | 01:58:03 | 00:00:00 | |
| DL1XH-west | 2026-09-04 06:28:53 | 49.43436 | 8.65629 | 143° | 11km/h | 26704m | 6.2m/s | -47.5°C | 0.2% | 20.6hPa | 2.7V | 18:12:15 | 01:58:05 | 00:00:00 | |
| AA1-15 | 2026-09-04 06:28:51 | 49.43439 | 8.65623 | 121° | 11km/h | 26692m | 4.8m/s | 0°C | 0% | 0hPa | 2.6V | 18:12:15 | 01:58:03 | 00:00:00 | |
| DB0UT-7 | 2026-09-04 06:28:51 | 49.43439 | 8.65623 | 121° | 9km/h | 26693m | 4.7m/s | -47.4°C | 3.1% | 20.6hPa | 2.6V | 00:00:00 | 01:58:03 | 00:00:00 | |
| DB0UT-9 | 2026-09-04 06:28:50 | 49.43439 | 8.65623 | 122° | 11km/h | 26693m | 4.8m/s | -47.5°C | 0.9% | 20.6hPa | 2.6V | 00:00:00 | 00:00:00 | 00:00:00 | |
| DL1XH1-15 | 2026-09-04 06:28:49 | 49.43451 | 8.65594 | 94° | 4km/h | 26652m | 5.7m/s | -47.8°C | 3.2% | 20.8hPa | 2.6V | 08:30:00 | 01:57:56 | 00:00:00 | |
| BIOWL1-15 | 2026-09-04 06:28:49 | 49.43443 | 8.65614 | 125° | 16km/h | 26681m | 6.7m/s | -47.7°C | 0.3% | 20.6hPa | 2.6V | 18:12:15 | 01:58:01 | 00:00:00 | |
| HSKMA3-T | 2026-09-04 06:28:47 | 49.43448 | 8.65604 | 125° | 15km/h | 26670m | 4.7m/s | -47.5°C | 0.2% | 20.7hPa | 2.7V | 18:12:15 | 01:57:59 | 00:00:00 | |
| DM3KS-11 | 2026-09-04 06:28:46 | 49.43450 | 8.65600 | 119° | 11km/h | 26665m | 5.6m/s | -47.6°C | 0.8% | 20.7hPa | 2.6V | 00:00:00 | 00:00:00 | 00:00:00 | |
| DO3MHA-11 | 2026-09-04 06:28:45 | 49.43451 | 8.65596 | 108° | 7km/h | 26659m | 6.7m/s | -47.6°C | 3.1% | 20.7hPa | 2.6V | 00:00:00 | 01:57:57 | 00:00:00 | |
| DM0DOS-11 | 2026-09-04 06:28:44 | 49.43458 | 8.65589 | 162° | 11km/h | 26625m | 4.5m/s | -48°C | 3.3% | 20.8hPa | 2.6V | 08:30:00 | 01:57:51 | 00:00:00 | |
| OE5DXL-15 | 2026-09-04 06:28:44 | 49.43451 | 8.65593 | 95° | 9km/h | 26653m | 5.7m/s | 0°C | 0% | 0hPa | 2.6V | 00:00:00 | 00:00:00 | 00:00:00 | |
| SFWM-10 | 2026-09-04 06:28:43 | 49.43451 | 8.65593 | 95° | 5km/h | 26653m | 5.7m/s | -47.8°C | 0.9% | 20.8hPa | 2.6V | 00:00:00 | 00:00:00 | 00:00:00 | |
| IW2NTF | 2026-09-04 06:28:42 | 49.43462 | 8.65585 | 128° | 7km/h | 26613m | 6.2m/s | 0°C | 0% | 0hPa | 2.6V | 08:30:00 | 01:57:49 | 00:00:00 | |
| DL1XH-west | 2026-09-04 06:28:42 | 49.43452 | 8.65591 | 154° | 4km/h | 26641m | 6.4m/s | -47.8°C | 0.3% | 20.8hPa | 2.7V | 18:12:15 | 01:57:54 | 00:00:00 | |
| AA1-15 | 2026-09-04 06:28:41 | 49.43453 | 8.65591 | 167° | 9km/h | 26635m | 6m/s | 0°C | 0% | 0hPa | 2.7V | 18:12:15 | 01:57:53 | 00:00:00 | |
| BIOWL1-15 | 2026-09-04 06:28:40 | 49.43461 | 8.65587 | 153° | 9km/h | 26619m | 6.2m/s | -48°C | 0.3% | 20.9hPa | 2.6V | 18:12:15 | 01:57:50 | 00:00:00 | |
| DL1XH1-15 | 2026-09-04 06:28:39 | 49.43464 | 8.65575 | 98° | 13km/h | 26596m | 6m/s | -48.1°C | 3.2% | 20.9hPa | 2.6V | 08:30:00 | 01:57:46 | 00:00:00 | |
| HSKMA3-T | 2026-09-04 06:28:37 | 49.43462 | 8.65585 | 129° | 7km/h | 26613m | 6.2m/s | -47.9°C | 0.2% | 20.8hPa | 2.6V | 18:12:15 | 01:57:49 | 00:00:00 | |
| DL1ZP-14 | 2026-09-04 06:28:36 | 49.43463 | 8.65579 | 96° | 9km/h | 26602m | 5.1m/s | -48.1°C | 0.9% | 20.9hPa | 2.7V | 00:00:00 | 00:00:00 | 00:00:00 | |
| DO3MHA-11 | 2026-09-04 06:28:35 | 49.43463 | 8.65579 | 97° | 13km/h | 26602m | 5.1m/s | -48.0°C | 3.2% | 20.8hPa | 2.6V | 00:00:00 | 01:57:47 | 00:00:00 | |
| DM0DOS-11 | 2026-09-04 06:28:34 | 49.43466 | 8.65544 | 69° | 15km/h | 26567m | 6.3m/s | -48.2°C | 3.2% | 21hPa | 2.6V | 08:30:00 | 01:57:41 | 00:00:00 | |
| DJ2DS-15 | 2026-09-04 06:28:34 | 49.43464 | 8.65575 | 99° | 11km/h | 26596m | 5.9m/s | -48.1°C | 3.2% | 20.9hPa | 2.7V | 00:00:00 | 01:57:46 | 00:00:00 | |
| HEMX73-11 | 2026-09-04 06:28:33 | 49.43464 | 8.65575 | 100° | 13km/h | 26596m | 6.0m/s | -48.1°C | 0.9% | 20.9hPa | 2.7V | 00:00:00 | 00:00:00 | 00:00:00 | |
| IW2NTF | 2026-09-04 06:28:32 | 49.43463 | 8.65537 | 39° | 9km/h | 26556m | 5.3m/s | 0°C | 0% | 0hPa | 2.7V | 08:30:00 | 01:57:39 | 00:00:00 | |
| DL1XH-west | 2026-09-04 06:28:32 | 49.43466 | 8.65563 | 106° | 18km/h | 26584m | 5.1m/s | -48.2°C | 0.3% | 20.9hPa | 2.7V | 18:12:15 | 01:57:44 | 00:00:00 | |
| SONDE2-11 | 2026-09-04 06:28:31 | 49.43467 | 8.65556 | 99° | 16km/h | 26579m | 4.8m/s | -48.1°C | 0.9% | 21.0hPa | 2.6V | 00:00:00 | 00:00:00 | 00:00:00 | |
| DB0UT-9 | 2026-09-04 06:28:30 | 49.43467 | 8.65556 | 101° | 18km/h | 26579m | 4.8m/s | -48.1°C | 0.9% | 21.0hPa | 2.6V | 00:00:00 | 00:00:00 | 00:00:00 | |
| DL1XH1-15 | 2026-09-04 06:28:29 | 49.43460 | 8.65534 | 223° | 0km/h | 26538m | 4.9m/s | -48.3°C | 3.3% | 21.1hPa | 2.6V | 08:30:00 | 01:57:36 | 00:00:00 | |
| BIOWL1-15 | 2026-09-04 06:28:27 | 49.43463 | 8.65537 | 39° | 9km/h | 26556m | 5.3m/s | -48.3°C | 0.3% | 21.1hPa | 2.7V | 18:12:15 | 01:57:39 | 00:00:00 | |
| HSKMA3-T | 2026-09-04 06:28:26 | 49.43461 | 8.65535 | 37° | 5km/h | 26550m | 6.5m/s | -48.3°C | 0.3% | 21.1hPa | 2.6V | 18:12:15 | 01:57:38 | 00:00:00 | |
| DL1XH-west | 2026-09-04 06:28:21 | 49.43458 | 8.65534 | 21° | 9km/h | 26521m | 6m/s | -48.4°C | 0.4% | 21.2hPa | 2.7V | 18:12:15 | 01:57:33 | 00:00:00 | |
| DB0UT-7 | 2026-09-04 06:28:21 | 49.43458 | 8.65534 | 21° | 9km/h | 26522m | 5.9m/s | -48.3°C | 3.3% | 21.1hPa | 2.7V | 00:00:00 | 00:00:00 | 00:00:00 | |
| DL1XH1-15 | 2026-09-04 06:28:19 | 49.43445 | 8.65506 | 37° | 15km/h | 26483m | 6.3m/s | -48.7°C | 3.2% | 21.3hPa | 2.5V | 08:30:00 | 01:57:26 | 00:00:00 | |
| BIOWL1-15 | 2026-09-04 06:28:16 | 49.43449 | 8.65515 | 65° | 15km/h | 26494m | 4.5m/s | -48.6°C | 0.4% | 21.2hPa | 2.7V | 18:12:15 | 01:57:28 | 00:00:00 | |
| HSKMA3-T | 2026-09-04 06:28:15 | 49.43447 | 8.65510 | 54° | 15km/h | 26489m | 5.4m/s | -48.6°C | 0.4% | 21.3hPa | 2.7V | 18:12:15 | 01:57:27 | 00:00:00 | |
| DO3MHA-11 | 2026-09-04 06:28:15 | 49.43447 | 8.65510 | 55° | 9km/h | 26489m | 5.3m/s | -48.6°C | 3.3% | 21.2hPa | 2.7V | 00:00:00 | 01:57:27 | 08:30:00 | |
| DJ2DS-15 | 2026-09-04 06:28:14 | 49.43445 | 8.65506 | 38° | 7km/h | 26483m | 6.3m/s | -48.6°C | 3.2% | 21.3hPa | 2.5V | 00:00:00 | 01:57:26 | 00:00:00 | |
| OE5DXL-15 | 2026-09-04 06:28:13 | 49.43441 | 8.65503 | 22° | 9km/h | 26477m | 5.3m/s | 0°C | 0% | 0hPa | 2.6V | 00:00:00 | 00:00:00 | 00:00:00 | |
| DM0DOS-11 | 2026-09-04 06:28:11 | 49.43433 | 8.65504 | 126° | 2km/h | 26438m | 6.2m/s | -48.8°C | 3.4% | 21.4hPa | 2.6V | 08:30:00 | 01:57:18 | 00:00:00 | |
| DL1XH-west | 2026-09-04 06:28:10 | 49.43433 | 8.65502 | 343° | 7km/h | 26461m | 6.6m/s | -48.9°C | 0.3% | 21.4hPa | 2.7V | 18:12:15 | 01:57:22 | 00:00:00 | |
| DL1XH1-15 | 2026-09-04 06:28:09 | 49.43431 | 8.65501 | 57° | 9km/h | 26426m | 4.5m/s | -48.9°C | 3.5% | 21.5hPa | 2.7V | 08:30:00 | 01:57:16 | 00:00:00 | |
| BIOWL1-15 | 2026-09-04 06:28:06 | 49.43433 | 8.65504 | 126° | 2km/h | 26438m | 6.2m/s | -48.8°C | 0.4% | 21.4hPa | 2.6V | 18:12:15 | 01:57:18 | 00:00:00 | |
| HSKMA3-T | 2026-09-04 06:28:04 | 49.43432 | 8.65501 | 57° | 9km/h | 26426m | 4.5m/s | -48.9°C | 0.5% | 21.5hPa | 2.7V | 18:12:15 | 01:57:16 | 00:00:00 | |
| DL3AQ-11 | 2026-09-04 06:28:03 | 49.43430 | 8.65498 | 66° | 9km/h | 26422m | 4.4m/s | -48.9°C | 0.9% | 21.5hPa | 2.7V | 00:00:00 | 00:00:00 | 00:00:00 | |
| SFWM-10 | 2026-09-04 06:28:02 | 49.43430 | 8.65497 | 68° | 11km/h | 26423m | 4.4m/s | -48.9°C | 0.9% | 21.5hPa | 2.7V | 00:00:00 | 00:00:00 | 00:00:00 | |
| DM0DOS-11 | 2026-09-04 06:28:01 | 49.43432 | 8.65484 | 255° | 5km/h | 26382m | 4.7m/s | -49.1°C | 3.3% | 21.6hPa | 2.7V | 08:30:00 | 01:57:08 | 00:00:00 | |
| DL1XH-west | 2026-09-04 06:28:00 | 49.43430 | 8.65486 | 110° | 9km/h | 26405m | 5.4m/s | -48.9°C | 0.3% | 21.5hPa | 2.7V | 18:12:15 | 01:57:12 | 00:00:00 | |
| BIOWL1-15 | 2026-09-04 06:27:55 | 49.43433 | 8.65487 | 238° | 9km/h | 26377m | 5.2m/s | -49.2°C | 0.4% | 21.6hPa | 2.6V | 18:12:15 | 01:57:07 | 00:00:00 | |
| HSKMA3-T | 2026-09-04 06:27:53 | 49.43438 | 8.65493 | 207° | 16km/h | 26366m | 5.6m/s | -49.1°C | 0.4% | 21.7hPa | 2.6V | 18:12:15 | 01:57:05 | 00:00:00 | |
| DL3AQ-11 | 2026-09-04 06:27:52 | 49.43441 | 8.65495 | 195° | 16km/h | 26360m | 4.6m/s | -49.1°C | 0.9% | 21.7hPa | 2.7V | 00:00:00 | 00:00:00 | 00:00:00 | |
| DM0DOS-11 | 2026-09-04 06:27:51 | 49.43454 | 8.65489 | 119° | 9km/h | 26329m | 5.7m/s | -49.4°C | 3.5% | 21.8hPa | 2.7V | 08:30:00 | 01:56:58 | 00:00:00 | |
| DL1XH-west | 2026-09-04 06:27:50 | 49.43449 | 8.65496 | 178° | 11km/h | 26350m | 5.9m/s | -49.1°C | 0.4% | 21.7hPa | 2.7V | 18:12:15 | 01:57:02 | 00:00:00 | |
| DD1CC8 | 2026-09-04 06:27:46 | 49.43454 | 8.65489 | 119° | 9km/h | 26329m | 5.7m/s | -49.4°C | 1.0% | 21.8hPa | 2.7V | 00:00:00 | 00:00:00 | 00:00:00 | |
| BIOWL1-15 | 2026-09-04 06:27:44 | 49.43458 | 8.65482 | 142° | 13km/h | 26317m | 5.3m/s | -49.5°C | 0.5% | 21.8hPa | 2.7V | 18:12:15 | 01:56:56 | 00:00:00 | |
| HSKMA3-T | 2026-09-04 06:27:43 | 49.43460 | 8.65479 | 151° | 13km/h | 26312m | 5.1m/s | -49.4°C | 0.5% | 21.9hPa | 2.5V | 18:12:15 | 01:56:55 | 00:00:00 | |
| NBG1-10 | 2026-09-04 06:27:43 | 49.43460 | 8.65479 | 152° | 15km/h | 26312m | 5.1m/s | -49.4°C | 3.5% | 21.8hPa | 2.6V | 00:00:00 | 01:56:55 | 00:00:00 | |
| SFWM-10 | 2026-09-04 06:27:41 | 49.43463 | 8.65477 | 161° | 11km/h | 26306m | 6.2m/s | -49.4°C | 0.9% | 21.9hPa | 2.6V | 00:00:00 | 00:00:00 | 00:00:00 | |
| DF7PN | 2026-09-04 06:27:40 | 49.43470 | 8.65479 | 210° | 11km/h | 26290m | 5.0m/s | -49.3°C | 0.9% | 21.9hPa | 2.6V | 00:00:00 | 00:00:00 | 00:00:00 | |
| DL1XH1-15 | 2026-09-04 06:27:39 | 49.43493 | 8.65492 | 191° | 20km/h | 26261m | 5.7m/s | -49.4°C | 3.6% | 22hPa | 2.6V | 08:30:00 | 01:56:46 | 00:00:00 | |
| DL1XH-west | 2026-09-04 06:27:39 | 49.43470 | 8.65479 | 210° | 11km/h | 26290m | 5m/s | -49.3°C | 0.4% | 21.9hPa | 2.7V | 18:12:15 | 01:56:51 | 00:00:00 | |
| BIOWL1-15 | 2026-09-04 06:27:35 | 49.43498 | 8.65493 | 185° | 16km/h | 26255m | 6.1m/s | -49.4°C | 0.5% | 22.1hPa | 2.6V | 18:12:15 | 01:56:45 | 00:00:00 | |
| HSKMA3-T | 2026-09-04 06:27:32 | 49.43501 | 8.65493 | 170° | 11km/h | 26250m | 5.1m/s | -49.5°C | 0.5% | 22.1hPa | 2.7V | 18:12:15 | 01:56:44 | 00:00:00 | |
| HEMX73-11 | 2026-09-04 06:27:31 | 49.43501 | 8.65493 | 171° | 11km/h | 26250m | 5.1m/s | -49.5°C | 1.0% | 22.1hPa | 2.6V | 00:00:00 | 00:00:00 | 00:00:00 | |
| DL1XH1-15 | 2026-09-04 06:27:29 | 49.43525 | 8.65482 | 202° | 13km/h | 26205m | 4.5m/s | -49.6°C | 3.5% | 22.2hPa | 2.6V | 08:30:00 | 01:56:36 | 00:00:00 | |
| DL1XH-west | 2026-09-04 06:27:29 | 49.43510 | 8.65486 | 149° | 16km/h | 26233m | 6.1m/s | -49.5°C | 0.5% | 22.1hPa | 2.6V | 18:12:15 | 01:56:41 | 00:00:00 | |
| BIOWL1-15 | 2026-09-04 06:27:23 | 49.43528 | 8.65484 | 198° | 16km/h | 26200m | 6.3m/s | -49.6°C | 0.5% | 22.2hPa | 2.6V | 18:12:15 | 01:56:35 | 00:00:00 | |
| HSKMA3-T | 2026-09-04 06:27:21 | 49.43538 | 8.65487 | 185° | 20km/h | 26188m | 5.1m/s | -49.5°C | 0.5% | 22.3hPa | 2.7V | 18:12:15 | 01:56:33 | 00:00:00 | |
| DM0DOS-11 | 2026-09-04 06:27:21 | 49.43556 | 8.65479 | 137° | 15km/h | 26160m | 6m/s | -49.3°C | 3.5% | 22.4hPa | 2.6V | 08:30:00 | 01:56:28 | 00:00:00 | |
| DB0UT-7 | 2026-09-04 06:27:21 | 49.43538 | 8.65487 | 186° | 15km/h | 26188m | 5.1m/s | -49.4°C | 3.5% | 22.2hPa | 2.7V | 00:00:00 | 00:00:00 | 00:00:00 | |
| DL1XH1-15 | 2026-09-04 06:27:19 | 49.43562 | 8.65471 | 140° | 16km/h | 26148m | 5.2m/s | -49.3°C | 3.4% | 22.4hPa | 2.7V | 08:30:00 | 01:56:26 | 00:00:00 | |
| DL1XH-west | 2026-09-04 06:27:18 | 49.43550 | 8.65485 | 156° | 13km/h | 26171m | 5.5m/s | -49.3°C | 0.6% | 22.3hPa | 2.6V | 18:12:15 | 01:56:30 | 00:00:00 | |
| BIOWL1-15 | 2026-09-04 06:27:14 | 49.43567 | 8.65464 | 145° | 11km/h | 26137m | 6.6m/s | -49.4°C | 0.4% | 22.4hPa | 2.6V | 18:12:15 | 01:56:24 | 00:00:00 | |
| DJ2DS-15 | 2026-09-04 06:27:14 | 49.43562 | 8.65471 | 141° | 15km/h | 26149m | 5.1m/s | -49.2°C | 3.4% | 22.4hPa | 2.7V | 00:00:00 | 01:56:26 | 08:30:00 | |
| OE5DXL-15 | 2026-09-04 06:27:13 | 49.43565 | 8.65467 | 143° | 16km/h | 26143m | 5.2m/s | 0°C | 0% | 0hPa | 2.7V | 00:00:00 | 01:56:25 | 00:00:00 | |
| DG9SBQ-11 | 2026-09-04 06:27:12 | 49.43565 | 8.65467 | 143° | 15km/h | 26143m | 5.2m/s | -49.3°C | 0.9% | 22.4hPa | 2.7V | 00:00:00 | 00:00:00 | 00:00:00 | |
| DM0DOS-11 | 2026-09-04 06:27:11 | 49.43586 | 8.65461 | 169° | 22km/h | 26104m | 5m/s | -49.3°C | 3.4% | 22.6hPa | 2.7V | 08:30:00 | 01:56:18 | 00:00:00 | |
| HSKMA3-T | 2026-09-04 06:27:11 | 49.43569 | 8.65463 | 154° | 7km/h | 26131m | 5.6m/s | -49.5°C | 0.5% | 22.5hPa | 2.7V | 18:12:15 | 01:56:23 | 00:00:00 | |
| DF8AY | 2026-09-04 06:27:09 | 49.43576 | 8.65462 | 182° | 15km/h | 26116m | 6.4m/s | 0°C | 0% | 0hPa | 2.6V | 18:12:15 | 01:56:20 | 00:00:00 | |
| DL1XH-west | 2026-09-04 06:27:07 | 49.43580 | 8.65462 | 175° | 20km/h | 26110m | 6.1m/s | -49.4°C | 0.4% | 22.5hPa | 2.7V | 18:12:15 | 01:56:19 | 00:00:00 | |
| BIOWL1-15 | 2026-09-04 06:27:02 | 49.43602 | 8.65451 | 138° | 11km/h | 26084m | 5.6m/s | -49.3°C | 0.5% | 22.6hPa | 2.7V | 18:12:15 | 01:56:14 | 00:00:00 | |
| HSKMA3-T | 2026-09-04 06:27:00 | 49.43605 | 8.65445 | 119° | 9km/h | 26074m | 4.9m/s | -49.3°C | 0.5% | 22.7hPa | 2.7V | 18:12:15 | 01:56:12 | 00:00:00 | |
| DL1XH-west | 2026-09-04 06:26:56 | 49.43616 | 8.65427 | 140° | 22km/h | 26052m | 4.9m/s | -49.4°C | 0.4% | 22.7hPa | 2.7V | 18:12:15 | 01:56:08 | 00:00:00 | |
| BIOWL1-15 | 2026-09-04 06:26:52 | 49.43630 | 8.65411 | 143° | 13km/h | 26030m | 5.1m/s | -49.4°C | 0.4% | 22.8hPa | 2.6V | 18:12:15 | 01:56:04 | 00:00:00 | |
| DJTTGO | 2026-09-04 06:26:52 | 49.43630 | 8.65411 | 144° | 13km/h | 26030m | 5.1m/s | -49.4°C | 0.9% | 22.8hPa | 2.7V | 00:00:00 | 00:00:00 | 00:00:00 | |
| DM0DOS-11 | 2026-09-04 06:26:51 | 49.43652 | 8.65383 | 132° | 20km/h | 25996m | 6.4m/s | -49.4°C | 3.3% | 22.9hPa | 2.7V | 08:30:00 | 01:55:58 | 00:00:00 | |
| HSKMA3-T | 2026-09-04 06:26:49 | 49.43640 | 8.65399 | 142° | 22km/h | 26012m | 5m/s | -49.4°C | 0.4% | 22.9hPa | 2.7V | 18:12:15 | 01:56:01 | 00:00:00 | |
| DL1XH-west | 2026-09-04 06:26:45 | 49.43655 | 8.65378 | 129° | 18km/h | 25990m | 5.6m/s | -49.5°C | 0.4% | 23hPa | 2.7V | 18:12:15 | 01:55:57 | 00:00:00 | |
| DO3MHA-11 | 2026-09-04 06:26:45 | 49.43655 | 8.65378 | 130° | 18km/h | 25990m | 5.6m/s | -49.5°C | 3.3% | 22.9hPa | 2.7V | 00:00:00 | 01:55:57 | 08:30:00 | |
| DD1CC8 | 2026-09-04 06:26:44 | 49.43661 | 8.65366 | 132° | 20km/h | 25979m | 6.0m/s | -49.8°C | 1.0% | 23.0hPa | 2.7V | 00:00:00 | 00:00:00 | 00:00:00 | |
| DL3AQ-11 | 2026-09-04 06:26:43 | 49.43665 | 8.65360 | 137° | 22km/h | 25974m | 5.1m/s | -49.8°C | 1.0% | 23.1hPa | 2.7V | 00:00:00 | 00:00:00 | 00:00:00 | |
| DM3KS-11 | 2026-09-04 06:26:42 | 49.43669 | 8.65354 | 140° | 22km/h | 25969m | 3.6m/s | -49.8°C | 1.0% | 23.1hPa | 2.7V | 00:00:00 | 00:00:00 | 00:00:00 | |
| DM0DOS-11 | 2026-09-04 06:26:41 | 49.43682 | 8.65330 | 107° | 15km/h | 25942m | 5.2m/s | -49.9°C | 3.6% | 23.1hPa | 2.7V | 08:30:00 | 01:55:48 | 00:00:00 | |
| BIOWL1-15 | 2026-09-04 06:26:41 | 49.43669 | 8.65354 | 140° | 22km/h | 25969m | 3.6m/s | -49.8°C | 0.5% | 23.1hPa | 2.7V | 18:12:15 | 01:55:53 | 00:00:00 | |
| DL1XH1-15 | 2026-09-04 06:26:39 | 49.43686 | 8.65316 | 111° | 22km/h | 25931m | 5.2m/s | -49.8°C | 3.5% | 23.2hPa | 2.6V | 08:30:00 | 01:55:46 | 00:00:00 | |
| HSKMA3-T | 2026-09-04 06:26:39 | 49.43677 | 8.65344 | 135° | 16km/h | 25960m | 6.2m/s | -49.8°C | 0.5% | 23.1hPa | 2.6V | 18:12:15 | 01:55:51 | 00:00:00 | |
| DL1XH-west | 2026-09-04 06:26:34 | 49.43685 | 8.65317 | 112° | 22km/h | 25931m | 5.2m/s | -49.8°C | 0.5% | 23.2hPa | 2.6V | 18:12:15 | 01:55:46 | 00:00:00 | |
| DJ2DS-15 | 2026-09-04 06:26:34 | 49.43685 | 8.65317 | 112° | 15km/h | 25931m | 5.2m/s | -49.8°C | 3.5% | 23.1hPa | 2.6V | 00:00:00 | 01:55:46 | 00:00:00 | |
| DF1GD-15 | 2026-09-04 06:26:33 | 49.43686 | 8.65316 | 113° | 22km/h | 25931m | 5.2m/s | -49.8°C | 1.0% | 23.2hPa | 2.6V | 00:00:00 | 00:00:00 | 00:00:00 | |
| AU51GT2 | 2026-09-04 06:26:32 | 49.43689 | 8.65300 | 108° | 20km/h | 25920m | 5.9m/s | -49.9°C | 0.9% | 23.2hPa | 2.6V | 00:00:00 | 00:00:00 | 00:00:00 | |
| DM0DOS-11 | 2026-09-04 06:26:31 | 49.43698 | 8.65267 | 125° | 13km/h | 25886m | 4.8m/s | -49.6°C | 3.5% | 23.3hPa | 2.6V | 08:30:00 | 01:55:38 | 00:00:00 | |
| BIOWL1-15 | 2026-09-04 06:26:30 | 49.43692 | 8.65287 | 103° | 15km/h | 25909m | 5.3m/s | -49.8°C | 0.5% | 23.2hPa | 2.7V | 18:12:15 | 01:55:42 | 00:00:00 | |
| DL1XH1-15 | 2026-09-04 06:26:29 | 49.43700 | 8.65260 | 97° | 7km/h | 25876m | 6.6m/s | -49.6°C | 3.5% | 23.4hPa | 2.7V | 08:30:00 | 01:55:36 | 00:00:00 | |
| HSKMA3-T | 2026-09-04 06:26:29 | 49.43693 | 8.65281 | 109° | 15km/h | 25903m | 5m/s | -49.7°C | 0.5% | 23.3hPa | 2.7V | 18:12:15 | 01:55:41 | 00:00:00 | |
| DL1XH-west | 2026-09-04 06:26:24 | 49.43700 | 8.65260 | 98° | 7km/h | 25876m | 6.6m/s | -49.6°C | 0.5% | 23.4hPa | 2.7V | 18:12:15 | 01:55:36 | 00:00:00 | |
| BIOWL9-15 | 2026-09-04 06:26:24 | 49.43700 | 8.65257 | 62° | 7km/h | 25870m | 6.2m/s | -49.6°C | 1.0% | 23.4hPa | 2.7V | 00:00:00 | 00:00:00 | 00:00:00 | |
| DF3TZ-5 | 2026-09-04 06:26:22 | 49.43698 | 8.65254 | 52° | 9km/h | 25864m | 5.3m/s | -49.7°C | 1.0% | 23.4hPa | 2.7V | 00:00:00 | 00:00:00 | 00:00:00 | |
| DM0DOS-11 | 2026-09-04 06:26:21 | 49.43695 | 8.65223 | 79° | 13km/h | 25830m | 6.4m/s | -49.9°C | 3.4% | 23.5hPa | 2.7V | 08:30:00 | 01:55:28 | 00:00:00 | |
| BIOWL1-15 | 2026-09-04 06:26:20 | 49.43696 | 8.65246 | 77° | 13km/h | 25852m | 6.5m/s | -49.7°C | 0.6% | 23.5hPa | 2.7V | 18:12:15 | 01:55:32 | 00:00:00 | |
| DL1XH1-15 | 2026-09-04 06:26:19 | 49.43694 | 8.65214 | 81° | 9km/h | 25819m | 5m/s | -49.9°C | 3.4% | 23.6hPa | 2.7V | 08:30:00 | 01:55:26 | 00:00:00 | |
| HSKMA3-T | 2026-09-04 06:26:18 | 49.43695 | 8.65234 | 91° | 16km/h | 25841m | 4.7m/s | -49.8°C | 0.5% | 23.5hPa | 2.6V | 18:12:15 | 01:55:30 | 00:00:00 | |
| DL1XH-west | 2026-09-04 06:26:13 | 49.43694 | 8.65211 | 94° | 9km/h | 25813m | 6.5m/s | -49.8°C | 0.5% | 23.6hPa | 2.6V | 18:12:15 | 01:55:25 | 00:00:00 | |
| BIOWL1-15 | 2026-09-04 06:26:10 | 49.43694 | 8.65203 | 63° | 4km/h | 25796m | 6.2m/s | -49.8°C | 0.5% | 23.7hPa | 2.7V | 18:12:15 | 01:55:22 | 00:00:00 | |
| DJ2DS-15 | 2026-09-04 06:26:10 | 49.43693 | 8.65202 | 9° | 4km/h | 25790m | 6.1m/s | -49.9°C | 1.0% | 23.7hPa | 2.7V | 00:00:00 | 00:00:00 | 00:00:00 | |
| DL1XH1-15 | 2026-09-04 06:26:09 | 49.43691 | 8.65194 | 112° | 13km/h | 25763m | 5.1m/s | -50.1°C | 3.5% | 23.8hPa | 2.7V | 08:30:00 | 01:55:16 | 00:00:00 | |
| HSKMA3-T | 2026-09-04 06:26:07 | 49.43691 | 8.65201 | 22° | 4km/h | 25780m | 4.5m/s | -50°C | 0.5% | 23.7hPa | 2.6V | 18:12:15 | 01:55:19 | 00:00:00 | |
| BIOWL1-15 | 2026-09-04 06:26:04 | 49.43695 | 8.65178 | 107° | 9km/h | 25741m | 5.5m/s | -50.3°C | 0.5% | 23.9hPa | 2.7V | 18:12:15 | 01:55:12 | 00:00:00 | |
| DL1XH-west | 2026-09-04 06:26:02 | 49.43693 | 8.65185 | 112° | 11km/h | 25753m | 6.2m/s | -50.1°C | 0.5% | 23.8hPa | 2.6V | 18:12:15 | 01:55:14 | 00:00:00 | |
| AU51GT2 | 2026-09-04 06:26:01 | 49.43694 | 8.65181 | 108° | 9km/h | 25747m | 5.7m/s | -50.2°C | 1.0% | 23.8hPa | 2.7V | 00:00:00 | 00:00:00 | 00:00:00 | |
| DL1ZP-14 | 2026-09-04 06:26:00 | 49.43695 | 8.65178 | 107° | 7km/h | 25742m | 5.5m/s | -50.3°C | 1.0% | 23.9hPa | 2.7V | 00:00:00 | 00:00:00 | 00:00:00 | |
| DK5PH-5 | 2026-09-04 06:25:59 | 49.43696 | 8.65174 | 112° | 9km/h | 25736m | 5.6m/s | -50.1°C | 3.5% | 23.8hPa | 2.7V | 00:00:00 | 01:55:11 | 08:30:00 | |
| DM0DOS-11 | 2026-09-04 06:25:58 | 49.43700 | 8.65152 | 47° | 5km/h | 25703m | 6.4m/s | -50.4°C | 3.7% | 24hPa | 2.7V | 08:30:00 | 01:55:05 | 00:00:00 | |
| HSKMA3-T | 2026-09-04 06:25:57 | 49.43698 | 8.65166 | 116° | 13km/h | 25724m | 5.1m/s | -50.1°C | 0.5% | 23.9hPa | 2.6V | 18:12:15 | 01:55:09 | 00:00:00 | |
| DL1XH-west | 2026-09-04 06:25:52 | 49.43699 | 8.65150 | 30° | 5km/h | 25697m | 5.4m/s | -50.4°C | 0.6% | 24hPa | 2.6V | 18:12:15 | 01:55:04 | 00:00:00 | |
| BIOWL1-15 | 2026-09-04 06:25:52 | 49.43698 | 8.65147 | 103° | 7km/h | 25687m | 6.4m/s | -50.5°C | 0.6% | 24.1hPa | 2.6V | 18:12:15 | 01:55:02 | 00:00:00 | |
| DL6DJ-15 | 2026-09-04 06:25:52 | 49.43698 | 8.65149 | 68° | 4km/h | 25692m | 4.7m/s | -50.4°C | 1.0% | 24.1hPa | 2.6V | 00:00:00 | 00:00:00 | 00:00:00 | |
| DG9SBQ-11 | 2026-09-04 06:25:51 | 49.43699 | 8.65149 | 69° | 4km/h | 25693m | 4.7m/s | -50.4°C | 1.0% | 24.1hPa | 2.6V | 00:00:00 | 00:00:00 | 00:00:00 | |
| DL8DAS-15 | 2026-09-04 06:25:50 | 49.43699 | 8.65149 | 69° | 4km/h | 25693m | 4.7m/s | -50.4°C | 1.0% | 24.1hPa | 2.6V | 00:00:00 | 00:00:00 | 00:00:00 | |
| DL1XH1-15 | 2026-09-04 06:25:49 | 49.43707 | 8.65122 | 102° | 7km/h | 25652m | 5.2m/s | -50.5°C | 3.6% | 24.2hPa | 2.6V | 08:30:00 | 01:54:56 | 00:00:00 | |
| HSKMA3-T | 2026-09-04 06:25:46 | 49.43705 | 8.65130 | 117° | 13km/h | 25664m | 6.2m/s | -50.4°C | 0.5% | 24.1hPa | 2.6V | 18:12:15 | 01:54:58 | 00:00:00 | |
| BIOWL1-15 | 2026-09-04 06:25:43 | 49.43710 | 8.65113 | 196° | 2km/h | 25625m | 4.9m/s | -50.6°C | 0.5% | 24.3hPa | 2.7V | 18:12:15 | 01:54:51 | 00:00:00 | |
| DL1XH-west | 2026-09-04 06:25:41 | 49.43708 | 8.65115 | 130° | 7km/h | 25635m | 5.4m/s | -50.4°C | 0.5% | 24.3hPa | 2.6V | 18:12:15 | 01:54:53 | 00:00:00 | |
| DM3KS-11 | 2026-09-04 06:25:40 | 49.43710 | 8.65113 | 196° | 2km/h | 25626m | 4.9m/s | -50.6°C | 1.0% | 24.3hPa | 2.7V | 00:00:00 | 00:00:00 | 00:00:00 | |
| DL1XH1-15 | 2026-09-04 06:25:39 | 49.43702 | 8.65118 | 14° | 11km/h | 25596m | 6.1m/s | -50.6°C | 3.7% | 24.4hPa | 2.7V | 08:30:00 | 01:54:46 | 00:00:00 | |
| DM0DOS-11 | 2026-09-04 06:25:38 | 49.43699 | 8.65117 | 36° | 11km/h | 25590m | 5.1m/s | -50.6°C | 3.6% | 24.4hPa | 2.7V | 08:30:00 | 01:54:45 | 00:00:00 | |
| HSKMA3-T | 2026-09-04 06:25:35 | 49.43704 | 8.65119 | 351° | 11km/h | 25602m | 5.7m/s | -50.6°C | 0.6% | 24.4hPa | 2.6V | 18:12:15 | 01:54:47 | 00:00:00 | |
| DL1XH-west | 2026-09-04 06:25:30 | 49.43692 | 8.65108 | 28° | 13km/h | 25575m | 6.5m/s | -50.7°C | 0.6% | 24.5hPa | 2.6V | 18:12:15 | 01:54:42 | 00:00:00 | |
| BIOWL1-15 | 2026-09-04 06:25:30 | 49.43687 | 8.65105 | 8° | 9km/h | 25563m | 5.2m/s | -50.7°C | 0.6% | 24.5hPa | 2.7V | 18:12:15 | 01:54:40 | 00:00:00 | |
| DL1XH1-15 | 2026-09-04 06:25:29 | 49.43680 | 8.65107 | 322° | 11km/h | 25542m | 4.8m/s | -50.6°C | 3.7% | 24.6hPa | 2.6V | 08:30:00 | 01:54:36 | 00:00:00 | |
| DK5PH-5 | 2026-09-04 06:25:29 | 49.43689 | 8.65106 | 16° | 15km/h | 25569m | 5.7m/s | -50.7°C | 3.7% | 24.5hPa | 2.6V | 00:00:00 | 01:54:41 | 00:00:00 | |
| DM0DOS-11 | 2026-09-04 06:25:28 | 49.43678 | 8.65110 | 317° | 15km/h | 25536m | 6.4m/s | -50.6°C | 3.6% | 24.6hPa | 2.6V | 08:30:00 | 01:54:35 | 00:00:00 | |
| HSKMA3-T | 2026-09-04 06:25:24 | 49.43680 | 8.65107 | 322° | 11km/h | 25542m | 4.8m/s | -50.7°C | 0.6% | 24.6hPa | 2.6V | 18:12:15 | 01:54:36 | 00:00:00 | |
| DL1XH-west | 2026-09-04 06:25:20 | 49.43665 | 8.65123 | 339° | 22km/h | 25520m | 5m/s | -50.8°C | 0.6% | 24.7hPa | 2.6V | 18:12:15 | 01:54:32 | 00:00:00 | |
| BIOWL1-15 | 2026-09-04 06:25:19 | 49.43651 | 8.65122 | 20° | 20km/h | 25504m | 4.4m/s | -50.8°C | 0.6% | 24.8hPa | 2.7V | 18:12:15 | 01:54:29 | 00:00:00 | |
| DM0DOS-11 | 2026-09-04 06:25:18 | 49.43633 | 8.65116 | 353° | 15km/h | 25482m | 4.8m/s | -50.8°C | 3.6% | 24.9hPa | 2.7V | 08:30:00 | 01:54:25 | 00:00:00 | |
| HSKMA3-T | 2026-09-04 06:25:14 | 49.43637 | 8.65116 | 5° | 16km/h | 25487m | 5.3m/s | -50.8°C | 0.5% | 24.8hPa | 2.6V | 18:12:15 | 01:54:26 | 00:00:00 | |
| DL1XH-west | 2026-09-04 06:25:10 | 49.43625 | 8.65119 | 352° | 5km/h | 25466m | 5.9m/s | -50.8°C | 0.5% | 24.9hPa | 2.6V | 18:12:15 | 01:54:22 | 00:00:00 | |
| DL1XH1-15 | 2026-09-04 06:25:09 | 49.43604 | 8.65124 | 352° | 26km/h | 25434m | 4.2m/s | -51°C | 3.7% | 25hPa | 2.6V | 08:30:00 | 01:54:16 | 00:00:00 | |
| BIOWL1-15 | 2026-09-04 06:25:06 | 49.43615 | 8.65121 | 347° | 18km/h | 25443m | 6.2m/s | -50.9°C | 0.6% | 25hPa | 2.7V | 18:12:15 | 01:54:18 | 00:00:00 | |
| HSKMA3-T | 2026-09-04 06:25:03 | 49.43597 | 8.65125 | 359° | 24km/h | 25429m | 5.8m/s | -51.2°C | 0.6% | 25.1hPa | 2.6V | 18:12:15 | 01:54:15 | 00:00:00 | |
| DO1YAY-16 | 2026-09-04 06:25:02 | 49.43591 | 8.65124 | 6° | 22km/h | 25423m | 5.7m/s | -51.2°C | 1.0% | 25.1hPa | 2.6V | 00:00:00 | 00:00:00 | 00:00:00 | |
| DG9SBQ-11 | 2026-09-04 06:25:00 | 49.43586 | 8.65123 | 11° | 20km/h | 25418m | 4.9m/s | -51.2°C | 1.0% | 25.1hPa | 2.6V | 00:00:00 | 00:00:00 | 00:00:00 | |
| DL1XH1-15 | 2026-09-04 06:24:59 | 49.43559 | 8.65130 | 336° | 11km/h | 25379m | 5.1m/s | -51.2°C | 3.8% | 25.2hPa | 2.6V | 08:30:00 | 01:54:06 | 00:00:00 | |
| DL1XH-west | 2026-09-04 06:24:59 | 49.43576 | 8.65122 | 358° | 18km/h | 25407m | 6.4m/s | -51.3°C | 0.8% | 25.1hPa | 2.6V | 18:12:15 | 01:54:11 | 00:00:00 | |
| BIOWL1-15 | 2026-09-04 06:24:56 | 49.43565 | 8.65127 | 338° | 13km/h | 25391m | 5.7m/s | -51.1°C | 0.7% | 25.2hPa | 2.7V | 18:12:15 | 01:54:08 | 00:00:00 | |
| HSKMA3-T | 2026-09-04 06:24:53 | 49.43556 | 8.65132 | 331° | 13km/h | 25374m | 4.5m/s | -51.2°C | 0.7% | 25.3hPa | 2.6V | 18:12:15 | 01:54:05 | 00:00:00 | |
| BIOWL1-15 | 2026-09-04 06:24:50 | 49.43527 | 8.65157 | 340° | 15km/h | 25335m | 4.7m/s | -51.1°C | 0.7% | 25.4hPa | 2.7V | 18:12:15 | 01:53:58 | 00:00:00 | |
| DL1XH1-15 | 2026-09-04 06:24:49 | 49.43521 | 8.65162 | 322° | 16km/h | 25324m | 6.2m/s | -51.1°C | 3.7% | 25.5hPa | 2.7V | 08:30:00 | 01:53:56 | 00:00:00 | |
| DF3TZ-5 | 2026-09-04 06:24:49 | 49.43535 | 8.65153 | 336° | 18km/h | 25347m | 6.6m/s | -51.3°C | 1.1% | 25.4hPa | 2.6V | 00:00:00 | 00:00:00 | 00:00:00 | |
| DM0DOS-11 | 2026-09-04 06:24:48 | 49.43518 | 8.65167 | 311° | 15km/h | 25318m | 5m/s | -51.1°C | 3.8% | 25.5hPa | 2.6V | 08:30:00 | 01:53:55 | 00:00:00 | |
| DL1XH-west | 2026-09-04 06:24:48 | 49.43535 | 8.65153 | 336° | 20km/h | 25347m | 6.6m/s | -51.3°C | 0.7% | 25.4hPa | 2.6V | 18:12:15 | 01:54:00 | 00:00:00 | |
| HSKMA3-T | 2026-09-04 06:24:42 | 49.43516 | 8.65171 | 303° | 13km/h | 25313m | 5.3m/s | -51.1°C | 0.7% | 25.5hPa | 2.6V | 18:12:15 | 01:53:54 | 00:00:00 | |
| KANTATE | 2026-09-04 06:24:41 | 49.43516 | 8.65171 | 304° | 13km/h | 25313m | 5.3m/s | -51.1°C | 1.0% | 25.5hPa | 2.6V | 00:00:00 | 00:00:00 | 00:00:00 | |
| DD1CC8 | 2026-09-04 06:24:40 | 49.43511 | 8.65183 | 303° | 13km/h | 25297m | 4.3m/s | -51.1°C | 1.0% | 25.6hPa | 2.6V | 00:00:00 | 00:00:00 | 00:00:00 | |
| DL1XH1-15 | 2026-09-04 06:24:39 | 49.43498 | 8.65211 | 294° | 15km/h | 25270m | 6.4m/s | -50.9°C | 3.7% | 25.7hPa | 2.6V | 08:30:00 | 01:53:46 | 00:00:00 | |
| DM0DOS-11 | 2026-09-04 06:24:38 | 49.43497 | 8.65216 | 281° | 13km/h | 25264m | 5.4m/s | -50.9°C | 3.8% | 25.7hPa | 2.6V | 08:30:00 | 01:53:45 | 00:00:00 | |
| DL1XH-west | 2026-09-04 06:24:38 | 49.43509 | 8.65188 | 308° | 16km/h | 25292m | 6.3m/s | -50.9°C | 0.7% | 25.6hPa | 2.6V | 18:12:15 | 01:53:50 | 00:00:00 | |
| BIOWL1-15 | 2026-09-04 06:24:36 | 49.43503 | 8.65199 | 307° | 20km/h | 25281m | 4.6m/s | -50.9°C | 0.7% | 25.6hPa | 2.7V | 18:12:15 | 01:53:48 | 00:00:00 | |
| HSKMA3-T | 2026-09-04 06:24:32 | 49.43497 | 8.65220 | 273° | 13km/h | 25259m | 4.9m/s | -50.9°C | 0.6% | 25.7hPa | 2.6V | 18:12:15 | 01:53:44 | 00:00:00 | |
| DL3AQ-11 | 2026-09-04 06:24:32 | 49.43496 | 8.65225 | 272° | 13km/h | 25254m | 5.5m/s | -50.9°C | 1.0% | 25.7hPa | 2.7V | 00:00:00 | 00:00:00 | 00:00:00 | |
| DO1YAY-16 | 2026-09-04 06:24:31 | 49.43496 | 8.65225 | 272° | 13km/h | 25254m | 5.5m/s | -50.9°C | 1.0% | 25.7hPa | 2.7V | 00:00:00 | 00:00:00 | 00:00:00 | |
| DO3DL | 2026-09-04 06:24:30 | 49.43496 | 8.65225 | 273° | 13km/h | 25254m | 5.5m/s | -50.9°C | 1.0% | 25.7hPa | 2.7V | 00:00:00 | 00:00:00 | 00:00:00 | |
| DL1XH1-15 | 2026-09-04 06:24:29 | 49.43494 | 8.65263 | 264° | 9km/h | 25216m | 5.2m/s | -50.7°C | 3.6% | 25.9hPa | 2.7V | 08:30:00 | 01:53:36 | 00:00:00 | |
| DK5PH-5 | 2026-09-04 06:24:29 | 49.43496 | 8.65237 | 278° | 13km/h | 25243m | 4.6m/s | -50.6°C | 3.7% | 25.7hPa | 2.7V | 00:00:00 | 01:53:41 | 00:00:00 | |
| DM0DOS-11 | 2026-09-04 06:24:28 | 49.43494 | 8.65267 | 275° | 11km/h | 25212m | 4.5m/s | -50.7°C | 3.6% | 25.9hPa | 2.7V | 08:30:00 | 01:53:35 | 00:00:00 | |
| BIOWL1-15 | 2026-09-04 06:24:27 | 49.43494 | 8.65260 | 264° | 11km/h | 25222m | 5.9m/s | -50.7°C | 0.6% | 25.9hPa | 2.7V | 18:12:15 | 01:53:37 | 00:00:00 | |
| DL1XH-west | 2026-09-04 06:24:27 | 49.43495 | 8.65250 | 278° | 16km/h | 25233m | 5.2m/s | -50.7°C | 0.6% | 25.8hPa | 2.6V | 18:12:15 | 01:53:39 | 00:00:00 | |
| HSKMA3-T | 2026-09-04 06:24:21 | 49.43493 | 8.65277 | 288° | 18km/h | 25201m | 6.6m/s | -50.7°C | 0.5% | 25.9hPa | 2.6V | 18:12:15 | 01:53:33 | 00:00:00 | |
| BIOWL9-15 | 2026-09-04 06:24:20 | 49.43490 | 8.65291 | 290° | 18km/h | 25190m | 5.1m/s | -50.6°C | 1.0% | 26.0hPa | 2.7V | 00:00:00 | 00:00:00 | 00:00:00 | |
| DL1XH1-15 | 2026-09-04 06:24:19 | 49.43488 | 8.65309 | 242° | 5km/h | 25163m | 5.6m/s | -50.8°C | 3.6% | 26.1hPa | 2.7V | 08:30:00 | 01:53:26 | 00:00:00 | |
| DM0DOS-11 | 2026-09-04 06:24:18 | 49.43489 | 8.65311 | 244° | 7km/h | 25157m | 6.2m/s | -50.9°C | 3.7% | 26.1hPa | 2.6V | 08:30:00 | 01:53:25 | 00:00:00 | |
| DL1XH-west | 2026-09-04 06:24:16 | 49.43487 | 8.65305 | 269° | 5km/h | 25173m | 5m/s | -50.8°C | 0.6% | 26.1hPa | 2.6V | 18:12:15 | 01:53:28 | 00:00:00 | |
| BIOWL1-15 | 2026-09-04 06:24:15 | 49.43487 | 8.65307 | 247° | 4km/h | 25168m | 4.6m/s | -50.7°C | 0.6% | 26.1hPa | 2.7V | 18:12:15 | 01:53:27 | 00:00:00 | |
| HSKMA3-T | 2026-09-04 06:24:11 | 49.43491 | 8.65318 | 237° | 11km/h | 25146m | 4.5m/s | -51°C | 0.6% | 26.1hPa | 2.7V | 18:12:15 | 01:53:23 | 00:00:00 | |
| DL0LBS | 2026-09-04 06:24:10 | 49.43490 | 8.65318 | 238° | 11km/h | 25146m | 4.5m/s | -51.0°C | 1.1% | 26.1hPa | 2.6V | 00:00:00 | 00:00:00 | 00:00:00 | |
| DD1CC8 | 2026-09-04 06:24:09 | 49.43498 | 8.65325 | 194° | 13km/h | 25130m | 6.0m/s | -51.1°C | 1.0% | 26.2hPa | 2.6V | 00:00:00 | 00:00:00 | 00:00:00 | |
| DM0DOS-11 | 2026-09-04 06:24:08 | 49.43513 | 8.65338 | 231° | 13km/h | 25101m | 4.5m/s | -51.1°C | 3.8% | 26.3hPa | 2.6V | 08:30:00 | 01:53:15 | 00:00:00 | |
| DL1XH-west | 2026-09-04 06:24:05 | 49.43508 | 8.65331 | 213° | 15km/h | 25112m | 6.4m/s | -51.1°C | 0.6% | 26.3hPa | 2.7V | 18:12:15 | 01:53:17 | 00:00:00 | |
| BIOWL1-15 | 2026-09-04 06:24:04 | 49.43511 | 8.65334 | 228° | 15km/h | 25107m | 5.4m/s | -51.2°C | 0.7% | 26.3hPa | 2.7V | 18:12:15 | 01:53:16 | 00:00:00 | |
| HSKMA3-T | 2026-09-04 06:24:00 | 49.43520 | 8.65343 | 174° | 11km/h | 25085m | 6m/s | -51.2°C | 0.7% | 26.4hPa | 2.7V | 18:12:15 | 01:53:12 | 00:00:00 | |
| DO1YAY-16 | 2026-09-04 06:24:00 | 49.43523 | 8.65343 | 165° | 13km/h | 25079m | 4.9m/s | -51.1°C | 1.0% | 26.4hPa | 2.7V | 00:00:00 | 00:00:00 | 00:00:00 | |
| AU51GT2 | 2026-09-04 06:23:57 | 49.43529 | 8.65341 | 174° | 11km/h | 25068m | 6.1m/s | 0°C | -1.0% | 26.5hPa | 2.7V | 00:00:00 | 00:00:00 | 00:00:00 | |
| DL1ZP-14 | 2026-09-04 06:23:56 | 49.43533 | 8.65340 | 178° | 13km/h | 25062m | 5.0m/s | -51.2°C | 1.0% | 26.5hPa | 2.7V | 00:00:00 | 00:00:00 | 00:00:00 | |
| DM0DOS-11 | 2026-09-04 06:23:55 | 49.43558 | 8.65340 | 193° | 11km/h | 25030m | 6.2m/s | -51.2°C | 3.8% | 26.6hPa | 2.7V | 08:30:00 | 01:53:02 | 00:00:00 | |
| DL1XH-west | 2026-09-04 06:23:55 | 49.43536 | 8.65340 | 179° | 16km/h | 25058m | 4.6m/s | -51.1°C | 0.7% | 26.5hPa | 2.7V | 18:12:15 | 01:53:07 | 00:00:00 | |
| BIOWL1-15 | 2026-09-04 06:23:53 | 49.43546 | 8.65339 | 176° | 20km/h | 25046m | 5.5m/s | -51.2°C | 0.7% | 26.6hPa | 2.6V | 18:12:15 | 01:53:05 | 00:00:00 | |
| DL3AQ-11 | 2026-09-04 06:23:52 | 49.43555 | 8.65339 | 183° | 15km/h | 25037m | 4.9m/s | -51.1°C | 1.0% | 26.6hPa | 2.7V | 00:00:00 | 00:00:00 | 00:00:00 | |
| DM7RM-13 | 2026-09-04 06:23:51 | 49.43550 | 8.65339 | 179° | 18km/h | 25041m | 4.5m/s | -51.2°C | 1.1% | 26.6hPa | 2.7V | 00:00:00 | 00:00:00 | 00:00:00 | |
| DB0UT-9 | 2026-09-04 06:23:50 | 49.43555 | 8.65339 | 184° | 15km/h | 25037m | 4.9m/s | -51.1°C | 1.1% | 26.6hPa | 2.7V | 00:00:00 | 00:00:00 | 00:00:00 | |
| DL1XH1-15 | 2026-09-04 06:23:49 | 49.43571 | 8.65344 | 158° | 15km/h | 24999m | 4.4m/s | -51.1°C | 3.7% | 26.8hPa | 2.7V | 08:30:00 | 01:52:56 | 00:00:00 | |
| HSKMA3-T | 2026-09-04 06:23:49 | 49.43560 | 8.65341 | 214° | 7km/h | 25025m | 5.3m/s | -51.2°C | 0.7% | 26.7hPa | 2.7V | 18:12:15 | 01:53:01 | 00:00:00 | |
| BIOWL9-15 | 2026-09-04 06:23:49 | 49.43562 | 8.65343 | 221° | 5km/h | 25020m | 4.4m/s | -51.1°C | 1.0% | 26.7hPa | 2.6V | 00:00:00 | 00:00:00 | 00:00:00 | |
| DF3TZ-5 | 2026-09-04 06:23:47 | 49.43565 | 8.65345 | 185° | 9km/h | 25009m | 5.9m/s | -51.2°C | 1.1% | 26.7hPa | 2.6V | 00:00:00 | 00:00:00 | 00:00:00 | |
| DL8DAS-15 | 2026-09-04 06:23:46 | 49.43563 | 8.65345 | 207° | 7km/h | 25015m | 5.5m/s | -51.2°C | 1.1% | 26.7hPa | 2.6V | 00:00:00 | 00:00:00 | 00:00:00 | |
| DM0DOS-11 | 2026-09-04 06:23:45 | 49.43583 | 8.65331 | 141° | 16km/h | 24978m | 4.8m/s | -51.1°C | 3.8% | 26.9hPa | 2.6V | 08:30:00 | 01:52:52 | 00:00:00 | |
| DL1XH-west | 2026-09-04 06:23:44 | 49.43571 | 8.65344 | 159° | 15km/h | 24999m | 4.4m/s | -51.1°C | 0.7% | 26.8hPa | 2.7V | 18:12:15 | 01:52:56 | 00:00:00 | |
| BIOWL1-15 | 2026-09-04 06:23:42 | 49.43578 | 8.65339 | 145° | 15km/h | 24988m | 5.9m/s | -51.1°C | 0.7% | 26.8hPa | 2.6V | 18:12:15 | 01:52:54 | 00:00:00 | |
| CB1BUN | 2026-09-04 06:23:40 | 49.43580 | 8.65335 | 139° | 15km/h | 24983m | 4.9m/s | -51.1°C | 1.0% | 26.8hPa | 2.7V | 00:00:00 | 00:00:00 | 00:00:00 | |
| DL1XH1-15 | 2026-09-04 06:23:39 | 49.43610 | 8.65313 | 172° | 11km/h | 24945m | 5.4m/s | -51.1°C | 3.7% | 27hPa | 2.7V | 08:30:00 | 01:52:46 | 00:00:00 | |
| HSKMA3-T | 2026-09-04 06:23:39 | 49.43587 | 8.65327 | 146° | 20km/h | 24972m | 6.1m/s | -51.1°C | 0.7% | 26.9hPa | 2.7V | 18:12:15 | 01:52:51 | 00:00:00 | |
| DD1CC8 | 2026-09-04 06:23:38 | 49.43597 | 8.65318 | 156° | 22km/h | 24962m | 4.5m/s | -51.1°C | 1.0% | 26.9hPa | 2.7V | 00:00:00 | 00:00:00 | 00:00:00 | |
| DL3AQ-11 | 2026-09-04 06:23:36 | 49.43606 | 8.65314 | 166° | 15km/h | 24951m | 6.3m/s | -51.1°C | 1.0% | 27.0hPa | 2.7V | 00:00:00 | 00:00:00 | 00:00:00 | |
| DM0DOS-11 | 2026-09-04 06:23:35 | 49.43618 | 8.65307 | 136° | 15km/h | 24924m | 5m/s | -51.1°C | 3.7% | 27.1hPa | 2.7V | 08:30:00 | 01:52:42 | 00:00:00 | |
| DL1XH-west | 2026-09-04 06:23:34 | 49.43610 | 8.65313 | 173° | 11km/h | 24945m | 5.4m/s | -51.1°C | 0.6% | 27hPa | 2.7V | 18:12:15 | 01:52:46 | 00:00:00 | |
| BIOWL1-15 | 2026-09-04 06:23:32 | 49.43614 | 8.65312 | 159° | 7km/h | 24935m | 5m/s | -51.1°C | 0.7% | 27.1hPa | 2.6V | 18:12:15 | 01:52:44 | 00:00:00 | |
| DF7PN | 2026-09-04 06:23:31 | 49.43616 | 8.65310 | 144° | 9km/h | 24930m | 6.1m/s | -51.1°C | 1.1% | 27.0hPa | 2.7V | 00:00:00 | 00:00:00 | 00:00:00 | |
| DB0UT-7 | 2026-09-04 06:23:30 | 49.43618 | 8.65307 | 137° | 15km/h | 24924m | 4.9m/s | -51.0°C | 3.7% | 27.0hPa | 2.7V | 00:00:00 | 01:52:42 | 00:00:00 | |
| DL1XH1-15 | 2026-09-04 06:23:29 | 49.43633 | 8.65279 | 126° | 18km/h | 24893m | 6.3m/s | -51°C | 3.7% | 27.2hPa | 2.7V | 08:30:00 | 01:52:36 | 00:00:00 | |
| HSKMA3-T | 2026-09-04 06:23:28 | 49.43624 | 8.65298 | 130° | 16km/h | 24914m | 5.7m/s | -51.1°C | 0.7% | 27.1hPa | 2.7V | 18:12:15 | 01:52:40 | 00:00:00 | |
| DB0NH | 2026-09-04 06:23:28 | 49.43623 | 8.65298 | 131° | 15km/h | 24915m | 5.6m/s | -51.1°C | 3.8% | 27.1hPa | 2.6V | 00:00:00 | 01:52:40 | 00:00:00 | |
| DG9SBQ-11 | 2026-09-04 06:23:27 | 49.43624 | 8.65298 | 131° | 16km/h | 24915m | 5.7m/s | -51.1°C | 1.0% | 27.1hPa | 2.6V | 00:00:00 | 00:00:00 | 00:00:00 | |
| AU51GT2 | 2026-09-04 06:23:26 | 49.43628 | 8.65289 | 124° | 13km/h | 24903m | 4.9m/s | 0°C | -1.0% | -1.0hPa | 2.6V | 00:00:00 | 00:00:00 | 00:00:00 | |
| DM0DOS-11 | 2026-09-04 06:23:25 | 49.43644 | 8.65259 | 138° | 11km/h | 24872m | 6.4m/s | -51.1°C | 3.7% | 27.3hPa | 2.6V | 08:30:00 | 01:52:32 | 00:00:00 | |
| DL1XH-west | 2026-09-04 06:23:24 | 49.43633 | 8.65279 | 127° | 18km/h | 24893m | 6.3m/s | -51.1°C | 0.6% | 27.2hPa | 2.7V | 18:12:15 | 01:52:36 | 00:00:00 | |
| BIOWL1-15 | 2026-09-04 06:23:22 | 49.43639 | 8.65267 | 130° | 18km/h | 24882m | 4m/s | -51.1°C | 0.6% | 27.3hPa | 2.7V | 18:12:15 | 01:52:34 | 00:00:00 | |
| SONDE2-11 | 2026-09-04 06:23:21 | 49.43642 | 8.65262 | 133° | 15km/h | 24877m | 4.7m/s | -51.0°C | 1.0% | 27.3hPa | 2.6V | 00:00:00 | 00:00:00 | 00:00:00 | |
| DO3DL | 2026-09-04 06:23:20 | 49.43642 | 8.65262 | 134° | 15km/h | 24878m | 4.7m/s | -51.0°C | 1.0% | 27.3hPa | 2.6V | 00:00:00 | 00:00:00 | 00:00:00 | |
| DL1XH1-15 | 2026-09-04 06:23:19 | 49.43651 | 8.65238 | 80° | 16km/h | 24840m | 6.2m/s | -51.3°C | 3.8% | 27.4hPa | 2.6V | 08:30:00 | 01:52:26 | 00:00:00 | |
| HSKMA3-T | 2026-09-04 06:23:17 | 49.43649 | 8.65252 | 129° | 9km/h | 24856m | 6.1m/s | -51.2°C | 0.7% | 27.4hPa | 2.7V | 18:12:15 | 01:52:29 | 00:00:00 | |
| DL6DJ-15 | 2026-09-04 06:23:16 | 49.43650 | 8.65249 | 111° | 11km/h | 24851m | 5.1m/s | -51.2°C | 1.0% | 27.4hPa | 2.5V | 00:00:00 | 00:00:00 | 00:00:00 | |
| DM0DOS-11 | 2026-09-04 06:23:15 | 49.43644 | 8.65207 | 79° | 26km/h | 24818m | 5.7m/s | -51.3°C | 3.7% | 27.5hPa | 2.5V | 08:30:00 | 01:52:22 | 00:00:00 | |
| BIOWL1-15 | 2026-09-04 06:23:15 | 49.43646 | 8.65216 | 71° | 24km/h | 24824m | 4.7m/s | -51.3°C | 0.7% | 27.5hPa | 2.7V | 18:12:15 | 01:52:23 | 00:00:00 | |
| DL1XH-west | 2026-09-04 06:23:14 | 49.43651 | 8.65238 | 81° | 16km/h | 24840m | 6.2m/s | -51.3°C | 0.7% | 27.4hPa | 2.6V | 18:12:15 | 01:52:26 | 00:00:00 | |
| HSKMA3-T | 2026-09-04 06:23:07 | 49.43644 | 8.65180 | 104° | 16km/h | 24803m | 5m/s | -51.4°C | 0.7% | 27.6hPa | 2.7V | 18:12:15 | 01:52:19 | 00:00:00 | |
| HEMX73-11 | 2026-09-04 06:23:06 | 49.43644 | 8.65180 | 105° | 16km/h | 24804m | 5.0m/s | -51.4°C | 1.1% | 27.6hPa | 2.7V | 00:00:00 | 00:00:00 | 00:00:00 | |
| DM0DOS-11 | 2026-09-04 06:23:05 | 49.43645 | 8.65164 | 76° | 11km/h | 24767m | 4.5m/s | -51.5°C | 3.8% | 27.8hPa | 2.7V | 08:30:00 | 01:52:12 | 00:00:00 | |
| BIOWL1-15 | 2026-09-04 06:23:04 | 49.43646 | 8.65164 | 76° | 11km/h | 24767m | 4.5m/s | -51.5°C | 0.7% | 27.8hPa | 2.7V | 18:12:15 | 01:52:12 | 00:00:00 | |
| DL1XH-west | 2026-09-04 06:23:03 | 49.43646 | 8.65171 | 79° | 2km/h | 24782m | 4.8m/s | -51.4°C | 0.6% | 27.7hPa | 2.6V | 18:12:15 | 01:52:15 | 00:00:00 | |
| DB0UT-7 | 2026-09-04 06:23:00 | 49.43645 | 8.65164 | 77° | 11km/h | 24767m | 4.4m/s | -51.4°C | 3.8% | 27.7hPa | 2.6V | 00:00:00 | 00:00:00 | 00:00:00 | |
| DL1XH1-15 | 2026-09-04 06:22:59 | 49.43634 | 8.65134 | 71° | 18km/h | 24735m | 4.7m/s | -51.7°C | 3.8% | 27.9hPa | 2.6V | 08:30:00 | 01:52:06 | 00:00:00 | |
| HSKMA3-T | 2026-09-04 06:22:56 | 49.43638 | 8.65147 | 57° | 16km/h | 24745m | 4.8m/s | -51.7°C | 0.7% | 27.8hPa | 2.7V | 18:12:15 | 01:52:08 | 00:00:00 | |
| DL1XH-west | 2026-09-04 06:22:53 | 49.43633 | 8.65128 | 76° | 15km/h | 24731m | 3.6m/s | -51.6°C | 0.8% | 27.9hPa | 2.6V | 18:12:15 | 01:52:05 | 00:00:00 | |
| SONDE2-11 | 2026-09-04 06:22:50 | 49.43631 | 8.65121 | 339° | 2km/h | 24715m | 5.1m/s | -51.7°C | 1.1% | 28.0hPa | 2.6V | 00:00:00 | 00:00:00 | 00:00:00 | |
| DL1XH1-15 | 2026-09-04 06:22:49 | 49.43621 | 8.65116 | 24° | 13km/h | 24684m | 6.2m/s | -51.7°C | 3.8% | 28.1hPa | 2.6V | 08:30:00 | 01:51:56 | 00:00:00 | |
| BIOWL1-15 | 2026-09-04 06:22:49 | 49.43630 | 8.65121 | 324° | 5km/h | 24710m | 4.2m/s | -51.6°C | 0.7% | 28hPa | 2.6V | 18:12:15 | 01:52:01 | 00:00:00 | |
| HSKMA3-T | 2026-09-04 06:22:46 | 49.43626 | 8.65120 | 32° | 9km/h | 24694m | 5.1m/s | -51.7°C | 0.7% | 28.1hPa | 2.7V | 18:12:15 | 01:51:58 | 00:00:00 | |
| NBG1-10 | 2026-09-04 06:22:46 | 49.43626 | 8.65120 | 33° | 11km/h | 24695m | 5.0m/s | -51.6°C | 3.8% | 28.0hPa | 2.6V | 00:00:00 | 01:51:58 | 00:00:00 | |
| DM0DOS-11 | 2026-09-04 06:22:45 | 49.43612 | 8.65106 | 74° | 11km/h | 24662m | 6m/s | -51.7°C | 3.9% | 28.2hPa | 2.6V | 08:30:00 | 01:51:52 | 00:00:00 | |
| DL6DJ-15 | 2026-09-04 06:22:45 | 49.43624 | 8.65118 | 30° | 11km/h | 24689m | 4.9m/s | -51.7°C | 1.1% | 28.1hPa | 2.7V | 00:00:00 | 00:00:00 | 00:00:00 | |
| DL1XH-west | 2026-09-04 06:22:42 | 49.43615 | 8.65112 | 27° | 11km/h | 24673m | 4.5m/s | -51.7°C | 0.7% | 28.1hPa | 2.7V | 18:12:15 | 01:51:54 | 00:00:00 | |
| DL8DAS-15 | 2026-09-04 06:22:41 | 49.43615 | 8.65112 | 28° | 11km/h | 24673m | 4.5m/s | -51.7°C | 1.1% | 28.1hPa | 2.5V | 00:00:00 | 00:00:00 | 00:00:00 | |
| DL1XH1-15 | 2026-09-04 06:22:39 | 49.43611 | 8.65092 | 19° | 7km/h | 24631m | 5m/s | -51.6°C | 3.9% | 28.4hPa | 2.5V | 08:30:00 | 01:51:46 | 00:00:00 | |
| BIOWL1-15 | 2026-09-04 06:22:38 | 49.43612 | 8.65098 | 101° | 9km/h | 24653m | 4.5m/s | -51.7°C | 0.7% | 28.3hPa | 2.6V | 18:12:15 | 01:51:50 | 00:00:00 | |
| HSKMA3-T | 2026-09-04 06:22:35 | 49.43612 | 8.65093 | 17° | 4km/h | 24636m | 4.9m/s | -51.6°C | 0.8% | 28.4hPa | 2.7V | 18:12:15 | 01:51:47 | 00:00:00 | |
| DO3MHA-11 | 2026-09-04 06:22:35 | 49.43612 | 8.65093 | 18° | 11km/h | 24636m | 4.9m/s | -51.5°C | 4.0% | 28.3hPa | 2.7V | 00:00:00 | 01:51:47 | 00:00:00 | |
| DJ2DS-15 | 2026-09-04 06:22:33 | 49.43608 | 8.65090 | 28° | 11km/h | 24625m | 6.4m/s | -51.5°C | 3.9% | 28.3hPa | 2.7V | 00:00:00 | 01:51:45 | 00:00:00 | |
| DM0DOS-11 | 2026-09-04 06:22:32 | 49.43588 | 8.65081 | 9° | 11km/h | 24592m | 5.2m/s | -51.3°C | 3.8% | 28.5hPa | 2.7V | 08:30:00 | 01:51:39 | 00:00:00 | |
| DL1XH-west | 2026-09-04 06:22:31 | 49.43602 | 8.65085 | 26° | 16km/h | 24614m | 4.6m/s | -51.5°C | 0.7% | 28.4hPa | 2.7V | 18:12:15 | 01:51:43 | 00:00:00 | |
| DJTTGO | 2026-09-04 06:22:31 | 49.43602 | 8.65085 | 27° | 16km/h | 24614m | 4.6m/s | -51.5°C | 1.1% | 28.4hPa | 2.6V | 00:00:00 | 00:00:00 | 00:00:00 | |
| DB0UT-7 | 2026-09-04 06:22:30 | 49.43598 | 8.65083 | 18° | 11km/h | 24609m | 6.1m/s | -51.4°C | 3.9% | 28.4hPa | 2.6V | 00:00:00 | 01:51:42 | 00:00:00 | |
| DL1XH1-15 | 2026-09-04 06:22:29 | 49.43582 | 8.65078 | 11° | 5km/h | 24577m | 4.5m/s | -51.2°C | 3.8% | 28.6hPa | 2.6V | 08:30:00 | 01:51:36 | 00:00:00 | |
| BIOWL1-15 | 2026-09-04 06:22:29 | 49.43588 | 8.65081 | 9° | 11km/h | 24593m | 5.2m/s | -51.3°C | 0.7% | 28.5hPa | 2.7V | 18:12:15 | 01:51:39 | 00:00:00 | |
| HSKMA3-T | 2026-09-04 06:22:24 | 49.43582 | 8.65078 | 12° | 5km/h | 24577m | 4.5m/s | -51.2°C | 0.7% | 28.6hPa | 2.6V | 18:12:15 | 01:51:36 | 00:00:00 | |
| DJ2KF-10 | 2026-09-04 06:22:24 | 49.43582 | 8.65078 | 12° | 11km/h | 24577m | 4.5m/s | -51.2°C | 3.8% | 28.5hPa | 2.6V | 00:00:00 | 01:51:36 | 00:00:00 | |
| DL1ZP-14 | 2026-09-04 06:22:23 | 49.43580 | 8.65078 | 337° | 5km/h | 24572m | 6.3m/s | -51.3°C | 1.1% | 28.6hPa | 2.6V | 00:00:00 | 00:00:00 | 00:00:00 | |
| DM0DOS-11 | 2026-09-04 06:22:22 | 49.43569 | 8.65085 | 4° | 13km/h | 24539m | 4.6m/s | -51.1°C | 3.7% | 28.7hPa | 2.6V | 08:30:00 | 01:51:29 | 00:00:00 | |
| DL1XH-west | 2026-09-04 06:22:20 | 49.43576 | 8.65084 | 327° | 9km/h | 24555m | 5.5m/s | -51.2°C | 0.7% | 28.7hPa | 2.7V | 18:12:15 | 01:51:32 | 00:00:00 | |
| BIOWL1-15 | 2026-09-04 06:22:16 | 49.43565 | 8.65085 | 358° | 15km/h | 24534m | 6.1m/s | -51.2°C | 0.7% | 28.8hPa | 2.7V | 18:12:15 | 01:51:28 | 00:00:00 | |
| HSKMA3-T | 2026-09-04 06:22:13 | 49.43554 | 8.65087 | 357° | 15km/h | 24518m | 4.9m/s | -51.1°C | 0.7% | 28.9hPa | 2.6V | 18:12:15 | 01:51:25 | 00:00:00 | |
| DL1XH-west | 2026-09-04 06:22:10 | 49.43547 | 8.65086 | 6° | 4km/h | 24502m | 4.4m/s | -51.1°C | 0.7% | 28.9hPa | 2.6V | 18:12:15 | 01:51:22 | 00:00:00 | |
| BIOWL1-15 | 2026-09-04 06:22:06 | 49.43544 | 8.65098 | 284° | 13km/h | 24481m | 4.3m/s | -51.2°C | 0.7% | 29hPa | 2.7V | 18:12:15 | 01:51:18 | 00:00:00 | |
| HSKMA3-T | 2026-09-04 06:22:03 | 49.43540 | 8.65107 | 334° | 9km/h | 24465m | 5.1m/s | -51.1°C | 0.6% | 29.1hPa | 2.6V | 18:12:15 | 01:51:15 | 00:00:00 | |
| BIOWL1-15 | 2026-09-04 06:21:59 | 49.43518 | 8.65115 | 329° | 7km/h | 24423m | 4.7m/s | -50.9°C | 0.7% | 29.3hPa | 2.5V | 18:12:15 | 01:51:07 | 00:00:00 | |
| DL1XH-west | 2026-09-04 06:21:59 | 49.43528 | 8.65113 | 346° | 15km/h | 24444m | 4.1m/s | -51°C | 0.7% | 29.2hPa | 2.6V | 18:12:15 | 01:51:11 | 00:00:00 | |
| DF7PN | 2026-09-04 06:21:58 | 49.43525 | 8.65114 | 355° | 11km/h | 24439m | 5.4m/s | -51.0°C | 1.1% | 29.2hPa | 2.6V | 00:00:00 | 00:00:00 | 00:00:00 | |
| DG9SBQ-11 | 2026-09-04 06:21:57 | 49.43525 | 8.65114 | 356° | 13km/h | 24439m | 5.4m/s | -51.0°C | 1.1% | 29.2hPa | 2.6V | 00:00:00 | 00:00:00 | 00:00:00 | |
| DJ2DS-15 | 2026-09-04 06:21:53 | 49.43515 | 8.65121 | 288° | 18km/h | 24411m | 5.7m/s | -50.9°C | 3.7% | 29.3hPa | 2.6V | 00:00:00 | 01:51:05 | 00:00:00 | |
| DM0DOS-11 | 2026-09-04 06:21:52 | 49.43511 | 8.65163 | 282° | 18km/h | 24380m | 6m/s | -50.9°C | 3.7% | 29.5hPa | 2.6V | 08:30:00 | 01:50:59 | 00:00:00 | |
| HSKMA3-T | 2026-09-04 06:21:52 | 49.43514 | 8.65128 | 282° | 18km/h | 24406m | 4.6m/s | -51°C | 0.6% | 29.4hPa | 2.7V | 18:12:15 | 01:51:04 | 00:00:00 | |
| DL3AQ-11 | 2026-09-04 06:21:52 | 49.43513 | 8.65135 | 277° | 18km/h | 24401m | 5.9m/s | -51.0°C | 1.0% | 29.4hPa | 2.6V | 00:00:00 | 00:00:00 | 00:00:00 | |
| DG9SBQ-11 | 2026-09-04 06:21:51 | 49.43514 | 8.65128 | 283° | 18km/h | 24406m | 4.6m/s | -51.0°C | 1.0% | 29.4hPa | 2.6V | 00:00:00 | 00:00:00 | 00:00:00 | |
| DL1XH1-15 | 2026-09-04 06:21:49 | 49.43506 | 8.65176 | 336° | 9km/h | 24364m | 6.3m/s | -51°C | 3.8% | 29.5hPa | 2.6V | 08:30:00 | 01:50:56 | 00:00:00 | |
| DL1XH-west | 2026-09-04 06:21:49 | 49.43512 | 8.65149 | 275° | 18km/h | 24390m | 4.2m/s | -51°C | 0.6% | 29.4hPa | 2.6V | 18:12:15 | 01:51:01 | 00:00:00 | |
| SONDE2-11 | 2026-09-04 06:21:48 | 49.43512 | 8.65156 | 277° | 16km/h | 24386m | 5.3m/s | -50.9°C | 1.0% | 29.4hPa | 2.6V | 00:00:00 | 00:00:00 | 00:00:00 | |
| BIOWL1-15 | 2026-09-04 06:21:46 | 49.43506 | 8.65176 | 337° | 9km/h | 24364m | 6.3m/s | -51°C | 0.7% | 29.5hPa | 2.6V | 18:12:15 | 01:50:56 | 00:00:00 | |
| DF1GD-15 | 2026-09-04 06:21:45 | 49.43510 | 8.65169 | 292° | 16km/h | 24375m | 4.9m/s | -51.0°C | 1.1% | 29.5hPa | 2.7V | 00:00:00 | 00:00:00 | 00:00:00 | |
| DO3MHA-11 | 2026-09-04 06:21:44 | 49.43506 | 8.65176 | 337° | 18km/h | 24364m | 6.3m/s | -51.0°C | 3.8% | 29.5hPa | 2.7V | 00:00:00 | 01:50:56 | 00:00:00 | |
| DF3TZ-5 | 2026-09-04 06:21:43 | 49.43502 | 8.65175 | 18° | 7km/h | 24354m | 3.6m/s | -50.9°C | 1.0% | 29.6hPa | 2.7V | 00:00:00 | 00:00:00 | 00:00:00 | |
| DM0DOS-11 | 2026-09-04 06:21:42 | 49.43497 | 8.65199 | 263° | 31km/h | 24330m | 5.2m/s | -51.1°C | 3.6% | 29.7hPa | 2.7V | 08:30:00 | 01:50:49 | 00:00:00 | |
| HSKMA3-T | 2026-09-04 06:21:42 | 49.43502 | 8.65175 | 19° | 9km/h | 24354m | 3.6m/s | -50.9°C | 0.7% | 29.6hPa | 2.7V | 18:12:15 | 01:50:54 | 00:00:00 | |
| NBG1-10 | 2026-09-04 06:21:40 | 49.43498 | 8.65176 | 315° | 15km/h | 24347m | 4.9m/s | -50.9°C | 3.6% | 29.6hPa | 2.5V | 00:00:00 | 01:50:52 | 00:00:00 | |
| DL1XH1-15 | 2026-09-04 06:21:39 | 49.43501 | 8.65234 | 257° | 26km/h | 24315m | 4.1m/s | -51°C | 3.7% | 29.8hPa | 2.6V | 08:30:00 | 01:50:46 | 00:00:00 | |
| DL1XH-west | 2026-09-04 06:21:39 | 49.43497 | 8.65181 | 283° | 16km/h | 24341m | 5.6m/s | -51.1°C | 0.6% | 29.6hPa | 2.6V | 18:12:15 | 01:50:51 | 00:00:00 | |
| AA1-15 | 2026-09-04 06:21:38 | 49.43496 | 8.65188 | 271° | 24km/h | 24335m | 5.8m/s | 0°C | 0% | 0hPa | 2.6V | 18:12:15 | 01:50:50 | 00:00:00 | |
| BIOWL1-15 | 2026-09-04 06:21:34 | 49.43501 | 8.65234 | 257° | 26km/h | 24315m | 4.1m/s | -51.1°C | 0.6% | 29.8hPa | 2.6V | 18:12:15 | 01:50:46 | 00:00:00 | |
| DD1CC8 | 2026-09-04 06:21:34 | 49.43502 | 8.65242 | 262° | 18km/h | 24311m | 4.2m/s | -51.1°C | 1.0% | 29.8hPa | 2.7V | 00:00:00 | 00:00:00 | 00:00:00 | |
| DJ2DS-15 | 2026-09-04 06:21:33 | 49.43502 | 8.65242 | 263° | 13km/h | 24311m | 4.2m/s | -51.0°C | 3.7% | 29.8hPa | 2.7V | 00:00:00 | 01:50:45 | 00:00:00 | |
| DM0DOS-11 | 2026-09-04 06:21:32 | 49.43497 | 8.65261 | 169° | 4km/h | 24280m | 5.5m/s | -51.1°C | 3.6% | 29.9hPa | 2.7V | 08:30:00 | 01:50:39 | 00:00:00 | |
| HSKMA3-T | 2026-09-04 06:21:31 | 49.43501 | 8.65254 | 292° | 13km/h | 24301m | 5.7m/s | -51.1°C | 0.6% | 29.8hPa | 2.7V | 18:12:15 | 01:50:43 | 00:00:00 | |
| DB0UT-7 | 2026-09-04 06:21:30 | 49.43499 | 8.65258 | 314° | 11km/h | 24296m | 4.7m/s | -51.1°C | 3.7% | 29.8hPa | 2.6V | 00:00:00 | 01:50:42 | 00:00:00 | |
| DL1XH1-15 | 2026-09-04 06:21:29 | 49.43504 | 8.65268 | 235° | 18km/h | 24266m | 6m/s | -51.3°C | 3.6% | 30hPa | 2.6V | 08:30:00 | 01:50:36 | 00:00:00 | |
| DL1XH-west | 2026-09-04 06:21:28 | 49.43497 | 8.65261 | 344° | 2km/h | 24286m | 5.4m/s | -51.2°C | 0.6% | 29.9hPa | 2.6V | 18:12:15 | 01:50:40 | 00:00:00 | |
| BIOWL1-15 | 2026-09-04 06:21:26 | 49.43504 | 8.65268 | 236° | 18km/h | 24266m | 6m/s | -51.3°C | 0.6% | 30hPa | 2.6V | 18:12:15 | 01:50:36 | 00:00:00 | |
| HSKMA3-T | 2026-09-04 06:21:20 | 49.43510 | 8.65306 | 264° | 26km/h | 24246m | 5m/s | -51.6°C | 0.6% | 30.1hPa | 2.7V | 18:12:15 | 01:50:32 | 00:00:00 | |
| DL1XH1-15 | 2026-09-04 06:21:19 | 49.43515 | 8.65325 | 177° | 4km/h | 24215m | 5.7m/s | -52°C | 3.8% | 30.2hPa | 2.5V | 08:30:00 | 01:50:26 | 00:00:00 | |
| DL1XH-west | 2026-09-04 06:21:17 | 49.43512 | 8.65324 | 237° | 7km/h | 24231m | 4.7m/s | -51.8°C | 0.6% | 30.2hPa | 2.6V | 18:12:15 | 01:50:29 | 00:00:00 | |
| BIOWL1-15 | 2026-09-04 06:21:13 | 49.43516 | 8.65326 | 189° | 5km/h | 24210m | 4.8m/s | -52°C | 0.7% | 30.3hPa | 2.6V | 18:12:15 | 01:50:25 | 00:00:00 | |
| HSKMA3-T | 2026-09-04 06:21:10 | 49.43522 | 8.65325 | 166° | 11km/h | 24195m | 5.9m/s | -52.4°C | 0.7% | 30.3hPa | 2.5V | 18:12:15 | 01:50:22 | 00:00:00 | |
| DL1XH-west | 2026-09-04 06:21:06 | 49.43537 | 8.65322 | 193° | 15km/h | 24174m | 6m/s | -52.6°C | 0.8% | 30.4hPa | 2.7V | 18:12:15 | 01:50:18 | 00:00:00 | |
| BIOWL1-15 | 2026-09-04 06:21:04 | 49.43544 | 8.65330 | 196° | 4km/h | 24154m | 5.5m/s | -53°C | 0.9% | 30.5hPa | 2.6V | 18:12:15 | 01:50:14 | 00:00:00 | |
| HEMX73-11 | 2026-09-04 06:21:03 | 49.43542 | 8.65327 | 225° | 9km/h | 24164m | 4.1m/s | -52.9°C | 1.2% | 30.5hPa | 2.7V | 00:00:00 | 00:00:00 | 00:00:00 | |
| DM0DOS-11 | 2026-09-04 06:21:02 | 49.43551 | 8.65323 | 189° | 9km/h | 24129m | 5.6m/s | -53°C | 4.1% | 30.6hPa | 2.7V | 08:30:00 | 01:50:09 | 00:00:00 | |
| HSKMA3-T | 2026-09-04 06:21:00 | 49.43546 | 8.65327 | 120° | 7km/h | 24144m | 4.7m/s | -53.1°C | 0.9% | 30.6hPa | 2.7V | 18:12:15 | 01:50:12 | 00:00:00 | |
| DB0UT-7 | 2026-09-04 06:21:00 | 49.43546 | 8.65327 | 120° | 13km/h | 24144m | 4.7m/s | -53.0°C | 4.2% | 30.5hPa | 2.6V | 00:00:00 | 00:00:00 | 00:00:00 | |
| DL1XH1-15 | 2026-09-04 06:20:59 | 49.43559 | 8.65328 | 200° | 11km/h | 24113m | 6m/s | -53.1°C | 4.1% | 30.7hPa | 2.6V | 08:30:00 | 01:50:06 | 00:00:00 | |
| DL1XH-west | 2026-09-04 06:20:56 | 49.43554 | 8.65325 | 202° | 13km/h | 24124m | 4.6m/s | -52.9°C | 0.8% | 30.7hPa | 2.7V | 18:12:15 | 01:50:08 | 00:00:00 | |
| DG9SBQ-11 | 2026-09-04 06:20:55 | 49.43553 | 8.65325 | 203° | 13km/h | 24124m | 4.6m/s | -52.9°C | 1.1% | 30.7hPa | 2.6V | 00:00:00 | 00:00:00 | 00:00:00 | |
| DO3MHA-11 | 2026-09-04 06:20:54 | 49.43559 | 8.65328 | 201° | 11km/h | 24114m | 6.0m/s | -53.0°C | 4.1% | 30.7hPa | 2.6V | 00:00:00 | 01:50:06 | 00:00:00 | |
| DJ2DS-15 | 2026-09-04 06:20:53 | 49.43562 | 8.65330 | 208° | 15km/h | 24108m | 4.4m/s | -53.1°C | 4.1% | 30.7hPa | 2.6V | 00:00:00 | 01:50:05 | 00:00:00 | |
| DM0DOS-11 | 2026-09-04 06:20:52 | 49.43560 | 8.65353 | 304° | 11km/h | 24078m | 5.7m/s | -53.1°C | 4% | 30.9hPa | 2.6V | 08:30:00 | 01:49:59 | 00:00:00 | |
| BIOWL1-15 | 2026-09-04 06:20:52 | 49.43563 | 8.65332 | 235° | 7km/h | 24104m | 4.1m/s | -53.2°C | 0.9% | 30.8hPa | 2.7V | 18:12:15 | 01:50:04 | 00:00:00 | |
| DJTTGO | 2026-09-04 06:20:50 | 49.43564 | 8.65339 | 282° | 13km/h | 24094m | 5.9m/s | -53.2°C | 1.2% | 30.8hPa | 2.6V | 00:00:00 | 00:00:00 | 00:00:00 | |
| DL1XH1-15 | 2026-09-04 06:20:49 | 49.43559 | 8.65361 | 240° | 9km/h | 24064m | 4.9m/s | -53.1°C | 4.2% | 30.9hPa | 2.6V | 08:30:00 | 01:49:56 | 00:00:00 | |
| HSKMA3-T | 2026-09-04 06:20:49 | 49.43563 | 8.65344 | 293° | 15km/h | 24088m | 5m/s | -53.2°C | 0.8% | 30.8hPa | 2.6V | 18:12:15 | 01:50:01 | 00:00:00 | |
| DL1XH-west | 2026-09-04 06:20:45 | 49.43558 | 8.65358 | 264° | 5km/h | 24068m | 4.2m/s | -53.2°C | 0.9% | 30.9hPa | 2.7V | 18:12:15 | 01:49:57 | 00:00:00 | |
| DG9SBQ-11 | 2026-09-04 06:20:45 | 49.43558 | 8.65358 | 265° | 5km/h | 24069m | 4.2m/s | -53.2°C | 1.2% | 31.0hPa | 2.7V | 00:00:00 | 00:00:00 | 00:00:00 | |
| DO3MHA-11 | 2026-09-04 06:20:44 | 49.43559 | 8.65360 | 241° | 16km/h | 24064m | 4.9m/s | -53.1°C | 4.2% | 30.9hPa | 2.7V | 00:00:00 | 01:49:56 | 00:00:00 | |
| DL3AQ-11 | 2026-09-04 06:20:43 | 49.43563 | 8.65369 | 233° | 18km/h | 24053m | 5.1m/s | -53.1°C | 1.2% | 31.0hPa | 2.7V | 00:00:00 | 00:00:00 | 00:00:00 | |
| DM0DOS-11 | 2026-09-04 06:20:42 | 49.43578 | 8.65395 | 226° | 16km/h | 24030m | 4.2m/s | -52.9°C | 4.1% | 31.1hPa | 2.7V | 08:30:00 | 01:49:49 | 00:00:00 | |
| BIOWL1-15 | 2026-09-04 06:20:41 | 49.43566 | 8.65375 | 231° | 20km/h | 24048m | 4.1m/s | -53°C | 0.9% | 31.1hPa | 2.7V | 18:12:15 | 01:49:53 | 00:00:00 | |
| KANTATE | 2026-09-04 06:20:40 | 49.43566 | 8.65375 | 232° | 20km/h | 24049m | 4.1m/s | -53.0°C | 1.2% | 31.1hPa | 2.5V | 00:00:00 | 00:00:00 | 00:00:00 | |
| DL1XH1-15 | 2026-09-04 06:20:39 | 49.43586 | 8.65412 | 243° | 20km/h | 24014m | 4.7m/s | -52.9°C | 4% | 31.2hPa | 2.5V | 08:30:00 | 01:49:46 | 00:00:00 | |
| HSKMA3-T | 2026-09-04 06:20:38 | 49.43575 | 8.65390 | 223° | 16km/h | 24034m | 4.3m/s | -52.9°C | 0.9% | 31.1hPa | 2.6V | 18:12:15 | 01:49:50 | 00:00:00 | |
| DO8TBO-1 | 2026-09-04 06:20:38 | 49.43575 | 8.65390 | 223° | 22km/h | 24034m | 4.2m/s | -52.9°C | 4.1% | 31.0hPa | 2.7V | 00:00:00 | 01:49:50 | 00:00:00 | |
| IW2NTF | 2026-09-04 06:20:35 | 49.43591 | 8.65438 | 257° | 18km/h | 23994m | 3.8m/s | 0°C | 0% | 0hPa | 2.7V | 08:30:00 | 01:49:42 | 00:00:00 | |
| DL1XH-west | 2026-09-04 06:20:35 | 49.43584 | 8.65406 | 237° | 20km/h | 24019m | 5.4m/s | -52.9°C | 0.8% | 31.2hPa | 2.7V | 18:12:15 | 01:49:47 | 00:00:00 | |
| BIOWL1-15 | 2026-09-04 06:20:33 | 49.43590 | 8.65432 | 261° | 16km/h | 23998m | 4.4m/s | -52.9°C | 0.8% | 31.3hPa | 2.7V | 18:12:15 | 01:49:43 | 00:00:00 | |
| DJ2DS-15 | 2026-09-04 06:20:33 | 49.43588 | 8.65419 | 252° | 22km/h | 24009m | 5.4m/s | -52.8°C | 4.0% | 31.2hPa | 2.7V | 00:00:00 | 01:49:45 | 00:00:00 | |
| DM0DOS-11 | 2026-09-04 06:20:32 | 49.43597 | 8.65462 | 239° | 27km/h | 23979m | 4.2m/s | -53°C | 4.1% | 31.4hPa | 2.7V | 08:30:00 | 01:49:39 | 00:00:00 | |
| HSKMA3-T | 2026-09-04 06:20:28 | 49.43594 | 8.65453 | 245° | 24km/h | 23983m | 5.4m/s | -53°C | 0.8% | 31.3hPa | 2.6V | 18:12:15 | 01:49:40 | 00:00:00 | |
| DL1XH-west | 2026-09-04 06:20:24 | 49.43608 | 8.65485 | 231° | 22km/h | 23964m | 5.3m/s | -53.1°C | 1% | 31.4hPa | 2.5V | 18:12:15 | 01:49:36 | 00:00:00 | |
| BIOWL1-15 | 2026-09-04 06:20:22 | 49.43621 | 8.65515 | 243° | 26km/h | 23944m | 4.3m/s | -53°C | 0.8% | 31.6hPa | 2.7V | 18:12:15 | 01:49:32 | 00:00:00 | |
| HSKMA3-T | 2026-09-04 06:20:17 | 49.43628 | 8.65537 | 240° | 18km/h | 23930m | 5.1m/s | -52.9°C | 0.8% | 31.6hPa | 2.6V | 18:12:15 | 01:49:29 | 00:00:00 | |
| BIOWL1-15 | 2026-09-04 06:20:13 | 49.43655 | 8.65598 | 219° | 26km/h | 23890m | 5m/s | -53.1°C | 0.9% | 31.8hPa | 2.5V | 18:12:15 | 01:49:21 | 00:00:00 | |
| DL1XH-west | 2026-09-04 06:20:13 | 49.43638 | 8.65565 | 242° | 27km/h | 23910m | 4.6m/s | -53.1°C | 1% | 31.7hPa | 2.6V | 18:12:15 | 01:49:25 | 00:00:00 | |
| DJ2DS-15 | 2026-09-04 06:20:13 | 49.43638 | 8.65565 | 242° | 24km/h | 23910m | 4.6m/s | -53.0°C | 4.3% | 31.7hPa | 2.6V | 00:00:00 | 01:49:25 | 00:00:00 | |
| DM0DOS-11 | 2026-09-04 06:20:12 | 49.43665 | 8.65609 | 218° | 24km/h | 23881m | 5.4m/s | -53°C | 4.1% | 31.8hPa | 2.7V | 08:30:00 | 01:49:19 | 00:00:00 | |
| HSKMA3-T | 2026-09-04 06:20:07 | 49.43665 | 8.65609 | 218° | 24km/h | 23881m | 5.4m/s | -53°C | 0.9% | 31.8hPa | 2.7V | 18:12:15 | 01:49:19 | 00:00:00 | |
| DL1XH-west | 2026-09-04 06:20:02 | 49.43687 | 8.65637 | 203° | 20km/h | 23854m | 6.2m/s | -52.8°C | 0.8% | 32hPa | 2.6V | 18:12:15 | 01:49:14 | 00:00:00 | |
| DM0DOS-11 | 2026-09-04 06:20:01 | 49.43717 | 8.65657 | 202° | 24km/h | 23824m | 4.5m/s | -52.8°C | 4% | 32.1hPa | 2.7V | 08:30:00 | 01:49:08 | 00:00:00 | |
| BIOWL1-15 | 2026-09-04 06:20:01 | 49.43702 | 8.65645 | 204° | 22km/h | 23838m | 5.9m/s | -52.9°C | 0.9% | 32.1hPa | 2.6V | 18:12:15 | 01:49:11 | 00:00:00 | |
| HSKMA3-T | 2026-09-04 06:19:56 | 49.43717 | 8.65657 | 203° | 24km/h | 23824m | 4.5m/s | -52.8°C | 0.8% | 32.1hPa | 2.7V | 18:12:15 | 01:49:08 | 00:00:00 | |
| DF2AP-13 | 2026-09-04 06:19:56 | 49.43717 | 8.65657 | 203° | 26km/h | 23825m | 4.5m/s | -52.7°C | 4.0% | 32.1hPa | 2.7V | 00:00:00 | 01:49:08 | 00:00:00 | |
| DO3DL | 2026-09-04 06:19:55 | 49.43717 | 8.65657 | 204° | 24km/h | 23825m | 4.5m/s | -52.8°C | 1.1% | 32.1hPa | 2.7V | 00:00:00 | 00:00:00 | 00:00:00 | |
| DJ2KF-10 | 2026-09-04 06:19:54 | 49.43729 | 8.65662 | 189° | 26km/h | 23814m | 4.9m/s | -52.6°C | 4.0% | 32.1hPa | 2.7V | 00:00:00 | 01:49:06 | 00:00:00 | |
| DJ2DS-15 | 2026-09-04 06:19:53 | 49.43735 | 8.65664 | 187° | 24km/h | 23809m | 3.7m/s | -52.5°C | 4.0% | 32.2hPa | 2.7V | 00:00:00 | 01:49:05 | 00:00:00 | |
| DM0DOS-11 | 2026-09-04 06:19:51 | 49.43771 | 8.65671 | 170° | 24km/h | 23773m | 4.9m/s | -52.8°C | 4% | 32.4hPa | 2.7V | 08:30:00 | 01:48:58 | 00:00:00 | |
| DL1XH-west | 2026-09-04 06:19:51 | 49.43747 | 8.65667 | 193° | 22km/h | 23799m | 5.8m/s | -52.6°C | 0.8% | 32.3hPa | 2.7V | 18:12:15 | 01:49:03 | 00:00:00 | |
| BIOWL1-15 | 2026-09-04 06:19:49 | 49.43756 | 8.65670 | 194° | 18km/h | 23789m | 4.5m/s | -52.8°C | 0.8% | 32.3hPa | 2.5V | 18:12:15 | 01:49:01 | 00:00:00 | |
| HSKMA3-T | 2026-09-04 06:19:45 | 49.43777 | 8.65669 | 173° | 24km/h | 23768m | 4.5m/s | -52.8°C | 0.8% | 32.4hPa | 2.7V | 18:12:15 | 01:48:57 | 00:00:00 | |
| DL8DAS-14 | 2026-09-04 06:19:44 | 49.43783 | 8.65669 | 178° | 24km/h | 23763m | 6.0m/s | -52.9°C | 1.2% | 32.5hPa | 2.7V | 00:00:00 | 00:00:00 | 00:00:00 | |
| DM7RM-13 | 2026-09-04 06:19:43 | 49.43783 | 8.65668 | 180° | 26km/h | 23763m | 6.0m/s | -52.9°C | 1.2% | 32.5hPa | 2.7V | 00:00:00 | 00:00:00 | 00:00:00 | |
| DF1GD-15 | 2026-09-04 06:19:42 | 49.43790 | 8.65669 | 187° | 26km/h | 23758m | 4.9m/s | -52.8°C | 1.2% | 32.5hPa | 2.7V | 00:00:00 | 00:00:00 | 00:00:00 | |
| DM0DOS-11 | 2026-09-04 06:19:41 | 49.43835 | 8.65658 | 155° | 20km/h | 23722m | 5.1m/s | -52.9°C | 4% | 32.6hPa | 2.7V | 08:30:00 | 01:48:48 | 00:00:00 | |
| BIOWL1-15 | 2026-09-04 06:19:41 | 49.43818 | 8.65667 | 165° | 29km/h | 23738m | 4.9m/s | -53°C | 0.8% | 32.6hPa | 2.6V | 18:12:15 | 01:48:51 | 00:00:00 | |
| DL1XH-west | 2026-09-04 06:19:40 | 49.43811 | 8.65669 | 172° | 29km/h | 23744m | 6.1m/s | -52.9°C | 0.8% | 32.5hPa | 2.5V | 18:12:15 | 01:48:52 | 00:00:00 | |
| HSKMA3-T | 2026-09-04 06:19:34 | 49.43844 | 8.65650 | 147° | 22km/h | 23712m | 5.8m/s | -53°C | 0.9% | 32.7hPa | 2.5V | 18:12:15 | 01:48:46 | 00:00:00 | |
| DJ2DS-15 | 2026-09-04 06:19:33 | 49.43849 | 8.65644 | 145° | 29km/h | 23707m | 5.7m/s | -53.0°C | 4.1% | 32.7hPa | 2.7V | 00:00:00 | 01:48:45 | 00:00:00 | |
| DG9SBQ-11 | 2026-09-04 06:19:32 | 49.43849 | 8.65644 | 146° | 26km/h | 23707m | 5.7m/s | -53.0°C | 1.2% | 32.7hPa | 2.7V | 00:00:00 | 00:00:00 | 00:00:00 | |
| DM0DOS-11 | 2026-09-04 06:19:31 | 49.43893 | 8.65611 | 151° | 26km/h | 23674m | 4.9m/s | -53.1°C | 4.1% | 32.9hPa | 2.7V | 08:30:00 | 01:48:38 | 00:00:00 | |
| DO8TBO-1 | 2026-09-04 06:19:31 | 49.43861 | 8.65632 | 150° | 24km/h | 23697m | 3.7m/s | -53.0°C | 4.0% | 32.7hPa | 2.7V | 00:00:00 | 01:48:43 | 00:00:00 | |
| DL1XH1-15 | 2026-09-04 06:19:30 | 49.43904 | 8.65599 | 139° | 29km/h | 23663m | 4.9m/s | -53.2°C | 4.1% | 33hPa | 2.6V | 08:30:00 | 01:48:36 | 00:00:00 | |
| DL1XH-west | 2026-09-04 06:19:29 | 49.43875 | 8.65622 | 159° | 27km/h | 23688m | 5.4m/s | -53.2°C | 0.9% | 32.8hPa | 2.6V | 18:12:15 | 01:48:41 | 00:00:00 | |
| BIOWL1-15 | 2026-09-04 06:19:28 | 49.43881 | 8.65619 | 162° | 26km/h | 23683m | 4.6m/s | -53.1°C | 0.9% | 32.9hPa | 2.6V | 18:12:15 | 01:48:40 | 00:00:00 | |
| HSKMA3-T | 2026-09-04 06:19:24 | 49.43904 | 8.65599 | 140° | 29km/h | 23663m | 4.9m/s | -53.2°C | 0.9% | 33hPa | 2.6V | 18:12:15 | 01:48:36 | 00:00:00 | |
| DL3AQ-11 | 2026-09-04 06:19:23 | 49.43915 | 8.65584 | 140° | 29km/h | 23654m | 5.9m/s | -53.2°C | 1.2% | 33.0hPa | 2.7V | 00:00:00 | 00:00:00 | 00:00:00 | |
| DO3MHA-11 | 2026-09-04 06:19:22 | 49.43915 | 8.65584 | 141° | 29km/h | 23654m | 5.8m/s | -53.1°C | 4.1% | 32.9hPa | 2.7V | 00:00:00 | 01:48:34 | 00:00:00 | |
| DM0DOS-11 | 2026-09-04 06:19:21 | 49.43950 | 8.65535 | 132° | 29km/h | 23624m | 3.9m/s | -53.5°C | 4.1% | 33.1hPa | 2.7V | 08:30:00 | 01:48:28 | 00:00:00 | |
| DB0UT-9 | 2026-09-04 06:19:20 | 49.43921 | 8.65577 | 144° | 29km/h | 23648m | 5.1m/s | -53.3°C | 1.2% | 33.0hPa | 2.6V | 00:00:00 | 00:00:00 | 00:00:00 | |
| DL1XH1-15 | 2026-09-04 06:19:19 | 49.43959 | 8.65521 | 142° | 24km/h | 23614m | 5.4m/s | -53.4°C | 4.1% | 33.2hPa | 2.6V | 08:30:00 | 01:48:26 | 00:00:00 | |
| DL1XH-west | 2026-09-04 06:19:19 | 49.43933 | 8.65562 | 138° | 31km/h | 23639m | 5.2m/s | -53.4°C | 0.9% | 33.1hPa | 2.5V | 18:12:15 | 01:48:31 | 00:00:00 | |
| BIOWL1-15 | 2026-09-04 06:19:17 | 49.43944 | 8.65544 | 132° | 33km/h | 23628m | 4.4m/s | -53.4°C | 0.8% | 33.1hPa | 2.6V | 18:12:15 | 01:48:29 | 00:00:00 | |
| HSKMA3-T | 2026-09-04 06:19:14 | 49.43960 | 8.65521 | 143° | 24km/h | 23614m | 5.4m/s | -53.4°C | 0.9% | 33.2hPa | 2.6V | 18:12:15 | 01:48:26 | 00:00:00 | |
| SONDE2-11 | 2026-09-04 06:19:13 | 49.43969 | 8.65510 | 143° | 24km/h | 23605m | 5.1m/s | -53.6°C | 1.2% | 33.2hPa | 2.7V | 00:00:00 | 00:00:00 | 00:00:00 | |
| DL3AQ-11 | 2026-09-04 06:19:12 | 49.43974 | 8.65504 | 138° | 26km/h | 23599m | 5.6m/s | -53.6°C | 1.2% | 33.3hPa | 2.7V | 00:00:00 | 00:00:00 | 00:00:00 | |
| DM0DOS-11 | 2026-09-04 06:19:11 | 49.43993 | 8.65472 | 128° | 16km/h | 23574m | 5.3m/s | -53.5°C | 4.2% | 33.4hPa | 2.7V | 08:30:00 | 01:48:18 | 00:00:00 | |
| DG9SBQ-11 | 2026-09-04 06:19:10 | 49.43974 | 8.65504 | 139° | 26km/h | 23600m | 5.6m/s | -53.6°C | 1.2% | 33.3hPa | 2.5V | 00:00:00 | 00:00:00 | 00:00:00 | |
| DL1XH1-15 | 2026-09-04 06:19:09 | 49.43998 | 8.65462 | 119° | 16km/h | 23563m | 5.6m/s | -53.5°C | 4.1% | 33.5hPa | 2.5V | 08:30:00 | 01:48:16 | 00:00:00 | |
| DL1XH-west | 2026-09-04 06:19:08 | 49.43987 | 8.65483 | 131° | 22km/h | 23586m | 5.8m/s | -53.6°C | 0.9% | 33.4hPa | 2.6V | 18:12:15 | 01:48:20 | 00:00:00 | |
| BIOWL1-15 | 2026-09-04 06:19:07 | 49.43990 | 8.65477 | 130° | 18km/h | 23580m | 5.9m/s | -53.5°C | 0.9% | 33.4hPa | 2.7V | 18:12:15 | 01:48:19 | 00:00:00 | |
| HSKMA3-T | 2026-09-04 06:19:04 | 49.43998 | 8.65462 | 120° | 16km/h | 23563m | 5.6m/s | -53.5°C | 0.9% | 33.5hPa | 2.5V | 18:12:15 | 01:48:16 | 00:00:00 | |
| DL0LBS | 2026-09-04 06:19:03 | 49.43997 | 8.65462 | 121° | 16km/h | 23564m | 5.6m/s | -53.5°C | 1.2% | 33.5hPa | 2.7V | 00:00:00 | 00:00:00 | 00:00:00 | |
| DO3MHA-11 | 2026-09-04 06:19:02 | 49.44001 | 8.65451 | 122° | 15km/h | 23555m | 4.1m/s | -53.5°C | 4.2% | 33.5hPa | 2.7V | 00:00:00 | 01:48:14 | 00:00:00 | |
| DF1GD-15 | 2026-09-04 06:19:01 | 49.44001 | 8.65451 | 122° | 13km/h | 23555m | 4.2m/s | -53.5°C | 1.2% | 33.5hPa | 2.7V | 00:00:00 | 00:00:00 | 00:00:00 | |
| DB0UT-7 | 2026-09-04 06:19:00 | 49.44005 | 8.65445 | 143° | 11km/h | 23544m | 4.7m/s | -53.4°C | 4.2% | 33.5hPa | 2.7V | 00:00:00 | 00:00:00 | 00:00:00 | |
| DL1XH1-15 | 2026-09-04 06:18:59 | 49.44022 | 8.65421 | 141° | 15km/h | 23514m | 5.8m/s | -53.6°C | 4.2% | 33.7hPa | 2.6V | 08:30:00 | 01:48:06 | 00:00:00 | |
| DK5PH-5 | 2026-09-04 06:18:59 | 49.44007 | 8.65442 | 145° | 11km/h | 23540m | 3.8m/s | -53.4°C | 4.2% | 33.5hPa | 2.6V | 00:00:00 | 01:48:11 | 00:00:00 | |
| DM0DOS-11 | 2026-09-04 06:18:58 | 49.44025 | 8.65418 | 139° | 11km/h | 23509m | 4.4m/s | -53.6°C | 4.2% | 33.8hPa | 2.6V | 08:30:00 | 01:48:05 | 00:00:00 | |
| DL1XH-west | 2026-09-04 06:18:57 | 49.44013 | 8.65435 | 135° | 18km/h | 23529m | 5.5m/s | -53.6°C | 0.9% | 33.6hPa | 2.7V | 18:12:15 | 01:48:09 | 00:00:00 | |
| BIOWL1-15 | 2026-09-04 06:18:56 | 49.44016 | 8.65430 | 135° | 18km/h | 23524m | 4.5m/s | -53.6°C | 1% | 33.7hPa | 2.7V | 18:12:15 | 01:48:08 | 00:00:00 | |
| HSKMA3-T | 2026-09-04 06:18:53 | 49.44025 | 8.65418 | 139° | 11km/h | 23509m | 4.4m/s | -53.6°C | 0.9% | 33.8hPa | 2.6V | 18:12:15 | 01:48:05 | 00:00:00 | |
| DJ2KF-10 | 2026-09-04 06:18:53 | 49.44025 | 8.65418 | 140° | 11km/h | 23509m | 4.4m/s | -53.5°C | 4.2% | 33.7hPa | 2.6V | 00:00:00 | 01:48:05 | 00:00:00 | |
| DO3MHA-11 | 2026-09-04 06:18:52 | 49.44027 | 8.65415 | 133° | 11km/h | 23505m | 4.6m/s | -53.5°C | 4.2% | 33.7hPa | 2.7V | 00:00:00 | 01:48:04 | 00:00:00 | |
| DO3DL | 2026-09-04 06:18:50 | 49.44029 | 8.65411 | 123° | 11km/h | 23499m | 6.0m/s | -53.5°C | 1.2% | 33.8hPa | 2.5V | 00:00:00 | 00:00:00 | 00:00:00 | |
| DL1XH1-15 | 2026-09-04 06:18:49 | 49.44042 | 8.65397 | 163° | 15km/h | 23463m | 6m/s | -53.6°C | 4.2% | 34hPa | 2.5V | 08:30:00 | 01:47:56 | 00:00:00 | |
| DM0DOS-11 | 2026-09-04 06:18:48 | 49.44046 | 8.65395 | 161° | 18km/h | 23458m | 4.3m/s | -53.6°C | 4.2% | 34hPa | 2.6V | 08:30:00 | 01:47:55 | 00:00:00 | |
| BIOWL1-15 | 2026-09-04 06:18:47 | 49.44039 | 8.65398 | 171° | 11km/h | 23468m | 5.1m/s | -53.5°C | 0.9% | 34hPa | 2.7V | 18:12:15 | 01:47:57 | 00:00:00 | |
| DL1XH-west | 2026-09-04 06:18:46 | 49.44036 | 8.65399 | 176° | 9km/h | 23473m | 4.9m/s | -53.5°C | 0.9% | 33.9hPa | 2.7V | 18:12:15 | 01:47:58 | 00:00:00 | |
| DL1ZP-14 | 2026-09-04 06:18:45 | 49.44039 | 8.65398 | 171° | 11km/h | 23468m | 5.1m/s | -53.5°C | 1.2% | 34.0hPa | 2.7V | 00:00:00 | 00:00:00 | 00:00:00 | |
| HSKMA3-T | 2026-09-04 06:18:43 | 49.44046 | 8.65395 | 161° | 18km/h | 23458m | 4.3m/s | -53.6°C | 0.9% | 34hPa | 2.6V | 18:12:15 | 01:47:55 | 00:00:00 | |
| DL3AQ-11 | 2026-09-04 06:18:43 | 49.44051 | 8.65393 | 165° | 18km/h | 23454m | 4.1m/s | -53.6°C | 1.2% | 34.1hPa | 2.7V | 00:00:00 | 00:00:00 | 00:00:00 | |
| DO3MHA-11 | 2026-09-04 06:18:42 | 49.44051 | 8.65393 | 166° | 11km/h | 23454m | 4.0m/s | -53.5°C | 4.1% | 34.0hPa | 2.7V | 00:00:00 | 01:47:54 | 00:00:00 | |
| DJTTGO | 2026-09-04 06:18:41 | 49.44051 | 8.65393 | 167° | 18km/h | 23454m | 4.1m/s | -53.6°C | 1.2% | 34.1hPa | 2.7V | 00:00:00 | 00:00:00 | 00:00:00 | |
| DM7RM-13 | 2026-09-04 06:18:40 | 49.44055 | 8.65392 | 174° | 18km/h | 23449m | 6.0m/s | -53.6°C | 1.2% | 34.1hPa | 2.7V | 00:00:00 | 00:00:00 | 00:00:00 | |
| DL1XH1-15 | 2026-09-04 06:18:39 | 49.44071 | 8.65390 | 236° | 5km/h | 23413m | 6m/s | -53.6°C | 4.2% | 34.3hPa | 2.7V | 08:30:00 | 01:47:46 | 00:00:00 | |
| DM0DOS-11 | 2026-09-04 06:18:38 | 49.44072 | 8.65392 | 236° | 7km/h | 23407m | 4.7m/s | -53.7°C | 4.2% | 34.3hPa | 2.5V | 08:30:00 | 01:47:45 | 00:00:00 | |
| DL1XH-west | 2026-09-04 06:18:36 | 49.44070 | 8.65390 | 153° | 4km/h | 23423m | 4.3m/s | -53.7°C | 1% | 34.2hPa | 2.6V | 18:12:15 | 01:47:48 | 00:00:00 | |
| BIOWL1-15 | 2026-09-04 06:18:34 | 49.44071 | 8.65391 | 237° | 5km/h | 23413m | 6m/s | -53.7°C | 1% | 34.3hPa | 2.7V | 18:12:15 | 01:47:46 | 00:00:00 | |
| HSKMA3-T | 2026-09-04 06:18:32 | 49.44073 | 8.65395 | 222° | 9km/h | 23403m | 4.8m/s | -53.7°C | 0.9% | 34.3hPa | 2.6V | 18:12:15 | 01:47:44 | 00:00:00 | |
| DO3MHA-11 | 2026-09-04 06:18:32 | 49.44073 | 8.65395 | 222° | 13km/h | 23403m | 4.7m/s | -53.7°C | 4.2% | 34.3hPa | 2.7V | 00:00:00 | 01:47:44 | 00:00:00 | |
| CB1BUN | 2026-09-04 06:18:31 | 49.44073 | 8.65395 | 223° | 9km/h | 23403m | 4.8m/s | -53.7°C | 1.2% | 34.3hPa | 2.7V | 00:00:00 | 00:00:00 | 00:00:00 | |
| DB0UT-7 | 2026-09-04 06:18:30 | 49.44078 | 8.65398 | 192° | 11km/h | 23392m | 4.8m/s | -53.7°C | 4.2% | 34.3hPa | 2.7V | 00:00:00 | 01:47:42 | 00:00:00 | |
| DL1XH1-15 | 2026-09-04 06:18:29 | 49.44098 | 8.65413 | 218° | 11km/h | 23362m | 5.5m/s | -53.5°C | 4.1% | 34.5hPa | 2.7V | 08:30:00 | 01:47:36 | 00:00:00 | |
| DM0DOS-11 | 2026-09-04 06:18:28 | 49.44100 | 8.65415 | 221° | 7km/h | 23357m | 5.2m/s | -53.6°C | 4.1% | 34.6hPa | 2.5V | 08:30:00 | 01:47:35 | 00:00:00 | |
| DL1XH-west | 2026-09-04 06:18:25 | 49.44096 | 8.65410 | 219° | 15km/h | 23367m | 4.1m/s | -53.6°C | 1% | 34.5hPa | 2.7V | 18:12:15 | 01:47:37 | 00:00:00 | |
| BIOWL1-15 | 2026-09-04 06:18:23 | 49.44100 | 8.65415 | 221° | 7km/h | 23357m | 5.2m/s | -53.6°C | 0.9% | 34.6hPa | 2.5V | 18:12:15 | 01:47:35 | 00:00:00 | |
| DJ2KF-10 | 2026-09-04 06:18:23 | 49.44100 | 8.65415 | 222° | 11km/h | 23357m | 5.2m/s | -53.5°C | 4.1% | 34.5hPa | 2.5V | 00:00:00 | 01:47:35 | 00:00:00 | |
| DO3MHA-11 | 2026-09-04 06:18:22 | 49.44101 | 8.65417 | 224° | 9km/h | 23352m | 4.4m/s | -53.6°C | 4.1% | 34.5hPa | 2.5V | 00:00:00 | 01:47:34 | 08:30:00 | |
| DJ2DS-15 | 2026-09-04 06:18:21 | 49.44102 | 8.65419 | 228° | 5km/h | 23347m | 5.7m/s | -53.7°C | 1.2% | 34.6hPa | 2.5V | 00:00:00 | 00:00:00 | 00:00:00 | |
| HSKMA3-T | 2026-09-04 06:18:21 | 49.44102 | 8.65419 | 228° | 7km/h | 23347m | 5.7m/s | -53.7°C | 0.9% | 34.6hPa | 2.5V | 18:12:15 | 01:47:33 | 00:00:00 | |
| DF1GD-15 | 2026-09-04 06:18:20 | 49.44102 | 8.65419 | 229° | 7km/h | 23347m | 5.7m/s | -53.7°C | 1.2% | 34.6hPa | 2.5V | 00:00:00 | 00:00:00 | 00:00:00 | |
| DL1XH1-15 | 2026-09-04 06:18:19 | 49.44117 | 8.65428 | 190° | 9km/h | 23312m | 5.4m/s | -54°C | 4.3% | 34.8hPa | 2.5V | 08:30:00 | 01:47:26 | 00:00:00 | |
| DM0DOS-11 | 2026-09-04 06:18:18 | 49.44119 | 8.65429 | 206° | 11km/h | 23306m | 5.9m/s | -54°C | 4.3% | 34.9hPa | 2.5V | 08:30:00 | 01:47:25 | 00:00:00 | |
| DL1XH-west | 2026-09-04 06:18:14 | 49.44117 | 8.65428 | 191° | 9km/h | 23312m | 5.4m/s | -54°C | 1% | 34.8hPa | 2.5V | 18:12:15 | 01:47:26 | 00:00:00 | |
| BIOWL1-15 | 2026-09-04 06:18:13 | 49.44119 | 8.65430 | 206° | 11km/h | 23306m | 5.9m/s | -54°C | 1% | 34.9hPa | 2.5V | 18:12:15 | 01:47:25 | 00:00:00 | |
| HSKMA3-T | 2026-09-04 06:18:11 | 49.44124 | 8.65434 | 217° | 11km/h | 23296m | 4.3m/s | -54°C | 1.1% | 34.9hPa | 2.7V | 18:12:15 | 01:47:23 | 00:00:00 | |
| DG9SBQ-11 | 2026-09-04 06:18:09 | 49.44128 | 8.65438 | 200° | 7km/h | 23286m | 5.8m/s | -53.9°C | 1.3% | 34.9hPa | 2.5V | 00:00:00 | 00:00:00 | 00:00:00 | |
| DM0DOS-11 | 2026-09-04 06:18:08 | 49.44144 | 8.65442 | 192° | 13km/h | 23257m | 4.1m/s | -53.8°C | 4.2% | 35.1hPa | 2.5V | 08:30:00 | 01:47:15 | 00:00:00 | |
| DL1XH-west | 2026-09-04 06:18:03 | 49.44144 | 8.65442 | 192° | 13km/h | 23257m | 4.1m/s | -53.8°C | 1% | 35.1hPa | 2.5V | 18:12:15 | 01:47:15 | 00:00:00 | |
| HSKMA3-T | 2026-09-04 06:18:00 | 49.44152 | 8.65441 | 154° | 9km/h | 23241m | 5.3m/s | -53.9°C | 1% | 35.2hPa | 2.7V | 18:12:15 | 01:47:12 | 00:00:00 | |
| DB0UT-7 | 2026-09-04 06:18:00 | 49.44152 | 8.65440 | 155° | 15km/h | 23241m | 5.3m/s | -53.9°C | 4.3% | 35.2hPa | 2.5V | 00:00:00 | 00:00:00 | 00:00:00 | |
| DK5PH-5 | 2026-09-04 06:17:59 | 49.44154 | 8.65439 | 157° | 15km/h | 23236m | 4.6m/s | -53.8°C | 4.3% | 35.2hPa | 2.5V | 00:00:00 | 01:47:11 | 00:00:00 | |
| DM0DOS-11 | 2026-09-04 06:17:58 | 49.44173 | 8.65437 | 149° | 13km/h | 23205m | 5.8m/s | -53.6°C | 4.3% | 35.4hPa | 2.5V | 08:30:00 | 01:47:05 | 00:00:00 | |
| DL1XH-west | 2026-09-04 06:17:53 | 49.44173 | 8.65437 | 149° | 13km/h | 23205m | 5.8m/s | -53.7°C | 1% | 35.4hPa | 2.5V | 18:12:15 | 01:47:05 | 00:00:00 | |
| BIOWL1-15 | 2026-09-04 06:17:52 | 49.44176 | 8.65434 | 138° | 15km/h | 23200m | 4.8m/s | -53.7°C | 1% | 35.4hPa | 2.5V | 18:12:15 | 01:47:04 | 00:00:00 | |
| DO3MHA-11 | 2026-09-04 06:17:52 | 49.44176 | 8.65434 | 138° | 11km/h | 23200m | 4.7m/s | -53.6°C | 4.3% | 35.4hPa | 2.5V | 00:00:00 | 01:47:04 | 00:00:00 | |
| DG9SBQ-11 | 2026-09-04 06:17:51 | 49.44176 | 8.65434 | 139° | 15km/h | 23200m | 4.8m/s | -53.7°C | 1.3% | 35.4hPa | 2.7V | 00:00:00 | 00:00:00 | 00:00:00 | |
| KANTATE | 2026-09-04 06:17:50 | 49.44179 | 8.65430 | 137° | 16km/h | 23196m | 5.0m/s | -53.6°C | 1.2% | 35.5hPa | 2.7V | 00:00:00 | 00:00:00 | 00:00:00 | |
| DL1XH1-15 | 2026-09-04 06:17:49 | 49.44190 | 8.65407 | 70° | 0km/h | 23159m | 5.5m/s | -53.5°C | 4.1% | 35.6hPa | 2.7V | 08:30:00 | 01:46:56 | 00:00:00 | |
| HSKMA3-T | 2026-09-04 06:17:49 | 49.44185 | 8.65422 | 139° | 16km/h | 23184m | 4.8m/s | -53.4°C | 0.9% | 35.5hPa | 2.7V | 18:12:15 | 01:47:01 | 00:00:00 | |
| DO1YAY-16 | 2026-09-04 06:17:47 | 49.44190 | 8.65414 | 119° | 9km/h | 23175m | 6.0m/s | -53.4°C | 1.2% | 35.6hPa | 2.5V | 00:00:00 | 00:00:00 | 00:00:00 | |
| DJ2DS-15 | 2026-09-04 06:17:45 | 49.44190 | 8.65408 | 74° | 4km/h | 23164m | 4.4m/s | -53.6°C | 1.2% | 35.6hPa | 2.5V | 00:00:00 | 00:00:00 | 00:00:00 | |
| DL1XH-west | 2026-09-04 06:17:42 | 49.44191 | 8.65409 | 215° | 7km/h | 23148m | 4.6m/s | -53.5°C | 1% | 35.7hPa | 2.5V | 18:12:15 | 01:46:54 | 00:00:00 | |
| DO3MHA-11 | 2026-09-04 06:17:42 | 49.44191 | 8.65409 | 216° | 16km/h | 23148m | 4.6m/s | -53.5°C | 4.2% | 35.7hPa | 2.7V | 00:00:00 | 01:46:54 | 00:00:00 | |
| DL0LBS | 2026-09-04 06:17:41 | 49.44191 | 8.65409 | 216° | 7km/h | 23148m | 4.6m/s | -53.5°C | 1.3% | 35.7hPa | 2.7V | 00:00:00 | 00:00:00 | 00:00:00 | |
| DF1GD-15 | 2026-09-04 06:17:40 | 49.44195 | 8.65409 | 153° | 9km/h | 23140m | 5.5m/s | -53.5°C | 1.3% | 35.8hPa | 2.7V | 00:00:00 | 00:00:00 | 00:00:00 | |
| DL1XH1-15 | 2026-09-04 06:17:39 | 49.44210 | 8.65368 | 126° | 24km/h | 23107m | 5.5m/s | -53.5°C | 4.2% | 36hPa | 2.7V | 08:30:00 | 01:46:46 | 00:00:00 | |
| HSKMA3-T | 2026-09-04 06:17:39 | 49.44197 | 8.65406 | 127° | 15km/h | 23133m | 6m/s | -53.5°C | 1% | 35.8hPa | 2.7V | 18:12:15 | 01:46:51 | 00:00:00 | |
| DM7RM-13 | 2026-09-04 06:17:38 | 49.44197 | 8.65406 | 128° | 15km/h | 23134m | 6.0m/s | -53.5°C | 1.3% | 35.8hPa | 2.5V | 00:00:00 | 00:00:00 | 00:00:00 | |
| DM0DOS-11 | 2026-09-04 06:17:37 | 49.44217 | 8.65355 | 126° | 18km/h | 23096m | 5.4m/s | -53.6°C | 4.1% | 36hPa | 2.5V | 08:30:00 | 01:46:44 | 00:00:00 | |
| DL1XH-west | 2026-09-04 06:17:32 | 49.44217 | 8.65355 | 127° | 18km/h | 23096m | 5.4m/s | -53.6°C | 0.9% | 36hPa | 2.5V | 18:12:15 | 01:46:44 | 00:00:00 | |
| DB0UT-7 | 2026-09-04 06:17:30 | 49.44221 | 8.65343 | 104° | 20km/h | 23085m | 5.8m/s | -53.7°C | 4.3% | 36.0hPa | 2.7V | 00:00:00 | 01:46:42 | 08:30:00 | |
| DL1XH1-15 | 2026-09-04 06:17:29 | 49.44223 | 8.65311 | 98° | 16km/h | 23053m | 4.4m/s | -53.7°C | 4.2% | 36.3hPa | 2.7V | 08:30:00 | 01:46:36 | 00:00:00 | |
| HSKMA3-T | 2026-09-04 06:17:28 | 49.44221 | 8.65332 | 85° | 15km/h | 23074m | 5m/s | -53.8°C | 0.9% | 36.1hPa | 2.7V | 18:12:15 | 01:46:40 | 00:00:00 | |
| DO8TBO-1 | 2026-09-04 06:17:28 | 49.44221 | 8.65332 | 85° | 18km/h | 23074m | 5.0m/s | -53.8°C | 4.2% | 36.1hPa | 2.5V | 00:00:00 | 01:46:40 | 00:00:00 | |
| DF2AP-13 | 2026-09-04 06:17:26 | 49.44221 | 8.65322 | 97° | 22km/h | 23063m | 5.7m/s | -53.9°C | 4.3% | 36.2hPa | 2.5V | 00:00:00 | 01:46:38 | 00:00:00 | |
| DM0DOS-11 | 2026-09-04 06:17:25 | 49.44222 | 8.65278 | 90° | 26km/h | 23032m | 5.1m/s | -53.7°C | 4.3% | 36.4hPa | 2.7V | 08:30:00 | 01:46:32 | 00:00:00 | |
| DL1XH-west | 2026-09-04 06:17:21 | 49.44222 | 8.65288 | 86° | 24km/h | 23037m | 4.8m/s | -53.7°C | 1% | 36.3hPa | 2.6V | 18:12:15 | 01:46:33 | 00:00:00 | |
| HSKMA3-T | 2026-09-04 06:17:18 | 49.44224 | 8.65259 | 100° | 26km/h | 23020m | 5.5m/s | -53.7°C | 1% | 36.4hPa | 2.5V | 18:12:15 | 01:46:30 | 00:00:00 | |
| DB0NH | 2026-09-04 06:17:17 | 49.44225 | 8.65249 | 99° | 18km/h | 23015m | 5.1m/s | -53.6°C | 4.3% | 36.4hPa | 2.6V | 00:00:00 | 01:46:29 | 00:00:00 | |
| DO1YAY-16 | 2026-09-04 06:17:16 | 49.44225 | 8.65239 | 93° | 26km/h | 23009m | 6.4m/s | -53.6°C | 1.2% | 36.5hPa | 2.6V | 00:00:00 | 00:00:00 | 00:00:00 | |
| DM0DOS-11 | 2026-09-04 06:17:15 | 49.44228 | 8.65178 | 105° | 22km/h | 22977m | 4.8m/s | -53.3°C | 4.3% | 36.7hPa | 2.6V | 08:30:00 | 01:46:22 | 00:00:00 | |
| DL1XH-west | 2026-09-04 06:17:10 | 49.44228 | 8.65178 | 106° | 22km/h | 22978m | 4.8m/s | -53.3°C | 1% | 36.7hPa | 2.6V | 18:12:15 | 01:46:22 | 00:00:00 | |
| HSKMA3-T | 2026-09-04 06:17:08 | 49.44230 | 8.65154 | 83° | 20km/h | 22961m | 5.2m/s | -53.2°C | 1% | 36.8hPa | 2.5V | 18:12:15 | 01:46:19 | 00:00:00 | |
| KANTATE | 2026-09-04 06:17:08 | 49.44230 | 8.65162 | 93° | 20km/h | 22967m | 6.0m/s | -53.2°C | 1.2% | 36.7hPa | 2.5V | 00:00:00 | 00:00:00 | 00:00:00 | |
| DM0DOS-11 | 2026-09-04 06:17:05 | 49.44234 | 8.65109 | 99° | 16km/h | 22923m | 5.6m/s | -52.9°C | 4.2% | 37hPa | 2.5V | 08:30:00 | 01:46:12 | 00:00:00 | |
| DB0ND-19 | 2026-09-04 06:17:04 | 49.44230 | 8.65127 | 111° | 15km/h | 22940m | 5.3m/s | -53.1°C | 1.2% | 36.9hPa | 2.7V | 00:00:00 | 00:00:00 | 00:00:00 | |
| DL6DJ-15 | 2026-09-04 06:17:03 | 49.44230 | 8.65127 | 111° | 15km/h | 22940m | 5.3m/s | -53.1°C | 1.2% | 36.9hPa | 2.7V | 00:00:00 | 00:00:00 | 00:00:00 | |
| DB0UT-7 | 2026-09-04 06:17:00 | 49.44234 | 8.65109 | 100° | 15km/h | 22923m | 5.6m/s | -52.9°C | 4.2% | 36.9hPa | 2.7V | 00:00:00 | 00:00:00 | 00:00:00 | |
| DL1XH1-15 | 2026-09-04 06:16:59 | 49.44239 | 8.65070 | 87° | 15km/h | 22890m | 6.4m/s | -52.7°C | 4% | 37.2hPa | 2.7V | 08:30:00 | 01:46:06 | 00:00:00 | |
| DL1XH-west | 2026-09-04 06:16:59 | 49.44235 | 8.65102 | 100° | 18km/h | 22918m | 4.4m/s | -52.9°C | 0.9% | 37hPa | 2.5V | 18:12:15 | 01:46:11 | 00:00:00 | |
| HSKMA3-T | 2026-09-04 06:16:57 | 49.44237 | 8.65089 | 110° | 18km/h | 22907m | 6m/s | -52.7°C | 0.9% | 37.1hPa | 2.7V | 18:12:15 | 01:46:09 | 00:00:00 | |
| BIOWL1-15 | 2026-09-04 06:16:50 | 49.44240 | 8.65039 | 95° | 15km/h | 22859m | 5.8m/s | -52.6°C | 0.9% | 37.4hPa | 2.7V | 18:12:15 | 01:46:00 | 00:00:00 | |
| NBG1-10 | 2026-09-04 06:16:50 | 49.44239 | 8.65050 | 103° | 15km/h | 22869m | 4.8m/s | -52.6°C | 4.0% | 37.3hPa | 2.5V | 00:00:00 | 01:46:02 | 00:00:00 | |
| DL1XH1-15 | 2026-09-04 06:16:49 | 49.44243 | 8.65012 | 110° | 22km/h | 22837m | 6.5m/s | -52.8°C | 4.1% | 37.5hPa | 2.5V | 08:30:00 | 01:45:56 | 00:00:00 | |
| DL1XH-west | 2026-09-04 06:16:49 | 49.44240 | 8.65045 | 102° | 15km/h | 22864m | 4.3m/s | -52.6°C | 0.8% | 37.4hPa | 2.7V | 18:12:15 | 01:46:01 | 00:00:00 | |
| HSKMA3-T | 2026-09-04 06:16:46 | 49.44241 | 8.65027 | 94° | 18km/h | 22848m | 4.8m/s | -52.7°C | 0.8% | 37.4hPa | 2.5V | 18:12:15 | 01:45:58 | 00:00:00 | |
| DG1MJG | 2026-09-04 06:16:45 | 49.44241 | 8.65019 | 102° | 20km/h | 22843m | 5.3m/s | 0°C | 0% | 0hPa | 2.5V | 00:00:00 | 00:00:00 | 00:00:00 | |
| DL8DAS-15 | 2026-09-04 06:16:44 | 49.44241 | 8.65019 | 102° | 20km/h | 22843m | 5.3m/s | -52.7°C | 1.2% | 37.5hPa | 2.5V | 00:00:00 | 00:00:00 | 00:00:00 | |
| AU51GT2 | 2026-09-04 06:16:43 | 49.44248 | 8.64997 | 126° | 20km/h | 22827m | 4.1m/s | -52.7°C | 1.2% | 37.5hPa | 2.5V | 00:00:00 | 00:00:00 | 00:00:00 | |
| DL1ZP-14 | 2026-09-04 06:16:41 | 49.44251 | 8.64991 | 125° | 16km/h | 22822m | 5.4m/s | -52.7°C | 1.2% | 37.6hPa | 2.5V | 00:00:00 | 00:00:00 | 00:00:00 | |
| DL1XH1-15 | 2026-09-04 06:16:39 | 49.44265 | 8.64978 | 177° | 11km/h | 22785m | 4.7m/s | -52.8°C | 4% | 37.8hPa | 2.5V | 08:30:00 | 01:45:46 | 00:00:00 | |
| BIOWL1-15 | 2026-09-04 06:16:38 | 49.44256 | 8.64980 | 138° | 7km/h | 22806m | 4.9m/s | -52.6°C | 0.8% | 37.6hPa | 2.7V | 18:12:15 | 01:45:50 | 00:00:00 | |
| DF1GD-15 | 2026-09-04 06:16:38 | 49.44256 | 8.64980 | 139° | 7km/h | 22806m | 4.9m/s | -52.6°C | 1.2% | 37.7hPa | 2.5V | 00:00:00 | 00:00:00 | 00:00:00 | |
| DB0UT-9 | 2026-09-04 06:16:36 | 49.44257 | 8.64978 | 162° | 7km/h | 22800m | 6.2m/s | -52.6°C | 1.2% | 37.7hPa | 2.5V | 00:00:00 | 00:00:00 | 00:00:00 | |
| DM0DOS-11 | 2026-09-04 06:16:35 | 49.44274 | 8.64970 | 139° | 16km/h | 22763m | 6.3m/s | -52.9°C | 4.1% | 37.9hPa | 2.5V | 08:30:00 | 01:45:42 | 00:00:00 | |
| HSKMA3-T | 2026-09-04 06:16:35 | 49.44262 | 8.64978 | 182° | 11km/h | 22789m | 4m/s | -52.6°C | 0.8% | 37.8hPa | 2.5V | 18:12:15 | 01:45:47 | 00:00:00 | |
| BIOWL9-15 | 2026-09-04 06:16:34 | 49.44265 | 8.64978 | 177° | 9km/h | 22785m | 4.7m/s | -52.8°C | 1.2% | 37.8hPa | 2.6V | 00:00:00 | 00:00:00 | 00:00:00 | |
| DB0ND-19 | 2026-09-04 06:16:33 | 49.44269 | 8.64976 | 147° | 9km/h | 22774m | 5.3m/s | -52.8°C | 1.2% | 37.9hPa | 2.6V | 00:00:00 | 00:00:00 | 00:00:00 | |
| DL6DJ-15 | 2026-09-04 06:16:32 | 49.44269 | 8.64976 | 147° | 9km/h | 22774m | 5.3m/s | -52.8°C | 1.2% | 37.9hPa | 2.6V | 00:00:00 | 00:00:00 | 00:00:00 | |
| SFWM-10 | 2026-09-04 06:16:31 | 49.44269 | 8.64976 | 149° | 9km/h | 22774m | 5.3m/s | -52.8°C | 1.2% | 37.9hPa | 2.6V | 00:00:00 | 00:00:00 | 00:00:00 | |
| DB0UT-7 | 2026-09-04 06:16:30 | 49.44274 | 8.64970 | 140° | 11km/h | 22764m | 6.3m/s | -52.8°C | 4.1% | 37.9hPa | 2.6V | 00:00:00 | 01:45:42 | 00:00:00 | |
| DL1XH1-15 | 2026-09-04 06:16:29 | 49.44285 | 8.64933 | 96° | 15km/h | 22732m | 5.2m/s | -52.7°C | 4.1% | 38.1hPa | 2.6V | 08:30:00 | 01:45:36 | 00:00:00 | |
| DL1XH-west | 2026-09-04 06:16:28 | 49.44280 | 8.64959 | 125° | 20km/h | 22753m | 4.1m/s | -53°C | 0.8% | 38hPa | 2.7V | 18:12:15 | 01:45:40 | 00:00:00 | |
| BIOWL1-15 | 2026-09-04 06:16:27 | 49.44282 | 8.64953 | 114° | 20km/h | 22748m | 5.9m/s | -52.9°C | 0.9% | 38hPa | 2.7V | 18:12:15 | 01:45:39 | 00:00:00 | |
| DM0DOS-11 | 2026-09-04 06:16:25 | 49.44287 | 8.64919 | 93° | 5km/h | 22711m | 5.8m/s | -52.6°C | 4% | 38.2hPa | 2.5V | 08:30:00 | 01:45:32 | 00:00:00 | |
| HSKMA3-T | 2026-09-04 06:16:25 | 49.44284 | 8.64939 | 94° | 18km/h | 22737m | 4.5m/s | -52.8°C | 0.9% | 38.1hPa | 2.5V | 18:12:15 | 01:45:37 | 00:00:00 | |
| DF2AP-13 | 2026-09-04 06:16:25 | 49.44284 | 8.64939 | 95° | 9km/h | 22737m | 4.4m/s | -52.8°C | 4.1% | 38.0hPa | 2.5V | 00:00:00 | 01:45:37 | 00:00:00 | |
| DO3MHA-11 | 2026-09-04 06:16:23 | 49.44285 | 8.64927 | 104° | 9km/h | 22727m | 5.9m/s | -52.7°C | 4.0% | 38.1hPa | 2.5V | 00:00:00 | 01:45:35 | 00:00:00 | |
| DJ2KF-10 | 2026-09-04 06:16:22 | 49.44286 | 8.64924 | 115° | 9km/h | 22721m | 5.0m/s | -52.7°C | 4.0% | 38.1hPa | 2.5V | 00:00:00 | 01:45:34 | 00:00:00 | |
| DM3KS-11 | 2026-09-04 06:16:21 | 49.44287 | 8.64917 | 74° | 5km/h | 22705m | 5.4m/s | -52.6°C | 1.2% | 38.3hPa | 2.5V | 00:00:00 | 00:00:00 | 00:00:00 | |
| DL1XH1-15 | 2026-09-04 06:16:19 | 49.44291 | 8.64900 | 113° | 15km/h | 22680m | 4.4m/s | -52.5°C | 3.9% | 38.4hPa | 2.5V | 08:30:00 | 01:45:26 | 00:00:00 | |
| DL1XH-west | 2026-09-04 06:16:17 | 49.44287 | 8.64912 | 102° | 7km/h | 22695m | 5.5m/s | -52.6°C | 0.8% | 38.3hPa | 2.7V | 18:12:15 | 01:45:29 | 00:00:00 | |
| DF7PN | 2026-09-04 06:16:17 | 49.44288 | 8.64909 | 119° | 9km/h | 22690m | 5.4m/s | -52.5°C | 1.1% | 38.4hPa | 2.7V | 00:00:00 | 00:00:00 | 00:00:00 | |
| DL3AQ-11 | 2026-09-04 06:16:16 | 49.44289 | 8.64905 | 121° | 13km/h | 22685m | 4.4m/s | -52.5°C | 1.1% | 38.4hPa | 2.7V | 00:00:00 | 00:00:00 | 00:00:00 | |
| DM0DOS-11 | 2026-09-04 06:16:15 | 49.44293 | 8.64879 | 105° | 11km/h | 22661m | 4.8m/s | -52.6°C | 4% | 38.5hPa | 2.7V | 08:30:00 | 01:45:22 | 00:00:00 | |
| HSKMA3-T | 2026-09-04 06:16:14 | 49.44291 | 8.64900 | 114° | 15km/h | 22680m | 4.4m/s | -52.6°C | 0.8% | 38.4hPa | 2.5V | 18:12:15 | 01:45:26 | 00:00:00 | |
| DO1YAY-16 | 2026-09-04 06:16:14 | 49.44291 | 8.64900 | 113° | 15km/h | 22680m | 4.4m/s | -52.6°C | 1.1% | 38.4hPa | 2.7V | 00:00:00 | 00:00:00 | 00:00:00 | |
| DG1MJG | 2026-09-04 06:16:13 | 49.44292 | 8.64895 | 105° | 15km/h | 22675m | 5.9m/s | 0°C | 0% | 0hPa | 2.7V | 00:00:00 | 00:00:00 | 00:00:00 | |
| DL8DAS-15 | 2026-09-04 06:16:12 | 49.44292 | 8.64889 | 95° | 15km/h | 22670m | 4.9m/s | -52.6°C | 1.2% | 38.5hPa | 2.7V | 00:00:00 | 00:00:00 | 00:00:00 | |
| SFWM-10 | 2026-09-04 06:16:11 | 49.44292 | 8.64889 | 95° | 15km/h | 22670m | 4.9m/s | -52.6°C | 1.2% | 38.5hPa | 2.7V | 00:00:00 | 00:00:00 | 00:00:00 | |
| DL1ZP-14 | 2026-09-04 06:16:10 | 49.44293 | 8.64879 | 105° | 11km/h | 22661m | 4.8m/s | -52.6°C | 1.2% | 38.5hPa | 2.7V | 00:00:00 | 00:00:00 | 00:00:00 | |
| DL1XH1-15 | 2026-09-04 06:16:09 | 49.44302 | 8.64873 | 214° | 4km/h | 22629m | 4.8m/s | -52.9°C | 4% | 38.7hPa | 2.5V | 08:30:00 | 01:45:16 | 00:00:00 | |
| BIOWL1-15 | 2026-09-04 06:16:07 | 49.44298 | 8.64872 | 170° | 7km/h | 22645m | 4.8m/s | -52.6°C | 0.8% | 38.6hPa | 2.6V | 18:12:15 | 01:45:19 | 00:00:00 | |
| HSKMA3-T | 2026-09-04 06:16:04 | 49.44302 | 8.64873 | 215° | 4km/h | 22629m | 4.8m/s | -52.9°C | 0.8% | 38.7hPa | 2.5V | 18:12:15 | 01:45:16 | 00:00:00 | |
| BIOWL9-15 | 2026-09-04 06:16:03 | 49.44302 | 8.64873 | 202° | 4km/h | 22624m | 5.7m/s | -53.0°C | 1.2% | 38.8hPa | 2.5V | 00:00:00 | 00:00:00 | 00:00:00 | |
| DB0ND-19 | 2026-09-04 06:16:02 | 49.44305 | 8.64873 | 157° | 5km/h | 22614m | 4.3m/s | -53.0°C | 1.2% | 38.8hPa | 2.5V | 00:00:00 | 00:00:00 | 00:00:00 | |
| DL6DJ-15 | 2026-09-04 06:16:01 | 49.44305 | 8.64873 | 157° | 5km/h | 22614m | 4.3m/s | -53.0°C | 1.2% | 38.8hPa | 2.5V | 00:00:00 | 00:00:00 | 00:00:00 | |
| DB0UT-7 | 2026-09-04 06:16:00 | 49.44306 | 8.64872 | 133° | 9km/h | 22610m | 3.3m/s | -53.0°C | 4.1% | 38.8hPa | 2.5V | 00:00:00 | 00:00:00 | 00:00:00 | |
| DL1XH1-15 | 2026-09-04 06:15:59 | 49.44307 | 8.64846 | 116° | 13km/h | 22582m | 5.5m/s | -53.2°C | 4.2% | 39hPa | 2.5V | 08:30:00 | 01:45:06 | 00:00:00 | |
| DL1XH-west | 2026-09-04 06:15:56 | 49.44306 | 8.64856 | 81° | 15km/h | 22591m | 3.7m/s | -53.2°C | 0.9% | 39hPa | 2.7V | 18:12:15 | 01:45:08 | 00:00:00 | |
| DB0UT-9 | 2026-09-04 06:15:56 | 49.44307 | 8.64861 | 77° | 13km/h | 22596m | 4.5m/s | -53.1°C | 1.2% | 38.9hPa | 2.7V | 00:00:00 | 00:00:00 | 00:00:00 | |
| DM0DOS-11 | 2026-09-04 06:15:55 | 49.44315 | 8.64840 | 209° | 4km/h | 22563m | 5.5m/s | -53.2°C | 4.3% | 39.1hPa | 2.7V | 08:30:00 | 01:45:02 | 00:00:00 | |
| HSKMA3-T | 2026-09-04 06:15:53 | 49.44309 | 8.64842 | 142° | 11km/h | 22577m | 4.7m/s | -53.3°C | 1% | 39hPa | 2.5V | 18:12:15 | 01:45:05 | 00:00:00 | |
| DD1CC8 | 2026-09-04 06:15:52 | 49.44312 | 8.64840 | 163° | 11km/h | 22573m | 4.2m/s | -53.2°C | 1.2% | 39.1hPa | 2.7V | 00:00:00 | 00:00:00 | 00:00:00 | |
| DL3AQ-11 | 2026-09-04 06:15:51 | 49.44314 | 8.64840 | 175° | 7km/h | 22568m | 5.1m/s | -53.2°C | 1.2% | 39.1hPa | 2.7V | 00:00:00 | 00:00:00 | 00:00:00 | |
| DM3KS-11 | 2026-09-04 06:15:50 | 49.44315 | 8.64843 | 306° | 5km/h | 22552m | 4.7m/s | -53.1°C | 1.2% | 39.2hPa | 2.7V | 00:00:00 | 00:00:00 | 00:00:00 | |
| DL1XH1-15 | 2026-09-04 06:15:49 | 49.44312 | 8.64848 | 33° | 4km/h | 22532m | 4.5m/s | -53°C | 4.2% | 39.3hPa | 2.7V | 08:30:00 | 01:44:56 | 00:00:00 | |
| BIOWL1-15 | 2026-09-04 06:15:45 | 49.44312 | 8.64848 | 335° | 4km/h | 22537m | 4.9m/s | -53°C | 1% | 39.3hPa | 2.7V | 18:12:15 | 01:44:57 | 00:00:00 | |
| HSKMA3-T | 2026-09-04 06:15:42 | 49.44309 | 8.64844 | 56° | 9km/h | 22522m | 5.2m/s | -52.9°C | 0.9% | 39.4hPa | 2.5V | 18:12:15 | 01:44:54 | 00:00:00 | |
| AU51GT2 | 2026-09-04 06:15:41 | 49.44307 | 8.64837 | 81° | 11km/h | 22512m | 5.4m/s | -52.8°C | 1.2% | 39.4hPa | 2.7V | 00:00:00 | 00:00:00 | 00:00:00 | |
| DL1XH1-15 | 2026-09-04 06:15:39 | 49.44311 | 8.64831 | 294° | 9km/h | 22482m | 4.9m/s | -52.6°C | 4.1% | 39.6hPa | 2.7V | 08:30:00 | 01:44:46 | 00:00:00 | |
| DL1XH-west | 2026-09-04 06:15:34 | 49.44311 | 8.64831 | 295° | 11km/h | 22482m | 4.9m/s | -52.6°C | 0.9% | 39.6hPa | 2.7V | 18:12:15 | 01:44:46 | 00:00:00 | |
| HSKMA3-T | 2026-09-04 06:15:32 | 49.44308 | 8.64838 | 290° | 11km/h | 22473m | 4.8m/s | -52.5°C | 1% | 39.7hPa | 2.5V | 18:12:15 | 01:44:44 | 00:00:00 | |
| DB0ND-19 | 2026-09-04 06:15:31 | 49.44308 | 8.64844 | 250° | 4km/h | 22463m | 4.5m/s | -52.4°C | 1.2% | 39.8hPa | 2.7V | 00:00:00 | 00:00:00 | 00:00:00 | |
| DB0UT-7 | 2026-09-04 06:15:30 | 49.44308 | 8.64844 | 251° | 9km/h | 22463m | 4.5m/s | -52.4°C | 4.2% | 39.7hPa | 2.7V | 00:00:00 | 01:44:42 | 00:00:00 | |
| DL1XH1-15 | 2026-09-04 06:15:29 | 49.44310 | 8.64839 | 169° | 5km/h | 22434m | 5.6m/s | -52.2°C | 4% | 39.9hPa | 2.7V | 08:30:00 | 01:44:36 | 00:00:00 | |
| BIOWL1-15 | 2026-09-04 06:15:25 | 49.44312 | 8.64840 | 203° | 9km/h | 22429m | 5.1m/s | -52.2°C | 0.8% | 40hPa | 2.5V | 18:12:15 | 01:44:35 | 00:00:00 | |
| DL1XH-west | 2026-09-04 06:15:24 | 49.44310 | 8.64839 | 169° | 5km/h | 22434m | 5.6m/s | -52.2°C | 0.8% | 39.9hPa | 2.7V | 18:12:15 | 01:44:36 | 00:00:00 | |
| HSKMA3-T | 2026-09-04 06:15:22 | 49.44314 | 8.64842 | 221° | 11km/h | 22424m | 4.2m/s | -52.3°C | 0.8% | 40hPa | 2.5V | 18:12:15 | 01:44:34 | 00:00:00 | |
| DJ2KF-10 | 2026-09-04 06:15:22 | 49.44314 | 8.64842 | 222° | 11km/h | 22425m | 4.1m/s | -52.2°C | 4.0% | 39.9hPa | 2.5V | 00:00:00 | 01:44:34 | 00:00:00 | |
| DM0DOS-11 | 2026-09-04 06:15:21 | 49.44317 | 8.64868 | 268° | 11km/h | 22395m | 5.1m/s | -52°C | 4% | 40.2hPa | 2.5V | 08:30:00 | 01:44:28 | 00:00:00 | |
| KANTATE | 2026-09-04 06:15:20 | 49.44316 | 8.64845 | 239° | 13km/h | 22420m | 4.2m/s | -52.3°C | 1.1% | 40.0hPa | 2.7V | 00:00:00 | 00:00:00 | 00:00:00 | |
| DL1XH1-15 | 2026-09-04 06:15:19 | 49.44319 | 8.64876 | 235° | 11km/h | 22385m | 4.6m/s | -51.9°C | 4% | 40.2hPa | 2.7V | 08:30:00 | 01:44:26 | 00:00:00 | |
| DL1XH-west | 2026-09-04 06:15:14 | 49.44319 | 8.64876 | 236° | 11km/h | 22385m | 4.6m/s | -51.9°C | 0.8% | 40.2hPa | 2.7V | 18:12:15 | 01:44:26 | 00:00:00 | |
| BIOWL1-15 | 2026-09-04 06:15:13 | 49.44321 | 8.64879 | 226° | 9km/h | 22381m | 4.3m/s | -51.9°C | 0.8% | 40.2hPa | 2.7V | 18:12:15 | 01:44:25 | 00:00:00 | |
| DJ2DS-15 | 2026-09-04 06:15:13 | 49.44321 | 8.64879 | 227° | 11km/h | 22381m | 4.3m/s | -51.9°C | 4.0% | 40.2hPa | 2.7V | 00:00:00 | 01:44:25 | 08:30:00 | |
| DL3AQ-11 | 2026-09-04 06:15:12 | 49.44323 | 8.64883 | 225° | 4km/h | 22370m | 5.4m/s | -51.9°C | 1.2% | 40.3hPa | 2.5V | 00:00:00 | 00:00:00 | 00:00:00 | |
| DM0DOS-11 | 2026-09-04 06:15:11 | 49.44332 | 8.64892 | 210° | 15km/h | 22345m | 5m/s | -51.7°C | 3.9% | 40.5hPa | 2.5V | 08:30:00 | 01:44:18 | 00:00:00 | |
| HSKMA3-T | 2026-09-04 06:15:11 | 49.44323 | 8.64883 | 225° | 4km/h | 22370m | 5.4m/s | -51.9°C | 0.8% | 40.3hPa | 2.5V | 18:12:15 | 01:44:23 | 00:00:00 | |
| DJTTGO | 2026-09-04 06:15:11 | 49.44323 | 8.64883 | 226° | 4km/h | 22370m | 5.4m/s | -51.9°C | 1.2% | 40.3hPa | 2.5V | 00:00:00 | 00:00:00 | 00:00:00 | |
| DG9SBQ-11 | 2026-09-04 06:15:10 | 49.44323 | 8.64883 | 226° | 4km/h | 22370m | 5.4m/s | -51.9°C | 1.2% | 40.3hPa | 2.5V | 00:00:00 | 00:00:00 | 00:00:00 | |
| DL1XH1-15 | 2026-09-04 06:15:09 | 49.44338 | 8.64898 | 218° | 13km/h | 22334m | 5.7m/s | -51.8°C | 3.9% | 40.5hPa | 2.5V | 08:30:00 | 01:44:16 | 00:00:00 | |
| BIOWL1-15 | 2026-09-04 06:15:05 | 49.44342 | 8.64905 | 235° | 13km/h | 22325m | 4.1m/s | -51.9°C | 0.8% | 40.6hPa | 2.7V | 18:12:15 | 01:44:14 | 00:00:00 | |
| DL1XH-west | 2026-09-04 06:15:04 | 49.44338 | 8.64898 | 218° | 13km/h | 22334m | 5.7m/s | -51.8°C | 0.8% | 40.5hPa | 2.5V | 18:12:15 | 01:44:16 | 00:00:00 | |
| SFWM-10 | 2026-09-04 06:15:03 | 49.44338 | 8.64898 | 219° | 13km/h | 22334m | 5.7m/s | -51.8°C | 1.2% | 40.5hPa | 2.7V | 00:00:00 | 00:00:00 | 00:00:00 | |
| DM0DOS-11 | 2026-09-04 06:15:01 | 49.44351 | 8.64929 | 225° | 5km/h | 22294m | 4.4m/s | -51.5°C | 3.9% | 40.8hPa | 2.7V | 08:30:00 | 01:44:08 | 00:00:00 | |
| HSKMA3-T | 2026-09-04 06:15:00 | 49.44346 | 8.64915 | 240° | 16km/h | 22314m | 5.2m/s | -51.8°C | 0.8% | 40.7hPa | 2.5V | 18:12:15 | 01:44:12 | 00:00:00 | |
| DL1XH-west | 2026-09-04 06:14:53 | 49.44359 | 8.64935 | 200° | 20km/h | 22278m | 5.6m/s | -51.6°C | 0.7% | 40.9hPa | 2.5V | 18:12:15 | 01:44:05 | 00:00:00 | |
| DJ2DS-15 | 2026-09-04 06:14:53 | 49.44359 | 8.64934 | 201° | 22km/h | 22278m | 5.5m/s | -51.5°C | 3.8% | 40.9hPa | 2.5V | 00:00:00 | 01:44:05 | 00:00:00 | |
| DM7RM-13 | 2026-09-04 06:14:52 | 49.44359 | 8.64934 | 201° | 20km/h | 22278m | 5.6m/s | -51.6°C | 1.2% | 40.9hPa | 2.5V | 00:00:00 | 00:00:00 | 00:00:00 | |
| DM0DOS-11 | 2026-09-04 06:14:51 | 49.44392 | 8.64965 | 216° | 20km/h | 22243m | 5.8m/s | -51.4°C | 3.7% | 41.1hPa | 2.5V | 08:30:00 | 01:43:58 | 00:00:00 | |
| HSKMA3-T | 2026-09-04 06:14:50 | 49.44375 | 8.64946 | 210° | 24km/h | 22263m | 5.7m/s | -51.4°C | 0.7% | 41hPa | 2.5V | 18:12:15 | 01:44:02 | 00:00:00 | |
| DO3MHA-11 | 2026-09-04 06:14:50 | 49.44375 | 8.64946 | 211° | 20km/h | 22264m | 5.7m/s | -51.3°C | 3.7% | 40.9hPa | 2.5V | 00:00:00 | 01:44:02 | 00:00:00 | |
| DL1XH1-15 | 2026-09-04 06:14:49 | 49.44400 | 8.64974 | 213° | 22km/h | 22233m | 4.5m/s | -51.7°C | 3.8% | 41.2hPa | 2.5V | 08:30:00 | 01:43:56 | 00:00:00 | |
| DM3KS-11 | 2026-09-04 06:14:47 | 49.44388 | 8.64960 | 219° | 18km/h | 22249m | 4.6m/s | -51.5°C | 1.1% | 41.1hPa | 2.5V | 00:00:00 | 00:00:00 | 00:00:00 | |
| BIOWL1-15 | 2026-09-04 06:14:42 | 49.44416 | 8.64990 | 203° | 18km/h | 22213m | 3.8m/s | -51.6°C | 0.7% | 41.3hPa | 2.5V | 18:12:15 | 01:43:52 | 00:00:00 | |
| DL1XH-west | 2026-09-04 06:14:42 | 49.44408 | 8.64983 | 216° | 18km/h | 22223m | 5.7m/s | -51.7°C | 0.7% | 41.2hPa | 2.7V | 18:12:15 | 01:43:54 | 00:00:00 | |
| HSKMA3-T | 2026-09-04 06:14:39 | 49.44421 | 8.64992 | 196° | 22km/h | 22209m | 5.7m/s | -51.7°C | 0.7% | 41.3hPa | 2.5V | 18:12:15 | 01:43:51 | 00:00:00 | |
| DL1XH-west | 2026-09-04 06:14:32 | 49.44468 | 8.65002 | 187° | 27km/h | 22174m | 5.7m/s | -51.8°C | 0.7% | 41.6hPa | 2.5V | 18:12:15 | 01:43:44 | 00:00:00 | |
| DL3AQ-11 | 2026-09-04 06:14:32 | 49.44475 | 8.65003 | 187° | 26km/h | 22168m | 4.9m/s | -51.8°C | 1.1% | 41.6hPa | 2.7V | 00:00:00 | 00:00:00 | 00:00:00 | |
| DM0DOS-11 | 2026-09-04 06:14:31 | 49.44498 | 8.65012 | 194° | 15km/h | 22144m | 3.9m/s | -52.5°C | 3.9% | 41.7hPa | 2.7V | 08:30:00 | 01:43:38 | 00:00:00 | |
| BIOWL1-15 | 2026-09-04 06:14:30 | 49.44481 | 8.65005 | 190° | 24km/h | 22163m | 4.4m/s | -51.9°C | 0.7% | 41.6hPa | 2.7V | 18:12:15 | 01:43:42 | 00:00:00 | |
| HSKMA3-T | 2026-09-04 06:14:28 | 49.44491 | 8.65008 | 199° | 16km/h | 22153m | 5.4m/s | -52.4°C | 0.8% | 41.7hPa | 2.5V | 18:12:15 | 01:43:40 | 00:00:00 | |
| DL6DJ-15 | 2026-09-04 06:14:28 | 49.44495 | 8.65010 | 199° | 15km/h | 22148m | 3.9m/s | -52.5°C | 1.2% | 41.7hPa | 2.5V | 00:00:00 | 00:00:00 | 00:00:00 | |
| DG9SBQ-11 | 2026-09-04 06:14:27 | 49.44495 | 8.65010 | 200° | 15km/h | 22149m | 3.9m/s | -52.5°C | 1.2% | 41.7hPa | 2.5V | 00:00:00 | 00:00:00 | 00:00:00 | |
| CB1BUN | 2026-09-04 06:14:25 | 49.44498 | 8.65012 | 195° | 15km/h | 22145m | 3.9m/s | -52.5°C | 1.1% | 41.7hPa | 2.5V | 00:00:00 | 00:00:00 | 00:00:00 | |
| DM0DOS-11 | 2026-09-04 06:14:21 | 49.44551 | 8.65005 | 160° | 24km/h | 22096m | 4.2m/s | -53°C | 4.1% | 42hPa | 2.5V | 08:30:00 | 01:43:28 | 00:00:00 | |
| DL1XH-west | 2026-09-04 06:14:21 | 49.44523 | 8.65014 | 177° | 20km/h | 22120m | 5.1m/s | -52.9°C | 0.8% | 41.9hPa | 2.7V | 18:12:15 | 01:43:33 | 00:00:00 | |
| DJ2KF-10 | 2026-09-04 06:14:21 | 49.44523 | 8.65014 | 178° | 26km/h | 22121m | 5.0m/s | -52.8°C | 4.0% | 41.9hPa | 2.7V | 00:00:00 | 01:43:33 | 00:00:00 | |
| DO3MHA-11 | 2026-09-04 06:14:20 | 49.44528 | 8.65014 | 173° | 22km/h | 22116m | 3.7m/s | -52.9°C | 4.0% | 41.9hPa | 2.7V | 00:00:00 | 01:43:32 | 00:00:00 | |
| DL1XH1-15 | 2026-09-04 06:14:19 | 49.44561 | 8.64998 | 154° | 18km/h | 22086m | 4.6m/s | -52.9°C | 4% | 42.1hPa | 2.7V | 08:30:00 | 01:43:26 | 00:00:00 | |
| BIOWL1-15 | 2026-09-04 06:14:19 | 49.44534 | 8.65012 | 169° | 22km/h | 22112m | 4.4m/s | -53°C | 0.9% | 42hPa | 2.7V | 18:12:15 | 01:43:31 | 00:00:00 | |
| HSKMA3-T | 2026-09-04 06:14:17 | 49.44545 | 8.65008 | 163° | 26km/h | 22101m | 4.9m/s | -52.9°C | 0.9% | 42hPa | 2.5V | 18:12:15 | 01:43:29 | 00:00:00 | |
| DB0NH | 2026-09-04 06:14:17 | 49.44545 | 8.65008 | 163° | 26km/h | 22101m | 4.8m/s | -52.9°C | 4.0% | 42.0hPa | 2.5V | 00:00:00 | 01:43:29 | 00:00:00 | |
| DL3AQ-11 | 2026-09-04 06:14:16 | 49.44557 | 8.65002 | 158° | 20km/h | 22092m | 5.5m/s | -52.9°C | 1.2% | 42.1hPa | 2.5V | 00:00:00 | 00:00:00 | 00:00:00 | |
| DN1GJH-1 | 2026-09-04 06:14:14 | 49.44557 | 8.65001 | 159° | 22km/h | 22092m | 5.5m/s | -52.9°C | 1.2% | 42.1hPa | 2.5V | 00:00:00 | 00:00:00 | 00:00:00 | |
| DJ2DS-15 | 2026-09-04 06:14:13 | 49.44566 | 8.64995 | 153° | 27km/h | 22083m | 3.3m/s | -52.9°C | 4.0% | 42.1hPa | 2.5V | 00:00:00 | 01:43:25 | 00:00:00 | |
| DF7PN | 2026-09-04 06:14:12 | 49.44570 | 8.64991 | 151° | 20km/h | 22079m | 4.5m/s | -52.9°C | 1.2% | 42.2hPa | 2.5V | 00:00:00 | 00:00:00 | 00:00:00 | |
| DM0DOS-11 | 2026-09-04 06:14:11 | 49.44604 | 8.64958 | 135° | 26km/h | 22050m | 4.3m/s | -53.1°C | 4.1% | 42.4hPa | 2.5V | 08:30:00 | 01:43:18 | 00:00:00 | |
| DL1XH-west | 2026-09-04 06:14:10 | 49.44582 | 8.64982 | 151° | 27km/h | 22069m | 4.7m/s | -53°C | 0.9% | 42.2hPa | 2.7V | 18:12:15 | 01:43:22 | 00:00:00 | |
| DO3MHA-11 | 2026-09-04 06:14:10 | 49.44582 | 8.64982 | 152° | 29km/h | 22069m | 4.7m/s | -52.9°C | 4.1% | 42.2hPa | 2.7V | 00:00:00 | 01:43:22 | 00:00:00 | |
| DL1XH1-15 | 2026-09-04 06:14:09 | 49.44614 | 8.64943 | 134° | 27km/h | 22042m | 4.9m/s | -53.3°C | 4.1% | 42.4hPa | 2.7V | 08:30:00 | 01:43:16 | 00:00:00 | |
| BIOWL1-15 | 2026-09-04 06:14:09 | 49.44588 | 8.64977 | 150° | 29km/h | 22064m | 4m/s | -53°C | 0.9% | 42.3hPa | 2.7V | 18:12:15 | 01:43:21 | 00:00:00 | |
| HSKMA3-T | 2026-09-04 06:14:07 | 49.44600 | 8.64964 | 141° | 27km/h | 22055m | 5.5m/s | -53.1°C | 0.9% | 42.3hPa | 2.5V | 18:12:15 | 01:43:19 | 00:00:00 | |
| DL1ZP-14 | 2026-09-04 06:14:06 | 49.44605 | 8.64958 | 135° | 26km/h | 22050m | 4.3m/s | -53.1°C | 1.2% | 42.4hPa | 2.5V | 00:00:00 | 00:00:00 | 00:00:00 | |
| NBG1-10 | 2026-09-04 06:14:05 | 49.44609 | 8.64950 | 134° | 26km/h | 22046m | 3.5m/s | -53.1°C | 4.1% | 42.3hPa | 2.5V | 00:00:00 | 01:43:17 | 00:00:00 | |
| DL3AQ-11 | 2026-09-04 06:14:03 | 49.44625 | 8.64926 | 135° | 31km/h | 22032m | 3.9m/s | -53.2°C | 1.2% | 42.5hPa | 2.5V | 00:00:00 | 00:00:00 | 00:00:00 | |
| SONDE2-11 | 2026-09-04 06:14:02 | 49.44625 | 8.64926 | 135° | 31km/h | 22032m | 3.9m/s | -53.2°C | 1.2% | 42.5hPa | 2.5V | 00:00:00 | 00:00:00 | 00:00:00 | |
| DM0DOS-11 | 2026-09-04 06:14:00 | 49.44655 | 8.64866 | 129° | 27km/h | 21999m | 4m/s | -53.5°C | 4.2% | 42.7hPa | 2.5V | 08:30:00 | 01:43:07 | 00:00:00 | |
| DL1XH-west | 2026-09-04 06:14:00 | 49.44635 | 8.64909 | 129° | 29km/h | 22024m | 5.4m/s | -53.2°C | 0.9% | 42.5hPa | 2.5V | 18:12:15 | 01:43:12 | 00:00:00 | |
| BIOWL1-15 | 2026-09-04 06:13:58 | 49.44643 | 8.64891 | 123° | 26km/h | 22013m | 4.6m/s | -53.3°C | 0.9% | 42.6hPa | 2.7V | 18:12:15 | 01:43:10 | 00:00:00 | |
| HSKMA3-T | 2026-09-04 06:13:57 | 49.44647 | 8.64883 | 124° | 27km/h | 22008m | 5.2m/s | -53.3°C | 0.9% | 42.6hPa | 2.7V | 18:12:15 | 01:43:09 | 00:00:00 | |
| DL6DJ-15 | 2026-09-04 06:13:57 | 49.44651 | 8.64874 | 128° | 26km/h | 22003m | 5.2m/s | -53.3°C | 1.2% | 42.7hPa | 2.5V | 00:00:00 | 00:00:00 | 00:00:00 | |
| HTAHTA | 2026-09-04 06:13:51 | 49.44678 | 8.64822 | 132° | 26km/h | 21969m | 4.3m/s | 0°C | -1.0% | -1.0hPa | 2.5V | 00:00:00 | 00:00:00 | 00:00:00 | |
| DM0DOS-11 | 2026-09-04 06:13:50 | 49.44691 | 8.64789 | 108° | 26km/h | 21950m | 4.3m/s | -53.7°C | 4.2% | 43hPa | 2.5V | 08:30:00 | 01:42:57 | 00:00:00 | |
| DL1XH-west | 2026-09-04 06:13:50 | 49.44674 | 8.64829 | 132° | 24km/h | 21974m | 5.6m/s | -53.5°C | 1% | 42.9hPa | 2.5V | 18:12:15 | 01:43:02 | 00:00:00 | |
| BIOWL1-15 | 2026-09-04 06:13:48 | 49.44682 | 8.64815 | 129° | 26km/h | 21965m | 3.9m/s | -53.6°C | 0.9% | 42.9hPa | 2.7V | 18:12:15 | 01:43:00 | 00:00:00 | |
| HSKMA3-T | 2026-09-04 06:13:46 | 49.44689 | 8.64798 | 112° | 24km/h | 21955m | 5.2m/s | -53.7°C | 1% | 43hPa | 2.7V | 18:12:15 | 01:42:58 | 00:00:00 | |
| BIOWL1-15 | 2026-09-04 06:13:41 | 49.44707 | 8.64712 | 111° | 26km/h | 21910m | 5.6m/s | -53.8°C | 1% | 43.3hPa | 2.7V | 18:12:15 | 01:42:49 | 00:00:00 | |
| DM0DOS-11 | 2026-09-04 06:13:40 | 49.44712 | 8.64694 | 113° | 26km/h | 21901m | 3.9m/s | -53.7°C | 4.2% | 43.4hPa | 2.7V | 08:30:00 | 01:42:47 | 00:00:00 | |
| DO3MHA-11 | 2026-09-04 06:13:40 | 49.44702 | 8.64742 | 103° | 26km/h | 21925m | 5.7m/s | -53.7°C | 4.3% | 43.1hPa | 2.5V | 00:00:00 | 01:42:52 | 00:00:00 | |
| DL1XH1-15 | 2026-09-04 06:13:39 | 49.44715 | 8.64685 | 107° | 24km/h | 21896m | 5.7m/s | -53.8°C | 4.2% | 43.4hPa | 2.5V | 08:30:00 | 01:42:46 | 00:00:00 | |
| DL1XH-west | 2026-09-04 06:13:39 | 49.44703 | 8.64732 | 102° | 26km/h | 21920m | 4.9m/s | -53.8°C | 1% | 43.2hPa | 2.5V | 18:12:15 | 01:42:51 | 00:00:00 | |
| HSKMA3-T | 2026-09-04 06:13:36 | 49.44710 | 8.64703 | 115° | 26km/h | 21905m | 4.2m/s | -53.8°C | 0.9% | 43.3hPa | 2.7V | 18:12:15 | 01:42:48 | 00:00:00 | |
| DL3AQ-11 | 2026-09-04 06:13:36 | 49.44712 | 8.64694 | 113° | 26km/h | 21901m | 3.9m/s | -53.8°C | 1.3% | 43.4hPa | 2.7V | 00:00:00 | 00:00:00 | 00:00:00 | |
| DL1ZP-14 | 2026-09-04 06:13:35 | 49.44712 | 8.64694 | 113° | 26km/h | 21901m | 3.9m/s | -53.8°C | 1.3% | 43.4hPa | 2.7V | 00:00:00 | 00:00:00 | 00:00:00 | |
| DJ2DS-15 | 2026-09-04 06:13:33 | 49.44717 | 8.64666 | 97° | 24km/h | 21886m | 4.0m/s | -53.7°C | 1.2% | 43.5hPa | 2.7V | 00:00:00 | 00:00:00 | 00:00:00 | |
| NBG1-10 | 2026-09-04 06:13:32 | 49.44717 | 8.64666 | 98° | 18km/h | 21886m | 4.0m/s | -53.7°C | 4.1% | 43.4hPa | 2.7V | 00:00:00 | 01:42:44 | 00:00:00 | |
| SONDE2-11 | 2026-09-04 06:13:31 | 49.44718 | 8.64657 | 99° | 24km/h | 21882m | 4.7m/s | -53.8°C | 1.2% | 43.5hPa | 2.7V | 00:00:00 | 00:00:00 | 00:00:00 | |
| DM0DOS-11 | 2026-09-04 06:13:30 | 49.44723 | 8.64607 | 92° | 18km/h | 21852m | 4.3m/s | -53.7°C | 4% | 43.7hPa | 2.7V | 08:30:00 | 01:42:37 | 00:00:00 | |
| DO3MHA-11 | 2026-09-04 06:13:30 | 49.44719 | 8.64647 | 103° | 20km/h | 21877m | 5.5m/s | -53.6°C | 4.1% | 43.5hPa | 2.7V | 00:00:00 | 01:42:42 | 08:30:00 | |
| DL1XH1-15 | 2026-09-04 06:13:29 | 49.44723 | 8.64600 | 99° | 18km/h | 21847m | 5.7m/s | -53.8°C | 4% | 43.7hPa | 2.7V | 08:30:00 | 01:42:36 | 00:00:00 | |
| DL1XH-west | 2026-09-04 06:13:29 | 49.44721 | 8.64639 | 105° | 24km/h | 21872m | 4.6m/s | -53.7°C | 0.9% | 43.5hPa | 2.5V | 18:12:15 | 01:42:41 | 00:00:00 | |
| BIOWL1-15 | 2026-09-04 06:13:26 | 49.44723 | 8.64614 | 90° | 18km/h | 21857m | 4.6m/s | -53.7°C | 0.8% | 43.7hPa | 2.7V | 18:12:15 | 01:42:38 | 00:00:00 | |
| HSKMA3-T | 2026-09-04 06:13:25 | 49.44723 | 8.64607 | 92° | 18km/h | 21852m | 4.3m/s | -53.7°C | 0.8% | 43.7hPa | 2.7V | 18:12:15 | 01:42:37 | 00:00:00 | |
| DL3AQ-11 | 2026-09-04 06:13:23 | 49.44726 | 8.64587 | 105° | 18km/h | 21837m | 4.4m/s | -53.9°C | 1.2% | 43.8hPa | 2.7V | 00:00:00 | 00:00:00 | 00:00:00 | |
| DJ2KF-10 | 2026-09-04 06:13:21 | 49.44727 | 8.64580 | 99° | 18km/h | 21833m | 5.4m/s | -53.9°C | 4.0% | 43.8hPa | 2.7V | 00:00:00 | 01:42:33 | 00:00:00 | |
| DM0DOS-11 | 2026-09-04 06:13:20 | 49.44730 | 8.64536 | 104° | 20km/h | 21803m | 4.2m/s | -54.5°C | 4.2% | 44hPa | 2.7V | 08:30:00 | 01:42:27 | 00:00:00 | |
| DO3MHA-11 | 2026-09-04 06:13:20 | 49.44727 | 8.64572 | 91° | 18km/h | 21827m | 5.3m/s | -53.9°C | 4.1% | 43.8hPa | 2.7V | 00:00:00 | 01:42:32 | 00:00:00 | |
| DL1XH1-15 | 2026-09-04 06:13:19 | 49.44732 | 8.64529 | 98° | 18km/h | 21798m | 5.4m/s | -54.6°C | 4.3% | 44hPa | 2.7V | 08:30:00 | 01:42:26 | 00:00:00 | |
| DL1XH-west | 2026-09-04 06:13:18 | 49.44727 | 8.64558 | 96° | 18km/h | 21818m | 4.7m/s | -54.2°C | 0.9% | 44hPa | 2.5V | 18:12:15 | 01:42:30 | 00:00:00 | |
| BIOWL1-15 | 2026-09-04 06:13:15 | 49.44730 | 8.64536 | 105° | 20km/h | 21803m | 4.3m/s | -54.5°C | 0.9% | 44hPa | 2.7V | 18:12:15 | 01:42:27 | 00:00:00 | |
| DM3KS-11 | 2026-09-04 06:13:14 | 49.44731 | 8.64529 | 98° | 18km/h | 21798m | 5.4m/s | -54.6°C | 1.3% | 44.1hPa | 2.7V | 00:00:00 | 00:00:00 | 00:00:00 | |
| DJ2DS-15 | 2026-09-04 06:13:13 | 49.44732 | 8.64522 | 92° | 16km/h | 21793m | 5.1m/s | -54.6°C | 4.3% | 44.1hPa | 2.7V | 00:00:00 | 01:42:25 | 00:00:00 | |
| DB0UT-9 | 2026-09-04 06:13:12 | 49.44732 | 8.64522 | 93° | 18km/h | 21793m | 5.2m/s | -54.6°C | 1.3% | 44.1hPa | 2.5V | 00:00:00 | 00:00:00 | 00:00:00 | |
| HEMX73-11 | 2026-09-04 06:13:11 | 49.44732 | 8.64515 | 91° | 18km/h | 21788m | 4.6m/s | -54.7°C | 1.3% | 44.1hPa | 2.5V | 00:00:00 | 00:00:00 | 00:00:00 | |
| DM0DOS-11 | 2026-09-04 06:13:10 | 49.44742 | 8.64469 | 120° | 15km/h | 21753m | 4.8m/s | -55.4°C | 4.5% | 44.4hPa | 2.5V | 08:30:00 | 01:42:17 | 00:00:00 | |
| DO3MHA-11 | 2026-09-04 06:13:10 | 49.44733 | 8.64501 | 103° | 18km/h | 21778m | 5.5m/s | -54.9°C | 4.4% | 44.2hPa | 2.7V | 00:00:00 | 01:42:22 | 00:00:00 | |
| DL1XH1-15 | 2026-09-04 06:13:09 | 49.44744 | 8.64464 | 126° | 16km/h | 21748m | 5.9m/s | -55.5°C | 4.5% | 44.4hPa | 2.7V | 08:30:00 | 01:42:16 | 00:00:00 | |
| DL1XH-west | 2026-09-04 06:13:08 | 49.44736 | 8.64487 | 116° | 20km/h | 21769m | 4m/s | -55.1°C | 1% | 44.3hPa | 2.7V | 18:12:15 | 01:42:20 | 00:00:00 | |
| BIOWL1-15 | 2026-09-04 06:13:05 | 49.44742 | 8.64469 | 120° | 15km/h | 21753m | 4.9m/s | -55.4°C | 1.1% | 44.4hPa | 2.5V | 18:12:15 | 01:42:17 | 00:00:00 | |
| HSKMA3-T | 2026-09-04 06:13:04 | 49.44744 | 8.64464 | 126° | 16km/h | 21748m | 5.9m/s | -55.6°C | 1.1% | 44.4hPa | 2.7V | 18:12:15 | 01:42:16 | 00:00:00 | |
| DL1ZP-14 | 2026-09-04 06:13:04 | 49.44747 | 8.64459 | 130° | 16km/h | 21742m | 5.4m/s | -55.6°C | 1.4% | 44.4hPa | 2.7V | 00:00:00 | 00:00:00 | 00:00:00 | |
| CB1BUN | 2026-09-04 06:13:02 | 49.44747 | 8.64459 | 131° | 16km/h | 21743m | 5.4m/s | -55.6°C | 1.4% | 44.4hPa | 2.5V | 00:00:00 | 00:00:00 | 00:00:00 | |
| DL8DAS-14 | 2026-09-04 06:13:01 | 49.44753 | 8.64443 | 108° | 15km/h | 21728m | 5.9m/s | -55.6°C | 1.4% | 44.5hPa | 2.5V | 00:00:00 | 00:00:00 | 00:00:00 | |
| DB0UT-7 | 2026-09-04 06:13:00 | 49.44753 | 8.64443 | 109° | 13km/h | 21729m | 5.8m/s | -55.6°C | 4.6% | 44.5hPa | 2.5V | 00:00:00 | 00:00:00 | 08:30:00 | |
| DM0DOS-11 | 2026-09-04 06:12:59 | 49.44757 | 8.64406 | 86° | 18km/h | 21700m | 5.9m/s | -55.6°C | 4.6% | 44.7hPa | 2.6V | 08:30:00 | 01:42:06 | 00:00:00 | |
| DL1XH-west | 2026-09-04 06:12:57 | 49.44756 | 8.64425 | 104° | 16km/h | 21713m | 5.6m/s | -55.6°C | 1.2% | 44.6hPa | 2.7V | 18:12:15 | 01:42:09 | 00:00:00 | |
| BIOWL1-15 | 2026-09-04 06:12:56 | 49.44757 | 8.64406 | 86° | 18km/h | 21700m | 5.9m/s | -55.6°C | 1.2% | 44.8hPa | 2.6V | 18:12:15 | 01:42:06 | 00:00:00 | |
| HSKMA3-T | 2026-09-04 06:12:53 | 49.44757 | 8.64399 | 76° | 18km/h | 21694m | 5.1m/s | -55.6°C | 1.2% | 44.8hPa | 2.7V | 18:12:15 | 01:42:05 | 00:00:00 | |
| DJ2DS-15 | 2026-09-04 06:12:53 | 49.44757 | 8.64399 | 76° | 13km/h | 21694m | 5.0m/s | -55.6°C | 4.7% | 44.7hPa | 2.7V | 00:00:00 | 01:42:05 | 00:00:00 | |
| DJ2KF-10 | 2026-09-04 06:12:51 | 49.44754 | 8.64386 | 74° | 11km/h | 21685m | 4.3m/s | -55.5°C | 4.7% | 44.8hPa | 2.7V | 00:00:00 | 01:42:03 | 00:00:00 | |
| DO3MHA-11 | 2026-09-04 06:12:50 | 49.44753 | 8.64380 | 86° | 15km/h | 21681m | 4.8m/s | -55.5°C | 4.7% | 44.8hPa | 2.5V | 00:00:00 | 01:42:02 | 00:00:00 | |
| DL1XH1-15 | 2026-09-04 06:12:49 | 49.44761 | 8.64346 | 82° | 13km/h | 21650m | 4.9m/s | -55.4°C | 4.6% | 45.1hPa | 2.5V | 08:30:00 | 01:41:56 | 00:00:00 | |
| DL1XH-west | 2026-09-04 06:12:46 | 49.44759 | 8.64358 | 116° | 16km/h | 21661m | 4.2m/s | -55.5°C | 1.2% | 45hPa | 2.7V | 18:12:15 | 01:41:58 | 00:00:00 | |
| DD1CC8 | 2026-09-04 06:12:45 | 49.44761 | 8.64352 | 103° | 15km/h | 21656m | 5.8m/s | -55.5°C | 1.4% | 45.0hPa | 2.5V | 00:00:00 | 00:00:00 | 00:00:00 | |
| BIOWL1-15 | 2026-09-04 06:12:44 | 49.44761 | 8.64346 | 83° | 13km/h | 21650m | 4.9m/s | -55.4°C | 1.2% | 45.1hPa | 2.5V | 18:12:15 | 01:41:56 | 00:00:00 | |
| HSKMA3-T | 2026-09-04 06:12:42 | 49.44758 | 8.64338 | 45° | 9km/h | 21641m | 4.6m/s | -55.6°C | 1.2% | 45.2hPa | 2.7V | 18:12:15 | 01:41:54 | 00:00:00 | |
| DO3MHA-11 | 2026-09-04 06:12:40 | 49.44756 | 8.64335 | 11° | 7km/h | 21632m | 4.8m/s | -55.5°C | 4.5% | 45.2hPa | 2.5V | 00:00:00 | 01:41:52 | 00:00:00 | |
| DM0DOS-11 | 2026-09-04 06:12:39 | 49.44753 | 8.64324 | 106° | 11km/h | 21603m | 5.2m/s | -55.3°C | 4.6% | 45.4hPa | 2.5V | 08:30:00 | 01:41:46 | 00:00:00 | |
| DL1XH-west | 2026-09-04 06:12:36 | 49.44753 | 8.64331 | 76° | 9km/h | 21612m | 4.8m/s | -55.3°C | 1.1% | 45.4hPa | 2.7V | 18:12:15 | 01:41:48 | 00:00:00 | |
| BIOWL1-15 | 2026-09-04 06:12:35 | 49.44754 | 8.64320 | 119° | 9km/h | 21597m | 5.7m/s | -55.3°C | 1.2% | 45.5hPa | 2.5V | 18:12:15 | 01:41:45 | 00:00:00 | |
| HSKMA3-T | 2026-09-04 06:12:31 | 49.44757 | 8.64314 | 124° | 11km/h | 21587m | 4.5m/s | -55.2°C | 1.1% | 45.5hPa | 2.7V | 18:12:15 | 01:41:43 | 00:00:00 | |
| DL8DAS-14 | 2026-09-04 06:12:30 | 49.44759 | 8.64307 | 101° | 9km/h | 21577m | 4.8m/s | -55.3°C | 1.4% | 45.6hPa | 2.7V | 00:00:00 | 00:00:00 | 00:00:00 | |
| DL1XH1-15 | 2026-09-04 06:12:29 | 49.44762 | 8.64295 | 146° | 5km/h | 21553m | 3.9m/s | -55.3°C | 4.3% | 45.8hPa | 2.7V | 08:30:00 | 01:41:36 | 00:00:00 | |
| DL1XH-west | 2026-09-04 06:12:26 | 49.44761 | 8.64298 | 129° | 5km/h | 21562m | 5.6m/s | -55.4°C | 1.1% | 45.7hPa | 2.6V | 18:12:15 | 01:41:38 | 00:00:00 | |
| BIOWL1-15 | 2026-09-04 06:12:22 | 49.44764 | 8.64291 | 108° | 9km/h | 21543m | 5.2m/s | -55.3°C | 1.1% | 45.9hPa | 2.5V | 18:12:15 | 01:41:34 | 00:00:00 | |
| HSKMA3-T | 2026-09-04 06:12:20 | 49.44766 | 8.64283 | 107° | 13km/h | 21534m | 3.9m/s | -55.3°C | 1.1% | 45.9hPa | 2.7V | 18:12:15 | 01:41:32 | 00:00:00 | |
| DL1XH-west | 2026-09-04 06:12:16 | 49.44773 | 8.64270 | 138° | 13km/h | 21515m | 4.5m/s | -55.4°C | 1.2% | 46.1hPa | 2.5V | 18:12:15 | 01:41:28 | 00:00:00 | |
| BIOWL1-15 | 2026-09-04 06:12:15 | 49.44787 | 8.64247 | 145° | 18km/h | 21488m | 5.5m/s | -55.4°C | 1.1% | 46.3hPa | 2.5V | 18:12:15 | 01:41:23 | 00:00:00 | |
| HSKMA3-T | 2026-09-04 06:12:10 | 49.44791 | 8.64243 | 147° | 18km/h | 21483m | 4.3m/s | -55.4°C | 1.1% | 46.3hPa | 2.6V | 18:12:15 | 01:41:22 | 00:00:00 | |
| DL1XH-west | 2026-09-04 06:12:06 | 49.44803 | 8.64222 | 115° | 20km/h | 21463m | 4.5m/s | -55.5°C | 1.2% | 46.5hPa | 2.5V | 18:12:15 | 01:41:18 | 00:00:00 | |
| BIOWL1-15 | 2026-09-04 06:12:02 | 49.44818 | 8.64180 | 113° | 26km/h | 21431m | 5.5m/s | -55.5°C | 1.1% | 46.7hPa | 2.5V | 18:12:15 | 01:41:12 | 00:00:00 | |
| DL1ZP-14 | 2026-09-04 06:12:02 | 49.44815 | 8.64189 | 116° | 22km/h | 21437m | 6.1m/s | -55.5°C | 1.4% | 46.6hPa | 2.5V | 00:00:00 | 00:00:00 | 00:00:00 | |
| CB1BUN | 2026-09-04 06:12:01 | 49.44813 | 8.64196 | 122° | 20km/h | 21443m | 4.7m/s | -55.5°C | 1.4% | 46.6hPa | 2.5V | 00:00:00 | 00:00:00 | 00:00:00 | |
| DB0UT-7 | 2026-09-04 06:12:00 | 49.44818 | 8.64180 | 113° | 22km/h | 21431m | 5.4m/s | -55.4°C | 4.5% | 46.7hPa | 2.5V | 00:00:00 | 00:00:00 | 00:00:00 | |
| DL1XH1-15 | 2026-09-04 06:11:59 | 49.44836 | 8.64128 | 116° | 26km/h | 21400m | 6m/s | -55.5°C | 4.6% | 46.9hPa | 2.5V | 08:30:00 | 01:41:06 | 00:00:00 | |
| HSKMA3-T | 2026-09-04 06:11:59 | 49.44820 | 8.64171 | 114° | 27km/h | 21426m | 5m/s | -55.5°C | 1.1% | 46.7hPa | 2.5V | 18:12:15 | 01:41:11 | 00:00:00 | |
| DL8DAS-14 | 2026-09-04 06:11:59 | 49.44823 | 8.64162 | 116° | 26km/h | 21421m | 5.2m/s | -55.5°C | 1.3% | 46.8hPa | 2.7V | 00:00:00 | 00:00:00 | 00:00:00 | |
| DG9SBQ-11 | 2026-09-04 06:11:58 | 49.44820 | 8.64171 | 115° | 27km/h | 21426m | 5.0m/s | -55.5°C | 1.3% | 46.7hPa | 2.7V | 00:00:00 | 00:00:00 | 00:00:00 | |
| DM0DOS-11 | 2026-09-04 06:11:57 | 49.44841 | 8.64109 | 105° | 27km/h | 21389m | 4.2m/s | -55.3°C | 4.6% | 47hPa | 2.7V | 08:30:00 | 01:41:04 | 00:00:00 | |
| DL1XH-west | 2026-09-04 06:11:56 | 49.44830 | 8.64145 | 123° | 24km/h | 21409m | 5m/s | -55.6°C | 1.1% | 46.8hPa | 2.7V | 18:12:15 | 01:41:08 | 00:00:00 | |
| BIOWL9-15 | 2026-09-04 06:11:55 | 49.44836 | 8.64128 | 116° | 26km/h | 21400m | 6.0m/s | -55.5°C | 1.4% | 46.9hPa | 2.5V | 00:00:00 | 00:00:00 | 00:00:00 | |
| DF3TZ-5 | 2026-09-04 06:11:53 | 49.44841 | 8.64109 | 105° | 26km/h | 21389m | 4.2m/s | -55.3°C | 1.4% | 47.0hPa | 2.5V | 00:00:00 | 00:00:00 | 00:00:00 | |
| DL6DJ-15 | 2026-09-04 06:11:52 | 49.44842 | 8.64099 | 102° | 24km/h | 21384m | 5.5m/s | -55.3°C | 1.4% | 47.0hPa | 2.5V | 00:00:00 | 00:00:00 | 00:00:00 | |
| DL3AQ-11 | 2026-09-04 06:11:51 | 49.44842 | 8.64099 | 102° | 24km/h | 21384m | 5.5m/s | -55.3°C | 1.4% | 47.0hPa | 2.5V | 00:00:00 | 00:00:00 | 00:00:00 | |
| DJ2KF-10 | 2026-09-04 06:11:50 | 49.44843 | 8.64090 | 100° | 20km/h | 21379m | 5.9m/s | -55.3°C | 4.7% | 47.0hPa | 2.5V | 00:00:00 | 01:41:02 | 00:00:00 | |
| DL1XH1-15 | 2026-09-04 06:11:49 | 49.44844 | 8.64042 | 96° | 16km/h | 21348m | 6m/s | -55.3°C | 4.7% | 47.3hPa | 2.5V | 08:30:00 | 01:40:56 | 00:00:00 | |
| HSKMA3-T | 2026-09-04 06:11:49 | 49.44844 | 8.64082 | 94° | 20km/h | 21373m | 4.8m/s | -55.3°C | 1.3% | 47.1hPa | 2.5V | 18:12:15 | 01:41:01 | 00:00:00 | |
| DG9SBQ-11 | 2026-09-04 06:11:48 | 49.44844 | 8.64082 | 95° | 20km/h | 21373m | 4.8m/s | -55.3°C | 1.4% | 47.1hPa | 2.5V | 00:00:00 | 00:00:00 | 00:00:00 | |
| DM0DOS-11 | 2026-09-04 06:11:47 | 49.44846 | 8.64029 | 113° | 20km/h | 21337m | 4.8m/s | -55.2°C | 4.5% | 47.4hPa | 2.5V | 08:30:00 | 01:40:54 | 00:00:00 | |
| DL1XH-west | 2026-09-04 06:11:45 | 49.44843 | 8.64049 | 90° | 18km/h | 21353m | 4.8m/s | -55.3°C | 1.3% | 47.3hPa | 2.7V | 18:12:15 | 01:40:57 | 00:00:00 | |
| DO8TBO-1 | 2026-09-04 06:11:44 | 49.44843 | 8.64042 | 97° | 20km/h | 21348m | 5.9m/s | -55.3°C | 4.7% | 0hPa | 2.7V | 00:00:00 | 01:40:56 | 00:00:00 | |
| DD1CC8 | 2026-09-04 06:11:43 | 49.44845 | 8.64036 | 107° | 16km/h | 21342m | 4.8m/s | -55.3°C | 1.4% | 47.4hPa | 2.7V | 00:00:00 | 00:00:00 | 00:00:00 | |
| BEGRI65-1 | 2026-09-04 06:11:42 | 49.44844 | 8.64036 | 108° | 16km/h | 21342m | 4.8m/s | -55.3°C | 1.4% | 47.3hPa | 2.7V | 00:00:00 | 00:00:00 | 00:00:00 | |
| DM3KS-11 | 2026-09-04 06:11:41 | 49.44848 | 8.64022 | 116° | 22km/h | 21332m | 5.8m/s | -55.1°C | 1.3% | 47.4hPa | 2.7V | 00:00:00 | 00:00:00 | 00:00:00 | |
| DO3MHA-11 | 2026-09-04 06:11:40 | 49.44851 | 8.64013 | 117° | 20km/h | 21327m | 4.8m/s | -55.0°C | 4.3% | 47.4hPa | 2.7V | 00:00:00 | 01:40:52 | 00:00:00 | |
| DL1XH1-15 | 2026-09-04 06:11:39 | 49.44855 | 8.63970 | 59° | 20km/h | 21298m | 5.8m/s | -55.1°C | 4.5% | 47.7hPa | 2.7V | 08:30:00 | 01:40:46 | 00:00:00 | |
| HSKMA3-T | 2026-09-04 06:11:38 | 49.44856 | 8.63996 | 113° | 22km/h | 21317m | 5.4m/s | -55.2°C | 1.2% | 47.5hPa | 2.5V | 18:12:15 | 01:40:50 | 00:00:00 | |
| DL1XH-west | 2026-09-04 06:11:35 | 49.44858 | 8.63976 | 69° | 16km/h | 21303m | 4.3m/s | -55.2°C | 1.1% | 47.6hPa | 2.7V | 18:12:15 | 01:40:47 | 00:00:00 | |
| BIOWL1-15 | 2026-09-04 06:11:30 | 49.44840 | 8.63932 | 85° | 15km/h | 21268m | 4.9m/s | -55°C | 1.2% | 47.9hPa | 2.5V | 18:12:15 | 01:40:40 | 00:00:00 | |
| DO3MHA-11 | 2026-09-04 06:11:30 | 49.44843 | 8.63943 | 54° | 20km/h | 21279m | 5.5m/s | -54.9°C | 4.6% | 47.8hPa | 2.7V | 00:00:00 | 01:40:42 | 00:00:00 | |
| DL1XH1-15 | 2026-09-04 06:11:29 | 49.44843 | 8.63900 | 103° | 24km/h | 21249m | 3.6m/s | -54.9°C | 4.5% | 48hPa | 2.7V | 08:30:00 | 01:40:36 | 00:00:00 | |
| DL1XH-west | 2026-09-04 06:11:24 | 49.44843 | 8.63900 | 103° | 24km/h | 21249m | 3.6m/s | -54.9°C | 1.1% | 48hPa | 2.7V | 18:12:15 | 01:40:36 | 00:00:00 | |
| BIOWL9-15 | 2026-09-04 06:11:24 | 49.44845 | 8.63891 | 100° | 20km/h | 21245m | 5.1m/s | -54.8°C | 1.4% | 48.1hPa | 2.7V | 00:00:00 | 00:00:00 | 00:00:00 | |
| DL3AQ-11 | 2026-09-04 06:11:23 | 49.44845 | 8.63883 | 92° | 18km/h | 21239m | 5.0m/s | -54.7°C | 1.4% | 48.1hPa | 2.7V | 00:00:00 | 00:00:00 | 00:00:00 | |
| DB0ND-19 | 2026-09-04 06:11:22 | 49.44845 | 8.63883 | 92° | 18km/h | 21239m | 5.0m/s | -54.7°C | 1.4% | 48.1hPa | 2.7V | 00:00:00 | 00:00:00 | 00:00:00 | |
| DL6DJ-15 | 2026-09-04 06:11:21 | 49.44845 | 8.63876 | 81° | 16km/h | 21235m | 4.0m/s | -54.7°C | -1.0% | 48.1hPa | 2.7V | 00:00:00 | 00:00:00 | 00:00:00 | |
| DO3MHA-11 | 2026-09-04 06:11:20 | 49.44844 | 8.63869 | 74° | 22km/h | 21231m | 4.5m/s | -54.6°C | 4.4% | 48.1hPa | 2.7V | 00:00:00 | 01:40:32 | 00:00:00 | |
| DL1XH1-15 | 2026-09-04 06:11:19 | 49.44833 | 8.63825 | 78° | 18km/h | 21201m | 4.3m/s | -54.7°C | 4.5% | 48.4hPa | 2.7V | 08:30:00 | 01:40:26 | 00:00:00 | |
| BIOWL1-15 | 2026-09-04 06:11:19 | 49.44838 | 8.63846 | 66° | 22km/h | 21216m | 4.3m/s | -54.7°C | 1.1% | 48.3hPa | 2.5V | 18:12:15 | 01:40:29 | 00:00:00 | |
| HSKMA3-T | 2026-09-04 06:11:14 | 49.44833 | 8.63825 | 79° | 18km/h | 21201m | 4.3m/s | -54.7°C | 1.2% | 48.4hPa | 2.7V | 18:12:15 | 01:40:26 | 00:00:00 | |
| DL1XH-west | 2026-09-04 06:11:13 | 49.44832 | 8.63817 | 85° | 22km/h | 21196m | 5.7m/s | -54.8°C | 1.2% | 48.4hPa | 2.7V | 18:12:15 | 01:40:25 | 00:00:00 | |
| DJ2DS-15 | 2026-09-04 06:11:13 | 49.44832 | 8.63817 | 86° | 20km/h | 21196m | 5.7m/s | -54.7°C | 4.6% | 48.4hPa | 2.7V | 00:00:00 | 01:40:25 | 00:00:00 | |
| DL3AQ-11 | 2026-09-04 06:11:12 | 49.44832 | 8.63798 | 90° | 24km/h | 21186m | 3.9m/s | -54.8°C | 1.4% | 48.5hPa | 2.6V | 00:00:00 | 00:00:00 | 00:00:00 | |
| DO3MHA-11 | 2026-09-04 06:11:10 | 49.44832 | 8.63789 | 89° | 22km/h | 21182m | 5.1m/s | -54.8°C | 4.6% | 48.5hPa | 2.6V | 00:00:00 | 01:40:22 | 00:00:00 | |
| DL1XH1-15 | 2026-09-04 06:11:09 | 49.44818 | 8.63742 | 47° | 24km/h | 21151m | 5m/s | -54.8°C | 4.3% | 48.8hPa | 2.6V | 08:30:00 | 01:40:16 | 00:00:00 | |
| DB0UT-9 | 2026-09-04 06:11:08 | 49.44832 | 8.63780 | 83° | 22km/h | 21177m | 5.4m/s | -54.8°C | 1.4% | 48.6hPa | 2.7V | 00:00:00 | 00:00:00 | 00:00:00 | |
| DM0DOS-11 | 2026-09-04 06:11:07 | 49.44811 | 8.63730 | 50° | 18km/h | 21141m | 4.2m/s | -54.7°C | 4.4% | 48.9hPa | 2.7V | 08:30:00 | 01:40:14 | 00:00:00 | |
| BIOWL1-15 | 2026-09-04 06:11:07 | 49.44828 | 8.63765 | 64° | 22km/h | 21167m | 4.8m/s | -54.8°C | 1.1% | 48.7hPa | 2.7V | 18:12:15 | 01:40:19 | 00:00:00 | |
| HSKMA3-T | 2026-09-04 06:11:04 | 49.44818 | 8.63742 | 47° | 24km/h | 21151m | 5m/s | -54.8°C | 1% | 48.8hPa | 2.6V | 18:12:15 | 01:40:16 | 00:00:00 | |
| DL1XH-west | 2026-09-04 06:11:02 | 49.44811 | 8.63730 | 51° | 18km/h | 21141m | 4.2m/s | -54.7°C | 1.1% | 48.9hPa | 2.7V | 18:12:15 | 01:40:14 | 00:00:00 | |
| DK7TD | 2026-09-04 06:11:01 | 49.44808 | 8.63724 | 62° | 18km/h | 21137m | 4.5m/s | 0°C | 0% | 0hPa | 2.7V | 18:12:15 | 01:40:13 | 00:00:00 | |
| DB0UT-7 | 2026-09-04 06:11:00 | 49.44806 | 8.63717 | 75° | 20km/h | 21132m | 5.2m/s | -54.6°C | 4.5% | 48.9hPa | 2.5V | 00:00:00 | 00:00:00 | 00:00:00 | |
| DL1XH1-15 | 2026-09-04 06:10:59 | 49.44808 | 8.63677 | 86° | 18km/h | 21103m | 5.4m/s | -54.6°C | 4.2% | 49.1hPa | 2.5V | 08:30:00 | 01:40:06 | 00:00:00 | |
| BIOWL1-15 | 2026-09-04 06:10:59 | 49.44807 | 8.63696 | 103° | 18km/h | 21117m | 5.6m/s | -54.6°C | 1.1% | 49hPa | 2.7V | 18:12:15 | 01:40:09 | 00:00:00 | |
| DM0DOS-11 | 2026-09-04 06:10:57 | 49.44806 | 8.63662 | 62° | 22km/h | 21092m | 4.2m/s | -54.9°C | 4.3% | 49.2hPa | 2.7V | 08:30:00 | 01:40:04 | 00:00:00 | |
| HSKMA3-T | 2026-09-04 06:10:54 | 49.44808 | 8.63677 | 86° | 18km/h | 21103m | 5.4m/s | -54.6°C | 1% | 49.1hPa | 2.5V | 18:12:15 | 01:40:06 | 00:00:00 | |
| DL1XH-west | 2026-09-04 06:10:52 | 49.44805 | 8.63662 | 63° | 22km/h | 21092m | 4.2m/s | -54.9°C | 1% | 49.2hPa | 2.7V | 18:12:15 | 01:40:04 | 00:00:00 | |
| DF3TZ-5 | 2026-09-04 06:10:51 | 49.44799 | 8.63649 | 46° | 18km/h | 21083m | 5.6m/s | -55.1°C | 1.4% | 49.3hPa | 2.5V | 00:00:00 | 00:00:00 | 00:00:00 | |
| DO3MHA-11 | 2026-09-04 06:10:50 | 49.44799 | 8.63649 | 47° | 18km/h | 21083m | 5.5m/s | -55.0°C | 4.5% | 49.2hPa | 2.5V | 00:00:00 | 01:40:02 | 00:00:00 | |
| DL1XH1-15 | 2026-09-04 06:10:49 | 49.44791 | 8.63614 | 108° | 22km/h | 21056m | 4.3m/s | -55.1°C | 4.5% | 49.5hPa | 2.5V | 08:30:00 | 01:39:56 | 00:00:00 | |
| BIOWL1-15 | 2026-09-04 06:10:46 | 49.44790 | 8.63629 | 82° | 16km/h | 21065m | 5.2m/s | -55.1°C | 1.2% | 49.5hPa | 2.7V | 18:12:15 | 01:39:58 | 00:00:00 | |
| HSKMA3-T | 2026-09-04 06:10:43 | 49.44793 | 8.63606 | 116° | 22km/h | 21051m | 5.5m/s | -55°C | 1.1% | 49.5hPa | 2.6V | 18:12:15 | 01:39:55 | 00:00:00 | |
| DL1XH-west | 2026-09-04 06:10:41 | 49.44798 | 8.63591 | 121° | 22km/h | 21041m | 3.7m/s | -55.1°C | 1.1% | 49.6hPa | 2.7V | 18:12:15 | 01:39:53 | 00:00:00 | |
| DO3MHA-11 | 2026-09-04 06:10:40 | 49.44801 | 8.63584 | 116° | 20km/h | 21037m | 4.0m/s | -55.0°C | 4.5% | 49.6hPa | 2.7V | 00:00:00 | 01:39:52 | 00:00:00 | |
| DM3KS-11 | 2026-09-04 06:10:39 | 49.44803 | 8.63576 | 107° | 22km/h | 21032m | 5.2m/s | -55.0°C | 1.4% | 49.7hPa | 2.7V | 00:00:00 | 00:00:00 | 00:00:00 | |
| CB1BUN | 2026-09-04 06:10:38 | 49.44803 | 8.63576 | 109° | 22km/h | 21033m | 5.2m/s | -55.0°C | 1.4% | 49.7hPa | 2.7V | 00:00:00 | 00:00:00 | 00:00:00 | |
| DM0DOS-11 | 2026-09-04 06:10:37 | 49.44802 | 8.63525 | 80° | 22km/h | 21000m | 5.5m/s | -55.3°C | 4.5% | 49.9hPa | 2.7V | 08:30:00 | 01:39:44 | 00:00:00 | |
| BIOWL1-15 | 2026-09-04 06:10:35 | 49.44805 | 8.63545 | 85° | 16km/h | 21014m | 5.1m/s | -55°C | 1% | 49.9hPa | 2.6V | 18:12:15 | 01:39:47 | 00:00:00 | |
| DL1XH-west | 2026-09-04 06:10:30 | 49.44801 | 8.63506 | 85° | 29km/h | 20990m | 4.4m/s | -55.4°C | 1.2% | 50hPa | 2.5V | 18:12:15 | 01:39:42 | 00:00:00 | |
| DK7TD | 2026-09-04 06:10:27 | 49.44800 | 8.63473 | 90° | 27km/h | 20976m | 3.6m/s | 0°C | 0% | 0hPa | 2.7V | 18:12:15 | 01:39:39 | 00:00:00 | |
| BIOWL1-15 | 2026-09-04 06:10:27 | 49.44800 | 8.63450 | 88° | 29km/h | 20967m | 5.4m/s | -55.4°C | 1.2% | 50.2hPa | 2.5V | 18:12:15 | 01:39:37 | 00:00:00 | |
| HSKMA3-T | 2026-09-04 06:10:26 | 49.44800 | 8.63462 | 90° | 29km/h | 20972m | 4.4m/s | -55.4°C | 1.2% | 50.2hPa | 2.5V | 18:12:15 | 01:39:38 | 00:00:00 | |
| DL8DAS-14 | 2026-09-04 06:10:26 | 49.44800 | 8.63450 | 87° | 29km/h | 20967m | 5.4m/s | -55.4°C | 1.4% | 50.2hPa | 2.5V | 00:00:00 | 00:00:00 | 00:00:00 | |
| DF1GD-15 | 2026-09-04 06:10:24 | 49.44800 | 8.63450 | 89° | 29km/h | 20967m | 5.4m/s | -55.4°C | 1.4% | 50.2hPa | 2.5V | 00:00:00 | 00:00:00 | 00:00:00 | |
| DG9SBQ-11 | 2026-09-04 06:10:23 | 49.44800 | 8.63439 | 86° | 29km/h | 20962m | 4.0m/s | -55.3°C | 1.4% | 50.3hPa | 2.5V | 00:00:00 | 00:00:00 | 00:00:00 | |
| DM7RM-13 | 2026-09-04 06:10:22 | 49.44799 | 8.63429 | 85° | 26km/h | 20958m | 3.8m/s | -55.3°C | 1.4% | 50.3hPa | 2.5V | 00:00:00 | 00:00:00 | 00:00:00 | |
| DH7VM-15 | 2026-09-04 06:10:21 | 49.44798 | 8.63419 | 81° | 22km/h | 20953m | 5.7m/s | -55.4°C | 1.4% | 50.3hPa | 2.5V | 00:00:00 | 00:00:00 | 00:00:00 | |
| DO3MHA-11 | 2026-09-04 06:10:20 | 49.44796 | 8.63404 | 75° | 26km/h | 20945m | 3.1m/s | -55.2°C | 4.4% | 50.3hPa | 2.5V | 00:00:00 | 01:39:32 | 00:00:00 | |
| DL1XH1-15 | 2026-09-04 06:10:19 | 49.44788 | 8.63345 | 87° | 26km/h | 20918m | 4.1m/s | -55.4°C | 4.5% | 50.6hPa | 2.5V | 08:30:00 | 01:39:26 | 00:00:00 | |
| DL1XH-west | 2026-09-04 06:10:19 | 49.44794 | 8.63396 | 74° | 24km/h | 20940m | 5.1m/s | -55.3°C | 1.1% | 50.4hPa | 2.5V | 18:12:15 | 01:39:31 | 00:00:00 | |
| BIOWL1-15 | 2026-09-04 06:10:18 | 49.44788 | 8.63345 | 88° | 26km/h | 20918m | 4.1m/s | -55.4°C | 1.2% | 50.6hPa | 2.5V | 18:12:15 | 01:39:26 | 00:00:00 | |
| DM0DOS-11 | 2026-09-04 06:10:17 | 49.44788 | 8.63325 | 89° | 26km/h | 20908m | 5.6m/s | -55.4°C | 4.5% | 50.7hPa | 2.7V | 08:30:00 | 01:39:24 | 00:00:00 | |
| HSKMA3-T | 2026-09-04 06:10:11 | 49.44788 | 8.63315 | 89° | 26km/h | 20903m | 4.2m/s | -55.4°C | 1.1% | 50.7hPa | 2.7V | 18:12:15 | 01:39:23 | 00:00:00 | |
| DO3MHA-11 | 2026-09-04 06:10:10 | 49.44788 | 8.63306 | 87° | 20km/h | 20900m | 3.7m/s | -55.3°C | 4.5% | 50.7hPa | 2.5V | 00:00:00 | 01:39:22 | 00:00:00 | |
| DL1XH1-15 | 2026-09-04 06:10:09 | 49.44778 | 8.63269 | 66° | 24km/h | 20873m | 4m/s | -55.7°C | 4.6% | 50.9hPa | 2.5V | 08:30:00 | 01:39:16 | 00:00:00 | |
| DL1XH-west | 2026-09-04 06:10:09 | 49.44787 | 8.63298 | 84° | 18km/h | 20895m | 5.2m/s | -55.5°C | 1.1% | 50.8hPa | 2.5V | 18:12:15 | 01:39:21 | 00:00:00 | |
| DK7TD | 2026-09-04 06:10:07 | 49.44785 | 8.63287 | 59° | 15km/h | 20886m | 3.5m/s | 0°C | 0% | 0hPa | 2.6V | 18:12:15 | 01:39:19 | 00:00:00 | |
| BIOWL1-15 | 2026-09-04 06:10:05 | 49.44776 | 8.63260 | 76° | 27km/h | 20870m | 3.9m/s | -55.7°C | 1.2% | 51hPa | 2.6V | 18:12:15 | 01:39:15 | 00:00:00 | |
| DF7PN | 2026-09-04 06:10:04 | 49.44778 | 8.63269 | 66° | 24km/h | 20874m | 4.0m/s | -55.7°C | 1.4% | 51.0hPa | 2.7V | 00:00:00 | 00:00:00 | 00:00:00 | |
| DM7RM-13 | 2026-09-04 06:10:02 | 49.44776 | 8.63260 | 77° | 27km/h | 20870m | 3.9m/s | -55.7°C | 1.5% | 51.0hPa | 2.7V | 00:00:00 | 00:00:00 | 00:00:00 | |
| DO1YAY-16 | 2026-09-04 06:10:01 | 49.44774 | 8.63239 | 92° | 26km/h | 20860m | 5.2m/s | -55.8°C | 1.4% | 51.1hPa | 2.7V | 00:00:00 | 00:00:00 | 00:00:00 | |
| DO3MHA-11 | 2026-09-04 06:10:00 | 49.44775 | 8.63230 | 102° | 16km/h | 20856m | 4.6m/s | -55.7°C | 4.6% | 51.1hPa | 2.7V | 00:00:00 | 01:39:12 | 00:00:00 | |
| DL1XH1-15 | 2026-09-04 06:09:59 | 49.44776 | 8.63189 | 79° | 15km/h | 20828m | 4.5m/s | -55.6°C | 4.5% | 51.3hPa | 2.7V | 08:30:00 | 01:39:06 | 00:00:00 | |
| DL1XH-west | 2026-09-04 06:09:58 | 49.44777 | 8.63214 | 103° | 18km/h | 20847m | 4.2m/s | -55.7°C | 1.2% | 51.2hPa | 2.5V | 18:12:15 | 01:39:10 | 00:00:00 | |
| DM0DOS-11 | 2026-09-04 06:09:57 | 49.44776 | 8.63178 | 100° | 13km/h | 20818m | 4.5m/s | -55.7°C | 4.6% | 51.4hPa | 2.5V | 08:30:00 | 01:39:04 | 00:00:00 | |
| HSKMA3-T | 2026-09-04 06:09:56 | 49.44778 | 8.63201 | 81° | 16km/h | 20837m | 4.8m/s | -55.7°C | 1.2% | 51.2hPa | 2.6V | 18:12:15 | 01:39:08 | 00:00:00 | |
| BIOWL1-15 | 2026-09-04 06:09:54 | 49.44776 | 8.63178 | 100° | 15km/h | 20818m | 4.5m/s | -55.7°C | 1.2% | 51.4hPa | 2.5V | 18:12:15 | 01:39:04 | 00:00:00 | |
| DK7TD | 2026-09-04 06:09:51 | 49.44777 | 8.63173 | 105° | 13km/h | 20813m | 4.2m/s | 0°C | 0% | 0hPa | 2.6V | 18:12:15 | 01:39:03 | 00:00:00 | |
| BIOWL9-15 | 2026-09-04 06:09:51 | 49.44778 | 8.63168 | 101° | 13km/h | 20809m | 5.1m/s | -55.9°C | 1.4% | 51.5hPa | 2.7V | 00:00:00 | 00:00:00 | 00:00:00 | |
| DO3MHA-11 | 2026-09-04 06:09:50 | 49.44777 | 8.63168 | 102° | 15km/h | 20809m | 5.0m/s | -55.9°C | 4.7% | 51.4hPa | 2.7V | 00:00:00 | 01:39:02 | 00:00:00 | |
| DL1XH1-15 | 2026-09-04 06:09:49 | 49.44784 | 8.63140 | 112° | 15km/h | 20781m | 3.7m/s | -55.9°C | 4.7% | 51.7hPa | 2.7V | 08:30:00 | 01:38:56 | 00:00:00 | |
| DL6DJ-15 | 2026-09-04 06:09:48 | 49.44779 | 8.63158 | 99° | 13km/h | 20798m | 4.3m/s | 0°C | -1.0% | 51.5hPa | 2.5V | 00:00:00 | 00:00:00 | 00:00:00 | |
| DM0DOS-11 | 2026-09-04 06:09:47 | 49.44786 | 8.63127 | 95° | 20km/h | 20771m | 4.5m/s | -55.9°C | 4.7% | 51.8hPa | 2.5V | 08:30:00 | 01:38:54 | 00:00:00 | |
| DL1XH-west | 2026-09-04 06:09:47 | 49.44779 | 8.63154 | 109° | 13km/h | 20794m | 4.5m/s | -55.9°C | 1.2% | 51.6hPa | 2.5V | 18:12:15 | 01:38:59 | 00:00:00 | |
| BIOWL1-15 | 2026-09-04 06:09:42 | 49.44786 | 8.63127 | 95° | 20km/h | 20771m | 4.5m/s | -55.9°C | 1.2% | 51.8hPa | 2.5V | 18:12:15 | 01:38:54 | 00:00:00 | |
| DG9SBQ-11 | 2026-09-04 06:09:42 | 49.44786 | 8.63127 | 96° | 20km/h | 20771m | 4.5m/s | -55.9°C | 1.4% | 51.8hPa | 2.5V | 00:00:00 | 00:00:00 | 00:00:00 | |
| DM7RM-13 | 2026-09-04 06:09:41 | 49.44786 | 8.63127 | 96° | 20km/h | 20771m | 4.5m/s | -55.9°C | 1.5% | 51.8hPa | 2.5V | 00:00:00 | 00:00:00 | 00:00:00 | |
| DO3MHA-11 | 2026-09-04 06:09:40 | 49.44787 | 8.63109 | 96° | 22km/h | 20762m | 5.6m/s | -55.9°C | 4.7% | 51.8hPa | 2.5V | 00:00:00 | 01:38:52 | 00:00:00 | |
| DL1XH1-15 | 2026-09-04 06:09:39 | 49.44786 | 8.63054 | 96° | 22km/h | 20735m | 5.8m/s | -55.9°C | 4.7% | 52.1hPa | 2.5V | 08:30:00 | 01:38:46 | 00:00:00 | |
| DJTTGO | 2026-09-04 06:09:38 | 49.44787 | 8.63100 | 96° | 24km/h | 20757m | 4.1m/s | -55.9°C | 1.4% | 51.9hPa | 2.7V | 00:00:00 | 00:00:00 | 00:00:00 | |
| DM0DOS-11 | 2026-09-04 06:09:37 | 49.44789 | 8.63039 | 107° | 18km/h | 20725m | 4.4m/s | -55.8°C | 4.7% | 52.2hPa | 2.7V | 08:30:00 | 01:38:44 | 00:00:00 | |
| DL1XH-west | 2026-09-04 06:09:36 | 49.44787 | 8.63072 | 84° | 24km/h | 20743m | 3.7m/s | -55.9°C | 1.3% | 52hPa | 2.5V | 18:12:15 | 01:38:48 | 00:00:00 | |
| HSKMA3-T | 2026-09-04 06:09:32 | 49.44789 | 8.63039 | 108° | 20km/h | 20725m | 4.4m/s | -55.8°C | 1.2% | 52.2hPa | 2.7V | 18:12:15 | 01:38:44 | 00:00:00 | |
| BIOWL1-15 | 2026-09-04 06:09:31 | 49.44790 | 8.63032 | 106° | 18km/h | 20720m | 5.7m/s | -55.8°C | 1.2% | 52.2hPa | 2.7V | 18:12:15 | 01:38:43 | 00:00:00 | |
| DO3MHA-11 | 2026-09-04 06:09:30 | 49.44792 | 8.63025 | 109° | 24km/h | 20715m | 4.3m/s | -55.7°C | 4.7% | 52.2hPa | 2.7V | 00:00:00 | 01:38:42 | 00:00:00 | |
| DL1XH1-15 | 2026-09-04 06:09:29 | 49.44804 | 8.62973 | 99° | 27km/h | 20687m | 4.8m/s | -55.6°C | 4.6% | 52.5hPa | 2.5V | 08:30:00 | 01:38:36 | 00:00:00 | |
| AU51GT2 | 2026-09-04 06:09:28 | 49.44795 | 8.63010 | 114° | 20km/h | 20706m | 5.3m/s | -55.7°C | 1.4% | 52.3hPa | 2.6V | 00:00:00 | 00:00:00 | 00:00:00 | |
| DM0DOS-11 | 2026-09-04 06:09:27 | 49.44806 | 8.62953 | 100° | 26km/h | 20679m | 4m/s | -55.5°C | 4.6% | 52.5hPa | 2.6V | 08:30:00 | 01:38:34 | 00:00:00 | |
| DL1XH-west | 2026-09-04 06:09:25 | 49.44803 | 8.62984 | 107° | 27km/h | 20692m | 5.4m/s | -55.6°C | 1.2% | 52.5hPa | 2.7V | 18:12:15 | 01:38:37 | 00:00:00 | |
| BIOWL1-15 | 2026-09-04 06:09:21 | 49.44808 | 8.62944 | 106° | 24km/h | 20674m | 5m/s | -55.5°C | 1.2% | 52.6hPa | 2.7V | 18:12:15 | 01:38:33 | 00:00:00 | |
| DL4BBY-15 | 2026-09-04 06:09:21 | 49.44808 | 8.62943 | 107° | 16km/h | 20675m | 5.0m/s | -57.6°C | 0% | 0hPa | 2.7V | 00:00:00 | 00:00:00 | 00:00:00 | |
| DJ2KF-10 | 2026-09-04 06:09:20 | 49.44809 | 8.62935 | 111° | 18km/h | 20670m | 3.9m/s | -55.4°C | 4.6% | 52.6hPa | 2.7V | 00:00:00 | 01:38:32 | 00:00:00 | |
| DL1XH1-15 | 2026-09-04 06:09:19 | 49.44814 | 8.62896 | 102° | 18km/h | 20643m | 5m/s | -55.5°C | 4.7% | 52.8hPa | 2.7V | 08:30:00 | 01:38:26 | 00:00:00 | |
| DB0ND-19 | 2026-09-04 06:09:18 | 49.44812 | 8.62922 | 101° | 16km/h | 20662m | 4.9m/s | -55.5°C | 1.4% | 52.7hPa | 2.5V | 00:00:00 | 00:00:00 | 00:00:00 | |
| DM0DOS-11 | 2026-09-04 06:09:17 | 49.44816 | 8.62882 | 102° | 20km/h | 20635m | 4m/s | -55.4°C | 4.6% | 52.9hPa | 2.5V | 08:30:00 | 01:38:24 | 00:00:00 | |
| DL1XH-west | 2026-09-04 06:09:15 | 49.44813 | 8.62903 | 96° | 16km/h | 20648m | 4.3m/s | -55.5°C | 1.2% | 52.8hPa | 2.7V | 18:12:15 | 01:38:27 | 00:00:00 | |
| BIOWL7-15 | 2026-09-04 06:09:15 | 49.44813 | 8.62903 | 97° | 16km/h | 20649m | 4.3m/s | -55.5°C | 1.4% | 52.8hPa | 2.5V | 00:00:00 | 00:00:00 | 00:00:00 | |
| DL8DAS-15 | 2026-09-04 06:09:14 | 49.44813 | 8.62903 | 97° | 16km/h | 20649m | 4.3m/s | -55.5°C | 1.5% | 52.8hPa | 2.5V | 00:00:00 | 00:00:00 | 00:00:00 | |
| DJ2DS-15 | 2026-09-04 06:09:13 | 49.44815 | 8.62889 | 107° | 20km/h | 20639m | 4.1m/s | -55.4°C | 4.6% | 52.8hPa | 2.5V | 00:00:00 | 01:38:25 | 08:30:00 | |
| DL3AQ-11 | 2026-09-04 06:09:12 | 49.44817 | 8.62874 | 96° | 20km/h | 20630m | 5.2m/s | -55.5°C | 1.4% | 52.9hPa | 2.5V | 00:00:00 | 00:00:00 | 00:00:00 | |
| DO3MHA-11 | 2026-09-04 06:09:10 | 49.44817 | 8.62867 | 90° | 20km/h | 20625m | 5.0m/s | -55.4°C | 4.6% | 53.0hPa | 2.5V | 00:00:00 | 01:38:22 | 00:00:00 | |
| BIOWL1-15 | 2026-09-04 06:09:10 | 49.44817 | 8.62867 | 89° | 20km/h | 20625m | 5m/s | -55.5°C | 1.1% | 53hPa | 2.7V | 18:12:15 | 01:38:22 | 00:00:00 | |
| DL0LBS | 2026-09-04 06:09:09 | 49.44817 | 8.62867 | 90° | 20km/h | 20625m | 5.0m/s | -55.5°C | 1.4% | 53.0hPa | 2.5V | 00:00:00 | 00:00:00 | 00:00:00 | |
| DD1CC8 | 2026-09-04 06:09:08 | 49.44817 | 8.62850 | 90° | 20km/h | 20616m | 4.4m/s | -55.4°C | 1.4% | 53.0hPa | 2.5V | 00:00:00 | 00:00:00 | 00:00:00 | |
| DM0DOS-11 | 2026-09-04 06:09:07 | 49.44817 | 8.62802 | 68° | 20km/h | 20588m | 4.1m/s | -55.3°C | 4.5% | 53.3hPa | 2.5V | 08:30:00 | 01:38:14 | 00:00:00 | |
| DL1XH-west | 2026-09-04 06:09:04 | 49.44819 | 8.62817 | 89° | 20km/h | 20598m | 4.9m/s | -55.3°C | 1.2% | 53.2hPa | 2.7V | 18:12:15 | 01:38:16 | 00:00:00 | |
| BIOWL1-15 | 2026-09-04 06:09:00 | 49.44813 | 8.62788 | 70° | 20km/h | 20579m | 5.3m/s | -55.3°C | 1.2% | 53.4hPa | 2.6V | 18:12:15 | 01:38:12 | 00:00:00 | |
| DO1YAY-16 | 2026-09-04 06:08:59 | 49.44812 | 8.62780 | 76° | 20km/h | 20575m | 4.6m/s | -55.3°C | 1.4% | 53.4hPa | 2.7V | 00:00:00 | 00:00:00 | 00:00:00 | |
| DM0DOS-11 | 2026-09-04 06:08:57 | 49.44807 | 8.62733 | 103° | 18km/h | 20542m | 5.3m/s | -55.3°C | 4.5% | 53.7hPa | 2.7V | 08:30:00 | 01:38:04 | 00:00:00 | |
| DL1XH-west | 2026-09-04 06:08:53 | 49.44806 | 8.62740 | 92° | 16km/h | 20547m | 5.4m/s | -55.3°C | 1.1% | 53.6hPa | 2.6V | 18:12:15 | 01:38:05 | 00:00:00 | |
| DL8DAS-14 | 2026-09-04 06:08:53 | 49.44807 | 8.62733 | 103° | 16km/h | 20542m | 5.3m/s | -55.3°C | 1.4% | 53.7hPa | 2.5V | 00:00:00 | 00:00:00 | 00:00:00 | |
| SONDE2-11 | 2026-09-04 06:08:52 | 49.44811 | 8.62715 | 108° | 13km/h | 20527m | 5.7m/s | 0°C | -1.0% | -1.0hPa | 2.5V | 00:00:00 | 00:00:00 | 00:00:00 | |
| DO3MHA-11 | 2026-09-04 06:08:50 | 49.44809 | 8.62721 | 111° | 11km/h | 20533m | 5.3m/s | -55.2°C | 4.5% | 53.7hPa | 2.5V | 00:00:00 | 01:38:02 | 00:00:00 | |
| DL1XH1-15 | 2026-09-04 06:08:49 | 49.44815 | 8.62691 | 101° | 11km/h | 20503m | 4.1m/s | -55.2°C | 4.4% | 54hPa | 2.5V | 08:30:00 | 01:37:56 | 00:00:00 | |
| BIOWL1-15 | 2026-09-04 06:08:49 | 49.44811 | 8.62715 | 109° | 15km/h | 20527m | 5.7m/s | -55.3°C | 1.1% | 53.8hPa | 2.5V | 18:12:15 | 01:38:01 | 00:00:00 | |
| DJ2KF-10 | 2026-09-04 06:08:49 | 49.44810 | 8.62715 | 109° | 16km/h | 20527m | 5.6m/s | -55.2°C | 4.6% | 53.7hPa | 2.6V | 00:00:00 | 01:38:01 | 00:00:00 | |
| DM0DOS-11 | 2026-09-04 06:08:47 | 49.44815 | 8.62684 | 76° | 7km/h | 20493m | 4.9m/s | -55.2°C | 4.5% | 54.1hPa | 2.6V | 08:30:00 | 01:37:54 | 00:00:00 | |
| DF3TZ-5 | 2026-09-04 06:08:46 | 49.44814 | 8.62700 | 107° | 13km/h | 20512m | 5.6m/s | -55.2°C | 1.4% | 53.9hPa | 2.5V | 00:00:00 | 00:00:00 | 00:00:00 | |
| DL1XH-west | 2026-09-04 06:08:43 | 49.44816 | 8.62687 | 91° | 9km/h | 20498m | 5.8m/s | -55.2°C | 1.1% | 54.1hPa | 2.5V | 18:12:15 | 01:37:55 | 00:00:00 | |
| DL1NUX | 2026-09-04 06:08:42 | 49.44821 | 8.62663 | 126° | 22km/h | 20470m | 4.4m/s | 0°C | 0% | 0hPa | 2.5V | 08:30:00 | 01:37:49 | 00:00:00 | |
| HSKMA3-T | 2026-09-04 06:08:42 | 49.44816 | 8.62684 | 76° | 7km/h | 20493m | 4.9m/s | -55.2°C | 1.1% | 54.1hPa | 2.6V | 18:12:15 | 01:37:54 | 00:00:00 | |
| BIOWL1-15 | 2026-09-04 06:08:39 | 49.44816 | 8.62675 | 112° | 13km/h | 20481m | 5.2m/s | -55.2°C | 1.1% | 54.2hPa | 2.7V | 18:12:15 | 01:37:51 | 00:00:00 | |
| DG9SBQ-11 | 2026-09-04 06:08:38 | 49.44816 | 8.62675 | 113° | 13km/h | 20481m | 5.2m/s | -55.2°C | 1.4% | 54.2hPa | 2.5V | 00:00:00 | 00:00:00 | 00:00:00 | |
| DM0DOS-11 | 2026-09-04 06:08:37 | 49.44835 | 8.62636 | 122° | 9km/h | 20446m | 5.4m/s | -55.2°C | 4.5% | 54.5hPa | 2.5V | 08:30:00 | 01:37:44 | 00:00:00 | |
| DM3KS-11 | 2026-09-04 06:08:35 | 49.44831 | 8.62644 | 129° | 16km/h | 20457m | 5.2m/s | -55.2°C | 1.4% | 54.4hPa | 2.5V | 00:00:00 | 00:00:00 | 00:00:00 | |
| DJ2DS-15 | 2026-09-04 06:08:33 | 49.44833 | 8.62640 | 125° | 16km/h | 20452m | 5.6m/s | -55.2°C | 4.5% | 54.4hPa | 2.5V | 00:00:00 | 01:37:45 | 00:00:00 | |
| DL1NUX | 2026-09-04 06:08:32 | 49.44843 | 8.62614 | 129° | 18km/h | 20421m | 4.9m/s | 0°C | 0% | 0hPa | 2.5V | 00:00:00 | 01:37:39 | 00:00:00 | |
| DL1XH-west | 2026-09-04 06:08:32 | 49.44835 | 8.62636 | 122° | 9km/h | 20446m | 5.4m/s | -55.2°C | 1.1% | 54.5hPa | 2.5V | 18:12:15 | 01:37:44 | 00:00:00 | |
| BIOWL1-15 | 2026-09-04 06:08:30 | 49.44841 | 8.62619 | 124° | 18km/h | 20426m | 4m/s | -55.2°C | 1.1% | 54.7hPa | 2.7V | 18:12:15 | 01:37:40 | 00:00:00 | |
| DO3MHA-11 | 2026-09-04 06:08:30 | 49.44837 | 8.62629 | 115° | 18km/h | 20436m | 5.5m/s | -55.2°C | 4.4% | 54.5hPa | 2.7V | 00:00:00 | 01:37:42 | 00:00:00 | |
| DL1XH1-15 | 2026-09-04 06:08:29 | 49.44853 | 8.62598 | 134° | 22km/h | 20407m | 4.7m/s | -55.2°C | 4.4% | 54.9hPa | 2.6V | 08:30:00 | 01:37:36 | 00:00:00 | |
| DO1YAY-16 | 2026-09-04 06:08:28 | 49.44843 | 8.62614 | 129° | 16km/h | 20422m | 4.9m/s | -55.2°C | 1.4% | 54.7hPa | 2.7V | 00:00:00 | 00:00:00 | 00:00:00 | |
| DM0DOS-11 | 2026-09-04 06:08:27 | 49.44861 | 8.62585 | 133° | 24km/h | 20396m | 4.4m/s | -55.2°C | 4.4% | 54.9hPa | 2.7V | 08:30:00 | 01:37:34 | 00:00:00 | |
| DL1XH-west | 2026-09-04 06:08:21 | 49.44865 | 8.62578 | 134° | 24km/h | 20392m | 3.8m/s | -55.3°C | 1.1% | 55hPa | 2.7V | 18:12:15 | 01:37:33 | 00:00:00 | |
| NBG1-10 | 2026-09-04 06:08:21 | 49.44865 | 8.62578 | 135° | 20km/h | 20393m | 3.7m/s | -55.3°C | 4.4% | 54.9hPa | 2.5V | 00:00:00 | 01:37:33 | 00:00:00 | |
| DO3MHA-11 | 2026-09-04 06:08:20 | 49.44869 | 8.62572 | 138° | 16km/h | 20388m | 5.7m/s | -55.3°C | 4.4% | 55.0hPa | 2.5V | 00:00:00 | 01:37:32 | 00:00:00 | |
| DL1XH1-15 | 2026-09-04 06:08:19 | 49.44886 | 8.62552 | 144° | 16km/h | 20358m | 4.5m/s | -55.4°C | 4.4% | 55.2hPa | 2.5V | 08:30:00 | 01:37:26 | 00:00:00 | |
| HSKMA3-T | 2026-09-04 06:08:19 | 49.44873 | 8.62568 | 142° | 16km/h | 20382m | 5.2m/s | 0°C | 0% | 55.1hPa | 2.5V | 18:12:15 | 01:37:31 | 00:00:00 | |
| BIOWL1-15 | 2026-09-04 06:08:18 | 49.44876 | 8.62564 | 146° | 13km/h | 20377m | 4.5m/s | -55.4°C | 1.1% | 55.1hPa | 2.6V | 18:12:15 | 01:37:30 | 00:00:00 | |
| DM0DOS-11 | 2026-09-04 06:08:17 | 49.44894 | 8.62545 | 157° | 16km/h | 20348m | 5.8m/s | -55.5°C | 4.4% | 55.3hPa | 2.7V | 08:30:00 | 01:37:24 | 00:00:00 | |
| DL1XH-west | 2026-09-04 06:08:11 | 49.44898 | 8.62543 | 158° | 18km/h | 20343m | 4.7m/s | -55.6°C | 1.1% | 55.4hPa | 2.7V | 18:12:15 | 01:37:23 | 00:00:00 | |
| DO3MHA-11 | 2026-09-04 06:08:10 | 49.44902 | 8.62540 | 153° | 20km/h | 20339m | 4.0m/s | -55.6°C | 4.4% | 55.4hPa | 2.5V | 00:00:00 | 01:37:22 | 00:00:00 | |
| DL1XH1-15 | 2026-09-04 06:08:09 | 49.44925 | 8.62512 | 150° | 18km/h | 20309m | 4.4m/s | -55.8°C | 4.5% | 55.7hPa | 2.5V | 08:30:00 | 01:37:16 | 00:00:00 | |
| HSKMA3-T | 2026-09-04 06:08:08 | 49.44910 | 8.62531 | 137° | 20km/h | 20329m | 5m/s | 0°C | 0% | 55.5hPa | 2.5V | 18:12:15 | 01:37:20 | 00:00:00 | |
| DL1XH-west | 2026-09-04 06:08:01 | 49.44937 | 8.62499 | 138° | 20km/h | 20294m | 5m/s | -56.2°C | 1.1% | 55.8hPa | 2.7V | 18:12:15 | 01:37:13 | 00:00:00 | |
| DF7PN | 2026-09-04 06:08:00 | 49.44944 | 8.62489 | 132° | 18km/h | 20284m | 6.0m/s | -56.5°C | 1.5% | 55.9hPa | 2.7V | 00:00:00 | 00:00:00 | 00:00:00 | |
| DL1XH1-15 | 2026-09-04 06:07:59 | 49.44962 | 8.62454 | 124° | 31km/h | 20257m | 4.7m/s | -56.7°C | 5% | 56.1hPa | 2.7V | 08:30:00 | 01:37:06 | 00:00:00 | |
| HSKMA3-T | 2026-09-04 06:07:58 | 49.44947 | 8.62484 | 135° | 18km/h | 20278m | 5.6m/s | 0°C | 0% | 55.9hPa | 2.5V | 18:12:15 | 01:37:10 | 00:00:00 | |
| DM0DOS-11 | 2026-09-04 06:07:57 | 49.44971 | 8.62435 | 130° | 31km/h | 20248m | 6m/s | -56.7°C | 5% | 56.2hPa | 2.5V | 08:30:00 | 01:37:04 | 00:00:00 | |
| DL1XH-west | 2026-09-04 06:07:51 | 49.44977 | 8.62426 | 135° | 31km/h | 20242m | 5.7m/s | -56.7°C | 1.3% | 56.3hPa | 2.5V | 18:12:15 | 01:37:03 | 00:00:00 | |
| DO3MHA-11 | 2026-09-04 06:07:50 | 49.44982 | 8.62418 | 138° | 22km/h | 20237m | 4.4m/s | -56.6°C | 5.0% | 56.3hPa | 2.7V | 00:00:00 | 01:37:02 | 00:00:00 | |
| DJ2KF-10 | 2026-09-04 06:07:49 | 49.44987 | 8.62410 | 135° | 18km/h | 20232m | 5.1m/s | -56.6°C | 5.0% | 56.3hPa | 2.7V | 00:00:00 | 01:37:01 | 00:00:00 | |
| NBG1-10 | 2026-09-04 06:07:48 | 49.44992 | 8.62401 | 128° | 18km/h | 20227m | 5.7m/s | -56.5°C | 4.9% | 56.3hPa | 2.7V | 00:00:00 | 01:37:00 | 00:00:00 | |
| DM0DOS-11 | 2026-09-04 06:07:47 | 49.45002 | 8.62357 | 92° | 18km/h | 20195m | 6m/s | -56.3°C | 4.9% | 56.7hPa | 2.7V | 08:30:00 | 01:36:54 | 00:00:00 | |
| BIOWL1-15 | 2026-09-04 06:07:47 | 49.44996 | 8.62393 | 119° | 26km/h | 20222m | 4.5m/s | -56.4°C | 1.4% | 56.5hPa | 2.5V | 18:12:15 | 01:36:59 | 00:00:00 | |
| BIOWL9-15 | 2026-09-04 06:07:46 | 49.44998 | 8.62385 | 111° | 22km/h | 20217m | 4.6m/s | -56.5°C | 1.5% | 56.5hPa | 2.5V | 00:00:00 | 00:00:00 | 00:00:00 | |
| DB0ND-19 | 2026-09-04 06:07:45 | 49.45000 | 8.62377 | 105° | 18km/h | 20212m | 6.2m/s | -56.4°C | 1.5% | 56.5hPa | 2.5V | 00:00:00 | 00:00:00 | 00:00:00 | |
| DL1XH-west | 2026-09-04 06:07:40 | 49.45003 | 8.62342 | 103° | 22km/h | 20184m | 3.8m/s | -56.2°C | 1.3% | 56.8hPa | 2.5V | 18:12:15 | 01:36:52 | 00:00:00 | |
| BIOWL1-15 | 2026-09-04 06:07:38 | 49.45013 | 8.62313 | 128° | 22km/h | 20164m | 4.6m/s | -56°C | 1.3% | 57hPa | 2.7V | 18:12:15 | 01:36:48 | 00:00:00 | |
| DM0DOS-11 | 2026-09-04 06:07:37 | 49.45026 | 8.62281 | 116° | 22km/h | 20144m | 4.8m/s | -55.9°C | 4.8% | 57.2hPa | 2.7V | 08:30:00 | 01:36:44 | 00:00:00 | |
| DL1XH-west | 2026-09-04 06:07:29 | 49.45029 | 8.62264 | 84° | 11km/h | 20129m | 4.4m/s | -55.8°C | 1.2% | 57.3hPa | 2.5V | 18:12:15 | 01:36:41 | 00:00:00 | |
| DJTTGO | 2026-09-04 06:07:28 | 49.45029 | 8.62264 | 85° | 11km/h | 20129m | 4.4m/s | -55.8°C | 1.4% | 57.3hPa | 2.5V | 00:00:00 | 00:00:00 | 00:00:00 | |
| DM0DOS-11 | 2026-09-04 06:07:27 | 49.45029 | 8.62230 | 110° | 13km/h | 20093m | 5.3m/s | -55.4°C | 4.6% | 57.6hPa | 2.5V | 08:30:00 | 01:36:34 | 00:00:00 | |
| BIOWL1-15 | 2026-09-04 06:07:26 | 49.45027 | 8.62249 | 84° | 15km/h | 20114m | 4.4m/s | -55.6°C | 1.1% | 57.4hPa | 2.7V | 18:12:15 | 01:36:38 | 00:00:00 | |
| DK5PH-5 | 2026-09-04 06:07:26 | 49.45027 | 8.62249 | 84° | 15km/h | 20114m | 4.3m/s | -55.6°C | 4.6% | 57.4hPa | 2.5V | 00:00:00 | 01:36:38 | 00:00:00 | |
| BIOWL7-15 | 2026-09-04 06:07:25 | 49.45027 | 8.62249 | 85° | 15km/h | 20114m | 4.4m/s | -55.6°C | 1.4% | 57.4hPa | 2.5V | 00:00:00 | 00:00:00 | 00:00:00 | |
| AU51GT2 | 2026-09-04 06:07:24 | 49.45027 | 8.62239 | 105° | 11km/h | 20104m | 5.5m/s | -55.5°C | 1.4% | 57.5hPa | 2.5V | 00:00:00 | 00:00:00 | 00:00:00 | |
| DL3AQ-11 | 2026-09-04 06:07:23 | 49.45030 | 8.62230 | 110° | 11km/h | 20093m | 5.4m/s | -55.5°C | 1.4% | 57.6hPa | 2.5V | 00:00:00 | 00:00:00 | 00:00:00 | |
| DL1ZP-14 | 2026-09-04 06:07:22 | 49.45030 | 8.62230 | 110° | 11km/h | 20093m | 5.4m/s | -55.5°C | 1.4% | 57.6hPa | 2.5V | 00:00:00 | 00:00:00 | 00:00:00 | |
| DL4BBY-15 | 2026-09-04 06:07:21 | 49.45030 | 8.62225 | 102° | 13km/h | 20088m | 5.7m/s | -57.5°C | 0% | 0hPa | 2.7V | 00:00:00 | 00:00:00 | 00:00:00 | |
| DO3MHA-11 | 2026-09-04 06:07:20 | 49.45031 | 8.62220 | 101° | 15km/h | 20083m | 4.4m/s | -55.3°C | 4.6% | 57.7hPa | 2.7V | 00:00:00 | 01:36:32 | 00:00:00 | |
| DL1XH1-15 | 2026-09-04 06:07:19 | 49.45037 | 8.62183 | 86° | 16km/h | 20052m | 5.5m/s | -55.3°C | 4.6% | 58hPa | 2.7V | 08:30:00 | 01:36:26 | 00:00:00 | |
| DL1XH-west | 2026-09-04 06:07:19 | 49.45032 | 8.62214 | 104° | 16km/h | 20078m | 4.6m/s | -55.3°C | 1.2% | 57.7hPa | 2.7V | 18:12:15 | 01:36:31 | 00:00:00 | |
| BIOWL1-15 | 2026-09-04 06:07:18 | 49.45036 | 8.62196 | 109° | 16km/h | 20063m | 4.3m/s | -55.4°C | 1.2% | 57.9hPa | 2.5V | 18:12:15 | 01:36:28 | 00:00:00 | |
| DB0NH | 2026-09-04 06:07:17 | 49.45034 | 8.62202 | 113° | 15km/h | 20067m | 5.1m/s | -55.2°C | 4.5% | 57.8hPa | 2.5V | 00:00:00 | 01:36:29 | 00:00:00 | |
| DM0DOS-11 | 2026-09-04 06:07:16 | 49.45035 | 8.62169 | 74° | 9km/h | 20038m | 5.7m/s | -55.3°C | 4.5% | 58.1hPa | 2.5V | 08:30:00 | 01:36:23 | 00:00:00 | |
| NBG1-10 | 2026-09-04 06:07:15 | 49.45037 | 8.62190 | 100° | 15km/h | 20058m | 5.8m/s | -55.3°C | 4.6% | 57.9hPa | 2.7V | 00:00:00 | 01:36:27 | 00:00:00 | |
| DB0ND-19 | 2026-09-04 06:07:14 | 49.45037 | 8.62184 | 86° | 15km/h | 20052m | 5.5m/s | -55.3°C | 0% | 58.0hPa | 2.7V | 00:00:00 | 00:00:00 | 00:00:00 | |
| DJ2DS-15 | 2026-09-04 06:07:13 | 49.45037 | 8.62177 | 78° | 15km/h | 20047m | 4.2m/s | -55.2°C | 4.5% | 58.0hPa | 2.7V | 00:00:00 | 01:36:25 | 00:00:00 | |
| DG9SBQ-11 | 2026-09-04 06:07:11 | 49.45036 | 8.62172 | 72° | 13km/h | 20043m | 4.2m/s | -55.3°C | 1.4% | 58.1hPa | 2.5V | 00:00:00 | 00:00:00 | 00:00:00 | |
| DO3MHA-11 | 2026-09-04 06:07:10 | 49.45035 | 8.62166 | 90° | 15km/h | 20033m | 4.9m/s | -55.3°C | 4.6% | 58.1hPa | 2.5V | 00:00:00 | 01:36:22 | 00:00:00 | |
| DL1XH1-15 | 2026-09-04 06:07:09 | 49.45038 | 8.62138 | 100° | 18km/h | 20002m | 5.8m/s | -55.4°C | 4.6% | 58.4hPa | 2.5V | 08:30:00 | 01:36:16 | 00:00:00 | |
| DL1XH-west | 2026-09-04 06:07:09 | 49.45035 | 8.62164 | 104° | 5km/h | 20028m | 4.1m/s | -55.3°C | 1.2% | 58.2hPa | 2.5V | 18:12:15 | 01:36:21 | 00:00:00 | |
| DL8DAS-15 | 2026-09-04 06:07:07 | 49.45035 | 8.62161 | 103° | 9km/h | 20024m | 5.2m/s | -55.4°C | 1.5% | 58.2hPa | 2.7V | 00:00:00 | 00:00:00 | 00:00:00 | |
| DM0DOS-11 | 2026-09-04 06:07:06 | 49.45039 | 8.62116 | 82° | 18km/h | 19988m | 4.2m/s | -55.2°C | 4.6% | 58.6hPa | 2.7V | 08:30:00 | 01:36:13 | 00:00:00 | |
| BIOWL1-15 | 2026-09-04 06:07:05 | 49.45037 | 8.62145 | 99° | 18km/h | 20007m | 4.4m/s | -55.4°C | 1.2% | 58.4hPa | 2.5V | 18:12:15 | 01:36:17 | 00:00:00 | |
| DD1CC8 | 2026-09-04 06:07:04 | 49.45039 | 8.62130 | 99° | 18km/h | 19997m | 4.9m/s | -55.3°C | 1.4% | 58.5hPa | 2.5V | 00:00:00 | 00:00:00 | 00:00:00 | |
| DM3KS-11 | 2026-09-04 06:07:02 | 49.45039 | 8.62116 | 82° | 18km/h | 19988m | 4.2m/s | -55.2°C | 1.4% | 58.6hPa | 2.5V | 00:00:00 | 00:00:00 | 00:00:00 | |
| DB0UT-9 | 2026-09-04 06:07:01 | 49.45039 | 8.62123 | 94° | 18km/h | 19993m | 3.8m/s | -55.3°C | 1.5% | 58.5hPa | 2.5V | 00:00:00 | 00:00:00 | 00:00:00 | |
| DB0UT-7 | 2026-09-04 06:07:00 | 49.45038 | 8.62109 | 73° | 13km/h | 19984m | 5.4m/s | -55.1°C | 4.6% | 58.6hPa | 2.5V | 00:00:00 | 00:00:00 | 00:00:00 | |
| DL1XH1-15 | 2026-09-04 06:06:59 | 49.45026 | 8.62072 | 67° | 15km/h | 19954m | 5.3m/s | -54.9°C | 4.6% | 58.9hPa | 2.7V | 08:30:00 | 01:36:06 | 00:00:00 | |
| DL1XH-west | 2026-09-04 06:06:58 | 49.45033 | 8.62094 | 62° | 20km/h | 19974m | 4.1m/s | -55.1°C | 1.2% | 58.7hPa | 2.5V | 18:12:15 | 01:36:10 | 00:00:00 | |
| DJ2KF-10 | 2026-09-04 06:06:57 | 49.45031 | 8.62088 | 62° | 11km/h | 19969m | 5.7m/s | -55.0°C | 4.6% | 58.7hPa | 2.5V | 00:00:00 | 01:36:09 | 00:00:00 | |
| DM0DOS-11 | 2026-09-04 06:06:56 | 49.45021 | 8.62056 | 67° | 13km/h | 19938m | 5.1m/s | -54.9°C | 4.5% | 59hPa | 2.5V | 08:30:00 | 01:36:03 | 00:00:00 | |
| BIOWL1-15 | 2026-09-04 06:06:56 | 49.45026 | 8.62072 | 68° | 15km/h | 19954m | 5.4m/s | -54.9°C | 1.1% | 58.9hPa | 2.7V | 18:12:15 | 01:36:06 | 00:00:00 | |
| DL3AQ-11 | 2026-09-04 06:06:56 | 49.45028 | 8.62077 | 65° | 13km/h | 19959m | 4.5m/s | -55.0°C | 1.4% | 58.9hPa | 2.5V | 00:00:00 | 00:00:00 | 00:00:00 | |
| DO1YAY-16 | 2026-09-04 06:06:55 | 49.45026 | 8.62072 | 67° | 13km/h | 19954m | 5.4m/s | -54.9°C | 1.4% | 58.9hPa | 2.5V | 00:00:00 | 00:00:00 | 00:00:00 | |
| AU51GT2 | 2026-09-04 06:06:53 | 49.45025 | 8.62066 | 63° | 15km/h | 19949m | 5.6m/s | -54.9°C | 1.4% | 58.9hPa | 2.5V | 00:00:00 | 00:00:00 | 00:00:00 | |
| DL1ZP-14 | 2026-09-04 06:06:51 | 49.45022 | 8.62056 | 67° | 13km/h | 19939m | 5.1m/s | -54.9°C | 1.4% | 59.0hPa | 2.5V | 00:00:00 | 00:00:00 | 00:00:00 | |
| DO3MHA-11 | 2026-09-04 06:06:50 | 49.45021 | 8.62052 | 72° | 13km/h | 19933m | 5.6m/s | -54.8°C | 4.5% | 59.0hPa | 2.7V | 00:00:00 | 01:36:02 | 00:00:00 | |
| DL1XH1-15 | 2026-09-04 06:06:49 | 49.45013 | 8.62027 | 72° | 15km/h | 19905m | 5.7m/s | -54.8°C | 4.5% | 59.3hPa | 2.7V | 08:30:00 | 01:35:56 | 00:00:00 | |
| DL1XH-west | 2026-09-04 06:06:47 | 49.45018 | 8.62041 | 61° | 11km/h | 19918m | 5.6m/s | -54.8°C | 1.1% | 59.2hPa | 2.5V | 18:12:15 | 01:35:59 | 00:00:00 | |
| BIOWL1-15 | 2026-09-04 06:06:44 | 49.45013 | 8.62027 | 73° | 15km/h | 19905m | 5.7m/s | -54.8°C | 1.1% | 59.3hPa | 2.7V | 18:12:15 | 01:35:56 | 00:00:00 | |
| DB0ND-19 | 2026-09-04 06:06:43 | 49.45012 | 8.62021 | 78° | 15km/h | 19899m | 5.0m/s | -54.8°C | 1.4% | 59.4hPa | 2.5V | 00:00:00 | 00:00:00 | 00:00:00 | |
| NBG1-10 | 2026-09-04 06:06:42 | 49.45012 | 8.62015 | 79° | 7km/h | 19895m | 4.5m/s | -54.7°C | 4.5% | 59.4hPa | 2.5V | 00:00:00 | 01:35:54 | 00:00:00 | |
| HEMX73-11 | 2026-09-04 06:06:41 | 49.45012 | 8.62015 | 80° | 16km/h | 19895m | 4.6m/s | -54.8°C | 1.4% | 59.4hPa | 2.5V | 00:00:00 | 00:00:00 | 00:00:00 | |
| DO3MHA-11 | 2026-09-04 06:06:40 | 49.45009 | 8.62003 | 70° | 9km/h | 19885m | 4.8m/s | -54.7°C | 4.5% | 59.5hPa | 2.5V | 00:00:00 | 01:35:52 | 00:00:00 | |
| DL1XH1-15 | 2026-09-04 06:06:39 | 49.45004 | 8.61979 | 54° | 5km/h | 19855m | 5.5m/s | -54.4°C | 4.5% | 59.8hPa | 2.5V | 08:30:00 | 01:35:46 | 00:00:00 | |
| DL1XH-west | 2026-09-04 06:06:37 | 49.45005 | 8.61987 | 77° | 11km/h | 19870m | 5.3m/s | -54.6°C | 1.1% | 59.7hPa | 2.7V | 18:12:15 | 01:35:49 | 00:00:00 | |
| DM0DOS-11 | 2026-09-04 06:06:36 | 49.45002 | 8.61976 | 90° | 2km/h | 19841m | 5.2m/s | -54.4°C | 4.5% | 59.9hPa | 2.7V | 08:30:00 | 01:35:43 | 00:00:00 | |
| BIOWL1-15 | 2026-09-04 06:06:35 | 49.45003 | 8.61978 | 38° | 5km/h | 19850m | 4.3m/s | -54.4°C | 1.1% | 59.9hPa | 2.5V | 18:12:15 | 01:35:45 | 00:00:00 | |
| DF2AP-13 | 2026-09-04 06:06:34 | 49.45004 | 8.61979 | 55° | 5km/h | 19855m | 5.4m/s | -54.4°C | 4.5% | 59.7hPa | 2.5V | 00:00:00 | 01:35:46 | 00:00:00 | |
| DJ2DS-15 | 2026-09-04 06:06:33 | 49.45003 | 8.61978 | 38° | 5km/h | 19850m | 4.2m/s | -54.3°C | 4.4% | 59.8hPa | 2.5V | 00:00:00 | 01:35:45 | 00:00:00 | |
| CB1BUN | 2026-09-04 06:06:31 | 49.45002 | 8.61977 | 43° | 4km/h | 19846m | 4.1m/s | -54.4°C | 1.4% | 59.9hPa | 2.5V | 00:00:00 | 00:00:00 | 00:00:00 | |
| DB0UT-7 | 2026-09-04 06:06:30 | 49.45002 | 8.61975 | 123° | 5km/h | 19836m | 4.9m/s | -54.3°C | 4.5% | 59.9hPa | 2.5V | 00:00:00 | 01:35:42 | 00:00:00 | |
| DL1XH1-15 | 2026-09-04 06:06:29 | 49.44997 | 8.61967 | 63° | 7km/h | 19806m | 5.7m/s | -54.2°C | 4.4% | 60.2hPa | 2.5V | 08:30:00 | 01:35:36 | 00:00:00 | |
| DG9SBQ-11 | 2026-09-04 06:06:28 | 49.45002 | 8.61975 | 0° | 0km/h | 19832m | 4.5m/s | -54.3°C | 1.4% | 60.0hPa | 2.5V | 00:00:00 | 00:00:00 | 00:00:00 | |
| DM0DOS-11 | 2026-09-04 06:06:26 | 49.44995 | 8.61958 | 57° | 7km/h | 19791m | 5.9m/s | -54°C | 4.4% | 60.4hPa | 2.5V | 08:30:00 | 01:35:33 | 00:00:00 | |
| DL1XH-west | 2026-09-04 06:06:26 | 49.45000 | 8.61972 | 35° | 7km/h | 19816m | 4.3m/s | -54.2°C | 1.1% | 60.2hPa | 2.7V | 18:12:15 | 01:35:38 | 00:00:00 | |
| BIOWL1-15 | 2026-09-04 06:06:23 | 49.44996 | 8.61964 | 75° | 7km/h | 19801m | 4.8m/s | -54.2°C | 1.1% | 60.3hPa | 2.5V | 18:12:15 | 01:35:35 | 00:00:00 | |
| AU51GT2 | 2026-09-04 06:06:22 | 49.44996 | 8.61961 | 71° | 7km/h | 19796m | 4.3m/s | -54.1°C | 1.4% | 60.4hPa | 2.7V | 00:00:00 | 00:00:00 | 00:00:00 | |
| DL4BBY-15 | 2026-09-04 06:06:20 | 49.44994 | 8.61956 | 45° | 5km/h | 19786m | 5.1m/s | -56.2°C | 0% | 0hPa | 2.7V | 00:00:00 | 00:00:00 | 00:00:00 | |
| DL1XH1-15 | 2026-09-04 06:06:19 | 49.44988 | 8.61952 | 339° | 7km/h | 19755m | 5.1m/s | -53.8°C | 4.3% | 60.8hPa | 2.7V | 08:30:00 | 01:35:26 | 00:00:00 | |
| DF1GD-15 | 2026-09-04 06:06:18 | 49.44992 | 8.61954 | 45° | 7km/h | 19781m | 4.6m/s | -54.0°C | 1.4% | 60.5hPa | 2.5V | 00:00:00 | 00:00:00 | 00:00:00 | |
| DB0NH | 2026-09-04 06:06:17 | 49.44991 | 8.61951 | 61° | 5km/h | 19770m | 5.0m/s | -53.8°C | 4.3% | 60.6hPa | 2.5V | 00:00:00 | 01:35:29 | 00:00:00 | |
| DM0DOS-11 | 2026-09-04 06:06:16 | 49.44982 | 8.61954 | 353° | 5km/h | 19740m | 5.4m/s | -53.6°C | 4.3% | 60.9hPa | 2.5V | 08:30:00 | 01:35:23 | 00:00:00 | |
| DL1XH-west | 2026-09-04 06:06:15 | 49.44989 | 8.61951 | 347° | 5km/h | 19760m | 5.8m/s | -53.9°C | 1% | 60.7hPa | 2.5V | 18:12:15 | 01:35:27 | 00:00:00 | |
| BIOWL1-15 | 2026-09-04 06:06:14 | 49.44984 | 8.61954 | 345° | 7km/h | 19746m | 5.1m/s | -53.7°C | 1% | 60.8hPa | 2.5V | 18:12:15 | 01:35:24 | 00:00:00 | |
| DJ2DS-15 | 2026-09-04 06:06:13 | 49.44986 | 8.61953 | 342° | 5km/h | 19750m | 3.8m/s | -53.6°C | 4.3% | 60.8hPa | 2.7V | 00:00:00 | 01:35:25 | 08:30:00 | |
| HEMX73-6 | 2026-09-04 06:06:12 | 49.44984 | 8.61953 | 345° | 47km/h | 19746m | 5.1m/s | -53.6°C | 4.2% | 60.8hPa | 2.5V | 00:00:00 | 01:35:24 | 00:00:00 | |
| DF3TZ-5 | 2026-09-04 06:06:11 | 49.44982 | 8.61954 | 353° | 5km/h | 19740m | 5.4m/s | -53.6°C | 1.3% | 60.9hPa | 2.5V | 00:00:00 | 00:00:00 | 00:00:00 | |
| DO3MHA-11 | 2026-09-04 06:06:10 | 49.44981 | 8.61954 | 13° | 5km/h | 19736m | 4.2m/s | -53.5°C | 4.2% | 60.9hPa | 2.5V | 00:00:00 | 01:35:22 | 00:00:00 | |
| DL1XH1-15 | 2026-09-04 06:06:09 | 49.44970 | 8.61952 | 328° | 4km/h | 19705m | 4.1m/s | -53.3°C | 4.3% | 61.2hPa | 2.5V | 08:30:00 | 01:35:16 | 00:00:00 | |
| NBG1-10 | 2026-09-04 06:06:09 | 49.44979 | 8.61953 | 15° | 5km/h | 19731m | 4.7m/s | -53.5°C | 4.2% | 60.9hPa | 2.7V | 00:00:00 | 01:35:21 | 08:30:00 | |
| DM0DOS-11 | 2026-09-04 06:06:06 | 49.44968 | 8.61956 | 305° | 5km/h | 19691m | 4.9m/s | -53.3°C | 4.2% | 61.3hPa | 2.7V | 08:30:00 | 01:35:13 | 00:00:00 | |
| DL1XH-west | 2026-09-04 06:06:04 | 49.44970 | 8.61952 | 329° | 4km/h | 19705m | 4.1m/s | -53.3°C | 1% | 61.2hPa | 2.5V | 18:12:15 | 01:35:16 | 00:00:00 | |
| BIOWL1-15 | 2026-09-04 06:06:01 | 49.44968 | 8.61956 | 306° | 5km/h | 19691m | 4.9m/s | -53.3°C | 0.9% | 61.3hPa | 2.7V | 18:12:15 | 01:35:13 | 00:00:00 | |
| DB0UT-7 | 2026-09-04 06:06:00 | 49.44967 | 8.61958 | 298° | 5km/h | 19686m | 4.7m/s | -53.2°C | 4.2% | 61.4hPa | 2.5V | 00:00:00 | 00:00:00 | 00:00:00 | |
| DL1XH1-15 | 2026-09-04 06:05:59 | 49.44964 | 8.61964 | 352° | 7km/h | 19657m | 4.1m/s | -53°C | 4.2% | 61.7hPa | 2.5V | 08:30:00 | 01:35:06 | 00:00:00 | |
| DF1GD-15 | 2026-09-04 06:05:58 | 49.44967 | 8.61961 | 248° | 4km/h | 19676m | 4.7m/s | -53.1°C | 1.3% | 61.5hPa | 2.7V | 00:00:00 | 00:00:00 | 00:00:00 | |
| KANTATE | 2026-09-04 06:05:57 | 49.44967 | 8.61961 | 248° | 4km/h | 19676m | 4.7m/s | -53.1°C | 1.3% | 61.5hPa | 2.7V | 00:00:00 | 00:00:00 | 00:00:00 | |
| DM0DOS-11 | 2026-09-04 06:05:56 | 49.44960 | 8.61965 | 341° | 2km/h | 19643m | 4.2m/s | -53°C | 4.3% | 61.8hPa | 2.7V | 08:30:00 | 01:35:03 | 00:00:00 | |
| BIOWL1-15 | 2026-09-04 06:05:53 | 49.44960 | 8.61965 | 342° | 2km/h | 19643m | 4.2m/s | -53.1°C | 1% | 61.8hPa | 2.7V | 18:12:15 | 01:35:03 | 00:00:00 | |
| DL1XH-west | 2026-09-04 06:05:53 | 49.44962 | 8.61965 | 353° | 7km/h | 19652m | 4.3m/s | -53.1°C | 0.9% | 61.7hPa | 2.5V | 18:12:15 | 01:35:05 | 00:00:00 | |
| DL3AQ-11 | 2026-09-04 06:05:52 | 49.44960 | 8.61965 | 341° | 2km/h | 19643m | 4.2m/s | -53.1°C | 1.3% | 61.8hPa | 2.5V | 00:00:00 | 00:00:00 | 00:00:00 | |
| AU51GT2 | 2026-09-04 06:05:51 | 49.44960 | 8.61965 | 341° | 2km/h | 19643m | 4.2m/s | -53.1°C | 1.3% | 61.8hPa | 2.5V | 00:00:00 | 00:00:00 | 00:00:00 | |
| DO3MHA-11 | 2026-09-04 06:05:50 | 49.44959 | 8.61966 | 314° | 4km/h | 19639m | 4.0m/s | -53.0°C | 4.2% | 61.8hPa | 2.5V | 00:00:00 | 01:35:02 | 00:00:00 | |
| DJ2KF-10 | 2026-09-04 06:05:49 | 49.44958 | 8.61967 | 310° | 7km/h | 19634m | 5.6m/s | -52.9°C | 4.2% | 61.9hPa | 2.5V | 00:00:00 | 01:35:01 | 00:00:00 | |
| DB0NH | 2026-09-04 06:05:47 | 49.44958 | 8.61969 | 283° | 7km/h | 19624m | 4.5m/s | -52.8°C | 4.1% | 62.0hPa | 2.5V | 00:00:00 | 01:34:59 | 00:00:00 | |
| DM0DOS-11 | 2026-09-04 06:05:46 | 49.44960 | 8.61975 | 313° | 5km/h | 19595m | 4m/s | -52.9°C | 4% | 62.2hPa | 2.5V | 08:30:00 | 01:34:53 | 00:00:00 | |
| BIOWL1-15 | 2026-09-04 06:05:42 | 49.44959 | 8.61977 | 306° | 7km/h | 19591m | 4.3m/s | -52.9°C | 0.8% | 62.3hPa | 2.5V | 18:12:15 | 01:34:52 | 00:00:00 | |
| DL1XH-west | 2026-09-04 06:05:42 | 49.44960 | 8.61973 | 300° | 4km/h | 19600m | 5.4m/s | -52.9°C | 0.9% | 62.2hPa | 2.7V | 18:12:15 | 01:34:54 | 00:00:00 | |
| DB0ND-19 | 2026-09-04 06:05:41 | 49.44960 | 8.61975 | 313° | 5km/h | 19595m | 4.0m/s | -52.9°C | 1.2% | 62.3hPa | 2.7V | 00:00:00 | 00:00:00 | 00:00:00 | |
| DO3MHA-11 | 2026-09-04 06:05:40 | 49.44959 | 8.61977 | 306° | 7km/h | 19591m | 4.3m/s | -52.8°C | 3.9% | 62.3hPa | 2.7V | 00:00:00 | 01:34:52 | 00:00:00 | |
| HEMX73-11 | 2026-09-04 06:05:39 | 49.44959 | 8.61977 | 307° | 7km/h | 19591m | 4.3m/s | -52.9°C | 1.2% | 62.3hPa | 2.7V | 00:00:00 | 00:00:00 | 00:00:00 | |
| DB0UT-9 | 2026-09-04 06:05:37 | 49.44958 | 8.61982 | 267° | 7km/h | 19581m | 5.7m/s | -52.8°C | 1.3% | 62.4hPa | 2.7V | 00:00:00 | 00:00:00 | 00:00:00 | |
| DM0DOS-11 | 2026-09-04 06:05:36 | 49.44968 | 8.61995 | 200° | 9km/h | 19548m | 5.5m/s | -52.8°C | 4.1% | 62.7hPa | 2.7V | 08:30:00 | 01:34:43 | 00:00:00 | |
| DL1XH-west | 2026-09-04 06:05:31 | 49.44968 | 8.61995 | 200° | 9km/h | 19548m | 5.6m/s | -52.8°C | 0.9% | 62.7hPa | 2.7V | 18:12:15 | 01:34:43 | 00:00:00 | |
| BIOWL1-15 | 2026-09-04 06:05:29 | 49.44973 | 8.61997 | 190° | 11km/h | 19539m | 4.3m/s | -52.8°C | 0.9% | 62.9hPa | 2.5V | 18:12:15 | 01:34:41 | 00:00:00 | |
| DM3KS-11 | 2026-09-04 06:05:28 | 49.44975 | 8.61998 | 181° | 7km/h | 19534m | 5.1m/s | -52.8°C | 1.3% | 62.9hPa | 2.5V | 00:00:00 | 00:00:00 | 00:00:00 | |
| DM0DOS-11 | 2026-09-04 06:05:26 | 49.44985 | 8.61994 | 158° | 5km/h | 19499m | 5.9m/s | -53°C | 4% | 63.2hPa | 2.5V | 08:30:00 | 01:34:33 | 00:00:00 | |
| BIOWL1-15 | 2026-09-04 06:05:21 | 49.44988 | 8.61992 | 167° | 9km/h | 19489m | 4.1m/s | -53°C | 0.9% | 63.3hPa | 2.7V | 18:12:15 | 01:34:31 | 00:00:00 | |
| DL1XH-west | 2026-09-04 06:05:20 | 49.44986 | 8.61993 | 155° | 5km/h | 19493m | 5m/s | -53°C | 0.9% | 63.3hPa | 2.7V | 18:12:15 | 01:34:32 | 00:00:00 | |
| DO3MHA-11 | 2026-09-04 06:05:20 | 49.44986 | 8.61992 | 156° | 15km/h | 19494m | 5.0m/s | -53.0°C | 4.1% | 63.2hPa | 2.5V | 00:00:00 | 01:34:32 | 00:00:00 | |
| DL1ZP-14 | 2026-09-04 06:05:18 | 49.44990 | 8.61991 | 178° | 11km/h | 19484m | 5.6m/s | -53.0°C | 1.3% | 63.4hPa | 2.5V | 00:00:00 | 00:00:00 | 00:00:00 | |
| DB0NH | 2026-09-04 06:05:17 | 49.44994 | 8.61991 | 182° | 24km/h | 19479m | 5.0m/s | -52.9°C | 4.0% | 63.4hPa | 2.5V | 00:00:00 | 01:34:29 | 00:00:00 | |
| DJ2KF-10 | 2026-09-04 06:05:16 | 49.44999 | 8.61991 | 179° | 26km/h | 19475m | 4.0m/s | -53.0°C | 4.0% | 63.4hPa | 2.5V | 00:00:00 | 01:34:28 | 00:00:00 | |
| DO8TBO-1 | 2026-09-04 06:05:15 | 49.45003 | 8.61991 | 173° | 26km/h | 19470m | 4.6m/s | 0°C | 0% | 0hPa | 2.5V | 00:00:00 | 01:34:27 | 00:00:00 | |
| DM0DOS-11 | 2026-09-04 06:05:14 | 49.45020 | 8.61968 | 128° | 16km/h | 19441m | 4.7m/s | -52.9°C | 4% | 63.8hPa | 2.5V | 08:30:00 | 01:34:21 | 00:00:00 | |
| DL1XH-west | 2026-09-04 06:05:09 | 49.45020 | 8.61968 | 129° | 16km/h | 19441m | 4.7m/s | -52.9°C | 0.9% | 63.8hPa | 2.5V | 18:12:15 | 01:34:21 | 00:00:00 | |
| DO9LL-15 | 2026-09-04 06:05:08 | 49.45023 | 8.61963 | 132° | 31km/h | 19437m | 3.9m/s | -52.8°C | 3.9% | 63.8hPa | 2.7V | 00:00:00 | 01:34:20 | 08:30:00 | |
| SFWM-10 | 2026-09-04 06:05:06 | 49.45026 | 8.61957 | 130° | 20km/h | 19433m | 4.6m/s | -52.9°C | 1.2% | 63.9hPa | 2.5V | 00:00:00 | 00:00:00 | 00:00:00 | |
| DM0DOS-11 | 2026-09-04 06:05:04 | 49.45065 | 8.61901 | 133° | 27km/h | 19396m | 4.9m/s | -53.8°C | 4.1% | 64.2hPa | 2.5V | 08:30:00 | 01:34:11 | 00:00:00 | |
| NBG1-10 | 2026-09-04 06:05:03 | 49.45043 | 8.61927 | 140° | 31km/h | 19413m | 5.4m/s | -53.0°C | 3.9% | 64.0hPa | 2.5V | 00:00:00 | 01:34:15 | 00:00:00 | |
| DF2AP-13 | 2026-09-04 06:05:02 | 49.45048 | 8.61921 | 145° | 33km/h | 19408m | 3.8m/s | -53.2°C | 3.9% | 64.1hPa | 2.5V | 00:00:00 | 01:34:14 | 00:00:00 | |
| DN1GJH-1 | 2026-09-04 06:05:01 | 49.45048 | 8.61921 | 145° | 27km/h | 19408m | 3.8m/s | -53.3°C | 1.3% | 64.1hPa | 2.5V | 00:00:00 | 00:00:00 | 00:00:00 | |
| DO3MHA-11 | 2026-09-04 06:05:00 | 49.45059 | 8.61908 | 141° | 27km/h | 19401m | 4.9m/s | -53.6°C | 4.0% | 64.1hPa | 2.5V | 00:00:00 | 01:34:12 | 00:00:00 | |
| DL1XH1-15 | 2026-09-04 06:04:59 | 49.45082 | 8.61862 | 119° | 26km/h | 19374m | 4.1m/s | -54°C | 4.2% | 64.5hPa | 2.5V | 08:30:00 | 01:34:06 | 00:00:00 | |
| BIOWL1-15 | 2026-09-04 06:04:59 | 49.45065 | 8.61901 | 134° | 27km/h | 19396m | 4.9m/s | -53.8°C | 0.9% | 64.2hPa | 2.5V | 18:12:15 | 01:34:11 | 00:00:00 | |
| DM3KS-11 | 2026-09-04 06:04:57 | 49.45082 | 8.61862 | 119° | 26km/h | 19374m | 4.1m/s | -54.0°C | 1.3% | 64.5hPa | 2.7V | 00:00:00 | 00:00:00 | 00:00:00 | |
| DL3AQ-11 | 2026-09-04 06:04:55 | 49.45086 | 8.61852 | 119° | 29km/h | 19369m | 5.0m/s | -54.1°C | -1.0% | -1.0hPa | 2.7V | 00:00:00 | 00:00:00 | 00:00:00 | |
| DM0DOS-11 | 2026-09-04 06:04:54 | 49.45107 | 8.61809 | 134° | 35km/h | 19352m | 4.7m/s | -54.2°C | 4.2% | 64.7hPa | 2.7V | 08:30:00 | 01:34:01 | 00:00:00 | |
| DJ2DS-15 | 2026-09-04 06:04:53 | 49.45086 | 8.61852 | 120° | 35km/h | 19369m | 4.9m/s | -54.1°C | 4.2% | 64.5hPa | 2.7V | 00:00:00 | 01:34:05 | 00:00:00 | |
| DG9SBQ-11 | 2026-09-04 06:04:52 | 49.45086 | 8.61852 | 120° | 29km/h | 19369m | 5.0m/s | -54.1°C | 1.3% | 64.5hPa | 2.7V | 00:00:00 | 00:00:00 | 00:00:00 | |
| DO3MHA-11 | 2026-09-04 06:04:50 | 49.45101 | 8.61819 | 131° | 35km/h | 19357m | 4.3m/s | -54.2°C | 4.2% | 64.6hPa | 2.7V | 00:00:00 | 01:34:02 | 00:00:00 | |
| DL1XH1-15 | 2026-09-04 06:04:49 | 49.45137 | 8.61758 | 125° | 37km/h | 19330m | 4m/s | -54.2°C | 4.2% | 64.9hPa | 2.7V | 08:30:00 | 01:33:56 | 00:00:00 | |
| DL1XH-west | 2026-09-04 06:04:49 | 49.45107 | 8.61809 | 135° | 35km/h | 19352m | 4.7m/s | -54.2°C | 1% | 64.7hPa | 2.7V | 18:12:15 | 01:34:01 | 00:00:00 | |
| BIOWL7-15 | 2026-09-04 06:04:48 | 49.45107 | 8.61809 | 136° | 35km/h | 19352m | 4.7m/s | -54.2°C | 1.3% | 64.7hPa | 2.5V | 00:00:00 | 00:00:00 | 00:00:00 | |
| DB0NH | 2026-09-04 06:04:47 | 49.45119 | 8.61790 | 135° | 33km/h | 19344m | 3.7m/s | -54.2°C | 4.2% | 64.7hPa | 2.5V | 00:00:00 | 01:33:59 | 00:00:00 | |
| DJ2KF-10 | 2026-09-04 06:04:46 | 49.45125 | 8.61780 | 132° | 33km/h | 19340m | 4.7m/s | -54.2°C | 4.2% | 64.8hPa | 2.5V | 00:00:00 | 01:33:58 | 00:00:00 | |
| DO8TBO-1 | 2026-09-04 06:04:45 | 49.45131 | 8.61770 | 129° | 33km/h | 19335m | 4.7m/s | 0°C | 0% | 0hPa | 2.7V | 00:00:00 | 01:33:57 | 00:00:00 | |
| DM0DOS-11 | 2026-09-04 06:04:44 | 49.45161 | 8.61704 | 122° | 31km/h | 19309m | 3.5m/s | -54.7°C | 4.3% | 65.1hPa | 2.7V | 08:30:00 | 01:33:51 | 00:00:00 | |
| DL0LBS | 2026-09-04 06:04:42 | 49.45142 | 8.61746 | 125° | 37km/h | 19327m | 3.9m/s | -54.2°C | 1.4% | 64.9hPa | 2.5V | 00:00:00 | 00:00:00 | 00:00:00 | |
| DG9SBQ-11 | 2026-09-04 06:04:41 | 49.45147 | 8.61735 | 126° | 37km/h | 19322m | 4.6m/s | -54.3°C | 1.3% | 65.0hPa | 2.5V | 00:00:00 | 00:00:00 | 00:00:00 | |
| DO3MHA-11 | 2026-09-04 06:04:40 | 49.45157 | 8.61714 | 126° | 33km/h | 19313m | 4.0m/s | -54.5°C | 4.2% | 65.0hPa | 2.5V | 00:00:00 | 01:33:52 | 00:00:00 | |
| DL1XH1-15 | 2026-09-04 06:04:39 | 49.45177 | 8.61645 | 105° | 31km/h | 19285m | 4.8m/s | -54.9°C | 4.5% | 65.4hPa | 2.5V | 08:30:00 | 01:33:46 | 00:00:00 | |
| DL1XH-west | 2026-09-04 06:04:38 | 49.45165 | 8.61693 | 119° | 33km/h | 19305m | 4.9m/s | -54.8°C | 1% | 65.2hPa | 2.7V | 18:12:15 | 01:33:50 | 00:00:00 | |
| DL4BBY-15 | 2026-09-04 06:04:38 | 49.45166 | 8.61693 | 119° | 31km/h | 19305m | 4.8m/s | -56.9°C | 0% | 0hPa | 2.5V | 00:00:00 | 00:00:00 | 00:00:00 | |
| DO9LL-15 | 2026-09-04 06:04:37 | 49.45169 | 8.61682 | 114° | 31km/h | 19300m | 5.3m/s | -54.9°C | 4.5% | 65.2hPa | 2.5V | 00:00:00 | 01:33:49 | 00:00:00 | |
| Es werden nur die letzten 3500 von 5559 Frames angezeigt. GPX/KML und Diagramme bleiben verfügbar. | |||||||||||||||